<?xml version="1.0" encoding="UTF-8" standalone="no" ?>
<gpx xmlns="http://www.topografix.com/GPX/1/1" xmlns:xsi="http://www.w3.org/2001/XMLSchema-instance" xsi:schemaLocation="http://www.topografix.com/GPX/1/1 http://www.topografix.com/GPX/1/1/gpx.xsd" version="1.1" creator="VisuGPX - https://www.visugpx.com">
  <metadata>
    <name>23-05-30</name>
    <desc><![CDATA[ADV]]></desc>
  </metadata>
  <trk>
    <name><![CDATA[23-05-30]]></name>
    <trkseg>
      <trkpt lat="46.884" lon="3.14829">
        <ele>209</ele>
        <time>2023-05-30T05:08:06.000Z</time>
      </trkpt>
      <trkpt lat="46.884" lon="3.14829">
        <ele>206.19999694824</ele>
        <time>2023-05-30T05:08:07.000Z</time>
      </trkpt>
      <trkpt lat="46.88403" lon="3.14841">
        <ele>206.39999389648</ele>
        <time>2023-05-30T05:08:33.000Z</time>
      </trkpt>
      <trkpt lat="46.88409" lon="3.14845">
        <ele>206.39999389648</ele>
        <time>2023-05-30T05:08:35.000Z</time>
      </trkpt>
      <trkpt lat="46.88423" lon="3.14858">
        <ele>206.39999389648</ele>
        <time>2023-05-30T05:08:40.000Z</time>
      </trkpt>
      <trkpt lat="46.88431" lon="3.1488">
        <ele>206.39999389648</ele>
        <time>2023-05-30T05:08:45.000Z</time>
      </trkpt>
      <trkpt lat="46.88433" lon="3.14925">
        <ele>206.39999389648</ele>
        <time>2023-05-30T05:08:55.000Z</time>
      </trkpt>
      <trkpt lat="46.88434" lon="3.1495">
        <ele>206</ele>
        <time>2023-05-30T05:09:01.000Z</time>
      </trkpt>
      <trkpt lat="46.88436" lon="3.14959">
        <ele>206</ele>
        <time>2023-05-30T05:09:03.000Z</time>
      </trkpt>
      <trkpt lat="46.8844" lon="3.14978">
        <ele>205.80000305176</ele>
        <time>2023-05-30T05:09:08.000Z</time>
      </trkpt>
      <trkpt lat="46.88439" lon="3.14988">
        <ele>206</ele>
        <time>2023-05-30T05:09:10.000Z</time>
      </trkpt>
      <trkpt lat="46.88428" lon="3.15023">
        <ele>206</ele>
        <time>2023-05-30T05:09:18.000Z</time>
      </trkpt>
      <trkpt lat="46.88419" lon="3.15057">
        <ele>206</ele>
        <time>2023-05-30T05:09:24.000Z</time>
      </trkpt>
      <trkpt lat="46.88411" lon="3.15091">
        <ele>206</ele>
        <time>2023-05-30T05:09:30.000Z</time>
      </trkpt>
      <trkpt lat="46.8841" lon="3.15102">
        <ele>205.80000305176</ele>
        <time>2023-05-30T05:09:32.000Z</time>
      </trkpt>
      <trkpt lat="46.88401" lon="3.1512">
        <ele>205.60000610352</ele>
        <time>2023-05-30T05:09:36.000Z</time>
      </trkpt>
      <trkpt lat="46.88397" lon="3.1513">
        <ele>205.60000610352</ele>
        <time>2023-05-30T05:09:39.000Z</time>
      </trkpt>
      <trkpt lat="46.88396" lon="3.15134">
        <ele>205.60000610352</ele>
        <time>2023-05-30T05:09:40.000Z</time>
      </trkpt>
      <trkpt lat="46.88399" lon="3.15147">
        <ele>206</ele>
        <time>2023-05-30T05:09:43.000Z</time>
      </trkpt>
      <trkpt lat="46.88401" lon="3.15157">
        <ele>206</ele>
        <time>2023-05-30T05:09:45.000Z</time>
      </trkpt>
      <trkpt lat="46.88407" lon="3.15196">
        <ele>205.60000610352</ele>
        <time>2023-05-30T05:09:51.000Z</time>
      </trkpt>
      <trkpt lat="46.88408" lon="3.15209">
        <ele>205.39999389648</ele>
        <time>2023-05-30T05:09:53.000Z</time>
      </trkpt>
      <trkpt lat="46.88408" lon="3.15219">
        <ele>205</ele>
        <time>2023-05-30T05:09:55.000Z</time>
      </trkpt>
      <trkpt lat="46.88408" lon="3.15222">
        <ele>204.80000305176</ele>
        <time>2023-05-30T05:09:56.000Z</time>
      </trkpt>
      <trkpt lat="46.88408" lon="3.15224">
        <ele>204.19999694824</ele>
        <time>2023-05-30T05:09:57.000Z</time>
      </trkpt>
      <trkpt lat="46.88409" lon="3.15224">
        <ele>203.80000305176</ele>
        <time>2023-05-30T05:09:59.000Z</time>
      </trkpt>
      <trkpt lat="46.88415" lon="3.15236">
        <ele>202.39999389648</ele>
        <time>2023-05-30T05:10:53.000Z</time>
      </trkpt>
      <trkpt lat="46.88417" lon="3.15242">
        <ele>202.39999389648</ele>
        <time>2023-05-30T05:10:55.000Z</time>
      </trkpt>
      <trkpt lat="46.8842" lon="3.15265">
        <ele>202.19999694824</ele>
        <time>2023-05-30T05:10:59.000Z</time>
      </trkpt>
      <trkpt lat="46.88426" lon="3.15316">
        <ele>201.80000305176</ele>
        <time>2023-05-30T05:11:06.000Z</time>
      </trkpt>
      <trkpt lat="46.88425" lon="3.15348">
        <ele>201.39999389648</ele>
        <time>2023-05-30T05:11:10.000Z</time>
      </trkpt>
      <trkpt lat="46.88424" lon="3.15356">
        <ele>201.19999694824</ele>
        <time>2023-05-30T05:11:11.000Z</time>
      </trkpt>
      <trkpt lat="46.88424" lon="3.15364">
        <ele>201.19999694824</ele>
        <time>2023-05-30T05:11:12.000Z</time>
      </trkpt>
      <trkpt lat="46.88417" lon="3.15432">
        <ele>200.39999389648</ele>
        <time>2023-05-30T05:11:21.000Z</time>
      </trkpt>
      <trkpt lat="46.88415" lon="3.15444">
        <ele>200.19999694824</ele>
        <time>2023-05-30T05:11:23.000Z</time>
      </trkpt>
      <trkpt lat="46.88413" lon="3.15456">
        <ele>199.80000305176</ele>
        <time>2023-05-30T05:11:26.000Z</time>
      </trkpt>
      <trkpt lat="46.88407" lon="3.15481">
        <ele>199.39999389648</ele>
        <time>2023-05-30T05:11:32.000Z</time>
      </trkpt>
      <trkpt lat="46.88406" lon="3.15487">
        <ele>199.39999389648</ele>
        <time>2023-05-30T05:11:33.000Z</time>
      </trkpt>
      <trkpt lat="46.88403" lon="3.1551">
        <ele>199.39999389648</ele>
        <time>2023-05-30T05:11:36.000Z</time>
      </trkpt>
      <trkpt lat="46.88398" lon="3.15534">
        <ele>199.19999694824</ele>
        <time>2023-05-30T05:11:39.000Z</time>
      </trkpt>
      <trkpt lat="46.88396" lon="3.15543">
        <ele>199</ele>
        <time>2023-05-30T05:11:40.000Z</time>
      </trkpt>
      <trkpt lat="46.88394" lon="3.15551">
        <ele>198.80000305176</ele>
        <time>2023-05-30T05:11:41.000Z</time>
      </trkpt>
      <trkpt lat="46.88392" lon="3.15559">
        <ele>198.80000305176</ele>
        <time>2023-05-30T05:11:42.000Z</time>
      </trkpt>
      <trkpt lat="46.88378" lon="3.15605">
        <ele>198</ele>
        <time>2023-05-30T05:11:48.000Z</time>
      </trkpt>
      <trkpt lat="46.88374" lon="3.1562">
        <ele>198</ele>
        <time>2023-05-30T05:11:50.000Z</time>
      </trkpt>
      <trkpt lat="46.88372" lon="3.15627">
        <ele>198</ele>
        <time>2023-05-30T05:11:51.000Z</time>
      </trkpt>
      <trkpt lat="46.88368" lon="3.15655">
        <ele>197.80000305176</ele>
        <time>2023-05-30T05:11:55.000Z</time>
      </trkpt>
      <trkpt lat="46.88368" lon="3.15663">
        <ele>197.80000305176</ele>
        <time>2023-05-30T05:11:56.000Z</time>
      </trkpt>
      <trkpt lat="46.88365" lon="3.15713">
        <ele>197.80000305176</ele>
        <time>2023-05-30T05:12:03.000Z</time>
      </trkpt>
      <trkpt lat="46.88365" lon="3.15726">
        <ele>197.80000305176</ele>
        <time>2023-05-30T05:12:05.000Z</time>
      </trkpt>
      <trkpt lat="46.88364" lon="3.15742">
        <ele>197.80000305176</ele>
        <time>2023-05-30T05:12:07.000Z</time>
      </trkpt>
      <trkpt lat="46.88363" lon="3.1575">
        <ele>197.60000610352</ele>
        <time>2023-05-30T05:12:08.000Z</time>
      </trkpt>
      <trkpt lat="46.8836" lon="3.15818">
        <ele>197.80000305176</ele>
        <time>2023-05-30T05:12:16.000Z</time>
      </trkpt>
      <trkpt lat="46.88354" lon="3.15866">
        <ele>198.19999694824</ele>
        <time>2023-05-30T05:12:22.000Z</time>
      </trkpt>
      <trkpt lat="46.88351" lon="3.1592">
        <ele>199</ele>
        <time>2023-05-30T05:12:29.000Z</time>
      </trkpt>
      <trkpt lat="46.88351" lon="3.15928">
        <ele>199.19999694824</ele>
        <time>2023-05-30T05:12:30.000Z</time>
      </trkpt>
      <trkpt lat="46.8835" lon="3.15989">
        <ele>200.19999694824</ele>
        <time>2023-05-30T05:12:38.000Z</time>
      </trkpt>
      <trkpt lat="46.8835" lon="3.16034">
        <ele>201.19999694824</ele>
        <time>2023-05-30T05:12:44.000Z</time>
      </trkpt>
      <trkpt lat="46.88351" lon="3.16049">
        <ele>201.80000305176</ele>
        <time>2023-05-30T05:12:46.000Z</time>
      </trkpt>
      <trkpt lat="46.8835" lon="3.16079">
        <ele>202.39999389648</ele>
        <time>2023-05-30T05:12:50.000Z</time>
      </trkpt>
      <trkpt lat="46.8835" lon="3.16126">
        <ele>202.80000305176</ele>
        <time>2023-05-30T05:12:56.000Z</time>
      </trkpt>
      <trkpt lat="46.88349" lon="3.16142">
        <ele>202.80000305176</ele>
        <time>2023-05-30T05:12:58.000Z</time>
      </trkpt>
      <trkpt lat="46.88352" lon="3.16221">
        <ele>201.60000610352</ele>
        <time>2023-05-30T05:13:07.000Z</time>
      </trkpt>
      <trkpt lat="46.88354" lon="3.1623">
        <ele>201.39999389648</ele>
        <time>2023-05-30T05:13:08.000Z</time>
      </trkpt>
      <trkpt lat="46.8836" lon="3.16264">
        <ele>200.39999389648</ele>
        <time>2023-05-30T05:13:12.000Z</time>
      </trkpt>
      <trkpt lat="46.88359" lon="3.16272">
        <ele>200.19999694824</ele>
        <time>2023-05-30T05:13:13.000Z</time>
      </trkpt>
      <trkpt lat="46.88356" lon="3.16279">
        <ele>200</ele>
        <time>2023-05-30T05:13:14.000Z</time>
      </trkpt>
      <trkpt lat="46.88344" lon="3.16286">
        <ele>199.19999694824</ele>
        <time>2023-05-30T05:13:16.000Z</time>
      </trkpt>
      <trkpt lat="46.88331" lon="3.16281">
        <ele>198.39999389648</ele>
        <time>2023-05-30T05:13:18.000Z</time>
      </trkpt>
      <trkpt lat="46.88324" lon="3.16276">
        <ele>198</ele>
        <time>2023-05-30T05:13:19.000Z</time>
      </trkpt>
      <trkpt lat="46.88304" lon="3.16261">
        <ele>196.80000305176</ele>
        <time>2023-05-30T05:13:22.000Z</time>
      </trkpt>
      <trkpt lat="46.88293" lon="3.16249">
        <ele>196.39999389648</ele>
        <time>2023-05-30T05:13:24.000Z</time>
      </trkpt>
      <trkpt lat="46.88289" lon="3.16243">
        <ele>196.39999389648</ele>
        <time>2023-05-30T05:13:25.000Z</time>
      </trkpt>
      <trkpt lat="46.88282" lon="3.16235">
        <ele>196</ele>
        <time>2023-05-30T05:13:27.000Z</time>
      </trkpt>
      <trkpt lat="46.88278" lon="3.16234">
        <ele>195.80000305176</ele>
        <time>2023-05-30T05:13:28.000Z</time>
      </trkpt>
      <trkpt lat="46.88274" lon="3.16236">
        <ele>195.80000305176</ele>
        <time>2023-05-30T05:13:29.000Z</time>
      </trkpt>
      <trkpt lat="46.88265" lon="3.16245">
        <ele>195.60000610352</ele>
        <time>2023-05-30T05:13:31.000Z</time>
      </trkpt>
      <trkpt lat="46.88251" lon="3.16256">
        <ele>195.19999694824</ele>
        <time>2023-05-30T05:13:34.000Z</time>
      </trkpt>
      <trkpt lat="46.8824" lon="3.16262">
        <ele>195</ele>
        <time>2023-05-30T05:13:36.000Z</time>
      </trkpt>
      <trkpt lat="46.88234" lon="3.16266">
        <ele>195</ele>
        <time>2023-05-30T05:13:37.000Z</time>
      </trkpt>
      <trkpt lat="46.88218" lon="3.16281">
        <ele>194.60000610352</ele>
        <time>2023-05-30T05:13:40.000Z</time>
      </trkpt>
      <trkpt lat="46.88209" lon="3.16294">
        <ele>194.19999694824</ele>
        <time>2023-05-30T05:13:42.000Z</time>
      </trkpt>
      <trkpt lat="46.88204" lon="3.16301">
        <ele>194</ele>
        <time>2023-05-30T05:13:43.000Z</time>
      </trkpt>
      <trkpt lat="46.88185" lon="3.16338">
        <ele>193.39999389648</ele>
        <time>2023-05-30T05:13:48.000Z</time>
      </trkpt>
      <trkpt lat="46.88154" lon="3.16388">
        <ele>193</ele>
        <time>2023-05-30T05:13:55.000Z</time>
      </trkpt>
      <trkpt lat="46.8815" lon="3.16395">
        <ele>193</ele>
        <time>2023-05-30T05:13:56.000Z</time>
      </trkpt>
      <trkpt lat="46.88123" lon="3.16436">
        <ele>192.39999389648</ele>
        <time>2023-05-30T05:14:02.000Z</time>
      </trkpt>
      <trkpt lat="46.88115" lon="3.16451">
        <ele>192.19999694824</ele>
        <time>2023-05-30T05:14:04.000Z</time>
      </trkpt>
      <trkpt lat="46.88095" lon="3.16497">
        <ele>192</ele>
        <time>2023-05-30T05:14:10.000Z</time>
      </trkpt>
      <trkpt lat="46.88084" lon="3.16534">
        <ele>192.39999389648</ele>
        <time>2023-05-30T05:14:15.000Z</time>
      </trkpt>
      <trkpt lat="46.88075" lon="3.16538">
        <ele>192.39999389648</ele>
        <time>2023-05-30T05:14:17.000Z</time>
      </trkpt>
      <trkpt lat="46.88062" lon="3.16526">
        <ele>192.60000610352</ele>
        <time>2023-05-30T05:14:20.000Z</time>
      </trkpt>
      <trkpt lat="46.88033" lon="3.16492">
        <ele>193</ele>
        <time>2023-05-30T05:14:26.000Z</time>
      </trkpt>
      <trkpt lat="46.87991" lon="3.1645">
        <ele>192.60000610352</ele>
        <time>2023-05-30T05:14:34.000Z</time>
      </trkpt>
      <trkpt lat="46.87956" lon="3.16428">
        <ele>192.39999389648</ele>
        <time>2023-05-30T05:14:40.000Z</time>
      </trkpt>
      <trkpt lat="46.87901" lon="3.16402">
        <ele>192.39999389648</ele>
        <time>2023-05-30T05:14:49.000Z</time>
      </trkpt>
      <trkpt lat="46.87895" lon="3.16399">
        <ele>192.19999694824</ele>
        <time>2023-05-30T05:14:50.000Z</time>
      </trkpt>
      <trkpt lat="46.87852" lon="3.16386">
        <ele>192.19999694824</ele>
        <time>2023-05-30T05:14:57.000Z</time>
      </trkpt>
      <trkpt lat="46.87813" lon="3.1639">
        <ele>192.19999694824</ele>
        <time>2023-05-30T05:15:03.000Z</time>
      </trkpt>
      <trkpt lat="46.87764" lon="3.16401">
        <ele>192</ele>
        <time>2023-05-30T05:15:11.000Z</time>
      </trkpt>
      <trkpt lat="46.8772" lon="3.16406">
        <ele>192.19999694824</ele>
        <time>2023-05-30T05:15:18.000Z</time>
      </trkpt>
      <trkpt lat="46.87714" lon="3.16404">
        <ele>192.19999694824</ele>
        <time>2023-05-30T05:15:19.000Z</time>
      </trkpt>
      <trkpt lat="46.87708" lon="3.16401">
        <ele>192.19999694824</ele>
        <time>2023-05-30T05:15:20.000Z</time>
      </trkpt>
      <trkpt lat="46.87698" lon="3.16391">
        <ele>192.39999389648</ele>
        <time>2023-05-30T05:15:22.000Z</time>
      </trkpt>
      <trkpt lat="46.87684" lon="3.16373">
        <ele>192.39999389648</ele>
        <time>2023-05-30T05:15:25.000Z</time>
      </trkpt>
      <trkpt lat="46.87667" lon="3.16359">
        <ele>192.19999694824</ele>
        <time>2023-05-30T05:15:28.000Z</time>
      </trkpt>
      <trkpt lat="46.8763" lon="3.16346">
        <ele>192.19999694824</ele>
        <time>2023-05-30T05:15:34.000Z</time>
      </trkpt>
      <trkpt lat="46.87592" lon="3.16346">
        <ele>192.19999694824</ele>
        <time>2023-05-30T05:15:40.000Z</time>
      </trkpt>
      <trkpt lat="46.87541" lon="3.16346">
        <ele>191.80000305176</ele>
        <time>2023-05-30T05:15:48.000Z</time>
      </trkpt>
      <trkpt lat="46.87489" lon="3.16339">
        <ele>191.80000305176</ele>
        <time>2023-05-30T05:15:56.000Z</time>
      </trkpt>
      <trkpt lat="46.8743" lon="3.16341">
        <ele>191.80000305176</ele>
        <time>2023-05-30T05:16:05.000Z</time>
      </trkpt>
      <trkpt lat="46.87424" lon="3.1634">
        <ele>191.80000305176</ele>
        <time>2023-05-30T05:16:06.000Z</time>
      </trkpt>
      <trkpt lat="46.87393" lon="3.16328">
        <ele>191.80000305176</ele>
        <time>2023-05-30T05:16:11.000Z</time>
      </trkpt>
      <trkpt lat="46.87387" lon="3.16326">
        <ele>192</ele>
        <time>2023-05-30T05:16:12.000Z</time>
      </trkpt>
      <trkpt lat="46.87331" lon="3.16302">
        <ele>192.19999694824</ele>
        <time>2023-05-30T05:16:21.000Z</time>
      </trkpt>
      <trkpt lat="46.87284" lon="3.16282">
        <ele>192.19999694824</ele>
        <time>2023-05-30T05:16:29.000Z</time>
      </trkpt>
      <trkpt lat="46.87242" lon="3.16266">
        <ele>192.19999694824</ele>
        <time>2023-05-30T05:16:36.000Z</time>
      </trkpt>
      <trkpt lat="46.87237" lon="3.16263">
        <ele>192</ele>
        <time>2023-05-30T05:16:37.000Z</time>
      </trkpt>
      <trkpt lat="46.87233" lon="3.16259">
        <ele>192</ele>
        <time>2023-05-30T05:16:38.000Z</time>
      </trkpt>
      <trkpt lat="46.87227" lon="3.16248">
        <ele>192</ele>
        <time>2023-05-30T05:16:40.000Z</time>
      </trkpt>
      <trkpt lat="46.87224" lon="3.16243">
        <ele>192</ele>
        <time>2023-05-30T05:16:41.000Z</time>
      </trkpt>
      <trkpt lat="46.87216" lon="3.1624">
        <ele>192</ele>
        <time>2023-05-30T05:16:43.000Z</time>
      </trkpt>
      <trkpt lat="46.87192" lon="3.16259">
        <ele>192.19999694824</ele>
        <time>2023-05-30T05:16:48.000Z</time>
      </trkpt>
      <trkpt lat="46.87173" lon="3.16273">
        <ele>192.39999389648</ele>
        <time>2023-05-30T05:16:52.000Z</time>
      </trkpt>
      <trkpt lat="46.8716" lon="3.16285">
        <ele>192.80000305176</ele>
        <time>2023-05-30T05:16:55.000Z</time>
      </trkpt>
      <trkpt lat="46.87151" lon="3.16293">
        <ele>193</ele>
        <time>2023-05-30T05:16:57.000Z</time>
      </trkpt>
      <trkpt lat="46.87144" lon="3.16298">
        <ele>193</ele>
        <time>2023-05-30T05:16:59.000Z</time>
      </trkpt>
      <trkpt lat="46.87141" lon="3.16303">
        <ele>193</ele>
        <time>2023-05-30T05:17:00.000Z</time>
      </trkpt>
      <trkpt lat="46.8714" lon="3.16309">
        <ele>193.19999694824</ele>
        <time>2023-05-30T05:17:01.000Z</time>
      </trkpt>
      <trkpt lat="46.87135" lon="3.16329">
        <ele>193.19999694824</ele>
        <time>2023-05-30T05:17:04.000Z</time>
      </trkpt>
      <trkpt lat="46.87115" lon="3.16391">
        <ele>193.19999694824</ele>
        <time>2023-05-30T05:17:13.000Z</time>
      </trkpt>
      <trkpt lat="46.87113" lon="3.16398">
        <ele>193.39999389648</ele>
        <time>2023-05-30T05:17:14.000Z</time>
      </trkpt>
      <trkpt lat="46.87093" lon="3.16457">
        <ele>194.19999694824</ele>
        <time>2023-05-30T05:17:22.000Z</time>
      </trkpt>
      <trkpt lat="46.87085" lon="3.16478">
        <ele>194.60000610352</ele>
        <time>2023-05-30T05:17:25.000Z</time>
      </trkpt>
      <trkpt lat="46.87071" lon="3.16504">
        <ele>195</ele>
        <time>2023-05-30T05:17:29.000Z</time>
      </trkpt>
      <trkpt lat="46.87035" lon="3.16556">
        <ele>195.60000610352</ele>
        <time>2023-05-30T05:17:38.000Z</time>
      </trkpt>
      <trkpt lat="46.87031" lon="3.16562">
        <ele>195.60000610352</ele>
        <time>2023-05-30T05:17:39.000Z</time>
      </trkpt>
      <trkpt lat="46.87025" lon="3.16571">
        <ele>195.80000305176</ele>
        <time>2023-05-30T05:17:41.000Z</time>
      </trkpt>
      <trkpt lat="46.8702" lon="3.16579">
        <ele>196.19999694824</ele>
        <time>2023-05-30T05:17:43.000Z</time>
      </trkpt>
      <trkpt lat="46.87015" lon="3.16584">
        <ele>196.39999389648</ele>
        <time>2023-05-30T05:17:45.000Z</time>
      </trkpt>
      <trkpt lat="46.87016" lon="3.16588">
        <ele>196.60000610352</ele>
        <time>2023-05-30T05:17:47.000Z</time>
      </trkpt>
      <trkpt lat="46.87018" lon="3.16584">
        <ele>196.60000610352</ele>
        <time>2023-05-30T05:17:49.000Z</time>
      </trkpt>
      <trkpt lat="46.87022" lon="3.16578">
        <ele>196.60000610352</ele>
        <time>2023-05-30T05:17:51.000Z</time>
      </trkpt>
      <trkpt lat="46.87037" lon="3.16559">
        <ele>196.39999389648</ele>
        <time>2023-05-30T05:17:57.000Z</time>
      </trkpt>
      <trkpt lat="46.87043" lon="3.16553">
        <ele>196.19999694824</ele>
        <time>2023-05-30T05:17:59.000Z</time>
      </trkpt>
      <trkpt lat="46.87044" lon="3.16549">
        <ele>196.19999694824</ele>
        <time>2023-05-30T05:18:00.000Z</time>
      </trkpt>
      <trkpt lat="46.87044" lon="3.16544">
        <ele>196</ele>
        <time>2023-05-30T05:18:01.000Z</time>
      </trkpt>
      <trkpt lat="46.87029" lon="3.16521">
        <ele>195.80000305176</ele>
        <time>2023-05-30T05:18:06.000Z</time>
      </trkpt>
      <trkpt lat="46.87018" lon="3.16502">
        <ele>195.60000610352</ele>
        <time>2023-05-30T05:18:09.000Z</time>
      </trkpt>
      <trkpt lat="46.87006" lon="3.16483">
        <ele>195.39999389648</ele>
        <time>2023-05-30T05:18:12.000Z</time>
      </trkpt>
      <trkpt lat="46.86979" lon="3.16436">
        <ele>195.19999694824</ele>
        <time>2023-05-30T05:18:19.000Z</time>
      </trkpt>
      <trkpt lat="46.86944" lon="3.16378">
        <ele>195.39999389648</ele>
        <time>2023-05-30T05:18:28.000Z</time>
      </trkpt>
      <trkpt lat="46.86928" lon="3.16351">
        <ele>195.60000610352</ele>
        <time>2023-05-30T05:18:33.000Z</time>
      </trkpt>
      <trkpt lat="46.86899" lon="3.16303">
        <ele>195.80000305176</ele>
        <time>2023-05-30T05:18:41.000Z</time>
      </trkpt>
      <trkpt lat="46.86864" lon="3.16246">
        <ele>196.39999389648</ele>
        <time>2023-05-30T05:18:50.000Z</time>
      </trkpt>
      <trkpt lat="46.86853" lon="3.16227">
        <ele>196.39999389648</ele>
        <time>2023-05-30T05:18:53.000Z</time>
      </trkpt>
      <trkpt lat="46.86831" lon="3.16191">
        <ele>197</ele>
        <time>2023-05-30T05:18:59.000Z</time>
      </trkpt>
      <trkpt lat="46.86816" lon="3.16167">
        <ele>197.60000610352</ele>
        <time>2023-05-30T05:19:03.000Z</time>
      </trkpt>
      <trkpt lat="46.86787" lon="3.16119">
        <ele>198.60000610352</ele>
        <time>2023-05-30T05:19:11.000Z</time>
      </trkpt>
      <trkpt lat="46.86757" lon="3.1607">
        <ele>199.39999389648</ele>
        <time>2023-05-30T05:19:19.000Z</time>
      </trkpt>
      <trkpt lat="46.86757" lon="3.16055">
        <ele>199.39999389648</ele>
        <time>2023-05-30T05:19:21.000Z</time>
      </trkpt>
      <trkpt lat="46.8676" lon="3.16038">
        <ele>199.39999389648</ele>
        <time>2023-05-30T05:19:23.000Z</time>
      </trkpt>
      <trkpt lat="46.86759" lon="3.1602">
        <ele>199.39999389648</ele>
        <time>2023-05-30T05:19:25.000Z</time>
      </trkpt>
      <trkpt lat="46.86753" lon="3.16004">
        <ele>199.39999389648</ele>
        <time>2023-05-30T05:19:27.000Z</time>
      </trkpt>
      <trkpt lat="46.86749" lon="3.15998">
        <ele>199.19999694824</ele>
        <time>2023-05-30T05:19:28.000Z</time>
      </trkpt>
      <trkpt lat="46.86744" lon="3.15993">
        <ele>199.19999694824</ele>
        <time>2023-05-30T05:19:29.000Z</time>
      </trkpt>
      <trkpt lat="46.86727" lon="3.15984">
        <ele>199.19999694824</ele>
        <time>2023-05-30T05:19:32.000Z</time>
      </trkpt>
      <trkpt lat="46.86717" lon="3.15975">
        <ele>199.19999694824</ele>
        <time>2023-05-30T05:19:34.000Z</time>
      </trkpt>
      <trkpt lat="46.8671" lon="3.15964">
        <ele>199.19999694824</ele>
        <time>2023-05-30T05:19:36.000Z</time>
      </trkpt>
      <trkpt lat="46.86702" lon="3.15951">
        <ele>199.60000610352</ele>
        <time>2023-05-30T05:19:38.000Z</time>
      </trkpt>
      <trkpt lat="46.8668" lon="3.15915">
        <ele>200.60000610352</ele>
        <time>2023-05-30T05:19:44.000Z</time>
      </trkpt>
      <trkpt lat="46.86659" lon="3.1588">
        <ele>201.80000305176</ele>
        <time>2023-05-30T05:19:50.000Z</time>
      </trkpt>
      <trkpt lat="46.86648" lon="3.15863">
        <ele>202.19999694824</ele>
        <time>2023-05-30T05:19:53.000Z</time>
      </trkpt>
      <trkpt lat="46.86633" lon="3.15839">
        <ele>202.80000305176</ele>
        <time>2023-05-30T05:19:57.000Z</time>
      </trkpt>
      <trkpt lat="46.86615" lon="3.1581">
        <ele>203.19999694824</ele>
        <time>2023-05-30T05:20:02.000Z</time>
      </trkpt>
      <trkpt lat="46.86586" lon="3.15761">
        <ele>203.80000305176</ele>
        <time>2023-05-30T05:20:10.000Z</time>
      </trkpt>
      <trkpt lat="46.86563" lon="3.15724">
        <ele>204.19999694824</ele>
        <time>2023-05-30T05:20:16.000Z</time>
      </trkpt>
      <trkpt lat="46.86559" lon="3.15719">
        <ele>204.19999694824</ele>
        <time>2023-05-30T05:20:17.000Z</time>
      </trkpt>
      <trkpt lat="46.86548" lon="3.15716">
        <ele>204.39999389648</ele>
        <time>2023-05-30T05:20:19.000Z</time>
      </trkpt>
      <trkpt lat="46.86538" lon="3.15723">
        <ele>204.60000610352</ele>
        <time>2023-05-30T05:20:21.000Z</time>
      </trkpt>
      <trkpt lat="46.86534" lon="3.15728">
        <ele>204.80000305176</ele>
        <time>2023-05-30T05:20:22.000Z</time>
      </trkpt>
      <trkpt lat="46.86526" lon="3.15739">
        <ele>205</ele>
        <time>2023-05-30T05:20:24.000Z</time>
      </trkpt>
      <trkpt lat="46.86518" lon="3.15749">
        <ele>205.19999694824</ele>
        <time>2023-05-30T05:20:26.000Z</time>
      </trkpt>
      <trkpt lat="46.86509" lon="3.15758">
        <ele>205.60000610352</ele>
        <time>2023-05-30T05:20:28.000Z</time>
      </trkpt>
      <trkpt lat="46.86501" lon="3.15768">
        <ele>206.19999694824</ele>
        <time>2023-05-30T05:20:30.000Z</time>
      </trkpt>
      <trkpt lat="46.86486" lon="3.15786">
        <ele>207.19999694824</ele>
        <time>2023-05-30T05:20:34.000Z</time>
      </trkpt>
      <trkpt lat="46.86463" lon="3.15814">
        <ele>208</ele>
        <time>2023-05-30T05:20:40.000Z</time>
      </trkpt>
      <trkpt lat="46.86459" lon="3.15818">
        <ele>208.39999389648</ele>
        <time>2023-05-30T05:20:41.000Z</time>
      </trkpt>
      <trkpt lat="46.86433" lon="3.15831">
        <ele>209.39999389648</ele>
        <time>2023-05-30T05:20:46.000Z</time>
      </trkpt>
      <trkpt lat="46.86422" lon="3.15834">
        <ele>209.60000610352</ele>
        <time>2023-05-30T05:20:48.000Z</time>
      </trkpt>
      <trkpt lat="46.8639" lon="3.15835">
        <ele>210.39999389648</ele>
        <time>2023-05-30T05:20:54.000Z</time>
      </trkpt>
      <trkpt lat="46.86351" lon="3.1582">
        <ele>211.19999694824</ele>
        <time>2023-05-30T05:21:01.000Z</time>
      </trkpt>
      <trkpt lat="46.86336" lon="3.15809">
        <ele>211.60000610352</ele>
        <time>2023-05-30T05:21:04.000Z</time>
      </trkpt>
      <trkpt lat="46.86311" lon="3.15789">
        <ele>211.80000305176</ele>
        <time>2023-05-30T05:21:09.000Z</time>
      </trkpt>
      <trkpt lat="46.86268" lon="3.15762">
        <ele>212.39999389648</ele>
        <time>2023-05-30T05:21:17.000Z</time>
      </trkpt>
      <trkpt lat="46.86234" lon="3.15753">
        <ele>212.60000610352</ele>
        <time>2023-05-30T05:21:23.000Z</time>
      </trkpt>
      <trkpt lat="46.86228" lon="3.15753">
        <ele>212.60000610352</ele>
        <time>2023-05-30T05:21:24.000Z</time>
      </trkpt>
      <trkpt lat="46.86187" lon="3.15758">
        <ele>213</ele>
        <time>2023-05-30T05:21:31.000Z</time>
      </trkpt>
      <trkpt lat="46.86155" lon="3.15773">
        <ele>213.60000610352</ele>
        <time>2023-05-30T05:21:37.000Z</time>
      </trkpt>
      <trkpt lat="46.8615" lon="3.15777">
        <ele>213.80000305176</ele>
        <time>2023-05-30T05:21:38.000Z</time>
      </trkpt>
      <trkpt lat="46.86118" lon="3.15805">
        <ele>214.80000305176</ele>
        <time>2023-05-30T05:21:45.000Z</time>
      </trkpt>
      <trkpt lat="46.86096" lon="3.15837">
        <ele>215.60000610352</ele>
        <time>2023-05-30T05:21:51.000Z</time>
      </trkpt>
      <trkpt lat="46.86093" lon="3.15842">
        <ele>215.80000305176</ele>
        <time>2023-05-30T05:21:52.000Z</time>
      </trkpt>
      <trkpt lat="46.86079" lon="3.15872">
        <ele>216.80000305176</ele>
        <time>2023-05-30T05:21:57.000Z</time>
      </trkpt>
      <trkpt lat="46.86076" lon="3.15878">
        <ele>217</ele>
        <time>2023-05-30T05:21:58.000Z</time>
      </trkpt>
      <trkpt lat="46.86068" lon="3.15903">
        <ele>218</ele>
        <time>2023-05-30T05:22:02.000Z</time>
      </trkpt>
      <trkpt lat="46.86067" lon="3.1591">
        <ele>218.19999694824</ele>
        <time>2023-05-30T05:22:03.000Z</time>
      </trkpt>
      <trkpt lat="46.86059" lon="3.15944">
        <ele>219</ele>
        <time>2023-05-30T05:22:08.000Z</time>
      </trkpt>
      <trkpt lat="46.86057" lon="3.15951">
        <ele>219.39999389648</ele>
        <time>2023-05-30T05:22:09.000Z</time>
      </trkpt>
      <trkpt lat="46.8605" lon="3.15988">
        <ele>220.19999694824</ele>
        <time>2023-05-30T05:22:14.000Z</time>
      </trkpt>
      <trkpt lat="46.86047" lon="3.16002">
        <ele>220.39999389648</ele>
        <time>2023-05-30T05:22:16.000Z</time>
      </trkpt>
      <trkpt lat="46.86044" lon="3.16024">
        <ele>221.19999694824</ele>
        <time>2023-05-30T05:22:19.000Z</time>
      </trkpt>
      <trkpt lat="46.86035" lon="3.16067">
        <ele>222.39999389648</ele>
        <time>2023-05-30T05:22:25.000Z</time>
      </trkpt>
      <trkpt lat="46.86027" lon="3.16102">
        <ele>223.39999389648</ele>
        <time>2023-05-30T05:22:30.000Z</time>
      </trkpt>
      <trkpt lat="46.86019" lon="3.16128">
        <ele>224.19999694824</ele>
        <time>2023-05-30T05:22:34.000Z</time>
      </trkpt>
      <trkpt lat="46.86016" lon="3.16141">
        <ele>224.80000305176</ele>
        <time>2023-05-30T05:22:36.000Z</time>
      </trkpt>
      <trkpt lat="46.86012" lon="3.16154">
        <ele>225.39999389648</ele>
        <time>2023-05-30T05:22:38.000Z</time>
      </trkpt>
      <trkpt lat="46.86006" lon="3.16165">
        <ele>225.60000610352</ele>
        <time>2023-05-30T05:22:40.000Z</time>
      </trkpt>
      <trkpt lat="46.85997" lon="3.16171">
        <ele>226</ele>
        <time>2023-05-30T05:22:42.000Z</time>
      </trkpt>
      <trkpt lat="46.85993" lon="3.16174">
        <ele>226.19999694824</ele>
        <time>2023-05-30T05:22:43.000Z</time>
      </trkpt>
      <trkpt lat="46.85989" lon="3.16177">
        <ele>226.39999389648</ele>
        <time>2023-05-30T05:22:44.000Z</time>
      </trkpt>
      <trkpt lat="46.85985" lon="3.16182">
        <ele>226.60000610352</ele>
        <time>2023-05-30T05:22:45.000Z</time>
      </trkpt>
      <trkpt lat="46.85981" lon="3.16195">
        <ele>227</ele>
        <time>2023-05-30T05:22:47.000Z</time>
      </trkpt>
      <trkpt lat="46.85981" lon="3.1621">
        <ele>227.19999694824</ele>
        <time>2023-05-30T05:22:49.000Z</time>
      </trkpt>
      <trkpt lat="46.85981" lon="3.16225">
        <ele>227.39999389648</ele>
        <time>2023-05-30T05:22:51.000Z</time>
      </trkpt>
      <trkpt lat="46.85978" lon="3.16238">
        <ele>227.60000610352</ele>
        <time>2023-05-30T05:22:53.000Z</time>
      </trkpt>
      <trkpt lat="46.85974" lon="3.16244">
        <ele>227.80000305176</ele>
        <time>2023-05-30T05:22:54.000Z</time>
      </trkpt>
      <trkpt lat="46.85967" lon="3.16253">
        <ele>228.19999694824</ele>
        <time>2023-05-30T05:22:56.000Z</time>
      </trkpt>
      <trkpt lat="46.85945" lon="3.1628">
        <ele>229.19999694824</ele>
        <time>2023-05-30T05:23:02.000Z</time>
      </trkpt>
      <trkpt lat="46.85941" lon="3.16284">
        <ele>229.19999694824</ele>
        <time>2023-05-30T05:23:03.000Z</time>
      </trkpt>
      <trkpt lat="46.85923" lon="3.16308">
        <ele>230</ele>
        <time>2023-05-30T05:23:08.000Z</time>
      </trkpt>
      <trkpt lat="46.85919" lon="3.16313">
        <ele>230.19999694824</ele>
        <time>2023-05-30T05:23:09.000Z</time>
      </trkpt>
      <trkpt lat="46.85899" lon="3.16338">
        <ele>231.19999694824</ele>
        <time>2023-05-30T05:23:14.000Z</time>
      </trkpt>
      <trkpt lat="46.8589" lon="3.16347">
        <ele>231.60000610352</ele>
        <time>2023-05-30T05:23:16.000Z</time>
      </trkpt>
      <trkpt lat="46.85875" lon="3.16367">
        <ele>232.19999694824</ele>
        <time>2023-05-30T05:23:20.000Z</time>
      </trkpt>
      <trkpt lat="46.85852" lon="3.16396">
        <ele>233.19999694824</ele>
        <time>2023-05-30T05:23:26.000Z</time>
      </trkpt>
      <trkpt lat="46.85835" lon="3.16416">
        <ele>233.80000305176</ele>
        <time>2023-05-30T05:23:30.000Z</time>
      </trkpt>
      <trkpt lat="46.85814" lon="3.16442">
        <ele>234.19999694824</ele>
        <time>2023-05-30T05:23:35.000Z</time>
      </trkpt>
      <trkpt lat="46.85801" lon="3.16458">
        <ele>234.39999389648</ele>
        <time>2023-05-30T05:23:38.000Z</time>
      </trkpt>
      <trkpt lat="46.85793" lon="3.16468">
        <ele>234.60000610352</ele>
        <time>2023-05-30T05:23:40.000Z</time>
      </trkpt>
      <trkpt lat="46.85751" lon="3.1652">
        <ele>235.19999694824</ele>
        <time>2023-05-30T05:23:50.000Z</time>
      </trkpt>
      <trkpt lat="46.85742" lon="3.1653">
        <ele>235.19999694824</ele>
        <time>2023-05-30T05:23:52.000Z</time>
      </trkpt>
      <trkpt lat="46.85726" lon="3.16552">
        <ele>235.60000610352</ele>
        <time>2023-05-30T05:23:56.000Z</time>
      </trkpt>
      <trkpt lat="46.85715" lon="3.1657">
        <ele>235.80000305176</ele>
        <time>2023-05-30T05:23:59.000Z</time>
      </trkpt>
      <trkpt lat="46.8571" lon="3.16584">
        <ele>236</ele>
        <time>2023-05-30T05:24:01.000Z</time>
      </trkpt>
      <trkpt lat="46.85709" lon="3.16592">
        <ele>236.39999389648</ele>
        <time>2023-05-30T05:24:02.000Z</time>
      </trkpt>
      <trkpt lat="46.85708" lon="3.166">
        <ele>236.60000610352</ele>
        <time>2023-05-30T05:24:03.000Z</time>
      </trkpt>
      <trkpt lat="46.85707" lon="3.16626">
        <ele>237</ele>
        <time>2023-05-30T05:24:06.000Z</time>
      </trkpt>
      <trkpt lat="46.85709" lon="3.1666">
        <ele>237.39999389648</ele>
        <time>2023-05-30T05:24:10.000Z</time>
      </trkpt>
      <trkpt lat="46.8571" lon="3.16694">
        <ele>237.80000305176</ele>
        <time>2023-05-30T05:24:14.000Z</time>
      </trkpt>
      <trkpt lat="46.85711" lon="3.16703">
        <ele>238</ele>
        <time>2023-05-30T05:24:15.000Z</time>
      </trkpt>
      <trkpt lat="46.85714" lon="3.16762">
        <ele>238.60000610352</ele>
        <time>2023-05-30T05:24:22.000Z</time>
      </trkpt>
      <trkpt lat="46.85714" lon="3.16778">
        <ele>238.80000305176</ele>
        <time>2023-05-30T05:24:24.000Z</time>
      </trkpt>
      <trkpt lat="46.85708" lon="3.16833">
        <ele>239.60000610352</ele>
        <time>2023-05-30T05:24:31.000Z</time>
      </trkpt>
      <trkpt lat="46.85688" lon="3.16911">
        <ele>240.60000610352</ele>
        <time>2023-05-30T05:24:41.000Z</time>
      </trkpt>
      <trkpt lat="46.85682" lon="3.16935">
        <ele>240.80000305176</ele>
        <time>2023-05-30T05:24:44.000Z</time>
      </trkpt>
      <trkpt lat="46.85673" lon="3.16976">
        <ele>240.80000305176</ele>
        <time>2023-05-30T05:24:49.000Z</time>
      </trkpt>
      <trkpt lat="46.85658" lon="3.17056">
        <ele>241.19999694824</ele>
        <time>2023-05-30T05:24:59.000Z</time>
      </trkpt>
      <trkpt lat="46.85654" lon="3.17072">
        <ele>241.39999389648</ele>
        <time>2023-05-30T05:25:01.000Z</time>
      </trkpt>
      <trkpt lat="46.8563" lon="3.17149">
        <ele>241.60000610352</ele>
        <time>2023-05-30T05:25:11.000Z</time>
      </trkpt>
      <trkpt lat="46.85627" lon="3.17157">
        <ele>241.60000610352</ele>
        <time>2023-05-30T05:25:12.000Z</time>
      </trkpt>
      <trkpt lat="46.856" lon="3.17206">
        <ele>241.60000610352</ele>
        <time>2023-05-30T05:25:19.000Z</time>
      </trkpt>
      <trkpt lat="46.85569" lon="3.17263">
        <ele>241</ele>
        <time>2023-05-30T05:25:27.000Z</time>
      </trkpt>
      <trkpt lat="46.85561" lon="3.17278">
        <ele>241</ele>
        <time>2023-05-30T05:25:29.000Z</time>
      </trkpt>
      <trkpt lat="46.85549" lon="3.17298">
        <ele>240.80000305176</ele>
        <time>2023-05-30T05:25:32.000Z</time>
      </trkpt>
      <trkpt lat="46.85539" lon="3.1731">
        <ele>240.80000305176</ele>
        <time>2023-05-30T05:25:34.000Z</time>
      </trkpt>
      <trkpt lat="46.85498" lon="3.17349">
        <ele>240.39999389648</ele>
        <time>2023-05-30T05:25:42.000Z</time>
      </trkpt>
      <trkpt lat="46.85464" lon="3.17365">
        <ele>240.39999389648</ele>
        <time>2023-05-30T05:25:48.000Z</time>
      </trkpt>
      <trkpt lat="46.85452" lon="3.17366">
        <ele>240.19999694824</ele>
        <time>2023-05-30T05:25:50.000Z</time>
      </trkpt>
      <trkpt lat="46.85441" lon="3.17362">
        <ele>240.19999694824</ele>
        <time>2023-05-30T05:25:52.000Z</time>
      </trkpt>
      <trkpt lat="46.85436" lon="3.17358">
        <ele>240</ele>
        <time>2023-05-30T05:25:53.000Z</time>
      </trkpt>
      <trkpt lat="46.8543" lon="3.17356">
        <ele>240</ele>
        <time>2023-05-30T05:25:54.000Z</time>
      </trkpt>
      <trkpt lat="46.8542" lon="3.1736">
        <ele>239.80000305176</ele>
        <time>2023-05-30T05:25:56.000Z</time>
      </trkpt>
      <trkpt lat="46.85415" lon="3.17375">
        <ele>239.60000610352</ele>
        <time>2023-05-30T05:25:58.000Z</time>
      </trkpt>
      <trkpt lat="46.85415" lon="3.17434">
        <ele>239.60000610352</ele>
        <time>2023-05-30T05:26:05.000Z</time>
      </trkpt>
      <trkpt lat="46.85414" lon="3.17506">
        <ele>240</ele>
        <time>2023-05-30T05:26:14.000Z</time>
      </trkpt>
      <trkpt lat="46.85411" lon="3.17567">
        <ele>239.80000305176</ele>
        <time>2023-05-30T05:26:22.000Z</time>
      </trkpt>
      <trkpt lat="46.85409" lon="3.17639">
        <ele>239.39999389648</ele>
        <time>2023-05-30T05:26:31.000Z</time>
      </trkpt>
      <trkpt lat="46.85408" lon="3.17682">
        <ele>238.60000610352</ele>
        <time>2023-05-30T05:26:36.000Z</time>
      </trkpt>
      <trkpt lat="46.85406" lon="3.17727">
        <ele>238</ele>
        <time>2023-05-30T05:26:41.000Z</time>
      </trkpt>
      <trkpt lat="46.85405" lon="3.17763">
        <ele>237.39999389648</ele>
        <time>2023-05-30T05:26:45.000Z</time>
      </trkpt>
      <trkpt lat="46.85404" lon="3.17799">
        <ele>236.80000305176</ele>
        <time>2023-05-30T05:26:49.000Z</time>
      </trkpt>
      <trkpt lat="46.85403" lon="3.17826">
        <ele>236.39999389648</ele>
        <time>2023-05-30T05:26:52.000Z</time>
      </trkpt>
      <trkpt lat="46.85401" lon="3.17882">
        <ele>235.60000610352</ele>
        <time>2023-05-30T05:26:58.000Z</time>
      </trkpt>
      <trkpt lat="46.854" lon="3.17909">
        <ele>235.19999694824</ele>
        <time>2023-05-30T05:27:01.000Z</time>
      </trkpt>
      <trkpt lat="46.85401" lon="3.1794">
        <ele>234.39999389648</ele>
        <time>2023-05-30T05:27:05.000Z</time>
      </trkpt>
      <trkpt lat="46.85402" lon="3.17965">
        <ele>234</ele>
        <time>2023-05-30T05:27:08.000Z</time>
      </trkpt>
      <trkpt lat="46.85404" lon="3.1799">
        <ele>233.80000305176</ele>
        <time>2023-05-30T05:27:11.000Z</time>
      </trkpt>
      <trkpt lat="46.85405" lon="3.18015">
        <ele>233.60000610352</ele>
        <time>2023-05-30T05:27:14.000Z</time>
      </trkpt>
      <trkpt lat="46.85408" lon="3.18057">
        <ele>233</ele>
        <time>2023-05-30T05:27:19.000Z</time>
      </trkpt>
      <trkpt lat="46.8541" lon="3.18082">
        <ele>233</ele>
        <time>2023-05-30T05:27:22.000Z</time>
      </trkpt>
      <trkpt lat="46.85417" lon="3.18146">
        <ele>232</ele>
        <time>2023-05-30T05:27:30.000Z</time>
      </trkpt>
      <trkpt lat="46.85416" lon="3.18159">
        <ele>231.80000305176</ele>
        <time>2023-05-30T05:27:32.000Z</time>
      </trkpt>
      <trkpt lat="46.85417" lon="3.18181">
        <ele>231.19999694824</ele>
        <time>2023-05-30T05:27:36.000Z</time>
      </trkpt>
      <trkpt lat="46.8542" lon="3.18194">
        <ele>231</ele>
        <time>2023-05-30T05:27:38.000Z</time>
      </trkpt>
      <trkpt lat="46.85426" lon="3.18219">
        <ele>230.80000305176</ele>
        <time>2023-05-30T05:27:42.000Z</time>
      </trkpt>
      <trkpt lat="46.85427" lon="3.18224">
        <ele>230.60000610352</ele>
        <time>2023-05-30T05:27:43.000Z</time>
      </trkpt>
      <trkpt lat="46.85427" lon="3.18231">
        <ele>230.39999389648</ele>
        <time>2023-05-30T05:27:45.000Z</time>
      </trkpt>
      <trkpt lat="46.85411" lon="3.1823">
        <ele>230.19999694824</ele>
        <time>2023-05-30T05:27:49.000Z</time>
      </trkpt>
      <trkpt lat="46.85402" lon="3.18231">
        <ele>230.19999694824</ele>
        <time>2023-05-30T05:27:51.000Z</time>
      </trkpt>
      <trkpt lat="46.85393" lon="3.18237">
        <ele>230.19999694824</ele>
        <time>2023-05-30T05:27:53.000Z</time>
      </trkpt>
      <trkpt lat="46.85388" lon="3.18241">
        <ele>230.19999694824</ele>
        <time>2023-05-30T05:27:54.000Z</time>
      </trkpt>
      <trkpt lat="46.85365" lon="3.1826">
        <ele>230.19999694824</ele>
        <time>2023-05-30T05:27:59.000Z</time>
      </trkpt>
      <trkpt lat="46.85346" lon="3.18277">
        <ele>229.80000305176</ele>
        <time>2023-05-30T05:28:03.000Z</time>
      </trkpt>
      <trkpt lat="46.85338" lon="3.1829">
        <ele>229.80000305176</ele>
        <time>2023-05-30T05:28:05.000Z</time>
      </trkpt>
      <trkpt lat="46.85334" lon="3.18297">
        <ele>229.60000610352</ele>
        <time>2023-05-30T05:28:06.000Z</time>
      </trkpt>
      <trkpt lat="46.85326" lon="3.1832">
        <ele>229.39999389648</ele>
        <time>2023-05-30T05:28:09.000Z</time>
      </trkpt>
      <trkpt lat="46.85325" lon="3.18328">
        <ele>229.39999389648</ele>
        <time>2023-05-30T05:28:10.000Z</time>
      </trkpt>
      <trkpt lat="46.85322" lon="3.18363">
        <ele>228.60000610352</ele>
        <time>2023-05-30T05:28:14.000Z</time>
      </trkpt>
      <trkpt lat="46.85318" lon="3.1838">
        <ele>228.19999694824</ele>
        <time>2023-05-30T05:28:16.000Z</time>
      </trkpt>
      <trkpt lat="46.85307" lon="3.18405">
        <ele>227.80000305176</ele>
        <time>2023-05-30T05:28:19.000Z</time>
      </trkpt>
      <trkpt lat="46.85302" lon="3.18412">
        <ele>227.60000610352</ele>
        <time>2023-05-30T05:28:20.000Z</time>
      </trkpt>
      <trkpt lat="46.85296" lon="3.18419">
        <ele>227.39999389648</ele>
        <time>2023-05-30T05:28:21.000Z</time>
      </trkpt>
      <trkpt lat="46.85267" lon="3.1845">
        <ele>226.39999389648</ele>
        <time>2023-05-30T05:28:26.000Z</time>
      </trkpt>
      <trkpt lat="46.85237" lon="3.18483">
        <ele>225.19999694824</ele>
        <time>2023-05-30T05:28:31.000Z</time>
      </trkpt>
      <trkpt lat="46.85225" lon="3.18497">
        <ele>225</ele>
        <time>2023-05-30T05:28:33.000Z</time>
      </trkpt>
      <trkpt lat="46.85198" lon="3.18529">
        <ele>224</ele>
        <time>2023-05-30T05:28:38.000Z</time>
      </trkpt>
      <trkpt lat="46.85182" lon="3.18549">
        <ele>223.60000610352</ele>
        <time>2023-05-30T05:28:41.000Z</time>
      </trkpt>
      <trkpt lat="46.8515" lon="3.18594">
        <ele>222.80000305176</ele>
        <time>2023-05-30T05:28:47.000Z</time>
      </trkpt>
      <trkpt lat="46.85144" lon="3.18603">
        <ele>222.39999389648</ele>
        <time>2023-05-30T05:28:48.000Z</time>
      </trkpt>
      <trkpt lat="46.85124" lon="3.18643">
        <ele>221.39999389648</ele>
        <time>2023-05-30T05:28:52.000Z</time>
      </trkpt>
      <trkpt lat="46.85113" lon="3.18665">
        <ele>220.80000305176</ele>
        <time>2023-05-30T05:28:54.000Z</time>
      </trkpt>
      <trkpt lat="46.85107" lon="3.18676">
        <ele>220</ele>
        <time>2023-05-30T05:28:55.000Z</time>
      </trkpt>
      <trkpt lat="46.85089" lon="3.18712">
        <ele>218.60000610352</ele>
        <time>2023-05-30T05:28:58.000Z</time>
      </trkpt>
      <trkpt lat="46.85077" lon="3.18735">
        <ele>217.60000610352</ele>
        <time>2023-05-30T05:29:00.000Z</time>
      </trkpt>
      <trkpt lat="46.85071" lon="3.18747">
        <ele>217.19999694824</ele>
        <time>2023-05-30T05:29:01.000Z</time>
      </trkpt>
      <trkpt lat="46.85059" lon="3.18769">
        <ele>216.19999694824</ele>
        <time>2023-05-30T05:29:03.000Z</time>
      </trkpt>
      <trkpt lat="46.85047" lon="3.18792">
        <ele>214.80000305176</ele>
        <time>2023-05-30T05:29:05.000Z</time>
      </trkpt>
      <trkpt lat="46.85041" lon="3.18802">
        <ele>214.60000610352</ele>
        <time>2023-05-30T05:29:06.000Z</time>
      </trkpt>
      <trkpt lat="46.85035" lon="3.18811">
        <ele>214</ele>
        <time>2023-05-30T05:29:07.000Z</time>
      </trkpt>
      <trkpt lat="46.85023" lon="3.18829">
        <ele>213.60000610352</ele>
        <time>2023-05-30T05:29:09.000Z</time>
      </trkpt>
      <trkpt lat="46.84999" lon="3.1886">
        <ele>212.80000305176</ele>
        <time>2023-05-30T05:29:13.000Z</time>
      </trkpt>
      <trkpt lat="46.84987" lon="3.18873">
        <ele>212.60000610352</ele>
        <time>2023-05-30T05:29:15.000Z</time>
      </trkpt>
      <trkpt lat="46.84959" lon="3.18905">
        <ele>212.39999389648</ele>
        <time>2023-05-30T05:29:20.000Z</time>
      </trkpt>
      <trkpt lat="46.84915" lon="3.18948">
        <ele>212.60000610352</ele>
        <time>2023-05-30T05:29:28.000Z</time>
      </trkpt>
      <trkpt lat="46.84882" lon="3.18986">
        <ele>212.39999389648</ele>
        <time>2023-05-30T05:29:34.000Z</time>
      </trkpt>
      <trkpt lat="46.84837" lon="3.19036">
        <ele>211.60000610352</ele>
        <time>2023-05-30T05:29:42.000Z</time>
      </trkpt>
      <trkpt lat="46.84821" lon="3.19055">
        <ele>211.39999389648</ele>
        <time>2023-05-30T05:29:45.000Z</time>
      </trkpt>
      <trkpt lat="46.84811" lon="3.19068">
        <ele>211.39999389648</ele>
        <time>2023-05-30T05:29:47.000Z</time>
      </trkpt>
      <trkpt lat="46.84805" lon="3.19074">
        <ele>211.19999694824</ele>
        <time>2023-05-30T05:29:48.000Z</time>
      </trkpt>
      <trkpt lat="46.84795" lon="3.19088">
        <ele>211.19999694824</ele>
        <time>2023-05-30T05:29:50.000Z</time>
      </trkpt>
      <trkpt lat="46.84781" lon="3.1911">
        <ele>211.19999694824</ele>
        <time>2023-05-30T05:29:53.000Z</time>
      </trkpt>
      <trkpt lat="46.84752" lon="3.19163">
        <ele>210.80000305176</ele>
        <time>2023-05-30T05:30:00.000Z</time>
      </trkpt>
      <trkpt lat="46.84738" lon="3.19188">
        <ele>210.60000610352</ele>
        <time>2023-05-30T05:30:04.000Z</time>
      </trkpt>
      <trkpt lat="46.8472" lon="3.19219">
        <ele>210.80000305176</ele>
        <time>2023-05-30T05:30:09.000Z</time>
      </trkpt>
      <trkpt lat="46.84693" lon="3.1926">
        <ele>210.80000305176</ele>
        <time>2023-05-30T05:30:14.000Z</time>
      </trkpt>
      <trkpt lat="46.84667" lon="3.19295">
        <ele>210</ele>
        <time>2023-05-30T05:30:19.000Z</time>
      </trkpt>
      <trkpt lat="46.8466" lon="3.19303">
        <ele>209.80000305176</ele>
        <time>2023-05-30T05:30:20.000Z</time>
      </trkpt>
      <trkpt lat="46.84648" lon="3.19316">
        <ele>209</ele>
        <time>2023-05-30T05:30:22.000Z</time>
      </trkpt>
      <trkpt lat="46.84628" lon="3.19339">
        <ele>208.39999389648</ele>
        <time>2023-05-30T05:30:25.000Z</time>
      </trkpt>
      <trkpt lat="46.84615" lon="3.19355">
        <ele>207.39999389648</ele>
        <time>2023-05-30T05:30:27.000Z</time>
      </trkpt>
      <trkpt lat="46.84595" lon="3.1938">
        <ele>206.19999694824</ele>
        <time>2023-05-30T05:30:30.000Z</time>
      </trkpt>
      <trkpt lat="46.84573" lon="3.19405">
        <ele>205</ele>
        <time>2023-05-30T05:30:33.000Z</time>
      </trkpt>
      <trkpt lat="46.84552" lon="3.19429">
        <ele>203.60000610352</ele>
        <time>2023-05-30T05:30:36.000Z</time>
      </trkpt>
      <trkpt lat="46.84545" lon="3.19436">
        <ele>203.39999389648</ele>
        <time>2023-05-30T05:30:37.000Z</time>
      </trkpt>
      <trkpt lat="46.84531" lon="3.19452">
        <ele>202</ele>
        <time>2023-05-30T05:30:39.000Z</time>
      </trkpt>
      <trkpt lat="46.84505" lon="3.19481">
        <ele>201</ele>
        <time>2023-05-30T05:30:43.000Z</time>
      </trkpt>
      <trkpt lat="46.84469" lon="3.19522">
        <ele>200</ele>
        <time>2023-05-30T05:30:49.000Z</time>
      </trkpt>
      <trkpt lat="46.84429" lon="3.19574">
        <ele>198.60000610352</ele>
        <time>2023-05-30T05:30:56.000Z</time>
      </trkpt>
      <trkpt lat="46.84424" lon="3.19582">
        <ele>198.39999389648</ele>
        <time>2023-05-30T05:30:57.000Z</time>
      </trkpt>
      <trkpt lat="46.84392" lon="3.1963">
        <ele>197.19999694824</ele>
        <time>2023-05-30T05:31:03.000Z</time>
      </trkpt>
      <trkpt lat="46.84376" lon="3.19653">
        <ele>196.39999389648</ele>
        <time>2023-05-30T05:31:06.000Z</time>
      </trkpt>
      <trkpt lat="46.84365" lon="3.19669">
        <ele>195.80000305176</ele>
        <time>2023-05-30T05:31:08.000Z</time>
      </trkpt>
      <trkpt lat="46.84337" lon="3.19705">
        <ele>194.80000305176</ele>
        <time>2023-05-30T05:31:13.000Z</time>
      </trkpt>
      <trkpt lat="46.84332" lon="3.19712">
        <ele>194.60000610352</ele>
        <time>2023-05-30T05:31:14.000Z</time>
      </trkpt>
      <trkpt lat="46.84287" lon="3.19749">
        <ele>194.19999694824</ele>
        <time>2023-05-30T05:31:21.000Z</time>
      </trkpt>
      <trkpt lat="46.84239" lon="3.19776">
        <ele>193.60000610352</ele>
        <time>2023-05-30T05:31:28.000Z</time>
      </trkpt>
      <trkpt lat="46.84225" lon="3.19783">
        <ele>193.60000610352</ele>
        <time>2023-05-30T05:31:30.000Z</time>
      </trkpt>
      <trkpt lat="46.84192" lon="3.19802">
        <ele>193.19999694824</ele>
        <time>2023-05-30T05:31:35.000Z</time>
      </trkpt>
      <trkpt lat="46.8416" lon="3.19821">
        <ele>193.19999694824</ele>
        <time>2023-05-30T05:31:40.000Z</time>
      </trkpt>
      <trkpt lat="46.8414" lon="3.19833">
        <ele>193.39999389648</ele>
        <time>2023-05-30T05:31:44.000Z</time>
      </trkpt>
      <trkpt lat="46.84102" lon="3.19856">
        <ele>194.60000610352</ele>
        <time>2023-05-30T05:31:52.000Z</time>
      </trkpt>
      <trkpt lat="46.84098" lon="3.19858">
        <ele>195</ele>
        <time>2023-05-30T05:31:53.000Z</time>
      </trkpt>
      <trkpt lat="46.84078" lon="3.1987">
        <ele>195.80000305176</ele>
        <time>2023-05-30T05:31:58.000Z</time>
      </trkpt>
      <trkpt lat="46.8407" lon="3.19875">
        <ele>196.19999694824</ele>
        <time>2023-05-30T05:32:00.000Z</time>
      </trkpt>
      <trkpt lat="46.84055" lon="3.19883">
        <ele>197.19999694824</ele>
        <time>2023-05-30T05:32:04.000Z</time>
      </trkpt>
      <trkpt lat="46.84037" lon="3.19894">
        <ele>198</ele>
        <time>2023-05-30T05:32:09.000Z</time>
      </trkpt>
      <trkpt lat="46.84032" lon="3.19896">
        <ele>198.39999389648</ele>
        <time>2023-05-30T05:32:10.000Z</time>
      </trkpt>
      <trkpt lat="46.84021" lon="3.19902">
        <ele>199.19999694824</ele>
        <time>2023-05-30T05:32:13.000Z</time>
      </trkpt>
      <trkpt lat="46.83999" lon="3.19915">
        <ele>200.19999694824</ele>
        <time>2023-05-30T05:32:19.000Z</time>
      </trkpt>
      <trkpt lat="46.83994" lon="3.19917">
        <ele>200.39999389648</ele>
        <time>2023-05-30T05:32:20.000Z</time>
      </trkpt>
      <trkpt lat="46.83959" lon="3.19935">
        <ele>201.39999389648</ele>
        <time>2023-05-30T05:32:29.000Z</time>
      </trkpt>
      <trkpt lat="46.83935" lon="3.19947">
        <ele>202.60000610352</ele>
        <time>2023-05-30T05:32:35.000Z</time>
      </trkpt>
      <trkpt lat="46.83923" lon="3.19953">
        <ele>203</ele>
        <time>2023-05-30T05:32:38.000Z</time>
      </trkpt>
      <trkpt lat="46.83902" lon="3.19964">
        <ele>203.60000610352</ele>
        <time>2023-05-30T05:32:43.000Z</time>
      </trkpt>
      <trkpt lat="46.83877" lon="3.19979">
        <ele>204.19999694824</ele>
        <time>2023-05-30T05:32:49.000Z</time>
      </trkpt>
      <trkpt lat="46.83846" lon="3.19999">
        <ele>203.80000305176</ele>
        <time>2023-05-30T05:32:55.000Z</time>
      </trkpt>
      <trkpt lat="46.83815" lon="3.20019">
        <ele>202.60000610352</ele>
        <time>2023-05-30T05:33:00.000Z</time>
      </trkpt>
      <trkpt lat="46.83808" lon="3.20024">
        <ele>202.39999389648</ele>
        <time>2023-05-30T05:33:01.000Z</time>
      </trkpt>
      <trkpt lat="46.83785" lon="3.20041">
        <ele>200.60000610352</ele>
        <time>2023-05-30T05:33:04.000Z</time>
      </trkpt>
      <trkpt lat="46.83769" lon="3.20054">
        <ele>199.80000305176</ele>
        <time>2023-05-30T05:33:06.000Z</time>
      </trkpt>
      <trkpt lat="46.8376" lon="3.20062">
        <ele>199.60000610352</ele>
        <time>2023-05-30T05:33:07.000Z</time>
      </trkpt>
      <trkpt lat="46.83735" lon="3.20085">
        <ele>198</ele>
        <time>2023-05-30T05:33:10.000Z</time>
      </trkpt>
      <trkpt lat="46.83718" lon="3.20102">
        <ele>196.80000305176</ele>
        <time>2023-05-30T05:33:12.000Z</time>
      </trkpt>
      <trkpt lat="46.83702" lon="3.20121">
        <ele>195.60000610352</ele>
        <time>2023-05-30T05:33:14.000Z</time>
      </trkpt>
      <trkpt lat="46.83688" lon="3.2014">
        <ele>194</ele>
        <time>2023-05-30T05:33:16.000Z</time>
      </trkpt>
      <trkpt lat="46.83682" lon="3.20149">
        <ele>193.60000610352</ele>
        <time>2023-05-30T05:33:17.000Z</time>
      </trkpt>
      <trkpt lat="46.83675" lon="3.20159">
        <ele>192.80000305176</ele>
        <time>2023-05-30T05:33:18.000Z</time>
      </trkpt>
      <trkpt lat="46.83651" lon="3.20193">
        <ele>191.80000305176</ele>
        <time>2023-05-30T05:33:22.000Z</time>
      </trkpt>
      <trkpt lat="46.83631" lon="3.20207">
        <ele>191.60000610352</ele>
        <time>2023-05-30T05:33:25.000Z</time>
      </trkpt>
      <trkpt lat="46.83624" lon="3.2021">
        <ele>191.60000610352</ele>
        <time>2023-05-30T05:33:26.000Z</time>
      </trkpt>
      <trkpt lat="46.83617" lon="3.20212">
        <ele>191.60000610352</ele>
        <time>2023-05-30T05:33:27.000Z</time>
      </trkpt>
      <trkpt lat="46.836" lon="3.20211">
        <ele>192</ele>
        <time>2023-05-30T05:33:30.000Z</time>
      </trkpt>
      <trkpt lat="46.83589" lon="3.20207">
        <ele>192.39999389648</ele>
        <time>2023-05-30T05:33:32.000Z</time>
      </trkpt>
      <trkpt lat="46.83584" lon="3.20205">
        <ele>193</ele>
        <time>2023-05-30T05:33:33.000Z</time>
      </trkpt>
      <trkpt lat="46.83575" lon="3.202">
        <ele>193.39999389648</ele>
        <time>2023-05-30T05:33:35.000Z</time>
      </trkpt>
      <trkpt lat="46.83562" lon="3.20193">
        <ele>194.19999694824</ele>
        <time>2023-05-30T05:33:38.000Z</time>
      </trkpt>
      <trkpt lat="46.83545" lon="3.20184">
        <ele>195</ele>
        <time>2023-05-30T05:33:42.000Z</time>
      </trkpt>
      <trkpt lat="46.83537" lon="3.20179">
        <ele>195.39999389648</ele>
        <time>2023-05-30T05:33:44.000Z</time>
      </trkpt>
      <trkpt lat="46.83514" lon="3.20167">
        <ele>196.60000610352</ele>
        <time>2023-05-30T05:33:49.000Z</time>
      </trkpt>
      <trkpt lat="46.83506" lon="3.20162">
        <ele>197</ele>
        <time>2023-05-30T05:33:51.000Z</time>
      </trkpt>
      <trkpt lat="46.83494" lon="3.20155">
        <ele>197.60000610352</ele>
        <time>2023-05-30T05:33:54.000Z</time>
      </trkpt>
      <trkpt lat="46.8347" lon="3.20141">
        <ele>198.60000610352</ele>
        <time>2023-05-30T05:34:00.000Z</time>
      </trkpt>
      <trkpt lat="46.83466" lon="3.20139">
        <ele>198.80000305176</ele>
        <time>2023-05-30T05:34:01.000Z</time>
      </trkpt>
      <trkpt lat="46.83435" lon="3.20122">
        <ele>200</ele>
        <time>2023-05-30T05:34:09.000Z</time>
      </trkpt>
      <trkpt lat="46.83427" lon="3.20118">
        <ele>200.39999389648</ele>
        <time>2023-05-30T05:34:11.000Z</time>
      </trkpt>
      <trkpt lat="46.83404" lon="3.20105">
        <ele>201</ele>
        <time>2023-05-30T05:34:17.000Z</time>
      </trkpt>
      <trkpt lat="46.83392" lon="3.20099">
        <ele>201.60000610352</ele>
        <time>2023-05-30T05:34:20.000Z</time>
      </trkpt>
      <trkpt lat="46.83381" lon="3.20092">
        <ele>202.19999694824</ele>
        <time>2023-05-30T05:34:23.000Z</time>
      </trkpt>
      <trkpt lat="46.83361" lon="3.20083">
        <ele>203.19999694824</ele>
        <time>2023-05-30T05:34:28.000Z</time>
      </trkpt>
      <trkpt lat="46.83353" lon="3.20079">
        <ele>203.60000610352</ele>
        <time>2023-05-30T05:34:30.000Z</time>
      </trkpt>
      <trkpt lat="46.83345" lon="3.20076">
        <ele>204</ele>
        <time>2023-05-30T05:34:32.000Z</time>
      </trkpt>
      <trkpt lat="46.83341" lon="3.20075">
        <ele>204.19999694824</ele>
        <time>2023-05-30T05:34:33.000Z</time>
      </trkpt>
      <trkpt lat="46.83337" lon="3.20075">
        <ele>204.19999694824</ele>
        <time>2023-05-30T05:34:34.000Z</time>
      </trkpt>
      <trkpt lat="46.83325" lon="3.20076">
        <ele>205</ele>
        <time>2023-05-30T05:34:37.000Z</time>
      </trkpt>
      <trkpt lat="46.83313" lon="3.2008">
        <ele>205.39999389648</ele>
        <time>2023-05-30T05:34:40.000Z</time>
      </trkpt>
      <trkpt lat="46.83309" lon="3.20083">
        <ele>205.60000610352</ele>
        <time>2023-05-30T05:34:41.000Z</time>
      </trkpt>
      <trkpt lat="46.83302" lon="3.20088">
        <ele>205.80000305176</ele>
        <time>2023-05-30T05:34:43.000Z</time>
      </trkpt>
      <trkpt lat="46.83285" lon="3.20105">
        <ele>206.60000610352</ele>
        <time>2023-05-30T05:34:48.000Z</time>
      </trkpt>
      <trkpt lat="46.83276" lon="3.20118">
        <ele>207</ele>
        <time>2023-05-30T05:34:51.000Z</time>
      </trkpt>
      <trkpt lat="46.83265" lon="3.20135">
        <ele>207.80000305176</ele>
        <time>2023-05-30T05:34:55.000Z</time>
      </trkpt>
      <trkpt lat="46.83259" lon="3.20143">
        <ele>208</ele>
        <time>2023-05-30T05:34:57.000Z</time>
      </trkpt>
      <trkpt lat="46.83253" lon="3.20151">
        <ele>208.19999694824</ele>
        <time>2023-05-30T05:34:59.000Z</time>
      </trkpt>
      <trkpt lat="46.83245" lon="3.20163">
        <ele>208.80000305176</ele>
        <time>2023-05-30T05:35:02.000Z</time>
      </trkpt>
      <trkpt lat="46.83232" lon="3.20182">
        <ele>210</ele>
        <time>2023-05-30T05:35:07.000Z</time>
      </trkpt>
      <trkpt lat="46.83218" lon="3.20202">
        <ele>211</ele>
        <time>2023-05-30T05:35:12.000Z</time>
      </trkpt>
      <trkpt lat="46.83205" lon="3.2022">
        <ele>212.39999389648</ele>
        <time>2023-05-30T05:35:17.000Z</time>
      </trkpt>
      <trkpt lat="46.83203" lon="3.20223">
        <ele>212.39999389648</ele>
        <time>2023-05-30T05:35:18.000Z</time>
      </trkpt>
      <trkpt lat="46.83192" lon="3.20236">
        <ele>213.39999389648</ele>
        <time>2023-05-30T05:35:22.000Z</time>
      </trkpt>
      <trkpt lat="46.8318" lon="3.20255">
        <ele>214.39999389648</ele>
        <time>2023-05-30T05:35:27.000Z</time>
      </trkpt>
      <trkpt lat="46.83166" lon="3.20275">
        <ele>215.60000610352</ele>
        <time>2023-05-30T05:35:32.000Z</time>
      </trkpt>
      <trkpt lat="46.83153" lon="3.20294">
        <ele>216.39999389648</ele>
        <time>2023-05-30T05:35:37.000Z</time>
      </trkpt>
      <trkpt lat="46.8315" lon="3.20298">
        <ele>216.60000610352</ele>
        <time>2023-05-30T05:35:38.000Z</time>
      </trkpt>
      <trkpt lat="46.83138" lon="3.20316">
        <ele>217.60000610352</ele>
        <time>2023-05-30T05:35:43.000Z</time>
      </trkpt>
      <trkpt lat="46.83132" lon="3.20324">
        <ele>218</ele>
        <time>2023-05-30T05:35:45.000Z</time>
      </trkpt>
      <trkpt lat="46.83125" lon="3.20335">
        <ele>218.60000610352</ele>
        <time>2023-05-30T05:35:48.000Z</time>
      </trkpt>
      <trkpt lat="46.83112" lon="3.20354">
        <ele>219.80000305176</ele>
        <time>2023-05-30T05:35:53.000Z</time>
      </trkpt>
      <trkpt lat="46.83099" lon="3.20373">
        <ele>220.60000610352</ele>
        <time>2023-05-30T05:35:58.000Z</time>
      </trkpt>
      <trkpt lat="46.83097" lon="3.20377">
        <ele>220.80000305176</ele>
        <time>2023-05-30T05:35:59.000Z</time>
      </trkpt>
      <trkpt lat="46.83083" lon="3.20396">
        <ele>221.80000305176</ele>
        <time>2023-05-30T05:36:04.000Z</time>
      </trkpt>
      <trkpt lat="46.83081" lon="3.204">
        <ele>222</ele>
        <time>2023-05-30T05:36:05.000Z</time>
      </trkpt>
      <trkpt lat="46.83068" lon="3.20418">
        <ele>223.19999694824</ele>
        <time>2023-05-30T05:36:10.000Z</time>
      </trkpt>
      <trkpt lat="46.8306" lon="3.2043">
        <ele>223.80000305176</ele>
        <time>2023-05-30T05:36:13.000Z</time>
      </trkpt>
      <trkpt lat="46.83052" lon="3.20442">
        <ele>224.19999694824</ele>
        <time>2023-05-30T05:36:16.000Z</time>
      </trkpt>
      <trkpt lat="46.83043" lon="3.20456">
        <ele>225.19999694824</ele>
        <time>2023-05-30T05:36:20.000Z</time>
      </trkpt>
      <trkpt lat="46.83039" lon="3.2046">
        <ele>225.39999389648</ele>
        <time>2023-05-30T05:36:21.000Z</time>
      </trkpt>
      <trkpt lat="46.83029" lon="3.20475">
        <ele>226.39999389648</ele>
        <time>2023-05-30T05:36:25.000Z</time>
      </trkpt>
      <trkpt lat="46.83026" lon="3.20479">
        <ele>226.39999389648</ele>
        <time>2023-05-30T05:36:26.000Z</time>
      </trkpt>
      <trkpt lat="46.8301" lon="3.20503">
        <ele>227.39999389648</ele>
        <time>2023-05-30T05:36:32.000Z</time>
      </trkpt>
      <trkpt lat="46.83008" lon="3.20506">
        <ele>227.39999389648</ele>
        <time>2023-05-30T05:36:33.000Z</time>
      </trkpt>
      <trkpt lat="46.8299" lon="3.2053">
        <ele>228.19999694824</ele>
        <time>2023-05-30T05:36:39.000Z</time>
      </trkpt>
      <trkpt lat="46.82984" lon="3.2054">
        <ele>228.39999389648</ele>
        <time>2023-05-30T05:36:41.000Z</time>
      </trkpt>
      <trkpt lat="46.8297" lon="3.20561">
        <ele>229.39999389648</ele>
        <time>2023-05-30T05:36:46.000Z</time>
      </trkpt>
      <trkpt lat="46.82967" lon="3.20565">
        <ele>229.60000610352</ele>
        <time>2023-05-30T05:36:47.000Z</time>
      </trkpt>
      <trkpt lat="46.82951" lon="3.20589">
        <ele>230.60000610352</ele>
        <time>2023-05-30T05:36:53.000Z</time>
      </trkpt>
      <trkpt lat="46.82948" lon="3.20593">
        <ele>231</ele>
        <time>2023-05-30T05:36:54.000Z</time>
      </trkpt>
      <trkpt lat="46.82931" lon="3.20617">
        <ele>231.60000610352</ele>
        <time>2023-05-30T05:37:00.000Z</time>
      </trkpt>
      <trkpt lat="46.8292" lon="3.20634">
        <ele>232</ele>
        <time>2023-05-30T05:37:04.000Z</time>
      </trkpt>
      <trkpt lat="46.82914" lon="3.20643">
        <ele>232</ele>
        <time>2023-05-30T05:37:06.000Z</time>
      </trkpt>
      <trkpt lat="46.82895" lon="3.20669">
        <ele>232</ele>
        <time>2023-05-30T05:37:11.000Z</time>
      </trkpt>
      <trkpt lat="46.82868" lon="3.20708">
        <ele>232</ele>
        <time>2023-05-30T05:37:18.000Z</time>
      </trkpt>
      <trkpt lat="46.82856" lon="3.20727">
        <ele>232.19999694824</ele>
        <time>2023-05-30T05:37:21.000Z</time>
      </trkpt>
      <trkpt lat="46.82843" lon="3.20746">
        <ele>232.19999694824</ele>
        <time>2023-05-30T05:37:24.000Z</time>
      </trkpt>
      <trkpt lat="46.82805" lon="3.208">
        <ele>232.19999694824</ele>
        <time>2023-05-30T05:37:33.000Z</time>
      </trkpt>
      <trkpt lat="46.82786" lon="3.20827">
        <ele>232</ele>
        <time>2023-05-30T05:37:38.000Z</time>
      </trkpt>
      <trkpt lat="46.82778" lon="3.20838">
        <ele>231.80000305176</ele>
        <time>2023-05-30T05:37:40.000Z</time>
      </trkpt>
      <trkpt lat="46.82756" lon="3.20871">
        <ele>231.60000610352</ele>
        <time>2023-05-30T05:37:45.000Z</time>
      </trkpt>
      <trkpt lat="46.82744" lon="3.2089">
        <ele>231.39999389648</ele>
        <time>2023-05-30T05:37:48.000Z</time>
      </trkpt>
      <trkpt lat="46.8271" lon="3.20939">
        <ele>231.19999694824</ele>
        <time>2023-05-30T05:37:56.000Z</time>
      </trkpt>
      <trkpt lat="46.8267" lon="3.20999">
        <ele>231.19999694824</ele>
        <time>2023-05-30T05:38:05.000Z</time>
      </trkpt>
      <trkpt lat="46.82666" lon="3.21005">
        <ele>231</ele>
        <time>2023-05-30T05:38:06.000Z</time>
      </trkpt>
      <trkpt lat="46.82633" lon="3.21052">
        <ele>230.80000305176</ele>
        <time>2023-05-30T05:38:14.000Z</time>
      </trkpt>
      <trkpt lat="46.8263" lon="3.21058">
        <ele>230.80000305176</ele>
        <time>2023-05-30T05:38:15.000Z</time>
      </trkpt>
      <trkpt lat="46.82609" lon="3.21087">
        <ele>230.80000305176</ele>
        <time>2023-05-30T05:38:20.000Z</time>
      </trkpt>
      <trkpt lat="46.82575" lon="3.21131">
        <ele>230.80000305176</ele>
        <time>2023-05-30T05:38:28.000Z</time>
      </trkpt>
      <trkpt lat="46.82566" lon="3.21139">
        <ele>230.60000610352</ele>
        <time>2023-05-30T05:38:30.000Z</time>
      </trkpt>
      <trkpt lat="46.82557" lon="3.21146">
        <ele>230.39999389648</ele>
        <time>2023-05-30T05:38:32.000Z</time>
      </trkpt>
      <trkpt lat="46.82552" lon="3.21149">
        <ele>230.19999694824</ele>
        <time>2023-05-30T05:38:33.000Z</time>
      </trkpt>
      <trkpt lat="46.82536" lon="3.21158">
        <ele>229.39999389648</ele>
        <time>2023-05-30T05:38:36.000Z</time>
      </trkpt>
      <trkpt lat="46.82525" lon="3.21164">
        <ele>229.19999694824</ele>
        <time>2023-05-30T05:38:38.000Z</time>
      </trkpt>
      <trkpt lat="46.8252" lon="3.21167">
        <ele>229</ele>
        <time>2023-05-30T05:38:39.000Z</time>
      </trkpt>
      <trkpt lat="46.825" lon="3.21179">
        <ele>228.19999694824</ele>
        <time>2023-05-30T05:38:42.000Z</time>
      </trkpt>
      <trkpt lat="46.82493" lon="3.21183">
        <ele>227.80000305176</ele>
        <time>2023-05-30T05:38:43.000Z</time>
      </trkpt>
      <trkpt lat="46.82486" lon="3.21186">
        <ele>227.60000610352</ele>
        <time>2023-05-30T05:38:44.000Z</time>
      </trkpt>
      <trkpt lat="46.8248" lon="3.21189">
        <ele>227.39999389648</ele>
        <time>2023-05-30T05:38:45.000Z</time>
      </trkpt>
      <trkpt lat="46.82474" lon="3.21191">
        <ele>227.19999694824</ele>
        <time>2023-05-30T05:38:46.000Z</time>
      </trkpt>
      <trkpt lat="46.82459" lon="3.21199">
        <ele>226.60000610352</ele>
        <time>2023-05-30T05:38:48.000Z</time>
      </trkpt>
      <trkpt lat="46.82441" lon="3.21206">
        <ele>226.19999694824</ele>
        <time>2023-05-30T05:38:50.000Z</time>
      </trkpt>
      <trkpt lat="46.82422" lon="3.21215">
        <ele>225.19999694824</ele>
        <time>2023-05-30T05:38:52.000Z</time>
      </trkpt>
      <trkpt lat="46.82412" lon="3.2122">
        <ele>224.80000305176</ele>
        <time>2023-05-30T05:38:53.000Z</time>
      </trkpt>
      <trkpt lat="46.82391" lon="3.21231">
        <ele>223.39999389648</ele>
        <time>2023-05-30T05:38:55.000Z</time>
      </trkpt>
      <trkpt lat="46.82382" lon="3.21235">
        <ele>223.19999694824</ele>
        <time>2023-05-30T05:38:56.000Z</time>
      </trkpt>
      <trkpt lat="46.82373" lon="3.2124">
        <ele>222.39999389648</ele>
        <time>2023-05-30T05:38:57.000Z</time>
      </trkpt>
      <trkpt lat="46.82352" lon="3.2125">
        <ele>221</ele>
        <time>2023-05-30T05:38:59.000Z</time>
      </trkpt>
      <trkpt lat="46.8233" lon="3.21261">
        <ele>219.80000305176</ele>
        <time>2023-05-30T05:39:01.000Z</time>
      </trkpt>
      <trkpt lat="46.8232" lon="3.21266">
        <ele>218.60000610352</ele>
        <time>2023-05-30T05:39:02.000Z</time>
      </trkpt>
      <trkpt lat="46.8229" lon="3.21282">
        <ele>217.39999389648</ele>
        <time>2023-05-30T05:39:05.000Z</time>
      </trkpt>
      <trkpt lat="46.82272" lon="3.2129">
        <ele>216.39999389648</ele>
        <time>2023-05-30T05:39:07.000Z</time>
      </trkpt>
      <trkpt lat="46.82254" lon="3.21298">
        <ele>215.19999694824</ele>
        <time>2023-05-30T05:39:09.000Z</time>
      </trkpt>
      <trkpt lat="46.82236" lon="3.21307">
        <ele>214.19999694824</ele>
        <time>2023-05-30T05:39:11.000Z</time>
      </trkpt>
      <trkpt lat="46.8221" lon="3.21319">
        <ele>212.60000610352</ele>
        <time>2023-05-30T05:39:14.000Z</time>
      </trkpt>
      <trkpt lat="46.82185" lon="3.21332">
        <ele>211.60000610352</ele>
        <time>2023-05-30T05:39:17.000Z</time>
      </trkpt>
      <trkpt lat="46.82177" lon="3.21336">
        <ele>211.39999389648</ele>
        <time>2023-05-30T05:39:18.000Z</time>
      </trkpt>
      <trkpt lat="46.8216" lon="3.21344">
        <ele>210.80000305176</ele>
        <time>2023-05-30T05:39:20.000Z</time>
      </trkpt>
      <trkpt lat="46.82152" lon="3.21348">
        <ele>210.39999389648</ele>
        <time>2023-05-30T05:39:21.000Z</time>
      </trkpt>
      <trkpt lat="46.82127" lon="3.2136">
        <ele>209.19999694824</ele>
        <time>2023-05-30T05:39:24.000Z</time>
      </trkpt>
      <trkpt lat="46.82087" lon="3.21379">
        <ele>208</ele>
        <time>2023-05-30T05:39:29.000Z</time>
      </trkpt>
      <trkpt lat="46.82079" lon="3.21383">
        <ele>207.80000305176</ele>
        <time>2023-05-30T05:39:30.000Z</time>
      </trkpt>
      <trkpt lat="46.82057" lon="3.21394">
        <ele>207</ele>
        <time>2023-05-30T05:39:33.000Z</time>
      </trkpt>
      <trkpt lat="46.82022" lon="3.21411">
        <ele>205.80000305176</ele>
        <time>2023-05-30T05:39:38.000Z</time>
      </trkpt>
      <trkpt lat="46.82015" lon="3.21415">
        <ele>205.80000305176</ele>
        <time>2023-05-30T05:39:39.000Z</time>
      </trkpt>
      <trkpt lat="46.81976" lon="3.21433">
        <ele>205.19999694824</ele>
        <time>2023-05-30T05:39:45.000Z</time>
      </trkpt>
      <trkpt lat="46.81944" lon="3.21449">
        <ele>204.80000305176</ele>
        <time>2023-05-30T05:39:50.000Z</time>
      </trkpt>
      <trkpt lat="46.81911" lon="3.21465">
        <ele>204</ele>
        <time>2023-05-30T05:39:55.000Z</time>
      </trkpt>
      <trkpt lat="46.819" lon="3.21471">
        <ele>203.60000610352</ele>
        <time>2023-05-30T05:39:57.000Z</time>
      </trkpt>
      <trkpt lat="46.81861" lon="3.21486">
        <ele>202.80000305176</ele>
        <time>2023-05-30T05:40:03.000Z</time>
      </trkpt>
      <trkpt lat="46.81852" lon="3.21488">
        <ele>202.80000305176</ele>
        <time>2023-05-30T05:40:04.000Z</time>
      </trkpt>
      <trkpt lat="46.81838" lon="3.21489">
        <ele>202.39999389648</ele>
        <time>2023-05-30T05:40:06.000Z</time>
      </trkpt>
      <trkpt lat="46.8181" lon="3.21488">
        <ele>202.19999694824</ele>
        <time>2023-05-30T05:40:10.000Z</time>
      </trkpt>
      <trkpt lat="46.81763" lon="3.21483">
        <ele>201.39999389648</ele>
        <time>2023-05-30T05:40:17.000Z</time>
      </trkpt>
      <trkpt lat="46.81756" lon="3.21482">
        <ele>201.19999694824</ele>
        <time>2023-05-30T05:40:18.000Z</time>
      </trkpt>
      <trkpt lat="46.81717" lon="3.21465">
        <ele>201</ele>
        <time>2023-05-30T05:40:24.000Z</time>
      </trkpt>
      <trkpt lat="46.81711" lon="3.2146">
        <ele>201</ele>
        <time>2023-05-30T05:40:25.000Z</time>
      </trkpt>
      <trkpt lat="46.81681" lon="3.21432">
        <ele>201</ele>
        <time>2023-05-30T05:40:30.000Z</time>
      </trkpt>
      <trkpt lat="46.81631" lon="3.21388">
        <ele>200.60000610352</ele>
        <time>2023-05-30T05:40:38.000Z</time>
      </trkpt>
      <trkpt lat="46.81604" lon="3.21372">
        <ele>200.39999389648</ele>
        <time>2023-05-30T05:40:42.000Z</time>
      </trkpt>
      <trkpt lat="46.81591" lon="3.21367">
        <ele>200.19999694824</ele>
        <time>2023-05-30T05:40:44.000Z</time>
      </trkpt>
      <trkpt lat="46.81543" lon="3.21353">
        <ele>200.19999694824</ele>
        <time>2023-05-30T05:40:51.000Z</time>
      </trkpt>
      <trkpt lat="46.81486" lon="3.21341">
        <ele>200.19999694824</ele>
        <time>2023-05-30T05:41:00.000Z</time>
      </trkpt>
      <trkpt lat="46.8148" lon="3.2134">
        <ele>200.39999389648</ele>
        <time>2023-05-30T05:41:01.000Z</time>
      </trkpt>
      <trkpt lat="46.81426" lon="3.21335">
        <ele>200.60000610352</ele>
        <time>2023-05-30T05:41:10.000Z</time>
      </trkpt>
      <trkpt lat="46.81414" lon="3.21335">
        <ele>200.80000305176</ele>
        <time>2023-05-30T05:41:12.000Z</time>
      </trkpt>
      <trkpt lat="46.81356" lon="3.2133">
        <ele>201</ele>
        <time>2023-05-30T05:41:22.000Z</time>
      </trkpt>
      <trkpt lat="46.81343" lon="3.2133">
        <ele>201.19999694824</ele>
        <time>2023-05-30T05:41:24.000Z</time>
      </trkpt>
      <trkpt lat="46.81304" lon="3.21326">
        <ele>201.19999694824</ele>
        <time>2023-05-30T05:41:31.000Z</time>
      </trkpt>
      <trkpt lat="46.81299" lon="3.21326">
        <ele>201</ele>
        <time>2023-05-30T05:41:32.000Z</time>
      </trkpt>
      <trkpt lat="46.81251" lon="3.21323">
        <ele>201</ele>
        <time>2023-05-30T05:41:40.000Z</time>
      </trkpt>
      <trkpt lat="46.81204" lon="3.21319">
        <ele>200.80000305176</ele>
        <time>2023-05-30T05:41:48.000Z</time>
      </trkpt>
      <trkpt lat="46.81161" lon="3.21316">
        <ele>200.80000305176</ele>
        <time>2023-05-30T05:41:55.000Z</time>
      </trkpt>
      <trkpt lat="46.81155" lon="3.21316">
        <ele>200.80000305176</ele>
        <time>2023-05-30T05:41:56.000Z</time>
      </trkpt>
      <trkpt lat="46.8111" lon="3.21311">
        <ele>201</ele>
        <time>2023-05-30T05:42:04.000Z</time>
      </trkpt>
      <trkpt lat="46.81082" lon="3.2131">
        <ele>201.19999694824</ele>
        <time>2023-05-30T05:42:09.000Z</time>
      </trkpt>
      <trkpt lat="46.81076" lon="3.21309">
        <ele>201.19999694824</ele>
        <time>2023-05-30T05:42:10.000Z</time>
      </trkpt>
      <trkpt lat="46.81034" lon="3.21305">
        <ele>201.60000610352</ele>
        <time>2023-05-30T05:42:17.000Z</time>
      </trkpt>
      <trkpt lat="46.80992" lon="3.21302">
        <ele>201.60000610352</ele>
        <time>2023-05-30T05:42:24.000Z</time>
      </trkpt>
      <trkpt lat="46.80943" lon="3.213">
        <ele>201.60000610352</ele>
        <time>2023-05-30T05:42:32.000Z</time>
      </trkpt>
      <trkpt lat="46.80927" lon="3.21299">
        <ele>202</ele>
        <time>2023-05-30T05:42:35.000Z</time>
      </trkpt>
      <trkpt lat="46.80922" lon="3.21296">
        <ele>202.19999694824</ele>
        <time>2023-05-30T05:42:36.000Z</time>
      </trkpt>
      <trkpt lat="46.80912" lon="3.21295">
        <ele>202.39999389648</ele>
        <time>2023-05-30T05:42:38.000Z</time>
      </trkpt>
      <trkpt lat="46.80884" lon="3.21295">
        <ele>203</ele>
        <time>2023-05-30T05:42:44.000Z</time>
      </trkpt>
      <trkpt lat="46.8088" lon="3.21294">
        <ele>203.19999694824</ele>
        <time>2023-05-30T05:42:45.000Z</time>
      </trkpt>
      <trkpt lat="46.80865" lon="3.21292">
        <ele>204</ele>
        <time>2023-05-30T05:42:49.000Z</time>
      </trkpt>
      <trkpt lat="46.80861" lon="3.21291">
        <ele>204.39999389648</ele>
        <time>2023-05-30T05:42:50.000Z</time>
      </trkpt>
      <trkpt lat="46.8085" lon="3.21291">
        <ele>205.19999694824</ele>
        <time>2023-05-30T05:42:53.000Z</time>
      </trkpt>
      <trkpt lat="46.80843" lon="3.2129">
        <ele>205.60000610352</ele>
        <time>2023-05-30T05:42:55.000Z</time>
      </trkpt>
      <trkpt lat="46.80833" lon="3.2129">
        <ele>206.19999694824</ele>
        <time>2023-05-30T05:42:58.000Z</time>
      </trkpt>
      <trkpt lat="46.8083" lon="3.2129">
        <ele>206.39999389648</ele>
        <time>2023-05-30T05:42:59.000Z</time>
      </trkpt>
      <trkpt lat="46.80815" lon="3.21289">
        <ele>207.39999389648</ele>
        <time>2023-05-30T05:43:03.000Z</time>
      </trkpt>
      <trkpt lat="46.80807" lon="3.21289">
        <ele>207.80000305176</ele>
        <time>2023-05-30T05:43:05.000Z</time>
      </trkpt>
      <trkpt lat="46.80795" lon="3.21288">
        <ele>208.80000305176</ele>
        <time>2023-05-30T05:43:08.000Z</time>
      </trkpt>
      <trkpt lat="46.80777" lon="3.21286">
        <ele>209.80000305176</ele>
        <time>2023-05-30T05:43:12.000Z</time>
      </trkpt>
      <trkpt lat="46.80749" lon="3.21285">
        <ele>210.80000305176</ele>
        <time>2023-05-30T05:43:18.000Z</time>
      </trkpt>
      <trkpt lat="46.8072" lon="3.21286">
        <ele>211</ele>
        <time>2023-05-30T05:43:24.000Z</time>
      </trkpt>
      <trkpt lat="46.8068" lon="3.21285">
        <ele>211</ele>
        <time>2023-05-30T05:43:31.000Z</time>
      </trkpt>
      <trkpt lat="46.80674" lon="3.21285">
        <ele>211</ele>
        <time>2023-05-30T05:43:32.000Z</time>
      </trkpt>
      <trkpt lat="46.80653" lon="3.21292">
        <ele>211</ele>
        <time>2023-05-30T05:43:36.000Z</time>
      </trkpt>
      <trkpt lat="46.80648" lon="3.21295">
        <ele>210.80000305176</ele>
        <time>2023-05-30T05:43:37.000Z</time>
      </trkpt>
      <trkpt lat="46.80627" lon="3.2131">
        <ele>210.80000305176</ele>
        <time>2023-05-30T05:43:42.000Z</time>
      </trkpt>
      <trkpt lat="46.80606" lon="3.21328">
        <ele>210.80000305176</ele>
        <time>2023-05-30T05:43:47.000Z</time>
      </trkpt>
      <trkpt lat="46.80602" lon="3.21332">
        <ele>210.80000305176</ele>
        <time>2023-05-30T05:43:48.000Z</time>
      </trkpt>
      <trkpt lat="46.80584" lon="3.2135">
        <ele>211.19999694824</ele>
        <time>2023-05-30T05:43:52.000Z</time>
      </trkpt>
      <trkpt lat="46.80572" lon="3.21361">
        <ele>211.60000610352</ele>
        <time>2023-05-30T05:43:55.000Z</time>
      </trkpt>
      <trkpt lat="46.8055" lon="3.2138">
        <ele>212.19999694824</ele>
        <time>2023-05-30T05:43:59.000Z</time>
      </trkpt>
      <trkpt lat="46.80538" lon="3.21391">
        <ele>212.60000610352</ele>
        <time>2023-05-30T05:44:02.000Z</time>
      </trkpt>
      <trkpt lat="46.80528" lon="3.21402">
        <ele>213</ele>
        <time>2023-05-30T05:44:04.000Z</time>
      </trkpt>
      <trkpt lat="46.80519" lon="3.2141">
        <ele>213.19999694824</ele>
        <time>2023-05-30T05:44:06.000Z</time>
      </trkpt>
      <trkpt lat="46.80505" lon="3.21424">
        <ele>213.60000610352</ele>
        <time>2023-05-30T05:44:09.000Z</time>
      </trkpt>
      <trkpt lat="46.80495" lon="3.21433">
        <ele>213.80000305176</ele>
        <time>2023-05-30T05:44:11.000Z</time>
      </trkpt>
      <trkpt lat="46.80486" lon="3.21442">
        <ele>213.80000305176</ele>
        <time>2023-05-30T05:44:13.000Z</time>
      </trkpt>
      <trkpt lat="46.80483" lon="3.21446">
        <ele>214</ele>
        <time>2023-05-30T05:44:14.000Z</time>
      </trkpt>
      <trkpt lat="46.80452" lon="3.21479">
        <ele>214.39999389648</ele>
        <time>2023-05-30T05:44:21.000Z</time>
      </trkpt>
      <trkpt lat="46.80442" lon="3.21489">
        <ele>214.60000610352</ele>
        <time>2023-05-30T05:44:24.000Z</time>
      </trkpt>
      <trkpt lat="46.80423" lon="3.21505">
        <ele>215</ele>
        <time>2023-05-30T05:44:28.000Z</time>
      </trkpt>
      <trkpt lat="46.80419" lon="3.21509">
        <ele>215.19999694824</ele>
        <time>2023-05-30T05:44:29.000Z</time>
      </trkpt>
      <trkpt lat="46.80409" lon="3.21518">
        <ele>215.60000610352</ele>
        <time>2023-05-30T05:44:31.000Z</time>
      </trkpt>
      <trkpt lat="46.80378" lon="3.21546">
        <ele>216.19999694824</ele>
        <time>2023-05-30T05:44:38.000Z</time>
      </trkpt>
      <trkpt lat="46.80359" lon="3.21566">
        <ele>216.39999389648</ele>
        <time>2023-05-30T05:44:43.000Z</time>
      </trkpt>
      <trkpt lat="46.80355" lon="3.2157">
        <ele>216.60000610352</ele>
        <time>2023-05-30T05:44:44.000Z</time>
      </trkpt>
      <trkpt lat="46.80336" lon="3.21587">
        <ele>217.60000610352</ele>
        <time>2023-05-30T05:44:48.000Z</time>
      </trkpt>
      <trkpt lat="46.80331" lon="3.21591">
        <ele>217.60000610352</ele>
        <time>2023-05-30T05:44:49.000Z</time>
      </trkpt>
      <trkpt lat="46.80313" lon="3.21607">
        <ele>217.80000305176</ele>
        <time>2023-05-30T05:44:53.000Z</time>
      </trkpt>
      <trkpt lat="46.80299" lon="3.21621">
        <ele>217.80000305176</ele>
        <time>2023-05-30T05:44:56.000Z</time>
      </trkpt>
      <trkpt lat="46.80253" lon="3.21662">
        <ele>217.80000305176</ele>
        <time>2023-05-30T05:45:05.000Z</time>
      </trkpt>
      <trkpt lat="46.80209" lon="3.21707">
        <ele>217.80000305176</ele>
        <time>2023-05-30T05:45:15.000Z</time>
      </trkpt>
      <trkpt lat="46.80203" lon="3.2171">
        <ele>217.80000305176</ele>
        <time>2023-05-30T05:45:16.000Z</time>
      </trkpt>
      <trkpt lat="46.8019" lon="3.21724">
        <ele>218.39999389648</ele>
        <time>2023-05-30T05:45:19.000Z</time>
      </trkpt>
      <trkpt lat="46.80178" lon="3.21735">
        <ele>218.39999389648</ele>
        <time>2023-05-30T05:45:21.000Z</time>
      </trkpt>
      <trkpt lat="46.80167" lon="3.21746">
        <ele>218.80000305176</ele>
        <time>2023-05-30T05:45:24.000Z</time>
      </trkpt>
      <trkpt lat="46.80142" lon="3.2177">
        <ele>219.60000610352</ele>
        <time>2023-05-30T05:45:29.000Z</time>
      </trkpt>
      <trkpt lat="46.80128" lon="3.21782">
        <ele>219.80000305176</ele>
        <time>2023-05-30T05:45:32.000Z</time>
      </trkpt>
      <trkpt lat="46.8011" lon="3.21799">
        <ele>220.60000610352</ele>
        <time>2023-05-30T05:45:37.000Z</time>
      </trkpt>
      <trkpt lat="46.801" lon="3.21808">
        <ele>221</ele>
        <time>2023-05-30T05:45:40.000Z</time>
      </trkpt>
      <trkpt lat="46.80087" lon="3.21821">
        <ele>221.80000305176</ele>
        <time>2023-05-30T05:45:44.000Z</time>
      </trkpt>
      <trkpt lat="46.80077" lon="3.2183">
        <ele>222.39999389648</ele>
        <time>2023-05-30T05:45:47.000Z</time>
      </trkpt>
      <trkpt lat="46.80071" lon="3.21835">
        <ele>222.80000305176</ele>
        <time>2023-05-30T05:45:49.000Z</time>
      </trkpt>
      <trkpt lat="46.80069" lon="3.21838">
        <ele>223</ele>
        <time>2023-05-30T05:45:50.000Z</time>
      </trkpt>
      <trkpt lat="46.80059" lon="3.21848">
        <ele>223.60000610352</ele>
        <time>2023-05-30T05:45:54.000Z</time>
      </trkpt>
      <trkpt lat="46.80053" lon="3.21855">
        <ele>224.39999389648</ele>
        <time>2023-05-30T05:45:56.000Z</time>
      </trkpt>
      <trkpt lat="46.80048" lon="3.21863">
        <ele>224.80000305176</ele>
        <time>2023-05-30T05:45:58.000Z</time>
      </trkpt>
      <trkpt lat="46.80036" lon="3.21885">
        <ele>225.60000610352</ele>
        <time>2023-05-30T05:46:02.000Z</time>
      </trkpt>
      <trkpt lat="46.80019" lon="3.21922">
        <ele>225.80000305176</ele>
        <time>2023-05-30T05:46:08.000Z</time>
      </trkpt>
      <trkpt lat="46.80004" lon="3.21951">
        <ele>226.19999694824</ele>
        <time>2023-05-30T05:46:13.000Z</time>
      </trkpt>
      <trkpt lat="46.8" lon="3.21963">
        <ele>226.39999389648</ele>
        <time>2023-05-30T05:46:15.000Z</time>
      </trkpt>
      <trkpt lat="46.79993" lon="3.21975">
        <ele>226.39999389648</ele>
        <time>2023-05-30T05:46:17.000Z</time>
      </trkpt>
      <trkpt lat="46.79987" lon="3.21989">
        <ele>226.80000305176</ele>
        <time>2023-05-30T05:46:20.000Z</time>
      </trkpt>
      <trkpt lat="46.79978" lon="3.22009">
        <ele>227.39999389648</ele>
        <time>2023-05-30T05:46:24.000Z</time>
      </trkpt>
      <trkpt lat="46.7997" lon="3.22025">
        <ele>228</ele>
        <time>2023-05-30T05:46:27.000Z</time>
      </trkpt>
      <trkpt lat="46.79966" lon="3.22033">
        <ele>228.60000610352</ele>
        <time>2023-05-30T05:46:29.000Z</time>
      </trkpt>
      <trkpt lat="46.79961" lon="3.22045">
        <ele>229.19999694824</ele>
        <time>2023-05-30T05:46:32.000Z</time>
      </trkpt>
      <trkpt lat="46.7995" lon="3.22064">
        <ele>229.80000305176</ele>
        <time>2023-05-30T05:46:36.000Z</time>
      </trkpt>
      <trkpt lat="46.79939" lon="3.22082">
        <ele>230.39999389648</ele>
        <time>2023-05-30T05:46:39.000Z</time>
      </trkpt>
      <trkpt lat="46.79934" lon="3.22088">
        <ele>230.60000610352</ele>
        <time>2023-05-30T05:46:40.000Z</time>
      </trkpt>
      <trkpt lat="46.7992" lon="3.22105">
        <ele>231.19999694824</ele>
        <time>2023-05-30T05:46:44.000Z</time>
      </trkpt>
      <trkpt lat="46.79916" lon="3.22108">
        <ele>231.60000610352</ele>
        <time>2023-05-30T05:46:45.000Z</time>
      </trkpt>
      <trkpt lat="46.79896" lon="3.22128">
        <ele>232</ele>
        <time>2023-05-30T05:46:50.000Z</time>
      </trkpt>
      <trkpt lat="46.79864" lon="3.22159">
        <ele>232.19999694824</ele>
        <time>2023-05-30T05:46:57.000Z</time>
      </trkpt>
      <trkpt lat="46.79842" lon="3.22179">
        <ele>232.60000610352</ele>
        <time>2023-05-30T05:47:02.000Z</time>
      </trkpt>
      <trkpt lat="46.79833" lon="3.22188">
        <ele>232.39999389648</ele>
        <time>2023-05-30T05:47:04.000Z</time>
      </trkpt>
      <trkpt lat="46.79819" lon="3.22199">
        <ele>232.39999389648</ele>
        <time>2023-05-30T05:47:07.000Z</time>
      </trkpt>
      <trkpt lat="46.7981" lon="3.22206">
        <ele>232.39999389648</ele>
        <time>2023-05-30T05:47:09.000Z</time>
      </trkpt>
      <trkpt lat="46.79777" lon="3.22229">
        <ele>232.39999389648</ele>
        <time>2023-05-30T05:47:16.000Z</time>
      </trkpt>
      <trkpt lat="46.79773" lon="3.22231">
        <ele>232.19999694824</ele>
        <time>2023-05-30T05:47:17.000Z</time>
      </trkpt>
      <trkpt lat="46.79762" lon="3.22237">
        <ele>232.19999694824</ele>
        <time>2023-05-30T05:47:19.000Z</time>
      </trkpt>
      <trkpt lat="46.79757" lon="3.22242">
        <ele>232.19999694824</ele>
        <time>2023-05-30T05:47:20.000Z</time>
      </trkpt>
      <trkpt lat="46.79712" lon="3.22275">
        <ele>231.39999389648</ele>
        <time>2023-05-30T05:47:28.000Z</time>
      </trkpt>
      <trkpt lat="46.79707" lon="3.22279">
        <ele>231.39999389648</ele>
        <time>2023-05-30T05:47:29.000Z</time>
      </trkpt>
      <trkpt lat="46.79666" lon="3.22304">
        <ele>230.60000610352</ele>
        <time>2023-05-30T05:47:36.000Z</time>
      </trkpt>
      <trkpt lat="46.79653" lon="3.22312">
        <ele>230</ele>
        <time>2023-05-30T05:47:38.000Z</time>
      </trkpt>
      <trkpt lat="46.79635" lon="3.22326">
        <ele>228.80000305176</ele>
        <time>2023-05-30T05:47:41.000Z</time>
      </trkpt>
      <trkpt lat="46.79628" lon="3.2233">
        <ele>228.60000610352</ele>
        <time>2023-05-30T05:47:42.000Z</time>
      </trkpt>
      <trkpt lat="46.79613" lon="3.22335">
        <ele>227.60000610352</ele>
        <time>2023-05-30T05:47:44.000Z</time>
      </trkpt>
      <trkpt lat="46.7959" lon="3.22339">
        <ele>226.80000305176</ele>
        <time>2023-05-30T05:47:47.000Z</time>
      </trkpt>
      <trkpt lat="46.79582" lon="3.22339">
        <ele>226.39999389648</ele>
        <time>2023-05-30T05:47:48.000Z</time>
      </trkpt>
      <trkpt lat="46.79559" lon="3.22344">
        <ele>225</ele>
        <time>2023-05-30T05:47:51.000Z</time>
      </trkpt>
      <trkpt lat="46.79543" lon="3.22349">
        <ele>224</ele>
        <time>2023-05-30T05:47:53.000Z</time>
      </trkpt>
      <trkpt lat="46.79535" lon="3.22353">
        <ele>224</ele>
        <time>2023-05-30T05:47:54.000Z</time>
      </trkpt>
      <trkpt lat="46.79514" lon="3.2237">
        <ele>222.80000305176</ele>
        <time>2023-05-30T05:47:57.000Z</time>
      </trkpt>
      <trkpt lat="46.79487" lon="3.22399">
        <ele>221.80000305176</ele>
        <time>2023-05-30T05:48:01.000Z</time>
      </trkpt>
      <trkpt lat="46.79462" lon="3.22424">
        <ele>221</ele>
        <time>2023-05-30T05:48:05.000Z</time>
      </trkpt>
      <trkpt lat="46.7945" lon="3.22436">
        <ele>220.39999389648</ele>
        <time>2023-05-30T05:48:07.000Z</time>
      </trkpt>
      <trkpt lat="46.7943" lon="3.2245">
        <ele>219.60000610352</ele>
        <time>2023-05-30T05:48:10.000Z</time>
      </trkpt>
      <trkpt lat="46.79423" lon="3.22452">
        <ele>219.60000610352</ele>
        <time>2023-05-30T05:48:11.000Z</time>
      </trkpt>
      <trkpt lat="46.79416" lon="3.22451">
        <ele>219.39999389648</ele>
        <time>2023-05-30T05:48:12.000Z</time>
      </trkpt>
      <trkpt lat="46.79402" lon="3.22444">
        <ele>219.19999694824</ele>
        <time>2023-05-30T05:48:14.000Z</time>
      </trkpt>
      <trkpt lat="46.79378" lon="3.22423">
        <ele>219</ele>
        <time>2023-05-30T05:48:18.000Z</time>
      </trkpt>
      <trkpt lat="46.79372" lon="3.2242">
        <ele>218.80000305176</ele>
        <time>2023-05-30T05:48:19.000Z</time>
      </trkpt>
      <trkpt lat="46.79366" lon="3.22417">
        <ele>218.80000305176</ele>
        <time>2023-05-30T05:48:20.000Z</time>
      </trkpt>
      <trkpt lat="46.79352" lon="3.22418">
        <ele>218.60000610352</ele>
        <time>2023-05-30T05:48:22.000Z</time>
      </trkpt>
      <trkpt lat="46.79329" lon="3.22431">
        <ele>218.60000610352</ele>
        <time>2023-05-30T05:48:26.000Z</time>
      </trkpt>
      <trkpt lat="46.79293" lon="3.22454">
        <ele>218.39999389648</ele>
        <time>2023-05-30T05:48:32.000Z</time>
      </trkpt>
      <trkpt lat="46.79281" lon="3.22461">
        <ele>218.39999389648</ele>
        <time>2023-05-30T05:48:34.000Z</time>
      </trkpt>
      <trkpt lat="46.79252" lon="3.22483">
        <ele>218.39999389648</ele>
        <time>2023-05-30T05:48:39.000Z</time>
      </trkpt>
      <trkpt lat="46.79226" lon="3.22511">
        <ele>218.39999389648</ele>
        <time>2023-05-30T05:48:44.000Z</time>
      </trkpt>
      <trkpt lat="46.7922" lon="3.22516">
        <ele>218.60000610352</ele>
        <time>2023-05-30T05:48:45.000Z</time>
      </trkpt>
      <trkpt lat="46.792" lon="3.22531">
        <ele>218.80000305176</ele>
        <time>2023-05-30T05:48:49.000Z</time>
      </trkpt>
      <trkpt lat="46.7919" lon="3.22536">
        <ele>219</ele>
        <time>2023-05-30T05:48:51.000Z</time>
      </trkpt>
      <trkpt lat="46.79185" lon="3.22538">
        <ele>219.19999694824</ele>
        <time>2023-05-30T05:48:52.000Z</time>
      </trkpt>
      <trkpt lat="46.7918" lon="3.2254">
        <ele>219.39999389648</ele>
        <time>2023-05-30T05:48:53.000Z</time>
      </trkpt>
      <trkpt lat="46.79171" lon="3.22544">
        <ele>219.80000305176</ele>
        <time>2023-05-30T05:48:55.000Z</time>
      </trkpt>
      <trkpt lat="46.79162" lon="3.22547">
        <ele>220.60000610352</ele>
        <time>2023-05-30T05:48:57.000Z</time>
      </trkpt>
      <trkpt lat="46.7915" lon="3.22553">
        <ele>221.60000610352</ele>
        <time>2023-05-30T05:49:00.000Z</time>
      </trkpt>
      <trkpt lat="46.79146" lon="3.22556">
        <ele>222</ele>
        <time>2023-05-30T05:49:01.000Z</time>
      </trkpt>
      <trkpt lat="46.79138" lon="3.22566">
        <ele>222.39999389648</ele>
        <time>2023-05-30T05:49:03.000Z</time>
      </trkpt>
      <trkpt lat="46.79134" lon="3.22573">
        <ele>222.39999389648</ele>
        <time>2023-05-30T05:49:04.000Z</time>
      </trkpt>
      <trkpt lat="46.7913" lon="3.22581">
        <ele>222.60000610352</ele>
        <time>2023-05-30T05:49:05.000Z</time>
      </trkpt>
      <trkpt lat="46.79126" lon="3.22588">
        <ele>222.60000610352</ele>
        <time>2023-05-30T05:49:06.000Z</time>
      </trkpt>
      <trkpt lat="46.79107" lon="3.22628">
        <ele>222</ele>
        <time>2023-05-30T05:49:11.000Z</time>
      </trkpt>
      <trkpt lat="46.79087" lon="3.22656">
        <ele>221.39999389648</ele>
        <time>2023-05-30T05:49:15.000Z</time>
      </trkpt>
      <trkpt lat="46.79082" lon="3.22662">
        <ele>221.19999694824</ele>
        <time>2023-05-30T05:49:16.000Z</time>
      </trkpt>
      <trkpt lat="46.7907" lon="3.22672">
        <ele>221</ele>
        <time>2023-05-30T05:49:18.000Z</time>
      </trkpt>
      <trkpt lat="46.79052" lon="3.22682">
        <ele>220.60000610352</ele>
        <time>2023-05-30T05:49:21.000Z</time>
      </trkpt>
      <trkpt lat="46.7901" lon="3.227">
        <ele>220.39999389648</ele>
        <time>2023-05-30T05:49:28.000Z</time>
      </trkpt>
      <trkpt lat="46.78967" lon="3.22721">
        <ele>221</ele>
        <time>2023-05-30T05:49:36.000Z</time>
      </trkpt>
      <trkpt lat="46.78915" lon="3.22745">
        <ele>220.80000305176</ele>
        <time>2023-05-30T05:49:45.000Z</time>
      </trkpt>
      <trkpt lat="46.78903" lon="3.22751">
        <ele>220.60000610352</ele>
        <time>2023-05-30T05:49:47.000Z</time>
      </trkpt>
      <trkpt lat="46.78886" lon="3.22762">
        <ele>220.39999389648</ele>
        <time>2023-05-30T05:49:50.000Z</time>
      </trkpt>
      <trkpt lat="46.78864" lon="3.2278">
        <ele>220.19999694824</ele>
        <time>2023-05-30T05:49:54.000Z</time>
      </trkpt>
      <trkpt lat="46.78835" lon="3.22806">
        <ele>219.39999389648</ele>
        <time>2023-05-30T05:49:59.000Z</time>
      </trkpt>
      <trkpt lat="46.78817" lon="3.22821">
        <ele>218.39999389648</ele>
        <time>2023-05-30T05:50:02.000Z</time>
      </trkpt>
      <trkpt lat="46.78811" lon="3.22826">
        <ele>218.39999389648</ele>
        <time>2023-05-30T05:50:03.000Z</time>
      </trkpt>
      <trkpt lat="46.78805" lon="3.2283">
        <ele>218.19999694824</ele>
        <time>2023-05-30T05:50:04.000Z</time>
      </trkpt>
      <trkpt lat="46.78778" lon="3.22854">
        <ele>217.80000305176</ele>
        <time>2023-05-30T05:50:09.000Z</time>
      </trkpt>
      <trkpt lat="46.78733" lon="3.22895">
        <ele>218</ele>
        <time>2023-05-30T05:50:18.000Z</time>
      </trkpt>
      <trkpt lat="46.78695" lon="3.22928">
        <ele>218.80000305176</ele>
        <time>2023-05-30T05:50:26.000Z</time>
      </trkpt>
      <trkpt lat="46.78686" lon="3.22936">
        <ele>219.39999389648</ele>
        <time>2023-05-30T05:50:28.000Z</time>
      </trkpt>
      <trkpt lat="46.78664" lon="3.22953">
        <ele>220.60000610352</ele>
        <time>2023-05-30T05:50:33.000Z</time>
      </trkpt>
      <trkpt lat="46.78642" lon="3.22965">
        <ele>222</ele>
        <time>2023-05-30T05:50:38.000Z</time>
      </trkpt>
      <trkpt lat="46.78637" lon="3.22966">
        <ele>222.19999694824</ele>
        <time>2023-05-30T05:50:39.000Z</time>
      </trkpt>
      <trkpt lat="46.78633" lon="3.22966">
        <ele>222.39999389648</ele>
        <time>2023-05-30T05:50:40.000Z</time>
      </trkpt>
      <trkpt lat="46.78619" lon="3.22968">
        <ele>223</ele>
        <time>2023-05-30T05:50:43.000Z</time>
      </trkpt>
      <trkpt lat="46.7861" lon="3.22969">
        <ele>223.39999389648</ele>
        <time>2023-05-30T05:50:45.000Z</time>
      </trkpt>
      <trkpt lat="46.786" lon="3.22969">
        <ele>223.39999389648</ele>
        <time>2023-05-30T05:50:47.000Z</time>
      </trkpt>
      <trkpt lat="46.78582" lon="3.22968">
        <ele>223</ele>
        <time>2023-05-30T05:50:53.000Z</time>
      </trkpt>
      <trkpt lat="46.78576" lon="3.22972">
        <ele>222.60000610352</ele>
        <time>2023-05-30T05:50:57.000Z</time>
      </trkpt>
      <trkpt lat="46.78568" lon="3.22995">
        <ele>222.19999694824</ele>
        <time>2023-05-30T05:51:01.000Z</time>
      </trkpt>
      <trkpt lat="46.78563" lon="3.2301">
        <ele>222</ele>
        <time>2023-05-30T05:51:03.000Z</time>
      </trkpt>
      <trkpt lat="46.78555" lon="3.23043">
        <ele>221.60000610352</ele>
        <time>2023-05-30T05:51:07.000Z</time>
      </trkpt>
      <trkpt lat="46.7854" lon="3.23096">
        <ele>221</ele>
        <time>2023-05-30T05:51:13.000Z</time>
      </trkpt>
      <trkpt lat="46.78526" lon="3.23144">
        <ele>220</ele>
        <time>2023-05-30T05:51:18.000Z</time>
      </trkpt>
      <trkpt lat="46.78512" lon="3.23195">
        <ele>219</ele>
        <time>2023-05-30T05:51:23.000Z</time>
      </trkpt>
      <trkpt lat="46.78509" lon="3.23206">
        <ele>218.60000610352</ele>
        <time>2023-05-30T05:51:24.000Z</time>
      </trkpt>
      <trkpt lat="46.78497" lon="3.23249">
        <ele>217.39999389648</ele>
        <time>2023-05-30T05:51:28.000Z</time>
      </trkpt>
      <trkpt lat="46.78488" lon="3.23282">
        <ele>216.39999389648</ele>
        <time>2023-05-30T05:51:31.000Z</time>
      </trkpt>
      <trkpt lat="46.78484" lon="3.23293">
        <ele>216.19999694824</ele>
        <time>2023-05-30T05:51:32.000Z</time>
      </trkpt>
      <trkpt lat="46.78475" lon="3.23327">
        <ele>215.39999389648</ele>
        <time>2023-05-30T05:51:35.000Z</time>
      </trkpt>
      <trkpt lat="46.78465" lon="3.23361">
        <ele>214.39999389648</ele>
        <time>2023-05-30T05:51:38.000Z</time>
      </trkpt>
      <trkpt lat="46.78462" lon="3.23372">
        <ele>213.80000305176</ele>
        <time>2023-05-30T05:51:39.000Z</time>
      </trkpt>
      <trkpt lat="46.78453" lon="3.23404">
        <ele>213</ele>
        <time>2023-05-30T05:51:42.000Z</time>
      </trkpt>
      <trkpt lat="46.7845" lon="3.23417">
        <ele>212.60000610352</ele>
        <time>2023-05-30T05:51:43.000Z</time>
      </trkpt>
      <trkpt lat="46.78432" lon="3.23479">
        <ele>211.60000610352</ele>
        <time>2023-05-30T05:51:49.000Z</time>
      </trkpt>
      <trkpt lat="46.78427" lon="3.23497">
        <ele>211.39999389648</ele>
        <time>2023-05-30T05:51:51.000Z</time>
      </trkpt>
      <trkpt lat="46.78406" lon="3.23573">
        <ele>211.19999694824</ele>
        <time>2023-05-30T05:51:59.000Z</time>
      </trkpt>
      <trkpt lat="46.78401" lon="3.2359">
        <ele>211.19999694824</ele>
        <time>2023-05-30T05:52:01.000Z</time>
      </trkpt>
      <trkpt lat="46.78382" lon="3.23656">
        <ele>211.39999389648</ele>
        <time>2023-05-30T05:52:09.000Z</time>
      </trkpt>
      <trkpt lat="46.7836" lon="3.23736">
        <ele>212.19999694824</ele>
        <time>2023-05-30T05:52:19.000Z</time>
      </trkpt>
      <trkpt lat="46.78355" lon="3.23752">
        <ele>212.39999389648</ele>
        <time>2023-05-30T05:52:21.000Z</time>
      </trkpt>
      <trkpt lat="46.78351" lon="3.23767">
        <ele>212.60000610352</ele>
        <time>2023-05-30T05:52:23.000Z</time>
      </trkpt>
      <trkpt lat="46.78329" lon="3.23844">
        <ele>213.39999389648</ele>
        <time>2023-05-30T05:52:33.000Z</time>
      </trkpt>
      <trkpt lat="46.78324" lon="3.23861">
        <ele>213.60000610352</ele>
        <time>2023-05-30T05:52:35.000Z</time>
      </trkpt>
      <trkpt lat="46.78302" lon="3.2394">
        <ele>214.39999389648</ele>
        <time>2023-05-30T05:52:45.000Z</time>
      </trkpt>
      <trkpt lat="46.78297" lon="3.23956">
        <ele>214.60000610352</ele>
        <time>2023-05-30T05:52:47.000Z</time>
      </trkpt>
      <trkpt lat="46.78295" lon="3.23963">
        <ele>214.60000610352</ele>
        <time>2023-05-30T05:52:48.000Z</time>
      </trkpt>
      <trkpt lat="46.78278" lon="3.24023">
        <ele>215.80000305176</ele>
        <time>2023-05-30T05:52:56.000Z</time>
      </trkpt>
      <trkpt lat="46.78276" lon="3.2403">
        <ele>215.80000305176</ele>
        <time>2023-05-30T05:52:57.000Z</time>
      </trkpt>
      <trkpt lat="46.78264" lon="3.24073">
        <ele>217</ele>
        <time>2023-05-30T05:53:03.000Z</time>
      </trkpt>
      <trkpt lat="46.78252" lon="3.24117">
        <ele>217.60000610352</ele>
        <time>2023-05-30T05:53:09.000Z</time>
      </trkpt>
      <trkpt lat="46.78243" lon="3.24147">
        <ele>218</ele>
        <time>2023-05-30T05:53:13.000Z</time>
      </trkpt>
      <trkpt lat="46.78225" lon="3.24213">
        <ele>219</ele>
        <time>2023-05-30T05:53:22.000Z</time>
      </trkpt>
      <trkpt lat="46.78223" lon="3.2422">
        <ele>219</ele>
        <time>2023-05-30T05:53:23.000Z</time>
      </trkpt>
      <trkpt lat="46.78202" lon="3.24294">
        <ele>220.19999694824</ele>
        <time>2023-05-30T05:53:33.000Z</time>
      </trkpt>
      <trkpt lat="46.78189" lon="3.24338">
        <ele>221.19999694824</ele>
        <time>2023-05-30T05:53:39.000Z</time>
      </trkpt>
      <trkpt lat="46.78179" lon="3.24374">
        <ele>221.60000610352</ele>
        <time>2023-05-30T05:53:44.000Z</time>
      </trkpt>
      <trkpt lat="46.78167" lon="3.24418">
        <ele>222.19999694824</ele>
        <time>2023-05-30T05:53:50.000Z</time>
      </trkpt>
      <trkpt lat="46.78155" lon="3.24464">
        <ele>222.60000610352</ele>
        <time>2023-05-30T05:53:56.000Z</time>
      </trkpt>
      <trkpt lat="46.78147" lon="3.24504">
        <ele>223.19999694824</ele>
        <time>2023-05-30T05:54:01.000Z</time>
      </trkpt>
      <trkpt lat="46.78143" lon="3.24528">
        <ele>223.39999389648</ele>
        <time>2023-05-30T05:54:04.000Z</time>
      </trkpt>
      <trkpt lat="46.78131" lon="3.24606">
        <ele>224</ele>
        <time>2023-05-30T05:54:13.000Z</time>
      </trkpt>
      <trkpt lat="46.78126" lon="3.2464">
        <ele>224</ele>
        <time>2023-05-30T05:54:17.000Z</time>
      </trkpt>
      <trkpt lat="46.78118" lon="3.24697">
        <ele>224.19999694824</ele>
        <time>2023-05-30T05:54:24.000Z</time>
      </trkpt>
      <trkpt lat="46.7811" lon="3.24746">
        <ele>224.60000610352</ele>
        <time>2023-05-30T05:54:30.000Z</time>
      </trkpt>
      <trkpt lat="46.78098" lon="3.24828">
        <ele>225.19999694824</ele>
        <time>2023-05-30T05:54:40.000Z</time>
      </trkpt>
      <trkpt lat="46.78096" lon="3.24844">
        <ele>225.19999694824</ele>
        <time>2023-05-30T05:54:42.000Z</time>
      </trkpt>
      <trkpt lat="46.78094" lon="3.2486">
        <ele>225.39999389648</ele>
        <time>2023-05-30T05:54:44.000Z</time>
      </trkpt>
      <trkpt lat="46.78085" lon="3.24916">
        <ele>226</ele>
        <time>2023-05-30T05:54:51.000Z</time>
      </trkpt>
      <trkpt lat="46.78079" lon="3.24957">
        <ele>226.60000610352</ele>
        <time>2023-05-30T05:54:56.000Z</time>
      </trkpt>
      <trkpt lat="46.78075" lon="3.2499">
        <ele>226.80000305176</ele>
        <time>2023-05-30T05:55:00.000Z</time>
      </trkpt>
      <trkpt lat="46.78062" lon="3.25073">
        <ele>227.19999694824</ele>
        <time>2023-05-30T05:55:10.000Z</time>
      </trkpt>
      <trkpt lat="46.78061" lon="3.25081">
        <ele>227.19999694824</ele>
        <time>2023-05-30T05:55:11.000Z</time>
      </trkpt>
      <trkpt lat="46.78052" lon="3.25145">
        <ele>227.60000610352</ele>
        <time>2023-05-30T05:55:19.000Z</time>
      </trkpt>
      <trkpt lat="46.78047" lon="3.2518">
        <ele>227.80000305176</ele>
        <time>2023-05-30T05:55:23.000Z</time>
      </trkpt>
      <trkpt lat="46.78045" lon="3.25188">
        <ele>228</ele>
        <time>2023-05-30T05:55:24.000Z</time>
      </trkpt>
      <trkpt lat="46.78033" lon="3.25269">
        <ele>228.39999389648</ele>
        <time>2023-05-30T05:55:34.000Z</time>
      </trkpt>
      <trkpt lat="46.78032" lon="3.25277">
        <ele>228.60000610352</ele>
        <time>2023-05-30T05:55:35.000Z</time>
      </trkpt>
      <trkpt lat="46.78029" lon="3.25293">
        <ele>228.80000305176</ele>
        <time>2023-05-30T05:55:37.000Z</time>
      </trkpt>
      <trkpt lat="46.78023" lon="3.25345">
        <ele>228.80000305176</ele>
        <time>2023-05-30T05:55:43.000Z</time>
      </trkpt>
      <trkpt lat="46.78012" lon="3.25429">
        <ele>229</ele>
        <time>2023-05-30T05:55:53.000Z</time>
      </trkpt>
      <trkpt lat="46.78" lon="3.25507">
        <ele>228.80000305176</ele>
        <time>2023-05-30T05:56:02.000Z</time>
      </trkpt>
      <trkpt lat="46.77989" lon="3.25578">
        <ele>228.19999694824</ele>
        <time>2023-05-30T05:56:10.000Z</time>
      </trkpt>
      <trkpt lat="46.77977" lon="3.2566">
        <ele>227.60000610352</ele>
        <time>2023-05-30T05:56:19.000Z</time>
      </trkpt>
      <trkpt lat="46.77976" lon="3.25669">
        <ele>227.60000610352</ele>
        <time>2023-05-30T05:56:20.000Z</time>
      </trkpt>
      <trkpt lat="46.77965" lon="3.25748">
        <ele>227.60000610352</ele>
        <time>2023-05-30T05:56:29.000Z</time>
      </trkpt>
      <trkpt lat="46.77954" lon="3.25811">
        <ele>227.39999389648</ele>
        <time>2023-05-30T05:56:36.000Z</time>
      </trkpt>
      <trkpt lat="46.77953" lon="3.2582">
        <ele>227.19999694824</ele>
        <time>2023-05-30T05:56:37.000Z</time>
      </trkpt>
      <trkpt lat="46.7794" lon="3.25904">
        <ele>226.39999389648</ele>
        <time>2023-05-30T05:56:46.000Z</time>
      </trkpt>
      <trkpt lat="46.77939" lon="3.25913">
        <ele>226.19999694824</ele>
        <time>2023-05-30T05:56:47.000Z</time>
      </trkpt>
      <trkpt lat="46.77927" lon="3.25992">
        <ele>226</ele>
        <time>2023-05-30T05:56:56.000Z</time>
      </trkpt>
      <trkpt lat="46.77917" lon="3.26053">
        <ele>227.19999694824</ele>
        <time>2023-05-30T05:57:04.000Z</time>
      </trkpt>
      <trkpt lat="46.77916" lon="3.2606">
        <ele>227.19999694824</ele>
        <time>2023-05-30T05:57:05.000Z</time>
      </trkpt>
      <trkpt lat="46.7791" lon="3.26102">
        <ele>228.60000610352</ele>
        <time>2023-05-30T05:57:11.000Z</time>
      </trkpt>
      <trkpt lat="46.77909" lon="3.26109">
        <ele>228.80000305176</ele>
        <time>2023-05-30T05:57:12.000Z</time>
      </trkpt>
      <trkpt lat="46.77904" lon="3.26142">
        <ele>229.60000610352</ele>
        <time>2023-05-30T05:57:17.000Z</time>
      </trkpt>
      <trkpt lat="46.77898" lon="3.26175">
        <ele>230.80000305176</ele>
        <time>2023-05-30T05:57:22.000Z</time>
      </trkpt>
      <trkpt lat="46.77897" lon="3.26182">
        <ele>231</ele>
        <time>2023-05-30T05:57:23.000Z</time>
      </trkpt>
      <trkpt lat="46.77893" lon="3.26222">
        <ele>232</ele>
        <time>2023-05-30T05:57:29.000Z</time>
      </trkpt>
      <trkpt lat="46.77888" lon="3.26249">
        <ele>232.80000305176</ele>
        <time>2023-05-30T05:57:33.000Z</time>
      </trkpt>
      <trkpt lat="46.77887" lon="3.26256">
        <ele>233</ele>
        <time>2023-05-30T05:57:34.000Z</time>
      </trkpt>
      <trkpt lat="46.77881" lon="3.26299">
        <ele>234.19999694824</ele>
        <time>2023-05-30T05:57:40.000Z</time>
      </trkpt>
      <trkpt lat="46.77879" lon="3.26314">
        <ele>234.60000610352</ele>
        <time>2023-05-30T05:57:42.000Z</time>
      </trkpt>
      <trkpt lat="46.77876" lon="3.26336">
        <ele>235.39999389648</ele>
        <time>2023-05-30T05:57:45.000Z</time>
      </trkpt>
      <trkpt lat="46.7787" lon="3.2638">
        <ele>236.39999389648</ele>
        <time>2023-05-30T05:57:51.000Z</time>
      </trkpt>
      <trkpt lat="46.77867" lon="3.26395">
        <ele>236.80000305176</ele>
        <time>2023-05-30T05:57:53.000Z</time>
      </trkpt>
      <trkpt lat="46.77859" lon="3.2645">
        <ele>237.39999389648</ele>
        <time>2023-05-30T05:58:00.000Z</time>
      </trkpt>
      <trkpt lat="46.77856" lon="3.26466">
        <ele>237.60000610352</ele>
        <time>2023-05-30T05:58:02.000Z</time>
      </trkpt>
      <trkpt lat="46.77848" lon="3.26515">
        <ele>237.80000305176</ele>
        <time>2023-05-30T05:58:08.000Z</time>
      </trkpt>
      <trkpt lat="46.77838" lon="3.26582">
        <ele>238</ele>
        <time>2023-05-30T05:58:16.000Z</time>
      </trkpt>
      <trkpt lat="46.77828" lon="3.26649">
        <ele>238</ele>
        <time>2023-05-30T05:58:24.000Z</time>
      </trkpt>
      <trkpt lat="46.77818" lon="3.26727">
        <ele>238.19999694824</ele>
        <time>2023-05-30T05:58:33.000Z</time>
      </trkpt>
      <trkpt lat="46.77816" lon="3.26736">
        <ele>238.19999694824</ele>
        <time>2023-05-30T05:58:34.000Z</time>
      </trkpt>
      <trkpt lat="46.77803" lon="3.26818">
        <ele>238</ele>
        <time>2023-05-30T05:58:43.000Z</time>
      </trkpt>
      <trkpt lat="46.778" lon="3.26837">
        <ele>237.80000305176</ele>
        <time>2023-05-30T05:58:45.000Z</time>
      </trkpt>
      <trkpt lat="46.77787" lon="3.26924">
        <ele>237.19999694824</ele>
        <time>2023-05-30T05:58:54.000Z</time>
      </trkpt>
      <trkpt lat="46.77775" lon="3.27004">
        <ele>236.60000610352</ele>
        <time>2023-05-30T05:59:02.000Z</time>
      </trkpt>
      <trkpt lat="46.77771" lon="3.27024">
        <ele>236.60000610352</ele>
        <time>2023-05-30T05:59:04.000Z</time>
      </trkpt>
      <trkpt lat="46.77762" lon="3.2709">
        <ele>236.60000610352</ele>
        <time>2023-05-30T05:59:11.000Z</time>
      </trkpt>
      <trkpt lat="46.77755" lon="3.27141">
        <ele>236.80000305176</ele>
        <time>2023-05-30T05:59:17.000Z</time>
      </trkpt>
      <trkpt lat="46.77744" lon="3.27206">
        <ele>238.19999694824</ele>
        <time>2023-05-30T05:59:25.000Z</time>
      </trkpt>
      <trkpt lat="46.77741" lon="3.27222">
        <ele>238.39999389648</ele>
        <time>2023-05-30T05:59:27.000Z</time>
      </trkpt>
      <trkpt lat="46.77734" lon="3.27271">
        <ele>239.19999694824</ele>
        <time>2023-05-30T05:59:33.000Z</time>
      </trkpt>
      <trkpt lat="46.77733" lon="3.27279">
        <ele>239.39999389648</ele>
        <time>2023-05-30T05:59:34.000Z</time>
      </trkpt>
      <trkpt lat="46.77724" lon="3.27343">
        <ele>240.19999694824</ele>
        <time>2023-05-30T05:59:42.000Z</time>
      </trkpt>
      <trkpt lat="46.77719" lon="3.27375">
        <ele>240.39999389648</ele>
        <time>2023-05-30T05:59:46.000Z</time>
      </trkpt>
      <trkpt lat="46.77711" lon="3.27423">
        <ele>241</ele>
        <time>2023-05-30T05:59:52.000Z</time>
      </trkpt>
      <trkpt lat="46.77707" lon="3.27447">
        <ele>241.39999389648</ele>
        <time>2023-05-30T05:59:55.000Z</time>
      </trkpt>
      <trkpt lat="46.77698" lon="3.27507">
        <ele>242.39999389648</ele>
        <time>2023-05-30T06:00:03.000Z</time>
      </trkpt>
      <trkpt lat="46.77696" lon="3.27524">
        <ele>242.60000610352</ele>
        <time>2023-05-30T06:00:05.000Z</time>
      </trkpt>
      <trkpt lat="46.77688" lon="3.2757">
        <ele>243.39999389648</ele>
        <time>2023-05-30T06:00:11.000Z</time>
      </trkpt>
      <trkpt lat="46.77683" lon="3.27602">
        <ele>243.60000610352</ele>
        <time>2023-05-30T06:00:15.000Z</time>
      </trkpt>
      <trkpt lat="46.77679" lon="3.27631">
        <ele>244</ele>
        <time>2023-05-30T06:00:19.000Z</time>
      </trkpt>
      <trkpt lat="46.77677" lon="3.27647">
        <ele>244.39999389648</ele>
        <time>2023-05-30T06:00:21.000Z</time>
      </trkpt>
      <trkpt lat="46.77668" lon="3.27697">
        <ele>244.60000610352</ele>
        <time>2023-05-30T06:00:27.000Z</time>
      </trkpt>
      <trkpt lat="46.77665" lon="3.27716">
        <ele>245</ele>
        <time>2023-05-30T06:00:29.000Z</time>
      </trkpt>
      <trkpt lat="46.77651" lon="3.278">
        <ele>245.19999694824</ele>
        <time>2023-05-30T06:00:39.000Z</time>
      </trkpt>
      <trkpt lat="46.77639" lon="3.27877">
        <ele>245.60000610352</ele>
        <time>2023-05-30T06:00:48.000Z</time>
      </trkpt>
      <trkpt lat="46.77637" lon="3.27885">
        <ele>245.60000610352</ele>
        <time>2023-05-30T06:00:49.000Z</time>
      </trkpt>
      <trkpt lat="46.77629" lon="3.27943">
        <ele>245.60000610352</ele>
        <time>2023-05-30T06:00:56.000Z</time>
      </trkpt>
      <trkpt lat="46.77623" lon="3.27976">
        <ele>245.80000305176</ele>
        <time>2023-05-30T06:01:00.000Z</time>
      </trkpt>
      <trkpt lat="46.77611" lon="3.28048">
        <ele>246.39999389648</ele>
        <time>2023-05-30T06:01:09.000Z</time>
      </trkpt>
      <trkpt lat="46.77606" lon="3.28071">
        <ele>246.60000610352</ele>
        <time>2023-05-30T06:01:12.000Z</time>
      </trkpt>
      <trkpt lat="46.776" lon="3.28083">
        <ele>246.60000610352</ele>
        <time>2023-05-30T06:01:14.000Z</time>
      </trkpt>
      <trkpt lat="46.77595" lon="3.28087">
        <ele>246.80000305176</ele>
        <time>2023-05-30T06:01:15.000Z</time>
      </trkpt>
      <trkpt lat="46.77575" lon="3.28097">
        <ele>247</ele>
        <time>2023-05-30T06:01:19.000Z</time>
      </trkpt>
      <trkpt lat="46.77555" lon="3.28106">
        <ele>248</ele>
        <time>2023-05-30T06:01:23.000Z</time>
      </trkpt>
      <trkpt lat="46.77535" lon="3.28116">
        <ele>248.80000305176</ele>
        <time>2023-05-30T06:01:27.000Z</time>
      </trkpt>
      <trkpt lat="46.77531" lon="3.28118">
        <ele>249</ele>
        <time>2023-05-30T06:01:28.000Z</time>
      </trkpt>
      <trkpt lat="46.77501" lon="3.28131">
        <ele>250</ele>
        <time>2023-05-30T06:01:34.000Z</time>
      </trkpt>
      <trkpt lat="46.77464" lon="3.28149">
        <ele>251.39999389648</ele>
        <time>2023-05-30T06:01:42.000Z</time>
      </trkpt>
      <trkpt lat="46.7744" lon="3.2816">
        <ele>252.39999389648</ele>
        <time>2023-05-30T06:01:47.000Z</time>
      </trkpt>
      <trkpt lat="46.77425" lon="3.28167">
        <ele>252.60000610352</ele>
        <time>2023-05-30T06:01:50.000Z</time>
      </trkpt>
      <trkpt lat="46.77391" lon="3.28184">
        <ele>253.39999389648</ele>
        <time>2023-05-30T06:01:57.000Z</time>
      </trkpt>
      <trkpt lat="46.77385" lon="3.28186">
        <ele>253.60000610352</ele>
        <time>2023-05-30T06:01:58.000Z</time>
      </trkpt>
      <trkpt lat="46.7733" lon="3.28212">
        <ele>254.39999389648</ele>
        <time>2023-05-30T06:02:09.000Z</time>
      </trkpt>
      <trkpt lat="46.77325" lon="3.28214">
        <ele>254.60000610352</ele>
        <time>2023-05-30T06:02:10.000Z</time>
      </trkpt>
      <trkpt lat="46.77283" lon="3.28234">
        <ele>255.19999694824</ele>
        <time>2023-05-30T06:02:18.000Z</time>
      </trkpt>
      <trkpt lat="46.77247" lon="3.28251">
        <ele>255.60000610352</ele>
        <time>2023-05-30T06:02:25.000Z</time>
      </trkpt>
      <trkpt lat="46.77237" lon="3.28256">
        <ele>255.60000610352</ele>
        <time>2023-05-30T06:02:27.000Z</time>
      </trkpt>
      <trkpt lat="46.77193" lon="3.28279">
        <ele>255.80000305176</ele>
        <time>2023-05-30T06:02:35.000Z</time>
      </trkpt>
      <trkpt lat="46.77149" lon="3.2831">
        <ele>255.80000305176</ele>
        <time>2023-05-30T06:02:43.000Z</time>
      </trkpt>
      <trkpt lat="46.77101" lon="3.28358">
        <ele>255.60000610352</ele>
        <time>2023-05-30T06:02:52.000Z</time>
      </trkpt>
      <trkpt lat="46.77059" lon="3.284">
        <ele>255.19999694824</ele>
        <time>2023-05-30T06:03:00.000Z</time>
      </trkpt>
      <trkpt lat="46.77011" lon="3.28449">
        <ele>254.60000610352</ele>
        <time>2023-05-30T06:03:09.000Z</time>
      </trkpt>
      <trkpt lat="46.76996" lon="3.28464">
        <ele>254.39999389648</ele>
        <time>2023-05-30T06:03:12.000Z</time>
      </trkpt>
      <trkpt lat="46.7699" lon="3.28469">
        <ele>254.39999389648</ele>
        <time>2023-05-30T06:03:13.000Z</time>
      </trkpt>
      <trkpt lat="46.76942" lon="3.28518">
        <ele>254.39999389648</ele>
        <time>2023-05-30T06:03:22.000Z</time>
      </trkpt>
      <trkpt lat="46.76927" lon="3.28534">
        <ele>254.39999389648</ele>
        <time>2023-05-30T06:03:25.000Z</time>
      </trkpt>
      <trkpt lat="46.7688" lon="3.28581">
        <ele>254.19999694824</ele>
        <time>2023-05-30T06:03:34.000Z</time>
      </trkpt>
      <trkpt lat="46.76832" lon="3.28628">
        <ele>253.80000305176</ele>
        <time>2023-05-30T06:03:43.000Z</time>
      </trkpt>
      <trkpt lat="46.76805" lon="3.28656">
        <ele>253.39999389648</ele>
        <time>2023-05-30T06:03:48.000Z</time>
      </trkpt>
      <trkpt lat="46.76784" lon="3.28677">
        <ele>253.19999694824</ele>
        <time>2023-05-30T06:03:52.000Z</time>
      </trkpt>
      <trkpt lat="46.76758" lon="3.28703">
        <ele>253</ele>
        <time>2023-05-30T06:03:57.000Z</time>
      </trkpt>
      <trkpt lat="46.76719" lon="3.2874">
        <ele>252.60000610352</ele>
        <time>2023-05-30T06:04:04.000Z</time>
      </trkpt>
      <trkpt lat="46.76698" lon="3.28761">
        <ele>252.19999694824</ele>
        <time>2023-05-30T06:04:08.000Z</time>
      </trkpt>
      <trkpt lat="46.76692" lon="3.28767">
        <ele>252.19999694824</ele>
        <time>2023-05-30T06:04:09.000Z</time>
      </trkpt>
      <trkpt lat="46.76686" lon="3.28773">
        <ele>252</ele>
        <time>2023-05-30T06:04:10.000Z</time>
      </trkpt>
      <trkpt lat="46.76646" lon="3.28812">
        <ele>251</ele>
        <time>2023-05-30T06:04:17.000Z</time>
      </trkpt>
      <trkpt lat="46.76635" lon="3.28824">
        <ele>251</ele>
        <time>2023-05-30T06:04:19.000Z</time>
      </trkpt>
      <trkpt lat="46.766" lon="3.28859">
        <ele>250</ele>
        <time>2023-05-30T06:04:25.000Z</time>
      </trkpt>
      <trkpt lat="46.76588" lon="3.28871">
        <ele>249.60000610352</ele>
        <time>2023-05-30T06:04:27.000Z</time>
      </trkpt>
      <trkpt lat="46.76565" lon="3.28895">
        <ele>249</ele>
        <time>2023-05-30T06:04:31.000Z</time>
      </trkpt>
      <trkpt lat="46.7653" lon="3.28932">
        <ele>247.80000305176</ele>
        <time>2023-05-30T06:04:37.000Z</time>
      </trkpt>
      <trkpt lat="46.76518" lon="3.28944">
        <ele>247.60000610352</ele>
        <time>2023-05-30T06:04:39.000Z</time>
      </trkpt>
      <trkpt lat="46.76483" lon="3.2898">
        <ele>247.19999694824</ele>
        <time>2023-05-30T06:04:45.000Z</time>
      </trkpt>
      <trkpt lat="46.76437" lon="3.29027">
        <ele>246.60000610352</ele>
        <time>2023-05-30T06:04:53.000Z</time>
      </trkpt>
      <trkpt lat="46.76414" lon="3.2905">
        <ele>246.19999694824</ele>
        <time>2023-05-30T06:04:57.000Z</time>
      </trkpt>
      <trkpt lat="46.76365" lon="3.291">
        <ele>246.19999694824</ele>
        <time>2023-05-30T06:05:06.000Z</time>
      </trkpt>
      <trkpt lat="46.76353" lon="3.29111">
        <ele>246.19999694824</ele>
        <time>2023-05-30T06:05:08.000Z</time>
      </trkpt>
      <trkpt lat="46.76303" lon="3.29161">
        <ele>246.39999389648</ele>
        <time>2023-05-30T06:05:17.000Z</time>
      </trkpt>
      <trkpt lat="46.76298" lon="3.29167">
        <ele>246.39999389648</ele>
        <time>2023-05-30T06:05:18.000Z</time>
      </trkpt>
      <trkpt lat="46.7625" lon="3.29215">
        <ele>246.80000305176</ele>
        <time>2023-05-30T06:05:27.000Z</time>
      </trkpt>
      <trkpt lat="46.7621" lon="3.29255">
        <ele>247</ele>
        <time>2023-05-30T06:05:35.000Z</time>
      </trkpt>
      <trkpt lat="46.76171" lon="3.29296">
        <ele>247.60000610352</ele>
        <time>2023-05-30T06:05:43.000Z</time>
      </trkpt>
      <trkpt lat="46.76166" lon="3.29301">
        <ele>247.60000610352</ele>
        <time>2023-05-30T06:05:44.000Z</time>
      </trkpt>
      <trkpt lat="46.76121" lon="3.29346">
        <ele>247.80000305176</ele>
        <time>2023-05-30T06:05:53.000Z</time>
      </trkpt>
      <trkpt lat="46.76116" lon="3.2935">
        <ele>248</ele>
        <time>2023-05-30T06:05:54.000Z</time>
      </trkpt>
      <trkpt lat="46.76068" lon="3.29399">
        <ele>248.39999389648</ele>
        <time>2023-05-30T06:06:04.000Z</time>
      </trkpt>
      <trkpt lat="46.76054" lon="3.29414">
        <ele>248.39999389648</ele>
        <time>2023-05-30T06:06:07.000Z</time>
      </trkpt>
      <trkpt lat="46.76044" lon="3.29424">
        <ele>248.60000610352</ele>
        <time>2023-05-30T06:06:09.000Z</time>
      </trkpt>
      <trkpt lat="46.76" lon="3.29468">
        <ele>248.80000305176</ele>
        <time>2023-05-30T06:06:18.000Z</time>
      </trkpt>
      <trkpt lat="46.75966" lon="3.29502">
        <ele>249</ele>
        <time>2023-05-30T06:06:25.000Z</time>
      </trkpt>
      <trkpt lat="46.75948" lon="3.29519">
        <ele>249.19999694824</ele>
        <time>2023-05-30T06:06:29.000Z</time>
      </trkpt>
      <trkpt lat="46.75938" lon="3.2953">
        <ele>249.19999694824</ele>
        <time>2023-05-30T06:06:31.000Z</time>
      </trkpt>
      <trkpt lat="46.75918" lon="3.2955">
        <ele>249.39999389648</ele>
        <time>2023-05-30T06:06:35.000Z</time>
      </trkpt>
      <trkpt lat="46.75904" lon="3.29565">
        <ele>249.39999389648</ele>
        <time>2023-05-30T06:06:38.000Z</time>
      </trkpt>
      <trkpt lat="46.75859" lon="3.29612">
        <ele>249.19999694824</ele>
        <time>2023-05-30T06:06:48.000Z</time>
      </trkpt>
      <trkpt lat="46.7584" lon="3.29631">
        <ele>249.60000610352</ele>
        <time>2023-05-30T06:06:52.000Z</time>
      </trkpt>
      <trkpt lat="46.75799" lon="3.29672">
        <ele>250.19999694824</ele>
        <time>2023-05-30T06:07:01.000Z</time>
      </trkpt>
      <trkpt lat="46.75782" lon="3.29689">
        <ele>250.60000610352</ele>
        <time>2023-05-30T06:07:05.000Z</time>
      </trkpt>
      <trkpt lat="46.75751" lon="3.2972">
        <ele>251</ele>
        <time>2023-05-30T06:07:12.000Z</time>
      </trkpt>
      <trkpt lat="46.75726" lon="3.29745">
        <ele>251.80000305176</ele>
        <time>2023-05-30T06:07:18.000Z</time>
      </trkpt>
      <trkpt lat="46.75701" lon="3.29771">
        <ele>252.60000610352</ele>
        <time>2023-05-30T06:07:24.000Z</time>
      </trkpt>
      <trkpt lat="46.75693" lon="3.29779">
        <ele>252.80000305176</ele>
        <time>2023-05-30T06:07:26.000Z</time>
      </trkpt>
      <trkpt lat="46.75656" lon="3.29817">
        <ele>253.80000305176</ele>
        <time>2023-05-30T06:07:35.000Z</time>
      </trkpt>
      <trkpt lat="46.75639" lon="3.29834">
        <ele>254.39999389648</ele>
        <time>2023-05-30T06:07:39.000Z</time>
      </trkpt>
      <trkpt lat="46.75622" lon="3.29852">
        <ele>254.80000305176</ele>
        <time>2023-05-30T06:07:43.000Z</time>
      </trkpt>
      <trkpt lat="46.75595" lon="3.29878">
        <ele>255.60000610352</ele>
        <time>2023-05-30T06:07:49.000Z</time>
      </trkpt>
      <trkpt lat="46.75582" lon="3.29891">
        <ele>255.80000305176</ele>
        <time>2023-05-30T06:07:52.000Z</time>
      </trkpt>
      <trkpt lat="46.75546" lon="3.29927">
        <ele>256.39999389648</ele>
        <time>2023-05-30T06:08:00.000Z</time>
      </trkpt>
      <trkpt lat="46.75517" lon="3.29955">
        <ele>256.60000610352</ele>
        <time>2023-05-30T06:08:06.000Z</time>
      </trkpt>
      <trkpt lat="46.75507" lon="3.29965">
        <ele>256.39999389648</ele>
        <time>2023-05-30T06:08:08.000Z</time>
      </trkpt>
      <trkpt lat="46.75466" lon="3.30006">
        <ele>256.20001220703</ele>
        <time>2023-05-30T06:08:16.000Z</time>
      </trkpt>
      <trkpt lat="46.75418" lon="3.30054">
        <ele>255.39999389648</ele>
        <time>2023-05-30T06:08:25.000Z</time>
      </trkpt>
      <trkpt lat="46.75372" lon="3.30102">
        <ele>255</ele>
        <time>2023-05-30T06:08:34.000Z</time>
      </trkpt>
      <trkpt lat="46.75361" lon="3.30113">
        <ele>255</ele>
        <time>2023-05-30T06:08:36.000Z</time>
      </trkpt>
      <trkpt lat="46.75346" lon="3.30128">
        <ele>254.80000305176</ele>
        <time>2023-05-30T06:08:39.000Z</time>
      </trkpt>
      <trkpt lat="46.75326" lon="3.30147">
        <ele>254.80000305176</ele>
        <time>2023-05-30T06:08:43.000Z</time>
      </trkpt>
      <trkpt lat="46.75281" lon="3.30193">
        <ele>254.80000305176</ele>
        <time>2023-05-30T06:08:52.000Z</time>
      </trkpt>
      <trkpt lat="46.7527" lon="3.30203">
        <ele>254.80000305176</ele>
        <time>2023-05-30T06:08:54.000Z</time>
      </trkpt>
      <trkpt lat="46.75223" lon="3.30251">
        <ele>254</ele>
        <time>2023-05-30T06:09:03.000Z</time>
      </trkpt>
      <trkpt lat="46.75192" lon="3.30285">
        <ele>253.80000305176</ele>
        <time>2023-05-30T06:09:09.000Z</time>
      </trkpt>
      <trkpt lat="46.75187" lon="3.3029">
        <ele>253.80000305176</ele>
        <time>2023-05-30T06:09:10.000Z</time>
      </trkpt>
      <trkpt lat="46.75142" lon="3.30335">
        <ele>253.19999694824</ele>
        <time>2023-05-30T06:09:18.000Z</time>
      </trkpt>
      <trkpt lat="46.75136" lon="3.3034">
        <ele>253</ele>
        <time>2023-05-30T06:09:19.000Z</time>
      </trkpt>
      <trkpt lat="46.75109" lon="3.30369">
        <ele>252.60000610352</ele>
        <time>2023-05-30T06:09:24.000Z</time>
      </trkpt>
      <trkpt lat="46.75087" lon="3.30391">
        <ele>252.19999694824</ele>
        <time>2023-05-30T06:09:28.000Z</time>
      </trkpt>
      <trkpt lat="46.75049" lon="3.30429">
        <ele>251.80000305176</ele>
        <time>2023-05-30T06:09:35.000Z</time>
      </trkpt>
      <trkpt lat="46.75039" lon="3.3044">
        <ele>251.39999389648</ele>
        <time>2023-05-30T06:09:37.000Z</time>
      </trkpt>
      <trkpt lat="46.75006" lon="3.30473">
        <ele>251</ele>
        <time>2023-05-30T06:09:43.000Z</time>
      </trkpt>
      <trkpt lat="46.74968" lon="3.3051">
        <ele>251</ele>
        <time>2023-05-30T06:09:50.000Z</time>
      </trkpt>
      <trkpt lat="46.74923" lon="3.30556">
        <ele>250.80000305176</ele>
        <time>2023-05-30T06:09:58.000Z</time>
      </trkpt>
      <trkpt lat="46.74896" lon="3.30584">
        <ele>250.39999389648</ele>
        <time>2023-05-30T06:10:03.000Z</time>
      </trkpt>
      <trkpt lat="46.74867" lon="3.30613">
        <ele>250</ele>
        <time>2023-05-30T06:10:08.000Z</time>
      </trkpt>
      <trkpt lat="46.74845" lon="3.30636">
        <ele>249.19999694824</ele>
        <time>2023-05-30T06:10:12.000Z</time>
      </trkpt>
      <trkpt lat="46.74799" lon="3.30683">
        <ele>248.19999694824</ele>
        <time>2023-05-30T06:10:20.000Z</time>
      </trkpt>
      <trkpt lat="46.74787" lon="3.30694">
        <ele>248</ele>
        <time>2023-05-30T06:10:22.000Z</time>
      </trkpt>
      <trkpt lat="46.74746" lon="3.30735">
        <ele>247</ele>
        <time>2023-05-30T06:10:29.000Z</time>
      </trkpt>
      <trkpt lat="46.7474" lon="3.30741">
        <ele>247</ele>
        <time>2023-05-30T06:10:30.000Z</time>
      </trkpt>
      <trkpt lat="46.74694" lon="3.30788">
        <ele>246</ele>
        <time>2023-05-30T06:10:38.000Z</time>
      </trkpt>
      <trkpt lat="46.74676" lon="3.30806">
        <ele>245.80000305176</ele>
        <time>2023-05-30T06:10:41.000Z</time>
      </trkpt>
      <trkpt lat="46.74643" lon="3.30843">
        <ele>245.39999389648</ele>
        <time>2023-05-30T06:10:47.000Z</time>
      </trkpt>
      <trkpt lat="46.74626" lon="3.30863">
        <ele>244.80000305176</ele>
        <time>2023-05-30T06:10:50.000Z</time>
      </trkpt>
      <trkpt lat="46.7459" lon="3.30911">
        <ele>244</ele>
        <time>2023-05-30T06:10:57.000Z</time>
      </trkpt>
      <trkpt lat="46.74574" lon="3.30932">
        <ele>243.80000305176</ele>
        <time>2023-05-30T06:11:00.000Z</time>
      </trkpt>
      <trkpt lat="46.74548" lon="3.30971">
        <ele>242.60000610352</ele>
        <time>2023-05-30T06:11:05.000Z</time>
      </trkpt>
      <trkpt lat="46.74543" lon="3.3098">
        <ele>242.39999389648</ele>
        <time>2023-05-30T06:11:06.000Z</time>
      </trkpt>
      <trkpt lat="46.74511" lon="3.31038">
        <ele>241.39999389648</ele>
        <time>2023-05-30T06:11:13.000Z</time>
      </trkpt>
      <trkpt lat="46.74501" lon="3.31055">
        <ele>241.19999694824</ele>
        <time>2023-05-30T06:11:15.000Z</time>
      </trkpt>
      <trkpt lat="46.74471" lon="3.31112">
        <ele>240.39999389648</ele>
        <time>2023-05-30T06:11:22.000Z</time>
      </trkpt>
      <trkpt lat="46.74456" lon="3.31146">
        <ele>239.80000305176</ele>
        <time>2023-05-30T06:11:26.000Z</time>
      </trkpt>
      <trkpt lat="46.74449" lon="3.31163">
        <ele>239.60000610352</ele>
        <time>2023-05-30T06:11:28.000Z</time>
      </trkpt>
      <trkpt lat="46.74441" lon="3.31181">
        <ele>239</ele>
        <time>2023-05-30T06:11:30.000Z</time>
      </trkpt>
      <trkpt lat="46.74423" lon="3.31226">
        <ele>238.39999389648</ele>
        <time>2023-05-30T06:11:35.000Z</time>
      </trkpt>
      <trkpt lat="46.74409" lon="3.31263">
        <ele>238</ele>
        <time>2023-05-30T06:11:39.000Z</time>
      </trkpt>
      <trkpt lat="46.744" lon="3.31292">
        <ele>237.19999694824</ele>
        <time>2023-05-30T06:11:42.000Z</time>
      </trkpt>
      <trkpt lat="46.74384" lon="3.31336">
        <ele>236.80000305176</ele>
        <time>2023-05-30T06:11:47.000Z</time>
      </trkpt>
      <trkpt lat="46.7437" lon="3.31372">
        <ele>236.80000305176</ele>
        <time>2023-05-30T06:11:51.000Z</time>
      </trkpt>
      <trkpt lat="46.74342" lon="3.31442">
        <ele>236.19999694824</ele>
        <time>2023-05-30T06:11:59.000Z</time>
      </trkpt>
      <trkpt lat="46.74339" lon="3.31451">
        <ele>236.19999694824</ele>
        <time>2023-05-30T06:12:00.000Z</time>
      </trkpt>
      <trkpt lat="46.74311" lon="3.31521">
        <ele>236</ele>
        <time>2023-05-30T06:12:08.000Z</time>
      </trkpt>
      <trkpt lat="46.74308" lon="3.3153">
        <ele>235.80000305176</ele>
        <time>2023-05-30T06:12:09.000Z</time>
      </trkpt>
      <trkpt lat="46.743" lon="3.31548">
        <ele>235.80000305176</ele>
        <time>2023-05-30T06:12:11.000Z</time>
      </trkpt>
      <trkpt lat="46.74275" lon="3.3161">
        <ele>235.39999389648</ele>
        <time>2023-05-30T06:12:18.000Z</time>
      </trkpt>
      <trkpt lat="46.74247" lon="3.3168">
        <ele>235.19999694824</ele>
        <time>2023-05-30T06:12:26.000Z</time>
      </trkpt>
      <trkpt lat="46.74234" lon="3.31713">
        <ele>235.19999694824</ele>
        <time>2023-05-30T06:12:30.000Z</time>
      </trkpt>
      <trkpt lat="46.74204" lon="3.31786">
        <ele>235.19999694824</ele>
        <time>2023-05-30T06:12:39.000Z</time>
      </trkpt>
      <trkpt lat="46.74198" lon="3.31802">
        <ele>235.19999694824</ele>
        <time>2023-05-30T06:12:41.000Z</time>
      </trkpt>
      <trkpt lat="46.74169" lon="3.31874">
        <ele>235.39999389648</ele>
        <time>2023-05-30T06:12:50.000Z</time>
      </trkpt>
      <trkpt lat="46.7414" lon="3.31946">
        <ele>235.39999389648</ele>
        <time>2023-05-30T06:12:59.000Z</time>
      </trkpt>
      <trkpt lat="46.74137" lon="3.31954">
        <ele>235.39999389648</ele>
        <time>2023-05-30T06:13:00.000Z</time>
      </trkpt>
      <trkpt lat="46.74131" lon="3.31968">
        <ele>235.39999389648</ele>
        <time>2023-05-30T06:13:02.000Z</time>
      </trkpt>
      <trkpt lat="46.74104" lon="3.32039">
        <ele>235</ele>
        <time>2023-05-30T06:13:10.000Z</time>
      </trkpt>
      <trkpt lat="46.74099" lon="3.32054">
        <ele>234.80000305176</ele>
        <time>2023-05-30T06:13:12.000Z</time>
      </trkpt>
      <trkpt lat="46.74072" lon="3.32123">
        <ele>234.19999694824</ele>
        <time>2023-05-30T06:13:20.000Z</time>
      </trkpt>
      <trkpt lat="46.74065" lon="3.3214">
        <ele>234</ele>
        <time>2023-05-30T06:13:22.000Z</time>
      </trkpt>
      <trkpt lat="46.74062" lon="3.32148">
        <ele>234</ele>
        <time>2023-05-30T06:13:23.000Z</time>
      </trkpt>
      <trkpt lat="46.74033" lon="3.32221">
        <ele>233.60000610352</ele>
        <time>2023-05-30T06:13:32.000Z</time>
      </trkpt>
      <trkpt lat="46.74025" lon="3.32239">
        <ele>233.60000610352</ele>
        <time>2023-05-30T06:13:34.000Z</time>
      </trkpt>
      <trkpt lat="46.73994" lon="3.32304">
        <ele>233</ele>
        <time>2023-05-30T06:13:42.000Z</time>
      </trkpt>
      <trkpt lat="46.73985" lon="3.32322">
        <ele>232.80000305176</ele>
        <time>2023-05-30T06:13:44.000Z</time>
      </trkpt>
      <trkpt lat="46.73951" lon="3.32383">
        <ele>232.60000610352</ele>
        <time>2023-05-30T06:13:52.000Z</time>
      </trkpt>
      <trkpt lat="46.73941" lon="3.324">
        <ele>232.60000610352</ele>
        <time>2023-05-30T06:13:54.000Z</time>
      </trkpt>
      <trkpt lat="46.73902" lon="3.32459">
        <ele>232.80000305176</ele>
        <time>2023-05-30T06:14:02.000Z</time>
      </trkpt>
      <trkpt lat="46.73887" lon="3.3248">
        <ele>232.39999389648</ele>
        <time>2023-05-30T06:14:05.000Z</time>
      </trkpt>
      <trkpt lat="46.73882" lon="3.32486">
        <ele>232.39999389648</ele>
        <time>2023-05-30T06:14:06.000Z</time>
      </trkpt>
      <trkpt lat="46.73854" lon="3.3252">
        <ele>231.60000610352</ele>
        <time>2023-05-30T06:14:11.000Z</time>
      </trkpt>
      <trkpt lat="46.73842" lon="3.32533">
        <ele>231.39999389648</ele>
        <time>2023-05-30T06:14:13.000Z</time>
      </trkpt>
      <trkpt lat="46.73798" lon="3.32583">
        <ele>231</ele>
        <time>2023-05-30T06:14:21.000Z</time>
      </trkpt>
      <trkpt lat="46.73775" lon="3.32606">
        <ele>231</ele>
        <time>2023-05-30T06:14:25.000Z</time>
      </trkpt>
      <trkpt lat="46.73735" lon="3.32643">
        <ele>230.60000610352</ele>
        <time>2023-05-30T06:14:32.000Z</time>
      </trkpt>
      <trkpt lat="46.73699" lon="3.32674">
        <ele>230.19999694824</ele>
        <time>2023-05-30T06:14:38.000Z</time>
      </trkpt>
      <trkpt lat="46.7366" lon="3.32708">
        <ele>230</ele>
        <time>2023-05-30T06:14:45.000Z</time>
      </trkpt>
      <trkpt lat="46.73637" lon="3.32729">
        <ele>229.60000610352</ele>
        <time>2023-05-30T06:14:49.000Z</time>
      </trkpt>
      <trkpt lat="46.73598" lon="3.32763">
        <ele>228</ele>
        <time>2023-05-30T06:14:55.000Z</time>
      </trkpt>
      <trkpt lat="46.73568" lon="3.32788">
        <ele>226.80000305176</ele>
        <time>2023-05-30T06:14:59.000Z</time>
      </trkpt>
      <trkpt lat="46.73546" lon="3.32808">
        <ele>226</ele>
        <time>2023-05-30T06:15:02.000Z</time>
      </trkpt>
      <trkpt lat="46.73538" lon="3.32815">
        <ele>225.80000305176</ele>
        <time>2023-05-30T06:15:03.000Z</time>
      </trkpt>
      <trkpt lat="46.73515" lon="3.32836">
        <ele>224.39999389648</ele>
        <time>2023-05-30T06:15:06.000Z</time>
      </trkpt>
      <trkpt lat="46.73491" lon="3.32857">
        <ele>222.80000305176</ele>
        <time>2023-05-30T06:15:09.000Z</time>
      </trkpt>
      <trkpt lat="46.73467" lon="3.32878">
        <ele>221.60000610352</ele>
        <time>2023-05-30T06:15:12.000Z</time>
      </trkpt>
      <trkpt lat="46.73436" lon="3.32906">
        <ele>220.39999389648</ele>
        <time>2023-05-30T06:15:16.000Z</time>
      </trkpt>
      <trkpt lat="46.73416" lon="3.32923">
        <ele>219.60000610352</ele>
        <time>2023-05-30T06:15:19.000Z</time>
      </trkpt>
      <trkpt lat="46.73403" lon="3.32934">
        <ele>219.39999389648</ele>
        <time>2023-05-30T06:15:21.000Z</time>
      </trkpt>
      <trkpt lat="46.73374" lon="3.32959">
        <ele>219.39999389648</ele>
        <time>2023-05-30T06:15:26.000Z</time>
      </trkpt>
      <trkpt lat="46.73339" lon="3.3299">
        <ele>220.60000610352</ele>
        <time>2023-05-30T06:15:33.000Z</time>
      </trkpt>
      <trkpt lat="46.7333" lon="3.32997">
        <ele>221</ele>
        <time>2023-05-30T06:15:35.000Z</time>
      </trkpt>
      <trkpt lat="46.73316" lon="3.3301">
        <ele>221.60000610352</ele>
        <time>2023-05-30T06:15:38.000Z</time>
      </trkpt>
      <trkpt lat="46.73307" lon="3.33017">
        <ele>222</ele>
        <time>2023-05-30T06:15:40.000Z</time>
      </trkpt>
      <trkpt lat="46.73298" lon="3.33026">
        <ele>222.39999389648</ele>
        <time>2023-05-30T06:15:42.000Z</time>
      </trkpt>
      <trkpt lat="46.73288" lon="3.33034">
        <ele>222.60000610352</ele>
        <time>2023-05-30T06:15:44.000Z</time>
      </trkpt>
      <trkpt lat="46.73274" lon="3.33047">
        <ele>223.19999694824</ele>
        <time>2023-05-30T06:15:47.000Z</time>
      </trkpt>
      <trkpt lat="46.7326" lon="3.3306">
        <ele>223.80000305176</ele>
        <time>2023-05-30T06:15:50.000Z</time>
      </trkpt>
      <trkpt lat="46.7322" lon="3.33095">
        <ele>224.19999694824</ele>
        <time>2023-05-30T06:15:58.000Z</time>
      </trkpt>
      <trkpt lat="46.7317" lon="3.3314">
        <ele>223.39999389648</ele>
        <time>2023-05-30T06:16:07.000Z</time>
      </trkpt>
      <trkpt lat="46.73131" lon="3.33175">
        <ele>222.60000610352</ele>
        <time>2023-05-30T06:16:14.000Z</time>
      </trkpt>
      <trkpt lat="46.73105" lon="3.33198">
        <ele>222</ele>
        <time>2023-05-30T06:16:19.000Z</time>
      </trkpt>
      <trkpt lat="46.73083" lon="3.33216">
        <ele>221.60000610352</ele>
        <time>2023-05-30T06:16:23.000Z</time>
      </trkpt>
      <trkpt lat="46.7304" lon="3.33255">
        <ele>221.39999389648</ele>
        <time>2023-05-30T06:16:31.000Z</time>
      </trkpt>
      <trkpt lat="46.72996" lon="3.33294">
        <ele>220.60000610352</ele>
        <time>2023-05-30T06:16:39.000Z</time>
      </trkpt>
      <trkpt lat="46.72972" lon="3.33315">
        <ele>220.39999389648</ele>
        <time>2023-05-30T06:16:43.000Z</time>
      </trkpt>
      <trkpt lat="46.72937" lon="3.33346">
        <ele>219.80000305176</ele>
        <time>2023-05-30T06:16:49.000Z</time>
      </trkpt>
      <trkpt lat="46.72925" lon="3.33357">
        <ele>219.60000610352</ele>
        <time>2023-05-30T06:16:51.000Z</time>
      </trkpt>
      <trkpt lat="46.72907" lon="3.33373">
        <ele>219.19999694824</ele>
        <time>2023-05-30T06:16:54.000Z</time>
      </trkpt>
      <trkpt lat="46.72864" lon="3.3341">
        <ele>218.60000610352</ele>
        <time>2023-05-30T06:17:01.000Z</time>
      </trkpt>
      <trkpt lat="46.72839" lon="3.33432">
        <ele>218</ele>
        <time>2023-05-30T06:17:05.000Z</time>
      </trkpt>
      <trkpt lat="46.72801" lon="3.33465">
        <ele>217.39999389648</ele>
        <time>2023-05-30T06:17:11.000Z</time>
      </trkpt>
      <trkpt lat="46.72784" lon="3.33481">
        <ele>217.60000610352</ele>
        <time>2023-05-30T06:17:14.000Z</time>
      </trkpt>
      <trkpt lat="46.72745" lon="3.33515">
        <ele>217.60000610352</ele>
        <time>2023-05-30T06:17:21.000Z</time>
      </trkpt>
      <trkpt lat="46.72716" lon="3.33542">
        <ele>218.19999694824</ele>
        <time>2023-05-30T06:17:27.000Z</time>
      </trkpt>
      <trkpt lat="46.72687" lon="3.33567">
        <ele>218.60000610352</ele>
        <time>2023-05-30T06:17:33.000Z</time>
      </trkpt>
      <trkpt lat="46.72672" lon="3.3358">
        <ele>219</ele>
        <time>2023-05-30T06:17:36.000Z</time>
      </trkpt>
      <trkpt lat="46.72649" lon="3.336">
        <ele>219.60000610352</ele>
        <time>2023-05-30T06:17:41.000Z</time>
      </trkpt>
      <trkpt lat="46.72628" lon="3.33619">
        <ele>220.39999389648</ele>
        <time>2023-05-30T06:17:46.000Z</time>
      </trkpt>
      <trkpt lat="46.72623" lon="3.33623">
        <ele>220.80000305176</ele>
        <time>2023-05-30T06:17:47.000Z</time>
      </trkpt>
      <trkpt lat="46.72589" lon="3.33653">
        <ele>222</ele>
        <time>2023-05-30T06:17:55.000Z</time>
      </trkpt>
      <trkpt lat="46.72585" lon="3.33657">
        <ele>222.19999694824</ele>
        <time>2023-05-30T06:17:56.000Z</time>
      </trkpt>
      <trkpt lat="46.7256" lon="3.3368">
        <ele>223.39999389648</ele>
        <time>2023-05-30T06:18:02.000Z</time>
      </trkpt>
      <trkpt lat="46.72552" lon="3.33687">
        <ele>224</ele>
        <time>2023-05-30T06:18:04.000Z</time>
      </trkpt>
      <trkpt lat="46.7254" lon="3.33697">
        <ele>224.80000305176</ele>
        <time>2023-05-30T06:18:07.000Z</time>
      </trkpt>
      <trkpt lat="46.72515" lon="3.33721">
        <ele>226</ele>
        <time>2023-05-30T06:18:13.000Z</time>
      </trkpt>
      <trkpt lat="46.72485" lon="3.33747">
        <ele>227</ele>
        <time>2023-05-30T06:18:20.000Z</time>
      </trkpt>
      <trkpt lat="46.72472" lon="3.33758">
        <ele>227.60000610352</ele>
        <time>2023-05-30T06:18:23.000Z</time>
      </trkpt>
      <trkpt lat="46.72463" lon="3.33766">
        <ele>228.39999389648</ele>
        <time>2023-05-30T06:18:25.000Z</time>
      </trkpt>
      <trkpt lat="46.72437" lon="3.33791">
        <ele>229.60000610352</ele>
        <time>2023-05-30T06:18:31.000Z</time>
      </trkpt>
      <trkpt lat="46.72402" lon="3.33823">
        <ele>230.60000610352</ele>
        <time>2023-05-30T06:18:39.000Z</time>
      </trkpt>
      <trkpt lat="46.72388" lon="3.33834">
        <ele>231</ele>
        <time>2023-05-30T06:18:42.000Z</time>
      </trkpt>
      <trkpt lat="46.72365" lon="3.33854">
        <ele>232</ele>
        <time>2023-05-30T06:18:47.000Z</time>
      </trkpt>
      <trkpt lat="46.72341" lon="3.33873">
        <ele>232.60000610352</ele>
        <time>2023-05-30T06:18:52.000Z</time>
      </trkpt>
      <trkpt lat="46.72288" lon="3.33913">
        <ele>232.39999389648</ele>
        <time>2023-05-30T06:19:02.000Z</time>
      </trkpt>
      <trkpt lat="46.72258" lon="3.33935">
        <ele>231.80000305176</ele>
        <time>2023-05-30T06:19:07.000Z</time>
      </trkpt>
      <trkpt lat="46.72232" lon="3.33955">
        <ele>230.80000305176</ele>
        <time>2023-05-30T06:19:11.000Z</time>
      </trkpt>
      <trkpt lat="46.72212" lon="3.3397">
        <ele>230.19999694824</ele>
        <time>2023-05-30T06:19:14.000Z</time>
      </trkpt>
      <trkpt lat="46.72199" lon="3.3398">
        <ele>229.80000305176</ele>
        <time>2023-05-30T06:19:16.000Z</time>
      </trkpt>
      <trkpt lat="46.72157" lon="3.34011">
        <ele>228.80000305176</ele>
        <time>2023-05-30T06:19:22.000Z</time>
      </trkpt>
      <trkpt lat="46.7215" lon="3.34016">
        <ele>228.60000610352</ele>
        <time>2023-05-30T06:19:23.000Z</time>
      </trkpt>
      <trkpt lat="46.72114" lon="3.34043">
        <ele>227.60000610352</ele>
        <time>2023-05-30T06:19:28.000Z</time>
      </trkpt>
      <trkpt lat="46.72086" lon="3.34064">
        <ele>226.19999694824</ele>
        <time>2023-05-30T06:19:32.000Z</time>
      </trkpt>
      <trkpt lat="46.72037" lon="3.34101">
        <ele>225.19999694824</ele>
        <time>2023-05-30T06:19:39.000Z</time>
      </trkpt>
      <trkpt lat="46.72017" lon="3.34116">
        <ele>224.60000610352</ele>
        <time>2023-05-30T06:19:42.000Z</time>
      </trkpt>
      <trkpt lat="46.71977" lon="3.34146">
        <ele>224.19999694824</ele>
        <time>2023-05-30T06:19:48.000Z</time>
      </trkpt>
      <trkpt lat="46.71951" lon="3.34165">
        <ele>223.39999389648</ele>
        <time>2023-05-30T06:19:52.000Z</time>
      </trkpt>
      <trkpt lat="46.71939" lon="3.34175">
        <ele>223.19999694824</ele>
        <time>2023-05-30T06:19:54.000Z</time>
      </trkpt>
      <trkpt lat="46.71895" lon="3.34208">
        <ele>222.80000305176</ele>
        <time>2023-05-30T06:20:01.000Z</time>
      </trkpt>
      <trkpt lat="46.71851" lon="3.34241">
        <ele>222</ele>
        <time>2023-05-30T06:20:08.000Z</time>
      </trkpt>
      <trkpt lat="46.71845" lon="3.34246">
        <ele>222</ele>
        <time>2023-05-30T06:20:09.000Z</time>
      </trkpt>
      <trkpt lat="46.71797" lon="3.34281">
        <ele>222</ele>
        <time>2023-05-30T06:20:17.000Z</time>
      </trkpt>
      <trkpt lat="46.71749" lon="3.34318">
        <ele>222</ele>
        <time>2023-05-30T06:20:25.000Z</time>
      </trkpt>
      <trkpt lat="46.717" lon="3.34354">
        <ele>221.60000610352</ele>
        <time>2023-05-30T06:20:33.000Z</time>
      </trkpt>
      <trkpt lat="46.71694" lon="3.34359">
        <ele>221.60000610352</ele>
        <time>2023-05-30T06:20:34.000Z</time>
      </trkpt>
      <trkpt lat="46.71646" lon="3.34394">
        <ele>221.19999694824</ele>
        <time>2023-05-30T06:20:42.000Z</time>
      </trkpt>
      <trkpt lat="46.71634" lon="3.34403">
        <ele>221.39999389648</ele>
        <time>2023-05-30T06:20:44.000Z</time>
      </trkpt>
      <trkpt lat="46.71585" lon="3.3444">
        <ele>221.60000610352</ele>
        <time>2023-05-30T06:20:52.000Z</time>
      </trkpt>
      <trkpt lat="46.71536" lon="3.34476">
        <ele>221.39999389648</ele>
        <time>2023-05-30T06:21:00.000Z</time>
      </trkpt>
      <trkpt lat="46.71497" lon="3.34506">
        <ele>221.39999389648</ele>
        <time>2023-05-30T06:21:07.000Z</time>
      </trkpt>
      <trkpt lat="46.71456" lon="3.34536">
        <ele>221.19999694824</ele>
        <time>2023-05-30T06:21:14.000Z</time>
      </trkpt>
      <trkpt lat="46.71451" lon="3.3454">
        <ele>221.19999694824</ele>
        <time>2023-05-30T06:21:15.000Z</time>
      </trkpt>
      <trkpt lat="46.71422" lon="3.34559">
        <ele>221</ele>
        <time>2023-05-30T06:21:21.000Z</time>
      </trkpt>
      <trkpt lat="46.71415" lon="3.34562">
        <ele>221</ele>
        <time>2023-05-30T06:21:24.000Z</time>
      </trkpt>
      <trkpt lat="46.71412" lon="3.34568">
        <ele>220.80000305176</ele>
        <time>2023-05-30T06:21:26.000Z</time>
      </trkpt>
      <trkpt lat="46.71412" lon="3.34575">
        <ele>220.80000305176</ele>
        <time>2023-05-30T06:21:28.000Z</time>
      </trkpt>
      <trkpt lat="46.71412" lon="3.34592">
        <ele>220.80000305176</ele>
        <time>2023-05-30T06:21:31.000Z</time>
      </trkpt>
      <trkpt lat="46.71413" lon="3.346">
        <ele>220.60000610352</ele>
        <time>2023-05-30T06:21:32.000Z</time>
      </trkpt>
      <trkpt lat="46.71415" lon="3.34623">
        <ele>220.60000610352</ele>
        <time>2023-05-30T06:21:34.000Z</time>
      </trkpt>
      <trkpt lat="46.71425" lon="3.34685">
        <ele>220.19999694824</ele>
        <time>2023-05-30T06:21:40.000Z</time>
      </trkpt>
      <trkpt lat="46.71426" lon="3.34696">
        <ele>220.19999694824</ele>
        <time>2023-05-30T06:21:41.000Z</time>
      </trkpt>
      <trkpt lat="46.71432" lon="3.34748">
        <ele>219.39999389648</ele>
        <time>2023-05-30T06:21:46.000Z</time>
      </trkpt>
      <trkpt lat="46.71434" lon="3.34758">
        <ele>219.19999694824</ele>
        <time>2023-05-30T06:21:47.000Z</time>
      </trkpt>
      <trkpt lat="46.71443" lon="3.34803">
        <ele>218.80000305176</ele>
        <time>2023-05-30T06:21:51.000Z</time>
      </trkpt>
      <trkpt lat="46.71451" lon="3.3487">
        <ele>218.39999389648</ele>
        <time>2023-05-30T06:21:57.000Z</time>
      </trkpt>
      <trkpt lat="46.71456" lon="3.34901">
        <ele>218.19999694824</ele>
        <time>2023-05-30T06:22:00.000Z</time>
      </trkpt>
      <trkpt lat="46.71457" lon="3.34911">
        <ele>218</ele>
        <time>2023-05-30T06:22:01.000Z</time>
      </trkpt>
      <trkpt lat="46.71461" lon="3.34939">
        <ele>217.80000305176</ele>
        <time>2023-05-30T06:22:04.000Z</time>
      </trkpt>
      <trkpt lat="46.71472" lon="3.35016">
        <ele>217</ele>
        <time>2023-05-30T06:22:12.000Z</time>
      </trkpt>
      <trkpt lat="46.71475" lon="3.35073">
        <ele>216.80000305176</ele>
        <time>2023-05-30T06:22:18.000Z</time>
      </trkpt>
      <trkpt lat="46.71475" lon="3.35094">
        <ele>216.80000305176</ele>
        <time>2023-05-30T06:22:20.000Z</time>
      </trkpt>
      <trkpt lat="46.71475" lon="3.35159">
        <ele>216.19999694824</ele>
        <time>2023-05-30T06:22:27.000Z</time>
      </trkpt>
      <trkpt lat="46.71476" lon="3.35166">
        <ele>216.19999694824</ele>
        <time>2023-05-30T06:22:28.000Z</time>
      </trkpt>
      <trkpt lat="46.71479" lon="3.35173">
        <ele>216.19999694824</ele>
        <time>2023-05-30T06:22:29.000Z</time>
      </trkpt>
      <trkpt lat="46.7149" lon="3.35194">
        <ele>216.60000610352</ele>
        <time>2023-05-30T06:22:32.000Z</time>
      </trkpt>
      <trkpt lat="46.71497" lon="3.35208">
        <ele>216.60000610352</ele>
        <time>2023-05-30T06:22:34.000Z</time>
      </trkpt>
      <trkpt lat="46.715" lon="3.3522">
        <ele>217</ele>
        <time>2023-05-30T06:22:36.000Z</time>
      </trkpt>
      <trkpt lat="46.71502" lon="3.35254">
        <ele>217.60000610352</ele>
        <time>2023-05-30T06:22:40.000Z</time>
      </trkpt>
      <trkpt lat="46.71509" lon="3.35266">
        <ele>217.60000610352</ele>
        <time>2023-05-30T06:22:42.000Z</time>
      </trkpt>
      <trkpt lat="46.71513" lon="3.35268">
        <ele>217.80000305176</ele>
        <time>2023-05-30T06:22:43.000Z</time>
      </trkpt>
      <trkpt lat="46.71519" lon="3.35268">
        <ele>218</ele>
        <time>2023-05-30T06:22:44.000Z</time>
      </trkpt>
      <trkpt lat="46.71526" lon="3.35268">
        <ele>218.19999694824</ele>
        <time>2023-05-30T06:22:45.000Z</time>
      </trkpt>
      <trkpt lat="46.71535" lon="3.35266">
        <ele>218.39999389648</ele>
        <time>2023-05-30T06:22:47.000Z</time>
      </trkpt>
      <trkpt lat="46.71552" lon="3.35264">
        <ele>218.60000610352</ele>
        <time>2023-05-30T06:22:50.000Z</time>
      </trkpt>
      <trkpt lat="46.71566" lon="3.35258">
        <ele>218.60000610352</ele>
        <time>2023-05-30T06:22:53.000Z</time>
      </trkpt>
      <trkpt lat="46.71577" lon="3.35247">
        <ele>218.60000610352</ele>
        <time>2023-05-30T06:22:56.000Z</time>
      </trkpt>
      <trkpt lat="46.71582" lon="3.35242">
        <ele>218.60000610352</ele>
        <time>2023-05-30T06:22:58.000Z</time>
      </trkpt>
      <trkpt lat="46.7159" lon="3.35237">
        <ele>218.39999389648</ele>
        <time>2023-05-30T06:23:02.000Z</time>
      </trkpt>
      <trkpt lat="46.71592" lon="3.35236">
        <ele>218.19999694824</ele>
        <time>2023-05-30T06:23:07.000Z</time>
      </trkpt>
      <trkpt lat="46.71592" lon="3.35236">
        <ele>218.19999694824</ele>
        <time>2023-05-30T06:23:08.000Z</time>
      </trkpt>
      <trkpt lat="46.71584" lon="3.35234">
        <ele>218</ele>
        <time>2023-05-30T06:28:36.000Z</time>
      </trkpt>
      <trkpt lat="46.71577" lon="3.35231">
        <ele>218</ele>
        <time>2023-05-30T06:28:38.000Z</time>
      </trkpt>
      <trkpt lat="46.71559" lon="3.35222">
        <ele>218.19999694824</ele>
        <time>2023-05-30T06:28:43.000Z</time>
      </trkpt>
      <trkpt lat="46.71556" lon="3.3522">
        <ele>218.19999694824</ele>
        <time>2023-05-30T06:28:44.000Z</time>
      </trkpt>
      <trkpt lat="46.71541" lon="3.35215">
        <ele>218.19999694824</ele>
        <time>2023-05-30T06:28:47.000Z</time>
      </trkpt>
      <trkpt lat="46.71523" lon="3.35208">
        <ele>218</ele>
        <time>2023-05-30T06:28:51.000Z</time>
      </trkpt>
      <trkpt lat="46.71518" lon="3.35207">
        <ele>217.80000305176</ele>
        <time>2023-05-30T06:28:52.000Z</time>
      </trkpt>
      <trkpt lat="46.71509" lon="3.35211">
        <ele>217.80000305176</ele>
        <time>2023-05-30T06:28:54.000Z</time>
      </trkpt>
      <trkpt lat="46.71505" lon="3.35224">
        <ele>217.80000305176</ele>
        <time>2023-05-30T06:28:56.000Z</time>
      </trkpt>
      <trkpt lat="46.71504" lon="3.35232">
        <ele>217.60000610352</ele>
        <time>2023-05-30T06:28:57.000Z</time>
      </trkpt>
      <trkpt lat="46.71503" lon="3.35239">
        <ele>217.60000610352</ele>
        <time>2023-05-30T06:28:58.000Z</time>
      </trkpt>
      <trkpt lat="46.71505" lon="3.35253">
        <ele>217.80000305176</ele>
        <time>2023-05-30T06:29:00.000Z</time>
      </trkpt>
      <trkpt lat="46.71508" lon="3.35259">
        <ele>217.80000305176</ele>
        <time>2023-05-30T06:29:01.000Z</time>
      </trkpt>
      <trkpt lat="46.71511" lon="3.35263">
        <ele>217.80000305176</ele>
        <time>2023-05-30T06:29:02.000Z</time>
      </trkpt>
      <trkpt lat="46.7152" lon="3.35265">
        <ele>218</ele>
        <time>2023-05-30T06:29:04.000Z</time>
      </trkpt>
      <trkpt lat="46.7154" lon="3.35262">
        <ele>218.60000610352</ele>
        <time>2023-05-30T06:29:09.000Z</time>
      </trkpt>
      <trkpt lat="46.71543" lon="3.35267">
        <ele>218.60000610352</ele>
        <time>2023-05-30T06:29:10.000Z</time>
      </trkpt>
      <trkpt lat="46.71545" lon="3.35289">
        <ele>218.60000610352</ele>
        <time>2023-05-30T06:29:14.000Z</time>
      </trkpt>
      <trkpt lat="46.71547" lon="3.35331">
        <ele>218.60000610352</ele>
        <time>2023-05-30T06:29:20.000Z</time>
      </trkpt>
      <trkpt lat="46.71547" lon="3.35337">
        <ele>218.60000610352</ele>
        <time>2023-05-30T06:29:21.000Z</time>
      </trkpt>
      <trkpt lat="46.71549" lon="3.35361">
        <ele>218.60000610352</ele>
        <time>2023-05-30T06:29:24.000Z</time>
      </trkpt>
      <trkpt lat="46.71551" lon="3.3539">
        <ele>218.80000305176</ele>
        <time>2023-05-30T06:29:28.000Z</time>
      </trkpt>
      <trkpt lat="46.71552" lon="3.35405">
        <ele>219</ele>
        <time>2023-05-30T06:29:30.000Z</time>
      </trkpt>
      <trkpt lat="46.71554" lon="3.3544">
        <ele>219.60000610352</ele>
        <time>2023-05-30T06:29:35.000Z</time>
      </trkpt>
      <trkpt lat="46.71559" lon="3.35499">
        <ele>219.80000305176</ele>
        <time>2023-05-30T06:29:43.000Z</time>
      </trkpt>
      <trkpt lat="46.71563" lon="3.35555">
        <ele>220</ele>
        <time>2023-05-30T06:29:50.000Z</time>
      </trkpt>
      <trkpt lat="46.71565" lon="3.35571">
        <ele>220.19999694824</ele>
        <time>2023-05-30T06:29:52.000Z</time>
      </trkpt>
      <trkpt lat="46.71571" lon="3.35654">
        <ele>220.80000305176</ele>
        <time>2023-05-30T06:30:02.000Z</time>
      </trkpt>
      <trkpt lat="46.71574" lon="3.35701">
        <ele>221.19999694824</ele>
        <time>2023-05-30T06:30:08.000Z</time>
      </trkpt>
      <trkpt lat="46.71576" lon="3.35725">
        <ele>221.39999389648</ele>
        <time>2023-05-30T06:30:11.000Z</time>
      </trkpt>
      <trkpt lat="46.71582" lon="3.35802">
        <ele>221.80000305176</ele>
        <time>2023-05-30T06:30:21.000Z</time>
      </trkpt>
      <trkpt lat="46.71586" lon="3.35849">
        <ele>222.39999389648</ele>
        <time>2023-05-30T06:30:27.000Z</time>
      </trkpt>
      <trkpt lat="46.71588" lon="3.35878">
        <ele>222.60000610352</ele>
        <time>2023-05-30T06:30:31.000Z</time>
      </trkpt>
      <trkpt lat="46.71588" lon="3.35885">
        <ele>222.80000305176</ele>
        <time>2023-05-30T06:30:32.000Z</time>
      </trkpt>
      <trkpt lat="46.71583" lon="3.35896">
        <ele>222.80000305176</ele>
        <time>2023-05-30T06:30:34.000Z</time>
      </trkpt>
      <trkpt lat="46.71558" lon="3.35908">
        <ele>223</ele>
        <time>2023-05-30T06:30:39.000Z</time>
      </trkpt>
      <trkpt lat="46.71518" lon="3.35925">
        <ele>223</ele>
        <time>2023-05-30T06:30:47.000Z</time>
      </trkpt>
      <trkpt lat="46.7151" lon="3.3593">
        <ele>223.19999694824</ele>
        <time>2023-05-30T06:30:49.000Z</time>
      </trkpt>
      <trkpt lat="46.71502" lon="3.35941">
        <ele>223.39999389648</ele>
        <time>2023-05-30T06:30:51.000Z</time>
      </trkpt>
      <trkpt lat="46.71498" lon="3.35946">
        <ele>223.39999389648</ele>
        <time>2023-05-30T06:30:52.000Z</time>
      </trkpt>
      <trkpt lat="46.71472" lon="3.35981">
        <ele>224.60000610352</ele>
        <time>2023-05-30T06:30:59.000Z</time>
      </trkpt>
      <trkpt lat="46.71435" lon="3.36026">
        <ele>225.60000610352</ele>
        <time>2023-05-30T06:31:08.000Z</time>
      </trkpt>
      <trkpt lat="46.71427" lon="3.36036">
        <ele>225.80000305176</ele>
        <time>2023-05-30T06:31:10.000Z</time>
      </trkpt>
      <trkpt lat="46.71398" lon="3.36073">
        <ele>226.80000305176</ele>
        <time>2023-05-30T06:31:17.000Z</time>
      </trkpt>
      <trkpt lat="46.71394" lon="3.36078">
        <ele>227</ele>
        <time>2023-05-30T06:31:18.000Z</time>
      </trkpt>
      <trkpt lat="46.7139" lon="3.36084">
        <ele>227.19999694824</ele>
        <time>2023-05-30T06:31:19.000Z</time>
      </trkpt>
      <trkpt lat="46.71375" lon="3.36108">
        <ele>227.80000305176</ele>
        <time>2023-05-30T06:31:23.000Z</time>
      </trkpt>
      <trkpt lat="46.71348" lon="3.36151">
        <ele>228.80000305176</ele>
        <time>2023-05-30T06:31:31.000Z</time>
      </trkpt>
      <trkpt lat="46.71321" lon="3.36195">
        <ele>230</ele>
        <time>2023-05-30T06:31:39.000Z</time>
      </trkpt>
      <trkpt lat="46.71314" lon="3.36207">
        <ele>230.19999694824</ele>
        <time>2023-05-30T06:31:41.000Z</time>
      </trkpt>
      <trkpt lat="46.71284" lon="3.36266">
        <ele>230.80000305176</ele>
        <time>2023-05-30T06:31:50.000Z</time>
      </trkpt>
      <trkpt lat="46.71278" lon="3.36279">
        <ele>230.80000305176</ele>
        <time>2023-05-30T06:31:52.000Z</time>
      </trkpt>
      <trkpt lat="46.71263" lon="3.36317">
        <ele>230.60000610352</ele>
        <time>2023-05-30T06:31:57.000Z</time>
      </trkpt>
      <trkpt lat="46.71243" lon="3.36381">
        <ele>230</ele>
        <time>2023-05-30T06:32:05.000Z</time>
      </trkpt>
      <trkpt lat="46.71224" lon="3.36463">
        <ele>229.39999389648</ele>
        <time>2023-05-30T06:32:14.000Z</time>
      </trkpt>
      <trkpt lat="46.71222" lon="3.36472">
        <ele>229.19999694824</ele>
        <time>2023-05-30T06:32:15.000Z</time>
      </trkpt>
      <trkpt lat="46.71206" lon="3.36547">
        <ele>229</ele>
        <time>2023-05-30T06:32:23.000Z</time>
      </trkpt>
      <trkpt lat="46.71201" lon="3.36566">
        <ele>228.80000305176</ele>
        <time>2023-05-30T06:32:25.000Z</time>
      </trkpt>
      <trkpt lat="46.71199" lon="3.36575">
        <ele>228.80000305176</ele>
        <time>2023-05-30T06:32:26.000Z</time>
      </trkpt>
      <trkpt lat="46.71177" lon="3.36638">
        <ele>228.39999389648</ele>
        <time>2023-05-30T06:32:33.000Z</time>
      </trkpt>
      <trkpt lat="46.71143" lon="3.3671">
        <ele>228.19999694824</ele>
        <time>2023-05-30T06:32:42.000Z</time>
      </trkpt>
      <trkpt lat="46.71138" lon="3.36716">
        <ele>228.19999694824</ele>
        <time>2023-05-30T06:32:43.000Z</time>
      </trkpt>
      <trkpt lat="46.711" lon="3.3676">
        <ele>229</ele>
        <time>2023-05-30T06:32:51.000Z</time>
      </trkpt>
      <trkpt lat="46.71077" lon="3.36799">
        <ele>229.60000610352</ele>
        <time>2023-05-30T06:32:57.000Z</time>
      </trkpt>
      <trkpt lat="46.71061" lon="3.36835">
        <ele>229.80000305176</ele>
        <time>2023-05-30T06:33:02.000Z</time>
      </trkpt>
      <trkpt lat="46.71046" lon="3.36871">
        <ele>230.80000305176</ele>
        <time>2023-05-30T06:33:07.000Z</time>
      </trkpt>
      <trkpt lat="46.7104" lon="3.36884">
        <ele>230.80000305176</ele>
        <time>2023-05-30T06:33:09.000Z</time>
      </trkpt>
      <trkpt lat="46.71022" lon="3.36928">
        <ele>231.80000305176</ele>
        <time>2023-05-30T06:33:16.000Z</time>
      </trkpt>
      <trkpt lat="46.7102" lon="3.36934">
        <ele>232.19999694824</ele>
        <time>2023-05-30T06:33:17.000Z</time>
      </trkpt>
      <trkpt lat="46.7101" lon="3.36957">
        <ele>233</ele>
        <time>2023-05-30T06:33:21.000Z</time>
      </trkpt>
      <trkpt lat="46.70997" lon="3.36989">
        <ele>234</ele>
        <time>2023-05-30T06:33:27.000Z</time>
      </trkpt>
      <trkpt lat="46.70987" lon="3.37015">
        <ele>235.19999694824</ele>
        <time>2023-05-30T06:33:32.000Z</time>
      </trkpt>
      <trkpt lat="46.70978" lon="3.37035">
        <ele>236.19999694824</ele>
        <time>2023-05-30T06:33:36.000Z</time>
      </trkpt>
      <trkpt lat="46.70968" lon="3.37059">
        <ele>237.19999694824</ele>
        <time>2023-05-30T06:33:41.000Z</time>
      </trkpt>
      <trkpt lat="46.70963" lon="3.37074">
        <ele>238</ele>
        <time>2023-05-30T06:33:44.000Z</time>
      </trkpt>
      <trkpt lat="46.70958" lon="3.37083">
        <ele>238.60000610352</ele>
        <time>2023-05-30T06:33:46.000Z</time>
      </trkpt>
      <trkpt lat="46.70957" lon="3.37088">
        <ele>238.80000305176</ele>
        <time>2023-05-30T06:33:47.000Z</time>
      </trkpt>
      <trkpt lat="46.7095" lon="3.37108">
        <ele>239.39999389648</ele>
        <time>2023-05-30T06:33:51.000Z</time>
      </trkpt>
      <trkpt lat="46.70946" lon="3.37118">
        <ele>239.60000610352</ele>
        <time>2023-05-30T06:33:53.000Z</time>
      </trkpt>
      <trkpt lat="46.70938" lon="3.37134">
        <ele>240.19999694824</ele>
        <time>2023-05-30T06:33:56.000Z</time>
      </trkpt>
      <trkpt lat="46.70932" lon="3.37143">
        <ele>240.60000610352</ele>
        <time>2023-05-30T06:33:58.000Z</time>
      </trkpt>
      <trkpt lat="46.70929" lon="3.37147">
        <ele>240.60000610352</ele>
        <time>2023-05-30T06:33:59.000Z</time>
      </trkpt>
      <trkpt lat="46.70913" lon="3.37166">
        <ele>241.60000610352</ele>
        <time>2023-05-30T06:34:04.000Z</time>
      </trkpt>
      <trkpt lat="46.70909" lon="3.3717">
        <ele>241.80000305176</ele>
        <time>2023-05-30T06:34:05.000Z</time>
      </trkpt>
      <trkpt lat="46.70887" lon="3.37197">
        <ele>242.80000305176</ele>
        <time>2023-05-30T06:34:12.000Z</time>
      </trkpt>
      <trkpt lat="46.70881" lon="3.37204">
        <ele>243.19999694824</ele>
        <time>2023-05-30T06:34:14.000Z</time>
      </trkpt>
      <trkpt lat="46.70871" lon="3.37218">
        <ele>244</ele>
        <time>2023-05-30T06:34:17.000Z</time>
      </trkpt>
      <trkpt lat="46.70855" lon="3.37238">
        <ele>245.19999694824</ele>
        <time>2023-05-30T06:34:22.000Z</time>
      </trkpt>
      <trkpt lat="46.70852" lon="3.37242">
        <ele>245.19999694824</ele>
        <time>2023-05-30T06:34:23.000Z</time>
      </trkpt>
      <trkpt lat="46.70815" lon="3.37291">
        <ele>246.19999694824</ele>
        <time>2023-05-30T06:34:34.000Z</time>
      </trkpt>
      <trkpt lat="46.70783" lon="3.37333">
        <ele>247.39999389648</ele>
        <time>2023-05-30T06:34:43.000Z</time>
      </trkpt>
      <trkpt lat="46.70778" lon="3.37339">
        <ele>247.39999389648</ele>
        <time>2023-05-30T06:34:44.000Z</time>
      </trkpt>
      <trkpt lat="46.70742" lon="3.37386">
        <ele>248.19999694824</ele>
        <time>2023-05-30T06:34:53.000Z</time>
      </trkpt>
      <trkpt lat="46.70733" lon="3.37398">
        <ele>248.39999389648</ele>
        <time>2023-05-30T06:34:55.000Z</time>
      </trkpt>
      <trkpt lat="46.70703" lon="3.37443">
        <ele>249</ele>
        <time>2023-05-30T06:35:03.000Z</time>
      </trkpt>
      <trkpt lat="46.7069" lon="3.3747">
        <ele>249.19999694824</ele>
        <time>2023-05-30T06:35:07.000Z</time>
      </trkpt>
      <trkpt lat="46.70684" lon="3.37484">
        <ele>249.39999389648</ele>
        <time>2023-05-30T06:35:09.000Z</time>
      </trkpt>
      <trkpt lat="46.70678" lon="3.37497">
        <ele>249.39999389648</ele>
        <time>2023-05-30T06:35:11.000Z</time>
      </trkpt>
      <trkpt lat="46.70664" lon="3.37533">
        <ele>249.80000305176</ele>
        <time>2023-05-30T06:35:16.000Z</time>
      </trkpt>
      <trkpt lat="46.70653" lon="3.37561">
        <ele>250.39999389648</ele>
        <time>2023-05-30T06:35:20.000Z</time>
      </trkpt>
      <trkpt lat="46.7064" lon="3.37594">
        <ele>251.19999694824</ele>
        <time>2023-05-30T06:35:25.000Z</time>
      </trkpt>
      <trkpt lat="46.70632" lon="3.37614">
        <ele>251.60000610352</ele>
        <time>2023-05-30T06:35:28.000Z</time>
      </trkpt>
      <trkpt lat="46.7061" lon="3.37669">
        <ele>252.19999694824</ele>
        <time>2023-05-30T06:35:36.000Z</time>
      </trkpt>
      <trkpt lat="46.7059" lon="3.37709">
        <ele>252.39999389648</ele>
        <time>2023-05-30T06:35:42.000Z</time>
      </trkpt>
      <trkpt lat="46.70571" lon="3.37733">
        <ele>252.39999389648</ele>
        <time>2023-05-30T06:35:46.000Z</time>
      </trkpt>
      <trkpt lat="46.70557" lon="3.3775">
        <ele>252.39999389648</ele>
        <time>2023-05-30T06:35:49.000Z</time>
      </trkpt>
      <trkpt lat="46.7053" lon="3.37786">
        <ele>252.80000305176</ele>
        <time>2023-05-30T06:35:55.000Z</time>
      </trkpt>
      <trkpt lat="46.70498" lon="3.37831">
        <ele>253.19999694824</ele>
        <time>2023-05-30T06:36:03.000Z</time>
      </trkpt>
      <trkpt lat="46.70481" lon="3.3785">
        <ele>253.80000305176</ele>
        <time>2023-05-30T06:36:07.000Z</time>
      </trkpt>
      <trkpt lat="46.7047" lon="3.37864">
        <ele>253.80000305176</ele>
        <time>2023-05-30T06:36:10.000Z</time>
      </trkpt>
      <trkpt lat="46.70428" lon="3.37909">
        <ele>253.39999389648</ele>
        <time>2023-05-30T06:36:19.000Z</time>
      </trkpt>
      <trkpt lat="46.70401" lon="3.37935">
        <ele>252.60000610352</ele>
        <time>2023-05-30T06:36:24.000Z</time>
      </trkpt>
      <trkpt lat="46.7039" lon="3.37947">
        <ele>252</ele>
        <time>2023-05-30T06:36:26.000Z</time>
      </trkpt>
      <trkpt lat="46.70372" lon="3.37964">
        <ele>251.39999389648</ele>
        <time>2023-05-30T06:36:29.000Z</time>
      </trkpt>
      <trkpt lat="46.70348" lon="3.37989">
        <ele>250.60000610352</ele>
        <time>2023-05-30T06:36:33.000Z</time>
      </trkpt>
      <trkpt lat="46.70335" lon="3.38">
        <ele>250</ele>
        <time>2023-05-30T06:36:35.000Z</time>
      </trkpt>
      <trkpt lat="46.70328" lon="3.38005">
        <ele>249.60000610352</ele>
        <time>2023-05-30T06:36:36.000Z</time>
      </trkpt>
      <trkpt lat="46.70315" lon="3.38013">
        <ele>249.19999694824</ele>
        <time>2023-05-30T06:36:38.000Z</time>
      </trkpt>
      <trkpt lat="46.70301" lon="3.38023">
        <ele>248.60000610352</ele>
        <time>2023-05-30T06:36:40.000Z</time>
      </trkpt>
      <trkpt lat="46.7028" lon="3.38042">
        <ele>247.60000610352</ele>
        <time>2023-05-30T06:36:43.000Z</time>
      </trkpt>
      <trkpt lat="46.70257" lon="3.38067">
        <ele>246.39999389648</ele>
        <time>2023-05-30T06:36:46.000Z</time>
      </trkpt>
      <trkpt lat="46.70241" lon="3.38083">
        <ele>244.80000305176</ele>
        <time>2023-05-30T06:36:48.000Z</time>
      </trkpt>
      <trkpt lat="46.70233" lon="3.3809">
        <ele>244.39999389648</ele>
        <time>2023-05-30T06:36:49.000Z</time>
      </trkpt>
      <trkpt lat="46.70224" lon="3.38096">
        <ele>243.80000305176</ele>
        <time>2023-05-30T06:36:50.000Z</time>
      </trkpt>
      <trkpt lat="46.70206" lon="3.38106">
        <ele>242.60000610352</ele>
        <time>2023-05-30T06:36:52.000Z</time>
      </trkpt>
      <trkpt lat="46.70197" lon="3.3811">
        <ele>242.39999389648</ele>
        <time>2023-05-30T06:36:53.000Z</time>
      </trkpt>
      <trkpt lat="46.70179" lon="3.38116">
        <ele>241.39999389648</ele>
        <time>2023-05-30T06:36:55.000Z</time>
      </trkpt>
      <trkpt lat="46.70153" lon="3.38127">
        <ele>240.60000610352</ele>
        <time>2023-05-30T06:36:57.000Z</time>
      </trkpt>
      <trkpt lat="46.70153" lon="3.38127">
        <ele>240.39999389648</ele>
        <time>2023-05-30T06:36:58.000Z</time>
      </trkpt>
      <trkpt lat="46.70137" lon="3.38139">
        <ele>239.60000610352</ele>
        <time>2023-05-30T06:37:00.000Z</time>
      </trkpt>
      <trkpt lat="46.70123" lon="3.38154">
        <ele>239.19999694824</ele>
        <time>2023-05-30T06:37:02.000Z</time>
      </trkpt>
      <trkpt lat="46.70092" lon="3.38196">
        <ele>238.19999694824</ele>
        <time>2023-05-30T06:37:07.000Z</time>
      </trkpt>
      <trkpt lat="46.70086" lon="3.38204">
        <ele>238</ele>
        <time>2023-05-30T06:37:08.000Z</time>
      </trkpt>
      <trkpt lat="46.70063" lon="3.38236">
        <ele>237</ele>
        <time>2023-05-30T06:37:12.000Z</time>
      </trkpt>
      <trkpt lat="46.70041" lon="3.38266">
        <ele>236</ele>
        <time>2023-05-30T06:37:16.000Z</time>
      </trkpt>
      <trkpt lat="46.7003" lon="3.3828">
        <ele>235.80000305176</ele>
        <time>2023-05-30T06:37:18.000Z</time>
      </trkpt>
      <trkpt lat="46.69999" lon="3.38321">
        <ele>235.19999694824</ele>
        <time>2023-05-30T06:37:24.000Z</time>
      </trkpt>
      <trkpt lat="46.69979" lon="3.38347">
        <ele>234.60000610352</ele>
        <time>2023-05-30T06:37:28.000Z</time>
      </trkpt>
      <trkpt lat="46.69959" lon="3.38376">
        <ele>234.60000610352</ele>
        <time>2023-05-30T06:37:31.000Z</time>
      </trkpt>
      <trkpt lat="46.69914" lon="3.3844">
        <ele>234.39999389648</ele>
        <time>2023-05-30T06:37:40.000Z</time>
      </trkpt>
      <trkpt lat="46.69909" lon="3.38447">
        <ele>234.39999389648</ele>
        <time>2023-05-30T06:37:42.000Z</time>
      </trkpt>
      <trkpt lat="46.69864" lon="3.38505">
        <ele>234</ele>
        <time>2023-05-30T06:37:50.000Z</time>
      </trkpt>
      <trkpt lat="46.69834" lon="3.38532">
        <ele>233.60000610352</ele>
        <time>2023-05-30T06:37:55.000Z</time>
      </trkpt>
      <trkpt lat="46.69811" lon="3.38555">
        <ele>233.19999694824</ele>
        <time>2023-05-30T06:37:59.000Z</time>
      </trkpt>
      <trkpt lat="46.69792" lon="3.38583">
        <ele>232.60000610352</ele>
        <time>2023-05-30T06:38:03.000Z</time>
      </trkpt>
      <trkpt lat="46.69773" lon="3.38613">
        <ele>232.39999389648</ele>
        <time>2023-05-30T06:38:07.000Z</time>
      </trkpt>
      <trkpt lat="46.69753" lon="3.38641">
        <ele>231.60000610352</ele>
        <time>2023-05-30T06:38:12.000Z</time>
      </trkpt>
      <trkpt lat="46.69737" lon="3.38662">
        <ele>231.19999694824</ele>
        <time>2023-05-30T06:38:15.000Z</time>
      </trkpt>
      <trkpt lat="46.69711" lon="3.38711">
        <ele>230.60000610352</ele>
        <time>2023-05-30T06:38:21.000Z</time>
      </trkpt>
      <trkpt lat="46.69675" lon="3.38777">
        <ele>229.60000610352</ele>
        <time>2023-05-30T06:38:28.000Z</time>
      </trkpt>
      <trkpt lat="46.69671" lon="3.38785">
        <ele>229.60000610352</ele>
        <time>2023-05-30T06:38:29.000Z</time>
      </trkpt>
      <trkpt lat="46.69637" lon="3.38849">
        <ele>228.60000610352</ele>
        <time>2023-05-30T06:38:37.000Z</time>
      </trkpt>
      <trkpt lat="46.69634" lon="3.38857">
        <ele>228.60000610352</ele>
        <time>2023-05-30T06:38:39.000Z</time>
      </trkpt>
      <trkpt lat="46.69609" lon="3.38919">
        <ele>227.39999389648</ele>
        <time>2023-05-30T06:38:45.000Z</time>
      </trkpt>
      <trkpt lat="46.69599" lon="3.38945">
        <ele>227</ele>
        <time>2023-05-30T06:38:48.000Z</time>
      </trkpt>
      <trkpt lat="46.69578" lon="3.38996">
        <ele>226.39999389648</ele>
        <time>2023-05-30T06:38:54.000Z</time>
      </trkpt>
      <trkpt lat="46.69565" lon="3.39029">
        <ele>225.80000305176</ele>
        <time>2023-05-30T06:38:58.000Z</time>
      </trkpt>
      <trkpt lat="46.69551" lon="3.39062">
        <ele>225</ele>
        <time>2023-05-30T06:39:03.000Z</time>
      </trkpt>
      <trkpt lat="46.69537" lon="3.39094">
        <ele>224.60000610352</ele>
        <time>2023-05-30T06:39:06.000Z</time>
      </trkpt>
      <trkpt lat="46.69517" lon="3.39143">
        <ele>224</ele>
        <time>2023-05-30T06:39:12.000Z</time>
      </trkpt>
      <trkpt lat="46.6951" lon="3.3916">
        <ele>223.80000305176</ele>
        <time>2023-05-30T06:39:14.000Z</time>
      </trkpt>
      <trkpt lat="46.6948" lon="3.39229">
        <ele>223</ele>
        <time>2023-05-30T06:39:22.000Z</time>
      </trkpt>
      <trkpt lat="46.69476" lon="3.39238">
        <ele>222.80000305176</ele>
        <time>2023-05-30T06:39:23.000Z</time>
      </trkpt>
      <trkpt lat="46.69443" lon="3.39303">
        <ele>222</ele>
        <time>2023-05-30T06:39:31.000Z</time>
      </trkpt>
      <trkpt lat="46.69418" lon="3.39376">
        <ele>222</ele>
        <time>2023-05-30T06:39:40.000Z</time>
      </trkpt>
      <trkpt lat="46.694" lon="3.39428">
        <ele>223.39999389648</ele>
        <time>2023-05-30T06:39:47.000Z</time>
      </trkpt>
      <trkpt lat="46.69386" lon="3.39473">
        <ele>224</ele>
        <time>2023-05-30T06:39:53.000Z</time>
      </trkpt>
      <trkpt lat="46.69383" lon="3.39487">
        <ele>224.19999694824</ele>
        <time>2023-05-30T06:39:56.000Z</time>
      </trkpt>
      <trkpt lat="46.69363" lon="3.39564">
        <ele>225</ele>
        <time>2023-05-30T06:40:05.000Z</time>
      </trkpt>
      <trkpt lat="46.69361" lon="3.39571">
        <ele>225.19999694824</ele>
        <time>2023-05-30T06:40:06.000Z</time>
      </trkpt>
      <trkpt lat="46.69355" lon="3.39587">
        <ele>225.39999389648</ele>
        <time>2023-05-30T06:40:08.000Z</time>
      </trkpt>
      <trkpt lat="46.69336" lon="3.39656">
        <ele>226.19999694824</ele>
        <time>2023-05-30T06:40:17.000Z</time>
      </trkpt>
      <trkpt lat="46.69315" lon="3.39734">
        <ele>226.39999389648</ele>
        <time>2023-05-30T06:40:27.000Z</time>
      </trkpt>
      <trkpt lat="46.6929" lon="3.39804">
        <ele>226.60000610352</ele>
        <time>2023-05-30T06:40:36.000Z</time>
      </trkpt>
      <trkpt lat="46.69266" lon="3.39871">
        <ele>227</ele>
        <time>2023-05-30T06:40:45.000Z</time>
      </trkpt>
      <trkpt lat="46.69264" lon="3.39879">
        <ele>227</ele>
        <time>2023-05-30T06:40:46.000Z</time>
      </trkpt>
      <trkpt lat="46.69256" lon="3.3991">
        <ele>227.19999694824</ele>
        <time>2023-05-30T06:40:50.000Z</time>
      </trkpt>
      <trkpt lat="46.69244" lon="3.39966">
        <ele>227.39999389648</ele>
        <time>2023-05-30T06:40:57.000Z</time>
      </trkpt>
      <trkpt lat="46.69228" lon="3.40033">
        <ele>226.80000305176</ele>
        <time>2023-05-30T06:41:05.000Z</time>
      </trkpt>
      <trkpt lat="46.69221" lon="3.40047">
        <ele>226.39999389648</ele>
        <time>2023-05-30T06:41:07.000Z</time>
      </trkpt>
      <trkpt lat="46.69211" lon="3.40062">
        <ele>226.19999694824</ele>
        <time>2023-05-30T06:41:09.000Z</time>
      </trkpt>
      <trkpt lat="46.69207" lon="3.40069">
        <ele>225.80000305176</ele>
        <time>2023-05-30T06:41:10.000Z</time>
      </trkpt>
      <trkpt lat="46.69202" lon="3.40077">
        <ele>225.80000305176</ele>
        <time>2023-05-30T06:41:11.000Z</time>
      </trkpt>
      <trkpt lat="46.69182" lon="3.40103">
        <ele>225</ele>
        <time>2023-05-30T06:41:15.000Z</time>
      </trkpt>
      <trkpt lat="46.69182" lon="3.40103">
        <ele>224.80000305176</ele>
        <time>2023-05-30T06:41:16.000Z</time>
      </trkpt>
      <trkpt lat="46.69147" lon="3.40146">
        <ele>223.80000305176</ele>
        <time>2023-05-30T06:41:22.000Z</time>
      </trkpt>
      <trkpt lat="46.69126" lon="3.40172">
        <ele>223</ele>
        <time>2023-05-30T06:41:27.000Z</time>
      </trkpt>
      <trkpt lat="46.69116" lon="3.40187">
        <ele>222.80000305176</ele>
        <time>2023-05-30T06:41:28.000Z</time>
      </trkpt>
      <trkpt lat="46.69089" lon="3.4023">
        <ele>221.60000610352</ele>
        <time>2023-05-30T06:41:34.000Z</time>
      </trkpt>
      <trkpt lat="46.69085" lon="3.40237">
        <ele>221.60000610352</ele>
        <time>2023-05-30T06:41:35.000Z</time>
      </trkpt>
      <trkpt lat="46.69079" lon="3.40254">
        <ele>221.19999694824</ele>
        <time>2023-05-30T06:41:37.000Z</time>
      </trkpt>
      <trkpt lat="46.69077" lon="3.40272">
        <ele>221</ele>
        <time>2023-05-30T06:41:39.000Z</time>
      </trkpt>
      <trkpt lat="46.69075" lon="3.40339">
        <ele>220.60000610352</ele>
        <time>2023-05-30T06:41:46.000Z</time>
      </trkpt>
      <trkpt lat="46.69075" lon="3.40348">
        <ele>220.60000610352</ele>
        <time>2023-05-30T06:41:47.000Z</time>
      </trkpt>
      <trkpt lat="46.69075" lon="3.40385">
        <ele>220.19999694824</ele>
        <time>2023-05-30T06:41:51.000Z</time>
      </trkpt>
      <trkpt lat="46.69078" lon="3.40413">
        <ele>220.19999694824</ele>
        <time>2023-05-30T06:41:54.000Z</time>
      </trkpt>
      <trkpt lat="46.69083" lon="3.40441">
        <ele>219.60000610352</ele>
        <time>2023-05-30T06:41:57.000Z</time>
      </trkpt>
      <trkpt lat="46.69094" lon="3.40501">
        <ele>218.60000610352</ele>
        <time>2023-05-30T06:42:03.000Z</time>
      </trkpt>
      <trkpt lat="46.69095" lon="3.40511">
        <ele>218.39999389648</ele>
        <time>2023-05-30T06:42:04.000Z</time>
      </trkpt>
      <trkpt lat="46.69094" lon="3.4053">
        <ele>217.80000305176</ele>
        <time>2023-05-30T06:42:06.000Z</time>
      </trkpt>
      <trkpt lat="46.69092" lon="3.40539">
        <ele>217.60000610352</ele>
        <time>2023-05-30T06:42:07.000Z</time>
      </trkpt>
      <trkpt lat="46.69088" lon="3.40546">
        <ele>217.39999389648</ele>
        <time>2023-05-30T06:42:08.000Z</time>
      </trkpt>
      <trkpt lat="46.69083" lon="3.40553">
        <ele>217.39999389648</ele>
        <time>2023-05-30T06:42:09.000Z</time>
      </trkpt>
      <trkpt lat="46.69079" lon="3.40558">
        <ele>217.39999389648</ele>
        <time>2023-05-30T06:42:10.000Z</time>
      </trkpt>
      <trkpt lat="46.6907" lon="3.40566">
        <ele>217.39999389648</ele>
        <time>2023-05-30T06:42:12.000Z</time>
      </trkpt>
      <trkpt lat="46.69068" lon="3.4057">
        <ele>217.19999694824</ele>
        <time>2023-05-30T06:42:13.000Z</time>
      </trkpt>
      <trkpt lat="46.69064" lon="3.40576">
        <ele>217.19999694824</ele>
        <time>2023-05-30T06:42:16.000Z</time>
      </trkpt>
      <trkpt lat="46.69064" lon="3.40576">
        <ele>217</ele>
        <time>2023-05-30T06:42:17.000Z</time>
      </trkpt>
      <trkpt lat="46.69063" lon="3.40577">
        <ele>216.60000610352</ele>
        <time>2023-05-30T06:42:21.000Z</time>
      </trkpt>
      <trkpt lat="46.69063" lon="3.40577">
        <ele>216.39999389648</ele>
        <time>2023-05-30T06:42:22.000Z</time>
      </trkpt>
      <trkpt lat="46.69058" lon="3.40575">
        <ele>217.19999694824</ele>
        <time>2023-05-30T06:57:34.000Z</time>
      </trkpt>
      <trkpt lat="46.69056" lon="3.40576">
        <ele>217.19999694824</ele>
        <time>2023-05-30T06:57:35.000Z</time>
      </trkpt>
      <trkpt lat="46.69054" lon="3.40578">
        <ele>217.19999694824</ele>
        <time>2023-05-30T06:57:36.000Z</time>
      </trkpt>
      <trkpt lat="46.69045" lon="3.40583">
        <ele>217.19999694824</ele>
        <time>2023-05-30T06:57:39.000Z</time>
      </trkpt>
      <trkpt lat="46.69028" lon="3.40593">
        <ele>217.19999694824</ele>
        <time>2023-05-30T06:57:45.000Z</time>
      </trkpt>
      <trkpt lat="46.69008" lon="3.40606">
        <ele>217.60000610352</ele>
        <time>2023-05-30T06:57:50.000Z</time>
      </trkpt>
      <trkpt lat="46.6898" lon="3.40625">
        <ele>218.19999694824</ele>
        <time>2023-05-30T06:57:56.000Z</time>
      </trkpt>
      <trkpt lat="46.6897" lon="3.40632">
        <ele>218.39999389648</ele>
        <time>2023-05-30T06:57:58.000Z</time>
      </trkpt>
      <trkpt lat="46.68941" lon="3.40651">
        <ele>218.80000305176</ele>
        <time>2023-05-30T06:58:04.000Z</time>
      </trkpt>
      <trkpt lat="46.68932" lon="3.40657">
        <ele>219</ele>
        <time>2023-05-30T06:58:06.000Z</time>
      </trkpt>
      <trkpt lat="46.68904" lon="3.40676">
        <ele>219.19999694824</ele>
        <time>2023-05-30T06:58:12.000Z</time>
      </trkpt>
      <trkpt lat="46.68885" lon="3.40687">
        <ele>219.80000305176</ele>
        <time>2023-05-30T06:58:16.000Z</time>
      </trkpt>
      <trkpt lat="46.68846" lon="3.40709">
        <ele>220.39999389648</ele>
        <time>2023-05-30T06:58:24.000Z</time>
      </trkpt>
      <trkpt lat="46.68842" lon="3.40711">
        <ele>220.39999389648</ele>
        <time>2023-05-30T06:58:25.000Z</time>
      </trkpt>
      <trkpt lat="46.68795" lon="3.40728">
        <ele>221.39999389648</ele>
        <time>2023-05-30T06:58:34.000Z</time>
      </trkpt>
      <trkpt lat="46.68779" lon="3.40734">
        <ele>221.80000305176</ele>
        <time>2023-05-30T06:58:37.000Z</time>
      </trkpt>
      <trkpt lat="46.68731" lon="3.40759">
        <ele>222.60000610352</ele>
        <time>2023-05-30T06:58:46.000Z</time>
      </trkpt>
      <trkpt lat="46.68721" lon="3.40765">
        <ele>222.80000305176</ele>
        <time>2023-05-30T06:58:48.000Z</time>
      </trkpt>
      <trkpt lat="46.68684" lon="3.40787">
        <ele>223.60000610352</ele>
        <time>2023-05-30T06:58:55.000Z</time>
      </trkpt>
      <trkpt lat="46.68676" lon="3.40794">
        <ele>223.80000305176</ele>
        <time>2023-05-30T06:58:57.000Z</time>
      </trkpt>
      <trkpt lat="46.68628" lon="3.40833">
        <ele>224.80000305176</ele>
        <time>2023-05-30T06:59:07.000Z</time>
      </trkpt>
      <trkpt lat="46.68584" lon="3.4087">
        <ele>226</ele>
        <time>2023-05-30T06:59:16.000Z</time>
      </trkpt>
      <trkpt lat="46.6858" lon="3.40874">
        <ele>226</ele>
        <time>2023-05-30T06:59:17.000Z</time>
      </trkpt>
      <trkpt lat="46.68548" lon="3.40906">
        <ele>227</ele>
        <time>2023-05-30T06:59:24.000Z</time>
      </trkpt>
      <trkpt lat="46.68539" lon="3.40915">
        <ele>227.19999694824</ele>
        <time>2023-05-30T06:59:26.000Z</time>
      </trkpt>
      <trkpt lat="46.68492" lon="3.40962">
        <ele>227.80000305176</ele>
        <time>2023-05-30T06:59:36.000Z</time>
      </trkpt>
      <trkpt lat="46.68488" lon="3.40967">
        <ele>227.80000305176</ele>
        <time>2023-05-30T06:59:37.000Z</time>
      </trkpt>
      <trkpt lat="46.68479" lon="3.40976">
        <ele>228</ele>
        <time>2023-05-30T06:59:39.000Z</time>
      </trkpt>
      <trkpt lat="46.6845" lon="3.41007">
        <ele>228.39999389648</ele>
        <time>2023-05-30T06:59:45.000Z</time>
      </trkpt>
      <trkpt lat="46.68406" lon="3.41054">
        <ele>227.60000610352</ele>
        <time>2023-05-30T06:59:53.000Z</time>
      </trkpt>
      <trkpt lat="46.68364" lon="3.41091">
        <ele>227</ele>
        <time>2023-05-30T07:00:00.000Z</time>
      </trkpt>
      <trkpt lat="46.68346" lon="3.41105">
        <ele>226.60000610352</ele>
        <time>2023-05-30T07:00:03.000Z</time>
      </trkpt>
      <trkpt lat="46.6832" lon="3.41126">
        <ele>226</ele>
        <time>2023-05-30T07:00:07.000Z</time>
      </trkpt>
      <trkpt lat="46.6827" lon="3.41167">
        <ele>225</ele>
        <time>2023-05-30T07:00:15.000Z</time>
      </trkpt>
      <trkpt lat="46.68263" lon="3.41172">
        <ele>225</ele>
        <time>2023-05-30T07:00:16.000Z</time>
      </trkpt>
      <trkpt lat="46.6822" lon="3.4121">
        <ele>224.39999389648</ele>
        <time>2023-05-30T07:00:23.000Z</time>
      </trkpt>
      <trkpt lat="46.68177" lon="3.41258">
        <ele>224.39999389648</ele>
        <time>2023-05-30T07:00:31.000Z</time>
      </trkpt>
      <trkpt lat="46.68152" lon="3.41301">
        <ele>224.39999389648</ele>
        <time>2023-05-30T07:00:37.000Z</time>
      </trkpt>
      <trkpt lat="46.68123" lon="3.41367">
        <ele>225</ele>
        <time>2023-05-30T07:00:46.000Z</time>
      </trkpt>
      <trkpt lat="46.68097" lon="3.41422">
        <ele>225.60000610352</ele>
        <time>2023-05-30T07:00:54.000Z</time>
      </trkpt>
      <trkpt lat="46.68083" lon="3.41447">
        <ele>226</ele>
        <time>2023-05-30T07:00:58.000Z</time>
      </trkpt>
      <trkpt lat="46.68064" lon="3.41476">
        <ele>227</ele>
        <time>2023-05-30T07:01:03.000Z</time>
      </trkpt>
      <trkpt lat="46.68057" lon="3.41486">
        <ele>227.60000610352</ele>
        <time>2023-05-30T07:01:05.000Z</time>
      </trkpt>
      <trkpt lat="46.68027" lon="3.41526">
        <ele>228.39999389648</ele>
        <time>2023-05-30T07:01:13.000Z</time>
      </trkpt>
      <trkpt lat="46.68024" lon="3.41531">
        <ele>228.60000610352</ele>
        <time>2023-05-30T07:01:14.000Z</time>
      </trkpt>
      <trkpt lat="46.67988" lon="3.41576">
        <ele>229.39999389648</ele>
        <time>2023-05-30T07:01:23.000Z</time>
      </trkpt>
      <trkpt lat="46.67984" lon="3.41581">
        <ele>229.60000610352</ele>
        <time>2023-05-30T07:01:24.000Z</time>
      </trkpt>
      <trkpt lat="46.67949" lon="3.41632">
        <ele>230.39999389648</ele>
        <time>2023-05-30T07:01:33.000Z</time>
      </trkpt>
      <trkpt lat="46.67908" lon="3.41693">
        <ele>230.39999389648</ele>
        <time>2023-05-30T07:01:43.000Z</time>
      </trkpt>
      <trkpt lat="46.67903" lon="3.41699">
        <ele>230.39999389648</ele>
        <time>2023-05-30T07:01:44.000Z</time>
      </trkpt>
      <trkpt lat="46.67863" lon="3.41757">
        <ele>230</ele>
        <time>2023-05-30T07:01:53.000Z</time>
      </trkpt>
      <trkpt lat="46.67827" lon="3.41824">
        <ele>228.80000305176</ele>
        <time>2023-05-30T07:02:02.000Z</time>
      </trkpt>
      <trkpt lat="46.67815" lon="3.41848">
        <ele>228.39999389648</ele>
        <time>2023-05-30T07:02:05.000Z</time>
      </trkpt>
      <trkpt lat="46.67802" lon="3.41875">
        <ele>228</ele>
        <time>2023-05-30T07:02:09.000Z</time>
      </trkpt>
      <trkpt lat="46.67794" lon="3.41896">
        <ele>227.60000610352</ele>
        <time>2023-05-30T07:02:12.000Z</time>
      </trkpt>
      <trkpt lat="46.6779" lon="3.41911">
        <ele>227.39999389648</ele>
        <time>2023-05-30T07:02:14.000Z</time>
      </trkpt>
      <trkpt lat="46.67771" lon="3.4196">
        <ele>226.60000610352</ele>
        <time>2023-05-30T07:02:20.000Z</time>
      </trkpt>
      <trkpt lat="46.67768" lon="3.41967">
        <ele>226.39999389648</ele>
        <time>2023-05-30T07:02:21.000Z</time>
      </trkpt>
      <trkpt lat="46.67749" lon="3.42012">
        <ele>225</ele>
        <time>2023-05-30T07:02:26.000Z</time>
      </trkpt>
      <trkpt lat="46.67738" lon="3.42039">
        <ele>224.39999389648</ele>
        <time>2023-05-30T07:02:29.000Z</time>
      </trkpt>
      <trkpt lat="46.67731" lon="3.42057">
        <ele>223.80000305176</ele>
        <time>2023-05-30T07:02:31.000Z</time>
      </trkpt>
      <trkpt lat="46.6771" lon="3.42119">
        <ele>222.80000305176</ele>
        <time>2023-05-30T07:02:38.000Z</time>
      </trkpt>
      <trkpt lat="46.67685" lon="3.42193">
        <ele>222.19999694824</ele>
        <time>2023-05-30T07:02:47.000Z</time>
      </trkpt>
      <trkpt lat="46.67677" lon="3.42215">
        <ele>221.80000305176</ele>
        <time>2023-05-30T07:02:50.000Z</time>
      </trkpt>
      <trkpt lat="46.67672" lon="3.4223">
        <ele>221.60000610352</ele>
        <time>2023-05-30T07:02:52.000Z</time>
      </trkpt>
      <trkpt lat="46.67665" lon="3.42244">
        <ele>221.39999389648</ele>
        <time>2023-05-30T07:02:54.000Z</time>
      </trkpt>
      <trkpt lat="46.6764" lon="3.42277">
        <ele>221.19999694824</ele>
        <time>2023-05-30T07:03:00.000Z</time>
      </trkpt>
      <trkpt lat="46.67635" lon="3.4228">
        <ele>221.19999694824</ele>
        <time>2023-05-30T07:03:01.000Z</time>
      </trkpt>
      <trkpt lat="46.67631" lon="3.42282">
        <ele>221.19999694824</ele>
        <time>2023-05-30T07:03:02.000Z</time>
      </trkpt>
      <trkpt lat="46.67623" lon="3.42289">
        <ele>221.19999694824</ele>
        <time>2023-05-30T07:03:04.000Z</time>
      </trkpt>
      <trkpt lat="46.67622" lon="3.42293">
        <ele>221.19999694824</ele>
        <time>2023-05-30T07:03:05.000Z</time>
      </trkpt>
      <trkpt lat="46.67601" lon="3.42346">
        <ele>221.19999694824</ele>
        <time>2023-05-30T07:03:12.000Z</time>
      </trkpt>
      <trkpt lat="46.6759" lon="3.42376">
        <ele>221.39999389648</ele>
        <time>2023-05-30T07:03:16.000Z</time>
      </trkpt>
      <trkpt lat="46.67583" lon="3.42395">
        <ele>221.19999694824</ele>
        <time>2023-05-30T07:03:18.000Z</time>
      </trkpt>
      <trkpt lat="46.67563" lon="3.42445">
        <ele>220.80000305176</ele>
        <time>2023-05-30T07:03:24.000Z</time>
      </trkpt>
      <trkpt lat="46.67561" lon="3.42452">
        <ele>220.60000610352</ele>
        <time>2023-05-30T07:03:25.000Z</time>
      </trkpt>
      <trkpt lat="46.67548" lon="3.42487">
        <ele>219.80000305176</ele>
        <time>2023-05-30T07:03:29.000Z</time>
      </trkpt>
      <trkpt lat="46.67542" lon="3.42502">
        <ele>219.60000610352</ele>
        <time>2023-05-30T07:03:31.000Z</time>
      </trkpt>
      <trkpt lat="46.67523" lon="3.42553">
        <ele>218.60000610352</ele>
        <time>2023-05-30T07:03:37.000Z</time>
      </trkpt>
      <trkpt lat="46.67513" lon="3.42578">
        <ele>218.39999389648</ele>
        <time>2023-05-30T07:03:40.000Z</time>
      </trkpt>
      <trkpt lat="46.67493" lon="3.42634">
        <ele>218.19999694824</ele>
        <time>2023-05-30T07:03:47.000Z</time>
      </trkpt>
      <trkpt lat="46.67474" lon="3.42685">
        <ele>219.19999694824</ele>
        <time>2023-05-30T07:03:54.000Z</time>
      </trkpt>
      <trkpt lat="46.6747" lon="3.42691">
        <ele>219.39999389648</ele>
        <time>2023-05-30T07:03:55.000Z</time>
      </trkpt>
      <trkpt lat="46.67461" lon="3.42701">
        <ele>219.60000610352</ele>
        <time>2023-05-30T07:03:57.000Z</time>
      </trkpt>
      <trkpt lat="46.67456" lon="3.42705">
        <ele>219.80000305176</ele>
        <time>2023-05-30T07:03:58.000Z</time>
      </trkpt>
      <trkpt lat="46.67427" lon="3.42722">
        <ele>220.60000610352</ele>
        <time>2023-05-30T07:04:04.000Z</time>
      </trkpt>
      <trkpt lat="46.67411" lon="3.42729">
        <ele>221</ele>
        <time>2023-05-30T07:04:07.000Z</time>
      </trkpt>
      <trkpt lat="46.67402" lon="3.42735">
        <ele>221.19999694824</ele>
        <time>2023-05-30T07:04:09.000Z</time>
      </trkpt>
      <trkpt lat="46.67366" lon="3.42752">
        <ele>222.19999694824</ele>
        <time>2023-05-30T07:04:16.000Z</time>
      </trkpt>
      <trkpt lat="46.67331" lon="3.42771">
        <ele>223</ele>
        <time>2023-05-30T07:04:23.000Z</time>
      </trkpt>
      <trkpt lat="46.67327" lon="3.42773">
        <ele>223.19999694824</ele>
        <time>2023-05-30T07:04:24.000Z</time>
      </trkpt>
      <trkpt lat="46.67293" lon="3.42793">
        <ele>224.19999694824</ele>
        <time>2023-05-30T07:04:31.000Z</time>
      </trkpt>
      <trkpt lat="46.67287" lon="3.42798">
        <ele>224.19999694824</ele>
        <time>2023-05-30T07:04:32.000Z</time>
      </trkpt>
      <trkpt lat="46.67268" lon="3.42822">
        <ele>225.19999694824</ele>
        <time>2023-05-30T07:04:37.000Z</time>
      </trkpt>
      <trkpt lat="46.67264" lon="3.42827">
        <ele>225.19999694824</ele>
        <time>2023-05-30T07:04:38.000Z</time>
      </trkpt>
      <trkpt lat="46.67247" lon="3.42865">
        <ele>226</ele>
        <time>2023-05-30T07:04:44.000Z</time>
      </trkpt>
      <trkpt lat="46.67241" lon="3.42876">
        <ele>226.19999694824</ele>
        <time>2023-05-30T07:04:46.000Z</time>
      </trkpt>
      <trkpt lat="46.67226" lon="3.42911">
        <ele>227</ele>
        <time>2023-05-30T07:04:51.000Z</time>
      </trkpt>
      <trkpt lat="46.67211" lon="3.42944">
        <ele>227.39999389648</ele>
        <time>2023-05-30T07:04:56.000Z</time>
      </trkpt>
      <trkpt lat="46.67194" lon="3.42983">
        <ele>228.19999694824</ele>
        <time>2023-05-30T07:05:02.000Z</time>
      </trkpt>
      <trkpt lat="46.67186" lon="3.43002">
        <ele>228.60000610352</ele>
        <time>2023-05-30T07:05:05.000Z</time>
      </trkpt>
      <trkpt lat="46.67171" lon="3.43042">
        <ele>229.19999694824</ele>
        <time>2023-05-30T07:05:11.000Z</time>
      </trkpt>
      <trkpt lat="46.67161" lon="3.43069">
        <ele>229.60000610352</ele>
        <time>2023-05-30T07:05:15.000Z</time>
      </trkpt>
      <trkpt lat="46.67146" lon="3.43108">
        <ele>230.39999389648</ele>
        <time>2023-05-30T07:05:21.000Z</time>
      </trkpt>
      <trkpt lat="46.67141" lon="3.43121">
        <ele>230.80000305176</ele>
        <time>2023-05-30T07:05:23.000Z</time>
      </trkpt>
      <trkpt lat="46.67124" lon="3.43167">
        <ele>231.80000305176</ele>
        <time>2023-05-30T07:05:30.000Z</time>
      </trkpt>
      <trkpt lat="46.67119" lon="3.4318">
        <ele>232</ele>
        <time>2023-05-30T07:05:32.000Z</time>
      </trkpt>
      <trkpt lat="46.67104" lon="3.43222">
        <ele>232.80000305176</ele>
        <time>2023-05-30T07:05:38.000Z</time>
      </trkpt>
      <trkpt lat="46.67094" lon="3.4325">
        <ele>233.19999694824</ele>
        <time>2023-05-30T07:05:42.000Z</time>
      </trkpt>
      <trkpt lat="46.67068" lon="3.43323">
        <ele>233.19999694824</ele>
        <time>2023-05-30T07:05:52.000Z</time>
      </trkpt>
      <trkpt lat="46.67046" lon="3.43363">
        <ele>233.19999694824</ele>
        <time>2023-05-30T07:05:58.000Z</time>
      </trkpt>
      <trkpt lat="46.67016" lon="3.43389">
        <ele>233.39999389648</ele>
        <time>2023-05-30T07:06:04.000Z</time>
      </trkpt>
      <trkpt lat="46.66968" lon="3.43426">
        <ele>233.60000610352</ele>
        <time>2023-05-30T07:06:13.000Z</time>
      </trkpt>
      <trkpt lat="46.66961" lon="3.43431">
        <ele>233.80000305176</ele>
        <time>2023-05-30T07:06:14.000Z</time>
      </trkpt>
      <trkpt lat="46.66956" lon="3.43435">
        <ele>234</ele>
        <time>2023-05-30T07:06:15.000Z</time>
      </trkpt>
      <trkpt lat="46.66909" lon="3.43471">
        <ele>234.39999389648</ele>
        <time>2023-05-30T07:06:24.000Z</time>
      </trkpt>
      <trkpt lat="46.66856" lon="3.4351">
        <ele>234.60000610352</ele>
        <time>2023-05-30T07:06:34.000Z</time>
      </trkpt>
      <trkpt lat="46.6684" lon="3.43522">
        <ele>234.80000305176</ele>
        <time>2023-05-30T07:06:37.000Z</time>
      </trkpt>
      <trkpt lat="46.66791" lon="3.43557">
        <ele>234.80000305176</ele>
        <time>2023-05-30T07:06:46.000Z</time>
      </trkpt>
      <trkpt lat="46.66748" lon="3.43595">
        <ele>234.80000305176</ele>
        <time>2023-05-30T07:06:54.000Z</time>
      </trkpt>
      <trkpt lat="46.66712" lon="3.43646">
        <ele>234.19999694824</ele>
        <time>2023-05-30T07:07:02.000Z</time>
      </trkpt>
      <trkpt lat="46.66672" lon="3.43704">
        <ele>234</ele>
        <time>2023-05-30T07:07:11.000Z</time>
      </trkpt>
      <trkpt lat="46.66664" lon="3.43717">
        <ele>234</ele>
        <time>2023-05-30T07:07:13.000Z</time>
      </trkpt>
      <trkpt lat="46.66625" lon="3.43776">
        <ele>234</ele>
        <time>2023-05-30T07:07:22.000Z</time>
      </trkpt>
      <trkpt lat="46.66611" lon="3.43795">
        <ele>234</ele>
        <time>2023-05-30T07:07:25.000Z</time>
      </trkpt>
      <trkpt lat="46.66571" lon="3.43852">
        <ele>234</ele>
        <time>2023-05-30T07:07:34.000Z</time>
      </trkpt>
      <trkpt lat="46.66567" lon="3.43858">
        <ele>233.80000305176</ele>
        <time>2023-05-30T07:07:35.000Z</time>
      </trkpt>
      <trkpt lat="46.66529" lon="3.43913">
        <ele>233.80000305176</ele>
        <time>2023-05-30T07:07:44.000Z</time>
      </trkpt>
      <trkpt lat="46.66489" lon="3.43969">
        <ele>233.60000610352</ele>
        <time>2023-05-30T07:07:53.000Z</time>
      </trkpt>
      <trkpt lat="46.66482" lon="3.4398">
        <ele>233.60000610352</ele>
        <time>2023-05-30T07:07:55.000Z</time>
      </trkpt>
      <trkpt lat="46.66442" lon="3.44038">
        <ele>233.39999389648</ele>
        <time>2023-05-30T07:08:04.000Z</time>
      </trkpt>
      <trkpt lat="46.66425" lon="3.44063">
        <ele>233.39999389648</ele>
        <time>2023-05-30T07:08:08.000Z</time>
      </trkpt>
      <trkpt lat="46.66391" lon="3.44113">
        <ele>233.39999389648</ele>
        <time>2023-05-30T07:08:16.000Z</time>
      </trkpt>
      <trkpt lat="46.66357" lon="3.44162">
        <ele>233.39999389648</ele>
        <time>2023-05-30T07:08:24.000Z</time>
      </trkpt>
      <trkpt lat="46.66338" lon="3.44189">
        <ele>233.39999389648</ele>
        <time>2023-05-30T07:08:28.000Z</time>
      </trkpt>
      <trkpt lat="46.66316" lon="3.44221">
        <ele>233.19999694824</ele>
        <time>2023-05-30T07:08:33.000Z</time>
      </trkpt>
      <trkpt lat="46.66307" lon="3.44233">
        <ele>232.80000305176</ele>
        <time>2023-05-30T07:08:35.000Z</time>
      </trkpt>
      <trkpt lat="46.66268" lon="3.4429">
        <ele>232.39999389648</ele>
        <time>2023-05-30T07:08:44.000Z</time>
      </trkpt>
      <trkpt lat="46.66264" lon="3.44296">
        <ele>232.39999389648</ele>
        <time>2023-05-30T07:08:45.000Z</time>
      </trkpt>
      <trkpt lat="46.66248" lon="3.44313">
        <ele>232.39999389648</ele>
        <time>2023-05-30T07:08:49.000Z</time>
      </trkpt>
      <trkpt lat="46.66244" lon="3.44319">
        <ele>232.60000610352</ele>
        <time>2023-05-30T07:08:50.000Z</time>
      </trkpt>
      <trkpt lat="46.66238" lon="3.4433">
        <ele>232.80000305176</ele>
        <time>2023-05-30T07:08:52.000Z</time>
      </trkpt>
      <trkpt lat="46.66223" lon="3.44353">
        <ele>233</ele>
        <time>2023-05-30T07:08:56.000Z</time>
      </trkpt>
      <trkpt lat="46.6619" lon="3.44402">
        <ele>233.19999694824</ele>
        <time>2023-05-30T07:09:04.000Z</time>
      </trkpt>
      <trkpt lat="46.66148" lon="3.44462">
        <ele>233.60000610352</ele>
        <time>2023-05-30T07:09:14.000Z</time>
      </trkpt>
      <trkpt lat="46.66144" lon="3.44468">
        <ele>233.60000610352</ele>
        <time>2023-05-30T07:09:15.000Z</time>
      </trkpt>
      <trkpt lat="46.66141" lon="3.44475">
        <ele>233.60000610352</ele>
        <time>2023-05-30T07:09:16.000Z</time>
      </trkpt>
      <trkpt lat="46.66138" lon="3.44482">
        <ele>233.39999389648</ele>
        <time>2023-05-30T07:09:17.000Z</time>
      </trkpt>
      <trkpt lat="46.66128" lon="3.44514">
        <ele>233.39999389648</ele>
        <time>2023-05-30T07:09:21.000Z</time>
      </trkpt>
      <trkpt lat="46.6612" lon="3.44557">
        <ele>233.39999389648</ele>
        <time>2023-05-30T07:09:26.000Z</time>
      </trkpt>
      <trkpt lat="46.66116" lon="3.44573">
        <ele>233.39999389648</ele>
        <time>2023-05-30T07:09:28.000Z</time>
      </trkpt>
      <trkpt lat="46.6611" lon="3.44589">
        <ele>233.39999389648</ele>
        <time>2023-05-30T07:09:30.000Z</time>
      </trkpt>
      <trkpt lat="46.66106" lon="3.44614">
        <ele>233.19999694824</ele>
        <time>2023-05-30T07:09:33.000Z</time>
      </trkpt>
      <trkpt lat="46.66101" lon="3.44631">
        <ele>233</ele>
        <time>2023-05-30T07:09:35.000Z</time>
      </trkpt>
      <trkpt lat="46.66091" lon="3.44674">
        <ele>232.80000305176</ele>
        <time>2023-05-30T07:09:40.000Z</time>
      </trkpt>
      <trkpt lat="46.66082" lon="3.44705">
        <ele>232.60000610352</ele>
        <time>2023-05-30T07:09:44.000Z</time>
      </trkpt>
      <trkpt lat="46.66075" lon="3.4472">
        <ele>232.60000610352</ele>
        <time>2023-05-30T07:09:46.000Z</time>
      </trkpt>
      <trkpt lat="46.66041" lon="3.44782">
        <ele>232.60000610352</ele>
        <time>2023-05-30T07:09:55.000Z</time>
      </trkpt>
      <trkpt lat="46.66037" lon="3.44789">
        <ele>232.60000610352</ele>
        <time>2023-05-30T07:09:56.000Z</time>
      </trkpt>
      <trkpt lat="46.66001" lon="3.44848">
        <ele>232.60000610352</ele>
        <time>2023-05-30T07:10:05.000Z</time>
      </trkpt>
      <trkpt lat="46.65998" lon="3.44854">
        <ele>232.60000610352</ele>
        <time>2023-05-30T07:10:06.000Z</time>
      </trkpt>
      <trkpt lat="46.65968" lon="3.44905">
        <ele>232.80000305176</ele>
        <time>2023-05-30T07:10:14.000Z</time>
      </trkpt>
      <trkpt lat="46.65935" lon="3.44967">
        <ele>233</ele>
        <time>2023-05-30T07:10:23.000Z</time>
      </trkpt>
      <trkpt lat="46.65922" lon="3.45013">
        <ele>233.80000305176</ele>
        <time>2023-05-30T07:10:29.000Z</time>
      </trkpt>
      <trkpt lat="46.65919" lon="3.45021">
        <ele>234</ele>
        <time>2023-05-30T07:10:30.000Z</time>
      </trkpt>
      <trkpt lat="46.65905" lon="3.45066">
        <ele>234.19999694824</ele>
        <time>2023-05-30T07:10:36.000Z</time>
      </trkpt>
      <trkpt lat="46.65879" lon="3.45125">
        <ele>234</ele>
        <time>2023-05-30T07:10:44.000Z</time>
      </trkpt>
      <trkpt lat="46.6585" lon="3.4518">
        <ele>233.80000305176</ele>
        <time>2023-05-30T07:10:52.000Z</time>
      </trkpt>
      <trkpt lat="46.6583" lon="3.452">
        <ele>233.80000305176</ele>
        <time>2023-05-30T07:10:56.000Z</time>
      </trkpt>
      <trkpt lat="46.65824" lon="3.45204">
        <ele>233.80000305176</ele>
        <time>2023-05-30T07:10:57.000Z</time>
      </trkpt>
      <trkpt lat="46.6579" lon="3.45222">
        <ele>233.39999389648</ele>
        <time>2023-05-30T07:11:03.000Z</time>
      </trkpt>
      <trkpt lat="46.6576" lon="3.45238">
        <ele>233</ele>
        <time>2023-05-30T07:11:08.000Z</time>
      </trkpt>
      <trkpt lat="46.65736" lon="3.45252">
        <ele>232.60000610352</ele>
        <time>2023-05-30T07:11:12.000Z</time>
      </trkpt>
      <trkpt lat="46.6569" lon="3.45279">
        <ele>232</ele>
        <time>2023-05-30T07:11:20.000Z</time>
      </trkpt>
      <trkpt lat="46.65684" lon="3.45283">
        <ele>231.80000305176</ele>
        <time>2023-05-30T07:11:21.000Z</time>
      </trkpt>
      <trkpt lat="46.65648" lon="3.45306">
        <ele>231.39999389648</ele>
        <time>2023-05-30T07:11:27.000Z</time>
      </trkpt>
      <trkpt lat="46.65626" lon="3.4532">
        <ele>230.80000305176</ele>
        <time>2023-05-30T07:11:31.000Z</time>
      </trkpt>
      <trkpt lat="46.65603" lon="3.45335">
        <ele>230.60000610352</ele>
        <time>2023-05-30T07:11:35.000Z</time>
      </trkpt>
      <trkpt lat="46.65557" lon="3.45363">
        <ele>229.80000305176</ele>
        <time>2023-05-30T07:11:43.000Z</time>
      </trkpt>
      <trkpt lat="46.6555" lon="3.45368">
        <ele>229.80000305176</ele>
        <time>2023-05-30T07:11:44.000Z</time>
      </trkpt>
      <trkpt lat="46.65501" lon="3.45395">
        <ele>228.80000305176</ele>
        <time>2023-05-30T07:11:52.000Z</time>
      </trkpt>
      <trkpt lat="46.65491" lon="3.45401">
        <ele>228.60000610352</ele>
        <time>2023-05-30T07:11:54.000Z</time>
      </trkpt>
      <trkpt lat="46.65459" lon="3.45418">
        <ele>228.39999389648</ele>
        <time>2023-05-30T07:11:59.000Z</time>
      </trkpt>
      <trkpt lat="46.6542" lon="3.45435">
        <ele>227.60000610352</ele>
        <time>2023-05-30T07:12:05.000Z</time>
      </trkpt>
      <trkpt lat="46.65407" lon="3.4544">
        <ele>227.19999694824</ele>
        <time>2023-05-30T07:12:07.000Z</time>
      </trkpt>
      <trkpt lat="46.65389" lon="3.45449">
        <ele>226.60000610352</ele>
        <time>2023-05-30T07:12:10.000Z</time>
      </trkpt>
      <trkpt lat="46.65369" lon="3.45459">
        <ele>226</ele>
        <time>2023-05-30T07:12:13.000Z</time>
      </trkpt>
      <trkpt lat="46.65335" lon="3.4548">
        <ele>225.60000610352</ele>
        <time>2023-05-30T07:12:19.000Z</time>
      </trkpt>
      <trkpt lat="46.65319" lon="3.4549">
        <ele>225.80000305176</ele>
        <time>2023-05-30T07:12:22.000Z</time>
      </trkpt>
      <trkpt lat="46.6528" lon="3.45512">
        <ele>225.80000305176</ele>
        <time>2023-05-30T07:12:29.000Z</time>
      </trkpt>
      <trkpt lat="46.65258" lon="3.45525">
        <ele>226.80000305176</ele>
        <time>2023-05-30T07:12:33.000Z</time>
      </trkpt>
      <trkpt lat="46.65239" lon="3.45534">
        <ele>227.39999389648</ele>
        <time>2023-05-30T07:12:37.000Z</time>
      </trkpt>
      <trkpt lat="46.6523" lon="3.45537">
        <ele>227.80000305176</ele>
        <time>2023-05-30T07:12:39.000Z</time>
      </trkpt>
      <trkpt lat="46.65211" lon="3.45544">
        <ele>228.60000610352</ele>
        <time>2023-05-30T07:12:43.000Z</time>
      </trkpt>
      <trkpt lat="46.65207" lon="3.45545">
        <ele>229</ele>
        <time>2023-05-30T07:12:44.000Z</time>
      </trkpt>
      <trkpt lat="46.65182" lon="3.45553">
        <ele>230.19999694824</ele>
        <time>2023-05-30T07:12:49.000Z</time>
      </trkpt>
      <trkpt lat="46.65177" lon="3.45555">
        <ele>230.39999389648</ele>
        <time>2023-05-30T07:12:50.000Z</time>
      </trkpt>
      <trkpt lat="46.65137" lon="3.45573">
        <ele>231.19999694824</ele>
        <time>2023-05-30T07:12:58.000Z</time>
      </trkpt>
      <trkpt lat="46.65128" lon="3.45578">
        <ele>231.39999389648</ele>
        <time>2023-05-30T07:13:00.000Z</time>
      </trkpt>
      <trkpt lat="46.65106" lon="3.45596">
        <ele>232.19999694824</ele>
        <time>2023-05-30T07:13:05.000Z</time>
      </trkpt>
      <trkpt lat="46.65096" lon="3.45606">
        <ele>232.39999389648</ele>
        <time>2023-05-30T07:13:07.000Z</time>
      </trkpt>
      <trkpt lat="46.6507" lon="3.45633">
        <ele>233.19999694824</ele>
        <time>2023-05-30T07:13:14.000Z</time>
      </trkpt>
      <trkpt lat="46.65062" lon="3.45641">
        <ele>233.19999694824</ele>
        <time>2023-05-30T07:13:15.000Z</time>
      </trkpt>
      <trkpt lat="46.6503" lon="3.45674">
        <ele>233.60000610352</ele>
        <time>2023-05-30T07:13:22.000Z</time>
      </trkpt>
      <trkpt lat="46.64994" lon="3.45708">
        <ele>233.80000305176</ele>
        <time>2023-05-30T07:13:30.000Z</time>
      </trkpt>
      <trkpt lat="46.64952" lon="3.45745">
        <ele>234.19999694824</ele>
        <time>2023-05-30T07:13:39.000Z</time>
      </trkpt>
      <trkpt lat="46.64937" lon="3.45756">
        <ele>234.19999694824</ele>
        <time>2023-05-30T07:13:42.000Z</time>
      </trkpt>
      <trkpt lat="46.64904" lon="3.45782">
        <ele>235</ele>
        <time>2023-05-30T07:13:49.000Z</time>
      </trkpt>
      <trkpt lat="46.64894" lon="3.45789">
        <ele>235.39999389648</ele>
        <time>2023-05-30T07:13:51.000Z</time>
      </trkpt>
      <trkpt lat="46.64858" lon="3.4582">
        <ele>236.19999694824</ele>
        <time>2023-05-30T07:13:59.000Z</time>
      </trkpt>
      <trkpt lat="46.64853" lon="3.45824">
        <ele>236.39999389648</ele>
        <time>2023-05-30T07:14:00.000Z</time>
      </trkpt>
      <trkpt lat="46.64814" lon="3.45861">
        <ele>236.60000610352</ele>
        <time>2023-05-30T07:14:08.000Z</time>
      </trkpt>
      <trkpt lat="46.64783" lon="3.45897">
        <ele>236.80000305176</ele>
        <time>2023-05-30T07:14:15.000Z</time>
      </trkpt>
      <trkpt lat="46.64749" lon="3.45948">
        <ele>236.39999389648</ele>
        <time>2023-05-30T07:14:23.000Z</time>
      </trkpt>
      <trkpt lat="46.64724" lon="3.45986">
        <ele>236</ele>
        <time>2023-05-30T07:14:29.000Z</time>
      </trkpt>
      <trkpt lat="46.64719" lon="3.45992">
        <ele>236</ele>
        <time>2023-05-30T07:14:30.000Z</time>
      </trkpt>
      <trkpt lat="46.64702" lon="3.46019">
        <ele>235.60000610352</ele>
        <time>2023-05-30T07:14:34.000Z</time>
      </trkpt>
      <trkpt lat="46.64694" lon="3.46033">
        <ele>235.39999389648</ele>
        <time>2023-05-30T07:14:36.000Z</time>
      </trkpt>
      <trkpt lat="46.6469" lon="3.46039">
        <ele>235.39999389648</ele>
        <time>2023-05-30T07:14:37.000Z</time>
      </trkpt>
      <trkpt lat="46.64685" lon="3.46047">
        <ele>235.39999389648</ele>
        <time>2023-05-30T07:14:38.000Z</time>
      </trkpt>
      <trkpt lat="46.64665" lon="3.46079">
        <ele>235</ele>
        <time>2023-05-30T07:14:43.000Z</time>
      </trkpt>
      <trkpt lat="46.6464" lon="3.46126">
        <ele>234.60000610352</ele>
        <time>2023-05-30T07:14:50.000Z</time>
      </trkpt>
      <trkpt lat="46.64631" lon="3.4615">
        <ele>234.39999389648</ele>
        <time>2023-05-30T07:14:53.000Z</time>
      </trkpt>
      <trkpt lat="46.6462" lon="3.46182">
        <ele>233.60000610352</ele>
        <time>2023-05-30T07:14:57.000Z</time>
      </trkpt>
      <trkpt lat="46.64616" lon="3.46199">
        <ele>233.39999389648</ele>
        <time>2023-05-30T07:14:59.000Z</time>
      </trkpt>
      <trkpt lat="46.64611" lon="3.46233">
        <ele>232.80000305176</ele>
        <time>2023-05-30T07:15:03.000Z</time>
      </trkpt>
      <trkpt lat="46.6461" lon="3.46251">
        <ele>232.80000305176</ele>
        <time>2023-05-30T07:15:05.000Z</time>
      </trkpt>
      <trkpt lat="46.64611" lon="3.46267">
        <ele>232.60000610352</ele>
        <time>2023-05-30T07:15:07.000Z</time>
      </trkpt>
      <trkpt lat="46.64612" lon="3.46275">
        <ele>232.39999389648</ele>
        <time>2023-05-30T07:15:08.000Z</time>
      </trkpt>
      <trkpt lat="46.64613" lon="3.46283">
        <ele>232.19999694824</ele>
        <time>2023-05-30T07:15:09.000Z</time>
      </trkpt>
      <trkpt lat="46.64627" lon="3.46328">
        <ele>231.60000610352</ele>
        <time>2023-05-30T07:15:14.000Z</time>
      </trkpt>
      <trkpt lat="46.6463" lon="3.46355">
        <ele>231.19999694824</ele>
        <time>2023-05-30T07:15:17.000Z</time>
      </trkpt>
      <trkpt lat="46.64627" lon="3.46382">
        <ele>230.80000305176</ele>
        <time>2023-05-30T07:15:20.000Z</time>
      </trkpt>
      <trkpt lat="46.6463" lon="3.4642">
        <ele>230.39999389648</ele>
        <time>2023-05-30T07:15:24.000Z</time>
      </trkpt>
      <trkpt lat="46.64632" lon="3.46445">
        <ele>230.19999694824</ele>
        <time>2023-05-30T07:15:27.000Z</time>
      </trkpt>
      <trkpt lat="46.64635" lon="3.46501">
        <ele>230</ele>
        <time>2023-05-30T07:15:33.000Z</time>
      </trkpt>
      <trkpt lat="46.64635" lon="3.46518">
        <ele>229.80000305176</ele>
        <time>2023-05-30T07:15:35.000Z</time>
      </trkpt>
      <trkpt lat="46.64636" lon="3.46537">
        <ele>229.60000610352</ele>
        <time>2023-05-30T07:15:37.000Z</time>
      </trkpt>
      <trkpt lat="46.64636" lon="3.46547">
        <ele>229.60000610352</ele>
        <time>2023-05-30T07:15:38.000Z</time>
      </trkpt>
      <trkpt lat="46.64639" lon="3.46565">
        <ele>229</ele>
        <time>2023-05-30T07:15:40.000Z</time>
      </trkpt>
      <trkpt lat="46.64648" lon="3.4659">
        <ele>228.60000610352</ele>
        <time>2023-05-30T07:15:43.000Z</time>
      </trkpt>
      <trkpt lat="46.6466" lon="3.46614">
        <ele>228.39999389648</ele>
        <time>2023-05-30T07:15:46.000Z</time>
      </trkpt>
      <trkpt lat="46.64671" lon="3.46629">
        <ele>228</ele>
        <time>2023-05-30T07:15:48.000Z</time>
      </trkpt>
      <trkpt lat="46.64691" lon="3.46667">
        <ele>227</ele>
        <time>2023-05-30T07:15:53.000Z</time>
      </trkpt>
      <trkpt lat="46.64703" lon="3.4669">
        <ele>226.80000305176</ele>
        <time>2023-05-30T07:15:56.000Z</time>
      </trkpt>
      <trkpt lat="46.64707" lon="3.46698">
        <ele>226.80000305176</ele>
        <time>2023-05-30T07:15:57.000Z</time>
      </trkpt>
      <trkpt lat="46.64741" lon="3.46747">
        <ele>226.19999694824</ele>
        <time>2023-05-30T07:16:05.000Z</time>
      </trkpt>
      <trkpt lat="46.64762" lon="3.46767">
        <ele>226</ele>
        <time>2023-05-30T07:16:09.000Z</time>
      </trkpt>
      <trkpt lat="46.64777" lon="3.46783">
        <ele>225.60000610352</ele>
        <time>2023-05-30T07:16:12.000Z</time>
      </trkpt>
      <trkpt lat="46.64782" lon="3.4679">
        <ele>225.39999389648</ele>
        <time>2023-05-30T07:16:13.000Z</time>
      </trkpt>
      <trkpt lat="46.64808" lon="3.46836">
        <ele>225</ele>
        <time>2023-05-30T07:16:19.000Z</time>
      </trkpt>
      <trkpt lat="46.64812" lon="3.46844">
        <ele>225</ele>
        <time>2023-05-30T07:16:20.000Z</time>
      </trkpt>
      <trkpt lat="46.64824" lon="3.46877">
        <ele>224.19999694824</ele>
        <time>2023-05-30T07:16:24.000Z</time>
      </trkpt>
      <trkpt lat="46.64826" lon="3.46887">
        <ele>223.80000305176</ele>
        <time>2023-05-30T07:16:25.000Z</time>
      </trkpt>
      <trkpt lat="46.6483" lon="3.46941">
        <ele>223.19999694824</ele>
        <time>2023-05-30T07:16:31.000Z</time>
      </trkpt>
      <trkpt lat="46.6483" lon="3.4695">
        <ele>223</ele>
        <time>2023-05-30T07:16:32.000Z</time>
      </trkpt>
      <trkpt lat="46.64828" lon="3.46967">
        <ele>222.80000305176</ele>
        <time>2023-05-30T07:16:34.000Z</time>
      </trkpt>
      <trkpt lat="46.64826" lon="3.46985">
        <ele>222.80000305176</ele>
        <time>2023-05-30T07:16:36.000Z</time>
      </trkpt>
      <trkpt lat="46.64824" lon="3.46994">
        <ele>222.80000305176</ele>
        <time>2023-05-30T07:16:37.000Z</time>
      </trkpt>
      <trkpt lat="46.64813" lon="3.47041">
        <ele>222.60000610352</ele>
        <time>2023-05-30T07:16:42.000Z</time>
      </trkpt>
      <trkpt lat="46.64795" lon="3.47116">
        <ele>221.80000305176</ele>
        <time>2023-05-30T07:16:50.000Z</time>
      </trkpt>
      <trkpt lat="46.64793" lon="3.47124">
        <ele>221.80000305176</ele>
        <time>2023-05-30T07:16:51.000Z</time>
      </trkpt>
      <trkpt lat="46.6478" lon="3.4718">
        <ele>220.60000610352</ele>
        <time>2023-05-30T07:16:57.000Z</time>
      </trkpt>
      <trkpt lat="46.64778" lon="3.47191">
        <ele>220.39999389648</ele>
        <time>2023-05-30T07:16:58.000Z</time>
      </trkpt>
      <trkpt lat="46.64763" lon="3.47258">
        <ele>219.60000610352</ele>
        <time>2023-05-30T07:17:05.000Z</time>
      </trkpt>
      <trkpt lat="46.64755" lon="3.47294">
        <ele>219.19999694824</ele>
        <time>2023-05-30T07:17:09.000Z</time>
      </trkpt>
      <trkpt lat="46.64741" lon="3.47357">
        <ele>219</ele>
        <time>2023-05-30T07:17:16.000Z</time>
      </trkpt>
      <trkpt lat="46.6472" lon="3.47437">
        <ele>219</ele>
        <time>2023-05-30T07:17:25.000Z</time>
      </trkpt>
      <trkpt lat="46.64718" lon="3.47443">
        <ele>219</ele>
        <time>2023-05-30T07:17:26.000Z</time>
      </trkpt>
      <trkpt lat="46.64699" lon="3.47525">
        <ele>219.60000610352</ele>
        <time>2023-05-30T07:17:36.000Z</time>
      </trkpt>
      <trkpt lat="46.64688" lon="3.47577">
        <ele>220.39999389648</ele>
        <time>2023-05-30T07:17:43.000Z</time>
      </trkpt>
      <trkpt lat="46.64685" lon="3.47592">
        <ele>220.60000610352</ele>
        <time>2023-05-30T07:17:45.000Z</time>
      </trkpt>
      <trkpt lat="46.64681" lon="3.4762">
        <ele>221.60000610352</ele>
        <time>2023-05-30T07:17:49.000Z</time>
      </trkpt>
      <trkpt lat="46.64681" lon="3.47626">
        <ele>221.80000305176</ele>
        <time>2023-05-30T07:17:50.000Z</time>
      </trkpt>
      <trkpt lat="46.64675" lon="3.47662">
        <ele>222.80000305176</ele>
        <time>2023-05-30T07:17:55.000Z</time>
      </trkpt>
      <trkpt lat="46.6467" lon="3.47684">
        <ele>223.39999389648</ele>
        <time>2023-05-30T07:17:58.000Z</time>
      </trkpt>
      <trkpt lat="46.64668" lon="3.47691">
        <ele>223.80000305176</ele>
        <time>2023-05-30T07:17:59.000Z</time>
      </trkpt>
      <trkpt lat="46.64654" lon="3.47732">
        <ele>224.80000305176</ele>
        <time>2023-05-30T07:18:05.000Z</time>
      </trkpt>
      <trkpt lat="46.64652" lon="3.47738">
        <ele>225</ele>
        <time>2023-05-30T07:18:06.000Z</time>
      </trkpt>
      <trkpt lat="46.64642" lon="3.47763">
        <ele>226</ele>
        <time>2023-05-30T07:18:10.000Z</time>
      </trkpt>
      <trkpt lat="46.6463" lon="3.47794">
        <ele>227</ele>
        <time>2023-05-30T07:18:15.000Z</time>
      </trkpt>
      <trkpt lat="46.64627" lon="3.47801">
        <ele>227</ele>
        <time>2023-05-30T07:18:16.000Z</time>
      </trkpt>
      <trkpt lat="46.64615" lon="3.4783">
        <ele>228.19999694824</ele>
        <time>2023-05-30T07:18:21.000Z</time>
      </trkpt>
      <trkpt lat="46.64608" lon="3.47849">
        <ele>228.39999389648</ele>
        <time>2023-05-30T07:18:24.000Z</time>
      </trkpt>
      <trkpt lat="46.64591" lon="3.47891">
        <ele>229.19999694824</ele>
        <time>2023-05-30T07:18:31.000Z</time>
      </trkpt>
      <trkpt lat="46.64585" lon="3.47904">
        <ele>229.80000305176</ele>
        <time>2023-05-30T07:18:33.000Z</time>
      </trkpt>
      <trkpt lat="46.64572" lon="3.47939">
        <ele>230.19999694824</ele>
        <time>2023-05-30T07:18:38.000Z</time>
      </trkpt>
      <trkpt lat="46.64564" lon="3.47958">
        <ele>230.60000610352</ele>
        <time>2023-05-30T07:18:41.000Z</time>
      </trkpt>
      <trkpt lat="46.64547" lon="3.48005">
        <ele>230.80000305176</ele>
        <time>2023-05-30T07:18:48.000Z</time>
      </trkpt>
      <trkpt lat="46.64535" lon="3.48032">
        <ele>231.39999389648</ele>
        <time>2023-05-30T07:18:52.000Z</time>
      </trkpt>
      <trkpt lat="46.64532" lon="3.48039">
        <ele>231.60000610352</ele>
        <time>2023-05-30T07:18:53.000Z</time>
      </trkpt>
      <trkpt lat="46.64525" lon="3.48059">
        <ele>232.19999694824</ele>
        <time>2023-05-30T07:18:56.000Z</time>
      </trkpt>
      <trkpt lat="46.64518" lon="3.48079">
        <ele>232.60000610352</ele>
        <time>2023-05-30T07:18:59.000Z</time>
      </trkpt>
      <trkpt lat="46.645" lon="3.48119">
        <ele>233.39999389648</ele>
        <time>2023-05-30T07:19:05.000Z</time>
      </trkpt>
      <trkpt lat="46.64492" lon="3.48139">
        <ele>233.60000610352</ele>
        <time>2023-05-30T07:19:08.000Z</time>
      </trkpt>
      <trkpt lat="46.64483" lon="3.48167">
        <ele>234</ele>
        <time>2023-05-30T07:19:12.000Z</time>
      </trkpt>
      <trkpt lat="46.64462" lon="3.4822">
        <ele>234.60000610352</ele>
        <time>2023-05-30T07:19:20.000Z</time>
      </trkpt>
      <trkpt lat="46.64456" lon="3.48235">
        <ele>234.80000305176</ele>
        <time>2023-05-30T07:19:22.000Z</time>
      </trkpt>
      <trkpt lat="46.6444" lon="3.48277">
        <ele>235.39999389648</ele>
        <time>2023-05-30T07:19:29.000Z</time>
      </trkpt>
      <trkpt lat="46.64438" lon="3.48282">
        <ele>235.80000305176</ele>
        <time>2023-05-30T07:19:31.000Z</time>
      </trkpt>
      <trkpt lat="46.64437" lon="3.48285">
        <ele>235.80000305176</ele>
        <time>2023-05-30T07:19:33.000Z</time>
      </trkpt>
      <trkpt lat="46.64432" lon="3.48303">
        <ele>235.80000305176</ele>
        <time>2023-05-30T07:19:38.000Z</time>
      </trkpt>
      <trkpt lat="46.64419" lon="3.48342">
        <ele>236</ele>
        <time>2023-05-30T07:19:45.000Z</time>
      </trkpt>
      <trkpt lat="46.64407" lon="3.48368">
        <ele>236.80000305176</ele>
        <time>2023-05-30T07:19:51.000Z</time>
      </trkpt>
      <trkpt lat="46.64406" lon="3.4837">
        <ele>236.80000305176</ele>
        <time>2023-05-30T07:19:52.000Z</time>
      </trkpt>
      <trkpt lat="46.64406" lon="3.48371">
        <ele>237</ele>
        <time>2023-05-30T07:19:54.000Z</time>
      </trkpt>
      <trkpt lat="46.64405" lon="3.4838">
        <ele>237.19999694824</ele>
        <time>2023-05-30T07:20:03.000Z</time>
      </trkpt>
      <trkpt lat="46.64396" lon="3.48401">
        <ele>237.19999694824</ele>
        <time>2023-05-30T07:20:08.000Z</time>
      </trkpt>
      <trkpt lat="46.64384" lon="3.48433">
        <ele>237.39999389648</ele>
        <time>2023-05-30T07:20:14.000Z</time>
      </trkpt>
      <trkpt lat="46.6437" lon="3.48466">
        <ele>237.80000305176</ele>
        <time>2023-05-30T07:20:20.000Z</time>
      </trkpt>
      <trkpt lat="46.64368" lon="3.48471">
        <ele>237.80000305176</ele>
        <time>2023-05-30T07:20:21.000Z</time>
      </trkpt>
      <trkpt lat="46.64345" lon="3.4853">
        <ele>238.39999389648</ele>
        <time>2023-05-30T07:20:31.000Z</time>
      </trkpt>
      <trkpt lat="46.64324" lon="3.48584">
        <ele>238</ele>
        <time>2023-05-30T07:20:40.000Z</time>
      </trkpt>
      <trkpt lat="46.64306" lon="3.48631">
        <ele>238.39999389648</ele>
        <time>2023-05-30T07:20:48.000Z</time>
      </trkpt>
      <trkpt lat="46.64299" lon="3.48647">
        <ele>238.39999389648</ele>
        <time>2023-05-30T07:20:51.000Z</time>
      </trkpt>
      <trkpt lat="46.64293" lon="3.48665">
        <ele>238.39999389648</ele>
        <time>2023-05-30T07:20:54.000Z</time>
      </trkpt>
      <trkpt lat="46.64291" lon="3.4867">
        <ele>238.60000610352</ele>
        <time>2023-05-30T07:20:55.000Z</time>
      </trkpt>
      <trkpt lat="46.64277" lon="3.48705">
        <ele>239</ele>
        <time>2023-05-30T07:21:01.000Z</time>
      </trkpt>
      <trkpt lat="46.64275" lon="3.48711">
        <ele>239</ele>
        <time>2023-05-30T07:21:02.000Z</time>
      </trkpt>
      <trkpt lat="46.64257" lon="3.48759">
        <ele>239.39999389648</ele>
        <time>2023-05-30T07:21:10.000Z</time>
      </trkpt>
      <trkpt lat="46.64247" lon="3.48783">
        <ele>239.80000305176</ele>
        <time>2023-05-30T07:21:14.000Z</time>
      </trkpt>
      <trkpt lat="46.6424" lon="3.48799">
        <ele>239.80000305176</ele>
        <time>2023-05-30T07:21:17.000Z</time>
      </trkpt>
      <trkpt lat="46.64234" lon="3.48817">
        <ele>240</ele>
        <time>2023-05-30T07:21:20.000Z</time>
      </trkpt>
      <trkpt lat="46.64221" lon="3.48854">
        <ele>240.19999694824</ele>
        <time>2023-05-30T07:21:26.000Z</time>
      </trkpt>
      <trkpt lat="46.64206" lon="3.48893">
        <ele>240.39999389648</ele>
        <time>2023-05-30T07:21:33.000Z</time>
      </trkpt>
      <trkpt lat="46.64189" lon="3.48936">
        <ele>241</ele>
        <time>2023-05-30T07:21:41.000Z</time>
      </trkpt>
      <trkpt lat="46.6418" lon="3.48958">
        <ele>241.60000610352</ele>
        <time>2023-05-30T07:21:45.000Z</time>
      </trkpt>
      <trkpt lat="46.64174" lon="3.48975">
        <ele>242.19999694824</ele>
        <time>2023-05-30T07:21:48.000Z</time>
      </trkpt>
      <trkpt lat="46.6416" lon="3.49008">
        <ele>242.60000610352</ele>
        <time>2023-05-30T07:21:54.000Z</time>
      </trkpt>
      <trkpt lat="46.6414" lon="3.49052">
        <ele>243.19999694824</ele>
        <time>2023-05-30T07:22:02.000Z</time>
      </trkpt>
      <trkpt lat="46.64136" lon="3.49066">
        <ele>243.39999389648</ele>
        <time>2023-05-30T07:22:04.000Z</time>
      </trkpt>
      <trkpt lat="46.64133" lon="3.49078">
        <ele>243.60000610352</ele>
        <time>2023-05-30T07:22:06.000Z</time>
      </trkpt>
      <trkpt lat="46.64129" lon="3.49106">
        <ele>243.60000610352</ele>
        <time>2023-05-30T07:22:10.000Z</time>
      </trkpt>
      <trkpt lat="46.64129" lon="3.49112">
        <ele>243.80000305176</ele>
        <time>2023-05-30T07:22:11.000Z</time>
      </trkpt>
      <trkpt lat="46.64129" lon="3.49145">
        <ele>243.80000305176</ele>
        <time>2023-05-30T07:22:16.000Z</time>
      </trkpt>
      <trkpt lat="46.64129" lon="3.49215">
        <ele>244.19999694824</ele>
        <time>2023-05-30T07:22:26.000Z</time>
      </trkpt>
      <trkpt lat="46.64129" lon="3.49222">
        <ele>244.19999694824</ele>
        <time>2023-05-30T07:22:27.000Z</time>
      </trkpt>
      <trkpt lat="46.64127" lon="3.49301">
        <ele>244.80000305176</ele>
        <time>2023-05-30T07:22:38.000Z</time>
      </trkpt>
      <trkpt lat="46.64127" lon="3.49307">
        <ele>244.80000305176</ele>
        <time>2023-05-30T07:22:39.000Z</time>
      </trkpt>
      <trkpt lat="46.64127" lon="3.49314">
        <ele>244.80000305176</ele>
        <time>2023-05-30T07:22:40.000Z</time>
      </trkpt>
      <trkpt lat="46.64129" lon="3.49338">
        <ele>244.80000305176</ele>
        <time>2023-05-30T07:22:43.000Z</time>
      </trkpt>
      <trkpt lat="46.64132" lon="3.49353">
        <ele>245</ele>
        <time>2023-05-30T07:22:45.000Z</time>
      </trkpt>
      <trkpt lat="46.64134" lon="3.4936">
        <ele>245</ele>
        <time>2023-05-30T07:22:46.000Z</time>
      </trkpt>
      <trkpt lat="46.64145" lon="3.49392">
        <ele>245.19999694824</ele>
        <time>2023-05-30T07:22:51.000Z</time>
      </trkpt>
      <trkpt lat="46.64162" lon="3.4944">
        <ele>245</ele>
        <time>2023-05-30T07:22:58.000Z</time>
      </trkpt>
      <trkpt lat="46.64181" lon="3.49499">
        <ele>244.39999389648</ele>
        <time>2023-05-30T07:23:07.000Z</time>
      </trkpt>
      <trkpt lat="46.64195" lon="3.49547">
        <ele>244.19999694824</ele>
        <time>2023-05-30T07:23:14.000Z</time>
      </trkpt>
      <trkpt lat="46.64212" lon="3.49602">
        <ele>244.19999694824</ele>
        <time>2023-05-30T07:23:22.000Z</time>
      </trkpt>
      <trkpt lat="46.64213" lon="3.4961">
        <ele>244.19999694824</ele>
        <time>2023-05-30T07:23:23.000Z</time>
      </trkpt>
      <trkpt lat="46.6421" lon="3.49622">
        <ele>244.19999694824</ele>
        <time>2023-05-30T07:23:25.000Z</time>
      </trkpt>
      <trkpt lat="46.64196" lon="3.49642">
        <ele>244</ele>
        <time>2023-05-30T07:23:29.000Z</time>
      </trkpt>
      <trkpt lat="46.6417" lon="3.4967">
        <ele>243.39999389648</ele>
        <time>2023-05-30T07:23:35.000Z</time>
      </trkpt>
      <trkpt lat="46.64165" lon="3.49675">
        <ele>243.19999694824</ele>
        <time>2023-05-30T07:23:36.000Z</time>
      </trkpt>
      <trkpt lat="46.64136" lon="3.4971">
        <ele>242.39999389648</ele>
        <time>2023-05-30T07:23:43.000Z</time>
      </trkpt>
      <trkpt lat="46.64132" lon="3.49715">
        <ele>242.39999389648</ele>
        <time>2023-05-30T07:23:44.000Z</time>
      </trkpt>
      <trkpt lat="46.641" lon="3.49751">
        <ele>241.60000610352</ele>
        <time>2023-05-30T07:23:51.000Z</time>
      </trkpt>
      <trkpt lat="46.64091" lon="3.49761">
        <ele>241.39999389648</ele>
        <time>2023-05-30T07:23:53.000Z</time>
      </trkpt>
      <trkpt lat="46.64073" lon="3.49782">
        <ele>240.80000305176</ele>
        <time>2023-05-30T07:23:57.000Z</time>
      </trkpt>
      <trkpt lat="46.6406" lon="3.49796">
        <ele>240.60000610352</ele>
        <time>2023-05-30T07:24:00.000Z</time>
      </trkpt>
      <trkpt lat="46.64048" lon="3.49811">
        <ele>240.60000610352</ele>
        <time>2023-05-30T07:24:03.000Z</time>
      </trkpt>
      <trkpt lat="46.64011" lon="3.49853">
        <ele>240.60000610352</ele>
        <time>2023-05-30T07:24:12.000Z</time>
      </trkpt>
      <trkpt lat="46.63971" lon="3.49899">
        <ele>240.39999389648</ele>
        <time>2023-05-30T07:24:22.000Z</time>
      </trkpt>
      <trkpt lat="46.63942" lon="3.49942">
        <ele>240.80000305176</ele>
        <time>2023-05-30T07:24:30.000Z</time>
      </trkpt>
      <trkpt lat="46.63925" lon="3.49969">
        <ele>240.39999389648</ele>
        <time>2023-05-30T07:24:35.000Z</time>
      </trkpt>
      <trkpt lat="46.63915" lon="3.49986">
        <ele>239.80000305176</ele>
        <time>2023-05-30T07:24:38.000Z</time>
      </trkpt>
      <trkpt lat="46.63897" lon="3.5002">
        <ele>239.39999389648</ele>
        <time>2023-05-30T07:24:44.000Z</time>
      </trkpt>
      <trkpt lat="46.63888" lon="3.50036">
        <ele>239.19999694824</ele>
        <time>2023-05-30T07:24:47.000Z</time>
      </trkpt>
      <trkpt lat="46.63885" lon="3.50041">
        <ele>239.19999694824</ele>
        <time>2023-05-30T07:24:48.000Z</time>
      </trkpt>
      <trkpt lat="46.63859" lon="3.5009">
        <ele>238.19999694824</ele>
        <time>2023-05-30T07:24:57.000Z</time>
      </trkpt>
      <trkpt lat="46.63856" lon="3.50095">
        <ele>238.19999694824</ele>
        <time>2023-05-30T07:24:58.000Z</time>
      </trkpt>
      <trkpt lat="46.63826" lon="3.50149">
        <ele>237.80000305176</ele>
        <time>2023-05-30T07:25:08.000Z</time>
      </trkpt>
      <trkpt lat="46.63801" lon="3.50199">
        <ele>237</ele>
        <time>2023-05-30T07:25:17.000Z</time>
      </trkpt>
      <trkpt lat="46.63798" lon="3.50204">
        <ele>237</ele>
        <time>2023-05-30T07:25:18.000Z</time>
      </trkpt>
      <trkpt lat="46.6377" lon="3.50251">
        <ele>236.19999694824</ele>
        <time>2023-05-30T07:25:27.000Z</time>
      </trkpt>
      <trkpt lat="46.63761" lon="3.50268">
        <ele>235.80000305176</ele>
        <time>2023-05-30T07:25:30.000Z</time>
      </trkpt>
      <trkpt lat="46.63742" lon="3.50306">
        <ele>235.19999694824</ele>
        <time>2023-05-30T07:25:37.000Z</time>
      </trkpt>
      <trkpt lat="46.63726" lon="3.5034">
        <ele>234.80000305176</ele>
        <time>2023-05-30T07:25:43.000Z</time>
      </trkpt>
      <trkpt lat="46.63715" lon="3.50362">
        <ele>234.80000305176</ele>
        <time>2023-05-30T07:25:47.000Z</time>
      </trkpt>
      <trkpt lat="46.63686" lon="3.5042">
        <ele>234.19999694824</ele>
        <time>2023-05-30T07:25:57.000Z</time>
      </trkpt>
      <trkpt lat="46.63667" lon="3.50454">
        <ele>234</ele>
        <time>2023-05-30T07:26:03.000Z</time>
      </trkpt>
      <trkpt lat="46.63658" lon="3.50472">
        <ele>233.60000610352</ele>
        <time>2023-05-30T07:26:06.000Z</time>
      </trkpt>
      <trkpt lat="46.63645" lon="3.50496">
        <ele>233.60000610352</ele>
        <time>2023-05-30T07:26:10.000Z</time>
      </trkpt>
      <trkpt lat="46.63639" lon="3.50509">
        <ele>233.60000610352</ele>
        <time>2023-05-30T07:26:12.000Z</time>
      </trkpt>
      <trkpt lat="46.63617" lon="3.50541">
        <ele>233.39999389648</ele>
        <time>2023-05-30T07:26:18.000Z</time>
      </trkpt>
      <trkpt lat="46.63613" lon="3.50547">
        <ele>233.39999389648</ele>
        <time>2023-05-30T07:26:19.000Z</time>
      </trkpt>
      <trkpt lat="46.63599" lon="3.50568">
        <ele>233.19999694824</ele>
        <time>2023-05-30T07:26:23.000Z</time>
      </trkpt>
      <trkpt lat="46.63587" lon="3.50582">
        <ele>233</ele>
        <time>2023-05-30T07:26:26.000Z</time>
      </trkpt>
      <trkpt lat="46.6358" lon="3.50592">
        <ele>232.80000305176</ele>
        <time>2023-05-30T07:26:28.000Z</time>
      </trkpt>
      <trkpt lat="46.63558" lon="3.50625">
        <ele>232.60000610352</ele>
        <time>2023-05-30T07:26:34.000Z</time>
      </trkpt>
      <trkpt lat="46.6353" lon="3.50658">
        <ele>232</ele>
        <time>2023-05-30T07:26:41.000Z</time>
      </trkpt>
      <trkpt lat="46.6352" lon="3.50666">
        <ele>231.60000610352</ele>
        <time>2023-05-30T07:26:43.000Z</time>
      </trkpt>
      <trkpt lat="46.63502" lon="3.5068">
        <ele>231.60000610352</ele>
        <time>2023-05-30T07:26:47.000Z</time>
      </trkpt>
      <trkpt lat="46.63493" lon="3.50685">
        <ele>231.60000610352</ele>
        <time>2023-05-30T07:26:49.000Z</time>
      </trkpt>
      <trkpt lat="46.63483" lon="3.5069">
        <ele>231.39999389648</ele>
        <time>2023-05-30T07:26:51.000Z</time>
      </trkpt>
      <trkpt lat="46.63469" lon="3.50695">
        <ele>231.19999694824</ele>
        <time>2023-05-30T07:26:54.000Z</time>
      </trkpt>
      <trkpt lat="46.63429" lon="3.50704">
        <ele>231.19999694824</ele>
        <time>2023-05-30T07:27:02.000Z</time>
      </trkpt>
      <trkpt lat="46.63419" lon="3.50706">
        <ele>231.19999694824</ele>
        <time>2023-05-30T07:27:04.000Z</time>
      </trkpt>
      <trkpt lat="46.63409" lon="3.5071">
        <ele>231.19999694824</ele>
        <time>2023-05-30T07:27:06.000Z</time>
      </trkpt>
      <trkpt lat="46.63399" lon="3.50716">
        <ele>231.19999694824</ele>
        <time>2023-05-30T07:27:08.000Z</time>
      </trkpt>
      <trkpt lat="46.63366" lon="3.50746">
        <ele>232</ele>
        <time>2023-05-30T07:27:16.000Z</time>
      </trkpt>
      <trkpt lat="46.63327" lon="3.50794">
        <ele>232.39999389648</ele>
        <time>2023-05-30T07:27:26.000Z</time>
      </trkpt>
      <trkpt lat="46.6329" lon="3.50841">
        <ele>232.19999694824</ele>
        <time>2023-05-30T07:27:36.000Z</time>
      </trkpt>
      <trkpt lat="46.63252" lon="3.50891">
        <ele>232</ele>
        <time>2023-05-30T07:27:46.000Z</time>
      </trkpt>
      <trkpt lat="46.63222" lon="3.50928">
        <ele>231.80000305176</ele>
        <time>2023-05-30T07:27:54.000Z</time>
      </trkpt>
      <trkpt lat="46.63199" lon="3.50956">
        <ele>231.60000610352</ele>
        <time>2023-05-30T07:28:00.000Z</time>
      </trkpt>
      <trkpt lat="46.63192" lon="3.50965">
        <ele>231.60000610352</ele>
        <time>2023-05-30T07:28:02.000Z</time>
      </trkpt>
      <trkpt lat="46.63159" lon="3.51007">
        <ele>232.19999694824</ele>
        <time>2023-05-30T07:28:11.000Z</time>
      </trkpt>
      <trkpt lat="46.63155" lon="3.51011">
        <ele>232.39999389648</ele>
        <time>2023-05-30T07:28:12.000Z</time>
      </trkpt>
      <trkpt lat="46.63148" lon="3.5102">
        <ele>232.80000305176</ele>
        <time>2023-05-30T07:28:14.000Z</time>
      </trkpt>
      <trkpt lat="46.6312" lon="3.51056">
        <ele>233.39999389648</ele>
        <time>2023-05-30T07:28:22.000Z</time>
      </trkpt>
      <trkpt lat="46.63113" lon="3.51064">
        <ele>233.60000610352</ele>
        <time>2023-05-30T07:28:24.000Z</time>
      </trkpt>
      <trkpt lat="46.63102" lon="3.51077">
        <ele>233.80000305176</ele>
        <time>2023-05-30T07:28:27.000Z</time>
      </trkpt>
      <trkpt lat="46.63094" lon="3.51087">
        <ele>234</ele>
        <time>2023-05-30T07:28:29.000Z</time>
      </trkpt>
      <trkpt lat="46.63068" lon="3.51118">
        <ele>234.60000610352</ele>
        <time>2023-05-30T07:28:37.000Z</time>
      </trkpt>
      <trkpt lat="46.63065" lon="3.51122">
        <ele>235</ele>
        <time>2023-05-30T07:28:38.000Z</time>
      </trkpt>
      <trkpt lat="46.63051" lon="3.5114">
        <ele>235.60000610352</ele>
        <time>2023-05-30T07:28:42.000Z</time>
      </trkpt>
      <trkpt lat="46.63041" lon="3.51154">
        <ele>235.80000305176</ele>
        <time>2023-05-30T07:28:45.000Z</time>
      </trkpt>
      <trkpt lat="46.63024" lon="3.51178">
        <ele>236.19999694824</ele>
        <time>2023-05-30T07:28:50.000Z</time>
      </trkpt>
      <trkpt lat="46.6301" lon="3.51199">
        <ele>236.39999389648</ele>
        <time>2023-05-30T07:28:54.000Z</time>
      </trkpt>
      <trkpt lat="46.62983" lon="3.51237">
        <ele>237</ele>
        <time>2023-05-30T07:29:01.000Z</time>
      </trkpt>
      <trkpt lat="46.62964" lon="3.51268">
        <ele>237</ele>
        <time>2023-05-30T07:29:06.000Z</time>
      </trkpt>
      <trkpt lat="46.62943" lon="3.51306">
        <ele>237.60000610352</ele>
        <time>2023-05-30T07:29:12.000Z</time>
      </trkpt>
      <trkpt lat="46.62933" lon="3.51323">
        <ele>237.60000610352</ele>
        <time>2023-05-30T07:29:15.000Z</time>
      </trkpt>
      <trkpt lat="46.62926" lon="3.51335">
        <ele>237.80000305176</ele>
        <time>2023-05-30T07:29:17.000Z</time>
      </trkpt>
      <trkpt lat="46.62923" lon="3.51342">
        <ele>237.80000305176</ele>
        <time>2023-05-30T07:29:18.000Z</time>
      </trkpt>
      <trkpt lat="46.62916" lon="3.51355">
        <ele>238.19999694824</ele>
        <time>2023-05-30T07:29:20.000Z</time>
      </trkpt>
      <trkpt lat="46.6291" lon="3.51365">
        <ele>238.19999694824</ele>
        <time>2023-05-30T07:29:22.000Z</time>
      </trkpt>
      <trkpt lat="46.62903" lon="3.51376">
        <ele>238.19999694824</ele>
        <time>2023-05-30T07:29:24.000Z</time>
      </trkpt>
      <trkpt lat="46.62893" lon="3.51397">
        <ele>238.80000305176</ele>
        <time>2023-05-30T07:29:27.000Z</time>
      </trkpt>
      <trkpt lat="46.62879" lon="3.51427">
        <ele>238.80000305176</ele>
        <time>2023-05-30T07:29:31.000Z</time>
      </trkpt>
      <trkpt lat="46.62866" lon="3.51454">
        <ele>238.80000305176</ele>
        <time>2023-05-30T07:29:35.000Z</time>
      </trkpt>
      <trkpt lat="46.62862" lon="3.51462">
        <ele>238.80000305176</ele>
        <time>2023-05-30T07:29:36.000Z</time>
      </trkpt>
      <trkpt lat="46.6285" lon="3.51482">
        <ele>238.60000610352</ele>
        <time>2023-05-30T07:29:39.000Z</time>
      </trkpt>
      <trkpt lat="46.62841" lon="3.51497">
        <ele>238.80000305176</ele>
        <time>2023-05-30T07:29:41.000Z</time>
      </trkpt>
      <trkpt lat="46.62809" lon="3.51566">
        <ele>237.80000305176</ele>
        <time>2023-05-30T07:29:50.000Z</time>
      </trkpt>
      <trkpt lat="46.62778" lon="3.51621">
        <ele>237.19999694824</ele>
        <time>2023-05-30T07:29:58.000Z</time>
      </trkpt>
      <trkpt lat="46.62747" lon="3.5168">
        <ele>236.60000610352</ele>
        <time>2023-05-30T07:30:06.000Z</time>
      </trkpt>
      <trkpt lat="46.62731" lon="3.51709">
        <ele>236</ele>
        <time>2023-05-30T07:30:10.000Z</time>
      </trkpt>
      <trkpt lat="46.62716" lon="3.51737">
        <ele>235.19999694824</ele>
        <time>2023-05-30T07:30:14.000Z</time>
      </trkpt>
      <trkpt lat="46.62709" lon="3.51752">
        <ele>234.80000305176</ele>
        <time>2023-05-30T07:30:16.000Z</time>
      </trkpt>
      <trkpt lat="46.62682" lon="3.51802">
        <ele>234.19999694824</ele>
        <time>2023-05-30T07:30:23.000Z</time>
      </trkpt>
      <trkpt lat="46.62674" lon="3.51816">
        <ele>233.80000305176</ele>
        <time>2023-05-30T07:30:25.000Z</time>
      </trkpt>
      <trkpt lat="46.62653" lon="3.5186">
        <ele>232.80000305176</ele>
        <time>2023-05-30T07:30:31.000Z</time>
      </trkpt>
      <trkpt lat="46.62647" lon="3.51874">
        <ele>232.60000610352</ele>
        <time>2023-05-30T07:30:33.000Z</time>
      </trkpt>
      <trkpt lat="46.62612" lon="3.51941">
        <ele>232</ele>
        <time>2023-05-30T07:30:42.000Z</time>
      </trkpt>
      <trkpt lat="46.62576" lon="3.52004">
        <ele>232.19999694824</ele>
        <time>2023-05-30T07:30:51.000Z</time>
      </trkpt>
      <trkpt lat="46.62552" lon="3.52053">
        <ele>232.80000305176</ele>
        <time>2023-05-30T07:30:58.000Z</time>
      </trkpt>
      <trkpt lat="46.62518" lon="3.52119">
        <ele>233.60000610352</ele>
        <time>2023-05-30T07:31:08.000Z</time>
      </trkpt>
      <trkpt lat="46.62508" lon="3.52139">
        <ele>234</ele>
        <time>2023-05-30T07:31:11.000Z</time>
      </trkpt>
      <trkpt lat="46.62484" lon="3.52188">
        <ele>234.60000610352</ele>
        <time>2023-05-30T07:31:18.000Z</time>
      </trkpt>
      <trkpt lat="46.6245" lon="3.5225">
        <ele>234.60000610352</ele>
        <time>2023-05-30T07:31:27.000Z</time>
      </trkpt>
      <trkpt lat="46.62446" lon="3.52257">
        <ele>234.60000610352</ele>
        <time>2023-05-30T07:31:28.000Z</time>
      </trkpt>
      <trkpt lat="46.62414" lon="3.52318">
        <ele>234</ele>
        <time>2023-05-30T07:31:37.000Z</time>
      </trkpt>
      <trkpt lat="46.62379" lon="3.52381">
        <ele>233.80000305176</ele>
        <time>2023-05-30T07:31:46.000Z</time>
      </trkpt>
      <trkpt lat="46.62352" lon="3.52432">
        <ele>232.80000305176</ele>
        <time>2023-05-30T07:31:53.000Z</time>
      </trkpt>
      <trkpt lat="46.62348" lon="3.5244">
        <ele>232.80000305176</ele>
        <time>2023-05-30T07:31:54.000Z</time>
      </trkpt>
      <trkpt lat="46.62316" lon="3.52498">
        <ele>232.19999694824</ele>
        <time>2023-05-30T07:32:02.000Z</time>
      </trkpt>
      <trkpt lat="46.6229" lon="3.52545">
        <ele>232.60000610352</ele>
        <time>2023-05-30T07:32:09.000Z</time>
      </trkpt>
      <trkpt lat="46.62264" lon="3.52596">
        <ele>233.19999694824</ele>
        <time>2023-05-30T07:32:17.000Z</time>
      </trkpt>
      <trkpt lat="46.62255" lon="3.52615">
        <ele>234</ele>
        <time>2023-05-30T07:32:20.000Z</time>
      </trkpt>
      <trkpt lat="46.62241" lon="3.52645">
        <ele>234.60000610352</ele>
        <time>2023-05-30T07:32:25.000Z</time>
      </trkpt>
      <trkpt lat="46.62239" lon="3.52652">
        <ele>235</ele>
        <time>2023-05-30T07:32:26.000Z</time>
      </trkpt>
      <trkpt lat="46.62225" lon="3.52685">
        <ele>236.19999694824</ele>
        <time>2023-05-30T07:32:31.000Z</time>
      </trkpt>
      <trkpt lat="46.62216" lon="3.5271">
        <ele>236.60000610352</ele>
        <time>2023-05-30T07:32:35.000Z</time>
      </trkpt>
      <trkpt lat="46.62201" lon="3.5276">
        <ele>237</ele>
        <time>2023-05-30T07:32:42.000Z</time>
      </trkpt>
      <trkpt lat="46.62193" lon="3.52788">
        <ele>237</ele>
        <time>2023-05-30T07:32:46.000Z</time>
      </trkpt>
      <trkpt lat="46.62181" lon="3.52834">
        <ele>236.60000610352</ele>
        <time>2023-05-30T07:32:52.000Z</time>
      </trkpt>
      <trkpt lat="46.62162" lon="3.5291">
        <ele>236.39999389648</ele>
        <time>2023-05-30T07:33:02.000Z</time>
      </trkpt>
      <trkpt lat="46.62159" lon="3.52925">
        <ele>236.39999389648</ele>
        <time>2023-05-30T07:33:04.000Z</time>
      </trkpt>
      <trkpt lat="46.62139" lon="3.53003">
        <ele>235.80000305176</ele>
        <time>2023-05-30T07:33:14.000Z</time>
      </trkpt>
      <trkpt lat="46.62131" lon="3.53035">
        <ele>236</ele>
        <time>2023-05-30T07:33:18.000Z</time>
      </trkpt>
      <trkpt lat="46.6211" lon="3.53115">
        <ele>236</ele>
        <time>2023-05-30T07:33:28.000Z</time>
      </trkpt>
      <trkpt lat="46.62106" lon="3.53132">
        <ele>235.80000305176</ele>
        <time>2023-05-30T07:33:30.000Z</time>
      </trkpt>
      <trkpt lat="46.62091" lon="3.5319">
        <ele>235.19999694824</ele>
        <time>2023-05-30T07:33:37.000Z</time>
      </trkpt>
      <trkpt lat="46.62086" lon="3.53206">
        <ele>235</ele>
        <time>2023-05-30T07:33:39.000Z</time>
      </trkpt>
      <trkpt lat="46.62067" lon="3.53281">
        <ele>234.60000610352</ele>
        <time>2023-05-30T07:33:48.000Z</time>
      </trkpt>
      <trkpt lat="46.62046" lon="3.5336">
        <ele>234.39999389648</ele>
        <time>2023-05-30T07:33:57.000Z</time>
      </trkpt>
      <trkpt lat="46.62044" lon="3.53369">
        <ele>234.39999389648</ele>
        <time>2023-05-30T07:33:58.000Z</time>
      </trkpt>
      <trkpt lat="46.62042" lon="3.53377">
        <ele>234.19999694824</ele>
        <time>2023-05-30T07:33:59.000Z</time>
      </trkpt>
      <trkpt lat="46.62021" lon="3.53456">
        <ele>233.60000610352</ele>
        <time>2023-05-30T07:34:08.000Z</time>
      </trkpt>
      <trkpt lat="46.62016" lon="3.53474">
        <ele>233.60000610352</ele>
        <time>2023-05-30T07:34:10.000Z</time>
      </trkpt>
      <trkpt lat="46.61997" lon="3.53553">
        <ele>233.60000610352</ele>
        <time>2023-05-30T07:34:19.000Z</time>
      </trkpt>
      <trkpt lat="46.61989" lon="3.53578">
        <ele>233.39999389648</ele>
        <time>2023-05-30T07:34:22.000Z</time>
      </trkpt>
      <trkpt lat="46.61968" lon="3.53657">
        <ele>233.19999694824</ele>
        <time>2023-05-30T07:34:31.000Z</time>
      </trkpt>
      <trkpt lat="46.61951" lon="3.53717">
        <ele>233.19999694824</ele>
        <time>2023-05-30T07:34:38.000Z</time>
      </trkpt>
      <trkpt lat="46.6194" lon="3.5376">
        <ele>233</ele>
        <time>2023-05-30T07:34:43.000Z</time>
      </trkpt>
      <trkpt lat="46.61922" lon="3.53828">
        <ele>233</ele>
        <time>2023-05-30T07:34:51.000Z</time>
      </trkpt>
      <trkpt lat="46.61909" lon="3.53874">
        <ele>232.80000305176</ele>
        <time>2023-05-30T07:34:57.000Z</time>
      </trkpt>
      <trkpt lat="46.61889" lon="3.53952">
        <ele>232.60000610352</ele>
        <time>2023-05-30T07:35:06.000Z</time>
      </trkpt>
      <trkpt lat="46.61877" lon="3.53996">
        <ele>232</ele>
        <time>2023-05-30T07:35:11.000Z</time>
      </trkpt>
      <trkpt lat="46.61862" lon="3.5405">
        <ele>231.80000305176</ele>
        <time>2023-05-30T07:35:17.000Z</time>
      </trkpt>
      <trkpt lat="46.61848" lon="3.54105">
        <ele>230.80000305176</ele>
        <time>2023-05-30T07:35:23.000Z</time>
      </trkpt>
      <trkpt lat="46.61835" lon="3.54154">
        <ele>230</ele>
        <time>2023-05-30T07:35:28.000Z</time>
      </trkpt>
      <trkpt lat="46.61824" lon="3.54195">
        <ele>229.39999389648</ele>
        <time>2023-05-30T07:35:32.000Z</time>
      </trkpt>
      <trkpt lat="46.61815" lon="3.5423">
        <ele>229</ele>
        <time>2023-05-30T07:35:36.000Z</time>
      </trkpt>
      <trkpt lat="46.61803" lon="3.54276">
        <ele>228.60000610352</ele>
        <time>2023-05-30T07:35:41.000Z</time>
      </trkpt>
      <trkpt lat="46.61789" lon="3.54331">
        <ele>228.80000305176</ele>
        <time>2023-05-30T07:35:48.000Z</time>
      </trkpt>
      <trkpt lat="46.61771" lon="3.54401">
        <ele>229.19999694824</ele>
        <time>2023-05-30T07:35:57.000Z</time>
      </trkpt>
      <trkpt lat="46.61752" lon="3.54472">
        <ele>228</ele>
        <time>2023-05-30T07:36:05.000Z</time>
      </trkpt>
      <trkpt lat="46.61749" lon="3.54482">
        <ele>227.60000610352</ele>
        <time>2023-05-30T07:36:06.000Z</time>
      </trkpt>
      <trkpt lat="46.61739" lon="3.54518">
        <ele>226.60000610352</ele>
        <time>2023-05-30T07:36:10.000Z</time>
      </trkpt>
      <trkpt lat="46.61732" lon="3.54543">
        <ele>225.80000305176</ele>
        <time>2023-05-30T07:36:13.000Z</time>
      </trkpt>
      <trkpt lat="46.6173" lon="3.54549">
        <ele>225.39999389648</ele>
        <time>2023-05-30T07:36:14.000Z</time>
      </trkpt>
      <trkpt lat="46.61727" lon="3.54556">
        <ele>225.19999694824</ele>
        <time>2023-05-30T07:36:15.000Z</time>
      </trkpt>
      <trkpt lat="46.61719" lon="3.54567">
        <ele>224.80000305176</ele>
        <time>2023-05-30T07:36:17.000Z</time>
      </trkpt>
      <trkpt lat="46.61706" lon="3.54576">
        <ele>224.39999389648</ele>
        <time>2023-05-30T07:36:19.000Z</time>
      </trkpt>
      <trkpt lat="46.61688" lon="3.54589">
        <ele>223.60000610352</ele>
        <time>2023-05-30T07:36:22.000Z</time>
      </trkpt>
      <trkpt lat="46.61676" lon="3.54599">
        <ele>223.39999389648</ele>
        <time>2023-05-30T07:36:24.000Z</time>
      </trkpt>
      <trkpt lat="46.61642" lon="3.54628">
        <ele>222.39999389648</ele>
        <time>2023-05-30T07:36:29.000Z</time>
      </trkpt>
      <trkpt lat="46.61636" lon="3.54634">
        <ele>222.19999694824</ele>
        <time>2023-05-30T07:36:30.000Z</time>
      </trkpt>
      <trkpt lat="46.61583" lon="3.54679">
        <ele>221.60000610352</ele>
        <time>2023-05-30T07:36:38.000Z</time>
      </trkpt>
      <trkpt lat="46.61564" lon="3.54696">
        <ele>221.19999694824</ele>
        <time>2023-05-30T07:36:41.000Z</time>
      </trkpt>
      <trkpt lat="46.61533" lon="3.54723">
        <ele>221.19999694824</ele>
        <time>2023-05-30T07:36:46.000Z</time>
      </trkpt>
      <trkpt lat="46.61485" lon="3.54763">
        <ele>221.19999694824</ele>
        <time>2023-05-30T07:36:54.000Z</time>
      </trkpt>
      <trkpt lat="46.61438" lon="3.54806">
        <ele>221.19999694824</ele>
        <time>2023-05-30T07:37:02.000Z</time>
      </trkpt>
      <trkpt lat="46.61419" lon="3.54822">
        <ele>221.19999694824</ele>
        <time>2023-05-30T07:37:05.000Z</time>
      </trkpt>
      <trkpt lat="46.61371" lon="3.54865">
        <ele>220.80000305176</ele>
        <time>2023-05-30T07:37:13.000Z</time>
      </trkpt>
      <trkpt lat="46.61359" lon="3.54876">
        <ele>220.80000305176</ele>
        <time>2023-05-30T07:37:15.000Z</time>
      </trkpt>
      <trkpt lat="46.61311" lon="3.54917">
        <ele>220.60000610352</ele>
        <time>2023-05-30T07:37:23.000Z</time>
      </trkpt>
      <trkpt lat="46.61305" lon="3.54921">
        <ele>220.39999389648</ele>
        <time>2023-05-30T07:37:24.000Z</time>
      </trkpt>
      <trkpt lat="46.61269" lon="3.5495">
        <ele>220.39999389648</ele>
        <time>2023-05-30T07:37:30.000Z</time>
      </trkpt>
      <trkpt lat="46.61233" lon="3.54982">
        <ele>221</ele>
        <time>2023-05-30T07:37:37.000Z</time>
      </trkpt>
      <trkpt lat="46.61195" lon="3.55015">
        <ele>221.60000610352</ele>
        <time>2023-05-30T07:37:44.000Z</time>
      </trkpt>
      <trkpt lat="46.61147" lon="3.55043">
        <ele>222.19999694824</ele>
        <time>2023-05-30T07:37:52.000Z</time>
      </trkpt>
      <trkpt lat="46.61134" lon="3.55049">
        <ele>222.39999389648</ele>
        <time>2023-05-30T07:37:54.000Z</time>
      </trkpt>
      <trkpt lat="46.6108" lon="3.55072">
        <ele>222.19999694824</ele>
        <time>2023-05-30T07:38:03.000Z</time>
      </trkpt>
      <trkpt lat="46.61051" lon="3.55081">
        <ele>222.39999389648</ele>
        <time>2023-05-30T07:38:09.000Z</time>
      </trkpt>
      <trkpt lat="46.61042" lon="3.55085">
        <ele>222.39999389648</ele>
        <time>2023-05-30T07:38:13.000Z</time>
      </trkpt>
      <trkpt lat="46.61042" lon="3.55085">
        <ele>222</ele>
        <time>2023-05-30T07:38:15.000Z</time>
      </trkpt>
      <trkpt lat="46.61042" lon="3.55094">
        <ele>221.80000305176</ele>
        <time>2023-05-30T07:38:26.000Z</time>
      </trkpt>
      <trkpt lat="46.61048" lon="3.5511">
        <ele>221.80000305176</ele>
        <time>2023-05-30T07:38:29.000Z</time>
      </trkpt>
      <trkpt lat="46.61063" lon="3.55151">
        <ele>221.60000610352</ele>
        <time>2023-05-30T07:38:35.000Z</time>
      </trkpt>
      <trkpt lat="46.61074" lon="3.55178">
        <ele>222</ele>
        <time>2023-05-30T07:38:39.000Z</time>
      </trkpt>
      <trkpt lat="46.6108" lon="3.55192">
        <ele>221.80000305176</ele>
        <time>2023-05-30T07:38:41.000Z</time>
      </trkpt>
      <trkpt lat="46.61104" lon="3.55246">
        <ele>223</ele>
        <time>2023-05-30T07:38:49.000Z</time>
      </trkpt>
      <trkpt lat="46.6111" lon="3.5526">
        <ele>223.39999389648</ele>
        <time>2023-05-30T07:38:51.000Z</time>
      </trkpt>
      <trkpt lat="46.61129" lon="3.55301">
        <ele>224</ele>
        <time>2023-05-30T07:38:57.000Z</time>
      </trkpt>
      <trkpt lat="46.61145" lon="3.55341">
        <ele>224.19999694824</ele>
        <time>2023-05-30T07:39:02.000Z</time>
      </trkpt>
      <trkpt lat="46.61147" lon="3.55349">
        <ele>224.19999694824</ele>
        <time>2023-05-30T07:39:03.000Z</time>
      </trkpt>
      <trkpt lat="46.61153" lon="3.55365">
        <ele>224.39999389648</ele>
        <time>2023-05-30T07:39:05.000Z</time>
      </trkpt>
      <trkpt lat="46.61168" lon="3.55407">
        <ele>224.80000305176</ele>
        <time>2023-05-30T07:39:10.000Z</time>
      </trkpt>
      <trkpt lat="46.61183" lon="3.55446">
        <ele>225.19999694824</ele>
        <time>2023-05-30T07:39:15.000Z</time>
      </trkpt>
      <trkpt lat="46.61184" lon="3.55465">
        <ele>225.39999389648</ele>
        <time>2023-05-30T07:39:17.000Z</time>
      </trkpt>
      <trkpt lat="46.61181" lon="3.55481">
        <ele>225.60000610352</ele>
        <time>2023-05-30T07:39:19.000Z</time>
      </trkpt>
      <trkpt lat="46.61179" lon="3.5549">
        <ele>225.60000610352</ele>
        <time>2023-05-30T07:39:20.000Z</time>
      </trkpt>
      <trkpt lat="46.61178" lon="3.55498">
        <ele>225.80000305176</ele>
        <time>2023-05-30T07:39:21.000Z</time>
      </trkpt>
      <trkpt lat="46.6118" lon="3.55514">
        <ele>226.19999694824</ele>
        <time>2023-05-30T07:39:23.000Z</time>
      </trkpt>
      <trkpt lat="46.61182" lon="3.55521">
        <ele>226.60000610352</ele>
        <time>2023-05-30T07:39:24.000Z</time>
      </trkpt>
      <trkpt lat="46.61184" lon="3.55528">
        <ele>226.80000305176</ele>
        <time>2023-05-30T07:39:25.000Z</time>
      </trkpt>
      <trkpt lat="46.6119" lon="3.55566">
        <ele>227.60000610352</ele>
        <time>2023-05-30T07:39:30.000Z</time>
      </trkpt>
      <trkpt lat="46.61195" lon="3.55587">
        <ele>228</ele>
        <time>2023-05-30T07:39:33.000Z</time>
      </trkpt>
      <trkpt lat="46.61202" lon="3.55623">
        <ele>229.19999694824</ele>
        <time>2023-05-30T07:39:38.000Z</time>
      </trkpt>
      <trkpt lat="46.61208" lon="3.55675">
        <ele>230.19999694824</ele>
        <time>2023-05-30T07:39:45.000Z</time>
      </trkpt>
      <trkpt lat="46.61207" lon="3.55683">
        <ele>230.39999389648</ele>
        <time>2023-05-30T07:39:46.000Z</time>
      </trkpt>
      <trkpt lat="46.61205" lon="3.55714">
        <ele>231.19999694824</ele>
        <time>2023-05-30T07:39:50.000Z</time>
      </trkpt>
      <trkpt lat="46.61202" lon="3.55737">
        <ele>231.60000610352</ele>
        <time>2023-05-30T07:39:53.000Z</time>
      </trkpt>
      <trkpt lat="46.61191" lon="3.55782">
        <ele>232.39999389648</ele>
        <time>2023-05-30T07:39:59.000Z</time>
      </trkpt>
      <trkpt lat="46.61186" lon="3.55796">
        <ele>232.39999389648</ele>
        <time>2023-05-30T07:40:01.000Z</time>
      </trkpt>
      <trkpt lat="46.61159" lon="3.55863">
        <ele>232.80000305176</ele>
        <time>2023-05-30T07:40:10.000Z</time>
      </trkpt>
      <trkpt lat="46.61131" lon="3.55911">
        <ele>232.80000305176</ele>
        <time>2023-05-30T07:40:18.000Z</time>
      </trkpt>
      <trkpt lat="46.6111" lon="3.55951">
        <ele>233.19999694824</ele>
        <time>2023-05-30T07:40:24.000Z</time>
      </trkpt>
      <trkpt lat="46.61107" lon="3.55957">
        <ele>233.39999389648</ele>
        <time>2023-05-30T07:40:25.000Z</time>
      </trkpt>
      <trkpt lat="46.611" lon="3.55969">
        <ele>233.60000610352</ele>
        <time>2023-05-30T07:40:27.000Z</time>
      </trkpt>
      <trkpt lat="46.61088" lon="3.5599">
        <ele>233.60000610352</ele>
        <time>2023-05-30T07:40:30.000Z</time>
      </trkpt>
      <trkpt lat="46.6106" lon="3.56042">
        <ele>234.19999694824</ele>
        <time>2023-05-30T07:40:37.000Z</time>
      </trkpt>
      <trkpt lat="46.61047" lon="3.56069">
        <ele>234.60000610352</ele>
        <time>2023-05-30T07:40:41.000Z</time>
      </trkpt>
      <trkpt lat="46.61026" lon="3.5611">
        <ele>235</ele>
        <time>2023-05-30T07:40:47.000Z</time>
      </trkpt>
      <trkpt lat="46.61004" lon="3.56152">
        <ele>235.39999389648</ele>
        <time>2023-05-30T07:40:53.000Z</time>
      </trkpt>
      <trkpt lat="46.60992" lon="3.56177">
        <ele>235.39999389648</ele>
        <time>2023-05-30T07:40:56.000Z</time>
      </trkpt>
      <trkpt lat="46.6096" lon="3.56237">
        <ele>235</ele>
        <time>2023-05-30T07:41:04.000Z</time>
      </trkpt>
      <trkpt lat="46.60936" lon="3.56284">
        <ele>234.39999389648</ele>
        <time>2023-05-30T07:41:10.000Z</time>
      </trkpt>
      <trkpt lat="46.6092" lon="3.56316">
        <ele>233.80000305176</ele>
        <time>2023-05-30T07:41:14.000Z</time>
      </trkpt>
      <trkpt lat="46.60898" lon="3.56359">
        <ele>233.39999389648</ele>
        <time>2023-05-30T07:41:19.000Z</time>
      </trkpt>
      <trkpt lat="46.60885" lon="3.56384">
        <ele>232.80000305176</ele>
        <time>2023-05-30T07:41:22.000Z</time>
      </trkpt>
      <trkpt lat="46.60868" lon="3.56417">
        <ele>232.19999694824</ele>
        <time>2023-05-30T07:41:26.000Z</time>
      </trkpt>
      <trkpt lat="46.60839" lon="3.56472">
        <ele>231.39999389648</ele>
        <time>2023-05-30T07:41:33.000Z</time>
      </trkpt>
      <trkpt lat="46.60834" lon="3.56481">
        <ele>231.19999694824</ele>
        <time>2023-05-30T07:41:34.000Z</time>
      </trkpt>
      <trkpt lat="46.60803" lon="3.56541">
        <ele>230.19999694824</ele>
        <time>2023-05-30T07:41:41.000Z</time>
      </trkpt>
      <trkpt lat="46.60794" lon="3.56557">
        <ele>229.80000305176</ele>
        <time>2023-05-30T07:41:43.000Z</time>
      </trkpt>
      <trkpt lat="46.60773" lon="3.56599">
        <ele>229</ele>
        <time>2023-05-30T07:41:48.000Z</time>
      </trkpt>
      <trkpt lat="46.60747" lon="3.56648">
        <ele>228.80000305176</ele>
        <time>2023-05-30T07:41:54.000Z</time>
      </trkpt>
      <trkpt lat="46.60712" lon="3.56714">
        <ele>228.39999389648</ele>
        <time>2023-05-30T07:42:02.000Z</time>
      </trkpt>
      <trkpt lat="46.60685" lon="3.56764">
        <ele>228.19999694824</ele>
        <time>2023-05-30T07:42:08.000Z</time>
      </trkpt>
      <trkpt lat="46.60655" lon="3.56822">
        <ele>228</ele>
        <time>2023-05-30T07:42:15.000Z</time>
      </trkpt>
      <trkpt lat="46.60642" lon="3.56846">
        <ele>228</ele>
        <time>2023-05-30T07:42:18.000Z</time>
      </trkpt>
      <trkpt lat="46.60609" lon="3.56908">
        <ele>227.80000305176</ele>
        <time>2023-05-30T07:42:26.000Z</time>
      </trkpt>
      <trkpt lat="46.60604" lon="3.56916">
        <ele>227.80000305176</ele>
        <time>2023-05-30T07:42:27.000Z</time>
      </trkpt>
      <trkpt lat="46.60568" lon="3.56984">
        <ele>228.39999389648</ele>
        <time>2023-05-30T07:42:36.000Z</time>
      </trkpt>
      <trkpt lat="46.60565" lon="3.56991">
        <ele>228.60000610352</ele>
        <time>2023-05-30T07:42:37.000Z</time>
      </trkpt>
      <trkpt lat="46.60532" lon="3.57056">
        <ele>229</ele>
        <time>2023-05-30T07:42:46.000Z</time>
      </trkpt>
      <trkpt lat="46.60525" lon="3.5707">
        <ele>229.19999694824</ele>
        <time>2023-05-30T07:42:48.000Z</time>
      </trkpt>
      <trkpt lat="46.60512" lon="3.57097">
        <ele>229.80000305176</ele>
        <time>2023-05-30T07:42:52.000Z</time>
      </trkpt>
      <trkpt lat="46.60505" lon="3.57108">
        <ele>230.39999389648</ele>
        <time>2023-05-30T07:42:54.000Z</time>
      </trkpt>
      <trkpt lat="46.60485" lon="3.57147">
        <ele>231.19999694824</ele>
        <time>2023-05-30T07:43:00.000Z</time>
      </trkpt>
      <trkpt lat="46.60474" lon="3.57166">
        <ele>231.39999389648</ele>
        <time>2023-05-30T07:43:03.000Z</time>
      </trkpt>
      <trkpt lat="46.60455" lon="3.57203">
        <ele>232.39999389648</ele>
        <time>2023-05-30T07:43:09.000Z</time>
      </trkpt>
      <trkpt lat="46.60445" lon="3.57222">
        <ele>232.60000610352</ele>
        <time>2023-05-30T07:43:12.000Z</time>
      </trkpt>
      <trkpt lat="46.60421" lon="3.57266">
        <ele>233.39999389648</ele>
        <time>2023-05-30T07:43:19.000Z</time>
      </trkpt>
      <trkpt lat="46.60417" lon="3.57272">
        <ele>233.39999389648</ele>
        <time>2023-05-30T07:43:20.000Z</time>
      </trkpt>
      <trkpt lat="46.6041" lon="3.57284">
        <ele>233.60000610352</ele>
        <time>2023-05-30T07:43:22.000Z</time>
      </trkpt>
      <trkpt lat="46.60403" lon="3.57298">
        <ele>233.80000305176</ele>
        <time>2023-05-30T07:43:24.000Z</time>
      </trkpt>
      <trkpt lat="46.60375" lon="3.57352">
        <ele>234.39999389648</ele>
        <time>2023-05-30T07:43:32.000Z</time>
      </trkpt>
      <trkpt lat="46.60353" lon="3.57394">
        <ele>234.60000610352</ele>
        <time>2023-05-30T07:43:38.000Z</time>
      </trkpt>
      <trkpt lat="46.60335" lon="3.57428">
        <ele>235</ele>
        <time>2023-05-30T07:43:43.000Z</time>
      </trkpt>
      <trkpt lat="46.60303" lon="3.57485">
        <ele>235.39999389648</ele>
        <time>2023-05-30T07:43:52.000Z</time>
      </trkpt>
      <trkpt lat="46.60288" lon="3.57513">
        <ele>235.60000610352</ele>
        <time>2023-05-30T07:43:56.000Z</time>
      </trkpt>
      <trkpt lat="46.60277" lon="3.57533">
        <ele>236</ele>
        <time>2023-05-30T07:43:59.000Z</time>
      </trkpt>
      <trkpt lat="46.60273" lon="3.5754">
        <ele>236</ele>
        <time>2023-05-30T07:44:00.000Z</time>
      </trkpt>
      <trkpt lat="46.60266" lon="3.57553">
        <ele>236.19999694824</ele>
        <time>2023-05-30T07:44:02.000Z</time>
      </trkpt>
      <trkpt lat="46.60252" lon="3.57581">
        <ele>236.19999694824</ele>
        <time>2023-05-30T07:44:06.000Z</time>
      </trkpt>
      <trkpt lat="46.60234" lon="3.57616">
        <ele>236.39999389648</ele>
        <time>2023-05-30T07:44:11.000Z</time>
      </trkpt>
      <trkpt lat="46.60226" lon="3.57631">
        <ele>236.60000610352</ele>
        <time>2023-05-30T07:44:13.000Z</time>
      </trkpt>
      <trkpt lat="46.60196" lon="3.57693">
        <ele>237.60000610352</ele>
        <time>2023-05-30T07:44:22.000Z</time>
      </trkpt>
      <trkpt lat="46.60188" lon="3.57706">
        <ele>237.60000610352</ele>
        <time>2023-05-30T07:44:24.000Z</time>
      </trkpt>
      <trkpt lat="46.60167" lon="3.57753">
        <ele>238.60000610352</ele>
        <time>2023-05-30T07:44:30.000Z</time>
      </trkpt>
      <trkpt lat="46.60154" lon="3.57778">
        <ele>239</ele>
        <time>2023-05-30T07:44:34.000Z</time>
      </trkpt>
      <trkpt lat="46.60144" lon="3.57798">
        <ele>239.60000610352</ele>
        <time>2023-05-30T07:44:37.000Z</time>
      </trkpt>
      <trkpt lat="46.60124" lon="3.57834">
        <ele>240.39999389648</ele>
        <time>2023-05-30T07:44:43.000Z</time>
      </trkpt>
      <trkpt lat="46.60114" lon="3.57853">
        <ele>240.80000305176</ele>
        <time>2023-05-30T07:44:46.000Z</time>
      </trkpt>
      <trkpt lat="46.60105" lon="3.57872">
        <ele>241.39999389648</ele>
        <time>2023-05-30T07:44:49.000Z</time>
      </trkpt>
      <trkpt lat="46.60099" lon="3.57886">
        <ele>241.80000305176</ele>
        <time>2023-05-30T07:44:51.000Z</time>
      </trkpt>
      <trkpt lat="46.60082" lon="3.57919">
        <ele>242.80000305176</ele>
        <time>2023-05-30T07:44:56.000Z</time>
      </trkpt>
      <trkpt lat="46.60079" lon="3.57925">
        <ele>242.80000305176</ele>
        <time>2023-05-30T07:44:57.000Z</time>
      </trkpt>
      <trkpt lat="46.6006" lon="3.57962">
        <ele>243.80000305176</ele>
        <time>2023-05-30T07:45:03.000Z</time>
      </trkpt>
      <trkpt lat="46.60047" lon="3.57987">
        <ele>244.60000610352</ele>
        <time>2023-05-30T07:45:07.000Z</time>
      </trkpt>
      <trkpt lat="46.60044" lon="3.57994">
        <ele>245</ele>
        <time>2023-05-30T07:45:08.000Z</time>
      </trkpt>
      <trkpt lat="46.60041" lon="3.58">
        <ele>245.19999694824</ele>
        <time>2023-05-30T07:45:09.000Z</time>
      </trkpt>
      <trkpt lat="46.60028" lon="3.58024">
        <ele>246.39999389648</ele>
        <time>2023-05-30T07:45:13.000Z</time>
      </trkpt>
      <trkpt lat="46.60015" lon="3.58049">
        <ele>247.39999389648</ele>
        <time>2023-05-30T07:45:17.000Z</time>
      </trkpt>
      <trkpt lat="46.59998" lon="3.58081">
        <ele>248.60000610352</ele>
        <time>2023-05-30T07:45:22.000Z</time>
      </trkpt>
      <trkpt lat="46.59983" lon="3.58108">
        <ele>249.19999694824</ele>
        <time>2023-05-30T07:45:26.000Z</time>
      </trkpt>
      <trkpt lat="46.59956" lon="3.58154">
        <ele>249.19999694824</ele>
        <time>2023-05-30T07:45:32.000Z</time>
      </trkpt>
      <trkpt lat="46.59919" lon="3.58224">
        <ele>248.60000610352</ele>
        <time>2023-05-30T07:45:40.000Z</time>
      </trkpt>
      <trkpt lat="46.59882" lon="3.58292">
        <ele>248</ele>
        <time>2023-05-30T07:45:48.000Z</time>
      </trkpt>
      <trkpt lat="46.59874" lon="3.58308">
        <ele>248</ele>
        <time>2023-05-30T07:45:50.000Z</time>
      </trkpt>
      <trkpt lat="46.59847" lon="3.58358">
        <ele>248.60000610352</ele>
        <time>2023-05-30T07:45:57.000Z</time>
      </trkpt>
      <trkpt lat="46.59834" lon="3.58384">
        <ele>249.39999389648</ele>
        <time>2023-05-30T07:46:01.000Z</time>
      </trkpt>
      <trkpt lat="46.59823" lon="3.58404">
        <ele>250</ele>
        <time>2023-05-30T07:46:04.000Z</time>
      </trkpt>
      <trkpt lat="46.59817" lon="3.58415">
        <ele>250.39999389648</ele>
        <time>2023-05-30T07:46:06.000Z</time>
      </trkpt>
      <trkpt lat="46.59801" lon="3.58446">
        <ele>251.60000610352</ele>
        <time>2023-05-30T07:46:11.000Z</time>
      </trkpt>
      <trkpt lat="46.59788" lon="3.58472">
        <ele>252.19999694824</ele>
        <time>2023-05-30T07:46:15.000Z</time>
      </trkpt>
      <trkpt lat="46.59785" lon="3.58479">
        <ele>252.60000610352</ele>
        <time>2023-05-30T07:46:16.000Z</time>
      </trkpt>
      <trkpt lat="46.59759" lon="3.58529">
        <ele>253.19999694824</ele>
        <time>2023-05-30T07:46:23.000Z</time>
      </trkpt>
      <trkpt lat="46.59721" lon="3.586">
        <ele>252.60000610352</ele>
        <time>2023-05-30T07:46:32.000Z</time>
      </trkpt>
      <trkpt lat="46.59716" lon="3.58608">
        <ele>252.39999389648</ele>
        <time>2023-05-30T07:46:33.000Z</time>
      </trkpt>
      <trkpt lat="46.59681" lon="3.58673">
        <ele>251.80000305176</ele>
        <time>2023-05-30T07:46:41.000Z</time>
      </trkpt>
      <trkpt lat="46.59669" lon="3.58696">
        <ele>251.60000610352</ele>
        <time>2023-05-30T07:46:44.000Z</time>
      </trkpt>
      <trkpt lat="46.59635" lon="3.5876">
        <ele>251.60000610352</ele>
        <time>2023-05-30T07:46:52.000Z</time>
      </trkpt>
      <trkpt lat="46.59632" lon="3.58766">
        <ele>251.60000610352</ele>
        <time>2023-05-30T07:46:53.000Z</time>
      </trkpt>
      <trkpt lat="46.59599" lon="3.58827">
        <ele>251.60000610352</ele>
        <time>2023-05-30T07:47:01.000Z</time>
      </trkpt>
      <trkpt lat="46.59569" lon="3.58885">
        <ele>252.19999694824</ele>
        <time>2023-05-30T07:47:09.000Z</time>
      </trkpt>
      <trkpt lat="46.5955" lon="3.58919">
        <ele>252.60000610352</ele>
        <time>2023-05-30T07:47:14.000Z</time>
      </trkpt>
      <trkpt lat="46.59528" lon="3.58961">
        <ele>252.19999694824</ele>
        <time>2023-05-30T07:47:19.000Z</time>
      </trkpt>
      <trkpt lat="46.59495" lon="3.59025">
        <ele>251.39999389648</ele>
        <time>2023-05-30T07:47:26.000Z</time>
      </trkpt>
      <trkpt lat="46.5948" lon="3.59051">
        <ele>251</ele>
        <time>2023-05-30T07:47:29.000Z</time>
      </trkpt>
      <trkpt lat="46.59454" lon="3.59102">
        <ele>250.19999694824</ele>
        <time>2023-05-30T07:47:35.000Z</time>
      </trkpt>
      <trkpt lat="46.59445" lon="3.5912">
        <ele>250</ele>
        <time>2023-05-30T07:47:37.000Z</time>
      </trkpt>
      <trkpt lat="46.5941" lon="3.59188">
        <ele>249.60000610352</ele>
        <time>2023-05-30T07:47:45.000Z</time>
      </trkpt>
      <trkpt lat="46.59405" lon="3.59197">
        <ele>249.60000610352</ele>
        <time>2023-05-30T07:47:46.000Z</time>
      </trkpt>
      <trkpt lat="46.59372" lon="3.59263">
        <ele>249.60000610352</ele>
        <time>2023-05-30T07:47:54.000Z</time>
      </trkpt>
      <trkpt lat="46.5936" lon="3.59288">
        <ele>249.80000305176</ele>
        <time>2023-05-30T07:47:57.000Z</time>
      </trkpt>
      <trkpt lat="46.59327" lon="3.59351">
        <ele>249.80000305176</ele>
        <time>2023-05-30T07:48:05.000Z</time>
      </trkpt>
      <trkpt lat="46.59314" lon="3.59375">
        <ele>249.60000610352</ele>
        <time>2023-05-30T07:48:08.000Z</time>
      </trkpt>
      <trkpt lat="46.59281" lon="3.59437">
        <ele>249.39999389648</ele>
        <time>2023-05-30T07:48:16.000Z</time>
      </trkpt>
      <trkpt lat="46.59277" lon="3.59445">
        <ele>249.39999389648</ele>
        <time>2023-05-30T07:48:17.000Z</time>
      </trkpt>
      <trkpt lat="46.59243" lon="3.59511">
        <ele>250</ele>
        <time>2023-05-30T07:48:26.000Z</time>
      </trkpt>
      <trkpt lat="46.59218" lon="3.59555">
        <ele>251.39999389648</ele>
        <time>2023-05-30T07:48:33.000Z</time>
      </trkpt>
      <trkpt lat="46.59214" lon="3.59561">
        <ele>251.39999389648</ele>
        <time>2023-05-30T07:48:34.000Z</time>
      </trkpt>
      <trkpt lat="46.5919" lon="3.59592">
        <ele>252.80000305176</ele>
        <time>2023-05-30T07:48:40.000Z</time>
      </trkpt>
      <trkpt lat="46.59172" lon="3.59611">
        <ele>254</ele>
        <time>2023-05-30T07:48:44.000Z</time>
      </trkpt>
      <trkpt lat="46.59149" lon="3.59631">
        <ele>255.19999694824</ele>
        <time>2023-05-30T07:48:49.000Z</time>
      </trkpt>
      <trkpt lat="46.59103" lon="3.59669">
        <ele>256.20001220703</ele>
        <time>2023-05-30T07:48:58.000Z</time>
      </trkpt>
      <trkpt lat="46.59097" lon="3.59673">
        <ele>256.60000610352</ele>
        <time>2023-05-30T07:48:59.000Z</time>
      </trkpt>
      <trkpt lat="46.59046" lon="3.5971">
        <ele>256.79998779297</ele>
        <time>2023-05-30T07:49:08.000Z</time>
      </trkpt>
      <trkpt lat="46.5904" lon="3.59714">
        <ele>256.79998779297</ele>
        <time>2023-05-30T07:49:09.000Z</time>
      </trkpt>
      <trkpt lat="46.58989" lon="3.59752">
        <ele>256.60000610352</ele>
        <time>2023-05-30T07:49:18.000Z</time>
      </trkpt>
      <trkpt lat="46.58966" lon="3.5977">
        <ele>256.39999389648</ele>
        <time>2023-05-30T07:49:22.000Z</time>
      </trkpt>
      <trkpt lat="46.58914" lon="3.59809">
        <ele>256.39999389648</ele>
        <time>2023-05-30T07:49:31.000Z</time>
      </trkpt>
      <trkpt lat="46.58898" lon="3.59821">
        <ele>256.60000610352</ele>
        <time>2023-05-30T07:49:34.000Z</time>
      </trkpt>
      <trkpt lat="46.58848" lon="3.59859">
        <ele>257.20001220703</ele>
        <time>2023-05-30T07:49:43.000Z</time>
      </trkpt>
      <trkpt lat="46.58826" lon="3.59876">
        <ele>257.20001220703</ele>
        <time>2023-05-30T07:49:47.000Z</time>
      </trkpt>
      <trkpt lat="46.5882" lon="3.5988">
        <ele>257.20001220703</ele>
        <time>2023-05-30T07:49:48.000Z</time>
      </trkpt>
      <trkpt lat="46.58768" lon="3.59919">
        <ele>257.39999389648</ele>
        <time>2023-05-30T07:49:57.000Z</time>
      </trkpt>
      <trkpt lat="46.58756" lon="3.59929">
        <ele>257.39999389648</ele>
        <time>2023-05-30T07:49:59.000Z</time>
      </trkpt>
      <trkpt lat="46.58708" lon="3.59965">
        <ele>257.20001220703</ele>
        <time>2023-05-30T07:50:07.000Z</time>
      </trkpt>
      <trkpt lat="46.58658" lon="3.60003">
        <ele>256.20001220703</ele>
        <time>2023-05-30T07:50:15.000Z</time>
      </trkpt>
      <trkpt lat="46.58639" lon="3.60018">
        <ele>255.60000610352</ele>
        <time>2023-05-30T07:50:18.000Z</time>
      </trkpt>
      <trkpt lat="46.58619" lon="3.60032">
        <ele>255.19999694824</ele>
        <time>2023-05-30T07:50:21.000Z</time>
      </trkpt>
      <trkpt lat="46.58578" lon="3.60062">
        <ele>254.19999694824</ele>
        <time>2023-05-30T07:50:27.000Z</time>
      </trkpt>
      <trkpt lat="46.58572" lon="3.60067">
        <ele>254</ele>
        <time>2023-05-30T07:50:28.000Z</time>
      </trkpt>
      <trkpt lat="46.58535" lon="3.60096">
        <ele>252.60000610352</ele>
        <time>2023-05-30T07:50:33.000Z</time>
      </trkpt>
      <trkpt lat="46.58519" lon="3.60108">
        <ele>251.80000305176</ele>
        <time>2023-05-30T07:50:35.000Z</time>
      </trkpt>
      <trkpt lat="46.58511" lon="3.60114">
        <ele>251.39999389648</ele>
        <time>2023-05-30T07:50:36.000Z</time>
      </trkpt>
      <trkpt lat="46.58478" lon="3.60138">
        <ele>250</ele>
        <time>2023-05-30T07:50:40.000Z</time>
      </trkpt>
      <trkpt lat="46.58469" lon="3.60144">
        <ele>249.80000305176</ele>
        <time>2023-05-30T07:50:41.000Z</time>
      </trkpt>
      <trkpt lat="46.58461" lon="3.6015">
        <ele>248.80000305176</ele>
        <time>2023-05-30T07:50:42.000Z</time>
      </trkpt>
      <trkpt lat="46.58437" lon="3.60169">
        <ele>247.60000610352</ele>
        <time>2023-05-30T07:50:45.000Z</time>
      </trkpt>
      <trkpt lat="46.58404" lon="3.60193">
        <ele>246.60000610352</ele>
        <time>2023-05-30T07:50:49.000Z</time>
      </trkpt>
      <trkpt lat="46.58389" lon="3.60204">
        <ele>246.19999694824</ele>
        <time>2023-05-30T07:50:51.000Z</time>
      </trkpt>
      <trkpt lat="46.58366" lon="3.60221">
        <ele>245.60000610352</ele>
        <time>2023-05-30T07:50:54.000Z</time>
      </trkpt>
      <trkpt lat="46.58323" lon="3.60253">
        <ele>244.80000305176</ele>
        <time>2023-05-30T07:51:00.000Z</time>
      </trkpt>
      <trkpt lat="46.58308" lon="3.60264">
        <ele>244.60000610352</ele>
        <time>2023-05-30T07:51:02.000Z</time>
      </trkpt>
      <trkpt lat="46.58278" lon="3.60286">
        <ele>243.39999389648</ele>
        <time>2023-05-30T07:51:06.000Z</time>
      </trkpt>
      <trkpt lat="46.58262" lon="3.60298">
        <ele>242.80000305176</ele>
        <time>2023-05-30T07:51:08.000Z</time>
      </trkpt>
      <trkpt lat="46.58246" lon="3.6031">
        <ele>242.19999694824</ele>
        <time>2023-05-30T07:51:10.000Z</time>
      </trkpt>
      <trkpt lat="46.58205" lon="3.6034">
        <ele>240.80000305176</ele>
        <time>2023-05-30T07:51:15.000Z</time>
      </trkpt>
      <trkpt lat="46.58196" lon="3.60347">
        <ele>240.19999694824</ele>
        <time>2023-05-30T07:51:16.000Z</time>
      </trkpt>
      <trkpt lat="46.58171" lon="3.60366">
        <ele>239.60000610352</ele>
        <time>2023-05-30T07:51:19.000Z</time>
      </trkpt>
      <trkpt lat="46.58135" lon="3.60392">
        <ele>238.19999694824</ele>
        <time>2023-05-30T07:51:23.000Z</time>
      </trkpt>
      <trkpt lat="46.58109" lon="3.60411">
        <ele>237.39999389648</ele>
        <time>2023-05-30T07:51:26.000Z</time>
      </trkpt>
      <trkpt lat="46.581" lon="3.60418">
        <ele>236.80000305176</ele>
        <time>2023-05-30T07:51:27.000Z</time>
      </trkpt>
      <trkpt lat="46.58074" lon="3.60437">
        <ele>235.19999694824</ele>
        <time>2023-05-30T07:51:30.000Z</time>
      </trkpt>
      <trkpt lat="46.5805" lon="3.60456">
        <ele>234</ele>
        <time>2023-05-30T07:51:33.000Z</time>
      </trkpt>
      <trkpt lat="46.58034" lon="3.60467">
        <ele>233.39999389648</ele>
        <time>2023-05-30T07:51:35.000Z</time>
      </trkpt>
      <trkpt lat="46.58026" lon="3.60473">
        <ele>233</ele>
        <time>2023-05-30T07:51:36.000Z</time>
      </trkpt>
      <trkpt lat="46.57976" lon="3.60512">
        <ele>232</ele>
        <time>2023-05-30T07:51:43.000Z</time>
      </trkpt>
      <trkpt lat="46.57923" lon="3.6055">
        <ele>231.60000610352</ele>
        <time>2023-05-30T07:51:51.000Z</time>
      </trkpt>
      <trkpt lat="46.5787" lon="3.6059">
        <ele>231.60000610352</ele>
        <time>2023-05-30T07:51:59.000Z</time>
      </trkpt>
      <trkpt lat="46.57816" lon="3.60629">
        <ele>231.39999389648</ele>
        <time>2023-05-30T07:52:07.000Z</time>
      </trkpt>
      <trkpt lat="46.57797" lon="3.60643">
        <ele>231.39999389648</ele>
        <time>2023-05-30T07:52:10.000Z</time>
      </trkpt>
      <trkpt lat="46.57746" lon="3.6068">
        <ele>231.60000610352</ele>
        <time>2023-05-30T07:52:18.000Z</time>
      </trkpt>
      <trkpt lat="46.57728" lon="3.60693">
        <ele>231.80000305176</ele>
        <time>2023-05-30T07:52:21.000Z</time>
      </trkpt>
      <trkpt lat="46.57682" lon="3.60726">
        <ele>232.39999389648</ele>
        <time>2023-05-30T07:52:29.000Z</time>
      </trkpt>
      <trkpt lat="46.57633" lon="3.60763">
        <ele>232.80000305176</ele>
        <time>2023-05-30T07:52:37.000Z</time>
      </trkpt>
      <trkpt lat="46.57626" lon="3.60767">
        <ele>233</ele>
        <time>2023-05-30T07:52:38.000Z</time>
      </trkpt>
      <trkpt lat="46.57584" lon="3.60801">
        <ele>233.19999694824</ele>
        <time>2023-05-30T07:52:45.000Z</time>
      </trkpt>
      <trkpt lat="46.57572" lon="3.6081">
        <ele>233.39999389648</ele>
        <time>2023-05-30T07:52:47.000Z</time>
      </trkpt>
      <trkpt lat="46.57553" lon="3.60823">
        <ele>233.39999389648</ele>
        <time>2023-05-30T07:52:50.000Z</time>
      </trkpt>
      <trkpt lat="46.57517" lon="3.60851">
        <ele>233.39999389648</ele>
        <time>2023-05-30T07:52:56.000Z</time>
      </trkpt>
      <trkpt lat="46.57467" lon="3.60888">
        <ele>233.39999389648</ele>
        <time>2023-05-30T07:53:04.000Z</time>
      </trkpt>
      <trkpt lat="46.57442" lon="3.60908">
        <ele>233.19999694824</ele>
        <time>2023-05-30T07:53:08.000Z</time>
      </trkpt>
      <trkpt lat="46.57391" lon="3.60946">
        <ele>232.80000305176</ele>
        <time>2023-05-30T07:53:16.000Z</time>
      </trkpt>
      <trkpt lat="46.57372" lon="3.6096">
        <ele>232.80000305176</ele>
        <time>2023-05-30T07:53:19.000Z</time>
      </trkpt>
      <trkpt lat="46.57323" lon="3.60994">
        <ele>232.80000305176</ele>
        <time>2023-05-30T07:53:27.000Z</time>
      </trkpt>
      <trkpt lat="46.57274" lon="3.61028">
        <ele>233.19999694824</ele>
        <time>2023-05-30T07:53:35.000Z</time>
      </trkpt>
      <trkpt lat="46.57225" lon="3.61065">
        <ele>233.39999389648</ele>
        <time>2023-05-30T07:53:43.000Z</time>
      </trkpt>
      <trkpt lat="46.57218" lon="3.6107">
        <ele>233.39999389648</ele>
        <time>2023-05-30T07:53:44.000Z</time>
      </trkpt>
      <trkpt lat="46.57164" lon="3.61112">
        <ele>233.60000610352</ele>
        <time>2023-05-30T07:53:53.000Z</time>
      </trkpt>
      <trkpt lat="46.57158" lon="3.61117">
        <ele>233.60000610352</ele>
        <time>2023-05-30T07:53:54.000Z</time>
      </trkpt>
      <trkpt lat="46.57104" lon="3.61158">
        <ele>233.60000610352</ele>
        <time>2023-05-30T07:54:03.000Z</time>
      </trkpt>
      <trkpt lat="46.57051" lon="3.61197">
        <ele>233.19999694824</ele>
        <time>2023-05-30T07:54:12.000Z</time>
      </trkpt>
      <trkpt lat="46.57009" lon="3.61226">
        <ele>233.60000610352</ele>
        <time>2023-05-30T07:54:19.000Z</time>
      </trkpt>
      <trkpt lat="46.5696" lon="3.61264">
        <ele>233.60000610352</ele>
        <time>2023-05-30T07:54:27.000Z</time>
      </trkpt>
      <trkpt lat="46.56938" lon="3.6128">
        <ele>233.60000610352</ele>
        <time>2023-05-30T07:54:31.000Z</time>
      </trkpt>
      <trkpt lat="46.56899" lon="3.61306">
        <ele>233.60000610352</ele>
        <time>2023-05-30T07:54:38.000Z</time>
      </trkpt>
      <trkpt lat="46.56893" lon="3.6131">
        <ele>233.60000610352</ele>
        <time>2023-05-30T07:54:39.000Z</time>
      </trkpt>
      <trkpt lat="46.5685" lon="3.61343">
        <ele>234</ele>
        <time>2023-05-30T07:54:47.000Z</time>
      </trkpt>
      <trkpt lat="46.56828" lon="3.61358">
        <ele>234.39999389648</ele>
        <time>2023-05-30T07:54:51.000Z</time>
      </trkpt>
      <trkpt lat="46.56823" lon="3.61361">
        <ele>234.39999389648</ele>
        <time>2023-05-30T07:54:52.000Z</time>
      </trkpt>
      <trkpt lat="46.5681" lon="3.61373">
        <ele>234.60000610352</ele>
        <time>2023-05-30T07:54:54.000Z</time>
      </trkpt>
      <trkpt lat="46.56762" lon="3.61413">
        <ele>234.80000305176</ele>
        <time>2023-05-30T07:55:03.000Z</time>
      </trkpt>
      <trkpt lat="46.56751" lon="3.61421">
        <ele>234.80000305176</ele>
        <time>2023-05-30T07:55:05.000Z</time>
      </trkpt>
      <trkpt lat="46.56698" lon="3.61461">
        <ele>235.39999389648</ele>
        <time>2023-05-30T07:55:15.000Z</time>
      </trkpt>
      <trkpt lat="46.56681" lon="3.61473">
        <ele>235.60000610352</ele>
        <time>2023-05-30T07:55:18.000Z</time>
      </trkpt>
      <trkpt lat="46.56631" lon="3.6151">
        <ele>236</ele>
        <time>2023-05-30T07:55:27.000Z</time>
      </trkpt>
      <trkpt lat="46.56599" lon="3.61533">
        <ele>236.19999694824</ele>
        <time>2023-05-30T07:55:33.000Z</time>
      </trkpt>
      <trkpt lat="46.56567" lon="3.61557">
        <ele>236.39999389648</ele>
        <time>2023-05-30T07:55:39.000Z</time>
      </trkpt>
      <trkpt lat="46.5654" lon="3.61577">
        <ele>237</ele>
        <time>2023-05-30T07:55:44.000Z</time>
      </trkpt>
      <trkpt lat="46.56509" lon="3.61601">
        <ele>237.39999389648</ele>
        <time>2023-05-30T07:55:50.000Z</time>
      </trkpt>
      <trkpt lat="46.56482" lon="3.61621">
        <ele>237.80000305176</ele>
        <time>2023-05-30T07:55:55.000Z</time>
      </trkpt>
      <trkpt lat="46.5644" lon="3.61653">
        <ele>238.60000610352</ele>
        <time>2023-05-30T07:56:03.000Z</time>
      </trkpt>
      <trkpt lat="46.56424" lon="3.61665">
        <ele>238.80000305176</ele>
        <time>2023-05-30T07:56:06.000Z</time>
      </trkpt>
      <trkpt lat="46.56375" lon="3.61702">
        <ele>239</ele>
        <time>2023-05-30T07:56:15.000Z</time>
      </trkpt>
      <trkpt lat="46.56364" lon="3.6171">
        <ele>239</ele>
        <time>2023-05-30T07:56:17.000Z</time>
      </trkpt>
      <trkpt lat="46.56314" lon="3.61747">
        <ele>238.80000305176</ele>
        <time>2023-05-30T07:56:26.000Z</time>
      </trkpt>
      <trkpt lat="46.56302" lon="3.61755">
        <ele>238.80000305176</ele>
        <time>2023-05-30T07:56:28.000Z</time>
      </trkpt>
      <trkpt lat="46.56252" lon="3.61794">
        <ele>238.60000610352</ele>
        <time>2023-05-30T07:56:37.000Z</time>
      </trkpt>
      <trkpt lat="46.56241" lon="3.61802">
        <ele>238.60000610352</ele>
        <time>2023-05-30T07:56:39.000Z</time>
      </trkpt>
      <trkpt lat="46.56189" lon="3.6184">
        <ele>238.80000305176</ele>
        <time>2023-05-30T07:56:48.000Z</time>
      </trkpt>
      <trkpt lat="46.56166" lon="3.61858">
        <ele>238.80000305176</ele>
        <time>2023-05-30T07:56:52.000Z</time>
      </trkpt>
      <trkpt lat="46.56113" lon="3.61897">
        <ele>238.80000305176</ele>
        <time>2023-05-30T07:57:01.000Z</time>
      </trkpt>
      <trkpt lat="46.56102" lon="3.61905">
        <ele>238.80000305176</ele>
        <time>2023-05-30T07:57:03.000Z</time>
      </trkpt>
      <trkpt lat="46.56052" lon="3.61942">
        <ele>238.80000305176</ele>
        <time>2023-05-30T07:57:11.000Z</time>
      </trkpt>
      <trkpt lat="46.56034" lon="3.61956">
        <ele>238.60000610352</ele>
        <time>2023-05-30T07:57:14.000Z</time>
      </trkpt>
      <trkpt lat="46.55985" lon="3.61992">
        <ele>238.19999694824</ele>
        <time>2023-05-30T07:57:22.000Z</time>
      </trkpt>
      <trkpt lat="46.55934" lon="3.62029">
        <ele>238</ele>
        <time>2023-05-30T07:57:30.000Z</time>
      </trkpt>
      <trkpt lat="46.55922" lon="3.62038">
        <ele>238</ele>
        <time>2023-05-30T07:57:32.000Z</time>
      </trkpt>
      <trkpt lat="46.55872" lon="3.62076">
        <ele>237.80000305176</ele>
        <time>2023-05-30T07:57:40.000Z</time>
      </trkpt>
      <trkpt lat="46.55853" lon="3.62089">
        <ele>237.60000610352</ele>
        <time>2023-05-30T07:57:43.000Z</time>
      </trkpt>
      <trkpt lat="46.55841" lon="3.62098">
        <ele>237.60000610352</ele>
        <time>2023-05-30T07:57:45.000Z</time>
      </trkpt>
      <trkpt lat="46.5579" lon="3.62136">
        <ele>237.60000610352</ele>
        <time>2023-05-30T07:57:54.000Z</time>
      </trkpt>
      <trkpt lat="46.55754" lon="3.62163">
        <ele>238.19999694824</ele>
        <time>2023-05-30T07:58:00.000Z</time>
      </trkpt>
      <trkpt lat="46.55714" lon="3.62193">
        <ele>238.80000305176</ele>
        <time>2023-05-30T07:58:07.000Z</time>
      </trkpt>
      <trkpt lat="46.55689" lon="3.6222">
        <ele>239.19999694824</ele>
        <time>2023-05-30T07:58:12.000Z</time>
      </trkpt>
      <trkpt lat="46.55662" lon="3.62261">
        <ele>239.39999389648</ele>
        <time>2023-05-30T07:58:18.000Z</time>
      </trkpt>
      <trkpt lat="46.55633" lon="3.62312">
        <ele>238.39999389648</ele>
        <time>2023-05-30T07:58:24.000Z</time>
      </trkpt>
      <trkpt lat="46.55619" lon="3.62339">
        <ele>237.60000610352</ele>
        <time>2023-05-30T07:58:27.000Z</time>
      </trkpt>
      <trkpt lat="46.55598" lon="3.62375">
        <ele>236.60000610352</ele>
        <time>2023-05-30T07:58:31.000Z</time>
      </trkpt>
      <trkpt lat="46.55593" lon="3.62384">
        <ele>236.39999389648</ele>
        <time>2023-05-30T07:58:32.000Z</time>
      </trkpt>
      <trkpt lat="46.55565" lon="3.62433">
        <ele>236</ele>
        <time>2023-05-30T07:58:39.000Z</time>
      </trkpt>
      <trkpt lat="46.55531" lon="3.62494">
        <ele>235.80000305176</ele>
        <time>2023-05-30T07:58:46.000Z</time>
      </trkpt>
      <trkpt lat="46.55515" lon="3.62522">
        <ele>236</ele>
        <time>2023-05-30T07:58:50.000Z</time>
      </trkpt>
      <trkpt lat="46.5549" lon="3.62567">
        <ele>236.39999389648</ele>
        <time>2023-05-30T07:58:57.000Z</time>
      </trkpt>
      <trkpt lat="46.55458" lon="3.62624">
        <ele>237.60000610352</ele>
        <time>2023-05-30T07:59:06.000Z</time>
      </trkpt>
      <trkpt lat="46.55439" lon="3.62658">
        <ele>238.80000305176</ele>
        <time>2023-05-30T07:59:13.000Z</time>
      </trkpt>
      <trkpt lat="46.55433" lon="3.62668">
        <ele>239.39999389648</ele>
        <time>2023-05-30T07:59:15.000Z</time>
      </trkpt>
      <trkpt lat="46.55423" lon="3.62685">
        <ele>240</ele>
        <time>2023-05-30T07:59:18.000Z</time>
      </trkpt>
      <trkpt lat="46.5541" lon="3.62707">
        <ele>241.19999694824</ele>
        <time>2023-05-30T07:59:22.000Z</time>
      </trkpt>
      <trkpt lat="46.55397" lon="3.62727">
        <ele>242.19999694824</ele>
        <time>2023-05-30T07:59:26.000Z</time>
      </trkpt>
      <trkpt lat="46.55388" lon="3.62742">
        <ele>242.80000305176</ele>
        <time>2023-05-30T07:59:29.000Z</time>
      </trkpt>
      <trkpt lat="46.55382" lon="3.62754">
        <ele>243.19999694824</ele>
        <time>2023-05-30T07:59:31.000Z</time>
      </trkpt>
      <trkpt lat="46.55369" lon="3.62777">
        <ele>244.60000610352</ele>
        <time>2023-05-30T07:59:35.000Z</time>
      </trkpt>
      <trkpt lat="46.55363" lon="3.62789">
        <ele>245</ele>
        <time>2023-05-30T07:59:37.000Z</time>
      </trkpt>
      <trkpt lat="46.55349" lon="3.62812">
        <ele>245.80000305176</ele>
        <time>2023-05-30T07:59:41.000Z</time>
      </trkpt>
      <trkpt lat="46.55336" lon="3.62835">
        <ele>246.60000610352</ele>
        <time>2023-05-30T07:59:45.000Z</time>
      </trkpt>
      <trkpt lat="46.55334" lon="3.62841">
        <ele>246.80000305176</ele>
        <time>2023-05-30T07:59:46.000Z</time>
      </trkpt>
      <trkpt lat="46.55324" lon="3.62859">
        <ele>247.80000305176</ele>
        <time>2023-05-30T07:59:49.000Z</time>
      </trkpt>
      <trkpt lat="46.55314" lon="3.62876">
        <ele>248.39999389648</ele>
        <time>2023-05-30T07:59:52.000Z</time>
      </trkpt>
      <trkpt lat="46.55308" lon="3.62887">
        <ele>248.80000305176</ele>
        <time>2023-05-30T07:59:54.000Z</time>
      </trkpt>
      <trkpt lat="46.55289" lon="3.6292">
        <ele>250</ele>
        <time>2023-05-30T08:00:00.000Z</time>
      </trkpt>
      <trkpt lat="46.55283" lon="3.62932">
        <ele>250.19999694824</ele>
        <time>2023-05-30T08:00:02.000Z</time>
      </trkpt>
      <trkpt lat="46.55269" lon="3.62954">
        <ele>251</ele>
        <time>2023-05-30T08:00:06.000Z</time>
      </trkpt>
      <trkpt lat="46.55247" lon="3.62992">
        <ele>252.19999694824</ele>
        <time>2023-05-30T08:00:12.000Z</time>
      </trkpt>
      <trkpt lat="46.55222" lon="3.63035">
        <ele>252.39999389648</ele>
        <time>2023-05-30T08:00:18.000Z</time>
      </trkpt>
      <trkpt lat="46.55189" lon="3.63088">
        <ele>251.80000305176</ele>
        <time>2023-05-30T08:00:25.000Z</time>
      </trkpt>
      <trkpt lat="46.55165" lon="3.63128">
        <ele>251.19999694824</ele>
        <time>2023-05-30T08:00:30.000Z</time>
      </trkpt>
      <trkpt lat="46.55142" lon="3.63167">
        <ele>250.80000305176</ele>
        <time>2023-05-30T08:00:35.000Z</time>
      </trkpt>
      <trkpt lat="46.55105" lon="3.63228">
        <ele>250.80000305176</ele>
        <time>2023-05-30T08:00:43.000Z</time>
      </trkpt>
      <trkpt lat="46.55092" lon="3.63251">
        <ele>250.80000305176</ele>
        <time>2023-05-30T08:00:46.000Z</time>
      </trkpt>
      <trkpt lat="46.55056" lon="3.63311">
        <ele>250.60000610352</ele>
        <time>2023-05-30T08:00:54.000Z</time>
      </trkpt>
      <trkpt lat="46.55043" lon="3.63333">
        <ele>250.80000305176</ele>
        <time>2023-05-30T08:00:57.000Z</time>
      </trkpt>
      <trkpt lat="46.55004" lon="3.63399">
        <ele>251.60000610352</ele>
        <time>2023-05-30T08:01:06.000Z</time>
      </trkpt>
      <trkpt lat="46.54997" lon="3.63411">
        <ele>251.80000305176</ele>
        <time>2023-05-30T08:01:08.000Z</time>
      </trkpt>
      <trkpt lat="46.54985" lon="3.6343">
        <ele>252.39999389648</ele>
        <time>2023-05-30T08:01:11.000Z</time>
      </trkpt>
      <trkpt lat="46.54966" lon="3.63462">
        <ele>253.60000610352</ele>
        <time>2023-05-30T08:01:16.000Z</time>
      </trkpt>
      <trkpt lat="46.54948" lon="3.6349">
        <ele>254.19999694824</ele>
        <time>2023-05-30T08:01:21.000Z</time>
      </trkpt>
      <trkpt lat="46.5494" lon="3.63503">
        <ele>254.60000610352</ele>
        <time>2023-05-30T08:01:23.000Z</time>
      </trkpt>
      <trkpt lat="46.54931" lon="3.6352">
        <ele>254.80000305176</ele>
        <time>2023-05-30T08:01:25.000Z</time>
      </trkpt>
      <trkpt lat="46.54903" lon="3.63569">
        <ele>254.80000305176</ele>
        <time>2023-05-30T08:01:31.000Z</time>
      </trkpt>
      <trkpt lat="46.54884" lon="3.63603">
        <ele>254.39999389648</ele>
        <time>2023-05-30T08:01:35.000Z</time>
      </trkpt>
      <trkpt lat="46.54873" lon="3.6362">
        <ele>254</ele>
        <time>2023-05-30T08:01:37.000Z</time>
      </trkpt>
      <trkpt lat="46.54851" lon="3.63657">
        <ele>253.19999694824</ele>
        <time>2023-05-30T08:01:41.000Z</time>
      </trkpt>
      <trkpt lat="46.54841" lon="3.63676">
        <ele>252.60000610352</ele>
        <time>2023-05-30T08:01:43.000Z</time>
      </trkpt>
      <trkpt lat="46.5483" lon="3.63696">
        <ele>252</ele>
        <time>2023-05-30T08:01:45.000Z</time>
      </trkpt>
      <trkpt lat="46.5481" lon="3.63729">
        <ele>251</ele>
        <time>2023-05-30T08:01:48.000Z</time>
      </trkpt>
      <trkpt lat="46.54801" lon="3.63746">
        <ele>250.39999389648</ele>
        <time>2023-05-30T08:01:50.000Z</time>
      </trkpt>
      <trkpt lat="46.5479" lon="3.63765">
        <ele>249.80000305176</ele>
        <time>2023-05-30T08:01:52.000Z</time>
      </trkpt>
      <trkpt lat="46.54768" lon="3.63802">
        <ele>248.80000305176</ele>
        <time>2023-05-30T08:01:56.000Z</time>
      </trkpt>
      <trkpt lat="46.54756" lon="3.63823">
        <ele>248</ele>
        <time>2023-05-30T08:01:58.000Z</time>
      </trkpt>
      <trkpt lat="46.54744" lon="3.63845">
        <ele>247.19999694824</ele>
        <time>2023-05-30T08:02:00.000Z</time>
      </trkpt>
      <trkpt lat="46.54719" lon="3.63886">
        <ele>246</ele>
        <time>2023-05-30T08:02:04.000Z</time>
      </trkpt>
      <trkpt lat="46.54706" lon="3.63906">
        <ele>245.39999389648</ele>
        <time>2023-05-30T08:02:06.000Z</time>
      </trkpt>
      <trkpt lat="46.54694" lon="3.63927">
        <ele>244.80000305176</ele>
        <time>2023-05-30T08:02:08.000Z</time>
      </trkpt>
      <trkpt lat="46.54675" lon="3.6396">
        <ele>243.80000305176</ele>
        <time>2023-05-30T08:02:11.000Z</time>
      </trkpt>
      <trkpt lat="46.54656" lon="3.63991">
        <ele>242.80000305176</ele>
        <time>2023-05-30T08:02:14.000Z</time>
      </trkpt>
      <trkpt lat="46.54637" lon="3.64022">
        <ele>241.39999389648</ele>
        <time>2023-05-30T08:02:17.000Z</time>
      </trkpt>
      <trkpt lat="46.54608" lon="3.64075">
        <ele>240.39999389648</ele>
        <time>2023-05-30T08:02:22.000Z</time>
      </trkpt>
      <trkpt lat="46.54596" lon="3.64094">
        <ele>240.19999694824</ele>
        <time>2023-05-30T08:02:24.000Z</time>
      </trkpt>
      <trkpt lat="46.54565" lon="3.64148">
        <ele>240.19999694824</ele>
        <time>2023-05-30T08:02:30.000Z</time>
      </trkpt>
      <trkpt lat="46.54539" lon="3.64193">
        <ele>241.39999389648</ele>
        <time>2023-05-30T08:02:36.000Z</time>
      </trkpt>
      <trkpt lat="46.54535" lon="3.642">
        <ele>241.80000305176</ele>
        <time>2023-05-30T08:02:37.000Z</time>
      </trkpt>
      <trkpt lat="46.54527" lon="3.64214">
        <ele>242.39999389648</ele>
        <time>2023-05-30T08:02:39.000Z</time>
      </trkpt>
      <trkpt lat="46.54512" lon="3.64239">
        <ele>243.60000610352</ele>
        <time>2023-05-30T08:02:43.000Z</time>
      </trkpt>
      <trkpt lat="46.54509" lon="3.64245">
        <ele>244</ele>
        <time>2023-05-30T08:02:44.000Z</time>
      </trkpt>
      <trkpt lat="46.54495" lon="3.64269">
        <ele>244.60000610352</ele>
        <time>2023-05-30T08:02:48.000Z</time>
      </trkpt>
      <trkpt lat="46.54485" lon="3.64287">
        <ele>245.39999389648</ele>
        <time>2023-05-30T08:02:51.000Z</time>
      </trkpt>
      <trkpt lat="46.54481" lon="3.64292">
        <ele>245.80000305176</ele>
        <time>2023-05-30T08:02:52.000Z</time>
      </trkpt>
      <trkpt lat="46.54462" lon="3.64328">
        <ele>246.80000305176</ele>
        <time>2023-05-30T08:02:58.000Z</time>
      </trkpt>
      <trkpt lat="46.54451" lon="3.64345">
        <ele>247.39999389648</ele>
        <time>2023-05-30T08:03:01.000Z</time>
      </trkpt>
      <trkpt lat="46.54441" lon="3.64363">
        <ele>248</ele>
        <time>2023-05-30T08:03:04.000Z</time>
      </trkpt>
      <trkpt lat="46.54424" lon="3.64392">
        <ele>249.19999694824</ele>
        <time>2023-05-30T08:03:09.000Z</time>
      </trkpt>
      <trkpt lat="46.54421" lon="3.64396">
        <ele>249.39999389648</ele>
        <time>2023-05-30T08:03:10.000Z</time>
      </trkpt>
      <trkpt lat="46.54404" lon="3.64426">
        <ele>250.39999389648</ele>
        <time>2023-05-30T08:03:15.000Z</time>
      </trkpt>
      <trkpt lat="46.54387" lon="3.64454">
        <ele>251.39999389648</ele>
        <time>2023-05-30T08:03:20.000Z</time>
      </trkpt>
      <trkpt lat="46.54374" lon="3.64475">
        <ele>252.60000610352</ele>
        <time>2023-05-30T08:03:24.000Z</time>
      </trkpt>
      <trkpt lat="46.54355" lon="3.64507">
        <ele>253.80000305176</ele>
        <time>2023-05-30T08:03:30.000Z</time>
      </trkpt>
      <trkpt lat="46.54336" lon="3.64539">
        <ele>255.19999694824</ele>
        <time>2023-05-30T08:03:36.000Z</time>
      </trkpt>
      <trkpt lat="46.54321" lon="3.64565">
        <ele>256.20001220703</ele>
        <time>2023-05-30T08:03:41.000Z</time>
      </trkpt>
      <trkpt lat="46.54315" lon="3.64575">
        <ele>256.39999389648</ele>
        <time>2023-05-30T08:03:43.000Z</time>
      </trkpt>
      <trkpt lat="46.54303" lon="3.64595">
        <ele>257.20001220703</ele>
        <time>2023-05-30T08:03:47.000Z</time>
      </trkpt>
      <trkpt lat="46.54288" lon="3.64622">
        <ele>258.39999389648</ele>
        <time>2023-05-30T08:03:52.000Z</time>
      </trkpt>
      <trkpt lat="46.54278" lon="3.64639">
        <ele>258.60000610352</ele>
        <time>2023-05-30T08:03:55.000Z</time>
      </trkpt>
      <trkpt lat="46.5425" lon="3.64686">
        <ele>259.39999389648</ele>
        <time>2023-05-30T08:04:03.000Z</time>
      </trkpt>
      <trkpt lat="46.54247" lon="3.64692">
        <ele>259.60000610352</ele>
        <time>2023-05-30T08:04:04.000Z</time>
      </trkpt>
      <trkpt lat="46.54215" lon="3.64746">
        <ele>260.20001220703</ele>
        <time>2023-05-30T08:04:13.000Z</time>
      </trkpt>
      <trkpt lat="46.54196" lon="3.64777">
        <ele>260.39999389648</ele>
        <time>2023-05-30T08:04:18.000Z</time>
      </trkpt>
      <trkpt lat="46.54171" lon="3.64817">
        <ele>260.39999389648</ele>
        <time>2023-05-30T08:04:24.000Z</time>
      </trkpt>
      <trkpt lat="46.54143" lon="3.64861">
        <ele>260</ele>
        <time>2023-05-30T08:04:30.000Z</time>
      </trkpt>
      <trkpt lat="46.54121" lon="3.64894">
        <ele>259.39999389648</ele>
        <time>2023-05-30T08:04:34.000Z</time>
      </trkpt>
      <trkpt lat="46.54105" lon="3.6492">
        <ele>258.20001220703</ele>
        <time>2023-05-30T08:04:37.000Z</time>
      </trkpt>
      <trkpt lat="46.54088" lon="3.64945">
        <ele>257</ele>
        <time>2023-05-30T08:04:40.000Z</time>
      </trkpt>
      <trkpt lat="46.54068" lon="3.64974">
        <ele>256.20001220703</ele>
        <time>2023-05-30T08:04:43.000Z</time>
      </trkpt>
      <trkpt lat="46.54063" lon="3.64982">
        <ele>255.80000305176</ele>
        <time>2023-05-30T08:04:44.000Z</time>
      </trkpt>
      <trkpt lat="46.54043" lon="3.65012">
        <ele>254.60000610352</ele>
        <time>2023-05-30T08:04:47.000Z</time>
      </trkpt>
      <trkpt lat="46.54031" lon="3.6503">
        <ele>253.60000610352</ele>
        <time>2023-05-30T08:04:49.000Z</time>
      </trkpt>
      <trkpt lat="46.54018" lon="3.65048">
        <ele>253</ele>
        <time>2023-05-30T08:04:51.000Z</time>
      </trkpt>
      <trkpt lat="46.54005" lon="3.65066">
        <ele>252.39999389648</ele>
        <time>2023-05-30T08:04:53.000Z</time>
      </trkpt>
      <trkpt lat="46.53984" lon="3.65094">
        <ele>251.19999694824</ele>
        <time>2023-05-30T08:04:56.000Z</time>
      </trkpt>
      <trkpt lat="46.53964" lon="3.65124">
        <ele>250</ele>
        <time>2023-05-30T08:04:59.000Z</time>
      </trkpt>
      <trkpt lat="46.53957" lon="3.65133">
        <ele>249.60000610352</ele>
        <time>2023-05-30T08:05:00.000Z</time>
      </trkpt>
      <trkpt lat="46.53937" lon="3.65162">
        <ele>248.39999389648</ele>
        <time>2023-05-30T08:05:03.000Z</time>
      </trkpt>
      <trkpt lat="46.53916" lon="3.65191">
        <ele>247.39999389648</ele>
        <time>2023-05-30T08:05:06.000Z</time>
      </trkpt>
      <trkpt lat="46.53888" lon="3.6523">
        <ele>246</ele>
        <time>2023-05-30T08:05:10.000Z</time>
      </trkpt>
      <trkpt lat="46.53869" lon="3.65258">
        <ele>244.80000305176</ele>
        <time>2023-05-30T08:05:13.000Z</time>
      </trkpt>
      <trkpt lat="46.53856" lon="3.65275">
        <ele>244.19999694824</ele>
        <time>2023-05-30T08:05:15.000Z</time>
      </trkpt>
      <trkpt lat="46.53843" lon="3.6529">
        <ele>244</ele>
        <time>2023-05-30T08:05:17.000Z</time>
      </trkpt>
      <trkpt lat="46.53831" lon="3.65306">
        <ele>243.80000305176</ele>
        <time>2023-05-30T08:05:19.000Z</time>
      </trkpt>
      <trkpt lat="46.53818" lon="3.6533">
        <ele>243.60000610352</ele>
        <time>2023-05-30T08:05:22.000Z</time>
      </trkpt>
      <trkpt lat="46.53789" lon="3.65375">
        <ele>243.80000305176</ele>
        <time>2023-05-30T08:05:28.000Z</time>
      </trkpt>
      <trkpt lat="46.53748" lon="3.65425">
        <ele>243.80000305176</ele>
        <time>2023-05-30T08:05:36.000Z</time>
      </trkpt>
      <trkpt lat="46.53726" lon="3.65443">
        <ele>243.80000305176</ele>
        <time>2023-05-30T08:05:40.000Z</time>
      </trkpt>
      <trkpt lat="46.53718" lon="3.65445">
        <ele>243.80000305176</ele>
        <time>2023-05-30T08:05:41.000Z</time>
      </trkpt>
      <trkpt lat="46.53705" lon="3.65446">
        <ele>243.80000305176</ele>
        <time>2023-05-30T08:05:43.000Z</time>
      </trkpt>
      <trkpt lat="46.53694" lon="3.65455">
        <ele>243.80000305176</ele>
        <time>2023-05-30T08:05:45.000Z</time>
      </trkpt>
      <trkpt lat="46.53687" lon="3.6547">
        <ele>243.80000305176</ele>
        <time>2023-05-30T08:05:47.000Z</time>
      </trkpt>
      <trkpt lat="46.53685" lon="3.65479">
        <ele>244</ele>
        <time>2023-05-30T08:05:48.000Z</time>
      </trkpt>
      <trkpt lat="46.53685" lon="3.65489">
        <ele>244</ele>
        <time>2023-05-30T08:05:49.000Z</time>
      </trkpt>
      <trkpt lat="46.53688" lon="3.65507">
        <ele>244.19999694824</ele>
        <time>2023-05-30T08:05:51.000Z</time>
      </trkpt>
      <trkpt lat="46.53697" lon="3.65532">
        <ele>244.39999389648</ele>
        <time>2023-05-30T08:05:54.000Z</time>
      </trkpt>
      <trkpt lat="46.53698" lon="3.65541">
        <ele>244.39999389648</ele>
        <time>2023-05-30T08:05:55.000Z</time>
      </trkpt>
      <trkpt lat="46.53698" lon="3.6555">
        <ele>244.39999389648</ele>
        <time>2023-05-30T08:05:56.000Z</time>
      </trkpt>
      <trkpt lat="46.53695" lon="3.65568">
        <ele>244.60000610352</ele>
        <time>2023-05-30T08:05:58.000Z</time>
      </trkpt>
      <trkpt lat="46.53693" lon="3.65577">
        <ele>244.60000610352</ele>
        <time>2023-05-30T08:05:59.000Z</time>
      </trkpt>
      <trkpt lat="46.53686" lon="3.65602">
        <ele>244.80000305176</ele>
        <time>2023-05-30T08:06:02.000Z</time>
      </trkpt>
      <trkpt lat="46.5367" lon="3.65641">
        <ele>245.19999694824</ele>
        <time>2023-05-30T08:06:07.000Z</time>
      </trkpt>
      <trkpt lat="46.53642" lon="3.65694">
        <ele>245.39999389648</ele>
        <time>2023-05-30T08:06:14.000Z</time>
      </trkpt>
      <trkpt lat="46.53601" lon="3.6576">
        <ele>245.39999389648</ele>
        <time>2023-05-30T08:06:23.000Z</time>
      </trkpt>
      <trkpt lat="46.53593" lon="3.65774">
        <ele>245.39999389648</ele>
        <time>2023-05-30T08:06:25.000Z</time>
      </trkpt>
      <trkpt lat="46.53554" lon="3.65838">
        <ele>244.39999389648</ele>
        <time>2023-05-30T08:06:33.000Z</time>
      </trkpt>
      <trkpt lat="46.53522" lon="3.6589">
        <ele>243.60000610352</ele>
        <time>2023-05-30T08:06:40.000Z</time>
      </trkpt>
      <trkpt lat="46.53504" lon="3.6592">
        <ele>243.19999694824</ele>
        <time>2023-05-30T08:06:44.000Z</time>
      </trkpt>
      <trkpt lat="46.5348" lon="3.65959">
        <ele>242.60000610352</ele>
        <time>2023-05-30T08:06:49.000Z</time>
      </trkpt>
      <trkpt lat="46.53456" lon="3.65998">
        <ele>242</ele>
        <time>2023-05-30T08:06:54.000Z</time>
      </trkpt>
      <trkpt lat="46.53427" lon="3.66046">
        <ele>241.60000610352</ele>
        <time>2023-05-30T08:07:00.000Z</time>
      </trkpt>
      <trkpt lat="46.53412" lon="3.66071">
        <ele>241</ele>
        <time>2023-05-30T08:07:03.000Z</time>
      </trkpt>
      <trkpt lat="46.53393" lon="3.66102">
        <ele>240.60000610352</ele>
        <time>2023-05-30T08:07:07.000Z</time>
      </trkpt>
      <trkpt lat="46.53369" lon="3.66141">
        <ele>239.80000305176</ele>
        <time>2023-05-30T08:07:12.000Z</time>
      </trkpt>
      <trkpt lat="46.53359" lon="3.66157">
        <ele>239.39999389648</ele>
        <time>2023-05-30T08:07:14.000Z</time>
      </trkpt>
      <trkpt lat="46.5332" lon="3.66222">
        <ele>238.60000610352</ele>
        <time>2023-05-30T08:07:22.000Z</time>
      </trkpt>
      <trkpt lat="46.5331" lon="3.66239">
        <ele>238.39999389648</ele>
        <time>2023-05-30T08:07:24.000Z</time>
      </trkpt>
      <trkpt lat="46.53305" lon="3.66247">
        <ele>238.39999389648</ele>
        <time>2023-05-30T08:07:25.000Z</time>
      </trkpt>
      <trkpt lat="46.53266" lon="3.66313">
        <ele>237.19999694824</ele>
        <time>2023-05-30T08:07:33.000Z</time>
      </trkpt>
      <trkpt lat="46.5323" lon="3.66373">
        <ele>236.60000610352</ele>
        <time>2023-05-30T08:07:40.000Z</time>
      </trkpt>
      <trkpt lat="46.5321" lon="3.66405">
        <ele>236.19999694824</ele>
        <time>2023-05-30T08:07:44.000Z</time>
      </trkpt>
      <trkpt lat="46.53185" lon="3.66447">
        <ele>235.19999694824</ele>
        <time>2023-05-30T08:07:49.000Z</time>
      </trkpt>
      <trkpt lat="46.53157" lon="3.66485">
        <ele>234.60000610352</ele>
        <time>2023-05-30T08:07:54.000Z</time>
      </trkpt>
      <trkpt lat="46.5314" lon="3.66512">
        <ele>234.19999694824</ele>
        <time>2023-05-30T08:07:57.000Z</time>
      </trkpt>
      <trkpt lat="46.53119" lon="3.66548">
        <ele>233.80000305176</ele>
        <time>2023-05-30T08:08:01.000Z</time>
      </trkpt>
      <trkpt lat="46.53084" lon="3.6661">
        <ele>233.19999694824</ele>
        <time>2023-05-30T08:08:08.000Z</time>
      </trkpt>
      <trkpt lat="46.53079" lon="3.66619">
        <ele>233</ele>
        <time>2023-05-30T08:08:09.000Z</time>
      </trkpt>
      <trkpt lat="46.53069" lon="3.66636">
        <ele>233</ele>
        <time>2023-05-30T08:08:11.000Z</time>
      </trkpt>
      <trkpt lat="46.53033" lon="3.66695">
        <ele>232.60000610352</ele>
        <time>2023-05-30T08:08:18.000Z</time>
      </trkpt>
      <trkpt lat="46.53006" lon="3.66737">
        <ele>232</ele>
        <time>2023-05-30T08:08:23.000Z</time>
      </trkpt>
      <trkpt lat="46.53002" lon="3.66743">
        <ele>232</ele>
        <time>2023-05-30T08:08:24.000Z</time>
      </trkpt>
      <trkpt lat="46.52965" lon="3.66806">
        <ele>231</ele>
        <time>2023-05-30T08:08:31.000Z</time>
      </trkpt>
      <trkpt lat="46.5296" lon="3.66815">
        <ele>230.80000305176</ele>
        <time>2023-05-30T08:08:32.000Z</time>
      </trkpt>
      <trkpt lat="46.52922" lon="3.66877">
        <ele>230.19999694824</ele>
        <time>2023-05-30T08:08:39.000Z</time>
      </trkpt>
      <trkpt lat="46.52916" lon="3.66885">
        <ele>230</ele>
        <time>2023-05-30T08:08:40.000Z</time>
      </trkpt>
      <trkpt lat="46.5289" lon="3.66927">
        <ele>229.80000305176</ele>
        <time>2023-05-30T08:08:45.000Z</time>
      </trkpt>
      <trkpt lat="46.52865" lon="3.66969">
        <ele>229.60000610352</ele>
        <time>2023-05-30T08:08:50.000Z</time>
      </trkpt>
      <trkpt lat="46.52825" lon="3.67034">
        <ele>229.80000305176</ele>
        <time>2023-05-30T08:08:58.000Z</time>
      </trkpt>
      <trkpt lat="46.5279" lon="3.67094">
        <ele>229.80000305176</ele>
        <time>2023-05-30T08:09:05.000Z</time>
      </trkpt>
      <trkpt lat="46.52771" lon="3.67127">
        <ele>229.80000305176</ele>
        <time>2023-05-30T08:09:09.000Z</time>
      </trkpt>
      <trkpt lat="46.52736" lon="3.67186">
        <ele>230.60000610352</ele>
        <time>2023-05-30T08:09:17.000Z</time>
      </trkpt>
      <trkpt lat="46.52705" lon="3.67237">
        <ele>231</ele>
        <time>2023-05-30T08:09:24.000Z</time>
      </trkpt>
      <trkpt lat="46.52698" lon="3.67249">
        <ele>231.19999694824</ele>
        <time>2023-05-30T08:09:26.000Z</time>
      </trkpt>
      <trkpt lat="46.52659" lon="3.67311">
        <ele>231.60000610352</ele>
        <time>2023-05-30T08:09:35.000Z</time>
      </trkpt>
      <trkpt lat="46.52655" lon="3.67318">
        <ele>231.60000610352</ele>
        <time>2023-05-30T08:09:36.000Z</time>
      </trkpt>
      <trkpt lat="46.52617" lon="3.67381">
        <ele>231.80000305176</ele>
        <time>2023-05-30T08:09:46.000Z</time>
      </trkpt>
      <trkpt lat="46.52606" lon="3.674">
        <ele>232</ele>
        <time>2023-05-30T08:09:49.000Z</time>
      </trkpt>
      <trkpt lat="46.52574" lon="3.67454">
        <ele>233.19999694824</ele>
        <time>2023-05-30T08:09:58.000Z</time>
      </trkpt>
      <trkpt lat="46.52557" lon="3.67482">
        <ele>234.19999694824</ele>
        <time>2023-05-30T08:10:03.000Z</time>
      </trkpt>
      <trkpt lat="46.52544" lon="3.67504">
        <ele>235</ele>
        <time>2023-05-30T08:10:07.000Z</time>
      </trkpt>
      <trkpt lat="46.52537" lon="3.67516">
        <ele>235.19999694824</ele>
        <time>2023-05-30T08:10:09.000Z</time>
      </trkpt>
      <trkpt lat="46.52523" lon="3.67539">
        <ele>236.19999694824</ele>
        <time>2023-05-30T08:10:13.000Z</time>
      </trkpt>
      <trkpt lat="46.52513" lon="3.67556">
        <ele>236.60000610352</ele>
        <time>2023-05-30T08:10:16.000Z</time>
      </trkpt>
      <trkpt lat="46.52499" lon="3.67579">
        <ele>237.39999389648</ele>
        <time>2023-05-30T08:10:20.000Z</time>
      </trkpt>
      <trkpt lat="46.52479" lon="3.67612">
        <ele>238.19999694824</ele>
        <time>2023-05-30T08:10:26.000Z</time>
      </trkpt>
      <trkpt lat="46.52472" lon="3.67623">
        <ele>238.39999389648</ele>
        <time>2023-05-30T08:10:28.000Z</time>
      </trkpt>
      <trkpt lat="46.52463" lon="3.67642">
        <ele>239</ele>
        <time>2023-05-30T08:10:31.000Z</time>
      </trkpt>
      <trkpt lat="46.52458" lon="3.67656">
        <ele>239.39999389648</ele>
        <time>2023-05-30T08:10:33.000Z</time>
      </trkpt>
      <trkpt lat="46.52456" lon="3.67664">
        <ele>239.60000610352</ele>
        <time>2023-05-30T08:10:34.000Z</time>
      </trkpt>
      <trkpt lat="46.52454" lon="3.67689">
        <ele>239.80000305176</ele>
        <time>2023-05-30T08:10:37.000Z</time>
      </trkpt>
      <trkpt lat="46.52454" lon="3.67698">
        <ele>239.80000305176</ele>
        <time>2023-05-30T08:10:38.000Z</time>
      </trkpt>
      <trkpt lat="46.52454" lon="3.67769">
        <ele>239.39999389648</ele>
        <time>2023-05-30T08:10:46.000Z</time>
      </trkpt>
      <trkpt lat="46.52454" lon="3.67778">
        <ele>239.39999389648</ele>
        <time>2023-05-30T08:10:47.000Z</time>
      </trkpt>
      <trkpt lat="46.5245" lon="3.67807">
        <ele>239.19999694824</ele>
        <time>2023-05-30T08:10:50.000Z</time>
      </trkpt>
      <trkpt lat="46.52447" lon="3.67816">
        <ele>239.19999694824</ele>
        <time>2023-05-30T08:10:51.000Z</time>
      </trkpt>
      <trkpt lat="46.52436" lon="3.67844">
        <ele>238.39999389648</ele>
        <time>2023-05-30T08:10:54.000Z</time>
      </trkpt>
      <trkpt lat="46.52428" lon="3.67862">
        <ele>238.19999694824</ele>
        <time>2023-05-30T08:10:56.000Z</time>
      </trkpt>
      <trkpt lat="46.52422" lon="3.6787">
        <ele>237.60000610352</ele>
        <time>2023-05-30T08:10:57.000Z</time>
      </trkpt>
      <trkpt lat="46.52417" lon="3.67877">
        <ele>237.19999694824</ele>
        <time>2023-05-30T08:10:58.000Z</time>
      </trkpt>
      <trkpt lat="46.52405" lon="3.6789">
        <ele>236.39999389648</ele>
        <time>2023-05-30T08:11:00.000Z</time>
      </trkpt>
      <trkpt lat="46.52398" lon="3.67896">
        <ele>236.19999694824</ele>
        <time>2023-05-30T08:11:01.000Z</time>
      </trkpt>
      <trkpt lat="46.52371" lon="3.67922">
        <ele>235</ele>
        <time>2023-05-30T08:11:05.000Z</time>
      </trkpt>
      <trkpt lat="46.52351" lon="3.67942">
        <ele>234.19999694824</ele>
        <time>2023-05-30T08:11:08.000Z</time>
      </trkpt>
      <trkpt lat="46.52344" lon="3.67949">
        <ele>234</ele>
        <time>2023-05-30T08:11:09.000Z</time>
      </trkpt>
      <trkpt lat="46.52327" lon="3.67967">
        <ele>232.80000305176</ele>
        <time>2023-05-30T08:11:12.000Z</time>
      </trkpt>
      <trkpt lat="46.52318" lon="3.67977">
        <ele>232.19999694824</ele>
        <time>2023-05-30T08:11:14.000Z</time>
      </trkpt>
      <trkpt lat="46.52313" lon="3.67983">
        <ele>232.19999694824</ele>
        <time>2023-05-30T08:11:15.000Z</time>
      </trkpt>
      <trkpt lat="46.52304" lon="3.67996">
        <ele>231.80000305176</ele>
        <time>2023-05-30T08:11:17.000Z</time>
      </trkpt>
      <trkpt lat="46.52294" lon="3.68007">
        <ele>231.19999694824</ele>
        <time>2023-05-30T08:11:19.000Z</time>
      </trkpt>
      <trkpt lat="46.52273" lon="3.68031">
        <ele>230.60000610352</ele>
        <time>2023-05-30T08:11:23.000Z</time>
      </trkpt>
      <trkpt lat="46.52258" lon="3.6805">
        <ele>230.39999389648</ele>
        <time>2023-05-30T08:11:26.000Z</time>
      </trkpt>
      <trkpt lat="46.5222" lon="3.68096">
        <ele>229.60000610352</ele>
        <time>2023-05-30T08:11:33.000Z</time>
      </trkpt>
      <trkpt lat="46.52215" lon="3.68102">
        <ele>229.60000610352</ele>
        <time>2023-05-30T08:11:34.000Z</time>
      </trkpt>
      <trkpt lat="46.52185" lon="3.6814">
        <ele>229.39999389648</ele>
        <time>2023-05-30T08:11:40.000Z</time>
      </trkpt>
      <trkpt lat="46.52154" lon="3.6817">
        <ele>229.60000610352</ele>
        <time>2023-05-30T08:11:46.000Z</time>
      </trkpt>
      <trkpt lat="46.52149" lon="3.68174">
        <ele>229.80000305176</ele>
        <time>2023-05-30T08:11:47.000Z</time>
      </trkpt>
      <trkpt lat="46.52127" lon="3.6819">
        <ele>230</ele>
        <time>2023-05-30T08:11:51.000Z</time>
      </trkpt>
      <trkpt lat="46.52122" lon="3.68195">
        <ele>230</ele>
        <time>2023-05-30T08:11:52.000Z</time>
      </trkpt>
      <trkpt lat="46.52099" lon="3.6822">
        <ele>230</ele>
        <time>2023-05-30T08:11:56.000Z</time>
      </trkpt>
      <trkpt lat="46.52064" lon="3.68271">
        <ele>228.60000610352</ele>
        <time>2023-05-30T08:12:02.000Z</time>
      </trkpt>
      <trkpt lat="46.52045" lon="3.68299">
        <ele>227.39999389648</ele>
        <time>2023-05-30T08:12:05.000Z</time>
      </trkpt>
      <trkpt lat="46.52025" lon="3.68327">
        <ele>226</ele>
        <time>2023-05-30T08:12:08.000Z</time>
      </trkpt>
      <trkpt lat="46.52" lon="3.68366">
        <ele>224.19999694824</ele>
        <time>2023-05-30T08:12:12.000Z</time>
      </trkpt>
      <trkpt lat="46.51994" lon="3.68375">
        <ele>224</ele>
        <time>2023-05-30T08:12:13.000Z</time>
      </trkpt>
      <trkpt lat="46.51982" lon="3.68395">
        <ele>223</ele>
        <time>2023-05-30T08:12:15.000Z</time>
      </trkpt>
      <trkpt lat="46.51958" lon="3.68431">
        <ele>221.80000305176</ele>
        <time>2023-05-30T08:12:19.000Z</time>
      </trkpt>
      <trkpt lat="46.51927" lon="3.68479">
        <ele>220.80000305176</ele>
        <time>2023-05-30T08:12:25.000Z</time>
      </trkpt>
      <trkpt lat="46.51917" lon="3.68494">
        <ele>220.80000305176</ele>
        <time>2023-05-30T08:12:27.000Z</time>
      </trkpt>
      <trkpt lat="46.51893" lon="3.68532">
        <ele>220.80000305176</ele>
        <time>2023-05-30T08:12:32.000Z</time>
      </trkpt>
      <trkpt lat="46.51868" lon="3.68571">
        <ele>221.39999389648</ele>
        <time>2023-05-30T08:12:38.000Z</time>
      </trkpt>
      <trkpt lat="46.5185" lon="3.68598">
        <ele>222</ele>
        <time>2023-05-30T08:12:42.000Z</time>
      </trkpt>
      <trkpt lat="46.51833" lon="3.68624">
        <ele>222.39999389648</ele>
        <time>2023-05-30T08:12:46.000Z</time>
      </trkpt>
      <trkpt lat="46.51793" lon="3.68687">
        <ele>222.60000610352</ele>
        <time>2023-05-30T08:12:55.000Z</time>
      </trkpt>
      <trkpt lat="46.51789" lon="3.68694">
        <ele>222.60000610352</ele>
        <time>2023-05-30T08:12:56.000Z</time>
      </trkpt>
      <trkpt lat="46.51747" lon="3.68758">
        <ele>222</ele>
        <time>2023-05-30T08:13:05.000Z</time>
      </trkpt>
      <trkpt lat="46.51738" lon="3.68772">
        <ele>221.80000305176</ele>
        <time>2023-05-30T08:13:07.000Z</time>
      </trkpt>
      <trkpt lat="46.51697" lon="3.68836">
        <ele>221.60000610352</ele>
        <time>2023-05-30T08:13:16.000Z</time>
      </trkpt>
      <trkpt lat="46.51688" lon="3.68848">
        <ele>221.60000610352</ele>
        <time>2023-05-30T08:13:18.000Z</time>
      </trkpt>
      <trkpt lat="46.51677" lon="3.68854">
        <ele>221.80000305176</ele>
        <time>2023-05-30T08:13:20.000Z</time>
      </trkpt>
      <trkpt lat="46.51671" lon="3.68854">
        <ele>221.80000305176</ele>
        <time>2023-05-30T08:13:21.000Z</time>
      </trkpt>
      <trkpt lat="46.5166" lon="3.68853">
        <ele>222</ele>
        <time>2023-05-30T08:13:23.000Z</time>
      </trkpt>
      <trkpt lat="46.51642" lon="3.68854">
        <ele>222</ele>
        <time>2023-05-30T08:13:26.000Z</time>
      </trkpt>
      <trkpt lat="46.51586" lon="3.68856">
        <ele>222</ele>
        <time>2023-05-30T08:13:35.000Z</time>
      </trkpt>
      <trkpt lat="46.5158" lon="3.68856">
        <ele>222</ele>
        <time>2023-05-30T08:13:36.000Z</time>
      </trkpt>
      <trkpt lat="46.51523" lon="3.68861">
        <ele>222.19999694824</ele>
        <time>2023-05-30T08:13:45.000Z</time>
      </trkpt>
      <trkpt lat="46.5151" lon="3.68861">
        <ele>222.19999694824</ele>
        <time>2023-05-30T08:13:47.000Z</time>
      </trkpt>
      <trkpt lat="46.51455" lon="3.68863">
        <ele>222.19999694824</ele>
        <time>2023-05-30T08:13:56.000Z</time>
      </trkpt>
      <trkpt lat="46.51406" lon="3.68867">
        <ele>222.80000305176</ele>
        <time>2023-05-30T08:14:04.000Z</time>
      </trkpt>
      <trkpt lat="46.51352" lon="3.68871">
        <ele>222.80000305176</ele>
        <time>2023-05-30T08:14:13.000Z</time>
      </trkpt>
      <trkpt lat="46.51315" lon="3.6888">
        <ele>223.19999694824</ele>
        <time>2023-05-30T08:14:19.000Z</time>
      </trkpt>
      <trkpt lat="46.51303" lon="3.68884">
        <ele>223.39999389648</ele>
        <time>2023-05-30T08:14:21.000Z</time>
      </trkpt>
      <trkpt lat="46.51286" lon="3.68891">
        <ele>223.39999389648</ele>
        <time>2023-05-30T08:14:24.000Z</time>
      </trkpt>
      <trkpt lat="46.5128" lon="3.68894">
        <ele>223.39999389648</ele>
        <time>2023-05-30T08:14:25.000Z</time>
      </trkpt>
      <trkpt lat="46.51249" lon="3.68911">
        <ele>224.39999389648</ele>
        <time>2023-05-30T08:14:31.000Z</time>
      </trkpt>
      <trkpt lat="46.51233" lon="3.68919">
        <ele>224.80000305176</ele>
        <time>2023-05-30T08:14:34.000Z</time>
      </trkpt>
      <trkpt lat="46.51228" lon="3.68922">
        <ele>225.19999694824</ele>
        <time>2023-05-30T08:14:35.000Z</time>
      </trkpt>
      <trkpt lat="46.51219" lon="3.68926">
        <ele>225.39999389648</ele>
        <time>2023-05-30T08:14:37.000Z</time>
      </trkpt>
      <trkpt lat="46.51208" lon="3.68931">
        <ele>225.80000305176</ele>
        <time>2023-05-30T08:14:39.000Z</time>
      </trkpt>
      <trkpt lat="46.51196" lon="3.68938">
        <ele>226.60000610352</ele>
        <time>2023-05-30T08:14:42.000Z</time>
      </trkpt>
      <trkpt lat="46.51178" lon="3.68947">
        <ele>227.60000610352</ele>
        <time>2023-05-30T08:14:46.000Z</time>
      </trkpt>
      <trkpt lat="46.51173" lon="3.68949">
        <ele>227.80000305176</ele>
        <time>2023-05-30T08:14:47.000Z</time>
      </trkpt>
      <trkpt lat="46.51169" lon="3.68951">
        <ele>228</ele>
        <time>2023-05-30T08:14:48.000Z</time>
      </trkpt>
      <trkpt lat="46.51165" lon="3.68953">
        <ele>228.39999389648</ele>
        <time>2023-05-30T08:14:49.000Z</time>
      </trkpt>
      <trkpt lat="46.51159" lon="3.68955">
        <ele>228.60000610352</ele>
        <time>2023-05-30T08:14:50.000Z</time>
      </trkpt>
      <trkpt lat="46.51156" lon="3.68957">
        <ele>229</ele>
        <time>2023-05-30T08:14:51.000Z</time>
      </trkpt>
      <trkpt lat="46.51152" lon="3.6896">
        <ele>229.19999694824</ele>
        <time>2023-05-30T08:14:52.000Z</time>
      </trkpt>
      <trkpt lat="46.51148" lon="3.68962">
        <ele>229.60000610352</ele>
        <time>2023-05-30T08:14:53.000Z</time>
      </trkpt>
      <trkpt lat="46.51134" lon="3.68972">
        <ele>230.39999389648</ele>
        <time>2023-05-30T08:14:56.000Z</time>
      </trkpt>
      <trkpt lat="46.51126" lon="3.68977">
        <ele>230.80000305176</ele>
        <time>2023-05-30T08:14:58.000Z</time>
      </trkpt>
      <trkpt lat="46.51114" lon="3.68987">
        <ele>231.39999389648</ele>
        <time>2023-05-30T08:15:01.000Z</time>
      </trkpt>
      <trkpt lat="46.511" lon="3.69004">
        <ele>232.19999694824</ele>
        <time>2023-05-30T08:15:05.000Z</time>
      </trkpt>
      <trkpt lat="46.51096" lon="3.69007">
        <ele>232.60000610352</ele>
        <time>2023-05-30T08:15:06.000Z</time>
      </trkpt>
      <trkpt lat="46.51077" lon="3.69029">
        <ele>233.60000610352</ele>
        <time>2023-05-30T08:15:11.000Z</time>
      </trkpt>
      <trkpt lat="46.5107" lon="3.69036">
        <ele>234.19999694824</ele>
        <time>2023-05-30T08:15:13.000Z</time>
      </trkpt>
      <trkpt lat="46.51056" lon="3.69053">
        <ele>235</ele>
        <time>2023-05-30T08:15:17.000Z</time>
      </trkpt>
      <trkpt lat="46.51035" lon="3.69078">
        <ele>236</ele>
        <time>2023-05-30T08:15:23.000Z</time>
      </trkpt>
      <trkpt lat="46.51021" lon="3.69094">
        <ele>237</ele>
        <time>2023-05-30T08:15:28.000Z</time>
      </trkpt>
      <trkpt lat="46.50999" lon="3.69119">
        <ele>238</ele>
        <time>2023-05-30T08:15:33.000Z</time>
      </trkpt>
      <trkpt lat="46.50995" lon="3.69123">
        <ele>238.39999389648</ele>
        <time>2023-05-30T08:15:34.000Z</time>
      </trkpt>
      <trkpt lat="46.50977" lon="3.69143">
        <ele>239.39999389648</ele>
        <time>2023-05-30T08:15:39.000Z</time>
      </trkpt>
      <trkpt lat="46.50963" lon="3.6916">
        <ele>240.39999389648</ele>
        <time>2023-05-30T08:15:43.000Z</time>
      </trkpt>
      <trkpt lat="46.50956" lon="3.69169">
        <ele>240.80000305176</ele>
        <time>2023-05-30T08:15:45.000Z</time>
      </trkpt>
      <trkpt lat="46.50946" lon="3.69181">
        <ele>241.60000610352</ele>
        <time>2023-05-30T08:15:48.000Z</time>
      </trkpt>
      <trkpt lat="46.50942" lon="3.69187">
        <ele>241.80000305176</ele>
        <time>2023-05-30T08:15:49.000Z</time>
      </trkpt>
      <trkpt lat="46.50933" lon="3.69201">
        <ele>242.39999389648</ele>
        <time>2023-05-30T08:15:52.000Z</time>
      </trkpt>
      <trkpt lat="46.50927" lon="3.69212">
        <ele>242.80000305176</ele>
        <time>2023-05-30T08:15:54.000Z</time>
      </trkpt>
      <trkpt lat="46.50913" lon="3.69237">
        <ele>243.39999389648</ele>
        <time>2023-05-30T08:15:59.000Z</time>
      </trkpt>
      <trkpt lat="46.50911" lon="3.69243">
        <ele>243.60000610352</ele>
        <time>2023-05-30T08:16:00.000Z</time>
      </trkpt>
      <trkpt lat="46.50907" lon="3.69253">
        <ele>243.80000305176</ele>
        <time>2023-05-30T08:16:02.000Z</time>
      </trkpt>
      <trkpt lat="46.50898" lon="3.69273">
        <ele>244.39999389648</ele>
        <time>2023-05-30T08:16:07.000Z</time>
      </trkpt>
      <trkpt lat="46.50897" lon="3.69278">
        <ele>244.39999389648</ele>
        <time>2023-05-30T08:16:11.000Z</time>
      </trkpt>
      <trkpt lat="46.50896" lon="3.69281">
        <ele>243.60000610352</ele>
        <time>2023-05-30T08:17:46.000Z</time>
      </trkpt>
      <trkpt lat="46.50894" lon="3.69288">
        <ele>243.39999389648</ele>
        <time>2023-05-30T08:17:48.000Z</time>
      </trkpt>
      <trkpt lat="46.50884" lon="3.69317">
        <ele>243.60000610352</ele>
        <time>2023-05-30T08:17:54.000Z</time>
      </trkpt>
      <trkpt lat="46.50871" lon="3.69351">
        <ele>244</ele>
        <time>2023-05-30T08:18:00.000Z</time>
      </trkpt>
      <trkpt lat="46.50846" lon="3.69406">
        <ele>244.80000305176</ele>
        <time>2023-05-30T08:18:07.000Z</time>
      </trkpt>
      <trkpt lat="46.50827" lon="3.69439">
        <ele>245.19999694824</ele>
        <time>2023-05-30T08:18:12.000Z</time>
      </trkpt>
      <trkpt lat="46.50811" lon="3.69464">
        <ele>245.80000305176</ele>
        <time>2023-05-30T08:18:16.000Z</time>
      </trkpt>
      <trkpt lat="46.50785" lon="3.69499">
        <ele>246.19999694824</ele>
        <time>2023-05-30T08:18:22.000Z</time>
      </trkpt>
      <trkpt lat="46.50772" lon="3.69514">
        <ele>246.60000610352</ele>
        <time>2023-05-30T08:18:25.000Z</time>
      </trkpt>
      <trkpt lat="46.50759" lon="3.69527">
        <ele>247.19999694824</ele>
        <time>2023-05-30T08:18:28.000Z</time>
      </trkpt>
      <trkpt lat="46.50737" lon="3.6955">
        <ele>248.19999694824</ele>
        <time>2023-05-30T08:18:33.000Z</time>
      </trkpt>
      <trkpt lat="46.50727" lon="3.6956">
        <ele>248.60000610352</ele>
        <time>2023-05-30T08:18:35.000Z</time>
      </trkpt>
      <trkpt lat="46.50715" lon="3.69574">
        <ele>249.39999389648</ele>
        <time>2023-05-30T08:18:38.000Z</time>
      </trkpt>
      <trkpt lat="46.5071" lon="3.69579">
        <ele>249.60000610352</ele>
        <time>2023-05-30T08:18:39.000Z</time>
      </trkpt>
      <trkpt lat="46.50697" lon="3.69592">
        <ele>250.39999389648</ele>
        <time>2023-05-30T08:18:42.000Z</time>
      </trkpt>
      <trkpt lat="46.50685" lon="3.69604">
        <ele>251</ele>
        <time>2023-05-30T08:18:45.000Z</time>
      </trkpt>
      <trkpt lat="46.50672" lon="3.69617">
        <ele>251.39999389648</ele>
        <time>2023-05-30T08:18:48.000Z</time>
      </trkpt>
      <trkpt lat="46.50656" lon="3.69635">
        <ele>252.60000610352</ele>
        <time>2023-05-30T08:18:52.000Z</time>
      </trkpt>
      <trkpt lat="46.50651" lon="3.69639">
        <ele>253</ele>
        <time>2023-05-30T08:18:53.000Z</time>
      </trkpt>
      <trkpt lat="46.50635" lon="3.69656">
        <ele>253.80000305176</ele>
        <time>2023-05-30T08:18:57.000Z</time>
      </trkpt>
      <trkpt lat="46.50612" lon="3.69679">
        <ele>254.80000305176</ele>
        <time>2023-05-30T08:19:03.000Z</time>
      </trkpt>
      <trkpt lat="46.50608" lon="3.69683">
        <ele>255</ele>
        <time>2023-05-30T08:19:04.000Z</time>
      </trkpt>
      <trkpt lat="46.50588" lon="3.69704">
        <ele>256</ele>
        <time>2023-05-30T08:19:09.000Z</time>
      </trkpt>
      <trkpt lat="46.50569" lon="3.69724">
        <ele>257.20001220703</ele>
        <time>2023-05-30T08:19:14.000Z</time>
      </trkpt>
      <trkpt lat="46.50565" lon="3.69728">
        <ele>257.39999389648</ele>
        <time>2023-05-30T08:19:15.000Z</time>
      </trkpt>
      <trkpt lat="46.50546" lon="3.69748">
        <ele>258.20001220703</ele>
        <time>2023-05-30T08:19:20.000Z</time>
      </trkpt>
      <trkpt lat="46.50525" lon="3.6977">
        <ele>258.60000610352</ele>
        <time>2023-05-30T08:19:25.000Z</time>
      </trkpt>
      <trkpt lat="46.50491" lon="3.69805">
        <ele>259</ele>
        <time>2023-05-30T08:19:33.000Z</time>
      </trkpt>
      <trkpt lat="46.50451" lon="3.69845">
        <ele>259</ele>
        <time>2023-05-30T08:19:41.000Z</time>
      </trkpt>
      <trkpt lat="46.50417" lon="3.6988">
        <ele>258.20001220703</ele>
        <time>2023-05-30T08:19:47.000Z</time>
      </trkpt>
      <trkpt lat="46.50381" lon="3.69918">
        <ele>257.20001220703</ele>
        <time>2023-05-30T08:19:53.000Z</time>
      </trkpt>
      <trkpt lat="46.50349" lon="3.69951">
        <ele>256.20001220703</ele>
        <time>2023-05-30T08:19:58.000Z</time>
      </trkpt>
      <trkpt lat="46.50337" lon="3.69963">
        <ele>256</ele>
        <time>2023-05-30T08:20:00.000Z</time>
      </trkpt>
      <trkpt lat="46.5029" lon="3.70012">
        <ele>255.60000610352</ele>
        <time>2023-05-30T08:20:08.000Z</time>
      </trkpt>
      <trkpt lat="46.50268" lon="3.70034">
        <ele>255.60000610352</ele>
        <time>2023-05-30T08:20:12.000Z</time>
      </trkpt>
      <trkpt lat="46.50235" lon="3.70069">
        <ele>256</ele>
        <time>2023-05-30T08:20:19.000Z</time>
      </trkpt>
      <trkpt lat="46.50204" lon="3.70102">
        <ele>256.20001220703</ele>
        <time>2023-05-30T08:20:25.000Z</time>
      </trkpt>
      <trkpt lat="46.50161" lon="3.70147">
        <ele>256.39999389648</ele>
        <time>2023-05-30T08:20:33.000Z</time>
      </trkpt>
      <trkpt lat="46.50121" lon="3.70187">
        <ele>255.60000610352</ele>
        <time>2023-05-30T08:20:40.000Z</time>
      </trkpt>
      <trkpt lat="46.50093" lon="3.70222">
        <ele>254.80000305176</ele>
        <time>2023-05-30T08:20:45.000Z</time>
      </trkpt>
      <trkpt lat="46.50088" lon="3.7023">
        <ele>254.60000610352</ele>
        <time>2023-05-30T08:20:46.000Z</time>
      </trkpt>
      <trkpt lat="46.50064" lon="3.70274">
        <ele>253.80000305176</ele>
        <time>2023-05-30T08:20:51.000Z</time>
      </trkpt>
      <trkpt lat="46.50051" lon="3.70302">
        <ele>253</ele>
        <time>2023-05-30T08:20:54.000Z</time>
      </trkpt>
      <trkpt lat="46.50046" lon="3.70311">
        <ele>252.60000610352</ele>
        <time>2023-05-30T08:20:55.000Z</time>
      </trkpt>
      <trkpt lat="46.50031" lon="3.70339">
        <ele>251.60000610352</ele>
        <time>2023-05-30T08:20:58.000Z</time>
      </trkpt>
      <trkpt lat="46.50007" lon="3.70385">
        <ele>250.39999389648</ele>
        <time>2023-05-30T08:21:03.000Z</time>
      </trkpt>
      <trkpt lat="46.49981" lon="3.70436">
        <ele>250</ele>
        <time>2023-05-30T08:21:09.000Z</time>
      </trkpt>
      <trkpt lat="46.49955" lon="3.70488">
        <ele>249.80000305176</ele>
        <time>2023-05-30T08:21:16.000Z</time>
      </trkpt>
      <trkpt lat="46.4993" lon="3.70536">
        <ele>250.80000305176</ele>
        <time>2023-05-30T08:21:23.000Z</time>
      </trkpt>
      <trkpt lat="46.49917" lon="3.70563">
        <ele>251.60000610352</ele>
        <time>2023-05-30T08:21:27.000Z</time>
      </trkpt>
      <trkpt lat="46.49914" lon="3.70568">
        <ele>251.80000305176</ele>
        <time>2023-05-30T08:21:28.000Z</time>
      </trkpt>
      <trkpt lat="46.49911" lon="3.70574">
        <ele>252</ele>
        <time>2023-05-30T08:21:29.000Z</time>
      </trkpt>
      <trkpt lat="46.499" lon="3.70592">
        <ele>252.80000305176</ele>
        <time>2023-05-30T08:21:32.000Z</time>
      </trkpt>
      <trkpt lat="46.49887" lon="3.70618">
        <ele>253.19999694824</ele>
        <time>2023-05-30T08:21:36.000Z</time>
      </trkpt>
      <trkpt lat="46.49875" lon="3.70641">
        <ele>253.80000305176</ele>
        <time>2023-05-30T08:21:40.000Z</time>
      </trkpt>
      <trkpt lat="46.49858" lon="3.7067">
        <ele>254.80000305176</ele>
        <time>2023-05-30T08:21:45.000Z</time>
      </trkpt>
      <trkpt lat="46.49854" lon="3.70677">
        <ele>255.19999694824</ele>
        <time>2023-05-30T08:21:46.000Z</time>
      </trkpt>
      <trkpt lat="46.49831" lon="3.70722">
        <ele>256.20001220703</ele>
        <time>2023-05-30T08:21:53.000Z</time>
      </trkpt>
      <trkpt lat="46.49828" lon="3.70728">
        <ele>256.39999389648</ele>
        <time>2023-05-30T08:21:54.000Z</time>
      </trkpt>
      <trkpt lat="46.49794" lon="3.70791">
        <ele>257.20001220703</ele>
        <time>2023-05-30T08:22:04.000Z</time>
      </trkpt>
      <trkpt lat="46.49787" lon="3.70805">
        <ele>257.20001220703</ele>
        <time>2023-05-30T08:22:06.000Z</time>
      </trkpt>
      <trkpt lat="46.49782" lon="3.70813">
        <ele>257.20001220703</ele>
        <time>2023-05-30T08:22:07.000Z</time>
      </trkpt>
      <trkpt lat="46.49749" lon="3.70862">
        <ele>257</ele>
        <time>2023-05-30T08:22:15.000Z</time>
      </trkpt>
      <trkpt lat="46.49706" lon="3.70915">
        <ele>256.60000610352</ele>
        <time>2023-05-30T08:22:24.000Z</time>
      </trkpt>
      <trkpt lat="46.49685" lon="3.70937">
        <ele>256</ele>
        <time>2023-05-30T08:22:28.000Z</time>
      </trkpt>
      <trkpt lat="46.49652" lon="3.70971">
        <ele>255.19999694824</ele>
        <time>2023-05-30T08:22:34.000Z</time>
      </trkpt>
      <trkpt lat="46.49633" lon="3.70991">
        <ele>255</ele>
        <time>2023-05-30T08:22:37.000Z</time>
      </trkpt>
      <trkpt lat="46.496" lon="3.71024">
        <ele>254</ele>
        <time>2023-05-30T08:22:42.000Z</time>
      </trkpt>
      <trkpt lat="46.49574" lon="3.71051">
        <ele>252.80000305176</ele>
        <time>2023-05-30T08:22:46.000Z</time>
      </trkpt>
      <trkpt lat="46.49545" lon="3.71081">
        <ele>251.80000305176</ele>
        <time>2023-05-30T08:22:50.000Z</time>
      </trkpt>
      <trkpt lat="46.49538" lon="3.71089">
        <ele>251.60000610352</ele>
        <time>2023-05-30T08:22:51.000Z</time>
      </trkpt>
      <trkpt lat="46.49504" lon="3.71123">
        <ele>250.39999389648</ele>
        <time>2023-05-30T08:22:56.000Z</time>
      </trkpt>
      <trkpt lat="46.49462" lon="3.71165">
        <ele>249.60000610352</ele>
        <time>2023-05-30T08:23:02.000Z</time>
      </trkpt>
      <trkpt lat="46.49437" lon="3.7119">
        <ele>249.39999389648</ele>
        <time>2023-05-30T08:23:06.000Z</time>
      </trkpt>
      <trkpt lat="46.49395" lon="3.71228">
        <ele>248.60000610352</ele>
        <time>2023-05-30T08:23:12.000Z</time>
      </trkpt>
      <trkpt lat="46.49375" lon="3.71247">
        <ele>248.19999694824</ele>
        <time>2023-05-30T08:23:15.000Z</time>
      </trkpt>
      <trkpt lat="46.49329" lon="3.71289">
        <ele>248</ele>
        <time>2023-05-30T08:23:22.000Z</time>
      </trkpt>
      <trkpt lat="46.49316" lon="3.71301">
        <ele>248.19999694824</ele>
        <time>2023-05-30T08:23:24.000Z</time>
      </trkpt>
      <trkpt lat="46.49269" lon="3.71344">
        <ele>247.80000305176</ele>
        <time>2023-05-30T08:23:31.000Z</time>
      </trkpt>
      <trkpt lat="46.49236" lon="3.71375">
        <ele>247.39999389648</ele>
        <time>2023-05-30T08:23:36.000Z</time>
      </trkpt>
      <trkpt lat="46.49182" lon="3.71417">
        <ele>246.80000305176</ele>
        <time>2023-05-30T08:23:44.000Z</time>
      </trkpt>
      <trkpt lat="46.49176" lon="3.71421">
        <ele>246.60000610352</ele>
        <time>2023-05-30T08:23:45.000Z</time>
      </trkpt>
      <trkpt lat="46.49162" lon="3.71431">
        <ele>246.39999389648</ele>
        <time>2023-05-30T08:23:47.000Z</time>
      </trkpt>
      <trkpt lat="46.49112" lon="3.71468">
        <ele>245.60000610352</ele>
        <time>2023-05-30T08:23:54.000Z</time>
      </trkpt>
      <trkpt lat="46.49104" lon="3.71473">
        <ele>245.39999389648</ele>
        <time>2023-05-30T08:23:55.000Z</time>
      </trkpt>
      <trkpt lat="46.4909" lon="3.71485">
        <ele>245.19999694824</ele>
        <time>2023-05-30T08:23:57.000Z</time>
      </trkpt>
      <trkpt lat="46.49043" lon="3.71525">
        <ele>244.60000610352</ele>
        <time>2023-05-30T08:24:04.000Z</time>
      </trkpt>
      <trkpt lat="46.49037" lon="3.7153">
        <ele>244.60000610352</ele>
        <time>2023-05-30T08:24:05.000Z</time>
      </trkpt>
      <trkpt lat="46.48995" lon="3.7157">
        <ele>244.39999389648</ele>
        <time>2023-05-30T08:24:12.000Z</time>
      </trkpt>
      <trkpt lat="46.48958" lon="3.71613">
        <ele>244.60000610352</ele>
        <time>2023-05-30T08:24:19.000Z</time>
      </trkpt>
      <trkpt lat="46.48912" lon="3.71665">
        <ele>244.60000610352</ele>
        <time>2023-05-30T08:24:27.000Z</time>
      </trkpt>
      <trkpt lat="46.48901" lon="3.71678">
        <ele>244.39999389648</ele>
        <time>2023-05-30T08:24:29.000Z</time>
      </trkpt>
      <trkpt lat="46.48895" lon="3.71685">
        <ele>244.19999694824</ele>
        <time>2023-05-30T08:24:30.000Z</time>
      </trkpt>
      <trkpt lat="46.48863" lon="3.71721">
        <ele>243</ele>
        <time>2023-05-30T08:24:35.000Z</time>
      </trkpt>
      <trkpt lat="46.48857" lon="3.71728">
        <ele>242.80000305176</ele>
        <time>2023-05-30T08:24:36.000Z</time>
      </trkpt>
      <trkpt lat="46.48825" lon="3.71764">
        <ele>242</ele>
        <time>2023-05-30T08:24:41.000Z</time>
      </trkpt>
      <trkpt lat="46.48794" lon="3.71801">
        <ele>241</ele>
        <time>2023-05-30T08:24:46.000Z</time>
      </trkpt>
      <trkpt lat="46.48782" lon="3.71817">
        <ele>240.80000305176</ele>
        <time>2023-05-30T08:24:48.000Z</time>
      </trkpt>
      <trkpt lat="46.48746" lon="3.71871">
        <ele>239.80000305176</ele>
        <time>2023-05-30T08:24:54.000Z</time>
      </trkpt>
      <trkpt lat="46.4874" lon="3.71881">
        <ele>239.60000610352</ele>
        <time>2023-05-30T08:24:55.000Z</time>
      </trkpt>
      <trkpt lat="46.48722" lon="3.71911">
        <ele>238.39999389648</ele>
        <time>2023-05-30T08:24:58.000Z</time>
      </trkpt>
      <trkpt lat="46.48695" lon="3.71953">
        <ele>237</ele>
        <time>2023-05-30T08:25:02.000Z</time>
      </trkpt>
      <trkpt lat="46.48683" lon="3.71972">
        <ele>236</ele>
        <time>2023-05-30T08:25:04.000Z</time>
      </trkpt>
      <trkpt lat="46.48658" lon="3.72014">
        <ele>234.60000610352</ele>
        <time>2023-05-30T08:25:08.000Z</time>
      </trkpt>
      <trkpt lat="46.48646" lon="3.72033">
        <ele>234.19999694824</ele>
        <time>2023-05-30T08:25:10.000Z</time>
      </trkpt>
      <trkpt lat="46.48628" lon="3.72061">
        <ele>233.60000610352</ele>
        <time>2023-05-30T08:25:13.000Z</time>
      </trkpt>
      <trkpt lat="46.48611" lon="3.72089">
        <ele>233.39999389648</ele>
        <time>2023-05-30T08:25:16.000Z</time>
      </trkpt>
      <trkpt lat="46.48573" lon="3.72149">
        <ele>233.19999694824</ele>
        <time>2023-05-30T08:25:23.000Z</time>
      </trkpt>
      <trkpt lat="46.48563" lon="3.72165">
        <ele>233</ele>
        <time>2023-05-30T08:25:25.000Z</time>
      </trkpt>
      <trkpt lat="46.48525" lon="3.72227">
        <ele>233</ele>
        <time>2023-05-30T08:25:33.000Z</time>
      </trkpt>
      <trkpt lat="46.48516" lon="3.72242">
        <ele>233.19999694824</ele>
        <time>2023-05-30T08:25:35.000Z</time>
      </trkpt>
      <trkpt lat="46.48479" lon="3.72301">
        <ele>234.39999389648</ele>
        <time>2023-05-30T08:25:44.000Z</time>
      </trkpt>
      <trkpt lat="46.48468" lon="3.72319">
        <ele>234.80000305176</ele>
        <time>2023-05-30T08:25:47.000Z</time>
      </trkpt>
      <trkpt lat="46.48451" lon="3.72348">
        <ele>235.60000610352</ele>
        <time>2023-05-30T08:25:52.000Z</time>
      </trkpt>
      <trkpt lat="46.48444" lon="3.72359">
        <ele>236</ele>
        <time>2023-05-30T08:25:54.000Z</time>
      </trkpt>
      <trkpt lat="46.48423" lon="3.72392">
        <ele>236.80000305176</ele>
        <time>2023-05-30T08:26:00.000Z</time>
      </trkpt>
      <trkpt lat="46.48419" lon="3.72398">
        <ele>237.19999694824</ele>
        <time>2023-05-30T08:26:01.000Z</time>
      </trkpt>
      <trkpt lat="46.48395" lon="3.72436">
        <ele>238.19999694824</ele>
        <time>2023-05-30T08:26:08.000Z</time>
      </trkpt>
      <trkpt lat="46.48379" lon="3.72463">
        <ele>239</ele>
        <time>2023-05-30T08:26:13.000Z</time>
      </trkpt>
      <trkpt lat="46.48372" lon="3.72473">
        <ele>239.19999694824</ele>
        <time>2023-05-30T08:26:15.000Z</time>
      </trkpt>
      <trkpt lat="46.4835" lon="3.72508">
        <ele>240.39999389648</ele>
        <time>2023-05-30T08:26:22.000Z</time>
      </trkpt>
      <trkpt lat="46.48333" lon="3.72534">
        <ele>241.60000610352</ele>
        <time>2023-05-30T08:26:28.000Z</time>
      </trkpt>
      <trkpt lat="46.48324" lon="3.72548">
        <ele>242.19999694824</ele>
        <time>2023-05-30T08:26:31.000Z</time>
      </trkpt>
      <trkpt lat="46.48316" lon="3.72561">
        <ele>242.80000305176</ele>
        <time>2023-05-30T08:26:34.000Z</time>
      </trkpt>
      <trkpt lat="46.48303" lon="3.72583">
        <ele>243.80000305176</ele>
        <time>2023-05-30T08:26:39.000Z</time>
      </trkpt>
      <trkpt lat="46.48297" lon="3.72592">
        <ele>244.39999389648</ele>
        <time>2023-05-30T08:26:41.000Z</time>
      </trkpt>
      <trkpt lat="46.48291" lon="3.72601">
        <ele>244.80000305176</ele>
        <time>2023-05-30T08:26:43.000Z</time>
      </trkpt>
      <trkpt lat="46.48272" lon="3.72632">
        <ele>246</ele>
        <time>2023-05-30T08:26:50.000Z</time>
      </trkpt>
      <trkpt lat="46.48269" lon="3.72636">
        <ele>246</ele>
        <time>2023-05-30T08:26:51.000Z</time>
      </trkpt>
      <trkpt lat="46.48254" lon="3.72658">
        <ele>247</ele>
        <time>2023-05-30T08:26:56.000Z</time>
      </trkpt>
      <trkpt lat="46.48247" lon="3.72669">
        <ele>247.60000610352</ele>
        <time>2023-05-30T08:26:59.000Z</time>
      </trkpt>
      <trkpt lat="46.48238" lon="3.72683">
        <ele>248</ele>
        <time>2023-05-30T08:27:02.000Z</time>
      </trkpt>
      <trkpt lat="46.48218" lon="3.72717">
        <ele>249.19999694824</ele>
        <time>2023-05-30T08:27:09.000Z</time>
      </trkpt>
      <trkpt lat="46.48202" lon="3.72743">
        <ele>250</ele>
        <time>2023-05-30T08:27:14.000Z</time>
      </trkpt>
      <trkpt lat="46.48195" lon="3.72753">
        <ele>250.19999694824</ele>
        <time>2023-05-30T08:27:16.000Z</time>
      </trkpt>
      <trkpt lat="46.48192" lon="3.72759">
        <ele>250.19999694824</ele>
        <time>2023-05-30T08:27:17.000Z</time>
      </trkpt>
      <trkpt lat="46.48163" lon="3.72805">
        <ele>251.19999694824</ele>
        <time>2023-05-30T08:27:25.000Z</time>
      </trkpt>
      <trkpt lat="46.48159" lon="3.72811">
        <ele>251.39999389648</ele>
        <time>2023-05-30T08:27:26.000Z</time>
      </trkpt>
      <trkpt lat="46.48125" lon="3.72867">
        <ele>252</ele>
        <time>2023-05-30T08:27:35.000Z</time>
      </trkpt>
      <trkpt lat="46.48089" lon="3.72923">
        <ele>252.19999694824</ele>
        <time>2023-05-30T08:27:44.000Z</time>
      </trkpt>
      <trkpt lat="46.48085" lon="3.72929">
        <ele>252.19999694824</ele>
        <time>2023-05-30T08:27:45.000Z</time>
      </trkpt>
      <trkpt lat="46.48049" lon="3.72988">
        <ele>252.80000305176</ele>
        <time>2023-05-30T08:27:54.000Z</time>
      </trkpt>
      <trkpt lat="46.48045" lon="3.72994">
        <ele>252.80000305176</ele>
        <time>2023-05-30T08:27:55.000Z</time>
      </trkpt>
      <trkpt lat="46.48018" lon="3.73038">
        <ele>253.39999389648</ele>
        <time>2023-05-30T08:28:02.000Z</time>
      </trkpt>
      <trkpt lat="46.48011" lon="3.7305">
        <ele>253.60000610352</ele>
        <time>2023-05-30T08:28:04.000Z</time>
      </trkpt>
      <trkpt lat="46.47988" lon="3.73087">
        <ele>254.39999389648</ele>
        <time>2023-05-30T08:28:10.000Z</time>
      </trkpt>
      <trkpt lat="46.47973" lon="3.73111">
        <ele>254.60000610352</ele>
        <time>2023-05-30T08:28:14.000Z</time>
      </trkpt>
      <trkpt lat="46.47956" lon="3.7314">
        <ele>255.39999389648</ele>
        <time>2023-05-30T08:28:19.000Z</time>
      </trkpt>
      <trkpt lat="46.47948" lon="3.73152">
        <ele>255.60000610352</ele>
        <time>2023-05-30T08:28:21.000Z</time>
      </trkpt>
      <trkpt lat="46.47944" lon="3.73158">
        <ele>255.80000305176</ele>
        <time>2023-05-30T08:28:22.000Z</time>
      </trkpt>
      <trkpt lat="46.47903" lon="3.73217">
        <ele>256.39999389648</ele>
        <time>2023-05-30T08:28:32.000Z</time>
      </trkpt>
      <trkpt lat="46.47898" lon="3.73223">
        <ele>256.60000610352</ele>
        <time>2023-05-30T08:28:33.000Z</time>
      </trkpt>
      <trkpt lat="46.47866" lon="3.73269">
        <ele>256.60000610352</ele>
        <time>2023-05-30T08:28:40.000Z</time>
      </trkpt>
      <trkpt lat="46.47824" lon="3.73329">
        <ele>256</ele>
        <time>2023-05-30T08:28:49.000Z</time>
      </trkpt>
      <trkpt lat="46.47782" lon="3.73391">
        <ele>255.60000610352</ele>
        <time>2023-05-30T08:28:58.000Z</time>
      </trkpt>
      <trkpt lat="46.47777" lon="3.734">
        <ele>255.60000610352</ele>
        <time>2023-05-30T08:28:59.000Z</time>
      </trkpt>
      <trkpt lat="46.47736" lon="3.73458">
        <ele>255.80000305176</ele>
        <time>2023-05-30T08:29:08.000Z</time>
      </trkpt>
      <trkpt lat="46.47727" lon="3.73471">
        <ele>255.80000305176</ele>
        <time>2023-05-30T08:29:10.000Z</time>
      </trkpt>
      <trkpt lat="46.47697" lon="3.73513">
        <ele>257</ele>
        <time>2023-05-30T08:29:18.000Z</time>
      </trkpt>
      <trkpt lat="46.47689" lon="3.73525">
        <ele>257.39999389648</ele>
        <time>2023-05-30T08:29:20.000Z</time>
      </trkpt>
      <trkpt lat="46.47679" lon="3.7354">
        <ele>257.79998779297</ele>
        <time>2023-05-30T08:29:23.000Z</time>
      </trkpt>
      <trkpt lat="46.47672" lon="3.7355">
        <ele>258.20001220703</ele>
        <time>2023-05-30T08:29:25.000Z</time>
      </trkpt>
      <trkpt lat="46.47659" lon="3.73571">
        <ele>259</ele>
        <time>2023-05-30T08:29:29.000Z</time>
      </trkpt>
      <trkpt lat="46.47648" lon="3.73585">
        <ele>259.60000610352</ele>
        <time>2023-05-30T08:29:32.000Z</time>
      </trkpt>
      <trkpt lat="46.47645" lon="3.7359">
        <ele>260</ele>
        <time>2023-05-30T08:29:33.000Z</time>
      </trkpt>
      <trkpt lat="46.47621" lon="3.73625">
        <ele>261.20001220703</ele>
        <time>2023-05-30T08:29:40.000Z</time>
      </trkpt>
      <trkpt lat="46.47614" lon="3.73636">
        <ele>261.39999389648</ele>
        <time>2023-05-30T08:29:42.000Z</time>
      </trkpt>
      <trkpt lat="46.476" lon="3.73654">
        <ele>262.20001220703</ele>
        <time>2023-05-30T08:29:46.000Z</time>
      </trkpt>
      <trkpt lat="46.47577" lon="3.73686">
        <ele>263.39999389648</ele>
        <time>2023-05-30T08:29:53.000Z</time>
      </trkpt>
      <trkpt lat="46.47555" lon="3.73719">
        <ele>264.60000610352</ele>
        <time>2023-05-30T08:30:00.000Z</time>
      </trkpt>
      <trkpt lat="46.47545" lon="3.73733">
        <ele>264.79998779297</ele>
        <time>2023-05-30T08:30:03.000Z</time>
      </trkpt>
      <trkpt lat="46.47525" lon="3.73761">
        <ele>265.60000610352</ele>
        <time>2023-05-30T08:30:09.000Z</time>
      </trkpt>
      <trkpt lat="46.47503" lon="3.73793">
        <ele>266</ele>
        <time>2023-05-30T08:30:15.000Z</time>
      </trkpt>
      <trkpt lat="46.47472" lon="3.7384">
        <ele>266.60000610352</ele>
        <time>2023-05-30T08:30:24.000Z</time>
      </trkpt>
      <trkpt lat="46.47468" lon="3.73847">
        <ele>266.60000610352</ele>
        <time>2023-05-30T08:30:25.000Z</time>
      </trkpt>
      <trkpt lat="46.47429" lon="3.73908">
        <ele>267.39999389648</ele>
        <time>2023-05-30T08:30:36.000Z</time>
      </trkpt>
      <trkpt lat="46.47425" lon="3.73914">
        <ele>267.39999389648</ele>
        <time>2023-05-30T08:30:37.000Z</time>
      </trkpt>
      <trkpt lat="46.47414" lon="3.73931">
        <ele>267.60000610352</ele>
        <time>2023-05-30T08:30:40.000Z</time>
      </trkpt>
      <trkpt lat="46.47385" lon="3.73983">
        <ele>267.60000610352</ele>
        <time>2023-05-30T08:30:48.000Z</time>
      </trkpt>
      <trkpt lat="46.47353" lon="3.74042">
        <ele>267.39999389648</ele>
        <time>2023-05-30T08:30:56.000Z</time>
      </trkpt>
      <trkpt lat="46.47316" lon="3.74109">
        <ele>266.79998779297</ele>
        <time>2023-05-30T08:31:05.000Z</time>
      </trkpt>
      <trkpt lat="46.47312" lon="3.74117">
        <ele>266.79998779297</ele>
        <time>2023-05-30T08:31:06.000Z</time>
      </trkpt>
      <trkpt lat="46.47299" lon="3.74141">
        <ele>266.60000610352</ele>
        <time>2023-05-30T08:31:09.000Z</time>
      </trkpt>
      <trkpt lat="46.47278" lon="3.74179">
        <ele>266.20001220703</ele>
        <time>2023-05-30T08:31:14.000Z</time>
      </trkpt>
      <trkpt lat="46.47259" lon="3.74213">
        <ele>265.60000610352</ele>
        <time>2023-05-30T08:31:18.000Z</time>
      </trkpt>
      <trkpt lat="46.47235" lon="3.74255">
        <ele>264.79998779297</ele>
        <time>2023-05-30T08:31:23.000Z</time>
      </trkpt>
      <trkpt lat="46.47221" lon="3.74281">
        <ele>264.39999389648</ele>
        <time>2023-05-30T08:31:26.000Z</time>
      </trkpt>
      <trkpt lat="46.47188" lon="3.74341">
        <ele>263.20001220703</ele>
        <time>2023-05-30T08:31:33.000Z</time>
      </trkpt>
      <trkpt lat="46.47153" lon="3.74404">
        <ele>262</ele>
        <time>2023-05-30T08:31:40.000Z</time>
      </trkpt>
      <trkpt lat="46.47148" lon="3.74412">
        <ele>261.79998779297</ele>
        <time>2023-05-30T08:31:41.000Z</time>
      </trkpt>
      <trkpt lat="46.47121" lon="3.74462">
        <ele>260.79998779297</ele>
        <time>2023-05-30T08:31:47.000Z</time>
      </trkpt>
      <trkpt lat="46.47098" lon="3.74502">
        <ele>260.60000610352</ele>
        <time>2023-05-30T08:31:52.000Z</time>
      </trkpt>
      <trkpt lat="46.47084" lon="3.74527">
        <ele>260</ele>
        <time>2023-05-30T08:31:55.000Z</time>
      </trkpt>
      <trkpt lat="46.47048" lon="3.74594">
        <ele>258.79998779297</ele>
        <time>2023-05-30T08:32:03.000Z</time>
      </trkpt>
      <trkpt lat="46.47043" lon="3.74602">
        <ele>258.79998779297</ele>
        <time>2023-05-30T08:32:04.000Z</time>
      </trkpt>
      <trkpt lat="46.47008" lon="3.74666">
        <ele>257.79998779297</ele>
        <time>2023-05-30T08:32:12.000Z</time>
      </trkpt>
      <trkpt lat="46.47" lon="3.74681">
        <ele>257.60000610352</ele>
        <time>2023-05-30T08:32:14.000Z</time>
      </trkpt>
      <trkpt lat="46.46969" lon="3.74735">
        <ele>256.79998779297</ele>
        <time>2023-05-30T08:32:21.000Z</time>
      </trkpt>
      <trkpt lat="46.46961" lon="3.74751">
        <ele>256.79998779297</ele>
        <time>2023-05-30T08:32:23.000Z</time>
      </trkpt>
      <trkpt lat="46.46923" lon="3.74819">
        <ele>256.60000610352</ele>
        <time>2023-05-30T08:32:32.000Z</time>
      </trkpt>
      <trkpt lat="46.46902" lon="3.74856">
        <ele>256.39999389648</ele>
        <time>2023-05-30T08:32:37.000Z</time>
      </trkpt>
      <trkpt lat="46.4687" lon="3.74915">
        <ele>256</ele>
        <time>2023-05-30T08:32:45.000Z</time>
      </trkpt>
      <trkpt lat="46.46861" lon="3.7493">
        <ele>255.60000610352</ele>
        <time>2023-05-30T08:32:47.000Z</time>
      </trkpt>
      <trkpt lat="46.46839" lon="3.74969">
        <ele>254.60000610352</ele>
        <time>2023-05-30T08:32:52.000Z</time>
      </trkpt>
      <trkpt lat="46.4683" lon="3.74984">
        <ele>254</ele>
        <time>2023-05-30T08:32:54.000Z</time>
      </trkpt>
      <trkpt lat="46.46826" lon="3.7499">
        <ele>253.60000610352</ele>
        <time>2023-05-30T08:32:55.000Z</time>
      </trkpt>
      <trkpt lat="46.46821" lon="3.74995">
        <ele>253.60000610352</ele>
        <time>2023-05-30T08:32:56.000Z</time>
      </trkpt>
      <trkpt lat="46.46813" lon="3.75003">
        <ele>253.19999694824</ele>
        <time>2023-05-30T08:32:58.000Z</time>
      </trkpt>
      <trkpt lat="46.46809" lon="3.75012">
        <ele>252.39999389648</ele>
        <time>2023-05-30T08:33:01.000Z</time>
      </trkpt>
      <trkpt lat="46.4681" lon="3.75023">
        <ele>252.19999694824</ele>
        <time>2023-05-30T08:33:03.000Z</time>
      </trkpt>
      <trkpt lat="46.46813" lon="3.75029">
        <ele>251.80000305176</ele>
        <time>2023-05-30T08:33:04.000Z</time>
      </trkpt>
      <trkpt lat="46.46829" lon="3.75064">
        <ele>251.39999389648</ele>
        <time>2023-05-30T08:33:09.000Z</time>
      </trkpt>
      <trkpt lat="46.46849" lon="3.75121">
        <ele>251</ele>
        <time>2023-05-30T08:33:16.000Z</time>
      </trkpt>
      <trkpt lat="46.46865" lon="3.75187">
        <ele>250.39999389648</ele>
        <time>2023-05-30T08:33:23.000Z</time>
      </trkpt>
      <trkpt lat="46.46867" lon="3.75196">
        <ele>250.19999694824</ele>
        <time>2023-05-30T08:33:24.000Z</time>
      </trkpt>
      <trkpt lat="46.46884" lon="3.75282">
        <ele>249.80000305176</ele>
        <time>2023-05-30T08:33:33.000Z</time>
      </trkpt>
      <trkpt lat="46.46894" lon="3.7533">
        <ele>249.39999389648</ele>
        <time>2023-05-30T08:33:38.000Z</time>
      </trkpt>
      <trkpt lat="46.46899" lon="3.75357">
        <ele>248.80000305176</ele>
        <time>2023-05-30T08:33:41.000Z</time>
      </trkpt>
      <trkpt lat="46.46907" lon="3.75403">
        <ele>248</ele>
        <time>2023-05-30T08:33:46.000Z</time>
      </trkpt>
      <trkpt lat="46.46906" lon="3.75412">
        <ele>248</ele>
        <time>2023-05-30T08:33:47.000Z</time>
      </trkpt>
      <trkpt lat="46.46905" lon="3.75422">
        <ele>247.80000305176</ele>
        <time>2023-05-30T08:33:48.000Z</time>
      </trkpt>
      <trkpt lat="46.46897" lon="3.75439">
        <ele>247.39999389648</ele>
        <time>2023-05-30T08:33:50.000Z</time>
      </trkpt>
      <trkpt lat="46.46884" lon="3.75449">
        <ele>247.19999694824</ele>
        <time>2023-05-30T08:33:52.000Z</time>
      </trkpt>
      <trkpt lat="46.46877" lon="3.75451">
        <ele>246.80000305176</ele>
        <time>2023-05-30T08:33:53.000Z</time>
      </trkpt>
      <trkpt lat="46.46841" lon="3.75459">
        <ele>245.80000305176</ele>
        <time>2023-05-30T08:33:58.000Z</time>
      </trkpt>
      <trkpt lat="46.46821" lon="3.75463">
        <ele>245.60000610352</ele>
        <time>2023-05-30T08:34:01.000Z</time>
      </trkpt>
      <trkpt lat="46.46767" lon="3.75477">
        <ele>245</ele>
        <time>2023-05-30T08:34:09.000Z</time>
      </trkpt>
      <trkpt lat="46.46749" lon="3.7549">
        <ele>244.80000305176</ele>
        <time>2023-05-30T08:34:12.000Z</time>
      </trkpt>
      <trkpt lat="46.4673" lon="3.75506">
        <ele>244.60000610352</ele>
        <time>2023-05-30T08:34:15.000Z</time>
      </trkpt>
      <trkpt lat="46.46698" lon="3.75538">
        <ele>243.60000610352</ele>
        <time>2023-05-30T08:34:21.000Z</time>
      </trkpt>
      <trkpt lat="46.46681" lon="3.75553">
        <ele>243.60000610352</ele>
        <time>2023-05-30T08:34:24.000Z</time>
      </trkpt>
      <trkpt lat="46.46638" lon="3.75583">
        <ele>243.39999389648</ele>
        <time>2023-05-30T08:34:31.000Z</time>
      </trkpt>
      <trkpt lat="46.46585" lon="3.75608">
        <ele>243.19999694824</ele>
        <time>2023-05-30T08:34:39.000Z</time>
      </trkpt>
      <trkpt lat="46.46579" lon="3.75611">
        <ele>243.19999694824</ele>
        <time>2023-05-30T08:34:40.000Z</time>
      </trkpt>
      <trkpt lat="46.46536" lon="3.75637">
        <ele>243.19999694824</ele>
        <time>2023-05-30T08:34:47.000Z</time>
      </trkpt>
      <trkpt lat="46.4653" lon="3.75643">
        <ele>243.19999694824</ele>
        <time>2023-05-30T08:34:48.000Z</time>
      </trkpt>
      <trkpt lat="46.46526" lon="3.75649">
        <ele>243.19999694824</ele>
        <time>2023-05-30T08:34:49.000Z</time>
      </trkpt>
      <trkpt lat="46.46519" lon="3.75665">
        <ele>243.19999694824</ele>
        <time>2023-05-30T08:34:51.000Z</time>
      </trkpt>
      <trkpt lat="46.46516" lon="3.75683">
        <ele>243.19999694824</ele>
        <time>2023-05-30T08:34:53.000Z</time>
      </trkpt>
      <trkpt lat="46.46515" lon="3.75701">
        <ele>243.39999389648</ele>
        <time>2023-05-30T08:34:55.000Z</time>
      </trkpt>
      <trkpt lat="46.46517" lon="3.75766">
        <ele>243.60000610352</ele>
        <time>2023-05-30T08:35:02.000Z</time>
      </trkpt>
      <trkpt lat="46.46517" lon="3.75843">
        <ele>243.39999389648</ele>
        <time>2023-05-30T08:35:10.000Z</time>
      </trkpt>
      <trkpt lat="46.46514" lon="3.75869">
        <ele>243.19999694824</ele>
        <time>2023-05-30T08:35:13.000Z</time>
      </trkpt>
      <trkpt lat="46.4651" lon="3.75885">
        <ele>243.19999694824</ele>
        <time>2023-05-30T08:35:15.000Z</time>
      </trkpt>
      <trkpt lat="46.46507" lon="3.75892">
        <ele>243.19999694824</ele>
        <time>2023-05-30T08:35:16.000Z</time>
      </trkpt>
      <trkpt lat="46.46495" lon="3.75918">
        <ele>244</ele>
        <time>2023-05-30T08:35:20.000Z</time>
      </trkpt>
      <trkpt lat="46.46492" lon="3.75923">
        <ele>244</ele>
        <time>2023-05-30T08:35:21.000Z</time>
      </trkpt>
      <trkpt lat="46.46476" lon="3.75945">
        <ele>244.80000305176</ele>
        <time>2023-05-30T08:35:25.000Z</time>
      </trkpt>
      <trkpt lat="46.46472" lon="3.7595">
        <ele>245</ele>
        <time>2023-05-30T08:35:26.000Z</time>
      </trkpt>
      <trkpt lat="46.46453" lon="3.75975">
        <ele>245.80000305176</ele>
        <time>2023-05-30T08:35:31.000Z</time>
      </trkpt>
      <trkpt lat="46.46423" lon="3.76016">
        <ele>246.39999389648</ele>
        <time>2023-05-30T08:35:38.000Z</time>
      </trkpt>
      <trkpt lat="46.46384" lon="3.76071">
        <ele>246.39999389648</ele>
        <time>2023-05-30T08:35:47.000Z</time>
      </trkpt>
      <trkpt lat="46.46342" lon="3.7613">
        <ele>246.39999389648</ele>
        <time>2023-05-30T08:35:57.000Z</time>
      </trkpt>
      <trkpt lat="46.46317" lon="3.76163">
        <ele>247</ele>
        <time>2023-05-30T08:36:03.000Z</time>
      </trkpt>
      <trkpt lat="46.4631" lon="3.76173">
        <ele>247.19999694824</ele>
        <time>2023-05-30T08:36:05.000Z</time>
      </trkpt>
      <trkpt lat="46.46306" lon="3.76178">
        <ele>247.19999694824</ele>
        <time>2023-05-30T08:36:06.000Z</time>
      </trkpt>
      <trkpt lat="46.46288" lon="3.76203">
        <ele>248.19999694824</ele>
        <time>2023-05-30T08:36:11.000Z</time>
      </trkpt>
      <trkpt lat="46.46281" lon="3.76212">
        <ele>248.60000610352</ele>
        <time>2023-05-30T08:36:13.000Z</time>
      </trkpt>
      <trkpt lat="46.4627" lon="3.76228">
        <ele>249.39999389648</ele>
        <time>2023-05-30T08:36:16.000Z</time>
      </trkpt>
      <trkpt lat="46.46252" lon="3.76252">
        <ele>250.39999389648</ele>
        <time>2023-05-30T08:36:21.000Z</time>
      </trkpt>
      <trkpt lat="46.4624" lon="3.76267">
        <ele>250.80000305176</ele>
        <time>2023-05-30T08:36:24.000Z</time>
      </trkpt>
      <trkpt lat="46.46229" lon="3.76282">
        <ele>251.39999389648</ele>
        <time>2023-05-30T08:36:27.000Z</time>
      </trkpt>
      <trkpt lat="46.46211" lon="3.76307">
        <ele>252.80000305176</ele>
        <time>2023-05-30T08:36:32.000Z</time>
      </trkpt>
      <trkpt lat="46.46204" lon="3.76317">
        <ele>253.19999694824</ele>
        <time>2023-05-30T08:36:34.000Z</time>
      </trkpt>
      <trkpt lat="46.46193" lon="3.76332">
        <ele>254.19999694824</ele>
        <time>2023-05-30T08:36:37.000Z</time>
      </trkpt>
      <trkpt lat="46.46171" lon="3.76361">
        <ele>255</ele>
        <time>2023-05-30T08:36:43.000Z</time>
      </trkpt>
      <trkpt lat="46.46161" lon="3.76375">
        <ele>255.19999694824</ele>
        <time>2023-05-30T08:36:46.000Z</time>
      </trkpt>
      <trkpt lat="46.46137" lon="3.76407">
        <ele>255.60000610352</ele>
        <time>2023-05-30T08:36:53.000Z</time>
      </trkpt>
      <trkpt lat="46.4612" lon="3.7643">
        <ele>256</ele>
        <time>2023-05-30T08:36:58.000Z</time>
      </trkpt>
      <trkpt lat="46.46109" lon="3.76444">
        <ele>256.39999389648</ele>
        <time>2023-05-30T08:37:01.000Z</time>
      </trkpt>
      <trkpt lat="46.46068" lon="3.76501">
        <ele>257.20001220703</ele>
        <time>2023-05-30T08:37:12.000Z</time>
      </trkpt>
      <trkpt lat="46.46057" lon="3.76517">
        <ele>257.39999389648</ele>
        <time>2023-05-30T08:37:15.000Z</time>
      </trkpt>
      <trkpt lat="46.46028" lon="3.76558">
        <ele>258.20001220703</ele>
        <time>2023-05-30T08:37:23.000Z</time>
      </trkpt>
      <trkpt lat="46.46016" lon="3.76573">
        <ele>258.39999389648</ele>
        <time>2023-05-30T08:37:26.000Z</time>
      </trkpt>
      <trkpt lat="46.45994" lon="3.76605">
        <ele>259</ele>
        <time>2023-05-30T08:37:32.000Z</time>
      </trkpt>
      <trkpt lat="46.45976" lon="3.7663">
        <ele>259.60000610352</ele>
        <time>2023-05-30T08:37:37.000Z</time>
      </trkpt>
      <trkpt lat="46.45965" lon="3.76646">
        <ele>259.79998779297</ele>
        <time>2023-05-30T08:37:41.000Z</time>
      </trkpt>
      <trkpt lat="46.45959" lon="3.76658">
        <ele>259.79998779297</ele>
        <time>2023-05-30T08:37:42.000Z</time>
      </trkpt>
      <trkpt lat="46.4595" lon="3.76676">
        <ele>260.60000610352</ele>
        <time>2023-05-30T08:37:45.000Z</time>
      </trkpt>
      <trkpt lat="46.45944" lon="3.76689">
        <ele>261</ele>
        <time>2023-05-30T08:37:47.000Z</time>
      </trkpt>
      <trkpt lat="46.45921" lon="3.76748">
        <ele>261.60000610352</ele>
        <time>2023-05-30T08:37:56.000Z</time>
      </trkpt>
      <trkpt lat="46.45918" lon="3.76754">
        <ele>261.79998779297</ele>
        <time>2023-05-30T08:37:57.000Z</time>
      </trkpt>
      <trkpt lat="46.45891" lon="3.76823">
        <ele>262.60000610352</ele>
        <time>2023-05-30T08:38:08.000Z</time>
      </trkpt>
      <trkpt lat="46.45889" lon="3.76829">
        <ele>262.79998779297</ele>
        <time>2023-05-30T08:38:09.000Z</time>
      </trkpt>
      <trkpt lat="46.45872" lon="3.76874">
        <ele>263.79998779297</ele>
        <time>2023-05-30T08:38:16.000Z</time>
      </trkpt>
      <trkpt lat="46.45867" lon="3.76887">
        <ele>264.20001220703</ele>
        <time>2023-05-30T08:38:18.000Z</time>
      </trkpt>
      <trkpt lat="46.4585" lon="3.76931">
        <ele>265</ele>
        <time>2023-05-30T08:38:25.000Z</time>
      </trkpt>
      <trkpt lat="46.45845" lon="3.76943">
        <ele>265.20001220703</ele>
        <time>2023-05-30T08:38:27.000Z</time>
      </trkpt>
      <trkpt lat="46.45832" lon="3.7698">
        <ele>266</ele>
        <time>2023-05-30T08:38:33.000Z</time>
      </trkpt>
      <trkpt lat="46.45829" lon="3.76986">
        <ele>266</ele>
        <time>2023-05-30T08:38:34.000Z</time>
      </trkpt>
      <trkpt lat="46.45824" lon="3.76999">
        <ele>266.20001220703</ele>
        <time>2023-05-30T08:38:36.000Z</time>
      </trkpt>
      <trkpt lat="46.45808" lon="3.77043">
        <ele>266.39999389648</ele>
        <time>2023-05-30T08:38:42.000Z</time>
      </trkpt>
      <trkpt lat="46.45781" lon="3.77115">
        <ele>265</ele>
        <time>2023-05-30T08:38:50.000Z</time>
      </trkpt>
      <trkpt lat="46.45778" lon="3.77123">
        <ele>264.60000610352</ele>
        <time>2023-05-30T08:38:51.000Z</time>
      </trkpt>
      <trkpt lat="46.45761" lon="3.77168">
        <ele>263.60000610352</ele>
        <time>2023-05-30T08:38:56.000Z</time>
      </trkpt>
      <trkpt lat="46.45743" lon="3.77214">
        <ele>262.60000610352</ele>
        <time>2023-05-30T08:39:01.000Z</time>
      </trkpt>
      <trkpt lat="46.45733" lon="3.77237">
        <ele>262.39999389648</ele>
        <time>2023-05-30T08:39:04.000Z</time>
      </trkpt>
      <trkpt lat="46.45715" lon="3.77278">
        <ele>262.20001220703</ele>
        <time>2023-05-30T08:39:09.000Z</time>
      </trkpt>
      <trkpt lat="46.45691" lon="3.77334">
        <ele>261.79998779297</ele>
        <time>2023-05-30T08:39:16.000Z</time>
      </trkpt>
      <trkpt lat="46.45681" lon="3.77357">
        <ele>261.39999389648</ele>
        <time>2023-05-30T08:39:19.000Z</time>
      </trkpt>
      <trkpt lat="46.45661" lon="3.77397">
        <ele>260.79998779297</ele>
        <time>2023-05-30T08:39:24.000Z</time>
      </trkpt>
      <trkpt lat="46.45629" lon="3.77447">
        <ele>260.60000610352</ele>
        <time>2023-05-30T08:39:31.000Z</time>
      </trkpt>
      <trkpt lat="46.45588" lon="3.77503">
        <ele>262</ele>
        <time>2023-05-30T08:39:40.000Z</time>
      </trkpt>
      <trkpt lat="46.45583" lon="3.7751">
        <ele>262</ele>
        <time>2023-05-30T08:39:41.000Z</time>
      </trkpt>
      <trkpt lat="46.45562" lon="3.7754">
        <ele>262.39999389648</ele>
        <time>2023-05-30T08:39:46.000Z</time>
      </trkpt>
      <trkpt lat="46.45538" lon="3.77573">
        <ele>263.20001220703</ele>
        <time>2023-05-30T08:39:52.000Z</time>
      </trkpt>
      <trkpt lat="46.45517" lon="3.77603">
        <ele>263.39999389648</ele>
        <time>2023-05-30T08:39:57.000Z</time>
      </trkpt>
      <trkpt lat="46.455" lon="3.77627">
        <ele>263.39999389648</ele>
        <time>2023-05-30T08:40:01.000Z</time>
      </trkpt>
      <trkpt lat="46.45465" lon="3.77676">
        <ele>262.39999389648</ele>
        <time>2023-05-30T08:40:09.000Z</time>
      </trkpt>
      <trkpt lat="46.45432" lon="3.77721">
        <ele>261.39999389648</ele>
        <time>2023-05-30T08:40:15.000Z</time>
      </trkpt>
      <trkpt lat="46.45416" lon="3.77744">
        <ele>260.20001220703</ele>
        <time>2023-05-30T08:40:18.000Z</time>
      </trkpt>
      <trkpt lat="46.45397" lon="3.77772">
        <ele>259</ele>
        <time>2023-05-30T08:40:21.000Z</time>
      </trkpt>
      <trkpt lat="46.45392" lon="3.77779">
        <ele>258.79998779297</ele>
        <time>2023-05-30T08:40:22.000Z</time>
      </trkpt>
      <trkpt lat="46.45379" lon="3.77797">
        <ele>258</ele>
        <time>2023-05-30T08:40:24.000Z</time>
      </trkpt>
      <trkpt lat="46.45357" lon="3.77828">
        <ele>256.79998779297</ele>
        <time>2023-05-30T08:40:28.000Z</time>
      </trkpt>
      <trkpt lat="46.45345" lon="3.77845">
        <ele>256.60000610352</ele>
        <time>2023-05-30T08:40:30.000Z</time>
      </trkpt>
      <trkpt lat="46.45302" lon="3.77904">
        <ele>255.80000305176</ele>
        <time>2023-05-30T08:40:38.000Z</time>
      </trkpt>
      <trkpt lat="46.45263" lon="3.7796">
        <ele>254.80000305176</ele>
        <time>2023-05-30T08:40:46.000Z</time>
      </trkpt>
      <trkpt lat="46.45254" lon="3.77972">
        <ele>254.60000610352</ele>
        <time>2023-05-30T08:40:48.000Z</time>
      </trkpt>
      <trkpt lat="46.45249" lon="3.7798">
        <ele>254.60000610352</ele>
        <time>2023-05-30T08:40:49.000Z</time>
      </trkpt>
      <trkpt lat="46.45207" lon="3.78037">
        <ele>254.39999389648</ele>
        <time>2023-05-30T08:40:58.000Z</time>
      </trkpt>
      <trkpt lat="46.45168" lon="3.78094">
        <ele>253.60000610352</ele>
        <time>2023-05-30T08:41:06.000Z</time>
      </trkpt>
      <trkpt lat="46.45163" lon="3.78101">
        <ele>253.60000610352</ele>
        <time>2023-05-30T08:41:07.000Z</time>
      </trkpt>
      <trkpt lat="46.45141" lon="3.78144">
        <ele>253.19999694824</ele>
        <time>2023-05-30T08:41:13.000Z</time>
      </trkpt>
      <trkpt lat="46.45118" lon="3.78206">
        <ele>253.60000610352</ele>
        <time>2023-05-30T08:41:21.000Z</time>
      </trkpt>
      <trkpt lat="46.45099" lon="3.78256">
        <ele>254.39999389648</ele>
        <time>2023-05-30T08:41:28.000Z</time>
      </trkpt>
      <trkpt lat="46.45096" lon="3.78262">
        <ele>254.60000610352</ele>
        <time>2023-05-30T08:41:29.000Z</time>
      </trkpt>
      <trkpt lat="46.45083" lon="3.78297">
        <ele>255.60000610352</ele>
        <time>2023-05-30T08:41:34.000Z</time>
      </trkpt>
      <trkpt lat="46.45079" lon="3.7831">
        <ele>255.80000305176</ele>
        <time>2023-05-30T08:41:36.000Z</time>
      </trkpt>
      <trkpt lat="46.45062" lon="3.78355">
        <ele>256.39999389648</ele>
        <time>2023-05-30T08:41:42.000Z</time>
      </trkpt>
      <trkpt lat="46.45037" lon="3.78427">
        <ele>256.60000610352</ele>
        <time>2023-05-30T08:41:52.000Z</time>
      </trkpt>
      <trkpt lat="46.45032" lon="3.78444">
        <ele>256.60000610352</ele>
        <time>2023-05-30T08:41:54.000Z</time>
      </trkpt>
      <trkpt lat="46.45019" lon="3.78506">
        <ele>256.60000610352</ele>
        <time>2023-05-30T08:42:02.000Z</time>
      </trkpt>
      <trkpt lat="46.45015" lon="3.7854">
        <ele>257</ele>
        <time>2023-05-30T08:42:06.000Z</time>
      </trkpt>
      <trkpt lat="46.45013" lon="3.78583">
        <ele>256.79998779297</ele>
        <time>2023-05-30T08:42:11.000Z</time>
      </trkpt>
      <trkpt lat="46.45012" lon="3.78649">
        <ele>256.60000610352</ele>
        <time>2023-05-30T08:42:19.000Z</time>
      </trkpt>
      <trkpt lat="46.4501" lon="3.787">
        <ele>256.79998779297</ele>
        <time>2023-05-30T08:42:25.000Z</time>
      </trkpt>
      <trkpt lat="46.45008" lon="3.78769">
        <ele>258.20001220703</ele>
        <time>2023-05-30T08:42:34.000Z</time>
      </trkpt>
      <trkpt lat="46.45006" lon="3.78821">
        <ele>259</ele>
        <time>2023-05-30T08:42:41.000Z</time>
      </trkpt>
      <trkpt lat="46.45006" lon="3.78829">
        <ele>259.39999389648</ele>
        <time>2023-05-30T08:42:42.000Z</time>
      </trkpt>
      <trkpt lat="46.45004" lon="3.78874">
        <ele>260.39999389648</ele>
        <time>2023-05-30T08:42:48.000Z</time>
      </trkpt>
      <trkpt lat="46.45003" lon="3.78889">
        <ele>260.60000610352</ele>
        <time>2023-05-30T08:42:50.000Z</time>
      </trkpt>
      <trkpt lat="46.44992" lon="3.7895">
        <ele>261.39999389648</ele>
        <time>2023-05-30T08:42:58.000Z</time>
      </trkpt>
      <trkpt lat="46.44976" lon="3.79003">
        <ele>261.39999389648</ele>
        <time>2023-05-30T08:43:05.000Z</time>
      </trkpt>
      <trkpt lat="46.44952" lon="3.79075">
        <ele>260.60000610352</ele>
        <time>2023-05-30T08:43:14.000Z</time>
      </trkpt>
      <trkpt lat="46.4495" lon="3.79083">
        <ele>260.60000610352</ele>
        <time>2023-05-30T08:43:15.000Z</time>
      </trkpt>
      <trkpt lat="46.44928" lon="3.79128">
        <ele>260.79998779297</ele>
        <time>2023-05-30T08:43:22.000Z</time>
      </trkpt>
      <trkpt lat="46.44898" lon="3.79156">
        <ele>261</ele>
        <time>2023-05-30T08:43:28.000Z</time>
      </trkpt>
      <trkpt lat="46.44848" lon="3.79189">
        <ele>261.60000610352</ele>
        <time>2023-05-30T08:43:38.000Z</time>
      </trkpt>
      <trkpt lat="46.44824" lon="3.79208">
        <ele>261.79998779297</ele>
        <time>2023-05-30T08:43:43.000Z</time>
      </trkpt>
      <trkpt lat="46.44817" lon="3.79216">
        <ele>262</ele>
        <time>2023-05-30T08:43:45.000Z</time>
      </trkpt>
      <trkpt lat="46.44805" lon="3.79233">
        <ele>262.60000610352</ele>
        <time>2023-05-30T08:43:48.000Z</time>
      </trkpt>
      <trkpt lat="46.44788" lon="3.7926">
        <ele>263.20001220703</ele>
        <time>2023-05-30T08:43:53.000Z</time>
      </trkpt>
      <trkpt lat="46.44779" lon="3.79274">
        <ele>263.60000610352</ele>
        <time>2023-05-30T08:43:56.000Z</time>
      </trkpt>
      <trkpt lat="46.44764" lon="3.79299">
        <ele>264.20001220703</ele>
        <time>2023-05-30T08:44:01.000Z</time>
      </trkpt>
      <trkpt lat="46.44747" lon="3.79325">
        <ele>264.79998779297</ele>
        <time>2023-05-30T08:44:06.000Z</time>
      </trkpt>
      <trkpt lat="46.44736" lon="3.7934">
        <ele>265.39999389648</ele>
        <time>2023-05-30T08:44:09.000Z</time>
      </trkpt>
      <trkpt lat="46.44729" lon="3.79348">
        <ele>265.79998779297</ele>
        <time>2023-05-30T08:44:11.000Z</time>
      </trkpt>
      <trkpt lat="46.44707" lon="3.79373">
        <ele>267</ele>
        <time>2023-05-30T08:44:17.000Z</time>
      </trkpt>
      <trkpt lat="46.44683" lon="3.79395">
        <ele>268</ele>
        <time>2023-05-30T08:44:23.000Z</time>
      </trkpt>
      <trkpt lat="46.44672" lon="3.79407">
        <ele>268.39999389648</ele>
        <time>2023-05-30T08:44:26.000Z</time>
      </trkpt>
      <trkpt lat="46.44665" lon="3.79415">
        <ele>269</ele>
        <time>2023-05-30T08:44:28.000Z</time>
      </trkpt>
      <trkpt lat="46.44644" lon="3.79445">
        <ele>270</ele>
        <time>2023-05-30T08:44:34.000Z</time>
      </trkpt>
      <trkpt lat="46.44641" lon="3.79451">
        <ele>270.20001220703</ele>
        <time>2023-05-30T08:44:35.000Z</time>
      </trkpt>
      <trkpt lat="46.44613" lon="3.79504">
        <ele>270</ele>
        <time>2023-05-30T08:44:43.000Z</time>
      </trkpt>
      <trkpt lat="46.44578" lon="3.7957">
        <ele>269.79998779297</ele>
        <time>2023-05-30T08:44:53.000Z</time>
      </trkpt>
      <trkpt lat="46.44572" lon="3.79583">
        <ele>270</ele>
        <time>2023-05-30T08:44:55.000Z</time>
      </trkpt>
      <trkpt lat="46.44543" lon="3.79638">
        <ele>270.79998779297</ele>
        <time>2023-05-30T08:45:04.000Z</time>
      </trkpt>
      <trkpt lat="46.44537" lon="3.79649">
        <ele>271.20001220703</ele>
        <time>2023-05-30T08:45:06.000Z</time>
      </trkpt>
      <trkpt lat="46.44513" lon="3.79695">
        <ele>272.20001220703</ele>
        <time>2023-05-30T08:45:14.000Z</time>
      </trkpt>
      <trkpt lat="46.4451" lon="3.79701">
        <ele>272.20001220703</ele>
        <time>2023-05-30T08:45:15.000Z</time>
      </trkpt>
      <trkpt lat="46.44493" lon="3.79733">
        <ele>273.20001220703</ele>
        <time>2023-05-30T08:45:21.000Z</time>
      </trkpt>
      <trkpt lat="46.44488" lon="3.79743">
        <ele>273.79998779297</ele>
        <time>2023-05-30T08:45:23.000Z</time>
      </trkpt>
      <trkpt lat="46.44474" lon="3.7977">
        <ele>274.39999389648</ele>
        <time>2023-05-30T08:45:28.000Z</time>
      </trkpt>
      <trkpt lat="46.44463" lon="3.79791">
        <ele>274.79998779297</ele>
        <time>2023-05-30T08:45:32.000Z</time>
      </trkpt>
      <trkpt lat="46.44448" lon="3.7982">
        <ele>275.39999389648</ele>
        <time>2023-05-30T08:45:37.000Z</time>
      </trkpt>
      <trkpt lat="46.44435" lon="3.79845">
        <ele>275.60000610352</ele>
        <time>2023-05-30T08:45:41.000Z</time>
      </trkpt>
      <trkpt lat="46.44401" lon="3.79909">
        <ele>275.39999389648</ele>
        <time>2023-05-30T08:45:51.000Z</time>
      </trkpt>
      <trkpt lat="46.44369" lon="3.79972">
        <ele>275.79998779297</ele>
        <time>2023-05-30T08:46:01.000Z</time>
      </trkpt>
      <trkpt lat="46.44366" lon="3.79978">
        <ele>275.79998779297</ele>
        <time>2023-05-30T08:46:02.000Z</time>
      </trkpt>
      <trkpt lat="46.4434" lon="3.80026">
        <ele>276.20001220703</ele>
        <time>2023-05-30T08:46:10.000Z</time>
      </trkpt>
      <trkpt lat="46.44334" lon="3.80037">
        <ele>276.60000610352</ele>
        <time>2023-05-30T08:46:12.000Z</time>
      </trkpt>
      <trkpt lat="46.44308" lon="3.80087">
        <ele>277.60000610352</ele>
        <time>2023-05-30T08:46:20.000Z</time>
      </trkpt>
      <trkpt lat="46.44302" lon="3.80099">
        <ele>277.79998779297</ele>
        <time>2023-05-30T08:46:22.000Z</time>
      </trkpt>
      <trkpt lat="46.44286" lon="3.80127">
        <ele>278.79998779297</ele>
        <time>2023-05-30T08:46:27.000Z</time>
      </trkpt>
      <trkpt lat="46.44278" lon="3.80142">
        <ele>279.39999389648</ele>
        <time>2023-05-30T08:46:30.000Z</time>
      </trkpt>
      <trkpt lat="46.44274" lon="3.80148">
        <ele>279.39999389648</ele>
        <time>2023-05-30T08:46:31.000Z</time>
      </trkpt>
      <trkpt lat="46.44272" lon="3.80153">
        <ele>279.79998779297</ele>
        <time>2023-05-30T08:46:32.000Z</time>
      </trkpt>
      <trkpt lat="46.4426" lon="3.80172">
        <ele>280.39999389648</ele>
        <time>2023-05-30T08:46:36.000Z</time>
      </trkpt>
      <trkpt lat="46.44253" lon="3.80181">
        <ele>280.79998779297</ele>
        <time>2023-05-30T08:46:38.000Z</time>
      </trkpt>
      <trkpt lat="46.44241" lon="3.80196">
        <ele>282</ele>
        <time>2023-05-30T08:46:42.000Z</time>
      </trkpt>
      <trkpt lat="46.4423" lon="3.80207">
        <ele>282.60000610352</ele>
        <time>2023-05-30T08:46:45.000Z</time>
      </trkpt>
      <trkpt lat="46.44225" lon="3.8021">
        <ele>283</ele>
        <time>2023-05-30T08:46:46.000Z</time>
      </trkpt>
      <trkpt lat="46.44217" lon="3.80217">
        <ele>283.39999389648</ele>
        <time>2023-05-30T08:46:48.000Z</time>
      </trkpt>
      <trkpt lat="46.44188" lon="3.80238">
        <ele>284</ele>
        <time>2023-05-30T08:46:54.000Z</time>
      </trkpt>
      <trkpt lat="46.44184" lon="3.80242">
        <ele>284</ele>
        <time>2023-05-30T08:46:55.000Z</time>
      </trkpt>
      <trkpt lat="46.44146" lon="3.80272">
        <ele>283.60000610352</ele>
        <time>2023-05-30T08:47:02.000Z</time>
      </trkpt>
      <trkpt lat="46.44123" lon="3.8029">
        <ele>283</ele>
        <time>2023-05-30T08:47:06.000Z</time>
      </trkpt>
      <trkpt lat="46.441" lon="3.80309">
        <ele>282.39999389648</ele>
        <time>2023-05-30T08:47:10.000Z</time>
      </trkpt>
      <trkpt lat="46.44065" lon="3.8035">
        <ele>282.20001220703</ele>
        <time>2023-05-30T08:47:17.000Z</time>
      </trkpt>
      <trkpt lat="46.44056" lon="3.80364">
        <ele>282</ele>
        <time>2023-05-30T08:47:19.000Z</time>
      </trkpt>
      <trkpt lat="46.44026" lon="3.80411">
        <ele>281.20001220703</ele>
        <time>2023-05-30T08:47:26.000Z</time>
      </trkpt>
      <trkpt lat="46.44" lon="3.80452">
        <ele>280.79998779297</ele>
        <time>2023-05-30T08:47:32.000Z</time>
      </trkpt>
      <trkpt lat="46.43995" lon="3.80459">
        <ele>280.79998779297</ele>
        <time>2023-05-30T08:47:33.000Z</time>
      </trkpt>
      <trkpt lat="46.43966" lon="3.80504">
        <ele>279.79998779297</ele>
        <time>2023-05-30T08:47:40.000Z</time>
      </trkpt>
      <trkpt lat="46.43942" lon="3.8054">
        <ele>279</ele>
        <time>2023-05-30T08:47:45.000Z</time>
      </trkpt>
      <trkpt lat="46.43933" lon="3.80554">
        <ele>278.79998779297</ele>
        <time>2023-05-30T08:47:47.000Z</time>
      </trkpt>
      <trkpt lat="46.43896" lon="3.80612">
        <ele>277.79998779297</ele>
        <time>2023-05-30T08:47:55.000Z</time>
      </trkpt>
      <trkpt lat="46.43892" lon="3.80619">
        <ele>277.60000610352</ele>
        <time>2023-05-30T08:47:56.000Z</time>
      </trkpt>
      <trkpt lat="46.43859" lon="3.80687">
        <ele>276.39999389648</ele>
        <time>2023-05-30T08:48:04.000Z</time>
      </trkpt>
      <trkpt lat="46.43835" lon="3.80742">
        <ele>275.20001220703</ele>
        <time>2023-05-30T08:48:10.000Z</time>
      </trkpt>
      <trkpt lat="46.43827" lon="3.8076">
        <ele>274.60000610352</ele>
        <time>2023-05-30T08:48:12.000Z</time>
      </trkpt>
      <trkpt lat="46.43816" lon="3.80786">
        <ele>274</ele>
        <time>2023-05-30T08:48:15.000Z</time>
      </trkpt>
      <trkpt lat="46.4379" lon="3.80846">
        <ele>273</ele>
        <time>2023-05-30T08:48:22.000Z</time>
      </trkpt>
      <trkpt lat="46.43786" lon="3.80854">
        <ele>273</ele>
        <time>2023-05-30T08:48:23.000Z</time>
      </trkpt>
      <trkpt lat="46.43772" lon="3.80887">
        <ele>271.79998779297</ele>
        <time>2023-05-30T08:48:27.000Z</time>
      </trkpt>
      <trkpt lat="46.43757" lon="3.8092">
        <ele>271.39999389648</ele>
        <time>2023-05-30T08:48:31.000Z</time>
      </trkpt>
      <trkpt lat="46.43744" lon="3.80944">
        <ele>271</ele>
        <time>2023-05-30T08:48:34.000Z</time>
      </trkpt>
      <trkpt lat="46.43726" lon="3.80972">
        <ele>270.20001220703</ele>
        <time>2023-05-30T08:48:38.000Z</time>
      </trkpt>
      <trkpt lat="46.43706" lon="3.81001">
        <ele>270</ele>
        <time>2023-05-30T08:48:42.000Z</time>
      </trkpt>
      <trkpt lat="46.4369" lon="3.81025">
        <ele>269.20001220703</ele>
        <time>2023-05-30T08:48:45.000Z</time>
      </trkpt>
      <trkpt lat="46.43686" lon="3.81032">
        <ele>268.79998779297</ele>
        <time>2023-05-30T08:48:46.000Z</time>
      </trkpt>
      <trkpt lat="46.43682" lon="3.8104">
        <ele>268.79998779297</ele>
        <time>2023-05-30T08:48:47.000Z</time>
      </trkpt>
      <trkpt lat="46.43676" lon="3.81061">
        <ele>268.39999389648</ele>
        <time>2023-05-30T08:48:49.000Z</time>
      </trkpt>
      <trkpt lat="46.43675" lon="3.81081">
        <ele>268</ele>
        <time>2023-05-30T08:48:51.000Z</time>
      </trkpt>
      <trkpt lat="46.43676" lon="3.81091">
        <ele>267.79998779297</ele>
        <time>2023-05-30T08:48:52.000Z</time>
      </trkpt>
      <trkpt lat="46.43676" lon="3.81102">
        <ele>267.39999389648</ele>
        <time>2023-05-30T08:48:53.000Z</time>
      </trkpt>
      <trkpt lat="46.4368" lon="3.8116">
        <ele>266.60000610352</ele>
        <time>2023-05-30T08:48:59.000Z</time>
      </trkpt>
      <trkpt lat="46.4368" lon="3.8117">
        <ele>266.20001220703</ele>
        <time>2023-05-30T08:49:00.000Z</time>
      </trkpt>
      <trkpt lat="46.43681" lon="3.81235">
        <ele>265.39999389648</ele>
        <time>2023-05-30T08:49:06.000Z</time>
      </trkpt>
      <trkpt lat="46.43681" lon="3.81258">
        <ele>265</ele>
        <time>2023-05-30T08:49:08.000Z</time>
      </trkpt>
      <trkpt lat="46.43681" lon="3.81282">
        <ele>264.20001220703</ele>
        <time>2023-05-30T08:49:10.000Z</time>
      </trkpt>
      <trkpt lat="46.4368" lon="3.81322">
        <ele>262.79998779297</ele>
        <time>2023-05-30T08:49:13.000Z</time>
      </trkpt>
      <trkpt lat="46.43677" lon="3.81348">
        <ele>261.60000610352</ele>
        <time>2023-05-30T08:49:15.000Z</time>
      </trkpt>
      <trkpt lat="46.43669" lon="3.81389">
        <ele>260.20001220703</ele>
        <time>2023-05-30T08:49:18.000Z</time>
      </trkpt>
      <trkpt lat="46.43662" lon="3.81416">
        <ele>259.20001220703</ele>
        <time>2023-05-30T08:49:20.000Z</time>
      </trkpt>
      <trkpt lat="46.43653" lon="3.81442">
        <ele>258</ele>
        <time>2023-05-30T08:49:22.000Z</time>
      </trkpt>
      <trkpt lat="46.43648" lon="3.81454">
        <ele>257.39999389648</ele>
        <time>2023-05-30T08:49:23.000Z</time>
      </trkpt>
      <trkpt lat="46.43642" lon="3.81466">
        <ele>256.79998779297</ele>
        <time>2023-05-30T08:49:24.000Z</time>
      </trkpt>
      <trkpt lat="46.4363" lon="3.81489">
        <ele>255.80000305176</ele>
        <time>2023-05-30T08:49:26.000Z</time>
      </trkpt>
      <trkpt lat="46.43616" lon="3.81511">
        <ele>254.39999389648</ele>
        <time>2023-05-30T08:49:28.000Z</time>
      </trkpt>
      <trkpt lat="46.43595" lon="3.81542">
        <ele>253.19999694824</ele>
        <time>2023-05-30T08:49:31.000Z</time>
      </trkpt>
      <trkpt lat="46.4358" lon="3.81564">
        <ele>251.80000305176</ele>
        <time>2023-05-30T08:49:33.000Z</time>
      </trkpt>
      <trkpt lat="46.43566" lon="3.81585">
        <ele>250.39999389648</ele>
        <time>2023-05-30T08:49:35.000Z</time>
      </trkpt>
      <trkpt lat="46.43546" lon="3.81614">
        <ele>249.19999694824</ele>
        <time>2023-05-30T08:49:38.000Z</time>
      </trkpt>
      <trkpt lat="46.43527" lon="3.81642">
        <ele>248</ele>
        <time>2023-05-30T08:49:41.000Z</time>
      </trkpt>
      <trkpt lat="46.43498" lon="3.81683">
        <ele>247</ele>
        <time>2023-05-30T08:49:46.000Z</time>
      </trkpt>
      <trkpt lat="46.43492" lon="3.8169">
        <ele>247</ele>
        <time>2023-05-30T08:49:47.000Z</time>
      </trkpt>
      <trkpt lat="46.43479" lon="3.81702">
        <ele>246.80000305176</ele>
        <time>2023-05-30T08:49:49.000Z</time>
      </trkpt>
      <trkpt lat="46.43466" lon="3.81709">
        <ele>246.80000305176</ele>
        <time>2023-05-30T08:49:51.000Z</time>
      </trkpt>
      <trkpt lat="46.43437" lon="3.81715">
        <ele>247.80000305176</ele>
        <time>2023-05-30T08:49:56.000Z</time>
      </trkpt>
      <trkpt lat="46.43427" lon="3.81714">
        <ele>248.19999694824</ele>
        <time>2023-05-30T08:49:58.000Z</time>
      </trkpt>
      <trkpt lat="46.43413" lon="3.81712">
        <ele>249.39999389648</ele>
        <time>2023-05-30T08:50:01.000Z</time>
      </trkpt>
      <trkpt lat="46.43409" lon="3.81711">
        <ele>250</ele>
        <time>2023-05-30T08:50:02.000Z</time>
      </trkpt>
      <trkpt lat="46.43401" lon="3.81709">
        <ele>250.60000610352</ele>
        <time>2023-05-30T08:50:04.000Z</time>
      </trkpt>
      <trkpt lat="46.43393" lon="3.81707">
        <ele>251.39999389648</ele>
        <time>2023-05-30T08:50:06.000Z</time>
      </trkpt>
      <trkpt lat="46.4339" lon="3.81706">
        <ele>251.60000610352</ele>
        <time>2023-05-30T08:50:07.000Z</time>
      </trkpt>
      <trkpt lat="46.43386" lon="3.81706">
        <ele>251.80000305176</ele>
        <time>2023-05-30T08:50:08.000Z</time>
      </trkpt>
      <trkpt lat="46.43374" lon="3.81702">
        <ele>252.80000305176</ele>
        <time>2023-05-30T08:50:11.000Z</time>
      </trkpt>
      <trkpt lat="46.43363" lon="3.81699">
        <ele>253.80000305176</ele>
        <time>2023-05-30T08:50:14.000Z</time>
      </trkpt>
      <trkpt lat="46.43357" lon="3.81697">
        <ele>254.19999694824</ele>
        <time>2023-05-30T08:50:16.000Z</time>
      </trkpt>
      <trkpt lat="46.43347" lon="3.81695">
        <ele>255</ele>
        <time>2023-05-30T08:50:19.000Z</time>
      </trkpt>
      <trkpt lat="46.43331" lon="3.8169">
        <ele>256.20001220703</ele>
        <time>2023-05-30T08:50:24.000Z</time>
      </trkpt>
      <trkpt lat="46.43327" lon="3.81689">
        <ele>256.39999389648</ele>
        <time>2023-05-30T08:50:25.000Z</time>
      </trkpt>
      <trkpt lat="46.4331" lon="3.81687">
        <ele>257.39999389648</ele>
        <time>2023-05-30T08:50:30.000Z</time>
      </trkpt>
      <trkpt lat="46.43303" lon="3.81685">
        <ele>258</ele>
        <time>2023-05-30T08:50:32.000Z</time>
      </trkpt>
      <trkpt lat="46.43293" lon="3.81682">
        <ele>258.60000610352</ele>
        <time>2023-05-30T08:50:35.000Z</time>
      </trkpt>
      <trkpt lat="46.4328" lon="3.81681">
        <ele>259.60000610352</ele>
        <time>2023-05-30T08:50:39.000Z</time>
      </trkpt>
      <trkpt lat="46.43274" lon="3.8168">
        <ele>260.20001220703</ele>
        <time>2023-05-30T08:50:41.000Z</time>
      </trkpt>
      <trkpt lat="46.43263" lon="3.81677">
        <ele>260.79998779297</ele>
        <time>2023-05-30T08:50:44.000Z</time>
      </trkpt>
      <trkpt lat="46.43246" lon="3.81674">
        <ele>262.20001220703</ele>
        <time>2023-05-30T08:50:49.000Z</time>
      </trkpt>
      <trkpt lat="46.4324" lon="3.81674">
        <ele>262.60000610352</ele>
        <time>2023-05-30T08:50:51.000Z</time>
      </trkpt>
      <trkpt lat="46.43216" lon="3.81676">
        <ele>263.39999389648</ele>
        <time>2023-05-30T08:50:58.000Z</time>
      </trkpt>
      <trkpt lat="46.43213" lon="3.81676">
        <ele>263.60000610352</ele>
        <time>2023-05-30T08:50:59.000Z</time>
      </trkpt>
      <trkpt lat="46.43183" lon="3.8167">
        <ele>264.39999389648</ele>
        <time>2023-05-30T08:51:07.000Z</time>
      </trkpt>
      <trkpt lat="46.43179" lon="3.81669">
        <ele>264.60000610352</ele>
        <time>2023-05-30T08:51:08.000Z</time>
      </trkpt>
      <trkpt lat="46.43141" lon="3.81656">
        <ele>265</ele>
        <time>2023-05-30T08:51:17.000Z</time>
      </trkpt>
      <trkpt lat="46.43129" lon="3.81652">
        <ele>265.39999389648</ele>
        <time>2023-05-30T08:51:20.000Z</time>
      </trkpt>
      <trkpt lat="46.43102" lon="3.81643">
        <ele>266.60000610352</ele>
        <time>2023-05-30T08:51:27.000Z</time>
      </trkpt>
      <trkpt lat="46.43091" lon="3.81639">
        <ele>266.79998779297</ele>
        <time>2023-05-30T08:51:30.000Z</time>
      </trkpt>
      <trkpt lat="46.43075" lon="3.81634">
        <ele>267.60000610352</ele>
        <time>2023-05-30T08:51:34.000Z</time>
      </trkpt>
      <trkpt lat="46.4306" lon="3.81633">
        <ele>268.39999389648</ele>
        <time>2023-05-30T08:51:38.000Z</time>
      </trkpt>
      <trkpt lat="46.43052" lon="3.81635">
        <ele>268.79998779297</ele>
        <time>2023-05-30T08:51:40.000Z</time>
      </trkpt>
      <trkpt lat="46.43034" lon="3.81643">
        <ele>270</ele>
        <time>2023-05-30T08:51:45.000Z</time>
      </trkpt>
      <trkpt lat="46.43012" lon="3.81654">
        <ele>270.79998779297</ele>
        <time>2023-05-30T08:51:51.000Z</time>
      </trkpt>
      <trkpt lat="46.43003" lon="3.81659">
        <ele>271</ele>
        <time>2023-05-30T08:51:53.000Z</time>
      </trkpt>
      <trkpt lat="46.42995" lon="3.81664">
        <ele>271.20001220703</ele>
        <time>2023-05-30T08:51:55.000Z</time>
      </trkpt>
      <trkpt lat="46.42989" lon="3.81672">
        <ele>271.20001220703</ele>
        <time>2023-05-30T08:51:57.000Z</time>
      </trkpt>
      <trkpt lat="46.42971" lon="3.81706">
        <ele>272</ele>
        <time>2023-05-30T08:52:03.000Z</time>
      </trkpt>
      <trkpt lat="46.42968" lon="3.81712">
        <ele>272</ele>
        <time>2023-05-30T08:52:04.000Z</time>
      </trkpt>
      <trkpt lat="46.42964" lon="3.81717">
        <ele>272.20001220703</ele>
        <time>2023-05-30T08:52:05.000Z</time>
      </trkpt>
      <trkpt lat="46.42948" lon="3.81734">
        <ele>272.79998779297</ele>
        <time>2023-05-30T08:52:09.000Z</time>
      </trkpt>
      <trkpt lat="46.42933" lon="3.8175">
        <ele>273.20001220703</ele>
        <time>2023-05-30T08:52:13.000Z</time>
      </trkpt>
      <trkpt lat="46.42921" lon="3.8176">
        <ele>273.79998779297</ele>
        <time>2023-05-30T08:52:16.000Z</time>
      </trkpt>
      <trkpt lat="46.42917" lon="3.81764">
        <ele>273.79998779297</ele>
        <time>2023-05-30T08:52:17.000Z</time>
      </trkpt>
      <trkpt lat="46.42901" lon="3.8178">
        <ele>274.20001220703</ele>
        <time>2023-05-30T08:52:21.000Z</time>
      </trkpt>
      <trkpt lat="46.42881" lon="3.818">
        <ele>274.60000610352</ele>
        <time>2023-05-30T08:52:26.000Z</time>
      </trkpt>
      <trkpt lat="46.42869" lon="3.81813">
        <ele>275.39999389648</ele>
        <time>2023-05-30T08:52:29.000Z</time>
      </trkpt>
      <trkpt lat="46.42848" lon="3.81835">
        <ele>275.79998779297</ele>
        <time>2023-05-30T08:52:34.000Z</time>
      </trkpt>
      <trkpt lat="46.42804" lon="3.81878">
        <ele>275.60000610352</ele>
        <time>2023-05-30T08:52:44.000Z</time>
      </trkpt>
      <trkpt lat="46.42756" lon="3.81925">
        <ele>275.79998779297</ele>
        <time>2023-05-30T08:52:55.000Z</time>
      </trkpt>
      <trkpt lat="46.42723" lon="3.81953">
        <ele>276.39999389648</ele>
        <time>2023-05-30T08:53:02.000Z</time>
      </trkpt>
      <trkpt lat="46.42718" lon="3.81956">
        <ele>276.39999389648</ele>
        <time>2023-05-30T08:53:03.000Z</time>
      </trkpt>
      <trkpt lat="46.4269" lon="3.81976">
        <ele>277</ele>
        <time>2023-05-30T08:53:09.000Z</time>
      </trkpt>
      <trkpt lat="46.42676" lon="3.81985">
        <ele>277.39999389648</ele>
        <time>2023-05-30T08:53:12.000Z</time>
      </trkpt>
      <trkpt lat="46.42658" lon="3.81997">
        <ele>277.79998779297</ele>
        <time>2023-05-30T08:53:16.000Z</time>
      </trkpt>
      <trkpt lat="46.42635" lon="3.82012">
        <ele>278.39999389648</ele>
        <time>2023-05-30T08:53:21.000Z</time>
      </trkpt>
      <trkpt lat="46.42626" lon="3.82018">
        <ele>278.60000610352</ele>
        <time>2023-05-30T08:53:23.000Z</time>
      </trkpt>
      <trkpt lat="46.42617" lon="3.82024">
        <ele>278.79998779297</ele>
        <time>2023-05-30T08:53:25.000Z</time>
      </trkpt>
      <trkpt lat="46.42598" lon="3.82038">
        <ele>279.20001220703</ele>
        <time>2023-05-30T08:53:29.000Z</time>
      </trkpt>
      <trkpt lat="46.42584" lon="3.82047">
        <ele>279.60000610352</ele>
        <time>2023-05-30T08:53:32.000Z</time>
      </trkpt>
      <trkpt lat="46.42557" lon="3.82066">
        <ele>280.60000610352</ele>
        <time>2023-05-30T08:53:38.000Z</time>
      </trkpt>
      <trkpt lat="46.42553" lon="3.82069">
        <ele>280.79998779297</ele>
        <time>2023-05-30T08:53:39.000Z</time>
      </trkpt>
      <trkpt lat="46.42548" lon="3.82073">
        <ele>281.20001220703</ele>
        <time>2023-05-30T08:53:40.000Z</time>
      </trkpt>
      <trkpt lat="46.42539" lon="3.82079">
        <ele>281.60000610352</ele>
        <time>2023-05-30T08:53:42.000Z</time>
      </trkpt>
      <trkpt lat="46.42531" lon="3.82086">
        <ele>281.79998779297</ele>
        <time>2023-05-30T08:53:44.000Z</time>
      </trkpt>
      <trkpt lat="46.425" lon="3.82105">
        <ele>283</ele>
        <time>2023-05-30T08:53:51.000Z</time>
      </trkpt>
      <trkpt lat="46.42487" lon="3.82114">
        <ele>283.39999389648</ele>
        <time>2023-05-30T08:53:54.000Z</time>
      </trkpt>
      <trkpt lat="46.42475" lon="3.82123">
        <ele>284</ele>
        <time>2023-05-30T08:53:57.000Z</time>
      </trkpt>
      <trkpt lat="46.42448" lon="3.82142">
        <ele>285.20001220703</ele>
        <time>2023-05-30T08:54:03.000Z</time>
      </trkpt>
      <trkpt lat="46.42439" lon="3.82148">
        <ele>285.39999389648</ele>
        <time>2023-05-30T08:54:05.000Z</time>
      </trkpt>
      <trkpt lat="46.42421" lon="3.82159">
        <ele>286.20001220703</ele>
        <time>2023-05-30T08:54:09.000Z</time>
      </trkpt>
      <trkpt lat="46.42416" lon="3.82161">
        <ele>286.20001220703</ele>
        <time>2023-05-30T08:54:10.000Z</time>
      </trkpt>
      <trkpt lat="46.42401" lon="3.82169">
        <ele>286.39999389648</ele>
        <time>2023-05-30T08:54:13.000Z</time>
      </trkpt>
      <trkpt lat="46.42392" lon="3.82174">
        <ele>286.39999389648</ele>
        <time>2023-05-30T08:54:15.000Z</time>
      </trkpt>
      <trkpt lat="46.42383" lon="3.82177">
        <ele>286.60000610352</ele>
        <time>2023-05-30T08:54:17.000Z</time>
      </trkpt>
      <trkpt lat="46.42377" lon="3.8218">
        <ele>286.79998779297</ele>
        <time>2023-05-30T08:54:18.000Z</time>
      </trkpt>
      <trkpt lat="46.42332" lon="3.82198">
        <ele>287</ele>
        <time>2023-05-30T08:54:27.000Z</time>
      </trkpt>
      <trkpt lat="46.42288" lon="3.82214">
        <ele>287.20001220703</ele>
        <time>2023-05-30T08:54:35.000Z</time>
      </trkpt>
      <trkpt lat="46.42233" lon="3.82232">
        <ele>286.60000610352</ele>
        <time>2023-05-30T08:54:45.000Z</time>
      </trkpt>
      <trkpt lat="46.42175" lon="3.82252">
        <ele>286</ele>
        <time>2023-05-30T08:54:55.000Z</time>
      </trkpt>
      <trkpt lat="46.42119" lon="3.82272">
        <ele>285.79998779297</ele>
        <time>2023-05-30T08:55:04.000Z</time>
      </trkpt>
      <trkpt lat="46.421" lon="3.82279">
        <ele>285.60000610352</ele>
        <time>2023-05-30T08:55:07.000Z</time>
      </trkpt>
      <trkpt lat="46.42064" lon="3.82291">
        <ele>285.20001220703</ele>
        <time>2023-05-30T08:55:13.000Z</time>
      </trkpt>
      <trkpt lat="46.42057" lon="3.82294">
        <ele>285</ele>
        <time>2023-05-30T08:55:14.000Z</time>
      </trkpt>
      <trkpt lat="46.42015" lon="3.82304">
        <ele>284.79998779297</ele>
        <time>2023-05-30T08:55:21.000Z</time>
      </trkpt>
      <trkpt lat="46.41975" lon="3.823">
        <ele>284.79998779297</ele>
        <time>2023-05-30T08:55:28.000Z</time>
      </trkpt>
      <trkpt lat="46.41946" lon="3.82287">
        <ele>285.60000610352</ele>
        <time>2023-05-30T08:55:34.000Z</time>
      </trkpt>
      <trkpt lat="46.41912" lon="3.8227">
        <ele>286.20001220703</ele>
        <time>2023-05-30T08:55:41.000Z</time>
      </trkpt>
      <trkpt lat="46.41904" lon="3.82267">
        <ele>286.39999389648</ele>
        <time>2023-05-30T08:55:43.000Z</time>
      </trkpt>
      <trkpt lat="46.41883" lon="3.82255">
        <ele>286.60000610352</ele>
        <time>2023-05-30T08:55:49.000Z</time>
      </trkpt>
      <trkpt lat="46.41857" lon="3.82243">
        <ele>287</ele>
        <time>2023-05-30T08:55:55.000Z</time>
      </trkpt>
      <trkpt lat="46.41814" lon="3.8223">
        <ele>286.79998779297</ele>
        <time>2023-05-30T08:56:03.000Z</time>
      </trkpt>
      <trkpt lat="46.4176" lon="3.82215">
        <ele>286.79998779297</ele>
        <time>2023-05-30T08:56:12.000Z</time>
      </trkpt>
      <trkpt lat="46.41707" lon="3.82201">
        <ele>286.79998779297</ele>
        <time>2023-05-30T08:56:21.000Z</time>
      </trkpt>
      <trkpt lat="46.41669" lon="3.82191">
        <ele>287</ele>
        <time>2023-05-30T08:56:28.000Z</time>
      </trkpt>
      <trkpt lat="46.41642" lon="3.82183">
        <ele>287.20001220703</ele>
        <time>2023-05-30T08:56:33.000Z</time>
      </trkpt>
      <trkpt lat="46.41636" lon="3.82182">
        <ele>287.39999389648</ele>
        <time>2023-05-30T08:56:34.000Z</time>
      </trkpt>
      <trkpt lat="46.41587" lon="3.82169">
        <ele>288</ele>
        <time>2023-05-30T08:56:43.000Z</time>
      </trkpt>
      <trkpt lat="46.4157" lon="3.82164">
        <ele>288.39999389648</ele>
        <time>2023-05-30T08:56:46.000Z</time>
      </trkpt>
      <trkpt lat="46.41528" lon="3.82152">
        <ele>289</ele>
        <time>2023-05-30T08:56:54.000Z</time>
      </trkpt>
      <trkpt lat="46.41497" lon="3.82143">
        <ele>289.60000610352</ele>
        <time>2023-05-30T08:57:00.000Z</time>
      </trkpt>
      <trkpt lat="46.41483" lon="3.82139">
        <ele>289.79998779297</ele>
        <time>2023-05-30T08:57:03.000Z</time>
      </trkpt>
      <trkpt lat="46.41438" lon="3.82131">
        <ele>290.39999389648</ele>
        <time>2023-05-30T08:57:12.000Z</time>
      </trkpt>
      <trkpt lat="46.41432" lon="3.82131">
        <ele>290.60000610352</ele>
        <time>2023-05-30T08:57:13.000Z</time>
      </trkpt>
      <trkpt lat="46.41389" lon="3.82129">
        <ele>291</ele>
        <time>2023-05-30T08:57:21.000Z</time>
      </trkpt>
      <trkpt lat="46.41351" lon="3.82125">
        <ele>291.20001220703</ele>
        <time>2023-05-30T08:57:28.000Z</time>
      </trkpt>
      <trkpt lat="46.41318" lon="3.82113">
        <ele>291.20001220703</ele>
        <time>2023-05-30T08:57:34.000Z</time>
      </trkpt>
      <trkpt lat="46.41269" lon="3.8209">
        <ele>291.60000610352</ele>
        <time>2023-05-30T08:57:43.000Z</time>
      </trkpt>
      <trkpt lat="46.41211" lon="3.82062">
        <ele>290.79998779297</ele>
        <time>2023-05-30T08:57:53.000Z</time>
      </trkpt>
      <trkpt lat="46.41165" lon="3.82041">
        <ele>290.39999389648</ele>
        <time>2023-05-30T08:58:01.000Z</time>
      </trkpt>
      <trkpt lat="46.41142" lon="3.82031">
        <ele>290.79998779297</ele>
        <time>2023-05-30T08:58:05.000Z</time>
      </trkpt>
      <trkpt lat="46.41129" lon="3.82027">
        <ele>290.79998779297</ele>
        <time>2023-05-30T08:58:07.000Z</time>
      </trkpt>
      <trkpt lat="46.41102" lon="3.82019">
        <ele>291.60000610352</ele>
        <time>2023-05-30T08:58:13.000Z</time>
      </trkpt>
      <trkpt lat="46.41099" lon="3.8202">
        <ele>291.79998779297</ele>
        <time>2023-05-30T08:58:14.000Z</time>
      </trkpt>
      <trkpt lat="46.41095" lon="3.82022">
        <ele>291.79998779297</ele>
        <time>2023-05-30T08:58:16.000Z</time>
      </trkpt>
      <trkpt lat="46.41095" lon="3.82023">
        <ele>292</ele>
        <time>2023-05-30T08:58:19.000Z</time>
      </trkpt>
      <trkpt lat="46.41082" lon="3.82017">
        <ele>291.20001220703</ele>
        <time>2023-05-30T09:13:51.000Z</time>
      </trkpt>
      <trkpt lat="46.41058" lon="3.82009">
        <ele>291</ele>
        <time>2023-05-30T09:13:58.000Z</time>
      </trkpt>
      <trkpt lat="46.41027" lon="3.82">
        <ele>291.60000610352</ele>
        <time>2023-05-30T09:14:06.000Z</time>
      </trkpt>
      <trkpt lat="46.41004" lon="3.8199">
        <ele>292.20001220703</ele>
        <time>2023-05-30T09:14:12.000Z</time>
      </trkpt>
      <trkpt lat="46.40984" lon="3.81991">
        <ele>292.60000610352</ele>
        <time>2023-05-30T09:14:16.000Z</time>
      </trkpt>
      <trkpt lat="46.40977" lon="3.81991">
        <ele>293</ele>
        <time>2023-05-30T09:14:18.000Z</time>
      </trkpt>
      <trkpt lat="46.40977" lon="3.81991">
        <ele>293.20001220703</ele>
        <time>2023-05-30T09:14:19.000Z</time>
      </trkpt>
      <trkpt lat="46.40943" lon="3.81992">
        <ele>293.79998779297</ele>
        <time>2023-05-30T09:14:25.000Z</time>
      </trkpt>
      <trkpt lat="46.40926" lon="3.81996">
        <ele>294</ele>
        <time>2023-05-30T09:14:28.000Z</time>
      </trkpt>
      <trkpt lat="46.40915" lon="3.81997">
        <ele>294.20001220703</ele>
        <time>2023-05-30T09:14:30.000Z</time>
      </trkpt>
      <trkpt lat="46.4089" lon="3.82002">
        <ele>294.20001220703</ele>
        <time>2023-05-30T09:14:35.000Z</time>
      </trkpt>
      <trkpt lat="46.40877" lon="3.82006">
        <ele>294.20001220703</ele>
        <time>2023-05-30T09:14:37.000Z</time>
      </trkpt>
      <trkpt lat="46.40825" lon="3.82025">
        <ele>294.39999389648</ele>
        <time>2023-05-30T09:14:47.000Z</time>
      </trkpt>
      <trkpt lat="46.40776" lon="3.82045">
        <ele>294.20001220703</ele>
        <time>2023-05-30T09:14:56.000Z</time>
      </trkpt>
      <trkpt lat="46.40735" lon="3.82071">
        <ele>294.39999389648</ele>
        <time>2023-05-30T09:15:04.000Z</time>
      </trkpt>
      <trkpt lat="46.40697" lon="3.82096">
        <ele>294.39999389648</ele>
        <time>2023-05-30T09:15:12.000Z</time>
      </trkpt>
      <trkpt lat="46.40645" lon="3.82132">
        <ele>294.39999389648</ele>
        <time>2023-05-30T09:15:22.000Z</time>
      </trkpt>
      <trkpt lat="46.40615" lon="3.82153">
        <ele>293.79998779297</ele>
        <time>2023-05-30T09:15:27.000Z</time>
      </trkpt>
      <trkpt lat="46.4059" lon="3.8217">
        <ele>292.79998779297</ele>
        <time>2023-05-30T09:15:31.000Z</time>
      </trkpt>
      <trkpt lat="46.4055" lon="3.82198">
        <ele>291.60000610352</ele>
        <time>2023-05-30T09:15:37.000Z</time>
      </trkpt>
      <trkpt lat="46.40531" lon="3.82212">
        <ele>291.20001220703</ele>
        <time>2023-05-30T09:15:40.000Z</time>
      </trkpt>
      <trkpt lat="46.40516" lon="3.82222">
        <ele>290.39999389648</ele>
        <time>2023-05-30T09:15:43.000Z</time>
      </trkpt>
      <trkpt lat="46.40478" lon="3.82246">
        <ele>289.39999389648</ele>
        <time>2023-05-30T09:15:48.000Z</time>
      </trkpt>
      <trkpt lat="46.40472" lon="3.8225">
        <ele>289.20001220703</ele>
        <time>2023-05-30T09:15:49.000Z</time>
      </trkpt>
      <trkpt lat="46.40432" lon="3.8227">
        <ele>289</ele>
        <time>2023-05-30T09:15:56.000Z</time>
      </trkpt>
      <trkpt lat="46.40383" lon="3.82288">
        <ele>289</ele>
        <time>2023-05-30T09:16:05.000Z</time>
      </trkpt>
      <trkpt lat="46.40344" lon="3.82301">
        <ele>289.60000610352</ele>
        <time>2023-05-30T09:16:12.000Z</time>
      </trkpt>
      <trkpt lat="46.40307" lon="3.82313">
        <ele>290.20001220703</ele>
        <time>2023-05-30T09:16:20.000Z</time>
      </trkpt>
      <trkpt lat="46.40307" lon="3.82313">
        <ele>290.60000610352</ele>
        <time>2023-05-30T09:16:21.000Z</time>
      </trkpt>
      <trkpt lat="46.40281" lon="3.82321">
        <ele>291.60000610352</ele>
        <time>2023-05-30T09:16:26.000Z</time>
      </trkpt>
      <trkpt lat="46.40273" lon="3.82324">
        <ele>292</ele>
        <time>2023-05-30T09:16:28.000Z</time>
      </trkpt>
      <trkpt lat="46.40262" lon="3.82327">
        <ele>292.79998779297</ele>
        <time>2023-05-30T09:16:31.000Z</time>
      </trkpt>
      <trkpt lat="46.40245" lon="3.82332">
        <ele>293.39999389648</ele>
        <time>2023-05-30T09:16:35.000Z</time>
      </trkpt>
      <trkpt lat="46.40242" lon="3.82334">
        <ele>293.79998779297</ele>
        <time>2023-05-30T09:16:37.000Z</time>
      </trkpt>
      <trkpt lat="46.4023" lon="3.82337">
        <ele>294.60000610352</ele>
        <time>2023-05-30T09:16:40.000Z</time>
      </trkpt>
      <trkpt lat="46.40218" lon="3.82341">
        <ele>295</ele>
        <time>2023-05-30T09:16:42.000Z</time>
      </trkpt>
      <trkpt lat="46.40207" lon="3.82345">
        <ele>295.79998779297</ele>
        <time>2023-05-30T09:16:45.000Z</time>
      </trkpt>
      <trkpt lat="46.40199" lon="3.82348">
        <ele>296.20001220703</ele>
        <time>2023-05-30T09:16:47.000Z</time>
      </trkpt>
      <trkpt lat="46.40184" lon="3.82353">
        <ele>297.39999389648</ele>
        <time>2023-05-30T09:16:52.000Z</time>
      </trkpt>
      <trkpt lat="46.40173" lon="3.82356">
        <ele>297.60000610352</ele>
        <time>2023-05-30T09:16:54.000Z</time>
      </trkpt>
      <trkpt lat="46.40158" lon="3.82362">
        <ele>298.39999389648</ele>
        <time>2023-05-30T09:16:59.000Z</time>
      </trkpt>
      <trkpt lat="46.40139" lon="3.82368">
        <ele>299</ele>
        <time>2023-05-30T09:17:03.000Z</time>
      </trkpt>
      <trkpt lat="46.40127" lon="3.82372">
        <ele>299.39999389648</ele>
        <time>2023-05-30T09:17:06.000Z</time>
      </trkpt>
      <trkpt lat="46.40109" lon="3.82382">
        <ele>300</ele>
        <time>2023-05-30T09:17:11.000Z</time>
      </trkpt>
      <trkpt lat="46.40097" lon="3.82391">
        <ele>300.60000610352</ele>
        <time>2023-05-30T09:17:14.000Z</time>
      </trkpt>
      <trkpt lat="46.40076" lon="3.82409">
        <ele>301.20001220703</ele>
        <time>2023-05-30T09:17:19.000Z</time>
      </trkpt>
      <trkpt lat="46.40072" lon="3.82414">
        <ele>301.20001220703</ele>
        <time>2023-05-30T09:17:20.000Z</time>
      </trkpt>
      <trkpt lat="46.40064" lon="3.82424">
        <ele>301.39999389648</ele>
        <time>2023-05-30T09:17:22.000Z</time>
      </trkpt>
      <trkpt lat="46.40054" lon="3.82439">
        <ele>301.60000610352</ele>
        <time>2023-05-30T09:17:25.000Z</time>
      </trkpt>
      <trkpt lat="46.4005" lon="3.82444">
        <ele>301.60000610352</ele>
        <time>2023-05-30T09:17:26.000Z</time>
      </trkpt>
      <trkpt lat="46.40016" lon="3.82498">
        <ele>302.39999389648</ele>
        <time>2023-05-30T09:17:36.000Z</time>
      </trkpt>
      <trkpt lat="46.39977" lon="3.82557">
        <ele>302.39999389648</ele>
        <time>2023-05-30T09:17:46.000Z</time>
      </trkpt>
      <trkpt lat="46.39973" lon="3.82564">
        <ele>302.39999389648</ele>
        <time>2023-05-30T09:17:47.000Z</time>
      </trkpt>
      <trkpt lat="46.39943" lon="3.82612">
        <ele>301.20001220703</ele>
        <time>2023-05-30T09:17:55.000Z</time>
      </trkpt>
      <trkpt lat="46.39924" lon="3.82641">
        <ele>300.60000610352</ele>
        <time>2023-05-30T09:17:58.000Z</time>
      </trkpt>
      <trkpt lat="46.39915" lon="3.82656">
        <ele>300.20001220703</ele>
        <time>2023-05-30T09:18:01.000Z</time>
      </trkpt>
      <trkpt lat="46.399" lon="3.8268">
        <ele>299.39999389648</ele>
        <time>2023-05-30T09:18:04.000Z</time>
      </trkpt>
      <trkpt lat="46.39871" lon="3.82724">
        <ele>298.39999389648</ele>
        <time>2023-05-30T09:18:09.000Z</time>
      </trkpt>
      <trkpt lat="46.39857" lon="3.82744">
        <ele>298.20001220703</ele>
        <time>2023-05-30T09:18:12.000Z</time>
      </trkpt>
      <trkpt lat="46.39845" lon="3.82754">
        <ele>297.79998779297</ele>
        <time>2023-05-30T09:18:14.000Z</time>
      </trkpt>
      <trkpt lat="46.39832" lon="3.8276">
        <ele>297.39999389648</ele>
        <time>2023-05-30T09:18:16.000Z</time>
      </trkpt>
      <trkpt lat="46.3979" lon="3.82762">
        <ele>296.79998779297</ele>
        <time>2023-05-30T09:18:22.000Z</time>
      </trkpt>
      <trkpt lat="46.39758" lon="3.82762">
        <ele>296.39999389648</ele>
        <time>2023-05-30T09:18:27.000Z</time>
      </trkpt>
      <trkpt lat="46.39727" lon="3.82762">
        <ele>296.39999389648</ele>
        <time>2023-05-30T09:18:32.000Z</time>
      </trkpt>
      <trkpt lat="46.39688" lon="3.82765">
        <ele>297.39999389648</ele>
        <time>2023-05-30T09:18:39.000Z</time>
      </trkpt>
      <trkpt lat="46.39663" lon="3.82769">
        <ele>298.39999389648</ele>
        <time>2023-05-30T09:18:44.000Z</time>
      </trkpt>
      <trkpt lat="46.39658" lon="3.8277">
        <ele>298.60000610352</ele>
        <time>2023-05-30T09:18:45.000Z</time>
      </trkpt>
      <trkpt lat="46.39653" lon="3.8277">
        <ele>298.79998779297</ele>
        <time>2023-05-30T09:18:46.000Z</time>
      </trkpt>
      <trkpt lat="46.39634" lon="3.82774">
        <ele>299.60000610352</ele>
        <time>2023-05-30T09:18:50.000Z</time>
      </trkpt>
      <trkpt lat="46.39615" lon="3.82778">
        <ele>300.60000610352</ele>
        <time>2023-05-30T09:18:55.000Z</time>
      </trkpt>
      <trkpt lat="46.39605" lon="3.8278">
        <ele>300.60000610352</ele>
        <time>2023-05-30T09:18:56.000Z</time>
      </trkpt>
      <trkpt lat="46.39577" lon="3.82787">
        <ele>301.60000610352</ele>
        <time>2023-05-30T09:19:02.000Z</time>
      </trkpt>
      <trkpt lat="46.39548" lon="3.82793">
        <ele>302.60000610352</ele>
        <time>2023-05-30T09:19:08.000Z</time>
      </trkpt>
      <trkpt lat="46.39544" lon="3.82794">
        <ele>302.79998779297</ele>
        <time>2023-05-30T09:19:09.000Z</time>
      </trkpt>
      <trkpt lat="46.3951" lon="3.82803">
        <ele>303.60000610352</ele>
        <time>2023-05-30T09:19:16.000Z</time>
      </trkpt>
      <trkpt lat="46.395" lon="3.82807">
        <ele>303.79998779297</ele>
        <time>2023-05-30T09:19:18.000Z</time>
      </trkpt>
      <trkpt lat="46.39475" lon="3.82818">
        <ele>304.20001220703</ele>
        <time>2023-05-30T09:19:23.000Z</time>
      </trkpt>
      <trkpt lat="46.39465" lon="3.82822">
        <ele>304.39999389648</ele>
        <time>2023-05-30T09:19:25.000Z</time>
      </trkpt>
      <trkpt lat="46.39424" lon="3.82837">
        <ele>303.60000610352</ele>
        <time>2023-05-30T09:19:33.000Z</time>
      </trkpt>
      <trkpt lat="46.39401" lon="3.82841">
        <ele>303.39999389648</ele>
        <time>2023-05-30T09:19:37.000Z</time>
      </trkpt>
      <trkpt lat="46.39389" lon="3.8284">
        <ele>303</ele>
        <time>2023-05-30T09:19:39.000Z</time>
      </trkpt>
      <trkpt lat="46.39383" lon="3.82839">
        <ele>302.79998779297</ele>
        <time>2023-05-30T09:19:40.000Z</time>
      </trkpt>
      <trkpt lat="46.39351" lon="3.82828">
        <ele>302.20001220703</ele>
        <time>2023-05-30T09:19:46.000Z</time>
      </trkpt>
      <trkpt lat="46.39324" lon="3.82818">
        <ele>301.60000610352</ele>
        <time>2023-05-30T09:19:49.000Z</time>
      </trkpt>
      <trkpt lat="46.39284" lon="3.82803">
        <ele>300.79998779297</ele>
        <time>2023-05-30T09:19:55.000Z</time>
      </trkpt>
      <trkpt lat="46.3927" lon="3.82799">
        <ele>300.60000610352</ele>
        <time>2023-05-30T09:19:57.000Z</time>
      </trkpt>
      <trkpt lat="46.39242" lon="3.82796">
        <ele>300</ele>
        <time>2023-05-30T09:20:01.000Z</time>
      </trkpt>
      <trkpt lat="46.39234" lon="3.82796">
        <ele>299.79998779297</ele>
        <time>2023-05-30T09:20:02.000Z</time>
      </trkpt>
      <trkpt lat="46.39227" lon="3.82797">
        <ele>299.60000610352</ele>
        <time>2023-05-30T09:20:03.000Z</time>
      </trkpt>
      <trkpt lat="46.3919" lon="3.828">
        <ele>298.39999389648</ele>
        <time>2023-05-30T09:20:08.000Z</time>
      </trkpt>
      <trkpt lat="46.39167" lon="3.82802">
        <ele>298</ele>
        <time>2023-05-30T09:20:11.000Z</time>
      </trkpt>
      <trkpt lat="46.3913" lon="3.82805">
        <ele>297.20001220703</ele>
        <time>2023-05-30T09:20:16.000Z</time>
      </trkpt>
      <trkpt lat="46.39093" lon="3.82807">
        <ele>296.39999389648</ele>
        <time>2023-05-30T09:20:21.000Z</time>
      </trkpt>
      <trkpt lat="46.39072" lon="3.82805">
        <ele>296.20001220703</ele>
        <time>2023-05-30T09:20:24.000Z</time>
      </trkpt>
      <trkpt lat="46.39051" lon="3.82801">
        <ele>296</ele>
        <time>2023-05-30T09:20:27.000Z</time>
      </trkpt>
      <trkpt lat="46.38994" lon="3.82784">
        <ele>295.20001220703</ele>
        <time>2023-05-30T09:20:36.000Z</time>
      </trkpt>
      <trkpt lat="46.38986" lon="3.82782">
        <ele>295</ele>
        <time>2023-05-30T09:20:37.000Z</time>
      </trkpt>
      <trkpt lat="46.38954" lon="3.82782">
        <ele>295</ele>
        <time>2023-05-30T09:20:42.000Z</time>
      </trkpt>
      <trkpt lat="46.38909" lon="3.82788">
        <ele>295.60000610352</ele>
        <time>2023-05-30T09:20:50.000Z</time>
      </trkpt>
      <trkpt lat="46.38893" lon="3.82789">
        <ele>296</ele>
        <time>2023-05-30T09:20:53.000Z</time>
      </trkpt>
      <trkpt lat="46.38893" lon="3.82789">
        <ele>296.20001220703</ele>
        <time>2023-05-30T09:20:54.000Z</time>
      </trkpt>
      <trkpt lat="46.38883" lon="3.82789">
        <ele>296.20001220703</ele>
        <time>2023-05-30T09:20:55.000Z</time>
      </trkpt>
      <trkpt lat="46.38878" lon="3.82787">
        <ele>296.39999389648</ele>
        <time>2023-05-30T09:20:56.000Z</time>
      </trkpt>
      <trkpt lat="46.38858" lon="3.82784">
        <ele>297.20001220703</ele>
        <time>2023-05-30T09:21:00.000Z</time>
      </trkpt>
      <trkpt lat="46.38836" lon="3.82777">
        <ele>298.20001220703</ele>
        <time>2023-05-30T09:21:05.000Z</time>
      </trkpt>
      <trkpt lat="46.38832" lon="3.82776">
        <ele>298.39999389648</ele>
        <time>2023-05-30T09:21:06.000Z</time>
      </trkpt>
      <trkpt lat="46.38817" lon="3.82772">
        <ele>299.39999389648</ele>
        <time>2023-05-30T09:21:11.000Z</time>
      </trkpt>
      <trkpt lat="46.38798" lon="3.82766">
        <ele>300</ele>
        <time>2023-05-30T09:21:15.000Z</time>
      </trkpt>
      <trkpt lat="46.38791" lon="3.82763">
        <ele>300.39999389648</ele>
        <time>2023-05-30T09:21:17.000Z</time>
      </trkpt>
      <trkpt lat="46.38772" lon="3.82758">
        <ele>301.60000610352</ele>
        <time>2023-05-30T09:21:22.000Z</time>
      </trkpt>
      <trkpt lat="46.38757" lon="3.82754">
        <ele>302.79998779297</ele>
        <time>2023-05-30T09:21:26.000Z</time>
      </trkpt>
      <trkpt lat="46.38754" lon="3.82753">
        <ele>303</ele>
        <time>2023-05-30T09:21:27.000Z</time>
      </trkpt>
      <trkpt lat="46.38743" lon="3.8275">
        <ele>303.79998779297</ele>
        <time>2023-05-30T09:21:31.000Z</time>
      </trkpt>
      <trkpt lat="46.38729" lon="3.82747">
        <ele>304.60000610352</ele>
        <time>2023-05-30T09:21:34.000Z</time>
      </trkpt>
      <trkpt lat="46.38726" lon="3.82749">
        <ele>304.79998779297</ele>
        <time>2023-05-30T09:21:35.000Z</time>
      </trkpt>
      <trkpt lat="46.38724" lon="3.82753">
        <ele>305</ele>
        <time>2023-05-30T09:21:36.000Z</time>
      </trkpt>
      <trkpt lat="46.38723" lon="3.82765">
        <ele>305.60000610352</ele>
        <time>2023-05-30T09:21:38.000Z</time>
      </trkpt>
      <trkpt lat="46.38722" lon="3.82777">
        <ele>306</ele>
        <time>2023-05-30T09:21:40.000Z</time>
      </trkpt>
      <trkpt lat="46.38722" lon="3.82803">
        <ele>307.20001220703</ele>
        <time>2023-05-30T09:21:44.000Z</time>
      </trkpt>
      <trkpt lat="46.38721" lon="3.82822">
        <ele>307.39999389648</ele>
        <time>2023-05-30T09:21:47.000Z</time>
      </trkpt>
      <trkpt lat="46.3872" lon="3.82863">
        <ele>308.20001220703</ele>
        <time>2023-05-30T09:21:53.000Z</time>
      </trkpt>
      <trkpt lat="46.3872" lon="3.82871">
        <ele>308.20001220703</ele>
        <time>2023-05-30T09:21:54.000Z</time>
      </trkpt>
      <trkpt lat="46.38718" lon="3.82934">
        <ele>308.20001220703</ele>
        <time>2023-05-30T09:22:02.000Z</time>
      </trkpt>
      <trkpt lat="46.38716" lon="3.82998">
        <ele>307.79998779297</ele>
        <time>2023-05-30T09:22:10.000Z</time>
      </trkpt>
      <trkpt lat="46.38712" lon="3.83083">
        <ele>307.39999389648</ele>
        <time>2023-05-30T09:22:20.000Z</time>
      </trkpt>
      <trkpt lat="46.38711" lon="3.83119">
        <ele>307.20001220703</ele>
        <time>2023-05-30T09:22:24.000Z</time>
      </trkpt>
      <trkpt lat="46.3871" lon="3.83165">
        <ele>306.60000610352</ele>
        <time>2023-05-30T09:22:29.000Z</time>
      </trkpt>
      <trkpt lat="46.38708" lon="3.8321">
        <ele>306</ele>
        <time>2023-05-30T09:22:34.000Z</time>
      </trkpt>
      <trkpt lat="46.38707" lon="3.83229">
        <ele>305.79998779297</ele>
        <time>2023-05-30T09:22:36.000Z</time>
      </trkpt>
      <trkpt lat="46.38705" lon="3.83293">
        <ele>305.20001220703</ele>
        <time>2023-05-30T09:22:43.000Z</time>
      </trkpt>
      <trkpt lat="46.38704" lon="3.83335">
        <ele>305</ele>
        <time>2023-05-30T09:22:48.000Z</time>
      </trkpt>
      <trkpt lat="46.38703" lon="3.83351">
        <ele>305</ele>
        <time>2023-05-30T09:22:50.000Z</time>
      </trkpt>
      <trkpt lat="46.38704" lon="3.83366">
        <ele>305</ele>
        <time>2023-05-30T09:22:52.000Z</time>
      </trkpt>
      <trkpt lat="46.38703" lon="3.83382">
        <ele>305</ele>
        <time>2023-05-30T09:22:54.000Z</time>
      </trkpt>
      <trkpt lat="46.38704" lon="3.83389">
        <ele>305</ele>
        <time>2023-05-30T09:22:55.000Z</time>
      </trkpt>
      <trkpt lat="46.38705" lon="3.83403">
        <ele>305</ele>
        <time>2023-05-30T09:22:57.000Z</time>
      </trkpt>
      <trkpt lat="46.38705" lon="3.83428">
        <ele>304.79998779297</ele>
        <time>2023-05-30T09:23:00.000Z</time>
      </trkpt>
      <trkpt lat="46.38706" lon="3.83455">
        <ele>304.60000610352</ele>
        <time>2023-05-30T09:23:03.000Z</time>
      </trkpt>
      <trkpt lat="46.38709" lon="3.83475">
        <ele>304.39999389648</ele>
        <time>2023-05-30T09:23:05.000Z</time>
      </trkpt>
      <trkpt lat="46.38709" lon="3.83509">
        <ele>304</ele>
        <time>2023-05-30T09:23:09.000Z</time>
      </trkpt>
      <trkpt lat="46.3871" lon="3.83517">
        <ele>304</ele>
        <time>2023-05-30T09:23:10.000Z</time>
      </trkpt>
      <trkpt lat="46.3871" lon="3.83526">
        <ele>303.79998779297</ele>
        <time>2023-05-30T09:23:11.000Z</time>
      </trkpt>
      <trkpt lat="46.38711" lon="3.8356">
        <ele>303.39999389648</ele>
        <time>2023-05-30T09:23:15.000Z</time>
      </trkpt>
      <trkpt lat="46.38711" lon="3.8356">
        <ele>303</ele>
        <time>2023-05-30T09:23:16.000Z</time>
      </trkpt>
      <trkpt lat="46.38711" lon="3.83577">
        <ele>302.79998779297</ele>
        <time>2023-05-30T09:23:17.000Z</time>
      </trkpt>
      <trkpt lat="46.3871" lon="3.83609">
        <ele>302.60000610352</ele>
        <time>2023-05-30T09:23:20.000Z</time>
      </trkpt>
      <trkpt lat="46.38709" lon="3.83619">
        <ele>302.39999389648</ele>
        <time>2023-05-30T09:23:21.000Z</time>
      </trkpt>
      <trkpt lat="46.38716" lon="3.83681">
        <ele>301.79998779297</ele>
        <time>2023-05-30T09:23:27.000Z</time>
      </trkpt>
      <trkpt lat="46.38724" lon="3.83741">
        <ele>300.79998779297</ele>
        <time>2023-05-30T09:23:33.000Z</time>
      </trkpt>
      <trkpt lat="46.38739" lon="3.83786">
        <ele>300.20001220703</ele>
        <time>2023-05-30T09:23:38.000Z</time>
      </trkpt>
      <trkpt lat="46.38738" lon="3.83795">
        <ele>299.79998779297</ele>
        <time>2023-05-30T09:23:39.000Z</time>
      </trkpt>
      <trkpt lat="46.38738" lon="3.83834">
        <ele>299.20001220703</ele>
        <time>2023-05-30T09:23:43.000Z</time>
      </trkpt>
      <trkpt lat="46.38738" lon="3.8387">
        <ele>298.79998779297</ele>
        <time>2023-05-30T09:23:47.000Z</time>
      </trkpt>
      <trkpt lat="46.3874" lon="3.8388">
        <ele>298.60000610352</ele>
        <time>2023-05-30T09:23:48.000Z</time>
      </trkpt>
      <trkpt lat="46.38744" lon="3.83914">
        <ele>298.39999389648</ele>
        <time>2023-05-30T09:23:51.000Z</time>
      </trkpt>
      <trkpt lat="46.38746" lon="3.83925">
        <ele>298.20001220703</ele>
        <time>2023-05-30T09:23:52.000Z</time>
      </trkpt>
      <trkpt lat="46.38749" lon="3.83935">
        <ele>298</ele>
        <time>2023-05-30T09:23:53.000Z</time>
      </trkpt>
      <trkpt lat="46.38754" lon="3.83955">
        <ele>297.79998779297</ele>
        <time>2023-05-30T09:23:55.000Z</time>
      </trkpt>
      <trkpt lat="46.38757" lon="3.83965">
        <ele>297.60000610352</ele>
        <time>2023-05-30T09:23:56.000Z</time>
      </trkpt>
      <trkpt lat="46.38763" lon="3.83996">
        <ele>297</ele>
        <time>2023-05-30T09:23:59.000Z</time>
      </trkpt>
      <trkpt lat="46.38768" lon="3.84022">
        <ele>296.60000610352</ele>
        <time>2023-05-30T09:24:02.000Z</time>
      </trkpt>
      <trkpt lat="46.38771" lon="3.84033">
        <ele>296.39999389648</ele>
        <time>2023-05-30T09:24:03.000Z</time>
      </trkpt>
      <trkpt lat="46.38775" lon="3.84052">
        <ele>296</ele>
        <time>2023-05-30T09:24:05.000Z</time>
      </trkpt>
      <trkpt lat="46.38782" lon="3.84071">
        <ele>295.79998779297</ele>
        <time>2023-05-30T09:24:07.000Z</time>
      </trkpt>
      <trkpt lat="46.38788" lon="3.84089">
        <ele>295.39999389648</ele>
        <time>2023-05-30T09:24:09.000Z</time>
      </trkpt>
      <trkpt lat="46.38791" lon="3.84098">
        <ele>295.20001220703</ele>
        <time>2023-05-30T09:24:10.000Z</time>
      </trkpt>
      <trkpt lat="46.38794" lon="3.84107">
        <ele>295.20001220703</ele>
        <time>2023-05-30T09:24:11.000Z</time>
      </trkpt>
      <trkpt lat="46.38796" lon="3.84117">
        <ele>295</ele>
        <time>2023-05-30T09:24:12.000Z</time>
      </trkpt>
      <trkpt lat="46.38801" lon="3.84136">
        <ele>294.79998779297</ele>
        <time>2023-05-30T09:24:14.000Z</time>
      </trkpt>
      <trkpt lat="46.38803" lon="3.84158">
        <ele>294.20001220703</ele>
        <time>2023-05-30T09:24:16.000Z</time>
      </trkpt>
      <trkpt lat="46.38803" lon="3.84168">
        <ele>294</ele>
        <time>2023-05-30T09:24:17.000Z</time>
      </trkpt>
      <trkpt lat="46.388" lon="3.8421">
        <ele>293</ele>
        <time>2023-05-30T09:24:21.000Z</time>
      </trkpt>
      <trkpt lat="46.38797" lon="3.8424">
        <ele>292.20001220703</ele>
        <time>2023-05-30T09:24:24.000Z</time>
      </trkpt>
      <trkpt lat="46.38795" lon="3.8426">
        <ele>291.60000610352</ele>
        <time>2023-05-30T09:24:26.000Z</time>
      </trkpt>
      <trkpt lat="46.38794" lon="3.8427">
        <ele>291.60000610352</ele>
        <time>2023-05-30T09:24:27.000Z</time>
      </trkpt>
      <trkpt lat="46.38792" lon="3.8429">
        <ele>291.20001220703</ele>
        <time>2023-05-30T09:24:29.000Z</time>
      </trkpt>
      <trkpt lat="46.38791" lon="3.843">
        <ele>291.20001220703</ele>
        <time>2023-05-30T09:24:30.000Z</time>
      </trkpt>
      <trkpt lat="46.38789" lon="3.84329">
        <ele>290.39999389648</ele>
        <time>2023-05-30T09:24:33.000Z</time>
      </trkpt>
      <trkpt lat="46.38784" lon="3.84379">
        <ele>289.60000610352</ele>
        <time>2023-05-30T09:24:38.000Z</time>
      </trkpt>
      <trkpt lat="46.38783" lon="3.84389">
        <ele>289.39999389648</ele>
        <time>2023-05-30T09:24:39.000Z</time>
      </trkpt>
      <trkpt lat="46.38776" lon="3.8443">
        <ele>288.20001220703</ele>
        <time>2023-05-30T09:24:43.000Z</time>
      </trkpt>
      <trkpt lat="46.38773" lon="3.84451">
        <ele>287.60000610352</ele>
        <time>2023-05-30T09:24:45.000Z</time>
      </trkpt>
      <trkpt lat="46.38769" lon="3.84473">
        <ele>287</ele>
        <time>2023-05-30T09:24:47.000Z</time>
      </trkpt>
      <trkpt lat="46.38765" lon="3.84519">
        <ele>285.79998779297</ele>
        <time>2023-05-30T09:24:51.000Z</time>
      </trkpt>
      <trkpt lat="46.38764" lon="3.8453">
        <ele>285.79998779297</ele>
        <time>2023-05-30T09:24:52.000Z</time>
      </trkpt>
      <trkpt lat="46.38765" lon="3.84553">
        <ele>284.20001220703</ele>
        <time>2023-05-30T09:24:54.000Z</time>
      </trkpt>
      <trkpt lat="46.38765" lon="3.84588">
        <ele>283</ele>
        <time>2023-05-30T09:24:57.000Z</time>
      </trkpt>
      <trkpt lat="46.38766" lon="3.84599">
        <ele>282.79998779297</ele>
        <time>2023-05-30T09:24:58.000Z</time>
      </trkpt>
      <trkpt lat="46.38769" lon="3.84652">
        <ele>281.60000610352</ele>
        <time>2023-05-30T09:25:03.000Z</time>
      </trkpt>
      <trkpt lat="46.3877" lon="3.84673">
        <ele>281.20001220703</ele>
        <time>2023-05-30T09:25:05.000Z</time>
      </trkpt>
      <trkpt lat="46.38773" lon="3.84715">
        <ele>280.60000610352</ele>
        <time>2023-05-30T09:25:09.000Z</time>
      </trkpt>
      <trkpt lat="46.38777" lon="3.84777">
        <ele>279.39999389648</ele>
        <time>2023-05-30T09:25:15.000Z</time>
      </trkpt>
      <trkpt lat="46.38779" lon="3.84827">
        <ele>279</ele>
        <time>2023-05-30T09:25:20.000Z</time>
      </trkpt>
      <trkpt lat="46.38777" lon="3.84846">
        <ele>278.79998779297</ele>
        <time>2023-05-30T09:25:22.000Z</time>
      </trkpt>
      <trkpt lat="46.38775" lon="3.84866">
        <ele>278.39999389648</ele>
        <time>2023-05-30T09:25:24.000Z</time>
      </trkpt>
      <trkpt lat="46.38765" lon="3.84917">
        <ele>277.39999389648</ele>
        <time>2023-05-30T09:25:29.000Z</time>
      </trkpt>
      <trkpt lat="46.38764" lon="3.84927">
        <ele>277.39999389648</ele>
        <time>2023-05-30T09:25:30.000Z</time>
      </trkpt>
      <trkpt lat="46.38759" lon="3.84967">
        <ele>276.20001220703</ele>
        <time>2023-05-30T09:25:34.000Z</time>
      </trkpt>
      <trkpt lat="46.3876" lon="3.84978">
        <ele>276</ele>
        <time>2023-05-30T09:25:35.000Z</time>
      </trkpt>
      <trkpt lat="46.38762" lon="3.84988">
        <ele>275.79998779297</ele>
        <time>2023-05-30T09:25:36.000Z</time>
      </trkpt>
      <trkpt lat="46.38767" lon="3.85006">
        <ele>275.39999389648</ele>
        <time>2023-05-30T09:25:38.000Z</time>
      </trkpt>
      <trkpt lat="46.38771" lon="3.85014">
        <ele>275.20001220703</ele>
        <time>2023-05-30T09:25:39.000Z</time>
      </trkpt>
      <trkpt lat="46.38803" lon="3.85055">
        <ele>274.20001220703</ele>
        <time>2023-05-30T09:25:45.000Z</time>
      </trkpt>
      <trkpt lat="46.38808" lon="3.85062">
        <ele>274</ele>
        <time>2023-05-30T09:25:46.000Z</time>
      </trkpt>
      <trkpt lat="46.38837" lon="3.85108">
        <ele>273.20001220703</ele>
        <time>2023-05-30T09:25:52.000Z</time>
      </trkpt>
      <trkpt lat="46.3884" lon="3.85118">
        <ele>272.79998779297</ele>
        <time>2023-05-30T09:25:53.000Z</time>
      </trkpt>
      <trkpt lat="46.38843" lon="3.85128">
        <ele>272.79998779297</ele>
        <time>2023-05-30T09:25:54.000Z</time>
      </trkpt>
      <trkpt lat="46.38844" lon="3.85149">
        <ele>272.39999389648</ele>
        <time>2023-05-30T09:25:56.000Z</time>
      </trkpt>
      <trkpt lat="46.38841" lon="3.85181">
        <ele>271.60000610352</ele>
        <time>2023-05-30T09:25:59.000Z</time>
      </trkpt>
      <trkpt lat="46.38838" lon="3.85192">
        <ele>271.20001220703</ele>
        <time>2023-05-30T09:26:00.000Z</time>
      </trkpt>
      <trkpt lat="46.38834" lon="3.85212">
        <ele>270.60000610352</ele>
        <time>2023-05-30T09:26:02.000Z</time>
      </trkpt>
      <trkpt lat="46.38819" lon="3.85276">
        <ele>269.60000610352</ele>
        <time>2023-05-30T09:26:08.000Z</time>
      </trkpt>
      <trkpt lat="46.38816" lon="3.85287">
        <ele>269</ele>
        <time>2023-05-30T09:26:09.000Z</time>
      </trkpt>
      <trkpt lat="46.38811" lon="3.8531">
        <ele>268.39999389648</ele>
        <time>2023-05-30T09:26:11.000Z</time>
      </trkpt>
      <trkpt lat="46.38798" lon="3.85369">
        <ele>267</ele>
        <time>2023-05-30T09:26:16.000Z</time>
      </trkpt>
      <trkpt lat="46.38789" lon="3.85404">
        <ele>266.20001220703</ele>
        <time>2023-05-30T09:26:19.000Z</time>
      </trkpt>
      <trkpt lat="46.38787" lon="3.85416">
        <ele>265.60000610352</ele>
        <time>2023-05-30T09:26:20.000Z</time>
      </trkpt>
      <trkpt lat="46.38779" lon="3.8545">
        <ele>264.39999389648</ele>
        <time>2023-05-30T09:26:23.000Z</time>
      </trkpt>
      <trkpt lat="46.38766" lon="3.85504">
        <ele>263.39999389648</ele>
        <time>2023-05-30T09:26:28.000Z</time>
      </trkpt>
      <trkpt lat="46.38764" lon="3.85514">
        <ele>263.39999389648</ele>
        <time>2023-05-30T09:26:29.000Z</time>
      </trkpt>
      <trkpt lat="46.38752" lon="3.85568">
        <ele>263.20001220703</ele>
        <time>2023-05-30T09:26:35.000Z</time>
      </trkpt>
      <trkpt lat="46.38742" lon="3.85609">
        <ele>264.20001220703</ele>
        <time>2023-05-30T09:26:41.000Z</time>
      </trkpt>
      <trkpt lat="46.3874" lon="3.85619">
        <ele>264.60000610352</ele>
        <time>2023-05-30T09:26:43.000Z</time>
      </trkpt>
      <trkpt lat="46.38734" lon="3.8564">
        <ele>265.60000610352</ele>
        <time>2023-05-30T09:26:47.000Z</time>
      </trkpt>
      <trkpt lat="46.38734" lon="3.85645">
        <ele>265.79998779297</ele>
        <time>2023-05-30T09:26:48.000Z</time>
      </trkpt>
      <trkpt lat="46.38729" lon="3.85669">
        <ele>266.79998779297</ele>
        <time>2023-05-30T09:26:53.000Z</time>
      </trkpt>
      <trkpt lat="46.38726" lon="3.85684">
        <ele>267.39999389648</ele>
        <time>2023-05-30T09:26:56.000Z</time>
      </trkpt>
      <trkpt lat="46.38724" lon="3.85694">
        <ele>267.79998779297</ele>
        <time>2023-05-30T09:26:58.000Z</time>
      </trkpt>
      <trkpt lat="46.38718" lon="3.85716">
        <ele>269</ele>
        <time>2023-05-30T09:27:03.000Z</time>
      </trkpt>
      <trkpt lat="46.38714" lon="3.8573">
        <ele>269.20001220703</ele>
        <time>2023-05-30T09:27:06.000Z</time>
      </trkpt>
      <trkpt lat="46.38711" lon="3.85739">
        <ele>270</ele>
        <time>2023-05-30T09:27:08.000Z</time>
      </trkpt>
      <trkpt lat="46.38704" lon="3.85767">
        <ele>271</ele>
        <time>2023-05-30T09:27:14.000Z</time>
      </trkpt>
      <trkpt lat="46.38702" lon="3.85776">
        <ele>271.60000610352</ele>
        <time>2023-05-30T09:27:16.000Z</time>
      </trkpt>
      <trkpt lat="46.387" lon="3.8579">
        <ele>272.39999389648</ele>
        <time>2023-05-30T09:27:19.000Z</time>
      </trkpt>
      <trkpt lat="46.38695" lon="3.85813">
        <ele>273.39999389648</ele>
        <time>2023-05-30T09:27:24.000Z</time>
      </trkpt>
      <trkpt lat="46.38692" lon="3.85827">
        <ele>274</ele>
        <time>2023-05-30T09:27:27.000Z</time>
      </trkpt>
      <trkpt lat="46.38689" lon="3.85847">
        <ele>274.79998779297</ele>
        <time>2023-05-30T09:27:31.000Z</time>
      </trkpt>
      <trkpt lat="46.38683" lon="3.85872">
        <ele>276</ele>
        <time>2023-05-30T09:27:36.000Z</time>
      </trkpt>
      <trkpt lat="46.3868" lon="3.85881">
        <ele>276.39999389648</ele>
        <time>2023-05-30T09:27:38.000Z</time>
      </trkpt>
      <trkpt lat="46.38675" lon="3.859">
        <ele>277.20001220703</ele>
        <time>2023-05-30T09:27:42.000Z</time>
      </trkpt>
      <trkpt lat="46.38672" lon="3.85909">
        <ele>277.79998779297</ele>
        <time>2023-05-30T09:27:44.000Z</time>
      </trkpt>
      <trkpt lat="46.38669" lon="3.85923">
        <ele>278.60000610352</ele>
        <time>2023-05-30T09:27:47.000Z</time>
      </trkpt>
      <trkpt lat="46.38663" lon="3.85951">
        <ele>279.79998779297</ele>
        <time>2023-05-30T09:27:52.000Z</time>
      </trkpt>
      <trkpt lat="46.38651" lon="3.85981">
        <ele>281</ele>
        <time>2023-05-30T09:27:58.000Z</time>
      </trkpt>
      <trkpt lat="46.38646" lon="3.8599">
        <ele>281.60000610352</ele>
        <time>2023-05-30T09:28:00.000Z</time>
      </trkpt>
      <trkpt lat="46.38622" lon="3.86026">
        <ele>281.79998779297</ele>
        <time>2023-05-30T09:28:07.000Z</time>
      </trkpt>
      <trkpt lat="46.38613" lon="3.86044">
        <ele>281.79998779297</ele>
        <time>2023-05-30T09:28:10.000Z</time>
      </trkpt>
      <trkpt lat="46.38608" lon="3.86057">
        <ele>281.79998779297</ele>
        <time>2023-05-30T09:28:12.000Z</time>
      </trkpt>
      <trkpt lat="46.38606" lon="3.86064">
        <ele>282</ele>
        <time>2023-05-30T09:28:13.000Z</time>
      </trkpt>
      <trkpt lat="46.38592" lon="3.86119">
        <ele>282</ele>
        <time>2023-05-30T09:28:21.000Z</time>
      </trkpt>
      <trkpt lat="46.38589" lon="3.86167">
        <ele>282.20001220703</ele>
        <time>2023-05-30T09:28:28.000Z</time>
      </trkpt>
      <trkpt lat="46.38588" lon="3.86174">
        <ele>282.39999389648</ele>
        <time>2023-05-30T09:28:29.000Z</time>
      </trkpt>
      <trkpt lat="46.3858" lon="3.86192">
        <ele>282.60000610352</ele>
        <time>2023-05-30T09:28:32.000Z</time>
      </trkpt>
      <trkpt lat="46.38557" lon="3.86228">
        <ele>282.20001220703</ele>
        <time>2023-05-30T09:28:38.000Z</time>
      </trkpt>
      <trkpt lat="46.38522" lon="3.8628">
        <ele>281.20001220703</ele>
        <time>2023-05-30T09:28:46.000Z</time>
      </trkpt>
      <trkpt lat="46.38513" lon="3.86295">
        <ele>280.79998779297</ele>
        <time>2023-05-30T09:28:48.000Z</time>
      </trkpt>
      <trkpt lat="46.38503" lon="3.86309">
        <ele>280.20001220703</ele>
        <time>2023-05-30T09:28:50.000Z</time>
      </trkpt>
      <trkpt lat="46.38484" lon="3.86339">
        <ele>279.60000610352</ele>
        <time>2023-05-30T09:28:54.000Z</time>
      </trkpt>
      <trkpt lat="46.38478" lon="3.86346">
        <ele>279.39999389648</ele>
        <time>2023-05-30T09:28:55.000Z</time>
      </trkpt>
      <trkpt lat="46.38438" lon="3.86405">
        <ele>278.60000610352</ele>
        <time>2023-05-30T09:29:03.000Z</time>
      </trkpt>
      <trkpt lat="46.38434" lon="3.86412">
        <ele>278.39999389648</ele>
        <time>2023-05-30T09:29:04.000Z</time>
      </trkpt>
      <trkpt lat="46.38395" lon="3.86468">
        <ele>278</ele>
        <time>2023-05-30T09:29:12.000Z</time>
      </trkpt>
      <trkpt lat="46.38353" lon="3.8651">
        <ele>277.60000610352</ele>
        <time>2023-05-30T09:29:20.000Z</time>
      </trkpt>
      <trkpt lat="46.3832" lon="3.8654">
        <ele>278.39999389648</ele>
        <time>2023-05-30T09:29:27.000Z</time>
      </trkpt>
      <trkpt lat="46.38312" lon="3.86548">
        <ele>278.79998779297</ele>
        <time>2023-05-30T09:29:29.000Z</time>
      </trkpt>
      <trkpt lat="46.38295" lon="3.86563">
        <ele>279.39999389648</ele>
        <time>2023-05-30T09:29:33.000Z</time>
      </trkpt>
      <trkpt lat="46.38286" lon="3.86571">
        <ele>279.60000610352</ele>
        <time>2023-05-30T09:29:35.000Z</time>
      </trkpt>
      <trkpt lat="46.38257" lon="3.86597">
        <ele>280.39999389648</ele>
        <time>2023-05-30T09:29:42.000Z</time>
      </trkpt>
      <trkpt lat="46.38248" lon="3.86605">
        <ele>281</ele>
        <time>2023-05-30T09:29:44.000Z</time>
      </trkpt>
      <trkpt lat="46.38222" lon="3.8663">
        <ele>282</ele>
        <time>2023-05-30T09:29:51.000Z</time>
      </trkpt>
      <trkpt lat="46.38218" lon="3.86635">
        <ele>282.20001220703</ele>
        <time>2023-05-30T09:29:52.000Z</time>
      </trkpt>
      <trkpt lat="46.38214" lon="3.86639">
        <ele>282.39999389648</ele>
        <time>2023-05-30T09:29:53.000Z</time>
      </trkpt>
      <trkpt lat="46.38198" lon="3.86652">
        <ele>283.39999389648</ele>
        <time>2023-05-30T09:29:57.000Z</time>
      </trkpt>
      <trkpt lat="46.3819" lon="3.86659">
        <ele>283.79998779297</ele>
        <time>2023-05-30T09:29:59.000Z</time>
      </trkpt>
      <trkpt lat="46.38174" lon="3.86672">
        <ele>284.39999389648</ele>
        <time>2023-05-30T09:30:03.000Z</time>
      </trkpt>
      <trkpt lat="46.38155" lon="3.86688">
        <ele>285</ele>
        <time>2023-05-30T09:30:08.000Z</time>
      </trkpt>
      <trkpt lat="46.38143" lon="3.86698">
        <ele>285.39999389648</ele>
        <time>2023-05-30T09:30:11.000Z</time>
      </trkpt>
      <trkpt lat="46.38125" lon="3.86715">
        <ele>286</ele>
        <time>2023-05-30T09:30:16.000Z</time>
      </trkpt>
      <trkpt lat="46.3811" lon="3.86729">
        <ele>286.60000610352</ele>
        <time>2023-05-30T09:30:20.000Z</time>
      </trkpt>
      <trkpt lat="46.38085" lon="3.86751">
        <ele>287.60000610352</ele>
        <time>2023-05-30T09:30:27.000Z</time>
      </trkpt>
      <trkpt lat="46.38081" lon="3.86754">
        <ele>287.79998779297</ele>
        <time>2023-05-30T09:30:28.000Z</time>
      </trkpt>
      <trkpt lat="46.38058" lon="3.86774">
        <ele>288.79998779297</ele>
        <time>2023-05-30T09:30:34.000Z</time>
      </trkpt>
      <trkpt lat="46.3805" lon="3.8678">
        <ele>289</ele>
        <time>2023-05-30T09:30:36.000Z</time>
      </trkpt>
      <trkpt lat="46.38022" lon="3.86797">
        <ele>289.79998779297</ele>
        <time>2023-05-30T09:30:43.000Z</time>
      </trkpt>
      <trkpt lat="46.38017" lon="3.86799">
        <ele>290.20001220703</ele>
        <time>2023-05-30T09:30:44.000Z</time>
      </trkpt>
      <trkpt lat="46.38004" lon="3.86803">
        <ele>290.79998779297</ele>
        <time>2023-05-30T09:30:47.000Z</time>
      </trkpt>
      <trkpt lat="46.37978" lon="3.8681">
        <ele>291.39999389648</ele>
        <time>2023-05-30T09:30:53.000Z</time>
      </trkpt>
      <trkpt lat="46.37973" lon="3.86811">
        <ele>291.60000610352</ele>
        <time>2023-05-30T09:30:54.000Z</time>
      </trkpt>
      <trkpt lat="46.3795" lon="3.86817">
        <ele>291.79998779297</ele>
        <time>2023-05-30T09:30:59.000Z</time>
      </trkpt>
      <trkpt lat="46.37922" lon="3.86825">
        <ele>292.79998779297</ele>
        <time>2023-05-30T09:31:05.000Z</time>
      </trkpt>
      <trkpt lat="46.37918" lon="3.86827">
        <ele>292.79998779297</ele>
        <time>2023-05-30T09:31:06.000Z</time>
      </trkpt>
      <trkpt lat="46.37867" lon="3.8684">
        <ele>294</ele>
        <time>2023-05-30T09:31:17.000Z</time>
      </trkpt>
      <trkpt lat="46.37838" lon="3.86845">
        <ele>295</ele>
        <time>2023-05-30T09:31:23.000Z</time>
      </trkpt>
      <trkpt lat="46.37833" lon="3.86844">
        <ele>295</ele>
        <time>2023-05-30T09:31:24.000Z</time>
      </trkpt>
      <trkpt lat="46.37824" lon="3.86839">
        <ele>295.39999389648</ele>
        <time>2023-05-30T09:31:26.000Z</time>
      </trkpt>
      <trkpt lat="46.37814" lon="3.8683">
        <ele>295.60000610352</ele>
        <time>2023-05-30T09:31:29.000Z</time>
      </trkpt>
      <trkpt lat="46.3781" lon="3.86826">
        <ele>295.60000610352</ele>
        <time>2023-05-30T09:31:32.000Z</time>
      </trkpt>
      <trkpt lat="46.3781" lon="3.86826">
        <ele>295.79998779297</ele>
        <time>2023-05-30T09:31:34.000Z</time>
      </trkpt>
      <trkpt lat="46.37808" lon="3.86825">
        <ele>296.20001220703</ele>
        <time>2023-05-30T09:32:07.000Z</time>
      </trkpt>
      <trkpt lat="46.37807" lon="3.86824">
        <ele>296.20001220703</ele>
        <time>2023-05-30T09:32:08.000Z</time>
      </trkpt>
      <trkpt lat="46.37793" lon="3.86812">
        <ele>296.20001220703</ele>
        <time>2023-05-30T09:32:13.000Z</time>
      </trkpt>
      <trkpt lat="46.37771" lon="3.86796">
        <ele>296.20001220703</ele>
        <time>2023-05-30T09:32:18.000Z</time>
      </trkpt>
      <trkpt lat="46.37738" lon="3.86768">
        <ele>296.20001220703</ele>
        <time>2023-05-30T09:32:25.000Z</time>
      </trkpt>
      <trkpt lat="46.37696" lon="3.86733">
        <ele>297</ele>
        <time>2023-05-30T09:32:34.000Z</time>
      </trkpt>
      <trkpt lat="46.37682" lon="3.8672">
        <ele>297.20001220703</ele>
        <time>2023-05-30T09:32:37.000Z</time>
      </trkpt>
      <trkpt lat="46.37654" lon="3.86696">
        <ele>297.60000610352</ele>
        <time>2023-05-30T09:32:43.000Z</time>
      </trkpt>
      <trkpt lat="46.37605" lon="3.86655">
        <ele>298.20001220703</ele>
        <time>2023-05-30T09:32:53.000Z</time>
      </trkpt>
      <trkpt lat="46.376" lon="3.86651">
        <ele>298.39999389648</ele>
        <time>2023-05-30T09:32:54.000Z</time>
      </trkpt>
      <trkpt lat="46.37562" lon="3.8662">
        <ele>299</ele>
        <time>2023-05-30T09:33:02.000Z</time>
      </trkpt>
      <trkpt lat="46.37548" lon="3.86608">
        <ele>299.39999389648</ele>
        <time>2023-05-30T09:33:05.000Z</time>
      </trkpt>
      <trkpt lat="46.3753" lon="3.86594">
        <ele>299.79998779297</ele>
        <time>2023-05-30T09:33:09.000Z</time>
      </trkpt>
      <trkpt lat="46.37501" lon="3.86561">
        <ele>300.60000610352</ele>
        <time>2023-05-30T09:33:16.000Z</time>
      </trkpt>
      <trkpt lat="46.37497" lon="3.86556">
        <ele>300.79998779297</ele>
        <time>2023-05-30T09:33:17.000Z</time>
      </trkpt>
      <trkpt lat="46.37472" lon="3.86521">
        <ele>301.39999389648</ele>
        <time>2023-05-30T09:33:24.000Z</time>
      </trkpt>
      <trkpt lat="46.37467" lon="3.86519">
        <ele>301.60000610352</ele>
        <time>2023-05-30T09:33:25.000Z</time>
      </trkpt>
      <trkpt lat="46.37463" lon="3.86519">
        <ele>301.60000610352</ele>
        <time>2023-05-30T09:33:26.000Z</time>
      </trkpt>
      <trkpt lat="46.37456" lon="3.86523">
        <ele>301.60000610352</ele>
        <time>2023-05-30T09:33:28.000Z</time>
      </trkpt>
      <trkpt lat="46.37451" lon="3.86525">
        <ele>301.79998779297</ele>
        <time>2023-05-30T09:33:32.000Z</time>
      </trkpt>
      <trkpt lat="46.37446" lon="3.86525">
        <ele>302.39999389648</ele>
        <time>2023-05-30T09:33:46.000Z</time>
      </trkpt>
      <trkpt lat="46.37441" lon="3.86528">
        <ele>302.39999389648</ele>
        <time>2023-05-30T09:33:48.000Z</time>
      </trkpt>
      <trkpt lat="46.3743" lon="3.8654">
        <ele>303</ele>
        <time>2023-05-30T09:33:52.000Z</time>
      </trkpt>
      <trkpt lat="46.37427" lon="3.86543">
        <ele>303</ele>
        <time>2023-05-30T09:33:53.000Z</time>
      </trkpt>
      <trkpt lat="46.37396" lon="3.86569">
        <ele>303.79998779297</ele>
        <time>2023-05-30T09:34:01.000Z</time>
      </trkpt>
      <trkpt lat="46.37392" lon="3.86572">
        <ele>304</ele>
        <time>2023-05-30T09:34:02.000Z</time>
      </trkpt>
      <trkpt lat="46.37364" lon="3.86594">
        <ele>305</ele>
        <time>2023-05-30T09:34:08.000Z</time>
      </trkpt>
      <trkpt lat="46.3736" lon="3.86598">
        <ele>305</ele>
        <time>2023-05-30T09:34:09.000Z</time>
      </trkpt>
      <trkpt lat="46.37333" lon="3.86619">
        <ele>306.20001220703</ele>
        <time>2023-05-30T09:34:15.000Z</time>
      </trkpt>
      <trkpt lat="46.37315" lon="3.86632">
        <ele>306.60000610352</ele>
        <time>2023-05-30T09:34:19.000Z</time>
      </trkpt>
      <trkpt lat="46.37296" lon="3.86644">
        <ele>307.20001220703</ele>
        <time>2023-05-30T09:34:23.000Z</time>
      </trkpt>
      <trkpt lat="46.37274" lon="3.86655">
        <ele>307.20001220703</ele>
        <time>2023-05-30T09:34:27.000Z</time>
      </trkpt>
      <trkpt lat="46.37226" lon="3.86681">
        <ele>306.79998779297</ele>
        <time>2023-05-30T09:34:35.000Z</time>
      </trkpt>
      <trkpt lat="46.37196" lon="3.86703">
        <ele>306</ele>
        <time>2023-05-30T09:34:40.000Z</time>
      </trkpt>
      <trkpt lat="46.3719" lon="3.86709">
        <ele>305.60000610352</ele>
        <time>2023-05-30T09:34:41.000Z</time>
      </trkpt>
      <trkpt lat="46.37164" lon="3.86738">
        <ele>304.79998779297</ele>
        <time>2023-05-30T09:34:45.000Z</time>
      </trkpt>
      <trkpt lat="46.37157" lon="3.86746">
        <ele>304.60000610352</ele>
        <time>2023-05-30T09:34:46.000Z</time>
      </trkpt>
      <trkpt lat="46.37137" lon="3.86768">
        <ele>303.39999389648</ele>
        <time>2023-05-30T09:34:49.000Z</time>
      </trkpt>
      <trkpt lat="46.37118" lon="3.86791">
        <ele>302.39999389648</ele>
        <time>2023-05-30T09:34:52.000Z</time>
      </trkpt>
      <trkpt lat="46.37105" lon="3.86807">
        <ele>301.39999389648</ele>
        <time>2023-05-30T09:34:54.000Z</time>
      </trkpt>
      <trkpt lat="46.37099" lon="3.86814">
        <ele>301.20001220703</ele>
        <time>2023-05-30T09:34:55.000Z</time>
      </trkpt>
      <trkpt lat="46.37063" lon="3.86855">
        <ele>300</ele>
        <time>2023-05-30T09:35:01.000Z</time>
      </trkpt>
      <trkpt lat="46.37034" lon="3.86876">
        <ele>300</ele>
        <time>2023-05-30T09:35:06.000Z</time>
      </trkpt>
      <trkpt lat="46.36995" lon="3.86895">
        <ele>300.39999389648</ele>
        <time>2023-05-30T09:35:13.000Z</time>
      </trkpt>
      <trkpt lat="46.36976" lon="3.86903">
        <ele>301.20001220703</ele>
        <time>2023-05-30T09:35:17.000Z</time>
      </trkpt>
      <trkpt lat="46.36971" lon="3.86907">
        <ele>301.20001220703</ele>
        <time>2023-05-30T09:35:18.000Z</time>
      </trkpt>
      <trkpt lat="46.36966" lon="3.8691">
        <ele>301.60000610352</ele>
        <time>2023-05-30T09:35:19.000Z</time>
      </trkpt>
      <trkpt lat="46.36954" lon="3.8692">
        <ele>302.39999389648</ele>
        <time>2023-05-30T09:35:22.000Z</time>
      </trkpt>
      <trkpt lat="46.36937" lon="3.86939">
        <ele>303.39999389648</ele>
        <time>2023-05-30T09:35:26.000Z</time>
      </trkpt>
      <trkpt lat="46.36898" lon="3.86991">
        <ele>303.60000610352</ele>
        <time>2023-05-30T09:35:36.000Z</time>
      </trkpt>
      <trkpt lat="46.36876" lon="3.87022">
        <ele>303</ele>
        <time>2023-05-30T09:35:41.000Z</time>
      </trkpt>
      <trkpt lat="46.36854" lon="3.87054">
        <ele>302.39999389648</ele>
        <time>2023-05-30T09:35:46.000Z</time>
      </trkpt>
      <trkpt lat="46.36841" lon="3.87075">
        <ele>301.79998779297</ele>
        <time>2023-05-30T09:35:49.000Z</time>
      </trkpt>
      <trkpt lat="46.36828" lon="3.87096">
        <ele>301.39999389648</ele>
        <time>2023-05-30T09:35:52.000Z</time>
      </trkpt>
      <trkpt lat="46.36817" lon="3.87114">
        <ele>301</ele>
        <time>2023-05-30T09:35:54.000Z</time>
      </trkpt>
      <trkpt lat="46.36808" lon="3.87129">
        <ele>300.39999389648</ele>
        <time>2023-05-30T09:35:56.000Z</time>
      </trkpt>
      <trkpt lat="46.36803" lon="3.87137">
        <ele>300</ele>
        <time>2023-05-30T09:35:57.000Z</time>
      </trkpt>
      <trkpt lat="46.36773" lon="3.87195">
        <ele>298.79998779297</ele>
        <time>2023-05-30T09:36:03.000Z</time>
      </trkpt>
      <trkpt lat="46.36759" lon="3.87238">
        <ele>297.60000610352</ele>
        <time>2023-05-30T09:36:07.000Z</time>
      </trkpt>
      <trkpt lat="46.36748" lon="3.87267">
        <ele>296.20001220703</ele>
        <time>2023-05-30T09:36:10.000Z</time>
      </trkpt>
      <trkpt lat="46.36731" lon="3.87298">
        <ele>295</ele>
        <time>2023-05-30T09:36:13.000Z</time>
      </trkpt>
      <trkpt lat="46.36725" lon="3.87304">
        <ele>294.79998779297</ele>
        <time>2023-05-30T09:36:14.000Z</time>
      </trkpt>
      <trkpt lat="46.36704" lon="3.87326">
        <ele>293.39999389648</ele>
        <time>2023-05-30T09:36:17.000Z</time>
      </trkpt>
      <trkpt lat="46.3669" lon="3.87337">
        <ele>292.79998779297</ele>
        <time>2023-05-30T09:36:19.000Z</time>
      </trkpt>
      <trkpt lat="46.36681" lon="3.87342">
        <ele>292.39999389648</ele>
        <time>2023-05-30T09:36:20.000Z</time>
      </trkpt>
      <trkpt lat="46.36655" lon="3.87358">
        <ele>291.20001220703</ele>
        <time>2023-05-30T09:36:23.000Z</time>
      </trkpt>
      <trkpt lat="46.36636" lon="3.87369">
        <ele>290.20001220703</ele>
        <time>2023-05-30T09:36:25.000Z</time>
      </trkpt>
      <trkpt lat="46.36627" lon="3.87374">
        <ele>289.39999389648</ele>
        <time>2023-05-30T09:36:26.000Z</time>
      </trkpt>
      <trkpt lat="46.36615" lon="3.87381">
        <ele>288.20001220703</ele>
        <time>2023-05-30T09:36:27.000Z</time>
      </trkpt>
      <trkpt lat="46.36597" lon="3.87391">
        <ele>286.20001220703</ele>
        <time>2023-05-30T09:36:29.000Z</time>
      </trkpt>
      <trkpt lat="46.36577" lon="3.87403">
        <ele>284.39999389648</ele>
        <time>2023-05-30T09:36:31.000Z</time>
      </trkpt>
      <trkpt lat="46.36557" lon="3.87414">
        <ele>282.60000610352</ele>
        <time>2023-05-30T09:36:33.000Z</time>
      </trkpt>
      <trkpt lat="46.36548" lon="3.8742">
        <ele>281.79998779297</ele>
        <time>2023-05-30T09:36:34.000Z</time>
      </trkpt>
      <trkpt lat="46.36536" lon="3.87427">
        <ele>281.20001220703</ele>
        <time>2023-05-30T09:36:35.000Z</time>
      </trkpt>
      <trkpt lat="46.36528" lon="3.87432">
        <ele>279.79998779297</ele>
        <time>2023-05-30T09:36:36.000Z</time>
      </trkpt>
      <trkpt lat="46.36508" lon="3.87445">
        <ele>278</ele>
        <time>2023-05-30T09:36:38.000Z</time>
      </trkpt>
      <trkpt lat="46.36498" lon="3.87452">
        <ele>277.60000610352</ele>
        <time>2023-05-30T09:36:39.000Z</time>
      </trkpt>
      <trkpt lat="46.3649" lon="3.87461">
        <ele>276.39999389648</ele>
        <time>2023-05-30T09:36:40.000Z</time>
      </trkpt>
      <trkpt lat="46.36481" lon="3.87472">
        <ele>275.60000610352</ele>
        <time>2023-05-30T09:36:41.000Z</time>
      </trkpt>
      <trkpt lat="46.3647" lon="3.87491">
        <ele>275.20001220703</ele>
        <time>2023-05-30T09:36:43.000Z</time>
      </trkpt>
      <trkpt lat="46.36445" lon="3.87538">
        <ele>274.39999389648</ele>
        <time>2023-05-30T09:36:48.000Z</time>
      </trkpt>
      <trkpt lat="46.3642" lon="3.87594">
        <ele>274.20001220703</ele>
        <time>2023-05-30T09:36:54.000Z</time>
      </trkpt>
      <trkpt lat="46.36416" lon="3.87605">
        <ele>274.20001220703</ele>
        <time>2023-05-30T09:36:55.000Z</time>
      </trkpt>
      <trkpt lat="46.36405" lon="3.87653">
        <ele>274</ele>
        <time>2023-05-30T09:37:00.000Z</time>
      </trkpt>
      <trkpt lat="46.36396" lon="3.87707">
        <ele>274.20001220703</ele>
        <time>2023-05-30T09:37:06.000Z</time>
      </trkpt>
      <trkpt lat="46.36392" lon="3.87741">
        <ele>274.79998779297</ele>
        <time>2023-05-30T09:37:11.000Z</time>
      </trkpt>
      <trkpt lat="46.36389" lon="3.87755">
        <ele>275.20001220703</ele>
        <time>2023-05-30T09:37:14.000Z</time>
      </trkpt>
      <trkpt lat="46.36386" lon="3.87774">
        <ele>276.60000610352</ele>
        <time>2023-05-30T09:37:18.000Z</time>
      </trkpt>
      <trkpt lat="46.36382" lon="3.87792">
        <ele>277.79998779297</ele>
        <time>2023-05-30T09:37:22.000Z</time>
      </trkpt>
      <trkpt lat="46.36377" lon="3.87813">
        <ele>279.20001220703</ele>
        <time>2023-05-30T09:37:27.000Z</time>
      </trkpt>
      <trkpt lat="46.36376" lon="3.87817">
        <ele>279.20001220703</ele>
        <time>2023-05-30T09:37:28.000Z</time>
      </trkpt>
      <trkpt lat="46.36373" lon="3.8783">
        <ele>280.20001220703</ele>
        <time>2023-05-30T09:37:31.000Z</time>
      </trkpt>
      <trkpt lat="46.36369" lon="3.87839">
        <ele>280.60000610352</ele>
        <time>2023-05-30T09:37:33.000Z</time>
      </trkpt>
      <trkpt lat="46.36367" lon="3.87843">
        <ele>281.20001220703</ele>
        <time>2023-05-30T09:37:34.000Z</time>
      </trkpt>
      <trkpt lat="46.36363" lon="3.87851">
        <ele>281.79998779297</ele>
        <time>2023-05-30T09:37:36.000Z</time>
      </trkpt>
      <trkpt lat="46.36359" lon="3.87858">
        <ele>282.60000610352</ele>
        <time>2023-05-30T09:37:38.000Z</time>
      </trkpt>
      <trkpt lat="46.36351" lon="3.87877">
        <ele>283.79998779297</ele>
        <time>2023-05-30T09:37:43.000Z</time>
      </trkpt>
      <trkpt lat="46.36343" lon="3.87896">
        <ele>285</ele>
        <time>2023-05-30T09:37:48.000Z</time>
      </trkpt>
      <trkpt lat="46.36336" lon="3.87912">
        <ele>285.60000610352</ele>
        <time>2023-05-30T09:37:52.000Z</time>
      </trkpt>
      <trkpt lat="46.36334" lon="3.8792">
        <ele>286</ele>
        <time>2023-05-30T09:37:54.000Z</time>
      </trkpt>
      <trkpt lat="46.36328" lon="3.87948">
        <ele>287.20001220703</ele>
        <time>2023-05-30T09:38:00.000Z</time>
      </trkpt>
      <trkpt lat="46.36326" lon="3.87957">
        <ele>287.39999389648</ele>
        <time>2023-05-30T09:38:02.000Z</time>
      </trkpt>
      <trkpt lat="46.36317" lon="3.87991">
        <ele>288.20001220703</ele>
        <time>2023-05-30T09:38:09.000Z</time>
      </trkpt>
      <trkpt lat="46.36315" lon="3.87996">
        <ele>288.39999389648</ele>
        <time>2023-05-30T09:38:10.000Z</time>
      </trkpt>
      <trkpt lat="46.36307" lon="3.88032">
        <ele>289.39999389648</ele>
        <time>2023-05-30T09:38:17.000Z</time>
      </trkpt>
      <trkpt lat="46.36304" lon="3.88044">
        <ele>289.60000610352</ele>
        <time>2023-05-30T09:38:19.000Z</time>
      </trkpt>
      <trkpt lat="46.36297" lon="3.88073">
        <ele>290.60000610352</ele>
        <time>2023-05-30T09:38:24.000Z</time>
      </trkpt>
      <trkpt lat="46.36292" lon="3.88095">
        <ele>291</ele>
        <time>2023-05-30T09:38:28.000Z</time>
      </trkpt>
      <trkpt lat="46.36278" lon="3.88147">
        <ele>291.60000610352</ele>
        <time>2023-05-30T09:38:37.000Z</time>
      </trkpt>
      <trkpt lat="46.36277" lon="3.88153">
        <ele>291.60000610352</ele>
        <time>2023-05-30T09:38:38.000Z</time>
      </trkpt>
      <trkpt lat="46.3627" lon="3.88169">
        <ele>292.20001220703</ele>
        <time>2023-05-30T09:38:41.000Z</time>
      </trkpt>
      <trkpt lat="46.36261" lon="3.88186">
        <ele>292.39999389648</ele>
        <time>2023-05-30T09:38:44.000Z</time>
      </trkpt>
      <trkpt lat="46.36248" lon="3.88208">
        <ele>292.79998779297</ele>
        <time>2023-05-30T09:38:48.000Z</time>
      </trkpt>
      <trkpt lat="46.36233" lon="3.88228">
        <ele>292.79998779297</ele>
        <time>2023-05-30T09:38:52.000Z</time>
      </trkpt>
      <trkpt lat="46.36206" lon="3.8825">
        <ele>292.60000610352</ele>
        <time>2023-05-30T09:38:58.000Z</time>
      </trkpt>
      <trkpt lat="46.36201" lon="3.88252">
        <ele>292.39999389648</ele>
        <time>2023-05-30T09:38:59.000Z</time>
      </trkpt>
      <trkpt lat="46.36169" lon="3.88262">
        <ele>292.20001220703</ele>
        <time>2023-05-30T09:39:05.000Z</time>
      </trkpt>
      <trkpt lat="46.36119" lon="3.88278">
        <ele>292</ele>
        <time>2023-05-30T09:39:14.000Z</time>
      </trkpt>
      <trkpt lat="46.36082" lon="3.88299">
        <ele>291.79998779297</ele>
        <time>2023-05-30T09:39:21.000Z</time>
      </trkpt>
      <trkpt lat="46.36067" lon="3.8831">
        <ele>291.79998779297</ele>
        <time>2023-05-30T09:39:24.000Z</time>
      </trkpt>
      <trkpt lat="46.36048" lon="3.88325">
        <ele>292.20001220703</ele>
        <time>2023-05-30T09:39:28.000Z</time>
      </trkpt>
      <trkpt lat="46.36018" lon="3.8835">
        <ele>293.39999389648</ele>
        <time>2023-05-30T09:39:35.000Z</time>
      </trkpt>
      <trkpt lat="46.36014" lon="3.88353">
        <ele>293.79998779297</ele>
        <time>2023-05-30T09:39:36.000Z</time>
      </trkpt>
      <trkpt lat="46.35993" lon="3.8837">
        <ele>294.79998779297</ele>
        <time>2023-05-30T09:39:42.000Z</time>
      </trkpt>
      <trkpt lat="46.3599" lon="3.88372">
        <ele>295</ele>
        <time>2023-05-30T09:39:43.000Z</time>
      </trkpt>
      <trkpt lat="46.35987" lon="3.88374">
        <ele>295</ele>
        <time>2023-05-30T09:39:44.000Z</time>
      </trkpt>
      <trkpt lat="46.35971" lon="3.88385">
        <ele>296.20001220703</ele>
        <time>2023-05-30T09:39:49.000Z</time>
      </trkpt>
      <trkpt lat="46.35967" lon="3.88388">
        <ele>296.39999389648</ele>
        <time>2023-05-30T09:39:50.000Z</time>
      </trkpt>
      <trkpt lat="46.35958" lon="3.88395">
        <ele>297.20001220703</ele>
        <time>2023-05-30T09:39:53.000Z</time>
      </trkpt>
      <trkpt lat="46.35943" lon="3.88407">
        <ele>298.39999389648</ele>
        <time>2023-05-30T09:39:58.000Z</time>
      </trkpt>
      <trkpt lat="46.35933" lon="3.88414">
        <ele>299</ele>
        <time>2023-05-30T09:40:01.000Z</time>
      </trkpt>
      <trkpt lat="46.3593" lon="3.88417">
        <ele>299.60000610352</ele>
        <time>2023-05-30T09:40:02.000Z</time>
      </trkpt>
      <trkpt lat="46.35917" lon="3.88429">
        <ele>300.79998779297</ele>
        <time>2023-05-30T09:40:06.000Z</time>
      </trkpt>
      <trkpt lat="46.35908" lon="3.88435">
        <ele>301</ele>
        <time>2023-05-30T09:40:08.000Z</time>
      </trkpt>
      <trkpt lat="46.35903" lon="3.88438">
        <ele>301.20001220703</ele>
        <time>2023-05-30T09:40:09.000Z</time>
      </trkpt>
      <trkpt lat="46.3589" lon="3.88441">
        <ele>301.20001220703</ele>
        <time>2023-05-30T09:40:11.000Z</time>
      </trkpt>
      <trkpt lat="46.35847" lon="3.88439">
        <ele>299.79998779297</ele>
        <time>2023-05-30T09:40:17.000Z</time>
      </trkpt>
      <trkpt lat="46.35839" lon="3.88439">
        <ele>299.60000610352</ele>
        <time>2023-05-30T09:40:18.000Z</time>
      </trkpt>
      <trkpt lat="46.35803" lon="3.88436">
        <ele>298.39999389648</ele>
        <time>2023-05-30T09:40:23.000Z</time>
      </trkpt>
      <trkpt lat="46.35788" lon="3.88438">
        <ele>298</ele>
        <time>2023-05-30T09:40:25.000Z</time>
      </trkpt>
      <trkpt lat="46.35762" lon="3.8845">
        <ele>297.60000610352</ele>
        <time>2023-05-30T09:40:29.000Z</time>
      </trkpt>
      <trkpt lat="46.35722" lon="3.88479">
        <ele>297.60000610352</ele>
        <time>2023-05-30T09:40:36.000Z</time>
      </trkpt>
      <trkpt lat="46.35676" lon="3.88515">
        <ele>297.60000610352</ele>
        <time>2023-05-30T09:40:44.000Z</time>
      </trkpt>
      <trkpt lat="46.35656" lon="3.8853">
        <ele>297.20001220703</ele>
        <time>2023-05-30T09:40:47.000Z</time>
      </trkpt>
      <trkpt lat="46.35633" lon="3.88548">
        <ele>296.39999389648</ele>
        <time>2023-05-30T09:40:50.000Z</time>
      </trkpt>
      <trkpt lat="46.35625" lon="3.88554">
        <ele>296.39999389648</ele>
        <time>2023-05-30T09:40:51.000Z</time>
      </trkpt>
      <trkpt lat="46.35602" lon="3.88573">
        <ele>295</ele>
        <time>2023-05-30T09:40:54.000Z</time>
      </trkpt>
      <trkpt lat="46.35587" lon="3.88585">
        <ele>294</ele>
        <time>2023-05-30T09:40:56.000Z</time>
      </trkpt>
      <trkpt lat="46.35573" lon="3.88595">
        <ele>293.20001220703</ele>
        <time>2023-05-30T09:40:58.000Z</time>
      </trkpt>
      <trkpt lat="46.35566" lon="3.886">
        <ele>292.79998779297</ele>
        <time>2023-05-30T09:40:59.000Z</time>
      </trkpt>
      <trkpt lat="46.35542" lon="3.88617">
        <ele>292.60000610352</ele>
        <time>2023-05-30T09:41:03.000Z</time>
      </trkpt>
      <trkpt lat="46.3553" lon="3.88621">
        <ele>292.60000610352</ele>
        <time>2023-05-30T09:41:05.000Z</time>
      </trkpt>
      <trkpt lat="46.35518" lon="3.88621">
        <ele>293</ele>
        <time>2023-05-30T09:41:07.000Z</time>
      </trkpt>
      <trkpt lat="46.35491" lon="3.88616">
        <ele>293.39999389648</ele>
        <time>2023-05-30T09:41:12.000Z</time>
      </trkpt>
      <trkpt lat="46.3548" lon="3.88614">
        <ele>294</ele>
        <time>2023-05-30T09:41:14.000Z</time>
      </trkpt>
      <trkpt lat="46.3547" lon="3.8861">
        <ele>294.60000610352</ele>
        <time>2023-05-30T09:41:16.000Z</time>
      </trkpt>
      <trkpt lat="46.3546" lon="3.8861">
        <ele>295.20001220703</ele>
        <time>2023-05-30T09:41:18.000Z</time>
      </trkpt>
      <trkpt lat="46.35434" lon="3.88606">
        <ele>296.39999389648</ele>
        <time>2023-05-30T09:41:23.000Z</time>
      </trkpt>
      <trkpt lat="46.3542" lon="3.88604">
        <ele>297</ele>
        <time>2023-05-30T09:41:26.000Z</time>
      </trkpt>
      <trkpt lat="46.3541" lon="3.88602">
        <ele>297.60000610352</ele>
        <time>2023-05-30T09:41:28.000Z</time>
      </trkpt>
      <trkpt lat="46.35378" lon="3.88596">
        <ele>298.39999389648</ele>
        <time>2023-05-30T09:41:34.000Z</time>
      </trkpt>
      <trkpt lat="46.35362" lon="3.88593">
        <ele>298.79998779297</ele>
        <time>2023-05-30T09:41:37.000Z</time>
      </trkpt>
      <trkpt lat="46.35335" lon="3.88589">
        <ele>299.20001220703</ele>
        <time>2023-05-30T09:41:42.000Z</time>
      </trkpt>
      <trkpt lat="46.35288" lon="3.8858">
        <ele>299.20001220703</ele>
        <time>2023-05-30T09:41:51.000Z</time>
      </trkpt>
      <trkpt lat="46.3523" lon="3.8857">
        <ele>299.39999389648</ele>
        <time>2023-05-30T09:42:02.000Z</time>
      </trkpt>
      <trkpt lat="46.35183" lon="3.88562">
        <ele>299.20001220703</ele>
        <time>2023-05-30T09:42:10.000Z</time>
      </trkpt>
      <trkpt lat="46.35139" lon="3.88558">
        <ele>297.60000610352</ele>
        <time>2023-05-30T09:42:16.000Z</time>
      </trkpt>
      <trkpt lat="46.35132" lon="3.88558">
        <ele>297.39999389648</ele>
        <time>2023-05-30T09:42:17.000Z</time>
      </trkpt>
      <trkpt lat="46.35102" lon="3.88562">
        <ele>296.39999389648</ele>
        <time>2023-05-30T09:42:21.000Z</time>
      </trkpt>
      <trkpt lat="46.35088" lon="3.88566">
        <ele>296.20001220703</ele>
        <time>2023-05-30T09:42:23.000Z</time>
      </trkpt>
      <trkpt lat="46.35037" lon="3.8858">
        <ele>295.39999389648</ele>
        <time>2023-05-30T09:42:30.000Z</time>
      </trkpt>
      <trkpt lat="46.35015" lon="3.88587">
        <ele>295</ele>
        <time>2023-05-30T09:42:33.000Z</time>
      </trkpt>
      <trkpt lat="46.34959" lon="3.88604">
        <ele>294.20001220703</ele>
        <time>2023-05-30T09:42:41.000Z</time>
      </trkpt>
      <trkpt lat="46.34903" lon="3.88621">
        <ele>293.79998779297</ele>
        <time>2023-05-30T09:42:50.000Z</time>
      </trkpt>
      <trkpt lat="46.34897" lon="3.88623">
        <ele>293.79998779297</ele>
        <time>2023-05-30T09:42:51.000Z</time>
      </trkpt>
      <trkpt lat="46.3484" lon="3.88639">
        <ele>293.79998779297</ele>
        <time>2023-05-30T09:43:01.000Z</time>
      </trkpt>
      <trkpt lat="46.34802" lon="3.88659">
        <ele>293.20001220703</ele>
        <time>2023-05-30T09:43:07.000Z</time>
      </trkpt>
      <trkpt lat="46.34771" lon="3.88695">
        <ele>292.39999389648</ele>
        <time>2023-05-30T09:43:12.000Z</time>
      </trkpt>
      <trkpt lat="46.34765" lon="3.88703">
        <ele>292</ele>
        <time>2023-05-30T09:43:13.000Z</time>
      </trkpt>
      <trkpt lat="46.34753" lon="3.8872">
        <ele>291</ele>
        <time>2023-05-30T09:43:15.000Z</time>
      </trkpt>
      <trkpt lat="46.34731" lon="3.88744">
        <ele>290.20001220703</ele>
        <time>2023-05-30T09:43:18.000Z</time>
      </trkpt>
      <trkpt lat="46.34723" lon="3.88751">
        <ele>289.79998779297</ele>
        <time>2023-05-30T09:43:19.000Z</time>
      </trkpt>
      <trkpt lat="46.34715" lon="3.88757">
        <ele>289.60000610352</ele>
        <time>2023-05-30T09:43:20.000Z</time>
      </trkpt>
      <trkpt lat="46.34697" lon="3.88767">
        <ele>289</ele>
        <time>2023-05-30T09:43:22.000Z</time>
      </trkpt>
      <trkpt lat="46.34688" lon="3.88769">
        <ele>288.60000610352</ele>
        <time>2023-05-30T09:43:23.000Z</time>
      </trkpt>
      <trkpt lat="46.34658" lon="3.88774">
        <ele>286.60000610352</ele>
        <time>2023-05-30T09:43:26.000Z</time>
      </trkpt>
      <trkpt lat="46.34627" lon="3.88773">
        <ele>285.60000610352</ele>
        <time>2023-05-30T09:43:29.000Z</time>
      </trkpt>
      <trkpt lat="46.34608" lon="3.8877">
        <ele>283.60000610352</ele>
        <time>2023-05-30T09:43:31.000Z</time>
      </trkpt>
      <trkpt lat="46.34583" lon="3.88763">
        <ele>282.39999389648</ele>
        <time>2023-05-30T09:43:34.000Z</time>
      </trkpt>
      <trkpt lat="46.34576" lon="3.8876">
        <ele>282.20001220703</ele>
        <time>2023-05-30T09:43:35.000Z</time>
      </trkpt>
      <trkpt lat="46.34553" lon="3.88755">
        <ele>282.39999389648</ele>
        <time>2023-05-30T09:43:39.000Z</time>
      </trkpt>
      <trkpt lat="46.34541" lon="3.88758">
        <ele>283.20001220703</ele>
        <time>2023-05-30T09:43:42.000Z</time>
      </trkpt>
      <trkpt lat="46.34537" lon="3.8876">
        <ele>283.39999389648</ele>
        <time>2023-05-30T09:43:43.000Z</time>
      </trkpt>
      <trkpt lat="46.34533" lon="3.88762">
        <ele>284.39999389648</ele>
        <time>2023-05-30T09:43:44.000Z</time>
      </trkpt>
      <trkpt lat="46.34521" lon="3.88768">
        <ele>285.60000610352</ele>
        <time>2023-05-30T09:43:47.000Z</time>
      </trkpt>
      <trkpt lat="46.34518" lon="3.88769">
        <ele>285.60000610352</ele>
        <time>2023-05-30T09:43:48.000Z</time>
      </trkpt>
      <trkpt lat="46.34507" lon="3.88771">
        <ele>286.60000610352</ele>
        <time>2023-05-30T09:43:51.000Z</time>
      </trkpt>
      <trkpt lat="46.34497" lon="3.88771">
        <ele>287.60000610352</ele>
        <time>2023-05-30T09:43:54.000Z</time>
      </trkpt>
      <trkpt lat="46.34491" lon="3.88771">
        <ele>288.39999389648</ele>
        <time>2023-05-30T09:43:57.000Z</time>
      </trkpt>
      <trkpt lat="46.34489" lon="3.88773">
        <ele>289</ele>
        <time>2023-05-30T09:43:58.000Z</time>
      </trkpt>
      <trkpt lat="46.34486" lon="3.8878">
        <ele>289.60000610352</ele>
        <time>2023-05-30T09:44:00.000Z</time>
      </trkpt>
      <trkpt lat="46.34486" lon="3.88785">
        <ele>289.79998779297</ele>
        <time>2023-05-30T09:44:01.000Z</time>
      </trkpt>
      <trkpt lat="46.34486" lon="3.8879">
        <ele>290</ele>
        <time>2023-05-30T09:44:02.000Z</time>
      </trkpt>
      <trkpt lat="46.34485" lon="3.88811">
        <ele>290.39999389648</ele>
        <time>2023-05-30T09:44:05.000Z</time>
      </trkpt>
      <trkpt lat="46.34484" lon="3.88818">
        <ele>290.39999389648</ele>
        <time>2023-05-30T09:44:06.000Z</time>
      </trkpt>
      <trkpt lat="46.3448" lon="3.88831">
        <ele>290.39999389648</ele>
        <time>2023-05-30T09:44:08.000Z</time>
      </trkpt>
      <trkpt lat="46.34477" lon="3.88837">
        <ele>290.39999389648</ele>
        <time>2023-05-30T09:44:09.000Z</time>
      </trkpt>
      <trkpt lat="46.34473" lon="3.88842">
        <ele>290.39999389648</ele>
        <time>2023-05-30T09:44:10.000Z</time>
      </trkpt>
      <trkpt lat="46.34464" lon="3.8885">
        <ele>290.39999389648</ele>
        <time>2023-05-30T09:44:12.000Z</time>
      </trkpt>
      <trkpt lat="46.34454" lon="3.88858">
        <ele>290.20001220703</ele>
        <time>2023-05-30T09:44:14.000Z</time>
      </trkpt>
      <trkpt lat="46.34426" lon="3.88876">
        <ele>289</ele>
        <time>2023-05-30T09:44:19.000Z</time>
      </trkpt>
      <trkpt lat="46.34418" lon="3.88878">
        <ele>289</ele>
        <time>2023-05-30T09:44:20.000Z</time>
      </trkpt>
      <trkpt lat="46.3438" lon="3.88886">
        <ele>288</ele>
        <time>2023-05-30T09:44:25.000Z</time>
      </trkpt>
      <trkpt lat="46.34373" lon="3.88887">
        <ele>287.60000610352</ele>
        <time>2023-05-30T09:44:26.000Z</time>
      </trkpt>
      <trkpt lat="46.3435" lon="3.88895">
        <ele>286.60000610352</ele>
        <time>2023-05-30T09:44:29.000Z</time>
      </trkpt>
      <trkpt lat="46.34344" lon="3.88901">
        <ele>286.39999389648</ele>
        <time>2023-05-30T09:44:30.000Z</time>
      </trkpt>
      <trkpt lat="46.34338" lon="3.88909">
        <ele>285.79998779297</ele>
        <time>2023-05-30T09:44:31.000Z</time>
      </trkpt>
      <trkpt lat="46.34334" lon="3.88919">
        <ele>285.39999389648</ele>
        <time>2023-05-30T09:44:32.000Z</time>
      </trkpt>
      <trkpt lat="46.34331" lon="3.88931">
        <ele>284.79998779297</ele>
        <time>2023-05-30T09:44:33.000Z</time>
      </trkpt>
      <trkpt lat="46.3433" lon="3.88959">
        <ele>283.79998779297</ele>
        <time>2023-05-30T09:44:35.000Z</time>
      </trkpt>
      <trkpt lat="46.3433" lon="3.88973">
        <ele>283.60000610352</ele>
        <time>2023-05-30T09:44:36.000Z</time>
      </trkpt>
      <trkpt lat="46.3433" lon="3.89003">
        <ele>282.39999389648</ele>
        <time>2023-05-30T09:44:38.000Z</time>
      </trkpt>
      <trkpt lat="46.3433" lon="3.89033">
        <ele>281.20001220703</ele>
        <time>2023-05-30T09:44:40.000Z</time>
      </trkpt>
      <trkpt lat="46.34331" lon="3.89049">
        <ele>280.79998779297</ele>
        <time>2023-05-30T09:44:41.000Z</time>
      </trkpt>
      <trkpt lat="46.34331" lon="3.89065">
        <ele>279.79998779297</ele>
        <time>2023-05-30T09:44:42.000Z</time>
      </trkpt>
      <trkpt lat="46.34331" lon="3.89098">
        <ele>277.79998779297</ele>
        <time>2023-05-30T09:44:44.000Z</time>
      </trkpt>
      <trkpt lat="46.3433" lon="3.8913">
        <ele>276.39999389648</ele>
        <time>2023-05-30T09:44:46.000Z</time>
      </trkpt>
      <trkpt lat="46.3433" lon="3.89146">
        <ele>275.39999389648</ele>
        <time>2023-05-30T09:44:47.000Z</time>
      </trkpt>
      <trkpt lat="46.3433" lon="3.89161">
        <ele>275</ele>
        <time>2023-05-30T09:44:48.000Z</time>
      </trkpt>
      <trkpt lat="46.3433" lon="3.89191">
        <ele>274</ele>
        <time>2023-05-30T09:44:50.000Z</time>
      </trkpt>
      <trkpt lat="46.3433" lon="3.89218">
        <ele>272.39999389648</ele>
        <time>2023-05-30T09:44:52.000Z</time>
      </trkpt>
      <trkpt lat="46.3433" lon="3.89232">
        <ele>272.20001220703</ele>
        <time>2023-05-30T09:44:53.000Z</time>
      </trkpt>
      <trkpt lat="46.34331" lon="3.89305">
        <ele>271.39999389648</ele>
        <time>2023-05-30T09:44:59.000Z</time>
      </trkpt>
      <trkpt lat="46.34331" lon="3.89315">
        <ele>271.39999389648</ele>
        <time>2023-05-30T09:45:00.000Z</time>
      </trkpt>
      <trkpt lat="46.34332" lon="3.89365">
        <ele>271.79998779297</ele>
        <time>2023-05-30T09:45:05.000Z</time>
      </trkpt>
      <trkpt lat="46.34332" lon="3.89405">
        <ele>272.79998779297</ele>
        <time>2023-05-30T09:45:10.000Z</time>
      </trkpt>
      <trkpt lat="46.34332" lon="3.89412">
        <ele>272.79998779297</ele>
        <time>2023-05-30T09:45:11.000Z</time>
      </trkpt>
      <trkpt lat="46.34333" lon="3.89432">
        <ele>273.79998779297</ele>
        <time>2023-05-30T09:45:14.000Z</time>
      </trkpt>
      <trkpt lat="46.34333" lon="3.89456">
        <ele>274.79998779297</ele>
        <time>2023-05-30T09:45:18.000Z</time>
      </trkpt>
      <trkpt lat="46.34332" lon="3.89489">
        <ele>275.79998779297</ele>
        <time>2023-05-30T09:45:24.000Z</time>
      </trkpt>
      <trkpt lat="46.34332" lon="3.895">
        <ele>276.20001220703</ele>
        <time>2023-05-30T09:45:26.000Z</time>
      </trkpt>
      <trkpt lat="46.3433" lon="3.89515">
        <ele>277</ele>
        <time>2023-05-30T09:45:29.000Z</time>
      </trkpt>
      <trkpt lat="46.34327" lon="3.89523">
        <ele>277.39999389648</ele>
        <time>2023-05-30T09:45:31.000Z</time>
      </trkpt>
      <trkpt lat="46.34318" lon="3.89536">
        <ele>278</ele>
        <time>2023-05-30T09:45:35.000Z</time>
      </trkpt>
      <trkpt lat="46.34315" lon="3.89539">
        <ele>278.20001220703</ele>
        <time>2023-05-30T09:45:36.000Z</time>
      </trkpt>
      <trkpt lat="46.34305" lon="3.89547">
        <ele>279.20001220703</ele>
        <time>2023-05-30T09:45:40.000Z</time>
      </trkpt>
      <trkpt lat="46.34293" lon="3.89552">
        <ele>280.20001220703</ele>
        <time>2023-05-30T09:45:44.000Z</time>
      </trkpt>
      <trkpt lat="46.34283" lon="3.89555">
        <ele>281.39999389648</ele>
        <time>2023-05-30T09:45:47.000Z</time>
      </trkpt>
      <trkpt lat="46.3427" lon="3.89558">
        <ele>282.39999389648</ele>
        <time>2023-05-30T09:45:51.000Z</time>
      </trkpt>
      <trkpt lat="46.34264" lon="3.89559">
        <ele>282.79998779297</ele>
        <time>2023-05-30T09:45:53.000Z</time>
      </trkpt>
      <trkpt lat="46.34251" lon="3.89562">
        <ele>283.60000610352</ele>
        <time>2023-05-30T09:45:57.000Z</time>
      </trkpt>
      <trkpt lat="46.34239" lon="3.89564">
        <ele>284.79998779297</ele>
        <time>2023-05-30T09:46:01.000Z</time>
      </trkpt>
      <trkpt lat="46.34234" lon="3.89567">
        <ele>285</ele>
        <time>2023-05-30T09:46:03.000Z</time>
      </trkpt>
      <trkpt lat="46.34225" lon="3.89571">
        <ele>286</ele>
        <time>2023-05-30T09:46:06.000Z</time>
      </trkpt>
      <trkpt lat="46.34213" lon="3.89576">
        <ele>287</ele>
        <time>2023-05-30T09:46:10.000Z</time>
      </trkpt>
      <trkpt lat="46.34211" lon="3.89579">
        <ele>287.20001220703</ele>
        <time>2023-05-30T09:46:11.000Z</time>
      </trkpt>
      <trkpt lat="46.34203" lon="3.89586">
        <ele>288</ele>
        <time>2023-05-30T09:46:14.000Z</time>
      </trkpt>
      <trkpt lat="46.3419" lon="3.89603">
        <ele>289.20001220703</ele>
        <time>2023-05-30T09:46:19.000Z</time>
      </trkpt>
      <trkpt lat="46.34187" lon="3.89606">
        <ele>289.20001220703</ele>
        <time>2023-05-30T09:46:20.000Z</time>
      </trkpt>
      <trkpt lat="46.34176" lon="3.89623">
        <ele>290.20001220703</ele>
        <time>2023-05-30T09:46:25.000Z</time>
      </trkpt>
      <trkpt lat="46.34169" lon="3.89634">
        <ele>290.79998779297</ele>
        <time>2023-05-30T09:46:28.000Z</time>
      </trkpt>
      <trkpt lat="46.34161" lon="3.89648">
        <ele>291.20001220703</ele>
        <time>2023-05-30T09:46:32.000Z</time>
      </trkpt>
      <trkpt lat="46.34148" lon="3.89671">
        <ele>292.20001220703</ele>
        <time>2023-05-30T09:46:38.000Z</time>
      </trkpt>
      <trkpt lat="46.34145" lon="3.89674">
        <ele>292.20001220703</ele>
        <time>2023-05-30T09:46:39.000Z</time>
      </trkpt>
      <trkpt lat="46.3414" lon="3.89682">
        <ele>292.60000610352</ele>
        <time>2023-05-30T09:46:41.000Z</time>
      </trkpt>
      <trkpt lat="46.34127" lon="3.89703">
        <ele>293.39999389648</ele>
        <time>2023-05-30T09:46:46.000Z</time>
      </trkpt>
      <trkpt lat="46.34111" lon="3.89728">
        <ele>294.39999389648</ele>
        <time>2023-05-30T09:46:52.000Z</time>
      </trkpt>
      <trkpt lat="46.341" lon="3.89746">
        <ele>295</ele>
        <time>2023-05-30T09:46:56.000Z</time>
      </trkpt>
      <trkpt lat="46.34091" lon="3.89761">
        <ele>295.20001220703</ele>
        <time>2023-05-30T09:46:59.000Z</time>
      </trkpt>
      <trkpt lat="46.34082" lon="3.89774">
        <ele>295.39999389648</ele>
        <time>2023-05-30T09:47:02.000Z</time>
      </trkpt>
      <trkpt lat="46.34073" lon="3.8979">
        <ele>296</ele>
        <time>2023-05-30T09:47:05.000Z</time>
      </trkpt>
      <trkpt lat="46.34064" lon="3.89804">
        <ele>296.39999389648</ele>
        <time>2023-05-30T09:47:08.000Z</time>
      </trkpt>
      <trkpt lat="46.34047" lon="3.8983">
        <ele>297.60000610352</ele>
        <time>2023-05-30T09:47:13.000Z</time>
      </trkpt>
      <trkpt lat="46.3402" lon="3.89875">
        <ele>298.79998779297</ele>
        <time>2023-05-30T09:47:22.000Z</time>
      </trkpt>
      <trkpt lat="46.34017" lon="3.8988">
        <ele>299</ele>
        <time>2023-05-30T09:47:23.000Z</time>
      </trkpt>
      <trkpt lat="46.34" lon="3.89923">
        <ele>300</ele>
        <time>2023-05-30T09:47:30.000Z</time>
      </trkpt>
      <trkpt lat="46.33998" lon="3.89929">
        <ele>300.20001220703</ele>
        <time>2023-05-30T09:47:31.000Z</time>
      </trkpt>
      <trkpt lat="46.33982" lon="3.8998">
        <ele>300.60000610352</ele>
        <time>2023-05-30T09:47:38.000Z</time>
      </trkpt>
      <trkpt lat="46.33959" lon="3.90055">
        <ele>300.60000610352</ele>
        <time>2023-05-30T09:47:48.000Z</time>
      </trkpt>
      <trkpt lat="46.33935" lon="3.90133">
        <ele>300</ele>
        <time>2023-05-30T09:47:58.000Z</time>
      </trkpt>
      <trkpt lat="46.33911" lon="3.90212">
        <ele>300</ele>
        <time>2023-05-30T09:48:08.000Z</time>
      </trkpt>
      <trkpt lat="46.33908" lon="3.9022">
        <ele>300</ele>
        <time>2023-05-30T09:48:09.000Z</time>
      </trkpt>
      <trkpt lat="46.33898" lon="3.90252">
        <ele>299.60000610352</ele>
        <time>2023-05-30T09:48:13.000Z</time>
      </trkpt>
      <trkpt lat="46.33885" lon="3.90284">
        <ele>299.60000610352</ele>
        <time>2023-05-30T09:48:17.000Z</time>
      </trkpt>
      <trkpt lat="46.33867" lon="3.90322">
        <ele>299.20001220703</ele>
        <time>2023-05-30T09:48:22.000Z</time>
      </trkpt>
      <trkpt lat="46.33849" lon="3.90358">
        <ele>298.79998779297</ele>
        <time>2023-05-30T09:48:27.000Z</time>
      </trkpt>
      <trkpt lat="46.33824" lon="3.90408">
        <ele>298.20001220703</ele>
        <time>2023-05-30T09:48:34.000Z</time>
      </trkpt>
      <trkpt lat="46.33791" lon="3.90475">
        <ele>297.79998779297</ele>
        <time>2023-05-30T09:48:43.000Z</time>
      </trkpt>
      <trkpt lat="46.33784" lon="3.9049">
        <ele>297.60000610352</ele>
        <time>2023-05-30T09:48:45.000Z</time>
      </trkpt>
      <trkpt lat="46.33768" lon="3.90522">
        <ele>296.79998779297</ele>
        <time>2023-05-30T09:48:49.000Z</time>
      </trkpt>
      <trkpt lat="46.33751" lon="3.90556">
        <ele>295.79998779297</ele>
        <time>2023-05-30T09:48:53.000Z</time>
      </trkpt>
      <trkpt lat="46.33733" lon="3.90592">
        <ele>294.79998779297</ele>
        <time>2023-05-30T09:48:57.000Z</time>
      </trkpt>
      <trkpt lat="46.33717" lon="3.90626">
        <ele>293.79998779297</ele>
        <time>2023-05-30T09:49:00.000Z</time>
      </trkpt>
      <trkpt lat="46.33712" lon="3.90637">
        <ele>293.39999389648</ele>
        <time>2023-05-30T09:49:01.000Z</time>
      </trkpt>
      <trkpt lat="46.33694" lon="3.90671">
        <ele>292.20001220703</ele>
        <time>2023-05-30T09:49:04.000Z</time>
      </trkpt>
      <trkpt lat="46.33682" lon="3.90695">
        <ele>291</ele>
        <time>2023-05-30T09:49:06.000Z</time>
      </trkpt>
      <trkpt lat="46.33671" lon="3.9072">
        <ele>289.79998779297</ele>
        <time>2023-05-30T09:49:08.000Z</time>
      </trkpt>
      <trkpt lat="46.33655" lon="3.90751">
        <ele>288.39999389648</ele>
        <time>2023-05-30T09:49:11.000Z</time>
      </trkpt>
      <trkpt lat="46.33649" lon="3.9076">
        <ele>287.79998779297</ele>
        <time>2023-05-30T09:49:12.000Z</time>
      </trkpt>
      <trkpt lat="46.33643" lon="3.90768">
        <ele>287.39999389648</ele>
        <time>2023-05-30T09:49:13.000Z</time>
      </trkpt>
      <trkpt lat="46.33637" lon="3.90774">
        <ele>287.39999389648</ele>
        <time>2023-05-30T09:49:14.000Z</time>
      </trkpt>
      <trkpt lat="46.33618" lon="3.90788">
        <ele>287.20001220703</ele>
        <time>2023-05-30T09:49:17.000Z</time>
      </trkpt>
      <trkpt lat="46.33586" lon="3.90805">
        <ele>288.60000610352</ele>
        <time>2023-05-30T09:49:23.000Z</time>
      </trkpt>
      <trkpt lat="46.33573" lon="3.90812">
        <ele>289.79998779297</ele>
        <time>2023-05-30T09:49:26.000Z</time>
      </trkpt>
      <trkpt lat="46.3356" lon="3.90819">
        <ele>291</ele>
        <time>2023-05-30T09:49:29.000Z</time>
      </trkpt>
      <trkpt lat="46.33556" lon="3.90822">
        <ele>291.20001220703</ele>
        <time>2023-05-30T09:49:30.000Z</time>
      </trkpt>
      <trkpt lat="46.33542" lon="3.90829">
        <ele>292.20001220703</ele>
        <time>2023-05-30T09:49:33.000Z</time>
      </trkpt>
      <trkpt lat="46.33521" lon="3.9084">
        <ele>293.39999389648</ele>
        <time>2023-05-30T09:49:38.000Z</time>
      </trkpt>
      <trkpt lat="46.33517" lon="3.90842">
        <ele>293.60000610352</ele>
        <time>2023-05-30T09:49:39.000Z</time>
      </trkpt>
      <trkpt lat="46.33504" lon="3.90848">
        <ele>294.60000610352</ele>
        <time>2023-05-30T09:49:42.000Z</time>
      </trkpt>
      <trkpt lat="46.33483" lon="3.90857">
        <ele>295.39999389648</ele>
        <time>2023-05-30T09:49:47.000Z</time>
      </trkpt>
      <trkpt lat="46.33479" lon="3.90859">
        <ele>295.60000610352</ele>
        <time>2023-05-30T09:49:48.000Z</time>
      </trkpt>
      <trkpt lat="46.33467" lon="3.90866">
        <ele>296.60000610352</ele>
        <time>2023-05-30T09:49:51.000Z</time>
      </trkpt>
      <trkpt lat="46.33447" lon="3.90883">
        <ele>298</ele>
        <time>2023-05-30T09:49:56.000Z</time>
      </trkpt>
      <trkpt lat="46.33431" lon="3.90908">
        <ele>298.60000610352</ele>
        <time>2023-05-30T09:50:01.000Z</time>
      </trkpt>
      <trkpt lat="46.33429" lon="3.90914">
        <ele>298.60000610352</ele>
        <time>2023-05-30T09:50:02.000Z</time>
      </trkpt>
      <trkpt lat="46.33422" lon="3.90932">
        <ele>299</ele>
        <time>2023-05-30T09:50:05.000Z</time>
      </trkpt>
      <trkpt lat="46.3341" lon="3.90978">
        <ele>299</ele>
        <time>2023-05-30T09:50:11.000Z</time>
      </trkpt>
      <trkpt lat="46.33392" lon="3.91045">
        <ele>298.20001220703</ele>
        <time>2023-05-30T09:50:19.000Z</time>
      </trkpt>
      <trkpt lat="46.33384" lon="3.91074">
        <ele>297.79998779297</ele>
        <time>2023-05-30T09:50:22.000Z</time>
      </trkpt>
      <trkpt lat="46.33371" lon="3.91121">
        <ele>297</ele>
        <time>2023-05-30T09:50:27.000Z</time>
      </trkpt>
      <trkpt lat="46.33352" lon="3.91193">
        <ele>296.79998779297</ele>
        <time>2023-05-30T09:50:35.000Z</time>
      </trkpt>
      <trkpt lat="46.33342" lon="3.91231">
        <ele>297.79998779297</ele>
        <time>2023-05-30T09:50:41.000Z</time>
      </trkpt>
      <trkpt lat="46.33336" lon="3.91253">
        <ele>298.79998779297</ele>
        <time>2023-05-30T09:50:45.000Z</time>
      </trkpt>
      <trkpt lat="46.33332" lon="3.91268">
        <ele>299.39999389648</ele>
        <time>2023-05-30T09:50:48.000Z</time>
      </trkpt>
      <trkpt lat="46.33329" lon="3.91277">
        <ele>300</ele>
        <time>2023-05-30T09:50:50.000Z</time>
      </trkpt>
      <trkpt lat="46.33324" lon="3.91297">
        <ele>301.20001220703</ele>
        <time>2023-05-30T09:50:54.000Z</time>
      </trkpt>
      <trkpt lat="46.33322" lon="3.91305">
        <ele>301.60000610352</ele>
        <time>2023-05-30T09:50:56.000Z</time>
      </trkpt>
      <trkpt lat="46.33316" lon="3.91325">
        <ele>302.20001220703</ele>
        <time>2023-05-30T09:51:00.000Z</time>
      </trkpt>
      <trkpt lat="46.33309" lon="3.91347">
        <ele>303.20001220703</ele>
        <time>2023-05-30T09:51:04.000Z</time>
      </trkpt>
      <trkpt lat="46.33306" lon="3.91355">
        <ele>303.60000610352</ele>
        <time>2023-05-30T09:51:06.000Z</time>
      </trkpt>
      <trkpt lat="46.333" lon="3.9137">
        <ele>304.39999389648</ele>
        <time>2023-05-30T09:51:09.000Z</time>
      </trkpt>
      <trkpt lat="46.33289" lon="3.91393">
        <ele>305.39999389648</ele>
        <time>2023-05-30T09:51:14.000Z</time>
      </trkpt>
      <trkpt lat="46.33284" lon="3.91403">
        <ele>305.79998779297</ele>
        <time>2023-05-30T09:51:16.000Z</time>
      </trkpt>
      <trkpt lat="46.33258" lon="3.9145">
        <ele>306.39999389648</ele>
        <time>2023-05-30T09:51:25.000Z</time>
      </trkpt>
      <trkpt lat="46.33245" lon="3.91475">
        <ele>306.39999389648</ele>
        <time>2023-05-30T09:51:29.000Z</time>
      </trkpt>
      <trkpt lat="46.33234" lon="3.91496">
        <ele>306.60000610352</ele>
        <time>2023-05-30T09:51:32.000Z</time>
      </trkpt>
      <trkpt lat="46.332" lon="3.91557">
        <ele>306.20001220703</ele>
        <time>2023-05-30T09:51:41.000Z</time>
      </trkpt>
      <trkpt lat="46.33165" lon="3.91621">
        <ele>306</ele>
        <time>2023-05-30T09:51:50.000Z</time>
      </trkpt>
      <trkpt lat="46.33161" lon="3.91628">
        <ele>306</ele>
        <time>2023-05-30T09:51:51.000Z</time>
      </trkpt>
      <trkpt lat="46.33126" lon="3.9169">
        <ele>305.60000610352</ele>
        <time>2023-05-30T09:52:00.000Z</time>
      </trkpt>
      <trkpt lat="46.33123" lon="3.91696">
        <ele>305.60000610352</ele>
        <time>2023-05-30T09:52:01.000Z</time>
      </trkpt>
      <trkpt lat="46.33089" lon="3.91759">
        <ele>305.60000610352</ele>
        <time>2023-05-30T09:52:10.000Z</time>
      </trkpt>
      <trkpt lat="46.33077" lon="3.91782">
        <ele>305.60000610352</ele>
        <time>2023-05-30T09:52:13.000Z</time>
      </trkpt>
      <trkpt lat="46.33045" lon="3.91838">
        <ele>305.60000610352</ele>
        <time>2023-05-30T09:52:21.000Z</time>
      </trkpt>
      <trkpt lat="46.33014" lon="3.91893">
        <ele>305.39999389648</ele>
        <time>2023-05-30T09:52:29.000Z</time>
      </trkpt>
      <trkpt lat="46.33009" lon="3.91899">
        <ele>305.39999389648</ele>
        <time>2023-05-30T09:52:30.000Z</time>
      </trkpt>
      <trkpt lat="46.32968" lon="3.91956">
        <ele>304.60000610352</ele>
        <time>2023-05-30T09:52:39.000Z</time>
      </trkpt>
      <trkpt lat="46.32953" lon="3.91975">
        <ele>304.39999389648</ele>
        <time>2023-05-30T09:52:42.000Z</time>
      </trkpt>
      <trkpt lat="46.32923" lon="3.92013">
        <ele>303.79998779297</ele>
        <time>2023-05-30T09:52:48.000Z</time>
      </trkpt>
      <trkpt lat="46.32891" lon="3.92053">
        <ele>303</ele>
        <time>2023-05-30T09:52:54.000Z</time>
      </trkpt>
      <trkpt lat="46.32865" lon="3.92087">
        <ele>302.60000610352</ele>
        <time>2023-05-30T09:52:59.000Z</time>
      </trkpt>
      <trkpt lat="46.32834" lon="3.92126">
        <ele>302</ele>
        <time>2023-05-30T09:53:05.000Z</time>
      </trkpt>
      <trkpt lat="46.32806" lon="3.92165">
        <ele>301</ele>
        <time>2023-05-30T09:53:11.000Z</time>
      </trkpt>
      <trkpt lat="46.32801" lon="3.92172">
        <ele>300.79998779297</ele>
        <time>2023-05-30T09:53:12.000Z</time>
      </trkpt>
      <trkpt lat="46.32759" lon="3.92228">
        <ele>300.20001220703</ele>
        <time>2023-05-30T09:53:20.000Z</time>
      </trkpt>
      <trkpt lat="46.32753" lon="3.92236">
        <ele>299.79998779297</ele>
        <time>2023-05-30T09:53:21.000Z</time>
      </trkpt>
      <trkpt lat="46.32723" lon="3.92276">
        <ele>298.39999389648</ele>
        <time>2023-05-30T09:53:26.000Z</time>
      </trkpt>
      <trkpt lat="46.32718" lon="3.92283">
        <ele>298.39999389648</ele>
        <time>2023-05-30T09:53:27.000Z</time>
      </trkpt>
      <trkpt lat="46.32694" lon="3.92317">
        <ele>297</ele>
        <time>2023-05-30T09:53:31.000Z</time>
      </trkpt>
      <trkpt lat="46.32676" lon="3.92341">
        <ele>295.79998779297</ele>
        <time>2023-05-30T09:53:34.000Z</time>
      </trkpt>
      <trkpt lat="46.3267" lon="3.92348">
        <ele>295.60000610352</ele>
        <time>2023-05-30T09:53:35.000Z</time>
      </trkpt>
      <trkpt lat="46.32638" lon="3.92379">
        <ele>295.39999389648</ele>
        <time>2023-05-30T09:53:41.000Z</time>
      </trkpt>
      <trkpt lat="46.32612" lon="3.924">
        <ele>296.79998779297</ele>
        <time>2023-05-30T09:53:47.000Z</time>
      </trkpt>
      <trkpt lat="46.32608" lon="3.92404">
        <ele>297</ele>
        <time>2023-05-30T09:53:48.000Z</time>
      </trkpt>
      <trkpt lat="46.32591" lon="3.92416">
        <ele>298</ele>
        <time>2023-05-30T09:53:52.000Z</time>
      </trkpt>
      <trkpt lat="46.32582" lon="3.92423">
        <ele>298.60000610352</ele>
        <time>2023-05-30T09:53:54.000Z</time>
      </trkpt>
      <trkpt lat="46.32574" lon="3.9243">
        <ele>299</ele>
        <time>2023-05-30T09:53:56.000Z</time>
      </trkpt>
      <trkpt lat="46.32544" lon="3.92456">
        <ele>299.79998779297</ele>
        <time>2023-05-30T09:54:03.000Z</time>
      </trkpt>
      <trkpt lat="46.32506" lon="3.92496">
        <ele>299</ele>
        <time>2023-05-30T09:54:11.000Z</time>
      </trkpt>
      <trkpt lat="46.32471" lon="3.92535">
        <ele>297.79998779297</ele>
        <time>2023-05-30T09:54:17.000Z</time>
      </trkpt>
      <trkpt lat="46.32444" lon="3.92564">
        <ele>296.39999389648</ele>
        <time>2023-05-30T09:54:21.000Z</time>
      </trkpt>
      <trkpt lat="46.32418" lon="3.92593">
        <ele>295.39999389648</ele>
        <time>2023-05-30T09:54:25.000Z</time>
      </trkpt>
      <trkpt lat="46.32411" lon="3.926">
        <ele>295.20001220703</ele>
        <time>2023-05-30T09:54:26.000Z</time>
      </trkpt>
      <trkpt lat="46.32382" lon="3.92632">
        <ele>295</ele>
        <time>2023-05-30T09:54:31.000Z</time>
      </trkpt>
      <trkpt lat="46.32353" lon="3.92664">
        <ele>296</ele>
        <time>2023-05-30T09:54:37.000Z</time>
      </trkpt>
      <trkpt lat="46.32344" lon="3.92673">
        <ele>296.60000610352</ele>
        <time>2023-05-30T09:54:39.000Z</time>
      </trkpt>
      <trkpt lat="46.32332" lon="3.92686">
        <ele>297.39999389648</ele>
        <time>2023-05-30T09:54:42.000Z</time>
      </trkpt>
      <trkpt lat="46.32327" lon="3.92692">
        <ele>297.60000610352</ele>
        <time>2023-05-30T09:54:43.000Z</time>
      </trkpt>
      <trkpt lat="46.32312" lon="3.92708">
        <ele>298.60000610352</ele>
        <time>2023-05-30T09:54:47.000Z</time>
      </trkpt>
      <trkpt lat="46.32307" lon="3.92713">
        <ele>298.79998779297</ele>
        <time>2023-05-30T09:54:48.000Z</time>
      </trkpt>
      <trkpt lat="46.32271" lon="3.92753">
        <ele>298.60000610352</ele>
        <time>2023-05-30T09:54:56.000Z</time>
      </trkpt>
      <trkpt lat="46.32262" lon="3.92766">
        <ele>298.39999389648</ele>
        <time>2023-05-30T09:54:58.000Z</time>
      </trkpt>
      <trkpt lat="46.3225" lon="3.92791">
        <ele>298</ele>
        <time>2023-05-30T09:55:01.000Z</time>
      </trkpt>
      <trkpt lat="46.32242" lon="3.92812">
        <ele>297.39999389648</ele>
        <time>2023-05-30T09:55:03.000Z</time>
      </trkpt>
      <trkpt lat="46.32231" lon="3.92843">
        <ele>297</ele>
        <time>2023-05-30T09:55:06.000Z</time>
      </trkpt>
      <trkpt lat="46.32224" lon="3.92866">
        <ele>295.39999389648</ele>
        <time>2023-05-30T09:55:08.000Z</time>
      </trkpt>
      <trkpt lat="46.32218" lon="3.9289">
        <ele>294.60000610352</ele>
        <time>2023-05-30T09:55:10.000Z</time>
      </trkpt>
      <trkpt lat="46.32216" lon="3.92903">
        <ele>294.20001220703</ele>
        <time>2023-05-30T09:55:11.000Z</time>
      </trkpt>
      <trkpt lat="46.32216" lon="3.92916">
        <ele>293.60000610352</ele>
        <time>2023-05-30T09:55:12.000Z</time>
      </trkpt>
      <trkpt lat="46.32217" lon="3.9293">
        <ele>293</ele>
        <time>2023-05-30T09:55:13.000Z</time>
      </trkpt>
      <trkpt lat="46.32219" lon="3.92944">
        <ele>292</ele>
        <time>2023-05-30T09:55:14.000Z</time>
      </trkpt>
      <trkpt lat="46.32222" lon="3.92958">
        <ele>291.79998779297</ele>
        <time>2023-05-30T09:55:15.000Z</time>
      </trkpt>
      <trkpt lat="46.32229" lon="3.92988">
        <ele>290</ele>
        <time>2023-05-30T09:55:17.000Z</time>
      </trkpt>
      <trkpt lat="46.32235" lon="3.93016">
        <ele>288.20001220703</ele>
        <time>2023-05-30T09:55:19.000Z</time>
      </trkpt>
      <trkpt lat="46.32239" lon="3.93028">
        <ele>287.79998779297</ele>
        <time>2023-05-30T09:55:20.000Z</time>
      </trkpt>
      <trkpt lat="46.32249" lon="3.93071">
        <ele>286.79998779297</ele>
        <time>2023-05-30T09:55:23.000Z</time>
      </trkpt>
      <trkpt lat="46.32252" lon="3.93082">
        <ele>285.60000610352</ele>
        <time>2023-05-30T09:55:24.000Z</time>
      </trkpt>
      <trkpt lat="46.32261" lon="3.9312">
        <ele>284.60000610352</ele>
        <time>2023-05-30T09:55:27.000Z</time>
      </trkpt>
      <trkpt lat="46.32276" lon="3.93183">
        <ele>283.60000610352</ele>
        <time>2023-05-30T09:55:33.000Z</time>
      </trkpt>
      <trkpt lat="46.32278" lon="3.9319">
        <ele>283.60000610352</ele>
        <time>2023-05-30T09:55:34.000Z</time>
      </trkpt>
      <trkpt lat="46.32289" lon="3.93233">
        <ele>284.39999389648</ele>
        <time>2023-05-30T09:55:39.000Z</time>
      </trkpt>
      <trkpt lat="46.3229" lon="3.93241">
        <ele>284.60000610352</ele>
        <time>2023-05-30T09:55:40.000Z</time>
      </trkpt>
      <trkpt lat="46.323" lon="3.93279">
        <ele>285.79998779297</ele>
        <time>2023-05-30T09:55:46.000Z</time>
      </trkpt>
      <trkpt lat="46.32301" lon="3.93285">
        <ele>286.20001220703</ele>
        <time>2023-05-30T09:55:47.000Z</time>
      </trkpt>
      <trkpt lat="46.32303" lon="3.93295">
        <ele>287</ele>
        <time>2023-05-30T09:55:49.000Z</time>
      </trkpt>
      <trkpt lat="46.32307" lon="3.93312">
        <ele>288</ele>
        <time>2023-05-30T09:55:52.000Z</time>
      </trkpt>
      <trkpt lat="46.32311" lon="3.93335">
        <ele>289.20001220703</ele>
        <time>2023-05-30T09:55:57.000Z</time>
      </trkpt>
      <trkpt lat="46.32313" lon="3.93345">
        <ele>289.60000610352</ele>
        <time>2023-05-30T09:55:59.000Z</time>
      </trkpt>
      <trkpt lat="46.32313" lon="3.93362">
        <ele>290.20001220703</ele>
        <time>2023-05-30T09:56:02.000Z</time>
      </trkpt>
      <trkpt lat="46.32313" lon="3.93377">
        <ele>291</ele>
        <time>2023-05-30T09:56:05.000Z</time>
      </trkpt>
      <trkpt lat="46.32312" lon="3.93388">
        <ele>291.60000610352</ele>
        <time>2023-05-30T09:56:07.000Z</time>
      </trkpt>
      <trkpt lat="46.3231" lon="3.93409">
        <ele>292.60000610352</ele>
        <time>2023-05-30T09:56:11.000Z</time>
      </trkpt>
      <trkpt lat="46.32307" lon="3.93428">
        <ele>293.60000610352</ele>
        <time>2023-05-30T09:56:15.000Z</time>
      </trkpt>
      <trkpt lat="46.32307" lon="3.93433">
        <ele>294</ele>
        <time>2023-05-30T09:56:16.000Z</time>
      </trkpt>
      <trkpt lat="46.32304" lon="3.93456">
        <ele>295</ele>
        <time>2023-05-30T09:56:21.000Z</time>
      </trkpt>
      <trkpt lat="46.32302" lon="3.93473">
        <ele>296</ele>
        <time>2023-05-30T09:56:24.000Z</time>
      </trkpt>
      <trkpt lat="46.32298" lon="3.93502">
        <ele>297.20001220703</ele>
        <time>2023-05-30T09:56:30.000Z</time>
      </trkpt>
      <trkpt lat="46.32296" lon="3.93525">
        <ele>297.60000610352</ele>
        <time>2023-05-30T09:56:34.000Z</time>
      </trkpt>
      <trkpt lat="46.32291" lon="3.93577">
        <ele>297.79998779297</ele>
        <time>2023-05-30T09:56:42.000Z</time>
      </trkpt>
      <trkpt lat="46.32285" lon="3.93629">
        <ele>298</ele>
        <time>2023-05-30T09:56:49.000Z</time>
      </trkpt>
      <trkpt lat="46.32283" lon="3.93636">
        <ele>298</ele>
        <time>2023-05-30T09:56:50.000Z</time>
      </trkpt>
      <trkpt lat="46.32281" lon="3.93644">
        <ele>298</ele>
        <time>2023-05-30T09:56:51.000Z</time>
      </trkpt>
      <trkpt lat="46.32277" lon="3.93658">
        <ele>298</ele>
        <time>2023-05-30T09:56:53.000Z</time>
      </trkpt>
      <trkpt lat="46.3227" lon="3.93671">
        <ele>297.79998779297</ele>
        <time>2023-05-30T09:56:55.000Z</time>
      </trkpt>
      <trkpt lat="46.32235" lon="3.93716">
        <ele>297.20001220703</ele>
        <time>2023-05-30T09:57:03.000Z</time>
      </trkpt>
      <trkpt lat="46.32226" lon="3.93728">
        <ele>296.79998779297</ele>
        <time>2023-05-30T09:57:05.000Z</time>
      </trkpt>
      <trkpt lat="46.32221" lon="3.93736">
        <ele>296.79998779297</ele>
        <time>2023-05-30T09:57:06.000Z</time>
      </trkpt>
      <trkpt lat="46.32213" lon="3.93755">
        <ele>296.20001220703</ele>
        <time>2023-05-30T09:57:08.000Z</time>
      </trkpt>
      <trkpt lat="46.32209" lon="3.93777">
        <ele>295.79998779297</ele>
        <time>2023-05-30T09:57:10.000Z</time>
      </trkpt>
      <trkpt lat="46.32208" lon="3.93803">
        <ele>295.20001220703</ele>
        <time>2023-05-30T09:57:12.000Z</time>
      </trkpt>
      <trkpt lat="46.32209" lon="3.9383">
        <ele>294.39999389648</ele>
        <time>2023-05-30T09:57:14.000Z</time>
      </trkpt>
      <trkpt lat="46.32213" lon="3.93877">
        <ele>292.39999389648</ele>
        <time>2023-05-30T09:57:17.000Z</time>
      </trkpt>
      <trkpt lat="46.32215" lon="3.93905">
        <ele>291.39999389648</ele>
        <time>2023-05-30T09:57:19.000Z</time>
      </trkpt>
      <trkpt lat="46.32218" lon="3.9394">
        <ele>289.79998779297</ele>
        <time>2023-05-30T09:57:21.000Z</time>
      </trkpt>
      <trkpt lat="46.3222" lon="3.93968">
        <ele>288.79998779297</ele>
        <time>2023-05-30T09:57:23.000Z</time>
      </trkpt>
      <trkpt lat="46.32222" lon="3.94">
        <ele>288</ele>
        <time>2023-05-30T09:57:25.000Z</time>
      </trkpt>
      <trkpt lat="46.32223" lon="3.94015">
        <ele>287</ele>
        <time>2023-05-30T09:57:26.000Z</time>
      </trkpt>
      <trkpt lat="46.32225" lon="3.94043">
        <ele>285.60000610352</ele>
        <time>2023-05-30T09:57:28.000Z</time>
      </trkpt>
      <trkpt lat="46.32227" lon="3.94069">
        <ele>285</ele>
        <time>2023-05-30T09:57:30.000Z</time>
      </trkpt>
      <trkpt lat="46.32229" lon="3.9409">
        <ele>284.60000610352</ele>
        <time>2023-05-30T09:57:32.000Z</time>
      </trkpt>
      <trkpt lat="46.32231" lon="3.94125">
        <ele>284.39999389648</ele>
        <time>2023-05-30T09:57:35.000Z</time>
      </trkpt>
      <trkpt lat="46.32233" lon="3.94166">
        <ele>284.79998779297</ele>
        <time>2023-05-30T09:57:40.000Z</time>
      </trkpt>
      <trkpt lat="46.32235" lon="3.9419">
        <ele>285.79998779297</ele>
        <time>2023-05-30T09:57:44.000Z</time>
      </trkpt>
      <trkpt lat="46.32236" lon="3.94196">
        <ele>286</ele>
        <time>2023-05-30T09:57:45.000Z</time>
      </trkpt>
      <trkpt lat="46.32237" lon="3.94204">
        <ele>287</ele>
        <time>2023-05-30T09:57:47.000Z</time>
      </trkpt>
      <trkpt lat="46.32238" lon="3.94224">
        <ele>288.20001220703</ele>
        <time>2023-05-30T09:57:51.000Z</time>
      </trkpt>
      <trkpt lat="46.32239" lon="3.94237">
        <ele>289.39999389648</ele>
        <time>2023-05-30T09:57:54.000Z</time>
      </trkpt>
      <trkpt lat="46.3224" lon="3.94254">
        <ele>290.60000610352</ele>
        <time>2023-05-30T09:57:58.000Z</time>
      </trkpt>
      <trkpt lat="46.3224" lon="3.94258">
        <ele>290.79998779297</ele>
        <time>2023-05-30T09:57:59.000Z</time>
      </trkpt>
      <trkpt lat="46.32241" lon="3.94266">
        <ele>291.60000610352</ele>
        <time>2023-05-30T09:58:01.000Z</time>
      </trkpt>
      <trkpt lat="46.32242" lon="3.94285">
        <ele>292.79998779297</ele>
        <time>2023-05-30T09:58:05.000Z</time>
      </trkpt>
      <trkpt lat="46.32244" lon="3.94297">
        <ele>293.79998779297</ele>
        <time>2023-05-30T09:58:08.000Z</time>
      </trkpt>
      <trkpt lat="46.32245" lon="3.94305">
        <ele>294.39999389648</ele>
        <time>2023-05-30T09:58:10.000Z</time>
      </trkpt>
      <trkpt lat="46.32245" lon="3.94313">
        <ele>295</ele>
        <time>2023-05-30T09:58:12.000Z</time>
      </trkpt>
      <trkpt lat="46.32247" lon="3.94329">
        <ele>296.39999389648</ele>
        <time>2023-05-30T09:58:16.000Z</time>
      </trkpt>
      <trkpt lat="46.32249" lon="3.94347">
        <ele>297.60000610352</ele>
        <time>2023-05-30T09:58:20.000Z</time>
      </trkpt>
      <trkpt lat="46.32252" lon="3.9436">
        <ele>298.60000610352</ele>
        <time>2023-05-30T09:58:23.000Z</time>
      </trkpt>
      <trkpt lat="46.32254" lon="3.94376">
        <ele>299.79998779297</ele>
        <time>2023-05-30T09:58:27.000Z</time>
      </trkpt>
      <trkpt lat="46.32256" lon="3.94388">
        <ele>300.79998779297</ele>
        <time>2023-05-30T09:58:30.000Z</time>
      </trkpt>
      <trkpt lat="46.32256" lon="3.94393">
        <ele>301</ele>
        <time>2023-05-30T09:58:31.000Z</time>
      </trkpt>
      <trkpt lat="46.32258" lon="3.94407">
        <ele>302</ele>
        <time>2023-05-30T09:58:34.000Z</time>
      </trkpt>
      <trkpt lat="46.3226" lon="3.9442">
        <ele>303</ele>
        <time>2023-05-30T09:58:37.000Z</time>
      </trkpt>
      <trkpt lat="46.32261" lon="3.94424">
        <ele>303.39999389648</ele>
        <time>2023-05-30T09:58:38.000Z</time>
      </trkpt>
      <trkpt lat="46.32264" lon="3.94441">
        <ele>304.20001220703</ele>
        <time>2023-05-30T09:58:42.000Z</time>
      </trkpt>
      <trkpt lat="46.32266" lon="3.94449">
        <ele>305</ele>
        <time>2023-05-30T09:58:44.000Z</time>
      </trkpt>
      <trkpt lat="46.32268" lon="3.94458">
        <ele>305.60000610352</ele>
        <time>2023-05-30T09:58:46.000Z</time>
      </trkpt>
      <trkpt lat="46.32269" lon="3.94462">
        <ele>305.79998779297</ele>
        <time>2023-05-30T09:58:47.000Z</time>
      </trkpt>
      <trkpt lat="46.32274" lon="3.94479">
        <ele>306.60000610352</ele>
        <time>2023-05-30T09:58:51.000Z</time>
      </trkpt>
      <trkpt lat="46.32277" lon="3.94487">
        <ele>307</ele>
        <time>2023-05-30T09:58:53.000Z</time>
      </trkpt>
      <trkpt lat="46.3228" lon="3.945">
        <ele>308</ele>
        <time>2023-05-30T09:58:56.000Z</time>
      </trkpt>
      <trkpt lat="46.32286" lon="3.94527">
        <ele>308.79998779297</ele>
        <time>2023-05-30T09:59:02.000Z</time>
      </trkpt>
      <trkpt lat="46.32287" lon="3.94532">
        <ele>309</ele>
        <time>2023-05-30T09:59:03.000Z</time>
      </trkpt>
      <trkpt lat="46.32292" lon="3.9456">
        <ele>310.20001220703</ele>
        <time>2023-05-30T09:59:09.000Z</time>
      </trkpt>
      <trkpt lat="46.32293" lon="3.94565">
        <ele>310.39999389648</ele>
        <time>2023-05-30T09:59:10.000Z</time>
      </trkpt>
      <trkpt lat="46.32295" lon="3.94598">
        <ele>311.39999389648</ele>
        <time>2023-05-30T09:59:16.000Z</time>
      </trkpt>
      <trkpt lat="46.32295" lon="3.9461">
        <ele>311.79998779297</ele>
        <time>2023-05-30T09:59:18.000Z</time>
      </trkpt>
      <trkpt lat="46.32296" lon="3.9465">
        <ele>312.20001220703</ele>
        <time>2023-05-30T09:59:24.000Z</time>
      </trkpt>
      <trkpt lat="46.32297" lon="3.94657">
        <ele>312.20001220703</ele>
        <time>2023-05-30T09:59:25.000Z</time>
      </trkpt>
      <trkpt lat="46.32297" lon="3.94686">
        <ele>312.39999389648</ele>
        <time>2023-05-30T09:59:29.000Z</time>
      </trkpt>
      <trkpt lat="46.32297" lon="3.94724">
        <ele>312.60000610352</ele>
        <time>2023-05-30T09:59:34.000Z</time>
      </trkpt>
      <trkpt lat="46.32296" lon="3.94808">
        <ele>312.39999389648</ele>
        <time>2023-05-30T09:59:45.000Z</time>
      </trkpt>
      <trkpt lat="46.32294" lon="3.94894">
        <ele>312</ele>
        <time>2023-05-30T09:59:56.000Z</time>
      </trkpt>
      <trkpt lat="46.32294" lon="3.94902">
        <ele>312</ele>
        <time>2023-05-30T09:59:57.000Z</time>
      </trkpt>
      <trkpt lat="46.32293" lon="3.94984">
        <ele>312</ele>
        <time>2023-05-30T10:00:07.000Z</time>
      </trkpt>
      <trkpt lat="46.32292" lon="3.9499">
        <ele>312</ele>
        <time>2023-05-30T10:00:08.000Z</time>
      </trkpt>
      <trkpt lat="46.32292" lon="3.95072">
        <ele>312</ele>
        <time>2023-05-30T10:00:18.000Z</time>
      </trkpt>
      <trkpt lat="46.32292" lon="3.9508">
        <ele>312</ele>
        <time>2023-05-30T10:00:19.000Z</time>
      </trkpt>
      <trkpt lat="46.32288" lon="3.95141">
        <ele>311.60000610352</ele>
        <time>2023-05-30T10:00:26.000Z</time>
      </trkpt>
      <trkpt lat="46.32288" lon="3.9515">
        <ele>311.39999389648</ele>
        <time>2023-05-30T10:00:27.000Z</time>
      </trkpt>
      <trkpt lat="46.32277" lon="3.95229">
        <ele>310.39999389648</ele>
        <time>2023-05-30T10:00:36.000Z</time>
      </trkpt>
      <trkpt lat="46.3227" lon="3.95285">
        <ele>309.39999389648</ele>
        <time>2023-05-30T10:00:42.000Z</time>
      </trkpt>
      <trkpt lat="46.32265" lon="3.95315">
        <ele>309</ele>
        <time>2023-05-30T10:00:45.000Z</time>
      </trkpt>
      <trkpt lat="46.32259" lon="3.95356">
        <ele>308.20001220703</ele>
        <time>2023-05-30T10:00:49.000Z</time>
      </trkpt>
      <trkpt lat="46.32251" lon="3.9541">
        <ele>306.79998779297</ele>
        <time>2023-05-30T10:00:54.000Z</time>
      </trkpt>
      <trkpt lat="46.3225" lon="3.95421">
        <ele>306.39999389648</ele>
        <time>2023-05-30T10:00:55.000Z</time>
      </trkpt>
      <trkpt lat="46.32244" lon="3.95455">
        <ele>305.60000610352</ele>
        <time>2023-05-30T10:00:58.000Z</time>
      </trkpt>
      <trkpt lat="46.32237" lon="3.95509">
        <ele>304.39999389648</ele>
        <time>2023-05-30T10:01:03.000Z</time>
      </trkpt>
      <trkpt lat="46.3223" lon="3.95554">
        <ele>303.39999389648</ele>
        <time>2023-05-30T10:01:07.000Z</time>
      </trkpt>
      <trkpt lat="46.32229" lon="3.95565">
        <ele>303.39999389648</ele>
        <time>2023-05-30T10:01:08.000Z</time>
      </trkpt>
      <trkpt lat="46.32216" lon="3.95649">
        <ele>302.20001220703</ele>
        <time>2023-05-30T10:01:16.000Z</time>
      </trkpt>
      <trkpt lat="46.32213" lon="3.95668">
        <ele>301.60000610352</ele>
        <time>2023-05-30T10:01:18.000Z</time>
      </trkpt>
      <trkpt lat="46.32209" lon="3.95687">
        <ele>301.20001220703</ele>
        <time>2023-05-30T10:01:20.000Z</time>
      </trkpt>
      <trkpt lat="46.32196" lon="3.95755">
        <ele>300.60000610352</ele>
        <time>2023-05-30T10:01:27.000Z</time>
      </trkpt>
      <trkpt lat="46.32194" lon="3.95785">
        <ele>300.20001220703</ele>
        <time>2023-05-30T10:01:30.000Z</time>
      </trkpt>
      <trkpt lat="46.32191" lon="3.95834">
        <ele>299.39999389648</ele>
        <time>2023-05-30T10:01:35.000Z</time>
      </trkpt>
      <trkpt lat="46.3219" lon="3.95853">
        <ele>299.20001220703</ele>
        <time>2023-05-30T10:01:37.000Z</time>
      </trkpt>
      <trkpt lat="46.32185" lon="3.95931">
        <ele>298.60000610352</ele>
        <time>2023-05-30T10:01:45.000Z</time>
      </trkpt>
      <trkpt lat="46.32182" lon="3.95982">
        <ele>298.20001220703</ele>
        <time>2023-05-30T10:01:50.000Z</time>
      </trkpt>
      <trkpt lat="46.32179" lon="3.96046">
        <ele>297</ele>
        <time>2023-05-30T10:01:56.000Z</time>
      </trkpt>
      <trkpt lat="46.32176" lon="3.96088">
        <ele>296</ele>
        <time>2023-05-30T10:02:00.000Z</time>
      </trkpt>
      <trkpt lat="46.32171" lon="3.96177">
        <ele>294.79998779297</ele>
        <time>2023-05-30T10:02:08.000Z</time>
      </trkpt>
      <trkpt lat="46.3217" lon="3.96188">
        <ele>294.20001220703</ele>
        <time>2023-05-30T10:02:09.000Z</time>
      </trkpt>
      <trkpt lat="46.32169" lon="3.9621">
        <ele>293.79998779297</ele>
        <time>2023-05-30T10:02:11.000Z</time>
      </trkpt>
      <trkpt lat="46.32166" lon="3.96253">
        <ele>292.60000610352</ele>
        <time>2023-05-30T10:02:15.000Z</time>
      </trkpt>
      <trkpt lat="46.32161" lon="3.96306">
        <ele>292.20001220703</ele>
        <time>2023-05-30T10:02:20.000Z</time>
      </trkpt>
      <trkpt lat="46.32151" lon="3.96357">
        <ele>291.60000610352</ele>
        <time>2023-05-30T10:02:25.000Z</time>
      </trkpt>
      <trkpt lat="46.32145" lon="3.96388">
        <ele>291.39999389648</ele>
        <time>2023-05-30T10:02:28.000Z</time>
      </trkpt>
      <trkpt lat="46.32129" lon="3.96463">
        <ele>291</ele>
        <time>2023-05-30T10:02:36.000Z</time>
      </trkpt>
      <trkpt lat="46.32123" lon="3.96494">
        <ele>291</ele>
        <time>2023-05-30T10:02:39.000Z</time>
      </trkpt>
      <trkpt lat="46.32108" lon="3.9657">
        <ele>291</ele>
        <time>2023-05-30T10:02:47.000Z</time>
      </trkpt>
      <trkpt lat="46.32106" lon="3.96579">
        <ele>290.79998779297</ele>
        <time>2023-05-30T10:02:48.000Z</time>
      </trkpt>
      <trkpt lat="46.32094" lon="3.96641">
        <ele>290.60000610352</ele>
        <time>2023-05-30T10:02:55.000Z</time>
      </trkpt>
      <trkpt lat="46.32089" lon="3.96669">
        <ele>290.60000610352</ele>
        <time>2023-05-30T10:02:58.000Z</time>
      </trkpt>
      <trkpt lat="46.32082" lon="3.96704">
        <ele>290.39999389648</ele>
        <time>2023-05-30T10:03:02.000Z</time>
      </trkpt>
      <trkpt lat="46.32067" lon="3.96771">
        <ele>290</ele>
        <time>2023-05-30T10:03:09.000Z</time>
      </trkpt>
      <trkpt lat="46.32063" lon="3.9678">
        <ele>289.79998779297</ele>
        <time>2023-05-30T10:03:10.000Z</time>
      </trkpt>
      <trkpt lat="46.32057" lon="3.96796">
        <ele>289.39999389648</ele>
        <time>2023-05-30T10:03:12.000Z</time>
      </trkpt>
      <trkpt lat="46.32035" lon="3.96835">
        <ele>289</ele>
        <time>2023-05-30T10:03:17.000Z</time>
      </trkpt>
      <trkpt lat="46.32009" lon="3.96881">
        <ele>288.39999389648</ele>
        <time>2023-05-30T10:03:23.000Z</time>
      </trkpt>
      <trkpt lat="46.31989" lon="3.96911">
        <ele>288.20001220703</ele>
        <time>2023-05-30T10:03:27.000Z</time>
      </trkpt>
      <trkpt lat="46.3195" lon="3.96977">
        <ele>288.20001220703</ele>
        <time>2023-05-30T10:03:36.000Z</time>
      </trkpt>
      <trkpt lat="46.31946" lon="3.96984">
        <ele>288.20001220703</ele>
        <time>2023-05-30T10:03:37.000Z</time>
      </trkpt>
      <trkpt lat="46.31911" lon="3.97046">
        <ele>288.39999389648</ele>
        <time>2023-05-30T10:03:46.000Z</time>
      </trkpt>
      <trkpt lat="46.31906" lon="3.97054">
        <ele>288.39999389648</ele>
        <time>2023-05-30T10:03:47.000Z</time>
      </trkpt>
      <trkpt lat="46.31874" lon="3.97096">
        <ele>288.79998779297</ele>
        <time>2023-05-30T10:03:54.000Z</time>
      </trkpt>
      <trkpt lat="46.31833" lon="3.9714">
        <ele>289.39999389648</ele>
        <time>2023-05-30T10:04:03.000Z</time>
      </trkpt>
      <trkpt lat="46.31829" lon="3.97144">
        <ele>289.60000610352</ele>
        <time>2023-05-30T10:04:04.000Z</time>
      </trkpt>
      <trkpt lat="46.3181" lon="3.97164">
        <ele>290.39999389648</ele>
        <time>2023-05-30T10:04:08.000Z</time>
      </trkpt>
      <trkpt lat="46.31793" lon="3.97179">
        <ele>291</ele>
        <time>2023-05-30T10:04:12.000Z</time>
      </trkpt>
      <trkpt lat="46.31778" lon="3.9719">
        <ele>291.39999389648</ele>
        <time>2023-05-30T10:04:15.000Z</time>
      </trkpt>
      <trkpt lat="46.31753" lon="3.97204">
        <ele>292</ele>
        <time>2023-05-30T10:04:20.000Z</time>
      </trkpt>
      <trkpt lat="46.31735" lon="3.97211">
        <ele>292.39999389648</ele>
        <time>2023-05-30T10:04:24.000Z</time>
      </trkpt>
      <trkpt lat="46.31706" lon="3.97225">
        <ele>293.39999389648</ele>
        <time>2023-05-30T10:04:30.000Z</time>
      </trkpt>
      <trkpt lat="46.31701" lon="3.97228">
        <ele>293.39999389648</ele>
        <time>2023-05-30T10:04:31.000Z</time>
      </trkpt>
      <trkpt lat="46.31667" lon="3.9726">
        <ele>294.60000610352</ele>
        <time>2023-05-30T10:04:39.000Z</time>
      </trkpt>
      <trkpt lat="46.3166" lon="3.97273">
        <ele>294.79998779297</ele>
        <time>2023-05-30T10:04:41.000Z</time>
      </trkpt>
      <trkpt lat="46.31649" lon="3.97299">
        <ele>295.39999389648</ele>
        <time>2023-05-30T10:04:45.000Z</time>
      </trkpt>
      <trkpt lat="46.31626" lon="3.97364">
        <ele>295.39999389648</ele>
        <time>2023-05-30T10:04:54.000Z</time>
      </trkpt>
      <trkpt lat="46.31601" lon="3.97434">
        <ele>295.20001220703</ele>
        <time>2023-05-30T10:05:03.000Z</time>
      </trkpt>
      <trkpt lat="46.31573" lon="3.9751">
        <ele>295.20001220703</ele>
        <time>2023-05-30T10:05:13.000Z</time>
      </trkpt>
      <trkpt lat="46.31561" lon="3.97542">
        <ele>295.60000610352</ele>
        <time>2023-05-30T10:05:19.000Z</time>
      </trkpt>
      <trkpt lat="46.31559" lon="3.97548">
        <ele>296</ele>
        <time>2023-05-30T10:05:20.000Z</time>
      </trkpt>
      <trkpt lat="46.31552" lon="3.97566">
        <ele>296.60000610352</ele>
        <time>2023-05-30T10:05:22.000Z</time>
      </trkpt>
      <trkpt lat="46.31542" lon="3.97594">
        <ele>297.79998779297</ele>
        <time>2023-05-30T10:05:27.000Z</time>
      </trkpt>
      <trkpt lat="46.3154" lon="3.976">
        <ele>298</ele>
        <time>2023-05-30T10:05:28.000Z</time>
      </trkpt>
      <trkpt lat="46.31534" lon="3.97616">
        <ele>298.79998779297</ele>
        <time>2023-05-30T10:05:31.000Z</time>
      </trkpt>
      <trkpt lat="46.31523" lon="3.97646">
        <ele>299.39999389648</ele>
        <time>2023-05-30T10:05:36.000Z</time>
      </trkpt>
      <trkpt lat="46.31502" lon="3.97704">
        <ele>299.39999389648</ele>
        <time>2023-05-30T10:05:46.000Z</time>
      </trkpt>
      <trkpt lat="46.31475" lon="3.97772">
        <ele>299.20001220703</ele>
        <time>2023-05-30T10:05:55.000Z</time>
      </trkpt>
      <trkpt lat="46.31453" lon="3.97831">
        <ele>298.60000610352</ele>
        <time>2023-05-30T10:06:03.000Z</time>
      </trkpt>
      <trkpt lat="46.31435" lon="3.97877">
        <ele>297.60000610352</ele>
        <time>2023-05-30T10:06:09.000Z</time>
      </trkpt>
      <trkpt lat="46.31428" lon="3.97896">
        <ele>297</ele>
        <time>2023-05-30T10:06:11.000Z</time>
      </trkpt>
      <trkpt lat="46.31422" lon="3.97912">
        <ele>296.39999389648</ele>
        <time>2023-05-30T10:06:13.000Z</time>
      </trkpt>
      <trkpt lat="46.31409" lon="3.97944">
        <ele>295.20001220703</ele>
        <time>2023-05-30T10:06:16.000Z</time>
      </trkpt>
      <trkpt lat="46.31402" lon="3.97963">
        <ele>294.79998779297</ele>
        <time>2023-05-30T10:06:18.000Z</time>
      </trkpt>
      <trkpt lat="46.31395" lon="3.97985">
        <ele>293.79998779297</ele>
        <time>2023-05-30T10:06:20.000Z</time>
      </trkpt>
      <trkpt lat="46.31382" lon="3.98019">
        <ele>292.39999389648</ele>
        <time>2023-05-30T10:06:23.000Z</time>
      </trkpt>
      <trkpt lat="46.31373" lon="3.98041">
        <ele>291.60000610352</ele>
        <time>2023-05-30T10:06:25.000Z</time>
      </trkpt>
      <trkpt lat="46.31357" lon="3.98074">
        <ele>291.20001220703</ele>
        <time>2023-05-30T10:06:28.000Z</time>
      </trkpt>
      <trkpt lat="46.31339" lon="3.98105">
        <ele>289.39999389648</ele>
        <time>2023-05-30T10:06:31.000Z</time>
      </trkpt>
      <trkpt lat="46.3132" lon="3.98133">
        <ele>287.79998779297</ele>
        <time>2023-05-30T10:06:34.000Z</time>
      </trkpt>
      <trkpt lat="46.31302" lon="3.98159">
        <ele>286.79998779297</ele>
        <time>2023-05-30T10:06:37.000Z</time>
      </trkpt>
      <trkpt lat="46.31271" lon="3.98203">
        <ele>286</ele>
        <time>2023-05-30T10:06:43.000Z</time>
      </trkpt>
      <trkpt lat="46.31249" lon="3.98233">
        <ele>286.79998779297</ele>
        <time>2023-05-30T10:06:48.000Z</time>
      </trkpt>
      <trkpt lat="46.31246" lon="3.98239">
        <ele>286.79998779297</ele>
        <time>2023-05-30T10:06:49.000Z</time>
      </trkpt>
      <trkpt lat="46.31225" lon="3.98271">
        <ele>288</ele>
        <time>2023-05-30T10:06:55.000Z</time>
      </trkpt>
      <trkpt lat="46.31222" lon="3.98276">
        <ele>288.20001220703</ele>
        <time>2023-05-30T10:06:56.000Z</time>
      </trkpt>
      <trkpt lat="46.31204" lon="3.983">
        <ele>289.60000610352</ele>
        <time>2023-05-30T10:07:01.000Z</time>
      </trkpt>
      <trkpt lat="46.31191" lon="3.9832">
        <ele>290.60000610352</ele>
        <time>2023-05-30T10:07:05.000Z</time>
      </trkpt>
      <trkpt lat="46.31187" lon="3.98325">
        <ele>290.79998779297</ele>
        <time>2023-05-30T10:07:06.000Z</time>
      </trkpt>
      <trkpt lat="46.31172" lon="3.98348">
        <ele>292</ele>
        <time>2023-05-30T10:07:11.000Z</time>
      </trkpt>
      <trkpt lat="46.31163" lon="3.98364">
        <ele>292.39999389648</ele>
        <time>2023-05-30T10:07:14.000Z</time>
      </trkpt>
      <trkpt lat="46.31146" lon="3.98397">
        <ele>293.20001220703</ele>
        <time>2023-05-30T10:07:20.000Z</time>
      </trkpt>
      <trkpt lat="46.31134" lon="3.98419">
        <ele>293.79998779297</ele>
        <time>2023-05-30T10:07:24.000Z</time>
      </trkpt>
      <trkpt lat="46.31107" lon="3.98475">
        <ele>294.20001220703</ele>
        <time>2023-05-30T10:07:34.000Z</time>
      </trkpt>
      <trkpt lat="46.31096" lon="3.98498">
        <ele>294.20001220703</ele>
        <time>2023-05-30T10:07:38.000Z</time>
      </trkpt>
      <trkpt lat="46.31083" lon="3.98523">
        <ele>294</ele>
        <time>2023-05-30T10:07:42.000Z</time>
      </trkpt>
      <trkpt lat="46.31061" lon="3.98571">
        <ele>293</ele>
        <time>2023-05-30T10:07:48.000Z</time>
      </trkpt>
      <trkpt lat="46.31044" lon="3.98609">
        <ele>291.79998779297</ele>
        <time>2023-05-30T10:07:52.000Z</time>
      </trkpt>
      <trkpt lat="46.31032" lon="3.9864">
        <ele>290.79998779297</ele>
        <time>2023-05-30T10:07:55.000Z</time>
      </trkpt>
      <trkpt lat="46.31028" lon="3.9865">
        <ele>290.60000610352</ele>
        <time>2023-05-30T10:07:56.000Z</time>
      </trkpt>
      <trkpt lat="46.31016" lon="3.98682">
        <ele>289.60000610352</ele>
        <time>2023-05-30T10:07:59.000Z</time>
      </trkpt>
      <trkpt lat="46.31006" lon="3.98707">
        <ele>289</ele>
        <time>2023-05-30T10:08:02.000Z</time>
      </trkpt>
      <trkpt lat="46.30984" lon="3.98763">
        <ele>289.39999389648</ele>
        <time>2023-05-30T10:08:09.000Z</time>
      </trkpt>
      <trkpt lat="46.30964" lon="3.98813">
        <ele>289.79998779297</ele>
        <time>2023-05-30T10:08:16.000Z</time>
      </trkpt>
      <trkpt lat="46.30956" lon="3.98832">
        <ele>289.79998779297</ele>
        <time>2023-05-30T10:08:19.000Z</time>
      </trkpt>
      <trkpt lat="46.30949" lon="3.98849">
        <ele>289.79998779297</ele>
        <time>2023-05-30T10:08:22.000Z</time>
      </trkpt>
      <trkpt lat="46.30926" lon="3.98896">
        <ele>289.20001220703</ele>
        <time>2023-05-30T10:08:29.000Z</time>
      </trkpt>
      <trkpt lat="46.30916" lon="3.98907">
        <ele>288.79998779297</ele>
        <time>2023-05-30T10:08:31.000Z</time>
      </trkpt>
      <trkpt lat="46.30906" lon="3.98915">
        <ele>288.39999389648</ele>
        <time>2023-05-30T10:08:33.000Z</time>
      </trkpt>
      <trkpt lat="46.30872" lon="3.98936">
        <ele>287.39999389648</ele>
        <time>2023-05-30T10:08:39.000Z</time>
      </trkpt>
      <trkpt lat="46.30866" lon="3.9894">
        <ele>287.20001220703</ele>
        <time>2023-05-30T10:08:40.000Z</time>
      </trkpt>
      <trkpt lat="46.30848" lon="3.98948">
        <ele>287</ele>
        <time>2023-05-30T10:08:43.000Z</time>
      </trkpt>
      <trkpt lat="46.30819" lon="3.98961">
        <ele>286.39999389648</ele>
        <time>2023-05-30T10:08:47.000Z</time>
      </trkpt>
      <trkpt lat="46.30811" lon="3.98961">
        <ele>286.39999389648</ele>
        <time>2023-05-30T10:08:48.000Z</time>
      </trkpt>
      <trkpt lat="46.30788" lon="3.98961">
        <ele>285.39999389648</ele>
        <time>2023-05-30T10:08:51.000Z</time>
      </trkpt>
      <trkpt lat="46.30782" lon="3.98961">
        <ele>285</ele>
        <time>2023-05-30T10:08:52.000Z</time>
      </trkpt>
      <trkpt lat="46.30776" lon="3.98961">
        <ele>284.60000610352</ele>
        <time>2023-05-30T10:08:53.000Z</time>
      </trkpt>
      <trkpt lat="46.30769" lon="3.9896">
        <ele>283.79998779297</ele>
        <time>2023-05-30T10:08:54.000Z</time>
      </trkpt>
      <trkpt lat="46.30762" lon="3.98958">
        <ele>283.60000610352</ele>
        <time>2023-05-30T10:08:55.000Z</time>
      </trkpt>
      <trkpt lat="46.30748" lon="3.98954">
        <ele>282.20001220703</ele>
        <time>2023-05-30T10:08:57.000Z</time>
      </trkpt>
      <trkpt lat="46.30724" lon="3.98947">
        <ele>281</ele>
        <time>2023-05-30T10:09:00.000Z</time>
      </trkpt>
      <trkpt lat="46.30689" lon="3.98937">
        <ele>279.60000610352</ele>
        <time>2023-05-30T10:09:04.000Z</time>
      </trkpt>
      <trkpt lat="46.3068" lon="3.98935">
        <ele>279</ele>
        <time>2023-05-30T10:09:05.000Z</time>
      </trkpt>
      <trkpt lat="46.30671" lon="3.98935">
        <ele>278.39999389648</ele>
        <time>2023-05-30T10:09:06.000Z</time>
      </trkpt>
      <trkpt lat="46.3064" lon="3.98938">
        <ele>277.20001220703</ele>
        <time>2023-05-30T10:09:09.000Z</time>
      </trkpt>
      <trkpt lat="46.30632" lon="3.9894">
        <ele>276.39999389648</ele>
        <time>2023-05-30T10:09:10.000Z</time>
      </trkpt>
      <trkpt lat="46.30622" lon="3.98943">
        <ele>276</ele>
        <time>2023-05-30T10:09:11.000Z</time>
      </trkpt>
      <trkpt lat="46.30598" lon="3.98951">
        <ele>274.79998779297</ele>
        <time>2023-05-30T10:09:13.000Z</time>
      </trkpt>
      <trkpt lat="46.30577" lon="3.98957">
        <ele>273.60000610352</ele>
        <time>2023-05-30T10:09:15.000Z</time>
      </trkpt>
      <trkpt lat="46.30568" lon="3.98959">
        <ele>273.39999389648</ele>
        <time>2023-05-30T10:09:16.000Z</time>
      </trkpt>
      <trkpt lat="46.30557" lon="3.98961">
        <ele>272.60000610352</ele>
        <time>2023-05-30T10:09:17.000Z</time>
      </trkpt>
      <trkpt lat="46.30532" lon="3.98964">
        <ele>271.60000610352</ele>
        <time>2023-05-30T10:09:19.000Z</time>
      </trkpt>
      <trkpt lat="46.30512" lon="3.98968">
        <ele>270</ele>
        <time>2023-05-30T10:09:21.000Z</time>
      </trkpt>
      <trkpt lat="46.305" lon="3.98973">
        <ele>269</ele>
        <time>2023-05-30T10:09:22.000Z</time>
      </trkpt>
      <trkpt lat="46.30479" lon="3.98983">
        <ele>267.39999389648</ele>
        <time>2023-05-30T10:09:24.000Z</time>
      </trkpt>
      <trkpt lat="46.30458" lon="3.98996">
        <ele>266.20001220703</ele>
        <time>2023-05-30T10:09:26.000Z</time>
      </trkpt>
      <trkpt lat="46.30448" lon="3.99003">
        <ele>266</ele>
        <time>2023-05-30T10:09:27.000Z</time>
      </trkpt>
      <trkpt lat="46.30448" lon="3.99003">
        <ele>265.20001220703</ele>
        <time>2023-05-30T10:09:28.000Z</time>
      </trkpt>
      <trkpt lat="46.30417" lon="3.99022">
        <ele>264</ele>
        <time>2023-05-30T10:09:30.000Z</time>
      </trkpt>
      <trkpt lat="46.30396" lon="3.99035">
        <ele>263</ele>
        <time>2023-05-30T10:09:32.000Z</time>
      </trkpt>
      <trkpt lat="46.30386" lon="3.99041">
        <ele>262</ele>
        <time>2023-05-30T10:09:33.000Z</time>
      </trkpt>
      <trkpt lat="46.30366" lon="3.99053">
        <ele>260.79998779297</ele>
        <time>2023-05-30T10:09:35.000Z</time>
      </trkpt>
      <trkpt lat="46.30347" lon="3.99065">
        <ele>260</ele>
        <time>2023-05-30T10:09:37.000Z</time>
      </trkpt>
      <trkpt lat="46.30338" lon="3.99071">
        <ele>259.60000610352</ele>
        <time>2023-05-30T10:09:38.000Z</time>
      </trkpt>
      <trkpt lat="46.30304" lon="3.99094">
        <ele>258.20001220703</ele>
        <time>2023-05-30T10:09:42.000Z</time>
      </trkpt>
      <trkpt lat="46.30295" lon="3.99102">
        <ele>258.20001220703</ele>
        <time>2023-05-30T10:09:43.000Z</time>
      </trkpt>
      <trkpt lat="46.30267" lon="3.99128">
        <ele>257</ele>
        <time>2023-05-30T10:09:47.000Z</time>
      </trkpt>
      <trkpt lat="46.30255" lon="3.9914">
        <ele>256.79998779297</ele>
        <time>2023-05-30T10:09:50.000Z</time>
      </trkpt>
      <trkpt lat="46.3022" lon="3.99184">
        <ele>256</ele>
        <time>2023-05-30T10:09:55.000Z</time>
      </trkpt>
      <trkpt lat="46.30213" lon="3.99193">
        <ele>256</ele>
        <time>2023-05-30T10:09:56.000Z</time>
      </trkpt>
      <trkpt lat="46.30175" lon="3.9925">
        <ele>254.80000305176</ele>
        <time>2023-05-30T10:10:03.000Z</time>
      </trkpt>
      <trkpt lat="46.30164" lon="3.99266">
        <ele>254.19999694824</ele>
        <time>2023-05-30T10:10:05.000Z</time>
      </trkpt>
      <trkpt lat="46.30147" lon="3.99294">
        <ele>253.60000610352</ele>
        <time>2023-05-30T10:10:08.000Z</time>
      </trkpt>
      <trkpt lat="46.3013" lon="3.99328">
        <ele>252.39999389648</ele>
        <time>2023-05-30T10:10:12.000Z</time>
      </trkpt>
      <trkpt lat="46.30126" lon="3.99337">
        <ele>252.19999694824</ele>
        <time>2023-05-30T10:10:13.000Z</time>
      </trkpt>
      <trkpt lat="46.30096" lon="3.99405">
        <ele>251.39999389648</ele>
        <time>2023-05-30T10:10:21.000Z</time>
      </trkpt>
      <trkpt lat="46.30092" lon="3.99413">
        <ele>251.39999389648</ele>
        <time>2023-05-30T10:10:22.000Z</time>
      </trkpt>
      <trkpt lat="46.30064" lon="3.99475">
        <ele>251.80000305176</ele>
        <time>2023-05-30T10:10:30.000Z</time>
      </trkpt>
      <trkpt lat="46.30034" lon="3.9954">
        <ele>252.19999694824</ele>
        <time>2023-05-30T10:10:39.000Z</time>
      </trkpt>
      <trkpt lat="46.30017" lon="3.99578">
        <ele>253</ele>
        <time>2023-05-30T10:10:45.000Z</time>
      </trkpt>
      <trkpt lat="46.30012" lon="3.9959">
        <ele>253.80000305176</ele>
        <time>2023-05-30T10:10:47.000Z</time>
      </trkpt>
      <trkpt lat="46.29999" lon="3.99621">
        <ele>254.80000305176</ele>
        <time>2023-05-30T10:10:52.000Z</time>
      </trkpt>
      <trkpt lat="46.29996" lon="3.99627">
        <ele>255</ele>
        <time>2023-05-30T10:10:53.000Z</time>
      </trkpt>
      <trkpt lat="46.29991" lon="3.99639">
        <ele>255.39999389648</ele>
        <time>2023-05-30T10:10:55.000Z</time>
      </trkpt>
      <trkpt lat="46.29985" lon="3.99659">
        <ele>256.20001220703</ele>
        <time>2023-05-30T10:10:58.000Z</time>
      </trkpt>
      <trkpt lat="46.2998" lon="3.99675">
        <ele>256.39999389648</ele>
        <time>2023-05-30T10:11:00.000Z</time>
      </trkpt>
      <trkpt lat="46.29964" lon="3.99714">
        <ele>256.79998779297</ele>
        <time>2023-05-30T10:11:05.000Z</time>
      </trkpt>
      <trkpt lat="46.29938" lon="3.99758">
        <ele>255.80000305176</ele>
        <time>2023-05-30T10:11:10.000Z</time>
      </trkpt>
      <trkpt lat="46.2992" lon="3.99781">
        <ele>254.80000305176</ele>
        <time>2023-05-30T10:11:13.000Z</time>
      </trkpt>
      <trkpt lat="46.29895" lon="3.99817">
        <ele>253.60000610352</ele>
        <time>2023-05-30T10:11:17.000Z</time>
      </trkpt>
      <trkpt lat="46.29868" lon="3.99855">
        <ele>252.19999694824</ele>
        <time>2023-05-30T10:11:21.000Z</time>
      </trkpt>
      <trkpt lat="46.29851" lon="3.99879">
        <ele>251</ele>
        <time>2023-05-30T10:11:24.000Z</time>
      </trkpt>
      <trkpt lat="46.29845" lon="3.99888">
        <ele>250.80000305176</ele>
        <time>2023-05-30T10:11:25.000Z</time>
      </trkpt>
      <trkpt lat="46.29828" lon="3.99914">
        <ele>250.19999694824</ele>
        <time>2023-05-30T10:11:28.000Z</time>
      </trkpt>
      <trkpt lat="46.29815" lon="3.99935">
        <ele>250</ele>
        <time>2023-05-30T10:11:31.000Z</time>
      </trkpt>
      <trkpt lat="46.29789" lon="3.99978">
        <ele>250.19999694824</ele>
        <time>2023-05-30T10:11:37.000Z</time>
      </trkpt>
      <trkpt lat="46.2975" lon="4.00042">
        <ele>250.19999694824</ele>
        <time>2023-05-30T10:11:47.000Z</time>
      </trkpt>
      <trkpt lat="46.29712" lon="4.00106">
        <ele>250.39999389648</ele>
        <time>2023-05-30T10:11:57.000Z</time>
      </trkpt>
      <trkpt lat="46.29677" lon="4.00165">
        <ele>250.39999389648</ele>
        <time>2023-05-30T10:12:06.000Z</time>
      </trkpt>
      <trkpt lat="46.29674" lon="4.0017">
        <ele>250.39999389648</ele>
        <time>2023-05-30T10:12:07.000Z</time>
      </trkpt>
      <trkpt lat="46.29657" lon="4.00194">
        <ele>250.39999389648</ele>
        <time>2023-05-30T10:12:11.000Z</time>
      </trkpt>
      <trkpt lat="46.29632" lon="4.00223">
        <ele>250.19999694824</ele>
        <time>2023-05-30T10:12:16.000Z</time>
      </trkpt>
      <trkpt lat="46.29582" lon="4.0027">
        <ele>250</ele>
        <time>2023-05-30T10:12:26.000Z</time>
      </trkpt>
      <trkpt lat="46.2953" lon="4.00315">
        <ele>250</ele>
        <time>2023-05-30T10:12:36.000Z</time>
      </trkpt>
      <trkpt lat="46.2952" lon="4.00324">
        <ele>250</ele>
        <time>2023-05-30T10:12:38.000Z</time>
      </trkpt>
      <trkpt lat="46.29472" lon="4.00367">
        <ele>249.60000610352</ele>
        <time>2023-05-30T10:12:47.000Z</time>
      </trkpt>
      <trkpt lat="46.29461" lon="4.00377">
        <ele>249.60000610352</ele>
        <time>2023-05-30T10:12:49.000Z</time>
      </trkpt>
      <trkpt lat="46.29427" lon="4.00407">
        <ele>249.19999694824</ele>
        <time>2023-05-30T10:12:55.000Z</time>
      </trkpt>
      <trkpt lat="46.29396" lon="4.00435">
        <ele>249</ele>
        <time>2023-05-30T10:13:01.000Z</time>
      </trkpt>
      <trkpt lat="46.29348" lon="4.00477">
        <ele>249</ele>
        <time>2023-05-30T10:13:10.000Z</time>
      </trkpt>
      <trkpt lat="46.29301" lon="4.00507">
        <ele>248.80000305176</ele>
        <time>2023-05-30T10:13:18.000Z</time>
      </trkpt>
      <trkpt lat="46.2925" lon="4.00536">
        <ele>248.80000305176</ele>
        <time>2023-05-30T10:13:27.000Z</time>
      </trkpt>
      <trkpt lat="46.29244" lon="4.00539">
        <ele>248.80000305176</ele>
        <time>2023-05-30T10:13:28.000Z</time>
      </trkpt>
      <trkpt lat="46.29189" lon="4.00569">
        <ele>249.19999694824</ele>
        <time>2023-05-30T10:13:38.000Z</time>
      </trkpt>
      <trkpt lat="46.29183" lon="4.00572">
        <ele>249.19999694824</ele>
        <time>2023-05-30T10:13:39.000Z</time>
      </trkpt>
      <trkpt lat="46.29131" lon="4.00594">
        <ele>249.60000610352</ele>
        <time>2023-05-30T10:13:48.000Z</time>
      </trkpt>
      <trkpt lat="46.29085" lon="4.00609">
        <ele>249.60000610352</ele>
        <time>2023-05-30T10:13:56.000Z</time>
      </trkpt>
      <trkpt lat="46.29028" lon="4.00625">
        <ele>249.60000610352</ele>
        <time>2023-05-30T10:14:05.000Z</time>
      </trkpt>
      <trkpt lat="46.29011" lon="4.00631">
        <ele>249.60000610352</ele>
        <time>2023-05-30T10:14:08.000Z</time>
      </trkpt>
      <trkpt lat="46.28956" lon="4.00647">
        <ele>249.19999694824</ele>
        <time>2023-05-30T10:14:17.000Z</time>
      </trkpt>
      <trkpt lat="46.28949" lon="4.00649">
        <ele>249.39999389648</ele>
        <time>2023-05-30T10:14:18.000Z</time>
      </trkpt>
      <trkpt lat="46.28917" lon="4.00657">
        <ele>249</ele>
        <time>2023-05-30T10:14:23.000Z</time>
      </trkpt>
      <trkpt lat="46.28903" lon="4.0066">
        <ele>249</ele>
        <time>2023-05-30T10:14:25.000Z</time>
      </trkpt>
      <trkpt lat="46.28847" lon="4.00671">
        <ele>249</ele>
        <time>2023-05-30T10:14:34.000Z</time>
      </trkpt>
      <trkpt lat="46.28834" lon="4.00674">
        <ele>249</ele>
        <time>2023-05-30T10:14:36.000Z</time>
      </trkpt>
      <trkpt lat="46.28779" lon="4.00684">
        <ele>248.80000305176</ele>
        <time>2023-05-30T10:14:45.000Z</time>
      </trkpt>
      <trkpt lat="46.28773" lon="4.00685">
        <ele>249</ele>
        <time>2023-05-30T10:14:46.000Z</time>
      </trkpt>
      <trkpt lat="46.28713" lon="4.0069">
        <ele>249.60000610352</ele>
        <time>2023-05-30T10:14:56.000Z</time>
      </trkpt>
      <trkpt lat="46.28695" lon="4.0069">
        <ele>249.60000610352</ele>
        <time>2023-05-30T10:14:59.000Z</time>
      </trkpt>
      <trkpt lat="46.2864" lon="4.0069">
        <ele>250</ele>
        <time>2023-05-30T10:15:08.000Z</time>
      </trkpt>
      <trkpt lat="46.28616" lon="4.0069">
        <ele>250.19999694824</ele>
        <time>2023-05-30T10:15:12.000Z</time>
      </trkpt>
      <trkpt lat="46.28605" lon="4.0069">
        <ele>250.39999389648</ele>
        <time>2023-05-30T10:15:14.000Z</time>
      </trkpt>
      <trkpt lat="46.28563" lon="4.00694">
        <ele>250.80000305176</ele>
        <time>2023-05-30T10:15:21.000Z</time>
      </trkpt>
      <trkpt lat="46.28517" lon="4.00708">
        <ele>250.80000305176</ele>
        <time>2023-05-30T10:15:29.000Z</time>
      </trkpt>
      <trkpt lat="46.28464" lon="4.00725">
        <ele>250.80000305176</ele>
        <time>2023-05-30T10:15:38.000Z</time>
      </trkpt>
      <trkpt lat="46.28425" lon="4.00751">
        <ele>251</ele>
        <time>2023-05-30T10:15:45.000Z</time>
      </trkpt>
      <trkpt lat="46.28388" lon="4.00796">
        <ele>251</ele>
        <time>2023-05-30T10:15:53.000Z</time>
      </trkpt>
      <trkpt lat="46.28351" lon="4.00846">
        <ele>251</ele>
        <time>2023-05-30T10:16:01.000Z</time>
      </trkpt>
      <trkpt lat="46.28311" lon="4.00901">
        <ele>250.80000305176</ele>
        <time>2023-05-30T10:16:10.000Z</time>
      </trkpt>
      <trkpt lat="46.28307" lon="4.00907">
        <ele>250.80000305176</ele>
        <time>2023-05-30T10:16:11.000Z</time>
      </trkpt>
      <trkpt lat="46.28281" lon="4.00944">
        <ele>250.80000305176</ele>
        <time>2023-05-30T10:16:17.000Z</time>
      </trkpt>
      <trkpt lat="46.28276" lon="4.0095">
        <ele>250.60000610352</ele>
        <time>2023-05-30T10:16:18.000Z</time>
      </trkpt>
      <trkpt lat="46.28238" lon="4.00998">
        <ele>250.60000610352</ele>
        <time>2023-05-30T10:16:26.000Z</time>
      </trkpt>
      <trkpt lat="46.28198" lon="4.01053">
        <ele>250.80000305176</ele>
        <time>2023-05-30T10:16:35.000Z</time>
      </trkpt>
      <trkpt lat="46.2819" lon="4.01064">
        <ele>250.80000305176</ele>
        <time>2023-05-30T10:16:37.000Z</time>
      </trkpt>
      <trkpt lat="46.28152" lon="4.01118">
        <ele>251</ele>
        <time>2023-05-30T10:16:46.000Z</time>
      </trkpt>
      <trkpt lat="46.28144" lon="4.01129">
        <ele>251</ele>
        <time>2023-05-30T10:16:48.000Z</time>
      </trkpt>
      <trkpt lat="46.28133" lon="4.01139">
        <ele>251</ele>
        <time>2023-05-30T10:16:51.000Z</time>
      </trkpt>
      <trkpt lat="46.28125" lon="4.01147">
        <ele>250.80000305176</ele>
        <time>2023-05-30T10:16:55.000Z</time>
      </trkpt>
      <trkpt lat="46.28125" lon="4.01148">
        <ele>250.60000610352</ele>
        <time>2023-05-30T10:16:58.000Z</time>
      </trkpt>
      <trkpt lat="46.28124" lon="4.01151">
        <ele>250.39999389648</ele>
        <time>2023-05-30T10:20:55.000Z</time>
      </trkpt>
      <trkpt lat="46.28115" lon="4.0117">
        <ele>250.19999694824</ele>
        <time>2023-05-30T10:21:00.000Z</time>
      </trkpt>
      <trkpt lat="46.28097" lon="4.01203">
        <ele>250</ele>
        <time>2023-05-30T10:21:06.000Z</time>
      </trkpt>
      <trkpt lat="46.2809" lon="4.01214">
        <ele>250</ele>
        <time>2023-05-30T10:21:08.000Z</time>
      </trkpt>
      <trkpt lat="46.28077" lon="4.01227">
        <ele>250</ele>
        <time>2023-05-30T10:21:11.000Z</time>
      </trkpt>
      <trkpt lat="46.28072" lon="4.01231">
        <ele>250</ele>
        <time>2023-05-30T10:21:12.000Z</time>
      </trkpt>
      <trkpt lat="46.28051" lon="4.01244">
        <ele>250</ele>
        <time>2023-05-30T10:21:16.000Z</time>
      </trkpt>
      <trkpt lat="46.2804" lon="4.01246">
        <ele>250</ele>
        <time>2023-05-30T10:21:18.000Z</time>
      </trkpt>
      <trkpt lat="46.28002" lon="4.01247">
        <ele>250.19999694824</ele>
        <time>2023-05-30T10:21:25.000Z</time>
      </trkpt>
      <trkpt lat="46.27957" lon="4.01246">
        <ele>250.19999694824</ele>
        <time>2023-05-30T10:21:33.000Z</time>
      </trkpt>
      <trkpt lat="46.27942" lon="4.01248">
        <ele>250</ele>
        <time>2023-05-30T10:21:36.000Z</time>
      </trkpt>
      <trkpt lat="46.27937" lon="4.01252">
        <ele>250</ele>
        <time>2023-05-30T10:21:37.000Z</time>
      </trkpt>
      <trkpt lat="46.27934" lon="4.01258">
        <ele>250</ele>
        <time>2023-05-30T10:21:38.000Z</time>
      </trkpt>
      <trkpt lat="46.27927" lon="4.01279">
        <ele>249.80000305176</ele>
        <time>2023-05-30T10:21:41.000Z</time>
      </trkpt>
      <trkpt lat="46.27913" lon="4.01337">
        <ele>250.19999694824</ele>
        <time>2023-05-30T10:21:49.000Z</time>
      </trkpt>
      <trkpt lat="46.27911" lon="4.01344">
        <ele>250.39999389648</ele>
        <time>2023-05-30T10:21:50.000Z</time>
      </trkpt>
      <trkpt lat="46.27905" lon="4.01353">
        <ele>250.60000610352</ele>
        <time>2023-05-30T10:21:52.000Z</time>
      </trkpt>
      <trkpt lat="46.27894" lon="4.01354">
        <ele>250.80000305176</ele>
        <time>2023-05-30T10:21:54.000Z</time>
      </trkpt>
      <trkpt lat="46.27889" lon="4.01353">
        <ele>250.80000305176</ele>
        <time>2023-05-30T10:21:55.000Z</time>
      </trkpt>
      <trkpt lat="46.27868" lon="4.01344">
        <ele>250.80000305176</ele>
        <time>2023-05-30T10:21:59.000Z</time>
      </trkpt>
      <trkpt lat="46.27857" lon="4.01338">
        <ele>250.60000610352</ele>
        <time>2023-05-30T10:22:01.000Z</time>
      </trkpt>
      <trkpt lat="46.27822" lon="4.01322">
        <ele>250.19999694824</ele>
        <time>2023-05-30T10:22:07.000Z</time>
      </trkpt>
      <trkpt lat="46.27766" lon="4.01302">
        <ele>249.80000305176</ele>
        <time>2023-05-30T10:22:17.000Z</time>
      </trkpt>
      <trkpt lat="46.27743" lon="4.01292">
        <ele>249.80000305176</ele>
        <time>2023-05-30T10:22:23.000Z</time>
      </trkpt>
      <trkpt lat="46.27733" lon="4.01291">
        <ele>249.39999389648</ele>
        <time>2023-05-30T10:22:27.000Z</time>
      </trkpt>
      <trkpt lat="46.27731" lon="4.01293">
        <ele>249.39999389648</ele>
        <time>2023-05-30T10:22:28.000Z</time>
      </trkpt>
      <trkpt lat="46.27728" lon="4.01302">
        <ele>249.19999694824</ele>
        <time>2023-05-30T10:22:30.000Z</time>
      </trkpt>
      <trkpt lat="46.27728" lon="4.0133">
        <ele>249.19999694824</ele>
        <time>2023-05-30T10:22:34.000Z</time>
      </trkpt>
      <trkpt lat="46.27728" lon="4.01351">
        <ele>249.19999694824</ele>
        <time>2023-05-30T10:22:37.000Z</time>
      </trkpt>
      <trkpt lat="46.2773" lon="4.01377">
        <ele>249.80000305176</ele>
        <time>2023-05-30T10:22:41.000Z</time>
      </trkpt>
      <trkpt lat="46.27731" lon="4.01391">
        <ele>250.19999694824</ele>
        <time>2023-05-30T10:22:43.000Z</time>
      </trkpt>
      <trkpt lat="46.27731" lon="4.01403">
        <ele>250.60000610352</ele>
        <time>2023-05-30T10:22:45.000Z</time>
      </trkpt>
      <trkpt lat="46.27732" lon="4.01417">
        <ele>250.80000305176</ele>
        <time>2023-05-30T10:22:47.000Z</time>
      </trkpt>
      <trkpt lat="46.27732" lon="4.01423">
        <ele>251</ele>
        <time>2023-05-30T10:22:48.000Z</time>
      </trkpt>
      <trkpt lat="46.27733" lon="4.01448">
        <ele>251.80000305176</ele>
        <time>2023-05-30T10:22:52.000Z</time>
      </trkpt>
      <trkpt lat="46.27733" lon="4.01467">
        <ele>252.19999694824</ele>
        <time>2023-05-30T10:22:55.000Z</time>
      </trkpt>
      <trkpt lat="46.27731" lon="4.015">
        <ele>253</ele>
        <time>2023-05-30T10:23:00.000Z</time>
      </trkpt>
      <trkpt lat="46.27731" lon="4.0152">
        <ele>253.39999389648</ele>
        <time>2023-05-30T10:23:03.000Z</time>
      </trkpt>
      <trkpt lat="46.2773" lon="4.01543">
        <ele>253.80000305176</ele>
        <time>2023-05-30T10:23:06.000Z</time>
      </trkpt>
      <trkpt lat="46.27728" lon="4.01616">
        <ele>254</ele>
        <time>2023-05-30T10:23:15.000Z</time>
      </trkpt>
      <trkpt lat="46.27723" lon="4.01697">
        <ele>253.80000305176</ele>
        <time>2023-05-30T10:23:24.000Z</time>
      </trkpt>
      <trkpt lat="46.27714" lon="4.01747">
        <ele>253</ele>
        <time>2023-05-30T10:23:29.000Z</time>
      </trkpt>
      <trkpt lat="46.27712" lon="4.01766">
        <ele>252.60000610352</ele>
        <time>2023-05-30T10:23:31.000Z</time>
      </trkpt>
      <trkpt lat="46.2771" lon="4.01796">
        <ele>251.39999389648</ele>
        <time>2023-05-30T10:23:34.000Z</time>
      </trkpt>
      <trkpt lat="46.27709" lon="4.01825">
        <ele>251</ele>
        <time>2023-05-30T10:23:37.000Z</time>
      </trkpt>
      <trkpt lat="46.27709" lon="4.01845">
        <ele>250.39999389648</ele>
        <time>2023-05-30T10:23:39.000Z</time>
      </trkpt>
      <trkpt lat="46.27707" lon="4.01883">
        <ele>249.80000305176</ele>
        <time>2023-05-30T10:23:43.000Z</time>
      </trkpt>
      <trkpt lat="46.27704" lon="4.01964">
        <ele>249.39999389648</ele>
        <time>2023-05-30T10:23:52.000Z</time>
      </trkpt>
      <trkpt lat="46.277" lon="4.02033">
        <ele>249.60000610352</ele>
        <time>2023-05-30T10:24:00.000Z</time>
      </trkpt>
      <trkpt lat="46.27698" lon="4.02112">
        <ele>249.39999389648</ele>
        <time>2023-05-30T10:24:09.000Z</time>
      </trkpt>
      <trkpt lat="46.27697" lon="4.02129">
        <ele>249.19999694824</ele>
        <time>2023-05-30T10:24:11.000Z</time>
      </trkpt>
      <trkpt lat="46.27694" lon="4.02215">
        <ele>249.19999694824</ele>
        <time>2023-05-30T10:24:21.000Z</time>
      </trkpt>
      <trkpt lat="46.27693" lon="4.02302">
        <ele>249</ele>
        <time>2023-05-30T10:24:31.000Z</time>
      </trkpt>
      <trkpt lat="46.27702" lon="4.0236">
        <ele>249.19999694824</ele>
        <time>2023-05-30T10:24:38.000Z</time>
      </trkpt>
      <trkpt lat="46.27719" lon="4.02434">
        <ele>249.19999694824</ele>
        <time>2023-05-30T10:24:47.000Z</time>
      </trkpt>
      <trkpt lat="46.27721" lon="4.02442">
        <ele>249.19999694824</ele>
        <time>2023-05-30T10:24:48.000Z</time>
      </trkpt>
      <trkpt lat="46.27738" lon="4.02518">
        <ele>249.19999694824</ele>
        <time>2023-05-30T10:24:57.000Z</time>
      </trkpt>
      <trkpt lat="46.2774" lon="4.02527">
        <ele>249.39999389648</ele>
        <time>2023-05-30T10:24:58.000Z</time>
      </trkpt>
      <trkpt lat="46.27747" lon="4.02593">
        <ele>249.39999389648</ele>
        <time>2023-05-30T10:25:06.000Z</time>
      </trkpt>
      <trkpt lat="46.2775" lon="4.02639">
        <ele>250</ele>
        <time>2023-05-30T10:25:12.000Z</time>
      </trkpt>
      <trkpt lat="46.27751" lon="4.02672">
        <ele>250.80000305176</ele>
        <time>2023-05-30T10:25:17.000Z</time>
      </trkpt>
      <trkpt lat="46.27753" lon="4.02694">
        <ele>251.19999694824</ele>
        <time>2023-05-30T10:25:20.000Z</time>
      </trkpt>
      <trkpt lat="46.27756" lon="4.0272">
        <ele>251.80000305176</ele>
        <time>2023-05-30T10:25:24.000Z</time>
      </trkpt>
      <trkpt lat="46.27758" lon="4.02746">
        <ele>252.60000610352</ele>
        <time>2023-05-30T10:25:28.000Z</time>
      </trkpt>
      <trkpt lat="46.27758" lon="4.02759">
        <ele>252.80000305176</ele>
        <time>2023-05-30T10:25:30.000Z</time>
      </trkpt>
      <trkpt lat="46.27759" lon="4.02764">
        <ele>253</ele>
        <time>2023-05-30T10:25:31.000Z</time>
      </trkpt>
      <trkpt lat="46.27762" lon="4.02813">
        <ele>254.19999694824</ele>
        <time>2023-05-30T10:25:38.000Z</time>
      </trkpt>
      <trkpt lat="46.27762" lon="4.02826">
        <ele>254.60000610352</ele>
        <time>2023-05-30T10:25:40.000Z</time>
      </trkpt>
      <trkpt lat="46.27765" lon="4.0286">
        <ele>255.39999389648</ele>
        <time>2023-05-30T10:25:45.000Z</time>
      </trkpt>
      <trkpt lat="46.27767" lon="4.02894">
        <ele>255.80000305176</ele>
        <time>2023-05-30T10:25:50.000Z</time>
      </trkpt>
      <trkpt lat="46.27769" lon="4.0293">
        <ele>256.39999389648</ele>
        <time>2023-05-30T10:25:55.000Z</time>
      </trkpt>
      <trkpt lat="46.27773" lon="4.02972">
        <ele>256.79998779297</ele>
        <time>2023-05-30T10:26:01.000Z</time>
      </trkpt>
      <trkpt lat="46.27777" lon="4.03046">
        <ele>257</ele>
        <time>2023-05-30T10:26:11.000Z</time>
      </trkpt>
      <trkpt lat="46.2777" lon="4.03112">
        <ele>256.39999389648</ele>
        <time>2023-05-30T10:26:19.000Z</time>
      </trkpt>
      <trkpt lat="46.27749" lon="4.0318">
        <ele>255.60000610352</ele>
        <time>2023-05-30T10:26:27.000Z</time>
      </trkpt>
      <trkpt lat="46.27745" lon="4.03188">
        <ele>255.39999389648</ele>
        <time>2023-05-30T10:26:28.000Z</time>
      </trkpt>
      <trkpt lat="46.27728" lon="4.03228">
        <ele>254.19999694824</ele>
        <time>2023-05-30T10:26:33.000Z</time>
      </trkpt>
      <trkpt lat="46.27716" lon="4.03253">
        <ele>253.80000305176</ele>
        <time>2023-05-30T10:26:36.000Z</time>
      </trkpt>
      <trkpt lat="46.27704" lon="4.03278">
        <ele>253.19999694824</ele>
        <time>2023-05-30T10:26:39.000Z</time>
      </trkpt>
      <trkpt lat="46.27689" lon="4.03304">
        <ele>252.80000305176</ele>
        <time>2023-05-30T10:26:42.000Z</time>
      </trkpt>
      <trkpt lat="46.27683" lon="4.03311">
        <ele>252.60000610352</ele>
        <time>2023-05-30T10:26:43.000Z</time>
      </trkpt>
      <trkpt lat="46.27676" lon="4.03315">
        <ele>252.19999694824</ele>
        <time>2023-05-30T10:26:44.000Z</time>
      </trkpt>
      <trkpt lat="46.27663" lon="4.03322">
        <ele>251.80000305176</ele>
        <time>2023-05-30T10:26:46.000Z</time>
      </trkpt>
      <trkpt lat="46.27654" lon="4.03335">
        <ele>251.60000610352</ele>
        <time>2023-05-30T10:26:48.000Z</time>
      </trkpt>
      <trkpt lat="46.27654" lon="4.03352">
        <ele>251.39999389648</ele>
        <time>2023-05-30T10:26:50.000Z</time>
      </trkpt>
      <trkpt lat="46.27654" lon="4.03362">
        <ele>251.39999389648</ele>
        <time>2023-05-30T10:26:51.000Z</time>
      </trkpt>
      <trkpt lat="46.27655" lon="4.03371">
        <ele>251.39999389648</ele>
        <time>2023-05-30T10:26:52.000Z</time>
      </trkpt>
      <trkpt lat="46.27653" lon="4.03379">
        <ele>251.39999389648</ele>
        <time>2023-05-30T10:26:54.000Z</time>
      </trkpt>
      <trkpt lat="46.27649" lon="4.03395">
        <ele>251.19999694824</ele>
        <time>2023-05-30T10:26:55.000Z</time>
      </trkpt>
      <trkpt lat="46.27641" lon="4.03417">
        <ele>251.39999389648</ele>
        <time>2023-05-30T10:26:58.000Z</time>
      </trkpt>
      <trkpt lat="46.27617" lon="4.03478">
        <ele>251.60000610352</ele>
        <time>2023-05-30T10:27:07.000Z</time>
      </trkpt>
      <trkpt lat="46.2759" lon="4.03536">
        <ele>253.19999694824</ele>
        <time>2023-05-30T10:27:17.000Z</time>
      </trkpt>
      <trkpt lat="46.2755" lon="4.03609">
        <ele>254.19999694824</ele>
        <time>2023-05-30T10:27:28.000Z</time>
      </trkpt>
      <trkpt lat="46.27547" lon="4.03614">
        <ele>254.19999694824</ele>
        <time>2023-05-30T10:27:29.000Z</time>
      </trkpt>
      <trkpt lat="46.27534" lon="4.03633">
        <ele>255.39999389648</ele>
        <time>2023-05-30T10:27:34.000Z</time>
      </trkpt>
      <trkpt lat="46.27527" lon="4.03643">
        <ele>255.80000305176</ele>
        <time>2023-05-30T10:27:35.000Z</time>
      </trkpt>
      <trkpt lat="46.27527" lon="4.03643">
        <ele>255.80000305176</ele>
        <time>2023-05-30T10:27:36.000Z</time>
      </trkpt>
      <trkpt lat="46.27511" lon="4.03669">
        <ele>256.39999389648</ele>
        <time>2023-05-30T10:27:40.000Z</time>
      </trkpt>
      <trkpt lat="46.27503" lon="4.03679">
        <ele>257</ele>
        <time>2023-05-30T10:27:43.000Z</time>
      </trkpt>
      <trkpt lat="46.27492" lon="4.03693">
        <ele>257.60000610352</ele>
        <time>2023-05-30T10:27:45.000Z</time>
      </trkpt>
      <trkpt lat="46.27475" lon="4.03708">
        <ele>258.39999389648</ele>
        <time>2023-05-30T10:27:49.000Z</time>
      </trkpt>
      <trkpt lat="46.27471" lon="4.03711">
        <ele>258.39999389648</ele>
        <time>2023-05-30T10:27:50.000Z</time>
      </trkpt>
      <trkpt lat="46.27467" lon="4.03715">
        <ele>258.60000610352</ele>
        <time>2023-05-30T10:27:52.000Z</time>
      </trkpt>
      <trkpt lat="46.2745" lon="4.03732">
        <ele>258.79998779297</ele>
        <time>2023-05-30T10:27:55.000Z</time>
      </trkpt>
      <trkpt lat="46.27447" lon="4.03737">
        <ele>259</ele>
        <time>2023-05-30T10:27:57.000Z</time>
      </trkpt>
      <trkpt lat="46.27445" lon="4.03759">
        <ele>259.20001220703</ele>
        <time>2023-05-30T10:27:59.000Z</time>
      </trkpt>
      <trkpt lat="46.27445" lon="4.03759">
        <ele>259.20001220703</ele>
        <time>2023-05-30T10:28:00.000Z</time>
      </trkpt>
      <trkpt lat="46.27454" lon="4.03813">
        <ele>259.79998779297</ele>
        <time>2023-05-30T10:28:07.000Z</time>
      </trkpt>
      <trkpt lat="46.27453" lon="4.03821">
        <ele>260</ele>
        <time>2023-05-30T10:28:08.000Z</time>
      </trkpt>
      <trkpt lat="46.27457" lon="4.03844">
        <ele>260.20001220703</ele>
        <time>2023-05-30T10:28:10.000Z</time>
      </trkpt>
      <trkpt lat="46.27459" lon="4.03882">
        <ele>260.60000610352</ele>
        <time>2023-05-30T10:28:15.000Z</time>
      </trkpt>
      <trkpt lat="46.27461" lon="4.03934">
        <ele>260.79998779297</ele>
        <time>2023-05-30T10:28:23.000Z</time>
      </trkpt>
      <trkpt lat="46.27462" lon="4.03954">
        <ele>261</ele>
        <time>2023-05-30T10:28:26.000Z</time>
      </trkpt>
      <trkpt lat="46.27462" lon="4.03966">
        <ele>261.20001220703</ele>
        <time>2023-05-30T10:28:28.000Z</time>
      </trkpt>
      <trkpt lat="46.2746" lon="4.03971">
        <ele>261.20001220703</ele>
        <time>2023-05-30T10:28:30.000Z</time>
      </trkpt>
      <trkpt lat="46.27458" lon="4.03972">
        <ele>261.39999389648</ele>
        <time>2023-05-30T10:28:31.000Z</time>
      </trkpt>
      <trkpt lat="46.27445" lon="4.03973">
        <ele>261.60000610352</ele>
        <time>2023-05-30T10:28:33.000Z</time>
      </trkpt>
      <trkpt lat="46.27436" lon="4.03975">
        <ele>261.79998779297</ele>
        <time>2023-05-30T10:28:35.000Z</time>
      </trkpt>
      <trkpt lat="46.27436" lon="4.03975">
        <ele>262</ele>
        <time>2023-05-30T10:28:36.000Z</time>
      </trkpt>
      <trkpt lat="46.27426" lon="4.03977">
        <ele>262</ele>
        <time>2023-05-30T10:28:37.000Z</time>
      </trkpt>
      <trkpt lat="46.27422" lon="4.0398">
        <ele>262</ele>
        <time>2023-05-30T10:28:39.000Z</time>
      </trkpt>
      <trkpt lat="46.27403" lon="4.03993">
        <ele>262.20001220703</ele>
        <time>2023-05-30T10:28:42.000Z</time>
      </trkpt>
      <trkpt lat="46.27394" lon="4.04">
        <ele>262.39999389648</ele>
        <time>2023-05-30T10:28:44.000Z</time>
      </trkpt>
      <trkpt lat="46.2739" lon="4.04003">
        <ele>262.79998779297</ele>
        <time>2023-05-30T10:28:46.000Z</time>
      </trkpt>
      <trkpt lat="46.27385" lon="4.04005">
        <ele>262.79998779297</ele>
        <time>2023-05-30T10:28:47.000Z</time>
      </trkpt>
      <trkpt lat="46.27372" lon="4.04017">
        <ele>263</ele>
        <time>2023-05-30T10:28:49.000Z</time>
      </trkpt>
      <trkpt lat="46.27368" lon="4.04023">
        <ele>263</ele>
        <time>2023-05-30T10:28:51.000Z</time>
      </trkpt>
      <trkpt lat="46.27348" lon="4.04055">
        <ele>263.39999389648</ele>
        <time>2023-05-30T10:28:57.000Z</time>
      </trkpt>
      <trkpt lat="46.27341" lon="4.04074">
        <ele>263.79998779297</ele>
        <time>2023-05-30T10:28:59.000Z</time>
      </trkpt>
      <trkpt lat="46.27335" lon="4.041">
        <ele>264.20001220703</ele>
        <time>2023-05-30T10:29:03.000Z</time>
      </trkpt>
      <trkpt lat="46.27332" lon="4.04111">
        <ele>264.60000610352</ele>
        <time>2023-05-30T10:29:06.000Z</time>
      </trkpt>
      <trkpt lat="46.27331" lon="4.04134">
        <ele>265.20001220703</ele>
        <time>2023-05-30T10:29:11.000Z</time>
      </trkpt>
      <trkpt lat="46.2733" lon="4.04138">
        <ele>265.39999389648</ele>
        <time>2023-05-30T10:29:12.000Z</time>
      </trkpt>
      <trkpt lat="46.27326" lon="4.04158">
        <ele>266.39999389648</ele>
        <time>2023-05-30T10:29:17.000Z</time>
      </trkpt>
      <trkpt lat="46.27324" lon="4.04175">
        <ele>267.39999389648</ele>
        <time>2023-05-30T10:29:21.000Z</time>
      </trkpt>
      <trkpt lat="46.27326" lon="4.04191">
        <ele>268.39999389648</ele>
        <time>2023-05-30T10:29:24.000Z</time>
      </trkpt>
      <trkpt lat="46.27328" lon="4.04204">
        <ele>269.39999389648</ele>
        <time>2023-05-30T10:29:28.000Z</time>
      </trkpt>
      <trkpt lat="46.27331" lon="4.04227">
        <ele>270.60000610352</ele>
        <time>2023-05-30T10:29:33.000Z</time>
      </trkpt>
      <trkpt lat="46.27333" lon="4.0425">
        <ele>271.79998779297</ele>
        <time>2023-05-30T10:29:38.000Z</time>
      </trkpt>
      <trkpt lat="46.27335" lon="4.04269">
        <ele>272.60000610352</ele>
        <time>2023-05-30T10:29:41.000Z</time>
      </trkpt>
      <trkpt lat="46.27335" lon="4.04269">
        <ele>272.79998779297</ele>
        <time>2023-05-30T10:29:42.000Z</time>
      </trkpt>
      <trkpt lat="46.27335" lon="4.04292">
        <ele>273.79998779297</ele>
        <time>2023-05-30T10:29:47.000Z</time>
      </trkpt>
      <trkpt lat="46.27336" lon="4.0431">
        <ele>274.39999389648</ele>
        <time>2023-05-30T10:29:50.000Z</time>
      </trkpt>
      <trkpt lat="46.27335" lon="4.0432">
        <ele>275</ele>
        <time>2023-05-30T10:29:52.000Z</time>
      </trkpt>
      <trkpt lat="46.27329" lon="4.04341">
        <ele>275.79998779297</ele>
        <time>2023-05-30T10:29:58.000Z</time>
      </trkpt>
      <trkpt lat="46.27326" lon="4.04349">
        <ele>276.20001220703</ele>
        <time>2023-05-30T10:29:59.000Z</time>
      </trkpt>
      <trkpt lat="46.27317" lon="4.04367">
        <ele>277.39999389648</ele>
        <time>2023-05-30T10:30:05.000Z</time>
      </trkpt>
      <trkpt lat="46.27309" lon="4.0438">
        <ele>278</ele>
        <time>2023-05-30T10:30:08.000Z</time>
      </trkpt>
      <trkpt lat="46.27302" lon="4.0439">
        <ele>278.39999389648</ele>
        <time>2023-05-30T10:30:11.000Z</time>
      </trkpt>
      <trkpt lat="46.27291" lon="4.04411">
        <ele>279.60000610352</ele>
        <time>2023-05-30T10:30:17.000Z</time>
      </trkpt>
      <trkpt lat="46.27289" lon="4.04414">
        <ele>280.20001220703</ele>
        <time>2023-05-30T10:30:19.000Z</time>
      </trkpt>
      <trkpt lat="46.27278" lon="4.04433">
        <ele>280.60000610352</ele>
        <time>2023-05-30T10:30:23.000Z</time>
      </trkpt>
      <trkpt lat="46.27267" lon="4.04457">
        <ele>281.79998779297</ele>
        <time>2023-05-30T10:30:30.000Z</time>
      </trkpt>
      <trkpt lat="46.27266" lon="4.04461">
        <ele>282</ele>
        <time>2023-05-30T10:30:31.000Z</time>
      </trkpt>
      <trkpt lat="46.27258" lon="4.04482">
        <ele>282.79998779297</ele>
        <time>2023-05-30T10:30:36.000Z</time>
      </trkpt>
      <trkpt lat="46.27253" lon="4.04498">
        <ele>284</ele>
        <time>2023-05-30T10:30:40.000Z</time>
      </trkpt>
      <trkpt lat="46.27251" lon="4.04502">
        <ele>284.20001220703</ele>
        <time>2023-05-30T10:30:41.000Z</time>
      </trkpt>
      <trkpt lat="46.27244" lon="4.04519">
        <ele>285</ele>
        <time>2023-05-30T10:30:45.000Z</time>
      </trkpt>
      <trkpt lat="46.27243" lon="4.04523">
        <ele>285</ele>
        <time>2023-05-30T10:30:46.000Z</time>
      </trkpt>
      <trkpt lat="46.27233" lon="4.04545">
        <ele>286</ele>
        <time>2023-05-30T10:30:51.000Z</time>
      </trkpt>
      <trkpt lat="46.27229" lon="4.04553">
        <ele>286.20001220703</ele>
        <time>2023-05-30T10:30:53.000Z</time>
      </trkpt>
      <trkpt lat="46.27214" lon="4.04574">
        <ele>286.79998779297</ele>
        <time>2023-05-30T10:30:58.000Z</time>
      </trkpt>
      <trkpt lat="46.27205" lon="4.04584">
        <ele>287.20001220703</ele>
        <time>2023-05-30T10:31:01.000Z</time>
      </trkpt>
      <trkpt lat="46.27187" lon="4.04607">
        <ele>287.60000610352</ele>
        <time>2023-05-30T10:31:07.000Z</time>
      </trkpt>
      <trkpt lat="46.27168" lon="4.04643">
        <ele>288.20001220703</ele>
        <time>2023-05-30T10:31:14.000Z</time>
      </trkpt>
      <trkpt lat="46.27156" lon="4.04687">
        <ele>289.20001220703</ele>
        <time>2023-05-30T10:31:21.000Z</time>
      </trkpt>
      <trkpt lat="46.27143" lon="4.04755">
        <ele>289.60000610352</ele>
        <time>2023-05-30T10:31:31.000Z</time>
      </trkpt>
      <trkpt lat="46.2714" lon="4.04769">
        <ele>289.79998779297</ele>
        <time>2023-05-30T10:31:33.000Z</time>
      </trkpt>
      <trkpt lat="46.27128" lon="4.04826">
        <ele>290.20001220703</ele>
        <time>2023-05-30T10:31:41.000Z</time>
      </trkpt>
      <trkpt lat="46.27127" lon="4.04833">
        <ele>290.39999389648</ele>
        <time>2023-05-30T10:31:42.000Z</time>
      </trkpt>
      <trkpt lat="46.27111" lon="4.04896">
        <ele>290.79998779297</ele>
        <time>2023-05-30T10:31:51.000Z</time>
      </trkpt>
      <trkpt lat="46.2709" lon="4.04957">
        <ele>291</ele>
        <time>2023-05-30T10:32:00.000Z</time>
      </trkpt>
      <trkpt lat="46.27088" lon="4.04963">
        <ele>291</ele>
        <time>2023-05-30T10:32:01.000Z</time>
      </trkpt>
      <trkpt lat="46.27072" lon="4.05001">
        <ele>291.39999389648</ele>
        <time>2023-05-30T10:32:07.000Z</time>
      </trkpt>
      <trkpt lat="46.27067" lon="4.05013">
        <ele>291.60000610352</ele>
        <time>2023-05-30T10:32:09.000Z</time>
      </trkpt>
      <trkpt lat="46.27048" lon="4.05047">
        <ele>292.39999389648</ele>
        <time>2023-05-30T10:32:16.000Z</time>
      </trkpt>
      <trkpt lat="46.27022" lon="4.05086">
        <ele>293.60000610352</ele>
        <time>2023-05-30T10:32:23.000Z</time>
      </trkpt>
      <trkpt lat="46.27019" lon="4.05091">
        <ele>293.79998779297</ele>
        <time>2023-05-30T10:32:24.000Z</time>
      </trkpt>
      <trkpt lat="46.26997" lon="4.0513">
        <ele>294.79998779297</ele>
        <time>2023-05-30T10:32:32.000Z</time>
      </trkpt>
      <trkpt lat="46.2698" lon="4.05173">
        <ele>296.20001220703</ele>
        <time>2023-05-30T10:32:41.000Z</time>
      </trkpt>
      <trkpt lat="46.26969" lon="4.05205">
        <ele>297.20001220703</ele>
        <time>2023-05-30T10:32:46.000Z</time>
      </trkpt>
      <trkpt lat="46.26961" lon="4.05226">
        <ele>298.20001220703</ele>
        <time>2023-05-30T10:32:50.000Z</time>
      </trkpt>
      <trkpt lat="46.26959" lon="4.05231">
        <ele>298.39999389648</ele>
        <time>2023-05-30T10:32:51.000Z</time>
      </trkpt>
      <trkpt lat="46.2695" lon="4.05255">
        <ele>299</ele>
        <time>2023-05-30T10:32:57.000Z</time>
      </trkpt>
      <trkpt lat="46.26948" lon="4.05263">
        <ele>299.20001220703</ele>
        <time>2023-05-30T10:32:59.000Z</time>
      </trkpt>
      <trkpt lat="46.26941" lon="4.05283">
        <ele>300</ele>
        <time>2023-05-30T10:33:04.000Z</time>
      </trkpt>
      <trkpt lat="46.26937" lon="4.05295">
        <ele>300.39999389648</ele>
        <time>2023-05-30T10:33:07.000Z</time>
      </trkpt>
      <trkpt lat="46.26927" lon="4.05319">
        <ele>301.60000610352</ele>
        <time>2023-05-30T10:33:14.000Z</time>
      </trkpt>
      <trkpt lat="46.26926" lon="4.05323">
        <ele>301.60000610352</ele>
        <time>2023-05-30T10:33:15.000Z</time>
      </trkpt>
      <trkpt lat="46.26918" lon="4.05344">
        <ele>302.60000610352</ele>
        <time>2023-05-30T10:33:21.000Z</time>
      </trkpt>
      <trkpt lat="46.26914" lon="4.05358">
        <ele>303.60000610352</ele>
        <time>2023-05-30T10:33:25.000Z</time>
      </trkpt>
      <trkpt lat="46.26912" lon="4.05361">
        <ele>303.60000610352</ele>
        <time>2023-05-30T10:33:26.000Z</time>
      </trkpt>
      <trkpt lat="46.26907" lon="4.05378">
        <ele>304.60000610352</ele>
        <time>2023-05-30T10:33:31.000Z</time>
      </trkpt>
      <trkpt lat="46.26901" lon="4.05392">
        <ele>305.39999389648</ele>
        <time>2023-05-30T10:33:35.000Z</time>
      </trkpt>
      <trkpt lat="46.26899" lon="4.05395">
        <ele>306</ele>
        <time>2023-05-30T10:33:36.000Z</time>
      </trkpt>
      <trkpt lat="46.26889" lon="4.05416">
        <ele>307.20001220703</ele>
        <time>2023-05-30T10:33:43.000Z</time>
      </trkpt>
      <trkpt lat="46.26888" lon="4.05419">
        <ele>307.39999389648</ele>
        <time>2023-05-30T10:33:44.000Z</time>
      </trkpt>
      <trkpt lat="46.26884" lon="4.05429">
        <ele>308.20001220703</ele>
        <time>2023-05-30T10:33:47.000Z</time>
      </trkpt>
      <trkpt lat="46.2688" lon="4.05437">
        <ele>309.39999389648</ele>
        <time>2023-05-30T10:33:50.000Z</time>
      </trkpt>
      <trkpt lat="46.26875" lon="4.0545">
        <ele>310</ele>
        <time>2023-05-30T10:33:54.000Z</time>
      </trkpt>
      <trkpt lat="46.26873" lon="4.05453">
        <ele>310.39999389648</ele>
        <time>2023-05-30T10:33:55.000Z</time>
      </trkpt>
      <trkpt lat="46.26864" lon="4.05472">
        <ele>311.39999389648</ele>
        <time>2023-05-30T10:34:01.000Z</time>
      </trkpt>
      <trkpt lat="46.26861" lon="4.05479">
        <ele>311.79998779297</ele>
        <time>2023-05-30T10:34:03.000Z</time>
      </trkpt>
      <trkpt lat="46.26858" lon="4.05489">
        <ele>312.60000610352</ele>
        <time>2023-05-30T10:34:06.000Z</time>
      </trkpt>
      <trkpt lat="46.26851" lon="4.05504">
        <ele>313.60000610352</ele>
        <time>2023-05-30T10:34:11.000Z</time>
      </trkpt>
      <trkpt lat="46.26848" lon="4.0551">
        <ele>314.20001220703</ele>
        <time>2023-05-30T10:34:13.000Z</time>
      </trkpt>
      <trkpt lat="46.26843" lon="4.05522">
        <ele>314.60000610352</ele>
        <time>2023-05-30T10:34:17.000Z</time>
      </trkpt>
      <trkpt lat="46.26837" lon="4.05537">
        <ele>315.79998779297</ele>
        <time>2023-05-30T10:34:22.000Z</time>
      </trkpt>
      <trkpt lat="46.26834" lon="4.05543">
        <ele>316</ele>
        <time>2023-05-30T10:34:24.000Z</time>
      </trkpt>
      <trkpt lat="46.2683" lon="4.05553">
        <ele>316.79998779297</ele>
        <time>2023-05-30T10:34:27.000Z</time>
      </trkpt>
      <trkpt lat="46.26827" lon="4.05562">
        <ele>317.20001220703</ele>
        <time>2023-05-30T10:34:30.000Z</time>
      </trkpt>
      <trkpt lat="46.26822" lon="4.0557">
        <ele>318</ele>
        <time>2023-05-30T10:34:33.000Z</time>
      </trkpt>
      <trkpt lat="46.26817" lon="4.05582">
        <ele>319</ele>
        <time>2023-05-30T10:34:37.000Z</time>
      </trkpt>
      <trkpt lat="46.26816" lon="4.05585">
        <ele>319.39999389648</ele>
        <time>2023-05-30T10:34:38.000Z</time>
      </trkpt>
      <trkpt lat="46.26809" lon="4.05603">
        <ele>320.60000610352</ele>
        <time>2023-05-30T10:34:44.000Z</time>
      </trkpt>
      <trkpt lat="46.26807" lon="4.05605">
        <ele>321</ele>
        <time>2023-05-30T10:34:45.000Z</time>
      </trkpt>
      <trkpt lat="46.26804" lon="4.05612">
        <ele>321.60000610352</ele>
        <time>2023-05-30T10:34:47.000Z</time>
      </trkpt>
      <trkpt lat="46.26797" lon="4.0563">
        <ele>322.79998779297</ele>
        <time>2023-05-30T10:34:53.000Z</time>
      </trkpt>
      <trkpt lat="46.26795" lon="4.05637">
        <ele>323.20001220703</ele>
        <time>2023-05-30T10:34:55.000Z</time>
      </trkpt>
      <trkpt lat="46.26793" lon="4.05643">
        <ele>323.79998779297</ele>
        <time>2023-05-30T10:34:57.000Z</time>
      </trkpt>
      <trkpt lat="46.26789" lon="4.05657">
        <ele>325</ele>
        <time>2023-05-30T10:35:01.000Z</time>
      </trkpt>
      <trkpt lat="46.26787" lon="4.0566">
        <ele>325.20001220703</ele>
        <time>2023-05-30T10:35:02.000Z</time>
      </trkpt>
      <trkpt lat="46.26781" lon="4.05682">
        <ele>326</ele>
        <time>2023-05-30T10:35:08.000Z</time>
      </trkpt>
      <trkpt lat="46.26779" lon="4.05692">
        <ele>327.20001220703</ele>
        <time>2023-05-30T10:35:11.000Z</time>
      </trkpt>
      <trkpt lat="46.26778" lon="4.05695">
        <ele>327.39999389648</ele>
        <time>2023-05-30T10:35:12.000Z</time>
      </trkpt>
      <trkpt lat="46.26775" lon="4.05713">
        <ele>328.39999389648</ele>
        <time>2023-05-30T10:35:17.000Z</time>
      </trkpt>
      <trkpt lat="46.26773" lon="4.05728">
        <ele>329.39999389648</ele>
        <time>2023-05-30T10:35:21.000Z</time>
      </trkpt>
      <trkpt lat="46.26773" lon="4.05732">
        <ele>329.60000610352</ele>
        <time>2023-05-30T10:35:22.000Z</time>
      </trkpt>
      <trkpt lat="46.26771" lon="4.05751">
        <ele>330.39999389648</ele>
        <time>2023-05-30T10:35:27.000Z</time>
      </trkpt>
      <trkpt lat="46.26771" lon="4.05755">
        <ele>330.39999389648</ele>
        <time>2023-05-30T10:35:28.000Z</time>
      </trkpt>
      <trkpt lat="46.2677" lon="4.05767">
        <ele>331.60000610352</ele>
        <time>2023-05-30T10:35:31.000Z</time>
      </trkpt>
      <trkpt lat="46.26769" lon="4.05776">
        <ele>332</ele>
        <time>2023-05-30T10:35:33.000Z</time>
      </trkpt>
      <trkpt lat="46.26767" lon="4.05799">
        <ele>332.79998779297</ele>
        <time>2023-05-30T10:35:38.000Z</time>
      </trkpt>
      <trkpt lat="46.26765" lon="4.05814">
        <ele>333</ele>
        <time>2023-05-30T10:35:41.000Z</time>
      </trkpt>
      <trkpt lat="46.26759" lon="4.05854">
        <ele>333.79998779297</ele>
        <time>2023-05-30T10:35:49.000Z</time>
      </trkpt>
      <trkpt lat="46.26758" lon="4.05859">
        <ele>333.79998779297</ele>
        <time>2023-05-30T10:35:50.000Z</time>
      </trkpt>
      <trkpt lat="46.26752" lon="4.05878">
        <ele>335</ele>
        <time>2023-05-30T10:35:54.000Z</time>
      </trkpt>
      <trkpt lat="46.26747" lon="4.05891">
        <ele>335.60000610352</ele>
        <time>2023-05-30T10:35:57.000Z</time>
      </trkpt>
      <trkpt lat="46.26741" lon="4.05905">
        <ele>336</ele>
        <time>2023-05-30T10:36:00.000Z</time>
      </trkpt>
      <trkpt lat="46.2673" lon="4.05926">
        <ele>337.20001220703</ele>
        <time>2023-05-30T10:36:05.000Z</time>
      </trkpt>
      <trkpt lat="46.26724" lon="4.05939">
        <ele>337.60000610352</ele>
        <time>2023-05-30T10:36:08.000Z</time>
      </trkpt>
      <trkpt lat="46.26711" lon="4.05965">
        <ele>338.39999389648</ele>
        <time>2023-05-30T10:36:14.000Z</time>
      </trkpt>
      <trkpt lat="46.26705" lon="4.05978">
        <ele>338.79998779297</ele>
        <time>2023-05-30T10:36:17.000Z</time>
      </trkpt>
      <trkpt lat="46.26695" lon="4.06">
        <ele>339.39999389648</ele>
        <time>2023-05-30T10:36:22.000Z</time>
      </trkpt>
      <trkpt lat="46.26689" lon="4.06014">
        <ele>339.79998779297</ele>
        <time>2023-05-30T10:36:25.000Z</time>
      </trkpt>
      <trkpt lat="46.26679" lon="4.06038">
        <ele>340.39999389648</ele>
        <time>2023-05-30T10:36:30.000Z</time>
      </trkpt>
      <trkpt lat="46.26671" lon="4.06062">
        <ele>340.79998779297</ele>
        <time>2023-05-30T10:36:35.000Z</time>
      </trkpt>
      <trkpt lat="46.26665" lon="4.06081">
        <ele>341.60000610352</ele>
        <time>2023-05-30T10:36:39.000Z</time>
      </trkpt>
      <trkpt lat="46.26661" lon="4.06096">
        <ele>342</ele>
        <time>2023-05-30T10:36:42.000Z</time>
      </trkpt>
      <trkpt lat="46.26658" lon="4.06112">
        <ele>342.60000610352</ele>
        <time>2023-05-30T10:36:45.000Z</time>
      </trkpt>
      <trkpt lat="46.26648" lon="4.06147">
        <ele>343.39999389648</ele>
        <time>2023-05-30T10:36:52.000Z</time>
      </trkpt>
      <trkpt lat="46.26647" lon="4.06151">
        <ele>343.60000610352</ele>
        <time>2023-05-30T10:36:53.000Z</time>
      </trkpt>
      <trkpt lat="46.26639" lon="4.06185">
        <ele>344.60000610352</ele>
        <time>2023-05-30T10:37:00.000Z</time>
      </trkpt>
      <trkpt lat="46.26637" lon="4.06195">
        <ele>345</ele>
        <time>2023-05-30T10:37:02.000Z</time>
      </trkpt>
      <trkpt lat="46.26632" lon="4.06218">
        <ele>345.60000610352</ele>
        <time>2023-05-30T10:37:07.000Z</time>
      </trkpt>
      <trkpt lat="46.26629" lon="4.06236">
        <ele>346.79998779297</ele>
        <time>2023-05-30T10:37:11.000Z</time>
      </trkpt>
      <trkpt lat="46.26627" lon="4.06244">
        <ele>347.20001220703</ele>
        <time>2023-05-30T10:37:13.000Z</time>
      </trkpt>
      <trkpt lat="46.26625" lon="4.06258">
        <ele>348</ele>
        <time>2023-05-30T10:37:16.000Z</time>
      </trkpt>
      <trkpt lat="46.26621" lon="4.06278">
        <ele>348.60000610352</ele>
        <time>2023-05-30T10:37:20.000Z</time>
      </trkpt>
      <trkpt lat="46.26619" lon="4.06288">
        <ele>349</ele>
        <time>2023-05-30T10:37:22.000Z</time>
      </trkpt>
      <trkpt lat="46.26615" lon="4.06309">
        <ele>350.20001220703</ele>
        <time>2023-05-30T10:37:26.000Z</time>
      </trkpt>
      <trkpt lat="46.26612" lon="4.0632">
        <ele>350.79998779297</ele>
        <time>2023-05-30T10:37:28.000Z</time>
      </trkpt>
      <trkpt lat="46.26609" lon="4.06336">
        <ele>351.20001220703</ele>
        <time>2023-05-30T10:37:31.000Z</time>
      </trkpt>
      <trkpt lat="46.26604" lon="4.06357">
        <ele>351.39999389648</ele>
        <time>2023-05-30T10:37:35.000Z</time>
      </trkpt>
      <trkpt lat="46.26599" lon="4.06373">
        <ele>352.39999389648</ele>
        <time>2023-05-30T10:37:39.000Z</time>
      </trkpt>
      <trkpt lat="46.26592" lon="4.0639">
        <ele>353.20001220703</ele>
        <time>2023-05-30T10:37:43.000Z</time>
      </trkpt>
      <trkpt lat="46.26588" lon="4.06399">
        <ele>353.60000610352</ele>
        <time>2023-05-30T10:37:45.000Z</time>
      </trkpt>
      <trkpt lat="46.26574" lon="4.06425">
        <ele>354.60000610352</ele>
        <time>2023-05-30T10:37:52.000Z</time>
      </trkpt>
      <trkpt lat="46.26573" lon="4.06429">
        <ele>354.79998779297</ele>
        <time>2023-05-30T10:37:53.000Z</time>
      </trkpt>
      <trkpt lat="46.26561" lon="4.0645">
        <ele>355.79998779297</ele>
        <time>2023-05-30T10:37:59.000Z</time>
      </trkpt>
      <trkpt lat="46.26554" lon="4.06464">
        <ele>357</ele>
        <time>2023-05-30T10:38:03.000Z</time>
      </trkpt>
      <trkpt lat="46.26544" lon="4.06485">
        <ele>358.20001220703</ele>
        <time>2023-05-30T10:38:09.000Z</time>
      </trkpt>
      <trkpt lat="46.26541" lon="4.06492">
        <ele>358.60000610352</ele>
        <time>2023-05-30T10:38:11.000Z</time>
      </trkpt>
      <trkpt lat="46.26535" lon="4.06507">
        <ele>359.20001220703</ele>
        <time>2023-05-30T10:38:15.000Z</time>
      </trkpt>
      <trkpt lat="46.26528" lon="4.06527">
        <ele>360.20001220703</ele>
        <time>2023-05-30T10:38:20.000Z</time>
      </trkpt>
      <trkpt lat="46.26526" lon="4.06536">
        <ele>360.60000610352</ele>
        <time>2023-05-30T10:38:22.000Z</time>
      </trkpt>
      <trkpt lat="46.26517" lon="4.06567">
        <ele>361.39999389648</ele>
        <time>2023-05-30T10:38:29.000Z</time>
      </trkpt>
      <trkpt lat="46.26512" lon="4.06584">
        <ele>362</ele>
        <time>2023-05-30T10:38:33.000Z</time>
      </trkpt>
      <trkpt lat="46.2651" lon="4.06593">
        <ele>362.39999389648</ele>
        <time>2023-05-30T10:38:35.000Z</time>
      </trkpt>
      <trkpt lat="46.26503" lon="4.06621">
        <ele>363.39999389648</ele>
        <time>2023-05-30T10:38:41.000Z</time>
      </trkpt>
      <trkpt lat="46.26495" lon="4.06651">
        <ele>364.79998779297</ele>
        <time>2023-05-30T10:38:48.000Z</time>
      </trkpt>
      <trkpt lat="46.26493" lon="4.06655">
        <ele>364.79998779297</ele>
        <time>2023-05-30T10:38:49.000Z</time>
      </trkpt>
      <trkpt lat="46.26484" lon="4.06685">
        <ele>365.60000610352</ele>
        <time>2023-05-30T10:38:56.000Z</time>
      </trkpt>
      <trkpt lat="46.2648" lon="4.06703">
        <ele>366.20001220703</ele>
        <time>2023-05-30T10:39:00.000Z</time>
      </trkpt>
      <trkpt lat="46.26476" lon="4.06717">
        <ele>366.79998779297</ele>
        <time>2023-05-30T10:39:03.000Z</time>
      </trkpt>
      <trkpt lat="46.26466" lon="4.06753">
        <ele>367.39999389648</ele>
        <time>2023-05-30T10:39:11.000Z</time>
      </trkpt>
      <trkpt lat="46.26464" lon="4.06763">
        <ele>367.79998779297</ele>
        <time>2023-05-30T10:39:13.000Z</time>
      </trkpt>
      <trkpt lat="46.26454" lon="4.06795">
        <ele>368.39999389648</ele>
        <time>2023-05-30T10:39:20.000Z</time>
      </trkpt>
      <trkpt lat="46.26446" lon="4.06825">
        <ele>369</ele>
        <time>2023-05-30T10:39:26.000Z</time>
      </trkpt>
      <trkpt lat="46.26442" lon="4.0684">
        <ele>369.20001220703</ele>
        <time>2023-05-30T10:39:29.000Z</time>
      </trkpt>
      <trkpt lat="46.26431" lon="4.06879">
        <ele>370</ele>
        <time>2023-05-30T10:39:36.000Z</time>
      </trkpt>
      <trkpt lat="46.26429" lon="4.06884">
        <ele>370</ele>
        <time>2023-05-30T10:39:37.000Z</time>
      </trkpt>
      <trkpt lat="46.26412" lon="4.06932">
        <ele>370.39999389648</ele>
        <time>2023-05-30T10:39:45.000Z</time>
      </trkpt>
      <trkpt lat="46.26394" lon="4.06984">
        <ele>370.20001220703</ele>
        <time>2023-05-30T10:39:53.000Z</time>
      </trkpt>
      <trkpt lat="46.26379" lon="4.07031">
        <ele>369.20001220703</ele>
        <time>2023-05-30T10:39:59.000Z</time>
      </trkpt>
      <trkpt lat="46.26373" lon="4.07048">
        <ele>369</ele>
        <time>2023-05-30T10:40:01.000Z</time>
      </trkpt>
      <trkpt lat="46.26358" lon="4.07093">
        <ele>368</ele>
        <time>2023-05-30T10:40:06.000Z</time>
      </trkpt>
      <trkpt lat="46.26355" lon="4.071">
        <ele>367.79998779297</ele>
        <time>2023-05-30T10:40:07.000Z</time>
      </trkpt>
      <trkpt lat="46.26338" lon="4.07148">
        <ele>366.20001220703</ele>
        <time>2023-05-30T10:40:12.000Z</time>
      </trkpt>
      <trkpt lat="46.26334" lon="4.07157">
        <ele>366</ele>
        <time>2023-05-30T10:40:13.000Z</time>
      </trkpt>
      <trkpt lat="46.2632" lon="4.07195">
        <ele>365.20001220703</ele>
        <time>2023-05-30T10:40:17.000Z</time>
      </trkpt>
      <trkpt lat="46.26304" lon="4.07238">
        <ele>364.39999389648</ele>
        <time>2023-05-30T10:40:22.000Z</time>
      </trkpt>
      <trkpt lat="46.26298" lon="4.07253">
        <ele>364</ele>
        <time>2023-05-30T10:40:24.000Z</time>
      </trkpt>
      <trkpt lat="46.26283" lon="4.07289">
        <ele>363.79998779297</ele>
        <time>2023-05-30T10:40:29.000Z</time>
      </trkpt>
      <trkpt lat="46.2626" lon="4.07331">
        <ele>364.20001220703</ele>
        <time>2023-05-30T10:40:36.000Z</time>
      </trkpt>
      <trkpt lat="46.2625" lon="4.07347">
        <ele>364.20001220703</ele>
        <time>2023-05-30T10:40:39.000Z</time>
      </trkpt>
      <trkpt lat="46.26233" lon="4.07369">
        <ele>364.79998779297</ele>
        <time>2023-05-30T10:40:44.000Z</time>
      </trkpt>
      <trkpt lat="46.26226" lon="4.07378">
        <ele>365.20001220703</ele>
        <time>2023-05-30T10:40:46.000Z</time>
      </trkpt>
      <trkpt lat="46.26209" lon="4.07401">
        <ele>365.79998779297</ele>
        <time>2023-05-30T10:40:52.000Z</time>
      </trkpt>
      <trkpt lat="46.26187" lon="4.07431">
        <ele>366.20001220703</ele>
        <time>2023-05-30T10:40:59.000Z</time>
      </trkpt>
      <trkpt lat="46.26162" lon="4.07462">
        <ele>366.79998779297</ele>
        <time>2023-05-30T10:41:06.000Z</time>
      </trkpt>
      <trkpt lat="46.26149" lon="4.0748">
        <ele>367.39999389648</ele>
        <time>2023-05-30T10:41:10.000Z</time>
      </trkpt>
      <trkpt lat="46.26141" lon="4.0749">
        <ele>367.79998779297</ele>
        <time>2023-05-30T10:41:13.000Z</time>
      </trkpt>
      <trkpt lat="46.26134" lon="4.07495">
        <ele>368.20001220703</ele>
        <time>2023-05-30T10:41:17.000Z</time>
      </trkpt>
      <trkpt lat="46.26134" lon="4.07495">
        <ele>368.20001220703</ele>
        <time>2023-05-30T10:41:18.000Z</time>
      </trkpt>
      <trkpt lat="46.2613" lon="4.07505">
        <ele>368.79998779297</ele>
        <time>2023-05-30T10:42:21.000Z</time>
      </trkpt>
      <trkpt lat="46.26125" lon="4.0751">
        <ele>368.60000610352</ele>
        <time>2023-05-30T10:42:23.000Z</time>
      </trkpt>
      <trkpt lat="46.26104" lon="4.07533">
        <ele>368.79998779297</ele>
        <time>2023-05-30T10:42:29.000Z</time>
      </trkpt>
      <trkpt lat="46.261" lon="4.07537">
        <ele>368.79998779297</ele>
        <time>2023-05-30T10:42:30.000Z</time>
      </trkpt>
      <trkpt lat="46.26082" lon="4.07549">
        <ele>369.20001220703</ele>
        <time>2023-05-30T10:42:34.000Z</time>
      </trkpt>
      <trkpt lat="46.26077" lon="4.07551">
        <ele>369.20001220703</ele>
        <time>2023-05-30T10:42:35.000Z</time>
      </trkpt>
      <trkpt lat="46.26059" lon="4.07561">
        <ele>369.60000610352</ele>
        <time>2023-05-30T10:42:39.000Z</time>
      </trkpt>
      <trkpt lat="46.26051" lon="4.07566">
        <ele>370</ele>
        <time>2023-05-30T10:42:41.000Z</time>
      </trkpt>
      <trkpt lat="46.26042" lon="4.07571">
        <ele>370.60000610352</ele>
        <time>2023-05-30T10:42:43.000Z</time>
      </trkpt>
      <trkpt lat="46.26031" lon="4.07579">
        <ele>371</ele>
        <time>2023-05-30T10:42:46.000Z</time>
      </trkpt>
      <trkpt lat="46.26012" lon="4.07594">
        <ele>372.20001220703</ele>
        <time>2023-05-30T10:42:51.000Z</time>
      </trkpt>
      <trkpt lat="46.2599" lon="4.07614">
        <ele>373.39999389648</ele>
        <time>2023-05-30T10:42:57.000Z</time>
      </trkpt>
      <trkpt lat="46.25975" lon="4.07628">
        <ele>374.20001220703</ele>
        <time>2023-05-30T10:43:01.000Z</time>
      </trkpt>
      <trkpt lat="46.25972" lon="4.07632">
        <ele>374.39999389648</ele>
        <time>2023-05-30T10:43:02.000Z</time>
      </trkpt>
      <trkpt lat="46.25963" lon="4.07644">
        <ele>374.79998779297</ele>
        <time>2023-05-30T10:43:05.000Z</time>
      </trkpt>
      <trkpt lat="46.25958" lon="4.07654">
        <ele>375.20001220703</ele>
        <time>2023-05-30T10:43:07.000Z</time>
      </trkpt>
      <trkpt lat="46.25951" lon="4.07666">
        <ele>375.60000610352</ele>
        <time>2023-05-30T10:43:09.000Z</time>
      </trkpt>
      <trkpt lat="46.25942" lon="4.0769">
        <ele>376.39999389648</ele>
        <time>2023-05-30T10:43:13.000Z</time>
      </trkpt>
      <trkpt lat="46.25936" lon="4.07707">
        <ele>376.79998779297</ele>
        <time>2023-05-30T10:43:16.000Z</time>
      </trkpt>
      <trkpt lat="46.25928" lon="4.07733">
        <ele>377</ele>
        <time>2023-05-30T10:43:20.000Z</time>
      </trkpt>
      <trkpt lat="46.25912" lon="4.07775">
        <ele>377.79998779297</ele>
        <time>2023-05-30T10:43:27.000Z</time>
      </trkpt>
      <trkpt lat="46.2591" lon="4.07781">
        <ele>377.79998779297</ele>
        <time>2023-05-30T10:43:28.000Z</time>
      </trkpt>
      <trkpt lat="46.25889" lon="4.07838">
        <ele>378.20001220703</ele>
        <time>2023-05-30T10:43:37.000Z</time>
      </trkpt>
      <trkpt lat="46.25866" lon="4.07886">
        <ele>378.60000610352</ele>
        <time>2023-05-30T10:43:45.000Z</time>
      </trkpt>
      <trkpt lat="46.25832" lon="4.07928">
        <ele>378.60000610352</ele>
        <time>2023-05-30T10:43:53.000Z</time>
      </trkpt>
      <trkpt lat="46.25793" lon="4.07958">
        <ele>378.20001220703</ele>
        <time>2023-05-30T10:44:01.000Z</time>
      </trkpt>
      <trkpt lat="46.25769" lon="4.07974">
        <ele>378.20001220703</ele>
        <time>2023-05-30T10:44:06.000Z</time>
      </trkpt>
      <trkpt lat="46.25756" lon="4.07988">
        <ele>378.60000610352</ele>
        <time>2023-05-30T10:44:09.000Z</time>
      </trkpt>
      <trkpt lat="46.25748" lon="4.07999">
        <ele>378.79998779297</ele>
        <time>2023-05-30T10:44:11.000Z</time>
      </trkpt>
      <trkpt lat="46.25745" lon="4.08005">
        <ele>378.79998779297</ele>
        <time>2023-05-30T10:44:12.000Z</time>
      </trkpt>
      <trkpt lat="46.25736" lon="4.08023">
        <ele>379</ele>
        <time>2023-05-30T10:44:15.000Z</time>
      </trkpt>
      <trkpt lat="46.25705" lon="4.08093">
        <ele>379.39999389648</ele>
        <time>2023-05-30T10:44:26.000Z</time>
      </trkpt>
      <trkpt lat="46.25686" lon="4.08136">
        <ele>379.79998779297</ele>
        <time>2023-05-30T10:44:33.000Z</time>
      </trkpt>
      <trkpt lat="46.2568" lon="4.08148">
        <ele>380.20001220703</ele>
        <time>2023-05-30T10:44:35.000Z</time>
      </trkpt>
      <trkpt lat="46.25654" lon="4.08207">
        <ele>381</ele>
        <time>2023-05-30T10:44:45.000Z</time>
      </trkpt>
      <trkpt lat="46.25639" lon="4.0824">
        <ele>381.60000610352</ele>
        <time>2023-05-30T10:44:51.000Z</time>
      </trkpt>
      <trkpt lat="46.25637" lon="4.08246">
        <ele>382</ele>
        <time>2023-05-30T10:44:52.000Z</time>
      </trkpt>
      <trkpt lat="46.25623" lon="4.08277">
        <ele>383.20001220703</ele>
        <time>2023-05-30T10:44:58.000Z</time>
      </trkpt>
      <trkpt lat="46.2562" lon="4.08282">
        <ele>383.39999389648</ele>
        <time>2023-05-30T10:44:59.000Z</time>
      </trkpt>
      <trkpt lat="46.25613" lon="4.08299">
        <ele>383.39999389648</ele>
        <time>2023-05-30T10:45:02.000Z</time>
      </trkpt>
      <trkpt lat="46.25603" lon="4.08321">
        <ele>383.79998779297</ele>
        <time>2023-05-30T10:45:06.000Z</time>
      </trkpt>
      <trkpt lat="46.25592" lon="4.08341">
        <ele>384</ele>
        <time>2023-05-30T10:45:10.000Z</time>
      </trkpt>
      <trkpt lat="46.25581" lon="4.0836">
        <ele>384.60000610352</ele>
        <time>2023-05-30T10:45:14.000Z</time>
      </trkpt>
      <trkpt lat="46.25573" lon="4.08374">
        <ele>385.20001220703</ele>
        <time>2023-05-30T10:45:17.000Z</time>
      </trkpt>
      <trkpt lat="46.25552" lon="4.08407">
        <ele>386</ele>
        <time>2023-05-30T10:45:24.000Z</time>
      </trkpt>
      <trkpt lat="46.25549" lon="4.08411">
        <ele>386.39999389648</ele>
        <time>2023-05-30T10:45:25.000Z</time>
      </trkpt>
      <trkpt lat="46.25531" lon="4.0845">
        <ele>386.60000610352</ele>
        <time>2023-05-30T10:45:32.000Z</time>
      </trkpt>
      <trkpt lat="46.2552" lon="4.085">
        <ele>387.20001220703</ele>
        <time>2023-05-30T10:45:40.000Z</time>
      </trkpt>
      <trkpt lat="46.25515" lon="4.08527">
        <ele>387.20001220703</ele>
        <time>2023-05-30T10:45:44.000Z</time>
      </trkpt>
      <trkpt lat="46.25512" lon="4.08547">
        <ele>387.39999389648</ele>
        <time>2023-05-30T10:45:47.000Z</time>
      </trkpt>
      <trkpt lat="46.25506" lon="4.08592">
        <ele>388.39999389648</ele>
        <time>2023-05-30T10:45:54.000Z</time>
      </trkpt>
      <trkpt lat="46.25505" lon="4.08599">
        <ele>388.39999389648</ele>
        <time>2023-05-30T10:45:55.000Z</time>
      </trkpt>
      <trkpt lat="46.25498" lon="4.08649">
        <ele>389</ele>
        <time>2023-05-30T10:46:03.000Z</time>
      </trkpt>
      <trkpt lat="46.25493" lon="4.08678">
        <ele>389.20001220703</ele>
        <time>2023-05-30T10:46:08.000Z</time>
      </trkpt>
      <trkpt lat="46.2549" lon="4.08701">
        <ele>389.79998779297</ele>
        <time>2023-05-30T10:46:12.000Z</time>
      </trkpt>
      <trkpt lat="46.25483" lon="4.08754">
        <ele>390.39999389648</ele>
        <time>2023-05-30T10:46:21.000Z</time>
      </trkpt>
      <trkpt lat="46.25478" lon="4.08783">
        <ele>391.20001220703</ele>
        <time>2023-05-30T10:46:26.000Z</time>
      </trkpt>
      <trkpt lat="46.25477" lon="4.08794">
        <ele>391.39999389648</ele>
        <time>2023-05-30T10:46:28.000Z</time>
      </trkpt>
      <trkpt lat="46.25474" lon="4.08813">
        <ele>391.79998779297</ele>
        <time>2023-05-30T10:46:31.000Z</time>
      </trkpt>
      <trkpt lat="46.25468" lon="4.08855">
        <ele>392.39999389648</ele>
        <time>2023-05-30T10:46:38.000Z</time>
      </trkpt>
      <trkpt lat="46.25465" lon="4.08879">
        <ele>392.79998779297</ele>
        <time>2023-05-30T10:46:42.000Z</time>
      </trkpt>
      <trkpt lat="46.2546" lon="4.08909">
        <ele>393.39999389648</ele>
        <time>2023-05-30T10:46:47.000Z</time>
      </trkpt>
      <trkpt lat="46.25455" lon="4.08949">
        <ele>394.39999389648</ele>
        <time>2023-05-30T10:46:54.000Z</time>
      </trkpt>
      <trkpt lat="46.25454" lon="4.08955">
        <ele>394.60000610352</ele>
        <time>2023-05-30T10:46:55.000Z</time>
      </trkpt>
      <trkpt lat="46.25445" lon="4.08992">
        <ele>395.79998779297</ele>
        <time>2023-05-30T10:47:02.000Z</time>
      </trkpt>
      <trkpt lat="46.25436" lon="4.09016">
        <ele>396.79998779297</ele>
        <time>2023-05-30T10:47:07.000Z</time>
      </trkpt>
      <trkpt lat="46.25433" lon="4.0902">
        <ele>396.79998779297</ele>
        <time>2023-05-30T10:47:08.000Z</time>
      </trkpt>
      <trkpt lat="46.25419" lon="4.09043">
        <ele>398</ele>
        <time>2023-05-30T10:47:14.000Z</time>
      </trkpt>
      <trkpt lat="46.25401" lon="4.09067">
        <ele>398.79998779297</ele>
        <time>2023-05-30T10:47:21.000Z</time>
      </trkpt>
      <trkpt lat="46.25396" lon="4.09073">
        <ele>399</ele>
        <time>2023-05-30T10:47:23.000Z</time>
      </trkpt>
      <trkpt lat="46.25384" lon="4.09091">
        <ele>400.39999389648</ele>
        <time>2023-05-30T10:47:28.000Z</time>
      </trkpt>
      <trkpt lat="46.25373" lon="4.09107">
        <ele>401.20001220703</ele>
        <time>2023-05-30T10:47:32.000Z</time>
      </trkpt>
      <trkpt lat="46.25371" lon="4.09111">
        <ele>401.60000610352</ele>
        <time>2023-05-30T10:47:33.000Z</time>
      </trkpt>
      <trkpt lat="46.25352" lon="4.09143">
        <ele>402.20001220703</ele>
        <time>2023-05-30T10:47:41.000Z</time>
      </trkpt>
      <trkpt lat="46.25345" lon="4.09156">
        <ele>402.60000610352</ele>
        <time>2023-05-30T10:47:44.000Z</time>
      </trkpt>
      <trkpt lat="46.25336" lon="4.09177">
        <ele>403</ele>
        <time>2023-05-30T10:47:49.000Z</time>
      </trkpt>
      <trkpt lat="46.25328" lon="4.09195">
        <ele>403.60000610352</ele>
        <time>2023-05-30T10:47:53.000Z</time>
      </trkpt>
      <trkpt lat="46.25318" lon="4.09222">
        <ele>404.39999389648</ele>
        <time>2023-05-30T10:47:59.000Z</time>
      </trkpt>
      <trkpt lat="46.25315" lon="4.0923">
        <ele>404.60000610352</ele>
        <time>2023-05-30T10:48:01.000Z</time>
      </trkpt>
      <trkpt lat="46.25308" lon="4.09252">
        <ele>405.20001220703</ele>
        <time>2023-05-30T10:48:06.000Z</time>
      </trkpt>
      <trkpt lat="46.25303" lon="4.09264">
        <ele>406</ele>
        <time>2023-05-30T10:48:09.000Z</time>
      </trkpt>
      <trkpt lat="46.25296" lon="4.09282">
        <ele>406.60000610352</ele>
        <time>2023-05-30T10:48:13.000Z</time>
      </trkpt>
      <trkpt lat="46.25292" lon="4.09295">
        <ele>407.20001220703</ele>
        <time>2023-05-30T10:48:16.000Z</time>
      </trkpt>
      <trkpt lat="46.25288" lon="4.09322">
        <ele>407.60000610352</ele>
        <time>2023-05-30T10:48:21.000Z</time>
      </trkpt>
      <trkpt lat="46.25287" lon="4.09342">
        <ele>408.20001220703</ele>
        <time>2023-05-30T10:48:25.000Z</time>
      </trkpt>
      <trkpt lat="46.25288" lon="4.09372">
        <ele>409.20001220703</ele>
        <time>2023-05-30T10:48:31.000Z</time>
      </trkpt>
      <trkpt lat="46.25288" lon="4.09378">
        <ele>409.39999389648</ele>
        <time>2023-05-30T10:48:32.000Z</time>
      </trkpt>
      <trkpt lat="46.25289" lon="4.09404">
        <ele>410.39999389648</ele>
        <time>2023-05-30T10:48:37.000Z</time>
      </trkpt>
      <trkpt lat="46.25289" lon="4.09424">
        <ele>411</ele>
        <time>2023-05-30T10:48:41.000Z</time>
      </trkpt>
      <trkpt lat="46.25289" lon="4.09443">
        <ele>411.39999389648</ele>
        <time>2023-05-30T10:48:45.000Z</time>
      </trkpt>
      <trkpt lat="46.25288" lon="4.09475">
        <ele>412.60000610352</ele>
        <time>2023-05-30T10:48:51.000Z</time>
      </trkpt>
      <trkpt lat="46.25286" lon="4.09503">
        <ele>413.79998779297</ele>
        <time>2023-05-30T10:48:57.000Z</time>
      </trkpt>
      <trkpt lat="46.25285" lon="4.09513">
        <ele>414.20001220703</ele>
        <time>2023-05-30T10:48:59.000Z</time>
      </trkpt>
      <trkpt lat="46.25281" lon="4.09537">
        <ele>415</ele>
        <time>2023-05-30T10:49:04.000Z</time>
      </trkpt>
      <trkpt lat="46.25277" lon="4.09556">
        <ele>415.60000610352</ele>
        <time>2023-05-30T10:49:08.000Z</time>
      </trkpt>
      <trkpt lat="46.25275" lon="4.09567">
        <ele>416</ele>
        <time>2023-05-30T10:49:10.000Z</time>
      </trkpt>
      <trkpt lat="46.25272" lon="4.09588">
        <ele>416.79998779297</ele>
        <time>2023-05-30T10:49:14.000Z</time>
      </trkpt>
      <trkpt lat="46.25269" lon="4.09604">
        <ele>417.39999389648</ele>
        <time>2023-05-30T10:49:17.000Z</time>
      </trkpt>
      <trkpt lat="46.25265" lon="4.09626">
        <ele>417.79998779297</ele>
        <time>2023-05-30T10:49:21.000Z</time>
      </trkpt>
      <trkpt lat="46.25262" lon="4.09647">
        <ele>418.39999389648</ele>
        <time>2023-05-30T10:49:25.000Z</time>
      </trkpt>
      <trkpt lat="46.25256" lon="4.09674">
        <ele>419.20001220703</ele>
        <time>2023-05-30T10:49:30.000Z</time>
      </trkpt>
      <trkpt lat="46.25248" lon="4.09704">
        <ele>419.79998779297</ele>
        <time>2023-05-30T10:49:36.000Z</time>
      </trkpt>
      <trkpt lat="46.2523" lon="4.09754">
        <ele>420.20001220703</ele>
        <time>2023-05-30T10:49:46.000Z</time>
      </trkpt>
      <trkpt lat="46.25227" lon="4.09764">
        <ele>420.60000610352</ele>
        <time>2023-05-30T10:49:48.000Z</time>
      </trkpt>
      <trkpt lat="46.25222" lon="4.09779">
        <ele>421</ele>
        <time>2023-05-30T10:49:51.000Z</time>
      </trkpt>
      <trkpt lat="46.25215" lon="4.09799">
        <ele>421.20001220703</ele>
        <time>2023-05-30T10:49:55.000Z</time>
      </trkpt>
      <trkpt lat="46.25208" lon="4.09819">
        <ele>421.60000610352</ele>
        <time>2023-05-30T10:49:59.000Z</time>
      </trkpt>
      <trkpt lat="46.25195" lon="4.09858">
        <ele>422.39999389648</ele>
        <time>2023-05-30T10:50:07.000Z</time>
      </trkpt>
      <trkpt lat="46.2519" lon="4.09873">
        <ele>422.60000610352</ele>
        <time>2023-05-30T10:50:10.000Z</time>
      </trkpt>
      <trkpt lat="46.25184" lon="4.09894">
        <ele>423.20001220703</ele>
        <time>2023-05-30T10:50:14.000Z</time>
      </trkpt>
      <trkpt lat="46.25177" lon="4.09917">
        <ele>423.79998779297</ele>
        <time>2023-05-30T10:50:18.000Z</time>
      </trkpt>
      <trkpt lat="46.25168" lon="4.09943">
        <ele>424.20001220703</ele>
        <time>2023-05-30T10:50:23.000Z</time>
      </trkpt>
      <trkpt lat="46.25163" lon="4.0996">
        <ele>424.60000610352</ele>
        <time>2023-05-30T10:50:26.000Z</time>
      </trkpt>
      <trkpt lat="46.25156" lon="4.0998">
        <ele>425.39999389648</ele>
        <time>2023-05-30T10:50:30.000Z</time>
      </trkpt>
      <trkpt lat="46.25144" lon="4.10018">
        <ele>426.20001220703</ele>
        <time>2023-05-30T10:50:37.000Z</time>
      </trkpt>
      <trkpt lat="46.25138" lon="4.10032">
        <ele>426.60000610352</ele>
        <time>2023-05-30T10:50:40.000Z</time>
      </trkpt>
      <trkpt lat="46.25131" lon="4.10054">
        <ele>427</ele>
        <time>2023-05-30T10:50:44.000Z</time>
      </trkpt>
      <trkpt lat="46.25126" lon="4.10072">
        <ele>427.60000610352</ele>
        <time>2023-05-30T10:50:47.000Z</time>
      </trkpt>
      <trkpt lat="46.25115" lon="4.10097">
        <ele>428</ele>
        <time>2023-05-30T10:50:52.000Z</time>
      </trkpt>
      <trkpt lat="46.25102" lon="4.10127">
        <ele>428.60000610352</ele>
        <time>2023-05-30T10:50:58.000Z</time>
      </trkpt>
      <trkpt lat="46.25093" lon="4.10143">
        <ele>429.20001220703</ele>
        <time>2023-05-30T10:51:01.000Z</time>
      </trkpt>
      <trkpt lat="46.25086" lon="4.10155">
        <ele>429.60000610352</ele>
        <time>2023-05-30T10:51:04.000Z</time>
      </trkpt>
      <trkpt lat="46.25073" lon="4.10176">
        <ele>430.20001220703</ele>
        <time>2023-05-30T10:51:09.000Z</time>
      </trkpt>
      <trkpt lat="46.25063" lon="4.10193">
        <ele>430.20001220703</ele>
        <time>2023-05-30T10:51:13.000Z</time>
      </trkpt>
      <trkpt lat="46.2506" lon="4.10198">
        <ele>430.60000610352</ele>
        <time>2023-05-30T10:51:14.000Z</time>
      </trkpt>
      <trkpt lat="46.25054" lon="4.1021">
        <ele>430.79998779297</ele>
        <time>2023-05-30T10:51:17.000Z</time>
      </trkpt>
      <trkpt lat="46.25044" lon="4.10226">
        <ele>431.60000610352</ele>
        <time>2023-05-30T10:51:21.000Z</time>
      </trkpt>
      <trkpt lat="46.25034" lon="4.10243">
        <ele>432.20001220703</ele>
        <time>2023-05-30T10:51:25.000Z</time>
      </trkpt>
      <trkpt lat="46.25025" lon="4.10259">
        <ele>432.60000610352</ele>
        <time>2023-05-30T10:51:29.000Z</time>
      </trkpt>
      <trkpt lat="46.25018" lon="4.10269">
        <ele>433.20001220703</ele>
        <time>2023-05-30T10:51:32.000Z</time>
      </trkpt>
      <trkpt lat="46.25013" lon="4.10278">
        <ele>433.60000610352</ele>
        <time>2023-05-30T10:51:34.000Z</time>
      </trkpt>
      <trkpt lat="46.24997" lon="4.10307">
        <ele>434.39999389648</ele>
        <time>2023-05-30T10:51:41.000Z</time>
      </trkpt>
      <trkpt lat="46.2498" lon="4.10336">
        <ele>435.39999389648</ele>
        <time>2023-05-30T10:51:48.000Z</time>
      </trkpt>
      <trkpt lat="46.24977" lon="4.10344">
        <ele>435.60000610352</ele>
        <time>2023-05-30T10:51:50.000Z</time>
      </trkpt>
      <trkpt lat="46.24971" lon="4.10359">
        <ele>436.20001220703</ele>
        <time>2023-05-30T10:51:53.000Z</time>
      </trkpt>
      <trkpt lat="46.2496" lon="4.10382">
        <ele>436.60000610352</ele>
        <time>2023-05-30T10:51:58.000Z</time>
      </trkpt>
      <trkpt lat="46.24956" lon="4.10392">
        <ele>437</ele>
        <time>2023-05-30T10:52:00.000Z</time>
      </trkpt>
      <trkpt lat="46.24939" lon="4.10418">
        <ele>437.60000610352</ele>
        <time>2023-05-30T10:52:06.000Z</time>
      </trkpt>
      <trkpt lat="46.24936" lon="4.10422">
        <ele>437.79998779297</ele>
        <time>2023-05-30T10:52:07.000Z</time>
      </trkpt>
      <trkpt lat="46.24918" lon="4.10456">
        <ele>438.20001220703</ele>
        <time>2023-05-30T10:52:15.000Z</time>
      </trkpt>
      <trkpt lat="46.24899" lon="4.10491">
        <ele>438.60000610352</ele>
        <time>2023-05-30T10:52:23.000Z</time>
      </trkpt>
      <trkpt lat="46.24897" lon="4.10496">
        <ele>438.60000610352</ele>
        <time>2023-05-30T10:52:24.000Z</time>
      </trkpt>
      <trkpt lat="46.24879" lon="4.10528">
        <ele>439.79998779297</ele>
        <time>2023-05-30T10:52:31.000Z</time>
      </trkpt>
      <trkpt lat="46.24857" lon="4.10569">
        <ele>440.79998779297</ele>
        <time>2023-05-30T10:52:40.000Z</time>
      </trkpt>
      <trkpt lat="46.24854" lon="4.10573">
        <ele>440.79998779297</ele>
        <time>2023-05-30T10:52:41.000Z</time>
      </trkpt>
      <trkpt lat="46.24835" lon="4.10607">
        <ele>441.60000610352</ele>
        <time>2023-05-30T10:52:49.000Z</time>
      </trkpt>
      <trkpt lat="46.24833" lon="4.10612">
        <ele>441.79998779297</ele>
        <time>2023-05-30T10:52:50.000Z</time>
      </trkpt>
      <trkpt lat="46.24817" lon="4.10644">
        <ele>442.79998779297</ele>
        <time>2023-05-30T10:52:57.000Z</time>
      </trkpt>
      <trkpt lat="46.24806" lon="4.10673">
        <ele>444</ele>
        <time>2023-05-30T10:53:03.000Z</time>
      </trkpt>
      <trkpt lat="46.24797" lon="4.10697">
        <ele>445</ele>
        <time>2023-05-30T10:53:08.000Z</time>
      </trkpt>
      <trkpt lat="46.24792" lon="4.10712">
        <ele>445.60000610352</ele>
        <time>2023-05-30T10:53:11.000Z</time>
      </trkpt>
      <trkpt lat="46.24787" lon="4.10729">
        <ele>446</ele>
        <time>2023-05-30T10:53:14.000Z</time>
      </trkpt>
      <trkpt lat="46.2478" lon="4.10751">
        <ele>446.79998779297</ele>
        <time>2023-05-30T10:53:18.000Z</time>
      </trkpt>
      <trkpt lat="46.24765" lon="4.10791">
        <ele>447.20001220703</ele>
        <time>2023-05-30T10:53:25.000Z</time>
      </trkpt>
      <trkpt lat="46.24764" lon="4.10797">
        <ele>447.20001220703</ele>
        <time>2023-05-30T10:53:26.000Z</time>
      </trkpt>
      <trkpt lat="46.24746" lon="4.10846">
        <ele>447.60000610352</ele>
        <time>2023-05-30T10:53:34.000Z</time>
      </trkpt>
      <trkpt lat="46.24735" lon="4.10877">
        <ele>448</ele>
        <time>2023-05-30T10:53:39.000Z</time>
      </trkpt>
      <trkpt lat="46.24728" lon="4.10897">
        <ele>448.20001220703</ele>
        <time>2023-05-30T10:53:42.000Z</time>
      </trkpt>
      <trkpt lat="46.24714" lon="4.10937">
        <ele>449</ele>
        <time>2023-05-30T10:53:48.000Z</time>
      </trkpt>
      <trkpt lat="46.24708" lon="4.10956">
        <ele>449.39999389648</ele>
        <time>2023-05-30T10:53:51.000Z</time>
      </trkpt>
      <trkpt lat="46.24702" lon="4.10974">
        <ele>449.79998779297</ele>
        <time>2023-05-30T10:53:54.000Z</time>
      </trkpt>
      <trkpt lat="46.24692" lon="4.11">
        <ele>450</ele>
        <time>2023-05-30T10:53:58.000Z</time>
      </trkpt>
      <trkpt lat="46.24688" lon="4.11015">
        <ele>450</ele>
        <time>2023-05-30T10:54:00.000Z</time>
      </trkpt>
      <trkpt lat="46.24675" lon="4.11053">
        <ele>450.60000610352</ele>
        <time>2023-05-30T10:54:06.000Z</time>
      </trkpt>
      <trkpt lat="46.24662" lon="4.11092">
        <ele>450.79998779297</ele>
        <time>2023-05-30T10:54:12.000Z</time>
      </trkpt>
      <trkpt lat="46.24658" lon="4.11104">
        <ele>451</ele>
        <time>2023-05-30T10:54:14.000Z</time>
      </trkpt>
      <trkpt lat="46.24647" lon="4.1114">
        <ele>451.79998779297</ele>
        <time>2023-05-30T10:54:20.000Z</time>
      </trkpt>
      <trkpt lat="46.24642" lon="4.11151">
        <ele>452.20001220703</ele>
        <time>2023-05-30T10:54:22.000Z</time>
      </trkpt>
      <trkpt lat="46.24623" lon="4.11195">
        <ele>453.20001220703</ele>
        <time>2023-05-30T10:54:29.000Z</time>
      </trkpt>
      <trkpt lat="46.24621" lon="4.112">
        <ele>453.20001220703</ele>
        <time>2023-05-30T10:54:30.000Z</time>
      </trkpt>
      <trkpt lat="46.24607" lon="4.11232">
        <ele>454</ele>
        <time>2023-05-30T10:54:36.000Z</time>
      </trkpt>
      <trkpt lat="46.24596" lon="4.11255">
        <ele>454.39999389648</ele>
        <time>2023-05-30T10:54:40.000Z</time>
      </trkpt>
      <trkpt lat="46.24572" lon="4.11307">
        <ele>455</ele>
        <time>2023-05-30T10:54:49.000Z</time>
      </trkpt>
      <trkpt lat="46.24564" lon="4.11324">
        <ele>455</ele>
        <time>2023-05-30T10:54:52.000Z</time>
      </trkpt>
      <trkpt lat="46.2455" lon="4.11357">
        <ele>455.20001220703</ele>
        <time>2023-05-30T10:54:57.000Z</time>
      </trkpt>
      <trkpt lat="46.24547" lon="4.11364">
        <ele>455.20001220703</ele>
        <time>2023-05-30T10:54:58.000Z</time>
      </trkpt>
      <trkpt lat="46.24529" lon="4.11404">
        <ele>456.20001220703</ele>
        <time>2023-05-30T10:55:05.000Z</time>
      </trkpt>
      <trkpt lat="46.24523" lon="4.11416">
        <ele>456.20001220703</ele>
        <time>2023-05-30T10:55:07.000Z</time>
      </trkpt>
      <trkpt lat="46.24497" lon="4.11475">
        <ele>456.60000610352</ele>
        <time>2023-05-30T10:55:17.000Z</time>
      </trkpt>
      <trkpt lat="46.24484" lon="4.11505">
        <ele>457</ele>
        <time>2023-05-30T10:55:22.000Z</time>
      </trkpt>
      <trkpt lat="46.24479" lon="4.11515">
        <ele>457.20001220703</ele>
        <time>2023-05-30T10:55:24.000Z</time>
      </trkpt>
      <trkpt lat="46.2447" lon="4.11534">
        <ele>457.39999389648</ele>
        <time>2023-05-30T10:55:27.000Z</time>
      </trkpt>
      <trkpt lat="46.24441" lon="4.11575">
        <ele>458</ele>
        <time>2023-05-30T10:55:35.000Z</time>
      </trkpt>
      <trkpt lat="46.24433" lon="4.11583">
        <ele>458</ele>
        <time>2023-05-30T10:55:37.000Z</time>
      </trkpt>
      <trkpt lat="46.24424" lon="4.1159">
        <ele>458.20001220703</ele>
        <time>2023-05-30T10:55:39.000Z</time>
      </trkpt>
      <trkpt lat="46.24411" lon="4.116">
        <ele>458.20001220703</ele>
        <time>2023-05-30T10:55:42.000Z</time>
      </trkpt>
      <trkpt lat="46.24403" lon="4.11606">
        <ele>458.20001220703</ele>
        <time>2023-05-30T10:55:44.000Z</time>
      </trkpt>
      <trkpt lat="46.2438" lon="4.1162">
        <ele>458.39999389648</ele>
        <time>2023-05-30T10:55:49.000Z</time>
      </trkpt>
      <trkpt lat="46.24332" lon="4.11649">
        <ele>459.20001220703</ele>
        <time>2023-05-30T10:55:59.000Z</time>
      </trkpt>
      <trkpt lat="46.24323" lon="4.11655">
        <ele>459.20001220703</ele>
        <time>2023-05-30T10:56:01.000Z</time>
      </trkpt>
      <trkpt lat="46.24299" lon="4.1167">
        <ele>459.60000610352</ele>
        <time>2023-05-30T10:56:06.000Z</time>
      </trkpt>
      <trkpt lat="46.24267" lon="4.11699">
        <ele>459.60000610352</ele>
        <time>2023-05-30T10:56:13.000Z</time>
      </trkpt>
      <trkpt lat="46.24225" lon="4.11743">
        <ele>459.79998779297</ele>
        <time>2023-05-30T10:56:23.000Z</time>
      </trkpt>
      <trkpt lat="46.24201" lon="4.11776">
        <ele>460</ele>
        <time>2023-05-30T10:56:30.000Z</time>
      </trkpt>
      <trkpt lat="46.24198" lon="4.11781">
        <ele>460.20001220703</ele>
        <time>2023-05-30T10:56:31.000Z</time>
      </trkpt>
      <trkpt lat="46.24177" lon="4.11822">
        <ele>460.20001220703</ele>
        <time>2023-05-30T10:56:38.000Z</time>
      </trkpt>
      <trkpt lat="46.24155" lon="4.11877">
        <ele>461</ele>
        <time>2023-05-30T10:56:47.000Z</time>
      </trkpt>
      <trkpt lat="46.24152" lon="4.11883">
        <ele>461.20001220703</ele>
        <time>2023-05-30T10:56:48.000Z</time>
      </trkpt>
      <trkpt lat="46.24138" lon="4.11925">
        <ele>462</ele>
        <time>2023-05-30T10:56:55.000Z</time>
      </trkpt>
      <trkpt lat="46.24128" lon="4.11957">
        <ele>462.39999389648</ele>
        <time>2023-05-30T10:57:00.000Z</time>
      </trkpt>
      <trkpt lat="46.24124" lon="4.11973">
        <ele>462.60000610352</ele>
        <time>2023-05-30T10:57:02.000Z</time>
      </trkpt>
      <trkpt lat="46.24108" lon="4.12036">
        <ele>463.20001220703</ele>
        <time>2023-05-30T10:57:11.000Z</time>
      </trkpt>
      <trkpt lat="46.24104" lon="4.12049">
        <ele>463.39999389648</ele>
        <time>2023-05-30T10:57:13.000Z</time>
      </trkpt>
      <trkpt lat="46.24098" lon="4.12077">
        <ele>463.79998779297</ele>
        <time>2023-05-30T10:57:17.000Z</time>
      </trkpt>
      <trkpt lat="46.24095" lon="4.12089">
        <ele>464</ele>
        <time>2023-05-30T10:57:19.000Z</time>
      </trkpt>
      <trkpt lat="46.24084" lon="4.12132">
        <ele>464.39999389648</ele>
        <time>2023-05-30T10:57:25.000Z</time>
      </trkpt>
      <trkpt lat="46.24081" lon="4.12145">
        <ele>464.60000610352</ele>
        <time>2023-05-30T10:57:27.000Z</time>
      </trkpt>
      <trkpt lat="46.24066" lon="4.12205">
        <ele>464.60000610352</ele>
        <time>2023-05-30T10:57:36.000Z</time>
      </trkpt>
      <trkpt lat="46.24053" lon="4.12262">
        <ele>465</ele>
        <time>2023-05-30T10:57:44.000Z</time>
      </trkpt>
      <trkpt lat="46.24043" lon="4.12322">
        <ele>465.39999389648</ele>
        <time>2023-05-30T10:57:52.000Z</time>
      </trkpt>
      <trkpt lat="46.24042" lon="4.12328">
        <ele>465.39999389648</ele>
        <time>2023-05-30T10:57:53.000Z</time>
      </trkpt>
      <trkpt lat="46.24038" lon="4.12342">
        <ele>465.39999389648</ele>
        <time>2023-05-30T10:57:55.000Z</time>
      </trkpt>
      <trkpt lat="46.24037" lon="4.12348">
        <ele>465.39999389648</ele>
        <time>2023-05-30T10:57:56.000Z</time>
      </trkpt>
      <trkpt lat="46.24036" lon="4.12354">
        <ele>465.60000610352</ele>
        <time>2023-05-30T10:57:57.000Z</time>
      </trkpt>
      <trkpt lat="46.24031" lon="4.12391">
        <ele>465.60000610352</ele>
        <time>2023-05-30T10:58:02.000Z</time>
      </trkpt>
      <trkpt lat="46.24028" lon="4.12413">
        <ele>465.60000610352</ele>
        <time>2023-05-30T10:58:05.000Z</time>
      </trkpt>
      <trkpt lat="46.24026" lon="4.12428">
        <ele>465.60000610352</ele>
        <time>2023-05-30T10:58:07.000Z</time>
      </trkpt>
      <trkpt lat="46.24016" lon="4.12485">
        <ele>465.39999389648</ele>
        <time>2023-05-30T10:58:14.000Z</time>
      </trkpt>
      <trkpt lat="46.24008" lon="4.12535">
        <ele>465.39999389648</ele>
        <time>2023-05-30T10:58:21.000Z</time>
      </trkpt>
      <trkpt lat="46.24005" lon="4.12544">
        <ele>465.60000610352</ele>
        <time>2023-05-30T10:58:22.000Z</time>
      </trkpt>
      <trkpt lat="46.24003" lon="4.12558">
        <ele>465.79998779297</ele>
        <time>2023-05-30T10:58:24.000Z</time>
      </trkpt>
      <trkpt lat="46.23998" lon="4.12585">
        <ele>466</ele>
        <time>2023-05-30T10:58:28.000Z</time>
      </trkpt>
      <trkpt lat="46.23994" lon="4.12615">
        <ele>466.39999389648</ele>
        <time>2023-05-30T10:58:32.000Z</time>
      </trkpt>
      <trkpt lat="46.23989" lon="4.12644">
        <ele>467</ele>
        <time>2023-05-30T10:58:36.000Z</time>
      </trkpt>
      <trkpt lat="46.23986" lon="4.12665">
        <ele>467.20001220703</ele>
        <time>2023-05-30T10:58:39.000Z</time>
      </trkpt>
      <trkpt lat="46.23983" lon="4.12679">
        <ele>467.60000610352</ele>
        <time>2023-05-30T10:58:41.000Z</time>
      </trkpt>
      <trkpt lat="46.23982" lon="4.12687">
        <ele>467.79998779297</ele>
        <time>2023-05-30T10:58:42.000Z</time>
      </trkpt>
      <trkpt lat="46.23978" lon="4.12708">
        <ele>468</ele>
        <time>2023-05-30T10:58:45.000Z</time>
      </trkpt>
      <trkpt lat="46.23967" lon="4.12769">
        <ele>468.60000610352</ele>
        <time>2023-05-30T10:58:54.000Z</time>
      </trkpt>
      <trkpt lat="46.23966" lon="4.12776">
        <ele>468.60000610352</ele>
        <time>2023-05-30T10:58:55.000Z</time>
      </trkpt>
      <trkpt lat="46.23959" lon="4.12824">
        <ele>469.79998779297</ele>
        <time>2023-05-30T10:59:02.000Z</time>
      </trkpt>
      <trkpt lat="46.23958" lon="4.12831">
        <ele>469.79998779297</ele>
        <time>2023-05-30T10:59:03.000Z</time>
      </trkpt>
      <trkpt lat="46.23956" lon="4.12876">
        <ele>470.79998779297</ele>
        <time>2023-05-30T10:59:10.000Z</time>
      </trkpt>
      <trkpt lat="46.23955" lon="4.12901">
        <ele>471.39999389648</ele>
        <time>2023-05-30T10:59:14.000Z</time>
      </trkpt>
      <trkpt lat="46.23954" lon="4.12912">
        <ele>471.79998779297</ele>
        <time>2023-05-30T10:59:16.000Z</time>
      </trkpt>
      <trkpt lat="46.23953" lon="4.12945">
        <ele>473</ele>
        <time>2023-05-30T10:59:22.000Z</time>
      </trkpt>
      <trkpt lat="46.23953" lon="4.1295">
        <ele>473.20001220703</ele>
        <time>2023-05-30T10:59:23.000Z</time>
      </trkpt>
      <trkpt lat="46.23952" lon="4.12982">
        <ele>474.20001220703</ele>
        <time>2023-05-30T10:59:29.000Z</time>
      </trkpt>
      <trkpt lat="46.23951" lon="4.12998">
        <ele>475.20001220703</ele>
        <time>2023-05-30T10:59:32.000Z</time>
      </trkpt>
      <trkpt lat="46.23951" lon="4.13003">
        <ele>475.39999389648</ele>
        <time>2023-05-30T10:59:33.000Z</time>
      </trkpt>
      <trkpt lat="46.23951" lon="4.13007">
        <ele>475.60000610352</ele>
        <time>2023-05-30T10:59:34.000Z</time>
      </trkpt>
      <trkpt lat="46.23951" lon="4.13024">
        <ele>476.60000610352</ele>
        <time>2023-05-30T10:59:38.000Z</time>
      </trkpt>
      <trkpt lat="46.23951" lon="4.13028">
        <ele>476.79998779297</ele>
        <time>2023-05-30T10:59:39.000Z</time>
      </trkpt>
      <trkpt lat="46.2395" lon="4.13051">
        <ele>477.60000610352</ele>
        <time>2023-05-30T10:59:44.000Z</time>
      </trkpt>
      <trkpt lat="46.23949" lon="4.13055">
        <ele>477.79998779297</ele>
        <time>2023-05-30T10:59:45.000Z</time>
      </trkpt>
      <trkpt lat="46.23947" lon="4.13088">
        <ele>478.60000610352</ele>
        <time>2023-05-30T10:59:51.000Z</time>
      </trkpt>
      <trkpt lat="46.23947" lon="4.13105">
        <ele>479.20001220703</ele>
        <time>2023-05-30T10:59:54.000Z</time>
      </trkpt>
      <trkpt lat="46.23946" lon="4.13131">
        <ele>479.79998779297</ele>
        <time>2023-05-30T10:59:59.000Z</time>
      </trkpt>
      <trkpt lat="46.23945" lon="4.13163">
        <ele>480.79998779297</ele>
        <time>2023-05-30T11:00:05.000Z</time>
      </trkpt>
      <trkpt lat="46.23945" lon="4.13168">
        <ele>481</ele>
        <time>2023-05-30T11:00:06.000Z</time>
      </trkpt>
      <trkpt lat="46.23944" lon="4.13203">
        <ele>482.20001220703</ele>
        <time>2023-05-30T11:00:13.000Z</time>
      </trkpt>
      <trkpt lat="46.23944" lon="4.13213">
        <ele>482.60000610352</ele>
        <time>2023-05-30T11:00:15.000Z</time>
      </trkpt>
      <trkpt lat="46.23942" lon="4.13248">
        <ele>483.39999389648</ele>
        <time>2023-05-30T11:00:22.000Z</time>
      </trkpt>
      <trkpt lat="46.23942" lon="4.13259">
        <ele>483.79998779297</ele>
        <time>2023-05-30T11:00:24.000Z</time>
      </trkpt>
      <trkpt lat="46.23941" lon="4.13283">
        <ele>484.39999389648</ele>
        <time>2023-05-30T11:00:29.000Z</time>
      </trkpt>
      <trkpt lat="46.23938" lon="4.13314">
        <ele>485.39999389648</ele>
        <time>2023-05-30T11:00:35.000Z</time>
      </trkpt>
      <trkpt lat="46.23937" lon="4.13319">
        <ele>485.60000610352</ele>
        <time>2023-05-30T11:00:36.000Z</time>
      </trkpt>
      <trkpt lat="46.23934" lon="4.13356">
        <ele>486.60000610352</ele>
        <time>2023-05-30T11:00:43.000Z</time>
      </trkpt>
      <trkpt lat="46.23934" lon="4.13361">
        <ele>486.79998779297</ele>
        <time>2023-05-30T11:00:44.000Z</time>
      </trkpt>
      <trkpt lat="46.2393" lon="4.13388">
        <ele>487.60000610352</ele>
        <time>2023-05-30T11:00:49.000Z</time>
      </trkpt>
      <trkpt lat="46.23926" lon="4.1342">
        <ele>488.20001220703</ele>
        <time>2023-05-30T11:00:55.000Z</time>
      </trkpt>
      <trkpt lat="46.23922" lon="4.13448">
        <ele>488.60000610352</ele>
        <time>2023-05-30T11:01:00.000Z</time>
      </trkpt>
      <trkpt lat="46.23921" lon="4.13465">
        <ele>488.79998779297</ele>
        <time>2023-05-30T11:01:03.000Z</time>
      </trkpt>
      <trkpt lat="46.23915" lon="4.13518">
        <ele>490</ele>
        <time>2023-05-30T11:01:13.000Z</time>
      </trkpt>
      <trkpt lat="46.23914" lon="4.13524">
        <ele>490.39999389648</ele>
        <time>2023-05-30T11:01:14.000Z</time>
      </trkpt>
      <trkpt lat="46.23908" lon="4.13564">
        <ele>490.79998779297</ele>
        <time>2023-05-30T11:01:21.000Z</time>
      </trkpt>
      <trkpt lat="46.23907" lon="4.13576">
        <ele>491</ele>
        <time>2023-05-30T11:01:23.000Z</time>
      </trkpt>
      <trkpt lat="46.23902" lon="4.13615">
        <ele>492</ele>
        <time>2023-05-30T11:01:30.000Z</time>
      </trkpt>
      <trkpt lat="46.23901" lon="4.13627">
        <ele>492.39999389648</ele>
        <time>2023-05-30T11:01:32.000Z</time>
      </trkpt>
      <trkpt lat="46.23898" lon="4.13643">
        <ele>493</ele>
        <time>2023-05-30T11:01:35.000Z</time>
      </trkpt>
      <trkpt lat="46.2389" lon="4.13691">
        <ele>494.20001220703</ele>
        <time>2023-05-30T11:01:43.000Z</time>
      </trkpt>
      <trkpt lat="46.23889" lon="4.13697">
        <ele>494.20001220703</ele>
        <time>2023-05-30T11:01:44.000Z</time>
      </trkpt>
      <trkpt lat="46.2388" lon="4.13752">
        <ele>495.20001220703</ele>
        <time>2023-05-30T11:01:52.000Z</time>
      </trkpt>
      <trkpt lat="46.23879" lon="4.13757">
        <ele>495.39999389648</ele>
        <time>2023-05-30T11:01:53.000Z</time>
      </trkpt>
      <trkpt lat="46.23872" lon="4.13791">
        <ele>496.39999389648</ele>
        <time>2023-05-30T11:01:58.000Z</time>
      </trkpt>
      <trkpt lat="46.23869" lon="4.1381">
        <ele>496.79998779297</ele>
        <time>2023-05-30T11:02:01.000Z</time>
      </trkpt>
      <trkpt lat="46.23859" lon="4.13879">
        <ele>497.39999389648</ele>
        <time>2023-05-30T11:02:11.000Z</time>
      </trkpt>
      <trkpt lat="46.23859" lon="4.13893">
        <ele>497.39999389648</ele>
        <time>2023-05-30T11:02:13.000Z</time>
      </trkpt>
      <trkpt lat="46.23859" lon="4.139">
        <ele>497.60000610352</ele>
        <time>2023-05-30T11:02:14.000Z</time>
      </trkpt>
      <trkpt lat="46.2386" lon="4.13921">
        <ele>497.79998779297</ele>
        <time>2023-05-30T11:02:17.000Z</time>
      </trkpt>
      <trkpt lat="46.23861" lon="4.13958">
        <ele>498</ele>
        <time>2023-05-30T11:02:22.000Z</time>
      </trkpt>
      <trkpt lat="46.23862" lon="4.1399">
        <ele>498.20001220703</ele>
        <time>2023-05-30T11:02:26.000Z</time>
      </trkpt>
      <trkpt lat="46.23861" lon="4.14065">
        <ele>497.79998779297</ele>
        <time>2023-05-30T11:02:35.000Z</time>
      </trkpt>
      <trkpt lat="46.2386" lon="4.14074">
        <ele>497.79998779297</ele>
        <time>2023-05-30T11:02:36.000Z</time>
      </trkpt>
      <trkpt lat="46.23854" lon="4.14092">
        <ele>497.60000610352</ele>
        <time>2023-05-30T11:02:38.000Z</time>
      </trkpt>
      <trkpt lat="46.2385" lon="4.141">
        <ele>497.60000610352</ele>
        <time>2023-05-30T11:02:39.000Z</time>
      </trkpt>
      <trkpt lat="46.23845" lon="4.14106">
        <ele>497.60000610352</ele>
        <time>2023-05-30T11:02:40.000Z</time>
      </trkpt>
      <trkpt lat="46.23829" lon="4.14121">
        <ele>497.39999389648</ele>
        <time>2023-05-30T11:02:43.000Z</time>
      </trkpt>
      <trkpt lat="46.23796" lon="4.14149">
        <ele>496.60000610352</ele>
        <time>2023-05-30T11:02:49.000Z</time>
      </trkpt>
      <trkpt lat="46.23781" lon="4.14162">
        <ele>496.39999389648</ele>
        <time>2023-05-30T11:02:52.000Z</time>
      </trkpt>
      <trkpt lat="46.23737" lon="4.14199">
        <ele>496</ele>
        <time>2023-05-30T11:03:00.000Z</time>
      </trkpt>
      <trkpt lat="46.23703" lon="4.14236">
        <ele>495.79998779297</ele>
        <time>2023-05-30T11:03:07.000Z</time>
      </trkpt>
      <trkpt lat="46.23663" lon="4.14279">
        <ele>495.79998779297</ele>
        <time>2023-05-30T11:03:16.000Z</time>
      </trkpt>
      <trkpt lat="46.23629" lon="4.14317">
        <ele>495.60000610352</ele>
        <time>2023-05-30T11:03:24.000Z</time>
      </trkpt>
      <trkpt lat="46.23586" lon="4.14363">
        <ele>494.79998779297</ele>
        <time>2023-05-30T11:03:34.000Z</time>
      </trkpt>
      <trkpt lat="46.23581" lon="4.14368">
        <ele>494.79998779297</ele>
        <time>2023-05-30T11:03:35.000Z</time>
      </trkpt>
      <trkpt lat="46.23571" lon="4.14379">
        <ele>494.60000610352</ele>
        <time>2023-05-30T11:03:37.000Z</time>
      </trkpt>
      <trkpt lat="46.2354" lon="4.14412">
        <ele>493.60000610352</ele>
        <time>2023-05-30T11:03:43.000Z</time>
      </trkpt>
      <trkpt lat="46.23529" lon="4.14423">
        <ele>493.39999389648</ele>
        <time>2023-05-30T11:03:45.000Z</time>
      </trkpt>
      <trkpt lat="46.23499" lon="4.14451">
        <ele>492.60000610352</ele>
        <time>2023-05-30T11:03:50.000Z</time>
      </trkpt>
      <trkpt lat="46.23493" lon="4.14456">
        <ele>492.39999389648</ele>
        <time>2023-05-30T11:03:51.000Z</time>
      </trkpt>
      <trkpt lat="46.23465" lon="4.14472">
        <ele>491.39999389648</ele>
        <time>2023-05-30T11:03:55.000Z</time>
      </trkpt>
      <trkpt lat="46.23457" lon="4.14476">
        <ele>491</ele>
        <time>2023-05-30T11:03:56.000Z</time>
      </trkpt>
      <trkpt lat="46.23425" lon="4.14489">
        <ele>490</ele>
        <time>2023-05-30T11:04:00.000Z</time>
      </trkpt>
      <trkpt lat="46.23416" lon="4.14491">
        <ele>489.79998779297</ele>
        <time>2023-05-30T11:04:01.000Z</time>
      </trkpt>
      <trkpt lat="46.2339" lon="4.14495">
        <ele>488.79998779297</ele>
        <time>2023-05-30T11:04:04.000Z</time>
      </trkpt>
      <trkpt lat="46.23367" lon="4.14497">
        <ele>487.60000610352</ele>
        <time>2023-05-30T11:04:07.000Z</time>
      </trkpt>
      <trkpt lat="46.23332" lon="4.14497">
        <ele>486.20001220703</ele>
        <time>2023-05-30T11:04:12.000Z</time>
      </trkpt>
      <trkpt lat="46.23304" lon="4.14493">
        <ele>485.20001220703</ele>
        <time>2023-05-30T11:04:17.000Z</time>
      </trkpt>
      <trkpt lat="46.23299" lon="4.14492">
        <ele>485</ele>
        <time>2023-05-30T11:04:18.000Z</time>
      </trkpt>
      <trkpt lat="46.23295" lon="4.14493">
        <ele>484.79998779297</ele>
        <time>2023-05-30T11:04:19.000Z</time>
      </trkpt>
      <trkpt lat="46.23292" lon="4.14496">
        <ele>484.79998779297</ele>
        <time>2023-05-30T11:04:20.000Z</time>
      </trkpt>
      <trkpt lat="46.2329" lon="4.14501">
        <ele>484.60000610352</ele>
        <time>2023-05-30T11:04:21.000Z</time>
      </trkpt>
      <trkpt lat="46.23288" lon="4.1451">
        <ele>484.39999389648</ele>
        <time>2023-05-30T11:04:23.000Z</time>
      </trkpt>
      <trkpt lat="46.23283" lon="4.14521">
        <ele>484</ele>
        <time>2023-05-30T11:04:26.000Z</time>
      </trkpt>
      <trkpt lat="46.23282" lon="4.14522">
        <ele>483.60000610352</ele>
        <time>2023-05-30T11:04:27.000Z</time>
      </trkpt>
      <trkpt lat="46.23279" lon="4.14523">
        <ele>483.20001220703</ele>
        <time>2023-05-30T11:04:29.000Z</time>
      </trkpt>
      <trkpt lat="46.23275" lon="4.1452">
        <ele>482.79998779297</ele>
        <time>2023-05-30T11:04:31.000Z</time>
      </trkpt>
      <trkpt lat="46.23274" lon="4.14517">
        <ele>482.60000610352</ele>
        <time>2023-05-30T11:04:33.000Z</time>
      </trkpt>
      <trkpt lat="46.23273" lon="4.14517">
        <ele>482.39999389648</ele>
        <time>2023-05-30T11:04:35.000Z</time>
      </trkpt>
      <trkpt lat="46.23283" lon="4.14529">
        <ele>483.60000610352</ele>
        <time>2023-05-30T11:18:24.000Z</time>
      </trkpt>
      <trkpt lat="46.23283" lon="4.14536">
        <ele>483.60000610352</ele>
        <time>2023-05-30T11:18:26.000Z</time>
      </trkpt>
      <trkpt lat="46.23281" lon="4.14539">
        <ele>483.60000610352</ele>
        <time>2023-05-30T11:18:28.000Z</time>
      </trkpt>
      <trkpt lat="46.23281" lon="4.14539">
        <ele>483.39999389648</ele>
        <time>2023-05-30T11:18:30.000Z</time>
      </trkpt>
      <trkpt lat="46.23281" lon="4.14539">
        <ele>483.20001220703</ele>
        <time>2023-05-30T11:18:31.000Z</time>
      </trkpt>
      <trkpt lat="46.23282" lon="4.14542">
        <ele>482.39999389648</ele>
        <time>2023-05-30T11:18:46.000Z</time>
      </trkpt>
      <trkpt lat="46.23286" lon="4.14549">
        <ele>482.39999389648</ele>
        <time>2023-05-30T11:18:48.000Z</time>
      </trkpt>
      <trkpt lat="46.23301" lon="4.14576">
        <ele>482.20001220703</ele>
        <time>2023-05-30T11:18:54.000Z</time>
      </trkpt>
      <trkpt lat="46.23319" lon="4.14608">
        <ele>481.60000610352</ele>
        <time>2023-05-30T11:19:00.000Z</time>
      </trkpt>
      <trkpt lat="46.23329" lon="4.14626">
        <ele>481.39999389648</ele>
        <time>2023-05-30T11:19:03.000Z</time>
      </trkpt>
      <trkpt lat="46.23341" lon="4.14648">
        <ele>480.60000610352</ele>
        <time>2023-05-30T11:19:07.000Z</time>
      </trkpt>
      <trkpt lat="46.23347" lon="4.1466">
        <ele>480.39999389648</ele>
        <time>2023-05-30T11:19:09.000Z</time>
      </trkpt>
      <trkpt lat="46.2336" lon="4.14684">
        <ele>479.60000610352</ele>
        <time>2023-05-30T11:19:12.000Z</time>
      </trkpt>
      <trkpt lat="46.23364" lon="4.14691">
        <ele>479.20001220703</ele>
        <time>2023-05-30T11:19:13.000Z</time>
      </trkpt>
      <trkpt lat="46.23373" lon="4.14708">
        <ele>478</ele>
        <time>2023-05-30T11:19:15.000Z</time>
      </trkpt>
      <trkpt lat="46.23387" lon="4.14734">
        <ele>477.20001220703</ele>
        <time>2023-05-30T11:19:18.000Z</time>
      </trkpt>
      <trkpt lat="46.23392" lon="4.14743">
        <ele>476.60000610352</ele>
        <time>2023-05-30T11:19:19.000Z</time>
      </trkpt>
      <trkpt lat="46.234" lon="4.14762">
        <ele>475.39999389648</ele>
        <time>2023-05-30T11:19:21.000Z</time>
      </trkpt>
      <trkpt lat="46.23408" lon="4.14783">
        <ele>474.20001220703</ele>
        <time>2023-05-30T11:19:23.000Z</time>
      </trkpt>
      <trkpt lat="46.23411" lon="4.14795">
        <ele>473.20001220703</ele>
        <time>2023-05-30T11:19:24.000Z</time>
      </trkpt>
      <trkpt lat="46.23413" lon="4.14811">
        <ele>472.79998779297</ele>
        <time>2023-05-30T11:19:25.000Z</time>
      </trkpt>
      <trkpt lat="46.23414" lon="4.14837">
        <ele>471.39999389648</ele>
        <time>2023-05-30T11:19:27.000Z</time>
      </trkpt>
      <trkpt lat="46.23414" lon="4.14847">
        <ele>470.39999389648</ele>
        <time>2023-05-30T11:19:28.000Z</time>
      </trkpt>
      <trkpt lat="46.23413" lon="4.1486">
        <ele>468.60000610352</ele>
        <time>2023-05-30T11:19:29.000Z</time>
      </trkpt>
      <trkpt lat="46.23411" lon="4.14889">
        <ele>467</ele>
        <time>2023-05-30T11:19:31.000Z</time>
      </trkpt>
      <trkpt lat="46.23407" lon="4.14915">
        <ele>464.39999389648</ele>
        <time>2023-05-30T11:19:33.000Z</time>
      </trkpt>
      <trkpt lat="46.23401" lon="4.14945">
        <ele>462.79998779297</ele>
        <time>2023-05-30T11:19:35.000Z</time>
      </trkpt>
      <trkpt lat="46.23396" lon="4.14976">
        <ele>460.60000610352</ele>
        <time>2023-05-30T11:19:37.000Z</time>
      </trkpt>
      <trkpt lat="46.23392" lon="4.14991">
        <ele>459.39999389648</ele>
        <time>2023-05-30T11:19:38.000Z</time>
      </trkpt>
      <trkpt lat="46.23389" lon="4.15006">
        <ele>458.79998779297</ele>
        <time>2023-05-30T11:19:39.000Z</time>
      </trkpt>
      <trkpt lat="46.23386" lon="4.15021">
        <ele>457.39999389648</ele>
        <time>2023-05-30T11:19:40.000Z</time>
      </trkpt>
      <trkpt lat="46.23381" lon="4.15051">
        <ele>455.60000610352</ele>
        <time>2023-05-30T11:19:42.000Z</time>
      </trkpt>
      <trkpt lat="46.23376" lon="4.15083">
        <ele>453.60000610352</ele>
        <time>2023-05-30T11:19:44.000Z</time>
      </trkpt>
      <trkpt lat="46.23374" lon="4.15099">
        <ele>452.79998779297</ele>
        <time>2023-05-30T11:19:45.000Z</time>
      </trkpt>
      <trkpt lat="46.23372" lon="4.15114">
        <ele>452</ele>
        <time>2023-05-30T11:19:46.000Z</time>
      </trkpt>
      <trkpt lat="46.23371" lon="4.15127">
        <ele>450.60000610352</ele>
        <time>2023-05-30T11:19:47.000Z</time>
      </trkpt>
      <trkpt lat="46.23366" lon="4.15161">
        <ele>448.60000610352</ele>
        <time>2023-05-30T11:19:49.000Z</time>
      </trkpt>
      <trkpt lat="46.23362" lon="4.15189">
        <ele>446.39999389648</ele>
        <time>2023-05-30T11:19:51.000Z</time>
      </trkpt>
      <trkpt lat="46.23358" lon="4.15219">
        <ele>445</ele>
        <time>2023-05-30T11:19:53.000Z</time>
      </trkpt>
      <trkpt lat="46.23354" lon="4.15253">
        <ele>443.79998779297</ele>
        <time>2023-05-30T11:19:55.000Z</time>
      </trkpt>
      <trkpt lat="46.23353" lon="4.15265">
        <ele>442.79998779297</ele>
        <time>2023-05-30T11:19:56.000Z</time>
      </trkpt>
      <trkpt lat="46.23349" lon="4.15296">
        <ele>441</ele>
        <time>2023-05-30T11:19:58.000Z</time>
      </trkpt>
      <trkpt lat="46.23347" lon="4.15322">
        <ele>439.39999389648</ele>
        <time>2023-05-30T11:20:00.000Z</time>
      </trkpt>
      <trkpt lat="46.23346" lon="4.1535">
        <ele>438</ele>
        <time>2023-05-30T11:20:02.000Z</time>
      </trkpt>
      <trkpt lat="46.23347" lon="4.15364">
        <ele>437.20001220703</ele>
        <time>2023-05-30T11:20:03.000Z</time>
      </trkpt>
      <trkpt lat="46.23349" lon="4.15378">
        <ele>436.79998779297</ele>
        <time>2023-05-30T11:20:04.000Z</time>
      </trkpt>
      <trkpt lat="46.23352" lon="4.15394">
        <ele>435.79998779297</ele>
        <time>2023-05-30T11:20:05.000Z</time>
      </trkpt>
      <trkpt lat="46.23354" lon="4.15405">
        <ele>435.39999389648</ele>
        <time>2023-05-30T11:20:06.000Z</time>
      </trkpt>
      <trkpt lat="46.23363" lon="4.15431">
        <ele>434.60000610352</ele>
        <time>2023-05-30T11:20:08.000Z</time>
      </trkpt>
      <trkpt lat="46.23372" lon="4.15458">
        <ele>433.20001220703</ele>
        <time>2023-05-30T11:20:10.000Z</time>
      </trkpt>
      <trkpt lat="46.23375" lon="4.15468">
        <ele>432.60000610352</ele>
        <time>2023-05-30T11:20:11.000Z</time>
      </trkpt>
      <trkpt lat="46.2338" lon="4.1548">
        <ele>432</ele>
        <time>2023-05-30T11:20:12.000Z</time>
      </trkpt>
      <trkpt lat="46.23389" lon="4.15506">
        <ele>431.39999389648</ele>
        <time>2023-05-30T11:20:14.000Z</time>
      </trkpt>
      <trkpt lat="46.23391" lon="4.15515">
        <ele>431</ele>
        <time>2023-05-30T11:20:15.000Z</time>
      </trkpt>
      <trkpt lat="46.23398" lon="4.15539">
        <ele>429.79998779297</ele>
        <time>2023-05-30T11:20:17.000Z</time>
      </trkpt>
      <trkpt lat="46.23406" lon="4.15567">
        <ele>428.39999389648</ele>
        <time>2023-05-30T11:20:19.000Z</time>
      </trkpt>
      <trkpt lat="46.23411" lon="4.15591">
        <ele>427.39999389648</ele>
        <time>2023-05-30T11:20:21.000Z</time>
      </trkpt>
      <trkpt lat="46.23417" lon="4.15618">
        <ele>426.20001220703</ele>
        <time>2023-05-30T11:20:23.000Z</time>
      </trkpt>
      <trkpt lat="46.23424" lon="4.1566">
        <ele>424.60000610352</ele>
        <time>2023-05-30T11:20:26.000Z</time>
      </trkpt>
      <trkpt lat="46.23425" lon="4.15689">
        <ele>423.60000610352</ele>
        <time>2023-05-30T11:20:28.000Z</time>
      </trkpt>
      <trkpt lat="46.23425" lon="4.15732">
        <ele>422.39999389648</ele>
        <time>2023-05-30T11:20:31.000Z</time>
      </trkpt>
      <trkpt lat="46.23425" lon="4.15762">
        <ele>421.39999389648</ele>
        <time>2023-05-30T11:20:33.000Z</time>
      </trkpt>
      <trkpt lat="46.23425" lon="4.15773">
        <ele>421</ele>
        <time>2023-05-30T11:20:34.000Z</time>
      </trkpt>
      <trkpt lat="46.23425" lon="4.15799">
        <ele>420.39999389648</ele>
        <time>2023-05-30T11:20:36.000Z</time>
      </trkpt>
      <trkpt lat="46.23426" lon="4.15828">
        <ele>419.79998779297</ele>
        <time>2023-05-30T11:20:38.000Z</time>
      </trkpt>
      <trkpt lat="46.23426" lon="4.15864">
        <ele>419.20001220703</ele>
        <time>2023-05-30T11:20:41.000Z</time>
      </trkpt>
      <trkpt lat="46.23424" lon="4.15901">
        <ele>418.39999389648</ele>
        <time>2023-05-30T11:20:44.000Z</time>
      </trkpt>
      <trkpt lat="46.23422" lon="4.15914">
        <ele>418.39999389648</ele>
        <time>2023-05-30T11:20:45.000Z</time>
      </trkpt>
      <trkpt lat="46.23417" lon="4.15939">
        <ele>417.79998779297</ele>
        <time>2023-05-30T11:20:47.000Z</time>
      </trkpt>
      <trkpt lat="46.23413" lon="4.15954">
        <ele>417.20001220703</ele>
        <time>2023-05-30T11:20:48.000Z</time>
      </trkpt>
      <trkpt lat="46.23406" lon="4.15978">
        <ele>416.79998779297</ele>
        <time>2023-05-30T11:20:50.000Z</time>
      </trkpt>
      <trkpt lat="46.23395" lon="4.16018">
        <ele>415.60000610352</ele>
        <time>2023-05-30T11:20:53.000Z</time>
      </trkpt>
      <trkpt lat="46.23389" lon="4.16046">
        <ele>414.79998779297</ele>
        <time>2023-05-30T11:20:55.000Z</time>
      </trkpt>
      <trkpt lat="46.23385" lon="4.16062">
        <ele>414.39999389648</ele>
        <time>2023-05-30T11:20:56.000Z</time>
      </trkpt>
      <trkpt lat="46.23379" lon="4.16088">
        <ele>413</ele>
        <time>2023-05-30T11:20:58.000Z</time>
      </trkpt>
      <trkpt lat="46.23373" lon="4.16117">
        <ele>411.60000610352</ele>
        <time>2023-05-30T11:21:00.000Z</time>
      </trkpt>
      <trkpt lat="46.23367" lon="4.16146">
        <ele>410.20001220703</ele>
        <time>2023-05-30T11:21:02.000Z</time>
      </trkpt>
      <trkpt lat="46.23362" lon="4.16175">
        <ele>408.39999389648</ele>
        <time>2023-05-30T11:21:04.000Z</time>
      </trkpt>
      <trkpt lat="46.23359" lon="4.1619">
        <ele>408</ele>
        <time>2023-05-30T11:21:05.000Z</time>
      </trkpt>
      <trkpt lat="46.23357" lon="4.16205">
        <ele>407</ele>
        <time>2023-05-30T11:21:06.000Z</time>
      </trkpt>
      <trkpt lat="46.23352" lon="4.16253">
        <ele>405.60000610352</ele>
        <time>2023-05-30T11:21:09.000Z</time>
      </trkpt>
      <trkpt lat="46.23351" lon="4.16272">
        <ele>405</ele>
        <time>2023-05-30T11:21:10.000Z</time>
      </trkpt>
      <trkpt lat="46.2335" lon="4.16288">
        <ele>404</ele>
        <time>2023-05-30T11:21:11.000Z</time>
      </trkpt>
      <trkpt lat="46.23349" lon="4.16316">
        <ele>402.20001220703</ele>
        <time>2023-05-30T11:21:13.000Z</time>
      </trkpt>
      <trkpt lat="46.23348" lon="4.16331">
        <ele>401.60000610352</ele>
        <time>2023-05-30T11:21:14.000Z</time>
      </trkpt>
      <trkpt lat="46.23347" lon="4.16346">
        <ele>400.39999389648</ele>
        <time>2023-05-30T11:21:15.000Z</time>
      </trkpt>
      <trkpt lat="46.23346" lon="4.16376">
        <ele>399</ele>
        <time>2023-05-30T11:21:17.000Z</time>
      </trkpt>
      <trkpt lat="46.23346" lon="4.16391">
        <ele>398</ele>
        <time>2023-05-30T11:21:18.000Z</time>
      </trkpt>
      <trkpt lat="46.23346" lon="4.16407">
        <ele>397.39999389648</ele>
        <time>2023-05-30T11:21:19.000Z</time>
      </trkpt>
      <trkpt lat="46.23346" lon="4.16425">
        <ele>396.39999389648</ele>
        <time>2023-05-30T11:21:20.000Z</time>
      </trkpt>
      <trkpt lat="46.23345" lon="4.16452">
        <ele>395.20001220703</ele>
        <time>2023-05-30T11:21:22.000Z</time>
      </trkpt>
      <trkpt lat="46.23345" lon="4.16482">
        <ele>394</ele>
        <time>2023-05-30T11:21:24.000Z</time>
      </trkpt>
      <trkpt lat="46.23344" lon="4.16514">
        <ele>392.60000610352</ele>
        <time>2023-05-30T11:21:26.000Z</time>
      </trkpt>
      <trkpt lat="46.23343" lon="4.16525">
        <ele>391.60000610352</ele>
        <time>2023-05-30T11:21:27.000Z</time>
      </trkpt>
      <trkpt lat="46.23338" lon="4.16555">
        <ele>390.39999389648</ele>
        <time>2023-05-30T11:21:29.000Z</time>
      </trkpt>
      <trkpt lat="46.23336" lon="4.16565">
        <ele>389</ele>
        <time>2023-05-30T11:21:30.000Z</time>
      </trkpt>
      <trkpt lat="46.23332" lon="4.16591">
        <ele>387.79998779297</ele>
        <time>2023-05-30T11:21:32.000Z</time>
      </trkpt>
      <trkpt lat="46.23327" lon="4.16617">
        <ele>386.20001220703</ele>
        <time>2023-05-30T11:21:34.000Z</time>
      </trkpt>
      <trkpt lat="46.23321" lon="4.16645">
        <ele>384.79998779297</ele>
        <time>2023-05-30T11:21:36.000Z</time>
      </trkpt>
      <trkpt lat="46.23318" lon="4.16658">
        <ele>384.20001220703</ele>
        <time>2023-05-30T11:21:37.000Z</time>
      </trkpt>
      <trkpt lat="46.23315" lon="4.16672">
        <ele>383.20001220703</ele>
        <time>2023-05-30T11:21:38.000Z</time>
      </trkpt>
      <trkpt lat="46.23312" lon="4.16689">
        <ele>382</ele>
        <time>2023-05-30T11:21:39.000Z</time>
      </trkpt>
      <trkpt lat="46.23307" lon="4.16714">
        <ele>380.20001220703</ele>
        <time>2023-05-30T11:21:41.000Z</time>
      </trkpt>
      <trkpt lat="46.23301" lon="4.16746">
        <ele>378.79998779297</ele>
        <time>2023-05-30T11:21:43.000Z</time>
      </trkpt>
      <trkpt lat="46.23299" lon="4.16758">
        <ele>378.20001220703</ele>
        <time>2023-05-30T11:21:44.000Z</time>
      </trkpt>
      <trkpt lat="46.23296" lon="4.16772">
        <ele>377.20001220703</ele>
        <time>2023-05-30T11:21:45.000Z</time>
      </trkpt>
      <trkpt lat="46.2329" lon="4.16801">
        <ele>375.60000610352</ele>
        <time>2023-05-30T11:21:47.000Z</time>
      </trkpt>
      <trkpt lat="46.23288" lon="4.16815">
        <ele>374.60000610352</ele>
        <time>2023-05-30T11:21:48.000Z</time>
      </trkpt>
      <trkpt lat="46.23281" lon="4.16846">
        <ele>372.79998779297</ele>
        <time>2023-05-30T11:21:50.000Z</time>
      </trkpt>
      <trkpt lat="46.23276" lon="4.16871">
        <ele>371.79998779297</ele>
        <time>2023-05-30T11:21:52.000Z</time>
      </trkpt>
      <trkpt lat="46.2327" lon="4.169">
        <ele>370.60000610352</ele>
        <time>2023-05-30T11:21:54.000Z</time>
      </trkpt>
      <trkpt lat="46.23263" lon="4.16923">
        <ele>369</ele>
        <time>2023-05-30T11:21:56.000Z</time>
      </trkpt>
      <trkpt lat="46.23261" lon="4.16936">
        <ele>368.39999389648</ele>
        <time>2023-05-30T11:21:57.000Z</time>
      </trkpt>
      <trkpt lat="46.23259" lon="4.16949">
        <ele>368</ele>
        <time>2023-05-30T11:21:58.000Z</time>
      </trkpt>
      <trkpt lat="46.23259" lon="4.16966">
        <ele>367.60000610352</ele>
        <time>2023-05-30T11:21:59.000Z</time>
      </trkpt>
      <trkpt lat="46.2326" lon="4.16992">
        <ele>367</ele>
        <time>2023-05-30T11:22:01.000Z</time>
      </trkpt>
      <trkpt lat="46.2326" lon="4.1701">
        <ele>366</ele>
        <time>2023-05-30T11:22:02.000Z</time>
      </trkpt>
      <trkpt lat="46.23261" lon="4.17025">
        <ele>365.39999389648</ele>
        <time>2023-05-30T11:22:03.000Z</time>
      </trkpt>
      <trkpt lat="46.23263" lon="4.17053">
        <ele>364.20001220703</ele>
        <time>2023-05-30T11:22:05.000Z</time>
      </trkpt>
      <trkpt lat="46.23266" lon="4.17083">
        <ele>362.79998779297</ele>
        <time>2023-05-30T11:22:07.000Z</time>
      </trkpt>
      <trkpt lat="46.23268" lon="4.17098">
        <ele>362</ele>
        <time>2023-05-30T11:22:08.000Z</time>
      </trkpt>
      <trkpt lat="46.2327" lon="4.17115">
        <ele>361.39999389648</ele>
        <time>2023-05-30T11:22:09.000Z</time>
      </trkpt>
      <trkpt lat="46.23273" lon="4.17162">
        <ele>360.79998779297</ele>
        <time>2023-05-30T11:22:13.000Z</time>
      </trkpt>
      <trkpt lat="46.23273" lon="4.17204">
        <ele>361.20001220703</ele>
        <time>2023-05-30T11:22:17.000Z</time>
      </trkpt>
      <trkpt lat="46.23277" lon="4.17233">
        <ele>362.20001220703</ele>
        <time>2023-05-30T11:22:21.000Z</time>
      </trkpt>
      <trkpt lat="46.23278" lon="4.1724">
        <ele>362.79998779297</ele>
        <time>2023-05-30T11:22:22.000Z</time>
      </trkpt>
      <trkpt lat="46.2328" lon="4.17248">
        <ele>362.79998779297</ele>
        <time>2023-05-30T11:22:23.000Z</time>
      </trkpt>
      <trkpt lat="46.23285" lon="4.17265">
        <ele>363.39999389648</ele>
        <time>2023-05-30T11:22:26.000Z</time>
      </trkpt>
      <trkpt lat="46.23289" lon="4.17281">
        <ele>364</ele>
        <time>2023-05-30T11:22:29.000Z</time>
      </trkpt>
      <trkpt lat="46.23292" lon="4.17295">
        <ele>364.79998779297</ele>
        <time>2023-05-30T11:22:32.000Z</time>
      </trkpt>
      <trkpt lat="46.23294" lon="4.17303">
        <ele>365.39999389648</ele>
        <time>2023-05-30T11:22:34.000Z</time>
      </trkpt>
      <trkpt lat="46.23298" lon="4.1732">
        <ele>366.20001220703</ele>
        <time>2023-05-30T11:22:38.000Z</time>
      </trkpt>
      <trkpt lat="46.233" lon="4.17324">
        <ele>366.60000610352</ele>
        <time>2023-05-30T11:22:39.000Z</time>
      </trkpt>
      <trkpt lat="46.23308" lon="4.17348">
        <ele>367.79998779297</ele>
        <time>2023-05-30T11:22:45.000Z</time>
      </trkpt>
      <trkpt lat="46.23312" lon="4.17359">
        <ele>368.60000610352</ele>
        <time>2023-05-30T11:22:48.000Z</time>
      </trkpt>
      <trkpt lat="46.23315" lon="4.17366">
        <ele>369.20001220703</ele>
        <time>2023-05-30T11:22:50.000Z</time>
      </trkpt>
      <trkpt lat="46.23316" lon="4.1737">
        <ele>369.39999389648</ele>
        <time>2023-05-30T11:22:51.000Z</time>
      </trkpt>
      <trkpt lat="46.23321" lon="4.17385">
        <ele>370.39999389648</ele>
        <time>2023-05-30T11:22:55.000Z</time>
      </trkpt>
      <trkpt lat="46.23328" lon="4.17404">
        <ele>371.39999389648</ele>
        <time>2023-05-30T11:23:00.000Z</time>
      </trkpt>
      <trkpt lat="46.23331" lon="4.17412">
        <ele>372</ele>
        <time>2023-05-30T11:23:02.000Z</time>
      </trkpt>
      <trkpt lat="46.23334" lon="4.17419">
        <ele>372.60000610352</ele>
        <time>2023-05-30T11:23:04.000Z</time>
      </trkpt>
      <trkpt lat="46.23341" lon="4.17438">
        <ele>373.60000610352</ele>
        <time>2023-05-30T11:23:09.000Z</time>
      </trkpt>
      <trkpt lat="46.23342" lon="4.17441">
        <ele>374</ele>
        <time>2023-05-30T11:23:10.000Z</time>
      </trkpt>
      <trkpt lat="46.23346" lon="4.17451">
        <ele>374.79998779297</ele>
        <time>2023-05-30T11:23:13.000Z</time>
      </trkpt>
      <trkpt lat="46.23353" lon="4.17466">
        <ele>375.79998779297</ele>
        <time>2023-05-30T11:23:17.000Z</time>
      </trkpt>
      <trkpt lat="46.23355" lon="4.1747">
        <ele>376</ele>
        <time>2023-05-30T11:23:18.000Z</time>
      </trkpt>
      <trkpt lat="46.23363" lon="4.17487">
        <ele>376.79998779297</ele>
        <time>2023-05-30T11:23:23.000Z</time>
      </trkpt>
      <trkpt lat="46.23371" lon="4.175">
        <ele>377.60000610352</ele>
        <time>2023-05-30T11:23:27.000Z</time>
      </trkpt>
      <trkpt lat="46.23376" lon="4.1751">
        <ele>378</ele>
        <time>2023-05-30T11:23:30.000Z</time>
      </trkpt>
      <trkpt lat="46.23384" lon="4.17523">
        <ele>379</ele>
        <time>2023-05-30T11:23:34.000Z</time>
      </trkpt>
      <trkpt lat="46.23387" lon="4.17529">
        <ele>379.39999389648</ele>
        <time>2023-05-30T11:23:36.000Z</time>
      </trkpt>
      <trkpt lat="46.23393" lon="4.17538">
        <ele>380.20001220703</ele>
        <time>2023-05-30T11:23:39.000Z</time>
      </trkpt>
      <trkpt lat="46.23406" lon="4.17555">
        <ele>381.20001220703</ele>
        <time>2023-05-30T11:23:45.000Z</time>
      </trkpt>
      <trkpt lat="46.23415" lon="4.17564">
        <ele>382</ele>
        <time>2023-05-30T11:23:48.000Z</time>
      </trkpt>
      <trkpt lat="46.23423" lon="4.17572">
        <ele>382.20001220703</ele>
        <time>2023-05-30T11:23:51.000Z</time>
      </trkpt>
      <trkpt lat="46.23426" lon="4.17574">
        <ele>382.39999389648</ele>
        <time>2023-05-30T11:23:52.000Z</time>
      </trkpt>
      <trkpt lat="46.2345" lon="4.1759">
        <ele>382.60000610352</ele>
        <time>2023-05-30T11:23:59.000Z</time>
      </trkpt>
      <trkpt lat="46.23481" lon="4.17603">
        <ele>382.39999389648</ele>
        <time>2023-05-30T11:24:05.000Z</time>
      </trkpt>
      <trkpt lat="46.23521" lon="4.17612">
        <ele>381.60000610352</ele>
        <time>2023-05-30T11:24:12.000Z</time>
      </trkpt>
      <trkpt lat="46.23533" lon="4.17614">
        <ele>381.39999389648</ele>
        <time>2023-05-30T11:24:14.000Z</time>
      </trkpt>
      <trkpt lat="46.2357" lon="4.17624">
        <ele>380.60000610352</ele>
        <time>2023-05-30T11:24:20.000Z</time>
      </trkpt>
      <trkpt lat="46.23576" lon="4.17628">
        <ele>380.60000610352</ele>
        <time>2023-05-30T11:24:21.000Z</time>
      </trkpt>
      <trkpt lat="46.23581" lon="4.17633">
        <ele>380.39999389648</ele>
        <time>2023-05-30T11:24:22.000Z</time>
      </trkpt>
      <trkpt lat="46.23586" lon="4.1764">
        <ele>380.39999389648</ele>
        <time>2023-05-30T11:24:23.000Z</time>
      </trkpt>
      <trkpt lat="46.23589" lon="4.17647">
        <ele>380.39999389648</ele>
        <time>2023-05-30T11:24:24.000Z</time>
      </trkpt>
      <trkpt lat="46.23593" lon="4.17654">
        <ele>380.20001220703</ele>
        <time>2023-05-30T11:24:25.000Z</time>
      </trkpt>
      <trkpt lat="46.23607" lon="4.17696">
        <ele>380.20001220703</ele>
        <time>2023-05-30T11:24:31.000Z</time>
      </trkpt>
      <trkpt lat="46.23623" lon="4.17737">
        <ele>380.79998779297</ele>
        <time>2023-05-30T11:24:38.000Z</time>
      </trkpt>
      <trkpt lat="46.23628" lon="4.17748">
        <ele>381.39999389648</ele>
        <time>2023-05-30T11:24:40.000Z</time>
      </trkpt>
      <trkpt lat="46.2364" lon="4.17767">
        <ele>382.60000610352</ele>
        <time>2023-05-30T11:24:44.000Z</time>
      </trkpt>
      <trkpt lat="46.23662" lon="4.178">
        <ele>383.79998779297</ele>
        <time>2023-05-30T11:24:51.000Z</time>
      </trkpt>
      <trkpt lat="46.23666" lon="4.17804">
        <ele>384</ele>
        <time>2023-05-30T11:24:52.000Z</time>
      </trkpt>
      <trkpt lat="46.23686" lon="4.1783">
        <ele>384.79998779297</ele>
        <time>2023-05-30T11:24:58.000Z</time>
      </trkpt>
      <trkpt lat="46.23703" lon="4.17849">
        <ele>386</ele>
        <time>2023-05-30T11:25:03.000Z</time>
      </trkpt>
      <trkpt lat="46.2371" lon="4.17857">
        <ele>386.20001220703</ele>
        <time>2023-05-30T11:25:05.000Z</time>
      </trkpt>
      <trkpt lat="46.23725" lon="4.17872">
        <ele>387</ele>
        <time>2023-05-30T11:25:09.000Z</time>
      </trkpt>
      <trkpt lat="46.23739" lon="4.17886">
        <ele>387.60000610352</ele>
        <time>2023-05-30T11:25:13.000Z</time>
      </trkpt>
      <trkpt lat="46.2375" lon="4.17896">
        <ele>388</ele>
        <time>2023-05-30T11:25:16.000Z</time>
      </trkpt>
      <trkpt lat="46.23753" lon="4.179">
        <ele>388</ele>
        <time>2023-05-30T11:25:17.000Z</time>
      </trkpt>
      <trkpt lat="46.23783" lon="4.17929">
        <ele>389</ele>
        <time>2023-05-30T11:25:25.000Z</time>
      </trkpt>
      <trkpt lat="46.23794" lon="4.17942">
        <ele>389.20001220703</ele>
        <time>2023-05-30T11:25:28.000Z</time>
      </trkpt>
      <trkpt lat="46.23821" lon="4.1798">
        <ele>389.60000610352</ele>
        <time>2023-05-30T11:25:36.000Z</time>
      </trkpt>
      <trkpt lat="46.23856" lon="4.18036">
        <ele>390.20001220703</ele>
        <time>2023-05-30T11:25:46.000Z</time>
      </trkpt>
      <trkpt lat="46.23887" lon="4.18088">
        <ele>390</ele>
        <time>2023-05-30T11:25:55.000Z</time>
      </trkpt>
      <trkpt lat="46.23914" lon="4.18151">
        <ele>389.60000610352</ele>
        <time>2023-05-30T11:26:04.000Z</time>
      </trkpt>
      <trkpt lat="46.23937" lon="4.18222">
        <ele>389.20001220703</ele>
        <time>2023-05-30T11:26:13.000Z</time>
      </trkpt>
      <trkpt lat="46.2394" lon="4.18229">
        <ele>389.20001220703</ele>
        <time>2023-05-30T11:26:14.000Z</time>
      </trkpt>
      <trkpt lat="46.23947" lon="4.18253">
        <ele>389</ele>
        <time>2023-05-30T11:26:17.000Z</time>
      </trkpt>
      <trkpt lat="46.23964" lon="4.18303">
        <ele>388.79998779297</ele>
        <time>2023-05-30T11:26:23.000Z</time>
      </trkpt>
      <trkpt lat="46.23988" lon="4.18376">
        <ele>388.20001220703</ele>
        <time>2023-05-30T11:26:32.000Z</time>
      </trkpt>
      <trkpt lat="46.23991" lon="4.18384">
        <ele>388</ele>
        <time>2023-05-30T11:26:33.000Z</time>
      </trkpt>
      <trkpt lat="46.23994" lon="4.18393">
        <ele>388</ele>
        <time>2023-05-30T11:26:34.000Z</time>
      </trkpt>
      <trkpt lat="46.24006" lon="4.18443">
        <ele>388</ele>
        <time>2023-05-30T11:26:40.000Z</time>
      </trkpt>
      <trkpt lat="46.2402" lon="4.18518">
        <ele>387.79998779297</ele>
        <time>2023-05-30T11:26:49.000Z</time>
      </trkpt>
      <trkpt lat="46.24022" lon="4.18526">
        <ele>387.79998779297</ele>
        <time>2023-05-30T11:26:50.000Z</time>
      </trkpt>
      <trkpt lat="46.24032" lon="4.18579">
        <ele>388.60000610352</ele>
        <time>2023-05-30T11:26:57.000Z</time>
      </trkpt>
      <trkpt lat="46.24037" lon="4.18608">
        <ele>389.20001220703</ele>
        <time>2023-05-30T11:27:01.000Z</time>
      </trkpt>
      <trkpt lat="46.24047" lon="4.18657">
        <ele>390</ele>
        <time>2023-05-30T11:27:08.000Z</time>
      </trkpt>
      <trkpt lat="46.24049" lon="4.18672">
        <ele>390.39999389648</ele>
        <time>2023-05-30T11:27:10.000Z</time>
      </trkpt>
      <trkpt lat="46.24052" lon="4.18686">
        <ele>390.60000610352</ele>
        <time>2023-05-30T11:27:12.000Z</time>
      </trkpt>
      <trkpt lat="46.24055" lon="4.18707">
        <ele>390.60000610352</ele>
        <time>2023-05-30T11:27:15.000Z</time>
      </trkpt>
      <trkpt lat="46.24062" lon="4.18766">
        <ele>390.79998779297</ele>
        <time>2023-05-30T11:27:23.000Z</time>
      </trkpt>
      <trkpt lat="46.2407" lon="4.18832">
        <ele>390.20001220703</ele>
        <time>2023-05-30T11:27:31.000Z</time>
      </trkpt>
      <trkpt lat="46.24074" lon="4.18871">
        <ele>389.20001220703</ele>
        <time>2023-05-30T11:27:35.000Z</time>
      </trkpt>
      <trkpt lat="46.24075" lon="4.1889">
        <ele>388.60000610352</ele>
        <time>2023-05-30T11:27:37.000Z</time>
      </trkpt>
      <trkpt lat="46.24077" lon="4.189">
        <ele>388.20001220703</ele>
        <time>2023-05-30T11:27:38.000Z</time>
      </trkpt>
      <trkpt lat="46.24082" lon="4.18946">
        <ele>387.20001220703</ele>
        <time>2023-05-30T11:27:42.000Z</time>
      </trkpt>
      <trkpt lat="46.24084" lon="4.18958">
        <ele>386.60000610352</ele>
        <time>2023-05-30T11:27:43.000Z</time>
      </trkpt>
      <trkpt lat="46.24092" lon="4.18982">
        <ele>385.79998779297</ele>
        <time>2023-05-30T11:27:45.000Z</time>
      </trkpt>
      <trkpt lat="46.24101" lon="4.19005">
        <ele>384.60000610352</ele>
        <time>2023-05-30T11:27:47.000Z</time>
      </trkpt>
      <trkpt lat="46.24105" lon="4.19017">
        <ele>384.20001220703</ele>
        <time>2023-05-30T11:27:48.000Z</time>
      </trkpt>
      <trkpt lat="46.24108" lon="4.1903">
        <ele>383.39999389648</ele>
        <time>2023-05-30T11:27:49.000Z</time>
      </trkpt>
      <trkpt lat="46.2411" lon="4.19043">
        <ele>383.20001220703</ele>
        <time>2023-05-30T11:27:50.000Z</time>
      </trkpt>
      <trkpt lat="46.2411" lon="4.1906">
        <ele>382.39999389648</ele>
        <time>2023-05-30T11:27:51.000Z</time>
      </trkpt>
      <trkpt lat="46.24109" lon="4.19071">
        <ele>381.39999389648</ele>
        <time>2023-05-30T11:27:52.000Z</time>
      </trkpt>
      <trkpt lat="46.24106" lon="4.191">
        <ele>379.60000610352</ele>
        <time>2023-05-30T11:27:54.000Z</time>
      </trkpt>
      <trkpt lat="46.24107" lon="4.19129">
        <ele>377.79998779297</ele>
        <time>2023-05-30T11:27:56.000Z</time>
      </trkpt>
      <trkpt lat="46.24109" lon="4.19144">
        <ele>377</ele>
        <time>2023-05-30T11:27:57.000Z</time>
      </trkpt>
      <trkpt lat="46.24111" lon="4.19159">
        <ele>375.79998779297</ele>
        <time>2023-05-30T11:27:58.000Z</time>
      </trkpt>
      <trkpt lat="46.24115" lon="4.19176">
        <ele>374.60000610352</ele>
        <time>2023-05-30T11:27:59.000Z</time>
      </trkpt>
      <trkpt lat="46.24122" lon="4.19201">
        <ele>373.20001220703</ele>
        <time>2023-05-30T11:28:01.000Z</time>
      </trkpt>
      <trkpt lat="46.24127" lon="4.19215">
        <ele>372.60000610352</ele>
        <time>2023-05-30T11:28:02.000Z</time>
      </trkpt>
      <trkpt lat="46.24133" lon="4.19228">
        <ele>371.39999389648</ele>
        <time>2023-05-30T11:28:03.000Z</time>
      </trkpt>
      <trkpt lat="46.24145" lon="4.19256">
        <ele>370</ele>
        <time>2023-05-30T11:28:05.000Z</time>
      </trkpt>
      <trkpt lat="46.24153" lon="4.19273">
        <ele>369</ele>
        <time>2023-05-30T11:28:06.000Z</time>
      </trkpt>
      <trkpt lat="46.24165" lon="4.193">
        <ele>367.20001220703</ele>
        <time>2023-05-30T11:28:08.000Z</time>
      </trkpt>
      <trkpt lat="46.24171" lon="4.19314">
        <ele>366.79998779297</ele>
        <time>2023-05-30T11:28:09.000Z</time>
      </trkpt>
      <trkpt lat="46.24179" lon="4.19332">
        <ele>366.20001220703</ele>
        <time>2023-05-30T11:28:10.000Z</time>
      </trkpt>
      <trkpt lat="46.2419" lon="4.19359">
        <ele>364.39999389648</ele>
        <time>2023-05-30T11:28:12.000Z</time>
      </trkpt>
      <trkpt lat="46.24195" lon="4.19375">
        <ele>362.79998779297</ele>
        <time>2023-05-30T11:28:13.000Z</time>
      </trkpt>
      <trkpt lat="46.242" lon="4.1939">
        <ele>362.20001220703</ele>
        <time>2023-05-30T11:28:14.000Z</time>
      </trkpt>
      <trkpt lat="46.24204" lon="4.19406">
        <ele>361.20001220703</ele>
        <time>2023-05-30T11:28:15.000Z</time>
      </trkpt>
      <trkpt lat="46.24212" lon="4.19437">
        <ele>360</ele>
        <time>2023-05-30T11:28:17.000Z</time>
      </trkpt>
      <trkpt lat="46.24219" lon="4.19465">
        <ele>358.39999389648</ele>
        <time>2023-05-30T11:28:19.000Z</time>
      </trkpt>
      <trkpt lat="46.24223" lon="4.19491">
        <ele>357.79998779297</ele>
        <time>2023-05-30T11:28:21.000Z</time>
      </trkpt>
      <trkpt lat="46.24223" lon="4.19504">
        <ele>357.60000610352</ele>
        <time>2023-05-30T11:28:22.000Z</time>
      </trkpt>
      <trkpt lat="46.24221" lon="4.19516">
        <ele>357.39999389648</ele>
        <time>2023-05-30T11:28:23.000Z</time>
      </trkpt>
      <trkpt lat="46.24212" lon="4.19534">
        <ele>357.39999389648</ele>
        <time>2023-05-30T11:28:25.000Z</time>
      </trkpt>
      <trkpt lat="46.24201" lon="4.19543">
        <ele>357.60000610352</ele>
        <time>2023-05-30T11:28:27.000Z</time>
      </trkpt>
      <trkpt lat="46.24195" lon="4.19546">
        <ele>357.60000610352</ele>
        <time>2023-05-30T11:28:28.000Z</time>
      </trkpt>
      <trkpt lat="46.24182" lon="4.19548">
        <ele>358.20001220703</ele>
        <time>2023-05-30T11:28:30.000Z</time>
      </trkpt>
      <trkpt lat="46.24177" lon="4.19547">
        <ele>358.79998779297</ele>
        <time>2023-05-30T11:28:31.000Z</time>
      </trkpt>
      <trkpt lat="46.24172" lon="4.19546">
        <ele>359.20001220703</ele>
        <time>2023-05-30T11:28:32.000Z</time>
      </trkpt>
      <trkpt lat="46.24163" lon="4.19544">
        <ele>360.39999389648</ele>
        <time>2023-05-30T11:28:34.000Z</time>
      </trkpt>
      <trkpt lat="46.24154" lon="4.19541">
        <ele>361</ele>
        <time>2023-05-30T11:28:36.000Z</time>
      </trkpt>
      <trkpt lat="46.2415" lon="4.1954">
        <ele>361.20001220703</ele>
        <time>2023-05-30T11:28:37.000Z</time>
      </trkpt>
      <trkpt lat="46.24146" lon="4.19538">
        <ele>361.60000610352</ele>
        <time>2023-05-30T11:28:38.000Z</time>
      </trkpt>
      <trkpt lat="46.24125" lon="4.1953">
        <ele>362.79998779297</ele>
        <time>2023-05-30T11:28:43.000Z</time>
      </trkpt>
      <trkpt lat="46.24121" lon="4.19529">
        <ele>363</ele>
        <time>2023-05-30T11:28:44.000Z</time>
      </trkpt>
      <trkpt lat="46.24108" lon="4.19525">
        <ele>363.60000610352</ele>
        <time>2023-05-30T11:28:47.000Z</time>
      </trkpt>
      <trkpt lat="46.24096" lon="4.19522">
        <ele>363.79998779297</ele>
        <time>2023-05-30T11:28:50.000Z</time>
      </trkpt>
      <trkpt lat="46.24082" lon="4.1952">
        <ele>364.20001220703</ele>
        <time>2023-05-30T11:28:53.000Z</time>
      </trkpt>
      <trkpt lat="46.24041" lon="4.19519">
        <ele>364.79998779297</ele>
        <time>2023-05-30T11:29:02.000Z</time>
      </trkpt>
      <trkpt lat="46.24036" lon="4.19519">
        <ele>365</ele>
        <time>2023-05-30T11:29:03.000Z</time>
      </trkpt>
      <trkpt lat="46.24023" lon="4.19522">
        <ele>365.20001220703</ele>
        <time>2023-05-30T11:29:06.000Z</time>
      </trkpt>
      <trkpt lat="46.24004" lon="4.19532">
        <ele>366</ele>
        <time>2023-05-30T11:29:11.000Z</time>
      </trkpt>
      <trkpt lat="46.23995" lon="4.19538">
        <ele>366.60000610352</ele>
        <time>2023-05-30T11:29:13.000Z</time>
      </trkpt>
      <trkpt lat="46.23986" lon="4.19546">
        <ele>367.20001220703</ele>
        <time>2023-05-30T11:29:16.000Z</time>
      </trkpt>
      <trkpt lat="46.2398" lon="4.19552">
        <ele>367.60000610352</ele>
        <time>2023-05-30T11:29:18.000Z</time>
      </trkpt>
      <trkpt lat="46.23969" lon="4.19567">
        <ele>368.20001220703</ele>
        <time>2023-05-30T11:29:22.000Z</time>
      </trkpt>
      <trkpt lat="46.23964" lon="4.19576">
        <ele>368.79998779297</ele>
        <time>2023-05-30T11:29:24.000Z</time>
      </trkpt>
      <trkpt lat="46.2396" lon="4.19585">
        <ele>369.39999389648</ele>
        <time>2023-05-30T11:29:26.000Z</time>
      </trkpt>
      <trkpt lat="46.23952" lon="4.19609">
        <ele>370.60000610352</ele>
        <time>2023-05-30T11:29:31.000Z</time>
      </trkpt>
      <trkpt lat="46.23949" lon="4.19635">
        <ele>371.79998779297</ele>
        <time>2023-05-30T11:29:36.000Z</time>
      </trkpt>
      <trkpt lat="46.23949" lon="4.19661">
        <ele>372.60000610352</ele>
        <time>2023-05-30T11:29:41.000Z</time>
      </trkpt>
      <trkpt lat="46.23948" lon="4.19672">
        <ele>373</ele>
        <time>2023-05-30T11:29:43.000Z</time>
      </trkpt>
      <trkpt lat="46.23951" lon="4.19696">
        <ele>373.79998779297</ele>
        <time>2023-05-30T11:29:48.000Z</time>
      </trkpt>
      <trkpt lat="46.23952" lon="4.19706">
        <ele>374.20001220703</ele>
        <time>2023-05-30T11:29:50.000Z</time>
      </trkpt>
      <trkpt lat="46.23954" lon="4.19725">
        <ele>375.39999389648</ele>
        <time>2023-05-30T11:29:54.000Z</time>
      </trkpt>
      <trkpt lat="46.23957" lon="4.19744">
        <ele>375.79998779297</ele>
        <time>2023-05-30T11:29:58.000Z</time>
      </trkpt>
      <trkpt lat="46.23961" lon="4.19758">
        <ele>376.39999389648</ele>
        <time>2023-05-30T11:30:01.000Z</time>
      </trkpt>
      <trkpt lat="46.23967" lon="4.19781">
        <ele>377.20001220703</ele>
        <time>2023-05-30T11:30:06.000Z</time>
      </trkpt>
      <trkpt lat="46.23968" lon="4.19785">
        <ele>377.39999389648</ele>
        <time>2023-05-30T11:30:07.000Z</time>
      </trkpt>
      <trkpt lat="46.23974" lon="4.19804">
        <ele>378.39999389648</ele>
        <time>2023-05-30T11:30:11.000Z</time>
      </trkpt>
      <trkpt lat="46.23983" lon="4.19825">
        <ele>379.60000610352</ele>
        <time>2023-05-30T11:30:16.000Z</time>
      </trkpt>
      <trkpt lat="46.23991" lon="4.19844">
        <ele>380.60000610352</ele>
        <time>2023-05-30T11:30:20.000Z</time>
      </trkpt>
      <trkpt lat="46.23999" lon="4.1986">
        <ele>381.60000610352</ele>
        <time>2023-05-30T11:30:24.000Z</time>
      </trkpt>
      <trkpt lat="46.24001" lon="4.19864">
        <ele>381.60000610352</ele>
        <time>2023-05-30T11:30:25.000Z</time>
      </trkpt>
      <trkpt lat="46.24013" lon="4.19888">
        <ele>382.79998779297</ele>
        <time>2023-05-30T11:30:31.000Z</time>
      </trkpt>
      <trkpt lat="46.24018" lon="4.19896">
        <ele>383.20001220703</ele>
        <time>2023-05-30T11:30:33.000Z</time>
      </trkpt>
      <trkpt lat="46.24023" lon="4.19903">
        <ele>383.79998779297</ele>
        <time>2023-05-30T11:30:35.000Z</time>
      </trkpt>
      <trkpt lat="46.24025" lon="4.19906">
        <ele>384</ele>
        <time>2023-05-30T11:30:36.000Z</time>
      </trkpt>
      <trkpt lat="46.24035" lon="4.19922">
        <ele>385</ele>
        <time>2023-05-30T11:30:40.000Z</time>
      </trkpt>
      <trkpt lat="46.24037" lon="4.19926">
        <ele>385.20001220703</ele>
        <time>2023-05-30T11:30:41.000Z</time>
      </trkpt>
      <trkpt lat="46.24041" lon="4.19945">
        <ele>385.60000610352</ele>
        <time>2023-05-30T11:30:45.000Z</time>
      </trkpt>
      <trkpt lat="46.2404" lon="4.19964">
        <ele>385.60000610352</ele>
        <time>2023-05-30T11:30:48.000Z</time>
      </trkpt>
      <trkpt lat="46.24037" lon="4.19978">
        <ele>385.79998779297</ele>
        <time>2023-05-30T11:30:50.000Z</time>
      </trkpt>
      <trkpt lat="46.24025" lon="4.20029">
        <ele>385.79998779297</ele>
        <time>2023-05-30T11:30:57.000Z</time>
      </trkpt>
      <trkpt lat="46.24008" lon="4.20097">
        <ele>385.60000610352</ele>
        <time>2023-05-30T11:31:06.000Z</time>
      </trkpt>
      <trkpt lat="46.23987" lon="4.20171">
        <ele>385.79998779297</ele>
        <time>2023-05-30T11:31:16.000Z</time>
      </trkpt>
      <trkpt lat="46.23985" lon="4.2018">
        <ele>385.79998779297</ele>
        <time>2023-05-30T11:31:17.000Z</time>
      </trkpt>
      <trkpt lat="46.23976" lon="4.20213">
        <ele>386.20001220703</ele>
        <time>2023-05-30T11:31:22.000Z</time>
      </trkpt>
      <trkpt lat="46.23966" lon="4.20249">
        <ele>387.20001220703</ele>
        <time>2023-05-30T11:31:27.000Z</time>
      </trkpt>
      <trkpt lat="46.23965" lon="4.20254">
        <ele>387.20001220703</ele>
        <time>2023-05-30T11:31:28.000Z</time>
      </trkpt>
      <trkpt lat="46.23954" lon="4.20294">
        <ele>388.39999389648</ele>
        <time>2023-05-30T11:31:34.000Z</time>
      </trkpt>
      <trkpt lat="46.23949" lon="4.20315">
        <ele>388.79998779297</ele>
        <time>2023-05-30T11:31:37.000Z</time>
      </trkpt>
      <trkpt lat="46.23936" lon="4.20352">
        <ele>389.39999389648</ele>
        <time>2023-05-30T11:31:43.000Z</time>
      </trkpt>
      <trkpt lat="46.2393" lon="4.20364">
        <ele>389.79998779297</ele>
        <time>2023-05-30T11:31:45.000Z</time>
      </trkpt>
      <trkpt lat="46.23912" lon="4.20401">
        <ele>390.60000610352</ele>
        <time>2023-05-30T11:31:51.000Z</time>
      </trkpt>
      <trkpt lat="46.2391" lon="4.20407">
        <ele>390.79998779297</ele>
        <time>2023-05-30T11:31:52.000Z</time>
      </trkpt>
      <trkpt lat="46.23907" lon="4.20413">
        <ele>390.79998779297</ele>
        <time>2023-05-30T11:31:53.000Z</time>
      </trkpt>
      <trkpt lat="46.23894" lon="4.2046">
        <ele>391.39999389648</ele>
        <time>2023-05-30T11:32:00.000Z</time>
      </trkpt>
      <trkpt lat="46.23891" lon="4.20473">
        <ele>391.60000610352</ele>
        <time>2023-05-30T11:32:02.000Z</time>
      </trkpt>
      <trkpt lat="46.23882" lon="4.20512">
        <ele>392.39999389648</ele>
        <time>2023-05-30T11:32:08.000Z</time>
      </trkpt>
      <trkpt lat="46.23879" lon="4.20524">
        <ele>392.79998779297</ele>
        <time>2023-05-30T11:32:10.000Z</time>
      </trkpt>
      <trkpt lat="46.23866" lon="4.20555">
        <ele>393.39999389648</ele>
        <time>2023-05-30T11:32:15.000Z</time>
      </trkpt>
      <trkpt lat="46.2385" lon="4.20585">
        <ele>394.20001220703</ele>
        <time>2023-05-30T11:32:20.000Z</time>
      </trkpt>
      <trkpt lat="46.23834" lon="4.20615">
        <ele>394.39999389648</ele>
        <time>2023-05-30T11:32:25.000Z</time>
      </trkpt>
      <trkpt lat="46.23829" lon="4.20628">
        <ele>394.39999389648</ele>
        <time>2023-05-30T11:32:27.000Z</time>
      </trkpt>
      <trkpt lat="46.2382" lon="4.20662">
        <ele>394.60000610352</ele>
        <time>2023-05-30T11:32:32.000Z</time>
      </trkpt>
      <trkpt lat="46.23809" lon="4.20727">
        <ele>394.20001220703</ele>
        <time>2023-05-30T11:32:40.000Z</time>
      </trkpt>
      <trkpt lat="46.23795" lon="4.20793">
        <ele>393</ele>
        <time>2023-05-30T11:32:48.000Z</time>
      </trkpt>
      <trkpt lat="46.23793" lon="4.20802">
        <ele>393</ele>
        <time>2023-05-30T11:32:49.000Z</time>
      </trkpt>
      <trkpt lat="46.23778" lon="4.20859">
        <ele>392.20001220703</ele>
        <time>2023-05-30T11:32:56.000Z</time>
      </trkpt>
      <trkpt lat="46.23775" lon="4.20867">
        <ele>392</ele>
        <time>2023-05-30T11:32:57.000Z</time>
      </trkpt>
      <trkpt lat="46.23757" lon="4.20902">
        <ele>391.39999389648</ele>
        <time>2023-05-30T11:33:02.000Z</time>
      </trkpt>
      <trkpt lat="46.23748" lon="4.20915">
        <ele>391</ele>
        <time>2023-05-30T11:33:04.000Z</time>
      </trkpt>
      <trkpt lat="46.23718" lon="4.20966">
        <ele>390</ele>
        <time>2023-05-30T11:33:11.000Z</time>
      </trkpt>
      <trkpt lat="46.23689" lon="4.21012">
        <ele>388.79998779297</ele>
        <time>2023-05-30T11:33:17.000Z</time>
      </trkpt>
      <trkpt lat="46.23669" lon="4.21045">
        <ele>387.79998779297</ele>
        <time>2023-05-30T11:33:21.000Z</time>
      </trkpt>
      <trkpt lat="46.23665" lon="4.21053">
        <ele>387.39999389648</ele>
        <time>2023-05-30T11:33:22.000Z</time>
      </trkpt>
      <trkpt lat="46.23625" lon="4.21117">
        <ele>386.39999389648</ele>
        <time>2023-05-30T11:33:30.000Z</time>
      </trkpt>
      <trkpt lat="46.23596" lon="4.2115">
        <ele>385.20001220703</ele>
        <time>2023-05-30T11:33:35.000Z</time>
      </trkpt>
      <trkpt lat="46.2359" lon="4.21155">
        <ele>384.79998779297</ele>
        <time>2023-05-30T11:33:36.000Z</time>
      </trkpt>
      <trkpt lat="46.23559" lon="4.21177">
        <ele>384.20001220703</ele>
        <time>2023-05-30T11:33:41.000Z</time>
      </trkpt>
      <trkpt lat="46.23553" lon="4.21182">
        <ele>384</ele>
        <time>2023-05-30T11:33:42.000Z</time>
      </trkpt>
      <trkpt lat="46.23508" lon="4.21218">
        <ele>383.20001220703</ele>
        <time>2023-05-30T11:33:50.000Z</time>
      </trkpt>
      <trkpt lat="46.23503" lon="4.21223">
        <ele>383.20001220703</ele>
        <time>2023-05-30T11:33:51.000Z</time>
      </trkpt>
      <trkpt lat="46.23495" lon="4.21236">
        <ele>383.20001220703</ele>
        <time>2023-05-30T11:33:53.000Z</time>
      </trkpt>
      <trkpt lat="46.23493" lon="4.21243">
        <ele>383</ele>
        <time>2023-05-30T11:33:54.000Z</time>
      </trkpt>
      <trkpt lat="46.23492" lon="4.21252">
        <ele>383</ele>
        <time>2023-05-30T11:33:55.000Z</time>
      </trkpt>
      <trkpt lat="46.23491" lon="4.21321">
        <ele>382.39999389648</ele>
        <time>2023-05-30T11:34:02.000Z</time>
      </trkpt>
      <trkpt lat="46.23491" lon="4.21332">
        <ele>382.20001220703</ele>
        <time>2023-05-30T11:34:03.000Z</time>
      </trkpt>
      <trkpt lat="46.23487" lon="4.21375">
        <ele>381.20001220703</ele>
        <time>2023-05-30T11:34:07.000Z</time>
      </trkpt>
      <trkpt lat="46.23485" lon="4.21395">
        <ele>380.20001220703</ele>
        <time>2023-05-30T11:34:09.000Z</time>
      </trkpt>
      <trkpt lat="46.23483" lon="4.21406">
        <ele>380</ele>
        <time>2023-05-30T11:34:10.000Z</time>
      </trkpt>
      <trkpt lat="46.23478" lon="4.21436">
        <ele>379</ele>
        <time>2023-05-30T11:34:13.000Z</time>
      </trkpt>
      <trkpt lat="46.23472" lon="4.21467">
        <ele>378.60000610352</ele>
        <time>2023-05-30T11:34:16.000Z</time>
      </trkpt>
      <trkpt lat="46.23461" lon="4.21526">
        <ele>377.79998779297</ele>
        <time>2023-05-30T11:34:22.000Z</time>
      </trkpt>
      <trkpt lat="46.23456" lon="4.21555">
        <ele>377.20001220703</ele>
        <time>2023-05-30T11:34:25.000Z</time>
      </trkpt>
      <trkpt lat="46.23448" lon="4.21592">
        <ele>376.79998779297</ele>
        <time>2023-05-30T11:34:29.000Z</time>
      </trkpt>
      <trkpt lat="46.23437" lon="4.21651">
        <ele>376</ele>
        <time>2023-05-30T11:34:35.000Z</time>
      </trkpt>
      <trkpt lat="46.23427" lon="4.21706">
        <ele>375.60000610352</ele>
        <time>2023-05-30T11:34:41.000Z</time>
      </trkpt>
      <trkpt lat="46.2342" lon="4.21744">
        <ele>375.20001220703</ele>
        <time>2023-05-30T11:34:45.000Z</time>
      </trkpt>
      <trkpt lat="46.23408" lon="4.21803">
        <ele>374.60000610352</ele>
        <time>2023-05-30T11:34:51.000Z</time>
      </trkpt>
      <trkpt lat="46.23403" lon="4.21822">
        <ele>374.39999389648</ele>
        <time>2023-05-30T11:34:53.000Z</time>
      </trkpt>
      <trkpt lat="46.23389" lon="4.21871">
        <ele>373.39999389648</ele>
        <time>2023-05-30T11:34:58.000Z</time>
      </trkpt>
      <trkpt lat="46.23375" lon="4.21918">
        <ele>372.60000610352</ele>
        <time>2023-05-30T11:35:03.000Z</time>
      </trkpt>
      <trkpt lat="46.23372" lon="4.21929">
        <ele>372.39999389648</ele>
        <time>2023-05-30T11:35:04.000Z</time>
      </trkpt>
      <trkpt lat="46.23361" lon="4.21976">
        <ele>372</ele>
        <time>2023-05-30T11:35:09.000Z</time>
      </trkpt>
      <trkpt lat="46.23346" lon="4.22051">
        <ele>371.39999389648</ele>
        <time>2023-05-30T11:35:17.000Z</time>
      </trkpt>
      <trkpt lat="46.23343" lon="4.2207">
        <ele>371</ele>
        <time>2023-05-30T11:35:19.000Z</time>
      </trkpt>
      <trkpt lat="46.23329" lon="4.22122">
        <ele>370.39999389648</ele>
        <time>2023-05-30T11:35:25.000Z</time>
      </trkpt>
      <trkpt lat="46.23323" lon="4.22146">
        <ele>370.39999389648</ele>
        <time>2023-05-30T11:35:28.000Z</time>
      </trkpt>
      <trkpt lat="46.23317" lon="4.22167">
        <ele>370.39999389648</ele>
        <time>2023-05-30T11:35:31.000Z</time>
      </trkpt>
      <trkpt lat="46.23307" lon="4.22203">
        <ele>370.39999389648</ele>
        <time>2023-05-30T11:35:38.000Z</time>
      </trkpt>
      <trkpt lat="46.23293" lon="4.22237">
        <ele>371</ele>
        <time>2023-05-30T11:35:44.000Z</time>
      </trkpt>
      <trkpt lat="46.23282" lon="4.22254">
        <ele>371.60000610352</ele>
        <time>2023-05-30T11:35:48.000Z</time>
      </trkpt>
      <trkpt lat="46.23275" lon="4.22266">
        <ele>372</ele>
        <time>2023-05-30T11:35:51.000Z</time>
      </trkpt>
      <trkpt lat="46.2327" lon="4.22273">
        <ele>372.79998779297</ele>
        <time>2023-05-30T11:35:53.000Z</time>
      </trkpt>
      <trkpt lat="46.23257" lon="4.22295">
        <ele>373.79998779297</ele>
        <time>2023-05-30T11:35:59.000Z</time>
      </trkpt>
      <trkpt lat="46.23245" lon="4.22313">
        <ele>375.20001220703</ele>
        <time>2023-05-30T11:36:04.000Z</time>
      </trkpt>
      <trkpt lat="46.23238" lon="4.22325">
        <ele>375.60000610352</ele>
        <time>2023-05-30T11:36:07.000Z</time>
      </trkpt>
      <trkpt lat="46.23233" lon="4.22331">
        <ele>376.20001220703</ele>
        <time>2023-05-30T11:36:09.000Z</time>
      </trkpt>
      <trkpt lat="46.23223" lon="4.22346">
        <ele>377</ele>
        <time>2023-05-30T11:36:13.000Z</time>
      </trkpt>
      <trkpt lat="46.23223" lon="4.22346">
        <ele>377.20001220703</ele>
        <time>2023-05-30T11:36:14.000Z</time>
      </trkpt>
      <trkpt lat="46.2321" lon="4.22364">
        <ele>378.20001220703</ele>
        <time>2023-05-30T11:36:18.000Z</time>
      </trkpt>
      <trkpt lat="46.23199" lon="4.22381">
        <ele>379.20001220703</ele>
        <time>2023-05-30T11:36:23.000Z</time>
      </trkpt>
      <trkpt lat="46.23194" lon="4.22389">
        <ele>379.60000610352</ele>
        <time>2023-05-30T11:36:25.000Z</time>
      </trkpt>
      <trkpt lat="46.23184" lon="4.22403">
        <ele>380.20001220703</ele>
        <time>2023-05-30T11:36:30.000Z</time>
      </trkpt>
      <trkpt lat="46.23172" lon="4.22421">
        <ele>381.39999389648</ele>
        <time>2023-05-30T11:36:34.000Z</time>
      </trkpt>
      <trkpt lat="46.23168" lon="4.22428">
        <ele>381.60000610352</ele>
        <time>2023-05-30T11:36:36.000Z</time>
      </trkpt>
      <trkpt lat="46.23158" lon="4.22443">
        <ele>382.39999389648</ele>
        <time>2023-05-30T11:36:40.000Z</time>
      </trkpt>
      <trkpt lat="46.2315" lon="4.22456">
        <ele>383.79998779297</ele>
        <time>2023-05-30T11:36:45.000Z</time>
      </trkpt>
      <trkpt lat="46.23143" lon="4.22467">
        <ele>384.20001220703</ele>
        <time>2023-05-30T11:36:47.000Z</time>
      </trkpt>
      <trkpt lat="46.23136" lon="4.22478">
        <ele>385</ele>
        <time>2023-05-30T11:36:50.000Z</time>
      </trkpt>
      <trkpt lat="46.23125" lon="4.22495">
        <ele>386</ele>
        <time>2023-05-30T11:36:55.000Z</time>
      </trkpt>
      <trkpt lat="46.23121" lon="4.22502">
        <ele>386.39999389648</ele>
        <time>2023-05-30T11:36:57.000Z</time>
      </trkpt>
      <trkpt lat="46.23112" lon="4.22516">
        <ele>387.20001220703</ele>
        <time>2023-05-30T11:37:02.000Z</time>
      </trkpt>
      <trkpt lat="46.23099" lon="4.22534">
        <ele>387.60000610352</ele>
        <time>2023-05-30T11:37:06.000Z</time>
      </trkpt>
      <trkpt lat="46.23081" lon="4.22562">
        <ele>388.39999389648</ele>
        <time>2023-05-30T11:37:13.000Z</time>
      </trkpt>
      <trkpt lat="46.23076" lon="4.2257">
        <ele>388.60000610352</ele>
        <time>2023-05-30T11:37:15.000Z</time>
      </trkpt>
      <trkpt lat="46.23054" lon="4.22605">
        <ele>389</ele>
        <time>2023-05-30T11:37:23.000Z</time>
      </trkpt>
      <trkpt lat="46.2305" lon="4.22614">
        <ele>389.39999389648</ele>
        <time>2023-05-30T11:37:26.000Z</time>
      </trkpt>
      <trkpt lat="46.23031" lon="4.22646">
        <ele>390.20001220703</ele>
        <time>2023-05-30T11:37:32.000Z</time>
      </trkpt>
      <trkpt lat="46.23014" lon="4.22676">
        <ele>390.60000610352</ele>
        <time>2023-05-30T11:37:38.000Z</time>
      </trkpt>
      <trkpt lat="46.23005" lon="4.22691">
        <ele>391</ele>
        <time>2023-05-30T11:37:42.000Z</time>
      </trkpt>
      <trkpt lat="46.22996" lon="4.22706">
        <ele>391.60000610352</ele>
        <time>2023-05-30T11:37:45.000Z</time>
      </trkpt>
      <trkpt lat="46.22982" lon="4.22732">
        <ele>392.20001220703</ele>
        <time>2023-05-30T11:37:49.000Z</time>
      </trkpt>
      <trkpt lat="46.22972" lon="4.22747">
        <ele>392.60000610352</ele>
        <time>2023-05-30T11:37:52.000Z</time>
      </trkpt>
      <trkpt lat="46.22966" lon="4.22758">
        <ele>393</ele>
        <time>2023-05-30T11:37:54.000Z</time>
      </trkpt>
      <trkpt lat="46.22945" lon="4.22789">
        <ele>393.20001220703</ele>
        <time>2023-05-30T11:38:00.000Z</time>
      </trkpt>
      <trkpt lat="46.2293" lon="4.22813">
        <ele>393.79998779297</ele>
        <time>2023-05-30T11:38:05.000Z</time>
      </trkpt>
      <trkpt lat="46.2291" lon="4.22844">
        <ele>394.60000610352</ele>
        <time>2023-05-30T11:38:11.000Z</time>
      </trkpt>
      <trkpt lat="46.22903" lon="4.22855">
        <ele>394.79998779297</ele>
        <time>2023-05-30T11:38:13.000Z</time>
      </trkpt>
      <trkpt lat="46.2288" lon="4.22891">
        <ele>395.39999389648</ele>
        <time>2023-05-30T11:38:20.000Z</time>
      </trkpt>
      <trkpt lat="46.22866" lon="4.22913">
        <ele>396</ele>
        <time>2023-05-30T11:38:24.000Z</time>
      </trkpt>
      <trkpt lat="46.22836" lon="4.2296">
        <ele>396.79998779297</ele>
        <time>2023-05-30T11:38:33.000Z</time>
      </trkpt>
      <trkpt lat="46.22813" lon="4.22997">
        <ele>396.79998779297</ele>
        <time>2023-05-30T11:38:41.000Z</time>
      </trkpt>
      <trkpt lat="46.22785" lon="4.23049">
        <ele>396.20001220703</ele>
        <time>2023-05-30T11:38:48.000Z</time>
      </trkpt>
      <trkpt lat="46.22756" lon="4.23106">
        <ele>395.20001220703</ele>
        <time>2023-05-30T11:38:55.000Z</time>
      </trkpt>
      <trkpt lat="46.22748" lon="4.23123">
        <ele>394.79998779297</ele>
        <time>2023-05-30T11:38:57.000Z</time>
      </trkpt>
      <trkpt lat="46.22729" lon="4.23159">
        <ele>393.79998779297</ele>
        <time>2023-05-30T11:39:01.000Z</time>
      </trkpt>
      <trkpt lat="46.2272" lon="4.23177">
        <ele>393</ele>
        <time>2023-05-30T11:39:04.000Z</time>
      </trkpt>
      <trkpt lat="46.22712" lon="4.23196">
        <ele>392.60000610352</ele>
        <time>2023-05-30T11:39:06.000Z</time>
      </trkpt>
      <trkpt lat="46.22685" lon="4.2325">
        <ele>391.60000610352</ele>
        <time>2023-05-30T11:39:11.000Z</time>
      </trkpt>
      <trkpt lat="46.22676" lon="4.23268">
        <ele>391</ele>
        <time>2023-05-30T11:39:14.000Z</time>
      </trkpt>
      <trkpt lat="46.22658" lon="4.23304">
        <ele>390.60000610352</ele>
        <time>2023-05-30T11:39:17.000Z</time>
      </trkpt>
      <trkpt lat="46.22635" lon="4.23348">
        <ele>389.39999389648</ele>
        <time>2023-05-30T11:39:23.000Z</time>
      </trkpt>
      <trkpt lat="46.22622" lon="4.23375">
        <ele>389.20001220703</ele>
        <time>2023-05-30T11:39:25.000Z</time>
      </trkpt>
      <trkpt lat="46.22613" lon="4.23394">
        <ele>388.39999389648</ele>
        <time>2023-05-30T11:39:28.000Z</time>
      </trkpt>
      <trkpt lat="46.22589" lon="4.23441">
        <ele>387.20001220703</ele>
        <time>2023-05-30T11:39:33.000Z</time>
      </trkpt>
      <trkpt lat="46.2257" lon="4.2348">
        <ele>386</ele>
        <time>2023-05-30T11:39:36.000Z</time>
      </trkpt>
      <trkpt lat="46.22565" lon="4.2349">
        <ele>385.60000610352</ele>
        <time>2023-05-30T11:39:38.000Z</time>
      </trkpt>
      <trkpt lat="46.2255" lon="4.23519">
        <ele>385</ele>
        <time>2023-05-30T11:39:40.000Z</time>
      </trkpt>
      <trkpt lat="46.2254" lon="4.23539">
        <ele>384</ele>
        <time>2023-05-30T11:39:43.000Z</time>
      </trkpt>
      <trkpt lat="46.22507" lon="4.23605">
        <ele>382.79998779297</ele>
        <time>2023-05-30T11:39:49.000Z</time>
      </trkpt>
      <trkpt lat="46.22471" lon="4.23678">
        <ele>381.60000610352</ele>
        <time>2023-05-30T11:39:57.000Z</time>
      </trkpt>
      <trkpt lat="46.22462" lon="4.23696">
        <ele>381</ele>
        <time>2023-05-30T11:39:59.000Z</time>
      </trkpt>
      <trkpt lat="46.22453" lon="4.23715">
        <ele>380.60000610352</ele>
        <time>2023-05-30T11:40:02.000Z</time>
      </trkpt>
      <trkpt lat="46.22431" lon="4.23761">
        <ele>379.39999389648</ele>
        <time>2023-05-30T11:40:06.000Z</time>
      </trkpt>
      <trkpt lat="46.22417" lon="4.23789">
        <ele>378.60000610352</ele>
        <time>2023-05-30T11:40:09.000Z</time>
      </trkpt>
      <trkpt lat="46.22417" lon="4.23789">
        <ele>378.20001220703</ele>
        <time>2023-05-30T11:40:10.000Z</time>
      </trkpt>
      <trkpt lat="46.2238" lon="4.23849">
        <ele>377.20001220703</ele>
        <time>2023-05-30T11:40:16.000Z</time>
      </trkpt>
      <trkpt lat="46.2238" lon="4.23849">
        <ele>376.79998779297</ele>
        <time>2023-05-30T11:40:17.000Z</time>
      </trkpt>
      <trkpt lat="46.22353" lon="4.23876">
        <ele>376.20001220703</ele>
        <time>2023-05-30T11:40:20.000Z</time>
      </trkpt>
      <trkpt lat="46.2234" lon="4.23888">
        <ele>375.60000610352</ele>
        <time>2023-05-30T11:40:23.000Z</time>
      </trkpt>
      <trkpt lat="46.22313" lon="4.23911">
        <ele>375</ele>
        <time>2023-05-30T11:40:26.000Z</time>
      </trkpt>
      <trkpt lat="46.22282" lon="4.23939">
        <ele>374.20001220703</ele>
        <time>2023-05-30T11:40:31.000Z</time>
      </trkpt>
      <trkpt lat="46.22282" lon="4.23939">
        <ele>374</ele>
        <time>2023-05-30T11:40:32.000Z</time>
      </trkpt>
      <trkpt lat="46.22241" lon="4.23975">
        <ele>373.39999389648</ele>
        <time>2023-05-30T11:40:39.000Z</time>
      </trkpt>
      <trkpt lat="46.22229" lon="4.23985">
        <ele>373</ele>
        <time>2023-05-30T11:40:40.000Z</time>
      </trkpt>
      <trkpt lat="46.22204" lon="4.24007">
        <ele>371.60000610352</ele>
        <time>2023-05-30T11:40:45.000Z</time>
      </trkpt>
      <trkpt lat="46.22184" lon="4.24025">
        <ele>371.20001220703</ele>
        <time>2023-05-30T11:40:48.000Z</time>
      </trkpt>
      <trkpt lat="46.22178" lon="4.24031">
        <ele>370.79998779297</ele>
        <time>2023-05-30T11:40:49.000Z</time>
      </trkpt>
      <trkpt lat="46.22167" lon="4.24046">
        <ele>370.20001220703</ele>
        <time>2023-05-30T11:40:51.000Z</time>
      </trkpt>
      <trkpt lat="46.22158" lon="4.24065">
        <ele>369.79998779297</ele>
        <time>2023-05-30T11:40:52.000Z</time>
      </trkpt>
      <trkpt lat="46.2215" lon="4.24085">
        <ele>369</ele>
        <time>2023-05-30T11:40:55.000Z</time>
      </trkpt>
      <trkpt lat="46.22139" lon="4.24117">
        <ele>368</ele>
        <time>2023-05-30T11:40:58.000Z</time>
      </trkpt>
      <trkpt lat="46.22132" lon="4.24139">
        <ele>367.20001220703</ele>
        <time>2023-05-30T11:41:00.000Z</time>
      </trkpt>
      <trkpt lat="46.22125" lon="4.24161">
        <ele>367</ele>
        <time>2023-05-30T11:41:01.000Z</time>
      </trkpt>
      <trkpt lat="46.22106" lon="4.24217">
        <ele>365.60000610352</ele>
        <time>2023-05-30T11:41:06.000Z</time>
      </trkpt>
      <trkpt lat="46.22098" lon="4.24239">
        <ele>364.39999389648</ele>
        <time>2023-05-30T11:41:09.000Z</time>
      </trkpt>
      <trkpt lat="46.22094" lon="4.2425">
        <ele>364</ele>
        <time>2023-05-30T11:41:10.000Z</time>
      </trkpt>
      <trkpt lat="46.22083" lon="4.24282">
        <ele>363.39999389648</ele>
        <time>2023-05-30T11:41:12.000Z</time>
      </trkpt>
      <trkpt lat="46.2206" lon="4.24346">
        <ele>362.39999389648</ele>
        <time>2023-05-30T11:41:18.000Z</time>
      </trkpt>
      <trkpt lat="46.22051" lon="4.24368">
        <ele>361.60000610352</ele>
        <time>2023-05-30T11:41:21.000Z</time>
      </trkpt>
      <trkpt lat="46.22047" lon="4.2438">
        <ele>360.79998779297</ele>
        <time>2023-05-30T11:41:22.000Z</time>
      </trkpt>
      <trkpt lat="46.22035" lon="4.24414">
        <ele>359.60000610352</ele>
        <time>2023-05-30T11:41:25.000Z</time>
      </trkpt>
      <trkpt lat="46.22032" lon="4.24425">
        <ele>358.39999389648</ele>
        <time>2023-05-30T11:41:26.000Z</time>
      </trkpt>
      <trkpt lat="46.2202" lon="4.24459">
        <ele>356.60000610352</ele>
        <time>2023-05-30T11:41:28.000Z</time>
      </trkpt>
      <trkpt lat="46.2202" lon="4.24459">
        <ele>355.79998779297</ele>
        <time>2023-05-30T11:41:29.000Z</time>
      </trkpt>
      <trkpt lat="46.22016" lon="4.24471">
        <ele>355.39999389648</ele>
        <time>2023-05-30T11:41:30.000Z</time>
      </trkpt>
      <trkpt lat="46.22" lon="4.24517">
        <ele>353.79998779297</ele>
        <time>2023-05-30T11:41:33.000Z</time>
      </trkpt>
      <trkpt lat="46.21992" lon="4.24539">
        <ele>352.79998779297</ele>
        <time>2023-05-30T11:41:36.000Z</time>
      </trkpt>
      <trkpt lat="46.21981" lon="4.2457">
        <ele>351.39999389648</ele>
        <time>2023-05-30T11:41:38.000Z</time>
      </trkpt>
      <trkpt lat="46.21974" lon="4.24592">
        <ele>350</ele>
        <time>2023-05-30T11:41:41.000Z</time>
      </trkpt>
      <trkpt lat="46.21961" lon="4.24624">
        <ele>348.20001220703</ele>
        <time>2023-05-30T11:41:44.000Z</time>
      </trkpt>
      <trkpt lat="46.21957" lon="4.24635">
        <ele>347.39999389648</ele>
        <time>2023-05-30T11:41:45.000Z</time>
      </trkpt>
      <trkpt lat="46.21952" lon="4.24647">
        <ele>347</ele>
        <time>2023-05-30T11:41:46.000Z</time>
      </trkpt>
      <trkpt lat="46.21939" lon="4.24686">
        <ele>345.20001220703</ele>
        <time>2023-05-30T11:41:48.000Z</time>
      </trkpt>
      <trkpt lat="46.21939" lon="4.24686">
        <ele>343.39999389648</ele>
        <time>2023-05-30T11:41:49.000Z</time>
      </trkpt>
      <trkpt lat="46.21929" lon="4.24714">
        <ele>341.79998779297</ele>
        <time>2023-05-30T11:41:51.000Z</time>
      </trkpt>
      <trkpt lat="46.21921" lon="4.2474">
        <ele>341</ele>
        <time>2023-05-30T11:41:52.000Z</time>
      </trkpt>
      <trkpt lat="46.21921" lon="4.2474">
        <ele>340.60000610352</ele>
        <time>2023-05-30T11:41:53.000Z</time>
      </trkpt>
      <trkpt lat="46.21909" lon="4.24777">
        <ele>339.60000610352</ele>
        <time>2023-05-30T11:41:55.000Z</time>
      </trkpt>
      <trkpt lat="46.21904" lon="4.24789">
        <ele>338.79998779297</ele>
        <time>2023-05-30T11:41:56.000Z</time>
      </trkpt>
      <trkpt lat="46.21896" lon="4.24815">
        <ele>337.39999389648</ele>
        <time>2023-05-30T11:41:58.000Z</time>
      </trkpt>
      <trkpt lat="46.21891" lon="4.24827">
        <ele>336.20001220703</ele>
        <time>2023-05-30T11:41:59.000Z</time>
      </trkpt>
      <trkpt lat="46.21879" lon="4.24864">
        <ele>335.20001220703</ele>
        <time>2023-05-30T11:42:02.000Z</time>
      </trkpt>
      <trkpt lat="46.2187" lon="4.24887">
        <ele>333.60000610352</ele>
        <time>2023-05-30T11:42:05.000Z</time>
      </trkpt>
      <trkpt lat="46.21853" lon="4.24933">
        <ele>332.20001220703</ele>
        <time>2023-05-30T11:42:08.000Z</time>
      </trkpt>
      <trkpt lat="46.21847" lon="4.24952">
        <ele>331.20001220703</ele>
        <time>2023-05-30T11:42:11.000Z</time>
      </trkpt>
      <trkpt lat="46.2184" lon="4.24972">
        <ele>331</ele>
        <time>2023-05-30T11:42:12.000Z</time>
      </trkpt>
      <trkpt lat="46.21835" lon="4.24993">
        <ele>330.39999389648</ele>
        <time>2023-05-30T11:42:14.000Z</time>
      </trkpt>
      <trkpt lat="46.21835" lon="4.24993">
        <ele>330.20001220703</ele>
        <time>2023-05-30T11:42:15.000Z</time>
      </trkpt>
      <trkpt lat="46.21833" lon="4.25004">
        <ele>330</ele>
        <time>2023-05-30T11:42:16.000Z</time>
      </trkpt>
      <trkpt lat="46.21832" lon="4.25024">
        <ele>329.60000610352</ele>
        <time>2023-05-30T11:42:17.000Z</time>
      </trkpt>
      <trkpt lat="46.2183" lon="4.25046">
        <ele>329</ele>
        <time>2023-05-30T11:42:19.000Z</time>
      </trkpt>
      <trkpt lat="46.21829" lon="4.25057">
        <ele>328</ele>
        <time>2023-05-30T11:42:21.000Z</time>
      </trkpt>
      <trkpt lat="46.21828" lon="4.25067">
        <ele>327.39999389648</ele>
        <time>2023-05-30T11:42:22.000Z</time>
      </trkpt>
      <trkpt lat="46.21825" lon="4.25099">
        <ele>326.60000610352</ele>
        <time>2023-05-30T11:42:24.000Z</time>
      </trkpt>
      <trkpt lat="46.21825" lon="4.25099">
        <ele>326.20001220703</ele>
        <time>2023-05-30T11:42:25.000Z</time>
      </trkpt>
      <trkpt lat="46.21823" lon="4.25111">
        <ele>325.39999389648</ele>
        <time>2023-05-30T11:42:26.000Z</time>
      </trkpt>
      <trkpt lat="46.21822" lon="4.25123">
        <ele>325</ele>
        <time>2023-05-30T11:42:27.000Z</time>
      </trkpt>
      <trkpt lat="46.21817" lon="4.25147">
        <ele>324.60000610352</ele>
        <time>2023-05-30T11:42:28.000Z</time>
      </trkpt>
      <trkpt lat="46.21814" lon="4.25159">
        <ele>323.79998779297</ele>
        <time>2023-05-30T11:42:29.000Z</time>
      </trkpt>
      <trkpt lat="46.21814" lon="4.25159">
        <ele>323.20001220703</ele>
        <time>2023-05-30T11:42:30.000Z</time>
      </trkpt>
      <trkpt lat="46.21809" lon="4.25168">
        <ele>322.39999389648</ele>
        <time>2023-05-30T11:42:31.000Z</time>
      </trkpt>
      <trkpt lat="46.21793" lon="4.25195">
        <ele>321.20001220703</ele>
        <time>2023-05-30T11:42:33.000Z</time>
      </trkpt>
      <trkpt lat="46.21787" lon="4.25203">
        <ele>320.60000610352</ele>
        <time>2023-05-30T11:42:34.000Z</time>
      </trkpt>
      <trkpt lat="46.21787" lon="4.25203">
        <ele>320</ele>
        <time>2023-05-30T11:42:35.000Z</time>
      </trkpt>
      <trkpt lat="46.21773" lon="4.25218">
        <ele>318.79998779297</ele>
        <time>2023-05-30T11:42:37.000Z</time>
      </trkpt>
      <trkpt lat="46.21756" lon="4.25229">
        <ele>318</ele>
        <time>2023-05-30T11:42:38.000Z</time>
      </trkpt>
      <trkpt lat="46.21747" lon="4.25233">
        <ele>317.79998779297</ele>
        <time>2023-05-30T11:42:39.000Z</time>
      </trkpt>
      <trkpt lat="46.2173" lon="4.25238">
        <ele>316</ele>
        <time>2023-05-30T11:42:42.000Z</time>
      </trkpt>
      <trkpt lat="46.21706" lon="4.25244">
        <ele>314.20001220703</ele>
        <time>2023-05-30T11:42:45.000Z</time>
      </trkpt>
      <trkpt lat="46.21678" lon="4.25252">
        <ele>313</ele>
        <time>2023-05-30T11:42:48.000Z</time>
      </trkpt>
      <trkpt lat="46.21656" lon="4.25259">
        <ele>312</ele>
        <time>2023-05-30T11:42:52.000Z</time>
      </trkpt>
      <trkpt lat="46.21641" lon="4.25262">
        <ele>311.79998779297</ele>
        <time>2023-05-30T11:42:53.000Z</time>
      </trkpt>
      <trkpt lat="46.21626" lon="4.25268">
        <ele>311.60000610352</ele>
        <time>2023-05-30T11:42:55.000Z</time>
      </trkpt>
      <trkpt lat="46.2162" lon="4.25272">
        <ele>311</ele>
        <time>2023-05-30T11:42:57.000Z</time>
      </trkpt>
      <trkpt lat="46.21606" lon="4.25283">
        <ele>310.79998779297</ele>
        <time>2023-05-30T11:42:58.000Z</time>
      </trkpt>
      <trkpt lat="46.21585" lon="4.25303">
        <ele>309.60000610352</ele>
        <time>2023-05-30T11:43:01.000Z</time>
      </trkpt>
      <trkpt lat="46.21572" lon="4.25316">
        <ele>308.60000610352</ele>
        <time>2023-05-30T11:43:03.000Z</time>
      </trkpt>
      <trkpt lat="46.21566" lon="4.25322">
        <ele>308.39999389648</ele>
        <time>2023-05-30T11:43:04.000Z</time>
      </trkpt>
      <trkpt lat="46.2156" lon="4.25329">
        <ele>307.60000610352</ele>
        <time>2023-05-30T11:43:05.000Z</time>
      </trkpt>
      <trkpt lat="46.2156" lon="4.25329">
        <ele>307.20001220703</ele>
        <time>2023-05-30T11:43:06.000Z</time>
      </trkpt>
      <trkpt lat="46.21549" lon="4.25346">
        <ele>305.79998779297</ele>
        <time>2023-05-30T11:43:08.000Z</time>
      </trkpt>
      <trkpt lat="46.21537" lon="4.25363">
        <ele>305.39999389648</ele>
        <time>2023-05-30T11:43:09.000Z</time>
      </trkpt>
      <trkpt lat="46.21531" lon="4.25371">
        <ele>304.60000610352</ele>
        <time>2023-05-30T11:43:10.000Z</time>
      </trkpt>
      <trkpt lat="46.21518" lon="4.25384">
        <ele>304</ele>
        <time>2023-05-30T11:43:12.000Z</time>
      </trkpt>
      <trkpt lat="46.21518" lon="4.25384">
        <ele>303.60000610352</ele>
        <time>2023-05-30T11:43:13.000Z</time>
      </trkpt>
      <trkpt lat="46.21505" lon="4.25397">
        <ele>303.20001220703</ele>
        <time>2023-05-30T11:43:14.000Z</time>
      </trkpt>
      <trkpt lat="46.21499" lon="4.25403">
        <ele>302.39999389648</ele>
        <time>2023-05-30T11:43:16.000Z</time>
      </trkpt>
      <trkpt lat="46.21463" lon="4.25439">
        <ele>301</ele>
        <time>2023-05-30T11:43:21.000Z</time>
      </trkpt>
      <trkpt lat="46.21463" lon="4.25439">
        <ele>300.79998779297</ele>
        <time>2023-05-30T11:43:22.000Z</time>
      </trkpt>
      <trkpt lat="46.21449" lon="4.25458">
        <ele>300.60000610352</ele>
        <time>2023-05-30T11:43:24.000Z</time>
      </trkpt>
      <trkpt lat="46.21449" lon="4.25458">
        <ele>300.60000610352</ele>
        <time>2023-05-30T11:43:25.000Z</time>
      </trkpt>
      <trkpt lat="46.21444" lon="4.25472">
        <ele>300.60000610352</ele>
        <time>2023-05-30T11:43:26.000Z</time>
      </trkpt>
      <trkpt lat="46.21437" lon="4.25494">
        <ele>300.39999389648</ele>
        <time>2023-05-30T11:43:30.000Z</time>
      </trkpt>
      <trkpt lat="46.21431" lon="4.25508">
        <ele>300.39999389648</ele>
        <time>2023-05-30T11:43:31.000Z</time>
      </trkpt>
      <trkpt lat="46.21427" lon="4.25515">
        <ele>300.39999389648</ele>
        <time>2023-05-30T11:43:33.000Z</time>
      </trkpt>
      <trkpt lat="46.21422" lon="4.25521">
        <ele>300.39999389648</ele>
        <time>2023-05-30T11:43:34.000Z</time>
      </trkpt>
      <trkpt lat="46.21411" lon="4.25529">
        <ele>300.20001220703</ele>
        <time>2023-05-30T11:43:35.000Z</time>
      </trkpt>
      <trkpt lat="46.21406" lon="4.25531">
        <ele>300</ele>
        <time>2023-05-30T11:43:36.000Z</time>
      </trkpt>
      <trkpt lat="46.21406" lon="4.25531">
        <ele>300</ele>
        <time>2023-05-30T11:43:37.000Z</time>
      </trkpt>
      <trkpt lat="46.21401" lon="4.25533">
        <ele>299.39999389648</ele>
        <time>2023-05-30T11:43:38.000Z</time>
      </trkpt>
      <trkpt lat="46.2139" lon="4.25546">
        <ele>299</ele>
        <time>2023-05-30T11:43:40.000Z</time>
      </trkpt>
      <trkpt lat="46.21381" lon="4.25571">
        <ele>299</ele>
        <time>2023-05-30T11:43:45.000Z</time>
      </trkpt>
      <trkpt lat="46.21387" lon="4.25582">
        <ele>299.60000610352</ele>
        <time>2023-05-30T11:43:49.000Z</time>
      </trkpt>
      <trkpt lat="46.21402" lon="4.25596">
        <ele>300</ele>
        <time>2023-05-30T11:43:52.000Z</time>
      </trkpt>
      <trkpt lat="46.21407" lon="4.256">
        <ele>300</ele>
        <time>2023-05-30T11:43:53.000Z</time>
      </trkpt>
      <trkpt lat="46.2142" lon="4.2561">
        <ele>300.60000610352</ele>
        <time>2023-05-30T11:43:56.000Z</time>
      </trkpt>
      <trkpt lat="46.21428" lon="4.25618">
        <ele>301</ele>
        <time>2023-05-30T11:43:59.000Z</time>
      </trkpt>
      <trkpt lat="46.21431" lon="4.25622">
        <ele>301.20001220703</ele>
        <time>2023-05-30T11:44:00.000Z</time>
      </trkpt>
      <trkpt lat="46.21446" lon="4.25633">
        <ele>301.39999389648</ele>
        <time>2023-05-30T11:44:03.000Z</time>
      </trkpt>
      <trkpt lat="46.21459" lon="4.25641">
        <ele>302.20001220703</ele>
        <time>2023-05-30T11:44:07.000Z</time>
      </trkpt>
      <trkpt lat="46.21465" lon="4.25646">
        <ele>302.39999389648</ele>
        <time>2023-05-30T11:44:09.000Z</time>
      </trkpt>
      <trkpt lat="46.21473" lon="4.25654">
        <ele>303.39999389648</ele>
        <time>2023-05-30T11:44:12.000Z</time>
      </trkpt>
      <trkpt lat="46.21484" lon="4.25661">
        <ele>304.20001220703</ele>
        <time>2023-05-30T11:44:16.000Z</time>
      </trkpt>
      <trkpt lat="46.21487" lon="4.25662">
        <ele>304.60000610352</ele>
        <time>2023-05-30T11:44:17.000Z</time>
      </trkpt>
      <trkpt lat="46.215" lon="4.25667">
        <ele>305.60000610352</ele>
        <time>2023-05-30T11:44:22.000Z</time>
      </trkpt>
      <trkpt lat="46.21513" lon="4.25675">
        <ele>306.79998779297</ele>
        <time>2023-05-30T11:44:27.000Z</time>
      </trkpt>
      <trkpt lat="46.2152" lon="4.2568">
        <ele>307.79998779297</ele>
        <time>2023-05-30T11:44:30.000Z</time>
      </trkpt>
      <trkpt lat="46.21523" lon="4.25683">
        <ele>308</ele>
        <time>2023-05-30T11:44:31.000Z</time>
      </trkpt>
      <trkpt lat="46.21525" lon="4.25685">
        <ele>308.20001220703</ele>
        <time>2023-05-30T11:44:32.000Z</time>
      </trkpt>
      <trkpt lat="46.21533" lon="4.25693">
        <ele>309.20001220703</ele>
        <time>2023-05-30T11:44:36.000Z</time>
      </trkpt>
      <trkpt lat="46.2154" lon="4.25702">
        <ele>309.79998779297</ele>
        <time>2023-05-30T11:44:39.000Z</time>
      </trkpt>
      <trkpt lat="46.21548" lon="4.25712">
        <ele>310.60000610352</ele>
        <time>2023-05-30T11:44:42.000Z</time>
      </trkpt>
      <trkpt lat="46.21565" lon="4.25736">
        <ele>311.39999389648</ele>
        <time>2023-05-30T11:44:49.000Z</time>
      </trkpt>
      <trkpt lat="46.2157" lon="4.25741">
        <ele>311.60000610352</ele>
        <time>2023-05-30T11:44:51.000Z</time>
      </trkpt>
      <trkpt lat="46.21586" lon="4.25761">
        <ele>312</ele>
        <time>2023-05-30T11:44:57.000Z</time>
      </trkpt>
      <trkpt lat="46.2161" lon="4.25778">
        <ele>312.39999389648</ele>
        <time>2023-05-30T11:45:04.000Z</time>
      </trkpt>
      <trkpt lat="46.2162" lon="4.25781">
        <ele>312.60000610352</ele>
        <time>2023-05-30T11:45:07.000Z</time>
      </trkpt>
      <trkpt lat="46.21633" lon="4.25785">
        <ele>313.39999389648</ele>
        <time>2023-05-30T11:45:11.000Z</time>
      </trkpt>
      <trkpt lat="46.21645" lon="4.25786">
        <ele>313.79998779297</ele>
        <time>2023-05-30T11:45:15.000Z</time>
      </trkpt>
      <trkpt lat="46.21652" lon="4.25789">
        <ele>314.39999389648</ele>
        <time>2023-05-30T11:45:18.000Z</time>
      </trkpt>
      <trkpt lat="46.21659" lon="4.25793">
        <ele>315.20001220703</ele>
        <time>2023-05-30T11:45:21.000Z</time>
      </trkpt>
      <trkpt lat="46.21667" lon="4.25803">
        <ele>316.20001220703</ele>
        <time>2023-05-30T11:45:25.000Z</time>
      </trkpt>
      <trkpt lat="46.21669" lon="4.25805">
        <ele>316.39999389648</ele>
        <time>2023-05-30T11:45:26.000Z</time>
      </trkpt>
      <trkpt lat="46.21676" lon="4.25816">
        <ele>317.39999389648</ele>
        <time>2023-05-30T11:45:30.000Z</time>
      </trkpt>
      <trkpt lat="46.21679" lon="4.25822">
        <ele>318</ele>
        <time>2023-05-30T11:45:32.000Z</time>
      </trkpt>
      <trkpt lat="46.21681" lon="4.25826">
        <ele>318.39999389648</ele>
        <time>2023-05-30T11:45:33.000Z</time>
      </trkpt>
      <trkpt lat="46.21692" lon="4.25845">
        <ele>319.60000610352</ele>
        <time>2023-05-30T11:45:39.000Z</time>
      </trkpt>
      <trkpt lat="46.21694" lon="4.25848">
        <ele>320</ele>
        <time>2023-05-30T11:45:40.000Z</time>
      </trkpt>
      <trkpt lat="46.217" lon="4.25858">
        <ele>320.79998779297</ele>
        <time>2023-05-30T11:45:43.000Z</time>
      </trkpt>
      <trkpt lat="46.21707" lon="4.25869">
        <ele>322</ele>
        <time>2023-05-30T11:45:47.000Z</time>
      </trkpt>
      <trkpt lat="46.21712" lon="4.25878">
        <ele>322.60000610352</ele>
        <time>2023-05-30T11:45:50.000Z</time>
      </trkpt>
      <trkpt lat="46.21714" lon="4.25882">
        <ele>323</ele>
        <time>2023-05-30T11:45:51.000Z</time>
      </trkpt>
      <trkpt lat="46.21723" lon="4.25896">
        <ele>324.20001220703</ele>
        <time>2023-05-30T11:45:56.000Z</time>
      </trkpt>
      <trkpt lat="46.21729" lon="4.25903">
        <ele>325</ele>
        <time>2023-05-30T11:45:59.000Z</time>
      </trkpt>
      <trkpt lat="46.21734" lon="4.25908">
        <ele>325.39999389648</ele>
        <time>2023-05-30T11:46:01.000Z</time>
      </trkpt>
      <trkpt lat="46.2174" lon="4.25915">
        <ele>326.39999389648</ele>
        <time>2023-05-30T11:46:04.000Z</time>
      </trkpt>
      <trkpt lat="46.21744" lon="4.2592">
        <ele>327</ele>
        <time>2023-05-30T11:46:06.000Z</time>
      </trkpt>
      <trkpt lat="46.21747" lon="4.25924">
        <ele>327.39999389648</ele>
        <time>2023-05-30T11:46:08.000Z</time>
      </trkpt>
      <trkpt lat="46.21754" lon="4.25931">
        <ele>328.20001220703</ele>
        <time>2023-05-30T11:46:11.000Z</time>
      </trkpt>
      <trkpt lat="46.21758" lon="4.25936">
        <ele>328.60000610352</ele>
        <time>2023-05-30T11:46:13.000Z</time>
      </trkpt>
      <trkpt lat="46.21767" lon="4.25952">
        <ele>329.79998779297</ele>
        <time>2023-05-30T11:46:18.000Z</time>
      </trkpt>
      <trkpt lat="46.21768" lon="4.25956">
        <ele>330.20001220703</ele>
        <time>2023-05-30T11:46:19.000Z</time>
      </trkpt>
      <trkpt lat="46.21772" lon="4.25967">
        <ele>331</ele>
        <time>2023-05-30T11:46:22.000Z</time>
      </trkpt>
      <trkpt lat="46.21781" lon="4.25993">
        <ele>332</ele>
        <time>2023-05-30T11:46:29.000Z</time>
      </trkpt>
      <trkpt lat="46.21784" lon="4.25999">
        <ele>332.20001220703</ele>
        <time>2023-05-30T11:46:31.000Z</time>
      </trkpt>
      <trkpt lat="46.2179" lon="4.26017">
        <ele>333</ele>
        <time>2023-05-30T11:46:36.000Z</time>
      </trkpt>
      <trkpt lat="46.21795" lon="4.26032">
        <ele>333.60000610352</ele>
        <time>2023-05-30T11:46:40.000Z</time>
      </trkpt>
      <trkpt lat="46.21801" lon="4.26046">
        <ele>334.20001220703</ele>
        <time>2023-05-30T11:46:44.000Z</time>
      </trkpt>
      <trkpt lat="46.21808" lon="4.26067">
        <ele>335.20001220703</ele>
        <time>2023-05-30T11:46:50.000Z</time>
      </trkpt>
      <trkpt lat="46.21818" lon="4.26093">
        <ele>336.20001220703</ele>
        <time>2023-05-30T11:46:57.000Z</time>
      </trkpt>
      <trkpt lat="46.21826" lon="4.26114">
        <ele>337</ele>
        <time>2023-05-30T11:47:03.000Z</time>
      </trkpt>
      <trkpt lat="46.21828" lon="4.2612">
        <ele>337.39999389648</ele>
        <time>2023-05-30T11:47:05.000Z</time>
      </trkpt>
      <trkpt lat="46.21837" lon="4.26145">
        <ele>338.39999389648</ele>
        <time>2023-05-30T11:47:12.000Z</time>
      </trkpt>
      <trkpt lat="46.21844" lon="4.26162">
        <ele>339.39999389648</ele>
        <time>2023-05-30T11:47:17.000Z</time>
      </trkpt>
      <trkpt lat="46.2185" lon="4.26176">
        <ele>340.20001220703</ele>
        <time>2023-05-30T11:47:21.000Z</time>
      </trkpt>
      <trkpt lat="46.21853" lon="4.26184">
        <ele>340.60000610352</ele>
        <time>2023-05-30T11:47:23.000Z</time>
      </trkpt>
      <trkpt lat="46.2186" lon="4.26201">
        <ele>341.60000610352</ele>
        <time>2023-05-30T11:47:28.000Z</time>
      </trkpt>
      <trkpt lat="46.21863" lon="4.26209">
        <ele>342.20001220703</ele>
        <time>2023-05-30T11:47:30.000Z</time>
      </trkpt>
      <trkpt lat="46.21866" lon="4.26218">
        <ele>342.60000610352</ele>
        <time>2023-05-30T11:47:32.000Z</time>
      </trkpt>
      <trkpt lat="46.2187" lon="4.26229">
        <ele>343.79998779297</ele>
        <time>2023-05-30T11:47:35.000Z</time>
      </trkpt>
      <trkpt lat="46.21878" lon="4.26249">
        <ele>345</ele>
        <time>2023-05-30T11:47:40.000Z</time>
      </trkpt>
      <trkpt lat="46.21885" lon="4.26272">
        <ele>346.20001220703</ele>
        <time>2023-05-30T11:47:46.000Z</time>
      </trkpt>
      <trkpt lat="46.21892" lon="4.2629">
        <ele>347.20001220703</ele>
        <time>2023-05-30T11:47:50.000Z</time>
      </trkpt>
      <trkpt lat="46.219" lon="4.26316">
        <ele>348.20001220703</ele>
        <time>2023-05-30T11:47:56.000Z</time>
      </trkpt>
      <trkpt lat="46.21901" lon="4.2632">
        <ele>348.20001220703</ele>
        <time>2023-05-30T11:47:57.000Z</time>
      </trkpt>
      <trkpt lat="46.21902" lon="4.26324">
        <ele>348.39999389648</ele>
        <time>2023-05-30T11:47:58.000Z</time>
      </trkpt>
      <trkpt lat="46.21907" lon="4.26352">
        <ele>349.60000610352</ele>
        <time>2023-05-30T11:48:04.000Z</time>
      </trkpt>
      <trkpt lat="46.21908" lon="4.2636">
        <ele>349.79998779297</ele>
        <time>2023-05-30T11:48:06.000Z</time>
      </trkpt>
      <trkpt lat="46.21909" lon="4.26382">
        <ele>350.79998779297</ele>
        <time>2023-05-30T11:48:11.000Z</time>
      </trkpt>
      <trkpt lat="46.2191" lon="4.2639">
        <ele>350.79998779297</ele>
        <time>2023-05-30T11:48:13.000Z</time>
      </trkpt>
      <trkpt lat="46.21912" lon="4.26415">
        <ele>352</ele>
        <time>2023-05-30T11:48:19.000Z</time>
      </trkpt>
      <trkpt lat="46.21912" lon="4.26424">
        <ele>352.39999389648</ele>
        <time>2023-05-30T11:48:21.000Z</time>
      </trkpt>
      <trkpt lat="46.21912" lon="4.26436">
        <ele>353.60000610352</ele>
        <time>2023-05-30T11:48:24.000Z</time>
      </trkpt>
      <trkpt lat="46.21912" lon="4.26453">
        <ele>354.60000610352</ele>
        <time>2023-05-30T11:48:28.000Z</time>
      </trkpt>
      <trkpt lat="46.21915" lon="4.26471">
        <ele>355.39999389648</ele>
        <time>2023-05-30T11:48:32.000Z</time>
      </trkpt>
      <trkpt lat="46.21916" lon="4.26484">
        <ele>355.60000610352</ele>
        <time>2023-05-30T11:48:35.000Z</time>
      </trkpt>
      <trkpt lat="46.21919" lon="4.26505">
        <ele>356.20001220703</ele>
        <time>2023-05-30T11:48:40.000Z</time>
      </trkpt>
      <trkpt lat="46.21919" lon="4.26508">
        <ele>356.60000610352</ele>
        <time>2023-05-30T11:48:41.000Z</time>
      </trkpt>
      <trkpt lat="46.21921" lon="4.26534">
        <ele>357.79998779297</ele>
        <time>2023-05-30T11:48:47.000Z</time>
      </trkpt>
      <trkpt lat="46.21923" lon="4.2655">
        <ele>358.60000610352</ele>
        <time>2023-05-30T11:48:51.000Z</time>
      </trkpt>
      <trkpt lat="46.21923" lon="4.26555">
        <ele>359</ele>
        <time>2023-05-30T11:48:52.000Z</time>
      </trkpt>
      <trkpt lat="46.21924" lon="4.26573">
        <ele>360</ele>
        <time>2023-05-30T11:48:56.000Z</time>
      </trkpt>
      <trkpt lat="46.21925" lon="4.26587">
        <ele>360.60000610352</ele>
        <time>2023-05-30T11:48:59.000Z</time>
      </trkpt>
      <trkpt lat="46.21926" lon="4.26605">
        <ele>361.20001220703</ele>
        <time>2023-05-30T11:49:03.000Z</time>
      </trkpt>
      <trkpt lat="46.21927" lon="4.26629">
        <ele>362.20001220703</ele>
        <time>2023-05-30T11:49:08.000Z</time>
      </trkpt>
      <trkpt lat="46.21926" lon="4.26638">
        <ele>362.39999389648</ele>
        <time>2023-05-30T11:49:10.000Z</time>
      </trkpt>
      <trkpt lat="46.2192" lon="4.26672">
        <ele>363</ele>
        <time>2023-05-30T11:49:17.000Z</time>
      </trkpt>
      <trkpt lat="46.21915" lon="4.26686">
        <ele>363.39999389648</ele>
        <time>2023-05-30T11:49:20.000Z</time>
      </trkpt>
      <trkpt lat="46.21905" lon="4.26706">
        <ele>364</ele>
        <time>2023-05-30T11:49:25.000Z</time>
      </trkpt>
      <trkpt lat="46.21894" lon="4.26726">
        <ele>364.39999389648</ele>
        <time>2023-05-30T11:49:30.000Z</time>
      </trkpt>
      <trkpt lat="46.21882" lon="4.26747">
        <ele>365</ele>
        <time>2023-05-30T11:49:35.000Z</time>
      </trkpt>
      <trkpt lat="46.21874" lon="4.26763">
        <ele>365.60000610352</ele>
        <time>2023-05-30T11:49:39.000Z</time>
      </trkpt>
      <trkpt lat="46.21866" lon="4.26778">
        <ele>366.20001220703</ele>
        <time>2023-05-30T11:49:43.000Z</time>
      </trkpt>
      <trkpt lat="46.21858" lon="4.26792">
        <ele>366.60000610352</ele>
        <time>2023-05-30T11:49:47.000Z</time>
      </trkpt>
      <trkpt lat="46.21851" lon="4.26804">
        <ele>367</ele>
        <time>2023-05-30T11:49:50.000Z</time>
      </trkpt>
      <trkpt lat="46.21846" lon="4.26814">
        <ele>367.20001220703</ele>
        <time>2023-05-30T11:49:53.000Z</time>
      </trkpt>
      <trkpt lat="46.21839" lon="4.26825">
        <ele>367.60000610352</ele>
        <time>2023-05-30T11:49:56.000Z</time>
      </trkpt>
      <trkpt lat="46.21829" lon="4.26843">
        <ele>368.79998779297</ele>
        <time>2023-05-30T11:50:01.000Z</time>
      </trkpt>
      <trkpt lat="46.21828" lon="4.26846">
        <ele>369</ele>
        <time>2023-05-30T11:50:02.000Z</time>
      </trkpt>
      <trkpt lat="46.21822" lon="4.26858">
        <ele>369.79998779297</ele>
        <time>2023-05-30T11:50:05.000Z</time>
      </trkpt>
      <trkpt lat="46.21814" lon="4.26873">
        <ele>370.79998779297</ele>
        <time>2023-05-30T11:50:09.000Z</time>
      </trkpt>
      <trkpt lat="46.21813" lon="4.26877">
        <ele>371.20001220703</ele>
        <time>2023-05-30T11:50:10.000Z</time>
      </trkpt>
      <trkpt lat="46.21806" lon="4.26892">
        <ele>372.20001220703</ele>
        <time>2023-05-30T11:50:14.000Z</time>
      </trkpt>
      <trkpt lat="46.21803" lon="4.26902">
        <ele>372.79998779297</ele>
        <time>2023-05-30T11:50:16.000Z</time>
      </trkpt>
      <trkpt lat="46.218" lon="4.2691">
        <ele>373.39999389648</ele>
        <time>2023-05-30T11:50:18.000Z</time>
      </trkpt>
      <trkpt lat="46.2179" lon="4.26943">
        <ele>374.60000610352</ele>
        <time>2023-05-30T11:50:25.000Z</time>
      </trkpt>
      <trkpt lat="46.21787" lon="4.26951">
        <ele>375</ele>
        <time>2023-05-30T11:50:27.000Z</time>
      </trkpt>
      <trkpt lat="46.21782" lon="4.26969">
        <ele>375.60000610352</ele>
        <time>2023-05-30T11:50:31.000Z</time>
      </trkpt>
      <trkpt lat="46.21776" lon="4.26987">
        <ele>376</ele>
        <time>2023-05-30T11:50:35.000Z</time>
      </trkpt>
      <trkpt lat="46.21772" lon="4.27001">
        <ele>376.79998779297</ele>
        <time>2023-05-30T11:50:38.000Z</time>
      </trkpt>
      <trkpt lat="46.21767" lon="4.27016">
        <ele>377.39999389648</ele>
        <time>2023-05-30T11:50:41.000Z</time>
      </trkpt>
      <trkpt lat="46.21765" lon="4.27021">
        <ele>377.39999389648</ele>
        <time>2023-05-30T11:50:42.000Z</time>
      </trkpt>
      <trkpt lat="46.2176" lon="4.27036">
        <ele>377.79998779297</ele>
        <time>2023-05-30T11:50:45.000Z</time>
      </trkpt>
      <trkpt lat="46.2175" lon="4.27067">
        <ele>378.20001220703</ele>
        <time>2023-05-30T11:50:51.000Z</time>
      </trkpt>
      <trkpt lat="46.21732" lon="4.27122">
        <ele>378.79998779297</ele>
        <time>2023-05-30T11:51:01.000Z</time>
      </trkpt>
      <trkpt lat="46.2172" lon="4.27162">
        <ele>379.20001220703</ele>
        <time>2023-05-30T11:51:08.000Z</time>
      </trkpt>
      <trkpt lat="46.21715" lon="4.27177">
        <ele>379.39999389648</ele>
        <time>2023-05-30T11:51:11.000Z</time>
      </trkpt>
      <trkpt lat="46.21702" lon="4.27215">
        <ele>380</ele>
        <time>2023-05-30T11:51:18.000Z</time>
      </trkpt>
      <trkpt lat="46.217" lon="4.2722">
        <ele>380</ele>
        <time>2023-05-30T11:51:19.000Z</time>
      </trkpt>
      <trkpt lat="46.21698" lon="4.27225">
        <ele>380.20001220703</ele>
        <time>2023-05-30T11:51:20.000Z</time>
      </trkpt>
      <trkpt lat="46.21686" lon="4.27263">
        <ele>381</ele>
        <time>2023-05-30T11:51:27.000Z</time>
      </trkpt>
      <trkpt lat="46.21683" lon="4.27273">
        <ele>381.39999389648</ele>
        <time>2023-05-30T11:51:29.000Z</time>
      </trkpt>
      <trkpt lat="46.2168" lon="4.27284">
        <ele>381.60000610352</ele>
        <time>2023-05-30T11:51:31.000Z</time>
      </trkpt>
      <trkpt lat="46.21673" lon="4.27303">
        <ele>382</ele>
        <time>2023-05-30T11:51:35.000Z</time>
      </trkpt>
      <trkpt lat="46.21665" lon="4.27327">
        <ele>382.60000610352</ele>
        <time>2023-05-30T11:51:40.000Z</time>
      </trkpt>
      <trkpt lat="46.21655" lon="4.27356">
        <ele>383.39999389648</ele>
        <time>2023-05-30T11:51:46.000Z</time>
      </trkpt>
      <trkpt lat="46.21652" lon="4.27364">
        <ele>383.60000610352</ele>
        <time>2023-05-30T11:51:48.000Z</time>
      </trkpt>
      <trkpt lat="46.21641" lon="4.27398">
        <ele>384.60000610352</ele>
        <time>2023-05-30T11:51:55.000Z</time>
      </trkpt>
      <trkpt lat="46.2163" lon="4.27428">
        <ele>385.79998779297</ele>
        <time>2023-05-30T11:52:03.000Z</time>
      </trkpt>
      <trkpt lat="46.21621" lon="4.27454">
        <ele>386.79998779297</ele>
        <time>2023-05-30T11:52:08.000Z</time>
      </trkpt>
      <trkpt lat="46.21612" lon="4.27481">
        <ele>388</ele>
        <time>2023-05-30T11:52:14.000Z</time>
      </trkpt>
      <trkpt lat="46.2161" lon="4.27485">
        <ele>388.39999389648</ele>
        <time>2023-05-30T11:52:15.000Z</time>
      </trkpt>
      <trkpt lat="46.21608" lon="4.27493">
        <ele>388.79998779297</ele>
        <time>2023-05-30T11:52:17.000Z</time>
      </trkpt>
      <trkpt lat="46.21606" lon="4.27498">
        <ele>389</ele>
        <time>2023-05-30T11:52:18.000Z</time>
      </trkpt>
      <trkpt lat="46.21601" lon="4.27512">
        <ele>389.60000610352</ele>
        <time>2023-05-30T11:52:22.000Z</time>
      </trkpt>
      <trkpt lat="46.21597" lon="4.27524">
        <ele>390.20001220703</ele>
        <time>2023-05-30T11:52:25.000Z</time>
      </trkpt>
      <trkpt lat="46.21593" lon="4.27537">
        <ele>391</ele>
        <time>2023-05-30T11:52:28.000Z</time>
      </trkpt>
      <trkpt lat="46.21592" lon="4.2754">
        <ele>391.39999389648</ele>
        <time>2023-05-30T11:52:29.000Z</time>
      </trkpt>
      <trkpt lat="46.21584" lon="4.27562">
        <ele>392.60000610352</ele>
        <time>2023-05-30T11:52:35.000Z</time>
      </trkpt>
      <trkpt lat="46.2158" lon="4.27574">
        <ele>393.39999389648</ele>
        <time>2023-05-30T11:52:38.000Z</time>
      </trkpt>
      <trkpt lat="46.21577" lon="4.27581">
        <ele>393.79998779297</ele>
        <time>2023-05-30T11:52:40.000Z</time>
      </trkpt>
      <trkpt lat="46.2157" lon="4.27604">
        <ele>394.79998779297</ele>
        <time>2023-05-30T11:52:46.000Z</time>
      </trkpt>
      <trkpt lat="46.21563" lon="4.27627">
        <ele>395.79998779297</ele>
        <time>2023-05-30T11:52:53.000Z</time>
      </trkpt>
      <trkpt lat="46.2156" lon="4.27639">
        <ele>396.20001220703</ele>
        <time>2023-05-30T11:52:55.000Z</time>
      </trkpt>
      <trkpt lat="46.21555" lon="4.27655">
        <ele>397</ele>
        <time>2023-05-30T11:52:59.000Z</time>
      </trkpt>
      <trkpt lat="46.21554" lon="4.27666">
        <ele>397.60000610352</ele>
        <time>2023-05-30T11:53:02.000Z</time>
      </trkpt>
      <trkpt lat="46.21553" lon="4.2767">
        <ele>398.20001220703</ele>
        <time>2023-05-30T11:53:03.000Z</time>
      </trkpt>
      <trkpt lat="46.21551" lon="4.27678">
        <ele>398.60000610352</ele>
        <time>2023-05-30T11:53:05.000Z</time>
      </trkpt>
      <trkpt lat="46.21551" lon="4.27686">
        <ele>399.20001220703</ele>
        <time>2023-05-30T11:53:07.000Z</time>
      </trkpt>
      <trkpt lat="46.2155" lon="4.27694">
        <ele>399.79998779297</ele>
        <time>2023-05-30T11:53:09.000Z</time>
      </trkpt>
      <trkpt lat="46.21549" lon="4.27698">
        <ele>400.20001220703</ele>
        <time>2023-05-30T11:53:10.000Z</time>
      </trkpt>
      <trkpt lat="46.21547" lon="4.27719">
        <ele>401.39999389648</ele>
        <time>2023-05-30T11:53:15.000Z</time>
      </trkpt>
      <trkpt lat="46.21547" lon="4.27731">
        <ele>402</ele>
        <time>2023-05-30T11:53:19.000Z</time>
      </trkpt>
      <trkpt lat="46.21547" lon="4.27743">
        <ele>402.60000610352</ele>
        <time>2023-05-30T11:53:21.000Z</time>
      </trkpt>
      <trkpt lat="46.21545" lon="4.27763">
        <ele>403.79998779297</ele>
        <time>2023-05-30T11:53:26.000Z</time>
      </trkpt>
      <trkpt lat="46.21545" lon="4.2778">
        <ele>404.39999389648</ele>
        <time>2023-05-30T11:53:30.000Z</time>
      </trkpt>
      <trkpt lat="46.21544" lon="4.27793">
        <ele>404.79998779297</ele>
        <time>2023-05-30T11:53:33.000Z</time>
      </trkpt>
      <trkpt lat="46.21543" lon="4.27813">
        <ele>406</ele>
        <time>2023-05-30T11:53:38.000Z</time>
      </trkpt>
      <trkpt lat="46.21542" lon="4.27837">
        <ele>407.20001220703</ele>
        <time>2023-05-30T11:53:44.000Z</time>
      </trkpt>
      <trkpt lat="46.21541" lon="4.27846">
        <ele>407.39999389648</ele>
        <time>2023-05-30T11:53:46.000Z</time>
      </trkpt>
      <trkpt lat="46.21541" lon="4.27863">
        <ele>408.20001220703</ele>
        <time>2023-05-30T11:53:50.000Z</time>
      </trkpt>
      <trkpt lat="46.21539" lon="4.27883">
        <ele>409.20001220703</ele>
        <time>2023-05-30T11:53:55.000Z</time>
      </trkpt>
      <trkpt lat="46.21539" lon="4.27887">
        <ele>409.39999389648</ele>
        <time>2023-05-30T11:53:56.000Z</time>
      </trkpt>
      <trkpt lat="46.21539" lon="4.279">
        <ele>410.39999389648</ele>
        <time>2023-05-30T11:54:00.000Z</time>
      </trkpt>
      <trkpt lat="46.21538" lon="4.27913">
        <ele>411</ele>
        <time>2023-05-30T11:54:03.000Z</time>
      </trkpt>
      <trkpt lat="46.21537" lon="4.27921">
        <ele>411.60000610352</ele>
        <time>2023-05-30T11:54:05.000Z</time>
      </trkpt>
      <trkpt lat="46.21536" lon="4.27937">
        <ele>412.79998779297</ele>
        <time>2023-05-30T11:54:09.000Z</time>
      </trkpt>
      <trkpt lat="46.21536" lon="4.27941">
        <ele>413</ele>
        <time>2023-05-30T11:54:10.000Z</time>
      </trkpt>
      <trkpt lat="46.21535" lon="4.27957">
        <ele>414</ele>
        <time>2023-05-30T11:54:14.000Z</time>
      </trkpt>
      <trkpt lat="46.21534" lon="4.27977">
        <ele>414.79998779297</ele>
        <time>2023-05-30T11:54:19.000Z</time>
      </trkpt>
      <trkpt lat="46.21533" lon="4.27985">
        <ele>415.20001220703</ele>
        <time>2023-05-30T11:54:21.000Z</time>
      </trkpt>
      <trkpt lat="46.21532" lon="4.28008">
        <ele>416.20001220703</ele>
        <time>2023-05-30T11:54:27.000Z</time>
      </trkpt>
      <trkpt lat="46.21532" lon="4.28013">
        <ele>416.39999389648</ele>
        <time>2023-05-30T11:54:28.000Z</time>
      </trkpt>
      <trkpt lat="46.2153" lon="4.28031">
        <ele>417.39999389648</ele>
        <time>2023-05-30T11:54:33.000Z</time>
      </trkpt>
      <trkpt lat="46.21529" lon="4.28051">
        <ele>418.39999389648</ele>
        <time>2023-05-30T11:54:38.000Z</time>
      </trkpt>
      <trkpt lat="46.21529" lon="4.28054">
        <ele>418.60000610352</ele>
        <time>2023-05-30T11:54:39.000Z</time>
      </trkpt>
      <trkpt lat="46.21528" lon="4.28073">
        <ele>419.60000610352</ele>
        <time>2023-05-30T11:54:44.000Z</time>
      </trkpt>
      <trkpt lat="46.21527" lon="4.2809">
        <ele>420.60000610352</ele>
        <time>2023-05-30T11:54:48.000Z</time>
      </trkpt>
      <trkpt lat="46.21527" lon="4.28094">
        <ele>420.79998779297</ele>
        <time>2023-05-30T11:54:49.000Z</time>
      </trkpt>
      <trkpt lat="46.21526" lon="4.28109">
        <ele>421.79998779297</ele>
        <time>2023-05-30T11:54:53.000Z</time>
      </trkpt>
      <trkpt lat="46.21526" lon="4.28121">
        <ele>422.39999389648</ele>
        <time>2023-05-30T11:54:56.000Z</time>
      </trkpt>
      <trkpt lat="46.21525" lon="4.2813">
        <ele>423.20001220703</ele>
        <time>2023-05-30T11:54:58.000Z</time>
      </trkpt>
      <trkpt lat="46.21524" lon="4.2815">
        <ele>424.20001220703</ele>
        <time>2023-05-30T11:55:03.000Z</time>
      </trkpt>
      <trkpt lat="46.21523" lon="4.28157">
        <ele>424.60000610352</ele>
        <time>2023-05-30T11:55:05.000Z</time>
      </trkpt>
      <trkpt lat="46.21523" lon="4.28169">
        <ele>425.39999389648</ele>
        <time>2023-05-30T11:55:08.000Z</time>
      </trkpt>
      <trkpt lat="46.21521" lon="4.2819">
        <ele>426.39999389648</ele>
        <time>2023-05-30T11:55:13.000Z</time>
      </trkpt>
      <trkpt lat="46.21521" lon="4.28202">
        <ele>427</ele>
        <time>2023-05-30T11:55:16.000Z</time>
      </trkpt>
      <trkpt lat="46.2152" lon="4.28229">
        <ele>427.60000610352</ele>
        <time>2023-05-30T11:55:22.000Z</time>
      </trkpt>
      <trkpt lat="46.2152" lon="4.28247">
        <ele>428.20001220703</ele>
        <time>2023-05-30T11:55:26.000Z</time>
      </trkpt>
      <trkpt lat="46.2152" lon="4.2826">
        <ele>428.79998779297</ele>
        <time>2023-05-30T11:55:29.000Z</time>
      </trkpt>
      <trkpt lat="46.21521" lon="4.28293">
        <ele>429.60000610352</ele>
        <time>2023-05-30T11:55:35.000Z</time>
      </trkpt>
      <trkpt lat="46.21522" lon="4.28309">
        <ele>429.79998779297</ele>
        <time>2023-05-30T11:55:38.000Z</time>
      </trkpt>
      <trkpt lat="46.21524" lon="4.28337">
        <ele>430</ele>
        <time>2023-05-30T11:55:42.000Z</time>
      </trkpt>
      <trkpt lat="46.21527" lon="4.28392">
        <ele>430</ele>
        <time>2023-05-30T11:55:49.000Z</time>
      </trkpt>
      <trkpt lat="46.21532" lon="4.2846">
        <ele>429.39999389648</ele>
        <time>2023-05-30T11:55:57.000Z</time>
      </trkpt>
      <trkpt lat="46.21533" lon="4.28533">
        <ele>429</ele>
        <time>2023-05-30T11:56:05.000Z</time>
      </trkpt>
      <trkpt lat="46.2153" lon="4.28575">
        <ele>429.39999389648</ele>
        <time>2023-05-30T11:56:11.000Z</time>
      </trkpt>
      <trkpt lat="46.21525" lon="4.28617">
        <ele>430.79998779297</ele>
        <time>2023-05-30T11:56:18.000Z</time>
      </trkpt>
      <trkpt lat="46.21524" lon="4.28621">
        <ele>430.79998779297</ele>
        <time>2023-05-30T11:56:19.000Z</time>
      </trkpt>
      <trkpt lat="46.21522" lon="4.2863">
        <ele>431.20001220703</ele>
        <time>2023-05-30T11:56:21.000Z</time>
      </trkpt>
      <trkpt lat="46.21519" lon="4.28651">
        <ele>431.79998779297</ele>
        <time>2023-05-30T11:56:25.000Z</time>
      </trkpt>
      <trkpt lat="46.21518" lon="4.28661">
        <ele>432.39999389648</ele>
        <time>2023-05-30T11:56:27.000Z</time>
      </trkpt>
      <trkpt lat="46.21513" lon="4.2869">
        <ele>433.60000610352</ele>
        <time>2023-05-30T11:56:33.000Z</time>
      </trkpt>
      <trkpt lat="46.21513" lon="4.28695">
        <ele>433.79998779297</ele>
        <time>2023-05-30T11:56:34.000Z</time>
      </trkpt>
      <trkpt lat="46.21511" lon="4.28713">
        <ele>434.60000610352</ele>
        <time>2023-05-30T11:56:38.000Z</time>
      </trkpt>
      <trkpt lat="46.2151" lon="4.28724">
        <ele>435.20001220703</ele>
        <time>2023-05-30T11:56:41.000Z</time>
      </trkpt>
      <trkpt lat="46.21507" lon="4.28736">
        <ele>435.79998779297</ele>
        <time>2023-05-30T11:56:44.000Z</time>
      </trkpt>
      <trkpt lat="46.21503" lon="4.2876">
        <ele>437</ele>
        <time>2023-05-30T11:56:50.000Z</time>
      </trkpt>
      <trkpt lat="46.21502" lon="4.28777">
        <ele>438</ele>
        <time>2023-05-30T11:56:54.000Z</time>
      </trkpt>
      <trkpt lat="46.21499" lon="4.28795">
        <ele>439.20001220703</ele>
        <time>2023-05-30T11:56:59.000Z</time>
      </trkpt>
      <trkpt lat="46.21494" lon="4.28831">
        <ele>440.39999389648</ele>
        <time>2023-05-30T11:57:06.000Z</time>
      </trkpt>
      <trkpt lat="46.21488" lon="4.28867">
        <ele>441.20001220703</ele>
        <time>2023-05-30T11:57:14.000Z</time>
      </trkpt>
      <trkpt lat="46.21487" lon="4.28871">
        <ele>441.39999389648</ele>
        <time>2023-05-30T11:57:15.000Z</time>
      </trkpt>
      <trkpt lat="46.21478" lon="4.28908">
        <ele>442.20001220703</ele>
        <time>2023-05-30T11:57:23.000Z</time>
      </trkpt>
      <trkpt lat="46.21464" lon="4.28951">
        <ele>442.20001220703</ele>
        <time>2023-05-30T11:57:31.000Z</time>
      </trkpt>
      <trkpt lat="46.21458" lon="4.2897">
        <ele>442.20001220703</ele>
        <time>2023-05-30T11:57:34.000Z</time>
      </trkpt>
      <trkpt lat="46.21453" lon="4.28986">
        <ele>442</ele>
        <time>2023-05-30T11:57:36.000Z</time>
      </trkpt>
      <trkpt lat="46.21436" lon="4.29037">
        <ele>441.20001220703</ele>
        <time>2023-05-30T11:57:42.000Z</time>
      </trkpt>
      <trkpt lat="46.21426" lon="4.29071">
        <ele>440.39999389648</ele>
        <time>2023-05-30T11:57:45.000Z</time>
      </trkpt>
      <trkpt lat="46.21419" lon="4.29092">
        <ele>439.60000610352</ele>
        <time>2023-05-30T11:57:47.000Z</time>
      </trkpt>
      <trkpt lat="46.21412" lon="4.29116">
        <ele>438.79998779297</ele>
        <time>2023-05-30T11:57:49.000Z</time>
      </trkpt>
      <trkpt lat="46.21401" lon="4.29153">
        <ele>437.79998779297</ele>
        <time>2023-05-30T11:57:52.000Z</time>
      </trkpt>
      <trkpt lat="46.21392" lon="4.29181">
        <ele>436.60000610352</ele>
        <time>2023-05-30T11:57:54.000Z</time>
      </trkpt>
      <trkpt lat="46.21376" lon="4.2923">
        <ele>435</ele>
        <time>2023-05-30T11:57:58.000Z</time>
      </trkpt>
      <trkpt lat="46.21362" lon="4.29272">
        <ele>434</ele>
        <time>2023-05-30T11:58:01.000Z</time>
      </trkpt>
      <trkpt lat="46.21359" lon="4.29282">
        <ele>433.79998779297</ele>
        <time>2023-05-30T11:58:02.000Z</time>
      </trkpt>
      <trkpt lat="46.2135" lon="4.2931">
        <ele>432.79998779297</ele>
        <time>2023-05-30T11:58:04.000Z</time>
      </trkpt>
      <trkpt lat="46.21346" lon="4.29323">
        <ele>431.79998779297</ele>
        <time>2023-05-30T11:58:05.000Z</time>
      </trkpt>
      <trkpt lat="46.21334" lon="4.2936">
        <ele>430.60000610352</ele>
        <time>2023-05-30T11:58:08.000Z</time>
      </trkpt>
      <trkpt lat="46.21321" lon="4.29397">
        <ele>429.79998779297</ele>
        <time>2023-05-30T11:58:11.000Z</time>
      </trkpt>
      <trkpt lat="46.21317" lon="4.29409">
        <ele>429.39999389648</ele>
        <time>2023-05-30T11:58:12.000Z</time>
      </trkpt>
      <trkpt lat="46.2131" lon="4.29431">
        <ele>428.39999389648</ele>
        <time>2023-05-30T11:58:14.000Z</time>
      </trkpt>
      <trkpt lat="46.21308" lon="4.29442">
        <ele>428.20001220703</ele>
        <time>2023-05-30T11:58:15.000Z</time>
      </trkpt>
      <trkpt lat="46.21308" lon="4.2945">
        <ele>427.20001220703</ele>
        <time>2023-05-30T11:58:16.000Z</time>
      </trkpt>
      <trkpt lat="46.21313" lon="4.29471">
        <ele>426.39999389648</ele>
        <time>2023-05-30T11:58:18.000Z</time>
      </trkpt>
      <trkpt lat="46.21319" lon="4.29482">
        <ele>426</ele>
        <time>2023-05-30T11:58:19.000Z</time>
      </trkpt>
      <trkpt lat="46.21326" lon="4.2949">
        <ele>425.60000610352</ele>
        <time>2023-05-30T11:58:20.000Z</time>
      </trkpt>
      <trkpt lat="46.21332" lon="4.29495">
        <ele>425.20001220703</ele>
        <time>2023-05-30T11:58:21.000Z</time>
      </trkpt>
      <trkpt lat="46.21349" lon="4.29507">
        <ele>424</ele>
        <time>2023-05-30T11:58:23.000Z</time>
      </trkpt>
      <trkpt lat="46.21366" lon="4.29519">
        <ele>423</ele>
        <time>2023-05-30T11:58:25.000Z</time>
      </trkpt>
      <trkpt lat="46.21376" lon="4.29525">
        <ele>422.60000610352</ele>
        <time>2023-05-30T11:58:26.000Z</time>
      </trkpt>
      <trkpt lat="46.21394" lon="4.29538">
        <ele>421.60000610352</ele>
        <time>2023-05-30T11:58:28.000Z</time>
      </trkpt>
      <trkpt lat="46.21402" lon="4.29548">
        <ele>421.39999389648</ele>
        <time>2023-05-30T11:58:29.000Z</time>
      </trkpt>
      <trkpt lat="46.21407" lon="4.29556">
        <ele>420.39999389648</ele>
        <time>2023-05-30T11:58:30.000Z</time>
      </trkpt>
      <trkpt lat="46.21411" lon="4.29568">
        <ele>420.20001220703</ele>
        <time>2023-05-30T11:58:31.000Z</time>
      </trkpt>
      <trkpt lat="46.21414" lon="4.29581">
        <ele>419.39999389648</ele>
        <time>2023-05-30T11:58:32.000Z</time>
      </trkpt>
      <trkpt lat="46.21416" lon="4.29594">
        <ele>418.39999389648</ele>
        <time>2023-05-30T11:58:33.000Z</time>
      </trkpt>
      <trkpt lat="46.21417" lon="4.29621">
        <ele>417.20001220703</ele>
        <time>2023-05-30T11:58:35.000Z</time>
      </trkpt>
      <trkpt lat="46.21416" lon="4.29651">
        <ele>415.60000610352</ele>
        <time>2023-05-30T11:58:37.000Z</time>
      </trkpt>
      <trkpt lat="46.21412" lon="4.29675">
        <ele>413.79998779297</ele>
        <time>2023-05-30T11:58:39.000Z</time>
      </trkpt>
      <trkpt lat="46.21404" lon="4.29713">
        <ele>412.60000610352</ele>
        <time>2023-05-30T11:58:42.000Z</time>
      </trkpt>
      <trkpt lat="46.21383" lon="4.29773">
        <ele>411.79998779297</ele>
        <time>2023-05-30T11:58:48.000Z</time>
      </trkpt>
      <trkpt lat="46.21377" lon="4.29788">
        <ele>411.60000610352</ele>
        <time>2023-05-30T11:58:50.000Z</time>
      </trkpt>
      <trkpt lat="46.21361" lon="4.29817">
        <ele>411.39999389648</ele>
        <time>2023-05-30T11:58:54.000Z</time>
      </trkpt>
      <trkpt lat="46.21343" lon="4.29841">
        <ele>412</ele>
        <time>2023-05-30T11:58:58.000Z</time>
      </trkpt>
      <trkpt lat="46.21339" lon="4.29844">
        <ele>412</ele>
        <time>2023-05-30T11:58:59.000Z</time>
      </trkpt>
      <trkpt lat="46.21323" lon="4.29854">
        <ele>412.39999389648</ele>
        <time>2023-05-30T11:59:02.000Z</time>
      </trkpt>
      <trkpt lat="46.21313" lon="4.29858">
        <ele>413</ele>
        <time>2023-05-30T11:59:04.000Z</time>
      </trkpt>
      <trkpt lat="46.21307" lon="4.2986">
        <ele>413</ele>
        <time>2023-05-30T11:59:05.000Z</time>
      </trkpt>
      <trkpt lat="46.21272" lon="4.29874">
        <ele>413.39999389648</ele>
        <time>2023-05-30T11:59:11.000Z</time>
      </trkpt>
      <trkpt lat="46.21243" lon="4.29887">
        <ele>413.20001220703</ele>
        <time>2023-05-30T11:59:16.000Z</time>
      </trkpt>
      <trkpt lat="46.212" lon="4.29918">
        <ele>412.79998779297</ele>
        <time>2023-05-30T11:59:24.000Z</time>
      </trkpt>
      <trkpt lat="46.21181" lon="4.2994">
        <ele>412.60000610352</ele>
        <time>2023-05-30T11:59:28.000Z</time>
      </trkpt>
      <trkpt lat="46.21177" lon="4.29946">
        <ele>412.39999389648</ele>
        <time>2023-05-30T11:59:29.000Z</time>
      </trkpt>
      <trkpt lat="46.21143" lon="4.30014">
        <ele>413.20001220703</ele>
        <time>2023-05-30T11:59:39.000Z</time>
      </trkpt>
      <trkpt lat="46.2114" lon="4.30033">
        <ele>413.39999389648</ele>
        <time>2023-05-30T11:59:41.000Z</time>
      </trkpt>
      <trkpt lat="46.2114" lon="4.3005">
        <ele>413.60000610352</ele>
        <time>2023-05-30T11:59:43.000Z</time>
      </trkpt>
      <trkpt lat="46.21145" lon="4.30104">
        <ele>413.60000610352</ele>
        <time>2023-05-30T11:59:49.000Z</time>
      </trkpt>
      <trkpt lat="46.21151" lon="4.30171">
        <ele>412.20001220703</ele>
        <time>2023-05-30T11:59:55.000Z</time>
      </trkpt>
      <trkpt lat="46.21153" lon="4.30192">
        <ele>411.79998779297</ele>
        <time>2023-05-30T11:59:57.000Z</time>
      </trkpt>
      <trkpt lat="46.21158" lon="4.30242">
        <ele>410.39999389648</ele>
        <time>2023-05-30T12:00:01.000Z</time>
      </trkpt>
      <trkpt lat="46.21159" lon="4.30255">
        <ele>410</ele>
        <time>2023-05-30T12:00:02.000Z</time>
      </trkpt>
      <trkpt lat="46.21158" lon="4.30269">
        <ele>409.60000610352</ele>
        <time>2023-05-30T12:00:03.000Z</time>
      </trkpt>
      <trkpt lat="46.21157" lon="4.30283">
        <ele>409</ele>
        <time>2023-05-30T12:00:04.000Z</time>
      </trkpt>
      <trkpt lat="46.21155" lon="4.30299">
        <ele>408.79998779297</ele>
        <time>2023-05-30T12:00:05.000Z</time>
      </trkpt>
      <trkpt lat="46.21152" lon="4.3031">
        <ele>408.20001220703</ele>
        <time>2023-05-30T12:00:06.000Z</time>
      </trkpt>
      <trkpt lat="46.21148" lon="4.30323">
        <ele>407.60000610352</ele>
        <time>2023-05-30T12:00:07.000Z</time>
      </trkpt>
      <trkpt lat="46.21135" lon="4.30362">
        <ele>406.39999389648</ele>
        <time>2023-05-30T12:00:10.000Z</time>
      </trkpt>
      <trkpt lat="46.21127" lon="4.30382">
        <ele>405.60000610352</ele>
        <time>2023-05-30T12:00:12.000Z</time>
      </trkpt>
      <trkpt lat="46.21123" lon="4.30393">
        <ele>405</ele>
        <time>2023-05-30T12:00:13.000Z</time>
      </trkpt>
      <trkpt lat="46.21109" lon="4.30433">
        <ele>403.79998779297</ele>
        <time>2023-05-30T12:00:17.000Z</time>
      </trkpt>
      <trkpt lat="46.21105" lon="4.30445">
        <ele>403.79998779297</ele>
        <time>2023-05-30T12:00:18.000Z</time>
      </trkpt>
      <trkpt lat="46.21081" lon="4.30514">
        <ele>403.20001220703</ele>
        <time>2023-05-30T12:00:26.000Z</time>
      </trkpt>
      <trkpt lat="46.21058" lon="4.30579">
        <ele>403</ele>
        <time>2023-05-30T12:00:34.000Z</time>
      </trkpt>
      <trkpt lat="46.21053" lon="4.30594">
        <ele>402.79998779297</ele>
        <time>2023-05-30T12:00:36.000Z</time>
      </trkpt>
      <trkpt lat="46.21034" lon="4.30646">
        <ele>402.20001220703</ele>
        <time>2023-05-30T12:00:42.000Z</time>
      </trkpt>
      <trkpt lat="46.21024" lon="4.30676">
        <ele>401.60000610352</ele>
        <time>2023-05-30T12:00:45.000Z</time>
      </trkpt>
      <trkpt lat="46.21016" lon="4.30698">
        <ele>400.39999389648</ele>
        <time>2023-05-30T12:00:47.000Z</time>
      </trkpt>
      <trkpt lat="46.21008" lon="4.3072">
        <ele>399.79998779297</ele>
        <time>2023-05-30T12:00:49.000Z</time>
      </trkpt>
      <trkpt lat="46.21" lon="4.30742">
        <ele>399.39999389648</ele>
        <time>2023-05-30T12:00:51.000Z</time>
      </trkpt>
      <trkpt lat="46.20992" lon="4.30765">
        <ele>398</ele>
        <time>2023-05-30T12:00:53.000Z</time>
      </trkpt>
      <trkpt lat="46.20975" lon="4.30813">
        <ele>396.39999389648</ele>
        <time>2023-05-30T12:00:57.000Z</time>
      </trkpt>
      <trkpt lat="46.20971" lon="4.30825">
        <ele>396</ele>
        <time>2023-05-30T12:00:58.000Z</time>
      </trkpt>
      <trkpt lat="46.20963" lon="4.30848">
        <ele>394.79998779297</ele>
        <time>2023-05-30T12:01:00.000Z</time>
      </trkpt>
      <trkpt lat="46.20951" lon="4.30884">
        <ele>393.79998779297</ele>
        <time>2023-05-30T12:01:03.000Z</time>
      </trkpt>
      <trkpt lat="46.20939" lon="4.30919">
        <ele>391.60000610352</ele>
        <time>2023-05-30T12:01:06.000Z</time>
      </trkpt>
      <trkpt lat="46.20932" lon="4.30942">
        <ele>390.39999389648</ele>
        <time>2023-05-30T12:01:08.000Z</time>
      </trkpt>
      <trkpt lat="46.20924" lon="4.30965">
        <ele>389.20001220703</ele>
        <time>2023-05-30T12:01:10.000Z</time>
      </trkpt>
      <trkpt lat="46.20905" lon="4.31021">
        <ele>388</ele>
        <time>2023-05-30T12:01:15.000Z</time>
      </trkpt>
      <trkpt lat="46.20901" lon="4.31032">
        <ele>387.60000610352</ele>
        <time>2023-05-30T12:01:16.000Z</time>
      </trkpt>
      <trkpt lat="46.20894" lon="4.31055">
        <ele>387</ele>
        <time>2023-05-30T12:01:18.000Z</time>
      </trkpt>
      <trkpt lat="46.20886" lon="4.31089">
        <ele>385.79998779297</ele>
        <time>2023-05-30T12:01:21.000Z</time>
      </trkpt>
      <trkpt lat="46.20882" lon="4.31113">
        <ele>385</ele>
        <time>2023-05-30T12:01:23.000Z</time>
      </trkpt>
      <trkpt lat="46.20878" lon="4.31134">
        <ele>384.60000610352</ele>
        <time>2023-05-30T12:01:25.000Z</time>
      </trkpt>
      <trkpt lat="46.20875" lon="4.31143">
        <ele>384.39999389648</ele>
        <time>2023-05-30T12:01:26.000Z</time>
      </trkpt>
      <trkpt lat="46.20871" lon="4.31151">
        <ele>384.20001220703</ele>
        <time>2023-05-30T12:01:27.000Z</time>
      </trkpt>
      <trkpt lat="46.20865" lon="4.31157">
        <ele>384.20001220703</ele>
        <time>2023-05-30T12:01:28.000Z</time>
      </trkpt>
      <trkpt lat="46.20853" lon="4.31165">
        <ele>383.60000610352</ele>
        <time>2023-05-30T12:01:30.000Z</time>
      </trkpt>
      <trkpt lat="46.20845" lon="4.31178">
        <ele>383</ele>
        <time>2023-05-30T12:01:32.000Z</time>
      </trkpt>
      <trkpt lat="46.20844" lon="4.31186">
        <ele>383</ele>
        <time>2023-05-30T12:01:33.000Z</time>
      </trkpt>
      <trkpt lat="46.20845" lon="4.31195">
        <ele>382.79998779297</ele>
        <time>2023-05-30T12:01:34.000Z</time>
      </trkpt>
      <trkpt lat="46.20852" lon="4.31209">
        <ele>382.60000610352</ele>
        <time>2023-05-30T12:01:36.000Z</time>
      </trkpt>
      <trkpt lat="46.2086" lon="4.31223">
        <ele>382.39999389648</ele>
        <time>2023-05-30T12:01:38.000Z</time>
      </trkpt>
      <trkpt lat="46.20863" lon="4.31237">
        <ele>382.39999389648</ele>
        <time>2023-05-30T12:01:40.000Z</time>
      </trkpt>
      <trkpt lat="46.20869" lon="4.31283">
        <ele>382.60000610352</ele>
        <time>2023-05-30T12:01:46.000Z</time>
      </trkpt>
      <trkpt lat="46.20869" lon="4.3129">
        <ele>382.60000610352</ele>
        <time>2023-05-30T12:01:47.000Z</time>
      </trkpt>
      <trkpt lat="46.20866" lon="4.3132">
        <ele>383.20001220703</ele>
        <time>2023-05-30T12:01:51.000Z</time>
      </trkpt>
      <trkpt lat="46.20862" lon="4.31342">
        <ele>383.39999389648</ele>
        <time>2023-05-30T12:01:54.000Z</time>
      </trkpt>
      <trkpt lat="46.20862" lon="4.31347">
        <ele>383.79998779297</ele>
        <time>2023-05-30T12:01:55.000Z</time>
      </trkpt>
      <trkpt lat="46.20861" lon="4.31361">
        <ele>383.79998779297</ele>
        <time>2023-05-30T12:01:57.000Z</time>
      </trkpt>
      <trkpt lat="46.20859" lon="4.31387">
        <ele>384.79998779297</ele>
        <time>2023-05-30T12:02:01.000Z</time>
      </trkpt>
      <trkpt lat="46.20857" lon="4.31404">
        <ele>385.39999389648</ele>
        <time>2023-05-30T12:02:04.000Z</time>
      </trkpt>
      <trkpt lat="46.20856" lon="4.31419">
        <ele>385.79998779297</ele>
        <time>2023-05-30T12:02:07.000Z</time>
      </trkpt>
      <trkpt lat="46.20854" lon="4.31444">
        <ele>386.79998779297</ele>
        <time>2023-05-30T12:02:12.000Z</time>
      </trkpt>
      <trkpt lat="46.20852" lon="4.31468">
        <ele>388</ele>
        <time>2023-05-30T12:02:17.000Z</time>
      </trkpt>
      <trkpt lat="46.20852" lon="4.31479">
        <ele>388.39999389648</ele>
        <time>2023-05-30T12:02:19.000Z</time>
      </trkpt>
      <trkpt lat="46.20849" lon="4.31504">
        <ele>389</ele>
        <time>2023-05-30T12:02:24.000Z</time>
      </trkpt>
      <trkpt lat="46.20847" lon="4.31515">
        <ele>389.39999389648</ele>
        <time>2023-05-30T12:02:26.000Z</time>
      </trkpt>
      <trkpt lat="46.20845" lon="4.31542">
        <ele>390.39999389648</ele>
        <time>2023-05-30T12:02:31.000Z</time>
      </trkpt>
      <trkpt lat="46.20843" lon="4.3158">
        <ele>390.60000610352</ele>
        <time>2023-05-30T12:02:37.000Z</time>
      </trkpt>
      <trkpt lat="46.20839" lon="4.31637">
        <ele>391.20001220703</ele>
        <time>2023-05-30T12:02:46.000Z</time>
      </trkpt>
      <trkpt lat="46.20838" lon="4.31643">
        <ele>391.20001220703</ele>
        <time>2023-05-30T12:02:47.000Z</time>
      </trkpt>
      <trkpt lat="46.20838" lon="4.31655">
        <ele>391.39999389648</ele>
        <time>2023-05-30T12:02:49.000Z</time>
      </trkpt>
      <trkpt lat="46.20838" lon="4.31688">
        <ele>392</ele>
        <time>2023-05-30T12:02:54.000Z</time>
      </trkpt>
      <trkpt lat="46.20834" lon="4.31738">
        <ele>392.60000610352</ele>
        <time>2023-05-30T12:03:02.000Z</time>
      </trkpt>
      <trkpt lat="46.20833" lon="4.31745">
        <ele>392.60000610352</ele>
        <time>2023-05-30T12:03:03.000Z</time>
      </trkpt>
      <trkpt lat="46.2083" lon="4.31796">
        <ele>393.39999389648</ele>
        <time>2023-05-30T12:03:11.000Z</time>
      </trkpt>
      <trkpt lat="46.20829" lon="4.31809">
        <ele>393.39999389648</ele>
        <time>2023-05-30T12:03:13.000Z</time>
      </trkpt>
      <trkpt lat="46.20827" lon="4.31834">
        <ele>393.60000610352</ele>
        <time>2023-05-30T12:03:17.000Z</time>
      </trkpt>
      <trkpt lat="46.20824" lon="4.31859">
        <ele>394</ele>
        <time>2023-05-30T12:03:21.000Z</time>
      </trkpt>
      <trkpt lat="46.20824" lon="4.31859">
        <ele>394.20001220703</ele>
        <time>2023-05-30T12:03:22.000Z</time>
      </trkpt>
      <trkpt lat="46.20823" lon="4.31882">
        <ele>394.79998779297</ele>
        <time>2023-05-30T12:03:26.000Z</time>
      </trkpt>
      <trkpt lat="46.20824" lon="4.31898">
        <ele>395.39999389648</ele>
        <time>2023-05-30T12:03:29.000Z</time>
      </trkpt>
      <trkpt lat="46.20825" lon="4.31907">
        <ele>396</ele>
        <time>2023-05-30T12:03:31.000Z</time>
      </trkpt>
      <trkpt lat="46.20827" lon="4.31925">
        <ele>396.60000610352</ele>
        <time>2023-05-30T12:03:34.000Z</time>
      </trkpt>
      <trkpt lat="46.20827" lon="4.31956">
        <ele>396.79998779297</ele>
        <time>2023-05-30T12:03:39.000Z</time>
      </trkpt>
      <trkpt lat="46.20832" lon="4.32022">
        <ele>396</ele>
        <time>2023-05-30T12:03:46.000Z</time>
      </trkpt>
      <trkpt lat="46.20837" lon="4.32083">
        <ele>394.60000610352</ele>
        <time>2023-05-30T12:03:52.000Z</time>
      </trkpt>
      <trkpt lat="46.20838" lon="4.32104">
        <ele>394.20001220703</ele>
        <time>2023-05-30T12:03:54.000Z</time>
      </trkpt>
      <trkpt lat="46.20841" lon="4.32137">
        <ele>393.20001220703</ele>
        <time>2023-05-30T12:03:57.000Z</time>
      </trkpt>
      <trkpt lat="46.20845" lon="4.3218">
        <ele>392.39999389648</ele>
        <time>2023-05-30T12:04:01.000Z</time>
      </trkpt>
      <trkpt lat="46.20846" lon="4.3219">
        <ele>392</ele>
        <time>2023-05-30T12:04:02.000Z</time>
      </trkpt>
      <trkpt lat="46.20852" lon="4.32261">
        <ele>391</ele>
        <time>2023-05-30T12:04:09.000Z</time>
      </trkpt>
      <trkpt lat="46.20853" lon="4.32271">
        <ele>390.79998779297</ele>
        <time>2023-05-30T12:04:10.000Z</time>
      </trkpt>
      <trkpt lat="46.20859" lon="4.32352">
        <ele>390.79998779297</ele>
        <time>2023-05-30T12:04:19.000Z</time>
      </trkpt>
      <trkpt lat="46.20863" lon="4.32401">
        <ele>392</ele>
        <time>2023-05-30T12:04:25.000Z</time>
      </trkpt>
      <trkpt lat="46.2087" lon="4.32479">
        <ele>391.60000610352</ele>
        <time>2023-05-30T12:04:34.000Z</time>
      </trkpt>
      <trkpt lat="46.20871" lon="4.32488">
        <ele>391.60000610352</ele>
        <time>2023-05-30T12:04:35.000Z</time>
      </trkpt>
      <trkpt lat="46.20876" lon="4.32551">
        <ele>390.79998779297</ele>
        <time>2023-05-30T12:04:42.000Z</time>
      </trkpt>
      <trkpt lat="46.20882" lon="4.32625">
        <ele>389.79998779297</ele>
        <time>2023-05-30T12:04:50.000Z</time>
      </trkpt>
      <trkpt lat="46.20884" lon="4.32654">
        <ele>389.39999389648</ele>
        <time>2023-05-30T12:04:53.000Z</time>
      </trkpt>
      <trkpt lat="46.20885" lon="4.32683">
        <ele>389.20001220703</ele>
        <time>2023-05-30T12:04:56.000Z</time>
      </trkpt>
      <trkpt lat="46.20886" lon="4.32693">
        <ele>389</ele>
        <time>2023-05-30T12:04:57.000Z</time>
      </trkpt>
      <trkpt lat="46.20885" lon="4.32722">
        <ele>388.79998779297</ele>
        <time>2023-05-30T12:04:59.000Z</time>
      </trkpt>
      <trkpt lat="46.20878" lon="4.32776">
        <ele>388.39999389648</ele>
        <time>2023-05-30T12:05:06.000Z</time>
      </trkpt>
      <trkpt lat="46.20866" lon="4.32834">
        <ele>388.60000610352</ele>
        <time>2023-05-30T12:05:13.000Z</time>
      </trkpt>
      <trkpt lat="46.20855" lon="4.3291">
        <ele>389.79998779297</ele>
        <time>2023-05-30T12:05:23.000Z</time>
      </trkpt>
      <trkpt lat="46.20854" lon="4.32916">
        <ele>390</ele>
        <time>2023-05-30T12:05:24.000Z</time>
      </trkpt>
      <trkpt lat="46.20851" lon="4.32938">
        <ele>390.39999389648</ele>
        <time>2023-05-30T12:05:28.000Z</time>
      </trkpt>
      <trkpt lat="46.20848" lon="4.32952">
        <ele>391.20001220703</ele>
        <time>2023-05-30T12:05:32.000Z</time>
      </trkpt>
      <trkpt lat="46.20845" lon="4.3297">
        <ele>391.39999389648</ele>
        <time>2023-05-30T12:05:38.000Z</time>
      </trkpt>
      <trkpt lat="46.20841" lon="4.32994">
        <ele>391.60000610352</ele>
        <time>2023-05-30T12:05:43.000Z</time>
      </trkpt>
      <trkpt lat="46.20836" lon="4.33027">
        <ele>392.20001220703</ele>
        <time>2023-05-30T12:05:48.000Z</time>
      </trkpt>
      <trkpt lat="46.20832" lon="4.33054">
        <ele>392.79998779297</ele>
        <time>2023-05-30T12:05:53.000Z</time>
      </trkpt>
      <trkpt lat="46.20831" lon="4.33059">
        <ele>393.20001220703</ele>
        <time>2023-05-30T12:05:55.000Z</time>
      </trkpt>
      <trkpt lat="46.20825" lon="4.33101">
        <ele>394</ele>
        <time>2023-05-30T12:06:02.000Z</time>
      </trkpt>
      <trkpt lat="46.20824" lon="4.33106">
        <ele>394.20001220703</ele>
        <time>2023-05-30T12:06:03.000Z</time>
      </trkpt>
      <trkpt lat="46.20822" lon="4.3313">
        <ele>395.39999389648</ele>
        <time>2023-05-30T12:06:08.000Z</time>
      </trkpt>
      <trkpt lat="46.20821" lon="4.33135">
        <ele>395.79998779297</ele>
        <time>2023-05-30T12:06:10.000Z</time>
      </trkpt>
      <trkpt lat="46.20816" lon="4.33165">
        <ele>396.60000610352</ele>
        <time>2023-05-30T12:06:15.000Z</time>
      </trkpt>
      <trkpt lat="46.20814" lon="4.3318">
        <ele>397.20001220703</ele>
        <time>2023-05-30T12:06:19.000Z</time>
      </trkpt>
      <trkpt lat="46.20812" lon="4.33189">
        <ele>397.60000610352</ele>
        <time>2023-05-30T12:06:20.000Z</time>
      </trkpt>
      <trkpt lat="46.20807" lon="4.33218">
        <ele>398.79998779297</ele>
        <time>2023-05-30T12:06:27.000Z</time>
      </trkpt>
      <trkpt lat="46.20804" lon="4.33248">
        <ele>400</ele>
        <time>2023-05-30T12:06:33.000Z</time>
      </trkpt>
      <trkpt lat="46.20804" lon="4.33257">
        <ele>400.39999389648</ele>
        <time>2023-05-30T12:06:34.000Z</time>
      </trkpt>
      <trkpt lat="46.20804" lon="4.33266">
        <ele>401</ele>
        <time>2023-05-30T12:06:37.000Z</time>
      </trkpt>
      <trkpt lat="46.20802" lon="4.33299">
        <ele>402.20001220703</ele>
        <time>2023-05-30T12:06:43.000Z</time>
      </trkpt>
      <trkpt lat="46.20802" lon="4.33309">
        <ele>402.60000610352</ele>
        <time>2023-05-30T12:06:45.000Z</time>
      </trkpt>
      <trkpt lat="46.20803" lon="4.3333">
        <ele>403.20001220703</ele>
        <time>2023-05-30T12:06:49.000Z</time>
      </trkpt>
      <trkpt lat="46.20804" lon="4.33365">
        <ele>404.20001220703</ele>
        <time>2023-05-30T12:06:56.000Z</time>
      </trkpt>
      <trkpt lat="46.20807" lon="4.33407">
        <ele>405.39999389648</ele>
        <time>2023-05-30T12:07:04.000Z</time>
      </trkpt>
      <trkpt lat="46.20806" lon="4.33441">
        <ele>406.60000610352</ele>
        <time>2023-05-30T12:07:11.000Z</time>
      </trkpt>
      <trkpt lat="46.20804" lon="4.33463">
        <ele>406.79998779297</ele>
        <time>2023-05-30T12:07:14.000Z</time>
      </trkpt>
      <trkpt lat="46.20799" lon="4.33526">
        <ele>407.60000610352</ele>
        <time>2023-05-30T12:07:25.000Z</time>
      </trkpt>
      <trkpt lat="46.20795" lon="4.33551">
        <ele>407.79998779297</ele>
        <time>2023-05-30T12:07:29.000Z</time>
      </trkpt>
      <trkpt lat="46.20789" lon="4.33571">
        <ele>408</ele>
        <time>2023-05-30T12:07:32.000Z</time>
      </trkpt>
      <trkpt lat="46.20776" lon="4.33616">
        <ele>408</ele>
        <time>2023-05-30T12:07:39.000Z</time>
      </trkpt>
      <trkpt lat="46.20761" lon="4.33668">
        <ele>408.39999389648</ele>
        <time>2023-05-30T12:07:47.000Z</time>
      </trkpt>
      <trkpt lat="46.20747" lon="4.33716">
        <ele>408.60000610352</ele>
        <time>2023-05-30T12:07:55.000Z</time>
      </trkpt>
      <trkpt lat="46.20745" lon="4.33729">
        <ele>408.60000610352</ele>
        <time>2023-05-30T12:07:57.000Z</time>
      </trkpt>
      <trkpt lat="46.20735" lon="4.33762">
        <ele>408.60000610352</ele>
        <time>2023-05-30T12:08:02.000Z</time>
      </trkpt>
      <trkpt lat="46.20724" lon="4.33795">
        <ele>408.60000610352</ele>
        <time>2023-05-30T12:08:07.000Z</time>
      </trkpt>
      <trkpt lat="46.20721" lon="4.33801">
        <ele>408.60000610352</ele>
        <time>2023-05-30T12:08:08.000Z</time>
      </trkpt>
      <trkpt lat="46.20703" lon="4.33833">
        <ele>408.20001220703</ele>
        <time>2023-05-30T12:08:13.000Z</time>
      </trkpt>
      <trkpt lat="46.20685" lon="4.33861">
        <ele>407.79998779297</ele>
        <time>2023-05-30T12:08:18.000Z</time>
      </trkpt>
      <trkpt lat="46.20681" lon="4.33868">
        <ele>407.60000610352</ele>
        <time>2023-05-30T12:08:19.000Z</time>
      </trkpt>
      <trkpt lat="46.20679" lon="4.33874">
        <ele>407.39999389648</ele>
        <time>2023-05-30T12:08:20.000Z</time>
      </trkpt>
      <trkpt lat="46.20653" lon="4.33917">
        <ele>407</ele>
        <time>2023-05-30T12:08:27.000Z</time>
      </trkpt>
      <trkpt lat="46.2065" lon="4.33924">
        <ele>406.79998779297</ele>
        <time>2023-05-30T12:08:28.000Z</time>
      </trkpt>
      <trkpt lat="46.20637" lon="4.33948">
        <ele>406.60000610352</ele>
        <time>2023-05-30T12:08:32.000Z</time>
      </trkpt>
      <trkpt lat="46.20634" lon="4.33954">
        <ele>406.60000610352</ele>
        <time>2023-05-30T12:08:33.000Z</time>
      </trkpt>
      <trkpt lat="46.20622" lon="4.33975">
        <ele>407</ele>
        <time>2023-05-30T12:08:37.000Z</time>
      </trkpt>
      <trkpt lat="46.20614" lon="4.33984">
        <ele>407.20001220703</ele>
        <time>2023-05-30T12:08:39.000Z</time>
      </trkpt>
      <trkpt lat="46.20608" lon="4.33993">
        <ele>407.39999389648</ele>
        <time>2023-05-30T12:08:41.000Z</time>
      </trkpt>
      <trkpt lat="46.20604" lon="4.33997">
        <ele>407.39999389648</ele>
        <time>2023-05-30T12:08:42.000Z</time>
      </trkpt>
      <trkpt lat="46.20593" lon="4.34008">
        <ele>407.79998779297</ele>
        <time>2023-05-30T12:08:45.000Z</time>
      </trkpt>
      <trkpt lat="46.20588" lon="4.34009">
        <ele>407.79998779297</ele>
        <time>2023-05-30T12:08:46.000Z</time>
      </trkpt>
      <trkpt lat="46.20568" lon="4.34015">
        <ele>407.79998779297</ele>
        <time>2023-05-30T12:08:50.000Z</time>
      </trkpt>
      <trkpt lat="46.20557" lon="4.34016">
        <ele>407.60000610352</ele>
        <time>2023-05-30T12:08:53.000Z</time>
      </trkpt>
      <trkpt lat="46.20518" lon="4.34023">
        <ele>407.20001220703</ele>
        <time>2023-05-30T12:09:00.000Z</time>
      </trkpt>
      <trkpt lat="46.2048" lon="4.34032">
        <ele>407</ele>
        <time>2023-05-30T12:09:09.000Z</time>
      </trkpt>
      <trkpt lat="46.20465" lon="4.34034">
        <ele>407</ele>
        <time>2023-05-30T12:09:11.000Z</time>
      </trkpt>
      <trkpt lat="46.20453" lon="4.34035">
        <ele>407</ele>
        <time>2023-05-30T12:09:14.000Z</time>
      </trkpt>
      <trkpt lat="46.20446" lon="4.34035">
        <ele>407</ele>
        <time>2023-05-30T12:09:18.000Z</time>
      </trkpt>
      <trkpt lat="46.20446" lon="4.34035">
        <ele>406.60000610352</ele>
        <time>2023-05-30T12:09:21.000Z</time>
      </trkpt>
      <trkpt lat="46.2044" lon="4.34036">
        <ele>406.20001220703</ele>
        <time>2023-05-30T12:09:28.000Z</time>
      </trkpt>
      <trkpt lat="46.20436" lon="4.34037">
        <ele>406.20001220703</ele>
        <time>2023-05-30T12:09:29.000Z</time>
      </trkpt>
      <trkpt lat="46.20414" lon="4.34041">
        <ele>405.79998779297</ele>
        <time>2023-05-30T12:09:34.000Z</time>
      </trkpt>
      <trkpt lat="46.20381" lon="4.34047">
        <ele>405.20001220703</ele>
        <time>2023-05-30T12:09:40.000Z</time>
      </trkpt>
      <trkpt lat="46.20376" lon="4.34048">
        <ele>405.20001220703</ele>
        <time>2023-05-30T12:09:41.000Z</time>
      </trkpt>
      <trkpt lat="46.20329" lon="4.34057">
        <ele>404.39999389648</ele>
        <time>2023-05-30T12:09:49.000Z</time>
      </trkpt>
      <trkpt lat="46.20311" lon="4.3406">
        <ele>404.20001220703</ele>
        <time>2023-05-30T12:09:52.000Z</time>
      </trkpt>
      <trkpt lat="46.20274" lon="4.34067">
        <ele>403.60000610352</ele>
        <time>2023-05-30T12:09:58.000Z</time>
      </trkpt>
      <trkpt lat="46.20243" lon="4.34071">
        <ele>403</ele>
        <time>2023-05-30T12:10:03.000Z</time>
      </trkpt>
      <trkpt lat="46.20231" lon="4.34073">
        <ele>402.79998779297</ele>
        <time>2023-05-30T12:10:05.000Z</time>
      </trkpt>
      <trkpt lat="46.2019" lon="4.3408">
        <ele>402</ele>
        <time>2023-05-30T12:10:13.000Z</time>
      </trkpt>
      <trkpt lat="46.20135" lon="4.34076">
        <ele>401.60000610352</ele>
        <time>2023-05-30T12:10:21.000Z</time>
      </trkpt>
      <trkpt lat="46.20121" lon="4.34075">
        <ele>401.39999389648</ele>
        <time>2023-05-30T12:10:24.000Z</time>
      </trkpt>
      <trkpt lat="46.201" lon="4.34082">
        <ele>401</ele>
        <time>2023-05-30T12:10:26.000Z</time>
      </trkpt>
      <trkpt lat="46.20078" lon="4.34106">
        <ele>400.60000610352</ele>
        <time>2023-05-30T12:10:30.000Z</time>
      </trkpt>
      <trkpt lat="46.20058" lon="4.34133">
        <ele>400</ele>
        <time>2023-05-30T12:10:35.000Z</time>
      </trkpt>
      <trkpt lat="46.20053" lon="4.3414">
        <ele>399.79998779297</ele>
        <time>2023-05-30T12:10:36.000Z</time>
      </trkpt>
      <trkpt lat="46.20044" lon="4.34153">
        <ele>399.79998779297</ele>
        <time>2023-05-30T12:10:37.000Z</time>
      </trkpt>
      <trkpt lat="46.20005" lon="4.3421">
        <ele>399.20001220703</ele>
        <time>2023-05-30T12:10:46.000Z</time>
      </trkpt>
      <trkpt lat="46.19996" lon="4.34222">
        <ele>399.20001220703</ele>
        <time>2023-05-30T12:10:48.000Z</time>
      </trkpt>
      <trkpt lat="46.1996" lon="4.34272">
        <ele>399.39999389648</ele>
        <time>2023-05-30T12:10:57.000Z</time>
      </trkpt>
      <trkpt lat="46.19919" lon="4.3433">
        <ele>400</ele>
        <time>2023-05-30T12:11:08.000Z</time>
      </trkpt>
      <trkpt lat="46.19911" lon="4.3434">
        <ele>400.20001220703</ele>
        <time>2023-05-30T12:11:10.000Z</time>
      </trkpt>
      <trkpt lat="46.19877" lon="4.34386">
        <ele>401</ele>
        <time>2023-05-30T12:11:19.000Z</time>
      </trkpt>
      <trkpt lat="46.19874" lon="4.34391">
        <ele>401</ele>
        <time>2023-05-30T12:11:20.000Z</time>
      </trkpt>
      <trkpt lat="46.19845" lon="4.34433">
        <ele>401.20001220703</ele>
        <time>2023-05-30T12:11:28.000Z</time>
      </trkpt>
      <trkpt lat="46.19813" lon="4.34477">
        <ele>401.79998779297</ele>
        <time>2023-05-30T12:11:37.000Z</time>
      </trkpt>
      <trkpt lat="46.19788" lon="4.34512">
        <ele>402.20001220703</ele>
        <time>2023-05-30T12:11:44.000Z</time>
      </trkpt>
      <trkpt lat="46.1978" lon="4.34521">
        <ele>402.60000610352</ele>
        <time>2023-05-30T12:11:46.000Z</time>
      </trkpt>
      <trkpt lat="46.1977" lon="4.34536">
        <ele>403.20001220703</ele>
        <time>2023-05-30T12:11:49.000Z</time>
      </trkpt>
      <trkpt lat="46.19745" lon="4.34571">
        <ele>403.79998779297</ele>
        <time>2023-05-30T12:11:56.000Z</time>
      </trkpt>
      <trkpt lat="46.19721" lon="4.34604">
        <ele>404.20001220703</ele>
        <time>2023-05-30T12:12:03.000Z</time>
      </trkpt>
      <trkpt lat="46.19717" lon="4.34609">
        <ele>404.20001220703</ele>
        <time>2023-05-30T12:12:04.000Z</time>
      </trkpt>
      <trkpt lat="46.1969" lon="4.34648">
        <ele>405.20001220703</ele>
        <time>2023-05-30T12:12:12.000Z</time>
      </trkpt>
      <trkpt lat="46.19684" lon="4.34657">
        <ele>405.60000610352</ele>
        <time>2023-05-30T12:12:14.000Z</time>
      </trkpt>
      <trkpt lat="46.19653" lon="4.34701">
        <ele>406.20001220703</ele>
        <time>2023-05-30T12:12:23.000Z</time>
      </trkpt>
      <trkpt lat="46.1965" lon="4.34705">
        <ele>406.39999389648</ele>
        <time>2023-05-30T12:12:24.000Z</time>
      </trkpt>
      <trkpt lat="46.19646" lon="4.3471">
        <ele>406.60000610352</ele>
        <time>2023-05-30T12:12:25.000Z</time>
      </trkpt>
      <trkpt lat="46.19615" lon="4.34742">
        <ele>407.39999389648</ele>
        <time>2023-05-30T12:12:33.000Z</time>
      </trkpt>
      <trkpt lat="46.19611" lon="4.34745">
        <ele>407.39999389648</ele>
        <time>2023-05-30T12:12:34.000Z</time>
      </trkpt>
      <trkpt lat="46.19586" lon="4.34764">
        <ele>408.39999389648</ele>
        <time>2023-05-30T12:12:40.000Z</time>
      </trkpt>
      <trkpt lat="46.19582" lon="4.34768">
        <ele>408.60000610352</ele>
        <time>2023-05-30T12:12:41.000Z</time>
      </trkpt>
      <trkpt lat="46.19549" lon="4.34793">
        <ele>409.39999389648</ele>
        <time>2023-05-30T12:12:49.000Z</time>
      </trkpt>
      <trkpt lat="46.19549" lon="4.34793">
        <ele>409.39999389648</ele>
        <time>2023-05-30T12:12:50.000Z</time>
      </trkpt>
      <trkpt lat="46.19534" lon="4.34808">
        <ele>409.60000610352</ele>
        <time>2023-05-30T12:12:53.000Z</time>
      </trkpt>
      <trkpt lat="46.19525" lon="4.34823">
        <ele>410</ele>
        <time>2023-05-30T12:12:56.000Z</time>
      </trkpt>
      <trkpt lat="46.1952" lon="4.34834">
        <ele>410.39999389648</ele>
        <time>2023-05-30T12:12:58.000Z</time>
      </trkpt>
      <trkpt lat="46.19506" lon="4.34865">
        <ele>411.20001220703</ele>
        <time>2023-05-30T12:13:03.000Z</time>
      </trkpt>
      <trkpt lat="46.19504" lon="4.34871">
        <ele>411.60000610352</ele>
        <time>2023-05-30T12:13:05.000Z</time>
      </trkpt>
      <trkpt lat="46.19487" lon="4.34914">
        <ele>411.79998779297</ele>
        <time>2023-05-30T12:13:11.000Z</time>
      </trkpt>
      <trkpt lat="46.19478" lon="4.34955">
        <ele>412.20001220703</ele>
        <time>2023-05-30T12:13:17.000Z</time>
      </trkpt>
      <trkpt lat="46.19477" lon="4.34962">
        <ele>412.39999389648</ele>
        <time>2023-05-30T12:13:18.000Z</time>
      </trkpt>
      <trkpt lat="46.19476" lon="4.34985">
        <ele>412.60000610352</ele>
        <time>2023-05-30T12:13:21.000Z</time>
      </trkpt>
      <trkpt lat="46.19475" lon="4.35041">
        <ele>413.20001220703</ele>
        <time>2023-05-30T12:13:28.000Z</time>
      </trkpt>
      <trkpt lat="46.19474" lon="4.35097">
        <ele>413.39999389648</ele>
        <time>2023-05-30T12:13:35.000Z</time>
      </trkpt>
      <trkpt lat="46.19471" lon="4.35175">
        <ele>413.39999389648</ele>
        <time>2023-05-30T12:13:45.000Z</time>
      </trkpt>
      <trkpt lat="46.19471" lon="4.35191">
        <ele>413.79998779297</ele>
        <time>2023-05-30T12:13:47.000Z</time>
      </trkpt>
      <trkpt lat="46.19462" lon="4.35258">
        <ele>414.20001220703</ele>
        <time>2023-05-30T12:13:56.000Z</time>
      </trkpt>
      <trkpt lat="46.19443" lon="4.35335">
        <ele>414.79998779297</ele>
        <time>2023-05-30T12:14:07.000Z</time>
      </trkpt>
      <trkpt lat="46.19434" lon="4.35375">
        <ele>415.60000610352</ele>
        <time>2023-05-30T12:14:13.000Z</time>
      </trkpt>
      <trkpt lat="46.19433" lon="4.35389">
        <ele>416</ele>
        <time>2023-05-30T12:14:15.000Z</time>
      </trkpt>
      <trkpt lat="46.19432" lon="4.35418">
        <ele>416.60000610352</ele>
        <time>2023-05-30T12:14:19.000Z</time>
      </trkpt>
      <trkpt lat="46.19433" lon="4.35425">
        <ele>416.60000610352</ele>
        <time>2023-05-30T12:14:20.000Z</time>
      </trkpt>
      <trkpt lat="46.19437" lon="4.35447">
        <ele>416.79998779297</ele>
        <time>2023-05-30T12:14:23.000Z</time>
      </trkpt>
      <trkpt lat="46.19439" lon="4.3546">
        <ele>417</ele>
        <time>2023-05-30T12:14:25.000Z</time>
      </trkpt>
      <trkpt lat="46.19451" lon="4.35524">
        <ele>417.60000610352</ele>
        <time>2023-05-30T12:14:35.000Z</time>
      </trkpt>
      <trkpt lat="46.19452" lon="4.35531">
        <ele>417.60000610352</ele>
        <time>2023-05-30T12:14:36.000Z</time>
      </trkpt>
      <trkpt lat="46.19451" lon="4.35553">
        <ele>417.79998779297</ele>
        <time>2023-05-30T12:14:38.000Z</time>
      </trkpt>
      <trkpt lat="46.19451" lon="4.3556">
        <ele>418</ele>
        <time>2023-05-30T12:14:40.000Z</time>
      </trkpt>
      <trkpt lat="46.1945" lon="4.35567">
        <ele>418.20001220703</ele>
        <time>2023-05-30T12:14:41.000Z</time>
      </trkpt>
      <trkpt lat="46.19442" lon="4.35601">
        <ele>418.39999389648</ele>
        <time>2023-05-30T12:14:46.000Z</time>
      </trkpt>
      <trkpt lat="46.19424" lon="4.3566">
        <ele>418.79998779297</ele>
        <time>2023-05-30T12:14:54.000Z</time>
      </trkpt>
      <trkpt lat="46.19422" lon="4.35666">
        <ele>419</ele>
        <time>2023-05-30T12:14:56.000Z</time>
      </trkpt>
      <trkpt lat="46.19404" lon="4.35725">
        <ele>419.39999389648</ele>
        <time>2023-05-30T12:15:04.000Z</time>
      </trkpt>
      <trkpt lat="46.19394" lon="4.35757">
        <ele>419.79998779297</ele>
        <time>2023-05-30T12:15:09.000Z</time>
      </trkpt>
      <trkpt lat="46.19385" lon="4.3579">
        <ele>420.60000610352</ele>
        <time>2023-05-30T12:15:14.000Z</time>
      </trkpt>
      <trkpt lat="46.19381" lon="4.3581">
        <ele>421</ele>
        <time>2023-05-30T12:15:17.000Z</time>
      </trkpt>
      <trkpt lat="46.19378" lon="4.3583">
        <ele>421.20001220703</ele>
        <time>2023-05-30T12:15:20.000Z</time>
      </trkpt>
      <trkpt lat="46.19378" lon="4.35837">
        <ele>421.20001220703</ele>
        <time>2023-05-30T12:15:21.000Z</time>
      </trkpt>
      <trkpt lat="46.19385" lon="4.3588">
        <ele>421.60000610352</ele>
        <time>2023-05-30T12:15:27.000Z</time>
      </trkpt>
      <trkpt lat="46.19391" lon="4.35899">
        <ele>422</ele>
        <time>2023-05-30T12:15:30.000Z</time>
      </trkpt>
      <trkpt lat="46.19404" lon="4.35944">
        <ele>422.79998779297</ele>
        <time>2023-05-30T12:15:37.000Z</time>
      </trkpt>
      <trkpt lat="46.19405" lon="4.35951">
        <ele>422.79998779297</ele>
        <time>2023-05-30T12:15:38.000Z</time>
      </trkpt>
      <trkpt lat="46.19406" lon="4.35957">
        <ele>423</ele>
        <time>2023-05-30T12:15:39.000Z</time>
      </trkpt>
      <trkpt lat="46.19408" lon="4.35984">
        <ele>423.39999389648</ele>
        <time>2023-05-30T12:15:43.000Z</time>
      </trkpt>
      <trkpt lat="46.19408" lon="4.35989">
        <ele>423.60000610352</ele>
        <time>2023-05-30T12:15:44.000Z</time>
      </trkpt>
      <trkpt lat="46.19406" lon="4.35995">
        <ele>423.60000610352</ele>
        <time>2023-05-30T12:15:45.000Z</time>
      </trkpt>
      <trkpt lat="46.194" lon="4.36007">
        <ele>423.79998779297</ele>
        <time>2023-05-30T12:15:47.000Z</time>
      </trkpt>
      <trkpt lat="46.19392" lon="4.36014">
        <ele>424</ele>
        <time>2023-05-30T12:15:49.000Z</time>
      </trkpt>
      <trkpt lat="46.19387" lon="4.36018">
        <ele>424</ele>
        <time>2023-05-30T12:15:50.000Z</time>
      </trkpt>
      <trkpt lat="46.19373" lon="4.36029">
        <ele>424.20001220703</ele>
        <time>2023-05-30T12:15:53.000Z</time>
      </trkpt>
      <trkpt lat="46.19369" lon="4.36033">
        <ele>424.20001220703</ele>
        <time>2023-05-30T12:15:54.000Z</time>
      </trkpt>
      <trkpt lat="46.19362" lon="4.36044">
        <ele>424.20001220703</ele>
        <time>2023-05-30T12:15:56.000Z</time>
      </trkpt>
      <trkpt lat="46.19356" lon="4.36055">
        <ele>424.39999389648</ele>
        <time>2023-05-30T12:15:58.000Z</time>
      </trkpt>
      <trkpt lat="46.19351" lon="4.36069">
        <ele>424.39999389648</ele>
        <time>2023-05-30T12:16:00.000Z</time>
      </trkpt>
      <trkpt lat="46.19339" lon="4.36109">
        <ele>424.60000610352</ele>
        <time>2023-05-30T12:16:06.000Z</time>
      </trkpt>
      <trkpt lat="46.19323" lon="4.36151">
        <ele>425</ele>
        <time>2023-05-30T12:16:13.000Z</time>
      </trkpt>
      <trkpt lat="46.19315" lon="4.36168">
        <ele>425.39999389648</ele>
        <time>2023-05-30T12:16:16.000Z</time>
      </trkpt>
      <trkpt lat="46.19283" lon="4.36218">
        <ele>425.79998779297</ele>
        <time>2023-05-30T12:16:25.000Z</time>
      </trkpt>
      <trkpt lat="46.19245" lon="4.3627">
        <ele>425.79998779297</ele>
        <time>2023-05-30T12:16:35.000Z</time>
      </trkpt>
      <trkpt lat="46.19221" lon="4.36302">
        <ele>425.60000610352</ele>
        <time>2023-05-30T12:16:41.000Z</time>
      </trkpt>
      <trkpt lat="46.19182" lon="4.36352">
        <ele>425.39999389648</ele>
        <time>2023-05-30T12:16:51.000Z</time>
      </trkpt>
      <trkpt lat="46.19145" lon="4.36402">
        <ele>426</ele>
        <time>2023-05-30T12:17:01.000Z</time>
      </trkpt>
      <trkpt lat="46.19134" lon="4.36417">
        <ele>426.20001220703</ele>
        <time>2023-05-30T12:17:04.000Z</time>
      </trkpt>
      <trkpt lat="46.19121" lon="4.36439">
        <ele>426.39999389648</ele>
        <time>2023-05-30T12:17:08.000Z</time>
      </trkpt>
      <trkpt lat="46.19103" lon="4.36474">
        <ele>427.20001220703</ele>
        <time>2023-05-30T12:17:14.000Z</time>
      </trkpt>
      <trkpt lat="46.191" lon="4.3648">
        <ele>427.20001220703</ele>
        <time>2023-05-30T12:17:15.000Z</time>
      </trkpt>
      <trkpt lat="46.19084" lon="4.36515">
        <ele>427.60000610352</ele>
        <time>2023-05-30T12:17:21.000Z</time>
      </trkpt>
      <trkpt lat="46.19081" lon="4.36522">
        <ele>427.60000610352</ele>
        <time>2023-05-30T12:17:22.000Z</time>
      </trkpt>
      <trkpt lat="46.19074" lon="4.36539">
        <ele>428</ele>
        <time>2023-05-30T12:17:25.000Z</time>
      </trkpt>
      <trkpt lat="46.19069" lon="4.3655">
        <ele>428.20001220703</ele>
        <time>2023-05-30T12:17:27.000Z</time>
      </trkpt>
      <trkpt lat="46.19046" lon="4.36604">
        <ele>429</ele>
        <time>2023-05-30T12:17:36.000Z</time>
      </trkpt>
      <trkpt lat="46.19044" lon="4.3661">
        <ele>429.20001220703</ele>
        <time>2023-05-30T12:17:37.000Z</time>
      </trkpt>
      <trkpt lat="46.19024" lon="4.36655">
        <ele>430</ele>
        <time>2023-05-30T12:17:45.000Z</time>
      </trkpt>
      <trkpt lat="46.19016" lon="4.36672">
        <ele>430.60000610352</ele>
        <time>2023-05-30T12:17:48.000Z</time>
      </trkpt>
      <trkpt lat="46.19003" lon="4.367">
        <ele>431.20001220703</ele>
        <time>2023-05-30T12:17:53.000Z</time>
      </trkpt>
      <trkpt lat="46.18994" lon="4.36723">
        <ele>431.39999389648</ele>
        <time>2023-05-30T12:17:57.000Z</time>
      </trkpt>
      <trkpt lat="46.18973" lon="4.36769">
        <ele>432.20001220703</ele>
        <time>2023-05-30T12:18:05.000Z</time>
      </trkpt>
      <trkpt lat="46.18968" lon="4.36781">
        <ele>432.60000610352</ele>
        <time>2023-05-30T12:18:07.000Z</time>
      </trkpt>
      <trkpt lat="46.18938" lon="4.36846">
        <ele>433.20001220703</ele>
        <time>2023-05-30T12:18:18.000Z</time>
      </trkpt>
      <trkpt lat="46.18933" lon="4.36858">
        <ele>433.39999389648</ele>
        <time>2023-05-30T12:18:20.000Z</time>
      </trkpt>
      <trkpt lat="46.18912" lon="4.36903">
        <ele>434.39999389648</ele>
        <time>2023-05-30T12:18:28.000Z</time>
      </trkpt>
      <trkpt lat="46.18912" lon="4.36903">
        <ele>434.39999389648</ele>
        <time>2023-05-30T12:18:29.000Z</time>
      </trkpt>
      <trkpt lat="46.18883" lon="4.36977">
        <ele>435.20001220703</ele>
        <time>2023-05-30T12:18:40.000Z</time>
      </trkpt>
      <trkpt lat="46.18883" lon="4.36977">
        <ele>435.20001220703</ele>
        <time>2023-05-30T12:18:41.000Z</time>
      </trkpt>
      <trkpt lat="46.18862" lon="4.37056">
        <ele>436</ele>
        <time>2023-05-30T12:18:51.000Z</time>
      </trkpt>
      <trkpt lat="46.18862" lon="4.37056">
        <ele>435.79998779297</ele>
        <time>2023-05-30T12:18:52.000Z</time>
      </trkpt>
      <trkpt lat="46.1884" lon="4.37106">
        <ele>436</ele>
        <time>2023-05-30T12:18:59.000Z</time>
      </trkpt>
      <trkpt lat="46.1882" lon="4.37147">
        <ele>436.39999389648</ele>
        <time>2023-05-30T12:19:06.000Z</time>
      </trkpt>
      <trkpt lat="46.18818" lon="4.37152">
        <ele>436.39999389648</ele>
        <time>2023-05-30T12:19:07.000Z</time>
      </trkpt>
      <trkpt lat="46.18801" lon="4.37185">
        <ele>437.39999389648</ele>
        <time>2023-05-30T12:19:13.000Z</time>
      </trkpt>
      <trkpt lat="46.18794" lon="4.37199">
        <ele>437.79998779297</ele>
        <time>2023-05-30T12:19:16.000Z</time>
      </trkpt>
      <trkpt lat="46.18788" lon="4.37212">
        <ele>438.60000610352</ele>
        <time>2023-05-30T12:19:19.000Z</time>
      </trkpt>
      <trkpt lat="46.18781" lon="4.37225">
        <ele>439.20001220703</ele>
        <time>2023-05-30T12:19:22.000Z</time>
      </trkpt>
      <trkpt lat="46.18777" lon="4.37234">
        <ele>439.39999389648</ele>
        <time>2023-05-30T12:19:24.000Z</time>
      </trkpt>
      <trkpt lat="46.18766" lon="4.37256">
        <ele>440.60000610352</ele>
        <time>2023-05-30T12:19:29.000Z</time>
      </trkpt>
      <trkpt lat="46.18761" lon="4.37265">
        <ele>441</ele>
        <time>2023-05-30T12:19:31.000Z</time>
      </trkpt>
      <trkpt lat="46.18754" lon="4.37279">
        <ele>441.79998779297</ele>
        <time>2023-05-30T12:19:34.000Z</time>
      </trkpt>
      <trkpt lat="46.18744" lon="4.37306">
        <ele>442.79998779297</ele>
        <time>2023-05-30T12:19:39.000Z</time>
      </trkpt>
      <trkpt lat="46.18742" lon="4.37312">
        <ele>442.79998779297</ele>
        <time>2023-05-30T12:19:40.000Z</time>
      </trkpt>
      <trkpt lat="46.18734" lon="4.37332">
        <ele>442.79998779297</ele>
        <time>2023-05-30T12:19:44.000Z</time>
      </trkpt>
      <trkpt lat="46.18711" lon="4.37381">
        <ele>442</ele>
        <time>2023-05-30T12:19:50.000Z</time>
      </trkpt>
      <trkpt lat="46.18703" lon="4.37393">
        <ele>441.60000610352</ele>
        <time>2023-05-30T12:19:52.000Z</time>
      </trkpt>
      <trkpt lat="46.18683" lon="4.3742">
        <ele>441.39999389648</ele>
        <time>2023-05-30T12:19:57.000Z</time>
      </trkpt>
      <trkpt lat="46.18653" lon="4.37452">
        <ele>441.20001220703</ele>
        <time>2023-05-30T12:20:05.000Z</time>
      </trkpt>
      <trkpt lat="46.18608" lon="4.37502">
        <ele>441.60000610352</ele>
        <time>2023-05-30T12:20:15.000Z</time>
      </trkpt>
      <trkpt lat="46.18595" lon="4.37515">
        <ele>441.79998779297</ele>
        <time>2023-05-30T12:20:18.000Z</time>
      </trkpt>
      <trkpt lat="46.18552" lon="4.37562">
        <ele>442.20001220703</ele>
        <time>2023-05-30T12:20:29.000Z</time>
      </trkpt>
      <trkpt lat="46.18531" lon="4.37584">
        <ele>442.60000610352</ele>
        <time>2023-05-30T12:20:34.000Z</time>
      </trkpt>
      <trkpt lat="46.18509" lon="4.37606">
        <ele>443</ele>
        <time>2023-05-30T12:20:39.000Z</time>
      </trkpt>
      <trkpt lat="46.18467" lon="4.3765">
        <ele>443.79998779297</ele>
        <time>2023-05-30T12:20:49.000Z</time>
      </trkpt>
      <trkpt lat="46.18454" lon="4.37663">
        <ele>444.39999389648</ele>
        <time>2023-05-30T12:20:52.000Z</time>
      </trkpt>
      <trkpt lat="46.18433" lon="4.37685">
        <ele>444.79998779297</ele>
        <time>2023-05-30T12:20:57.000Z</time>
      </trkpt>
      <trkpt lat="46.1842" lon="4.37697">
        <ele>445.20001220703</ele>
        <time>2023-05-30T12:21:00.000Z</time>
      </trkpt>
      <trkpt lat="46.18383" lon="4.37723">
        <ele>446</ele>
        <time>2023-05-30T12:21:08.000Z</time>
      </trkpt>
      <trkpt lat="46.18364" lon="4.37737">
        <ele>446.20001220703</ele>
        <time>2023-05-30T12:21:12.000Z</time>
      </trkpt>
      <trkpt lat="46.18314" lon="4.37774">
        <ele>446.60000610352</ele>
        <time>2023-05-30T12:21:23.000Z</time>
      </trkpt>
      <trkpt lat="46.18299" lon="4.37784">
        <ele>446.79998779297</ele>
        <time>2023-05-30T12:21:26.000Z</time>
      </trkpt>
      <trkpt lat="46.18278" lon="4.37804">
        <ele>447.20001220703</ele>
        <time>2023-05-30T12:21:31.000Z</time>
      </trkpt>
      <trkpt lat="46.18263" lon="4.37833">
        <ele>447.79998779297</ele>
        <time>2023-05-30T12:21:36.000Z</time>
      </trkpt>
      <trkpt lat="46.18256" lon="4.37867">
        <ele>448.20001220703</ele>
        <time>2023-05-30T12:21:41.000Z</time>
      </trkpt>
      <trkpt lat="46.18255" lon="4.37895">
        <ele>448.79998779297</ele>
        <time>2023-05-30T12:21:46.000Z</time>
      </trkpt>
      <trkpt lat="46.18255" lon="4.37908">
        <ele>449</ele>
        <time>2023-05-30T12:21:47.000Z</time>
      </trkpt>
      <trkpt lat="46.18255" lon="4.37914">
        <ele>449.20001220703</ele>
        <time>2023-05-30T12:21:49.000Z</time>
      </trkpt>
      <trkpt lat="46.18255" lon="4.3792">
        <ele>449.20001220703</ele>
        <time>2023-05-30T12:21:50.000Z</time>
      </trkpt>
      <trkpt lat="46.18252" lon="4.37946">
        <ele>450</ele>
        <time>2023-05-30T12:21:54.000Z</time>
      </trkpt>
      <trkpt lat="46.18251" lon="4.37967">
        <ele>451.20001220703</ele>
        <time>2023-05-30T12:21:59.000Z</time>
      </trkpt>
      <trkpt lat="46.18249" lon="4.37986">
        <ele>452</ele>
        <time>2023-05-30T12:22:02.000Z</time>
      </trkpt>
      <trkpt lat="46.18248" lon="4.3799">
        <ele>452.20001220703</ele>
        <time>2023-05-30T12:22:03.000Z</time>
      </trkpt>
      <trkpt lat="46.18243" lon="4.38014">
        <ele>453.60000610352</ele>
        <time>2023-05-30T12:22:08.000Z</time>
      </trkpt>
      <trkpt lat="46.18238" lon="4.38029">
        <ele>454</ele>
        <time>2023-05-30T12:22:11.000Z</time>
      </trkpt>
      <trkpt lat="46.18229" lon="4.38057">
        <ele>454.60000610352</ele>
        <time>2023-05-30T12:22:16.000Z</time>
      </trkpt>
      <trkpt lat="46.18223" lon="4.38074">
        <ele>454.79998779297</ele>
        <time>2023-05-30T12:22:20.000Z</time>
      </trkpt>
      <trkpt lat="46.182" lon="4.38137">
        <ele>455.39999389648</ele>
        <time>2023-05-30T12:22:30.000Z</time>
      </trkpt>
      <trkpt lat="46.18197" lon="4.38142">
        <ele>455.39999389648</ele>
        <time>2023-05-30T12:22:31.000Z</time>
      </trkpt>
      <trkpt lat="46.18193" lon="4.38146">
        <ele>455.39999389648</ele>
        <time>2023-05-30T12:22:32.000Z</time>
      </trkpt>
      <trkpt lat="46.1819" lon="4.38151">
        <ele>455.60000610352</ele>
        <time>2023-05-30T12:22:33.000Z</time>
      </trkpt>
      <trkpt lat="46.18182" lon="4.38158">
        <ele>455.79998779297</ele>
        <time>2023-05-30T12:22:35.000Z</time>
      </trkpt>
      <trkpt lat="46.18178" lon="4.38162">
        <ele>456</ele>
        <time>2023-05-30T12:22:37.000Z</time>
      </trkpt>
      <trkpt lat="46.18173" lon="4.38164">
        <ele>455.79998779297</ele>
        <time>2023-05-30T12:22:38.000Z</time>
      </trkpt>
      <trkpt lat="46.18149" lon="4.38172">
        <ele>456.20001220703</ele>
        <time>2023-05-30T12:22:42.000Z</time>
      </trkpt>
      <trkpt lat="46.18135" lon="4.38179">
        <ele>456.39999389648</ele>
        <time>2023-05-30T12:22:45.000Z</time>
      </trkpt>
      <trkpt lat="46.18131" lon="4.38183">
        <ele>456.60000610352</ele>
        <time>2023-05-30T12:22:47.000Z</time>
      </trkpt>
      <trkpt lat="46.18127" lon="4.38187">
        <ele>456.60000610352</ele>
        <time>2023-05-30T12:22:48.000Z</time>
      </trkpt>
      <trkpt lat="46.18121" lon="4.38197">
        <ele>456.79998779297</ele>
        <time>2023-05-30T12:22:49.000Z</time>
      </trkpt>
      <trkpt lat="46.18116" lon="4.38209">
        <ele>456.79998779297</ele>
        <time>2023-05-30T12:22:51.000Z</time>
      </trkpt>
      <trkpt lat="46.18116" lon="4.38209">
        <ele>456.79998779297</ele>
        <time>2023-05-30T12:22:52.000Z</time>
      </trkpt>
      <trkpt lat="46.18106" lon="4.38257">
        <ele>457.39999389648</ele>
        <time>2023-05-30T12:22:58.000Z</time>
      </trkpt>
      <trkpt lat="46.18104" lon="4.38271">
        <ele>457.60000610352</ele>
        <time>2023-05-30T12:23:00.000Z</time>
      </trkpt>
      <trkpt lat="46.18095" lon="4.38297">
        <ele>458</ele>
        <time>2023-05-30T12:23:04.000Z</time>
      </trkpt>
      <trkpt lat="46.18087" lon="4.38315">
        <ele>458</ele>
        <time>2023-05-30T12:23:07.000Z</time>
      </trkpt>
      <trkpt lat="46.1808" lon="4.38326">
        <ele>458</ele>
        <time>2023-05-30T12:23:09.000Z</time>
      </trkpt>
      <trkpt lat="46.18073" lon="4.38337">
        <ele>458</ele>
        <time>2023-05-30T12:23:11.000Z</time>
      </trkpt>
      <trkpt lat="46.18064" lon="4.38346">
        <ele>458</ele>
        <time>2023-05-30T12:23:13.000Z</time>
      </trkpt>
      <trkpt lat="46.18023" lon="4.38377">
        <ele>457.79998779297</ele>
        <time>2023-05-30T12:23:22.000Z</time>
      </trkpt>
      <trkpt lat="46.17993" lon="4.38401">
        <ele>458.39999389648</ele>
        <time>2023-05-30T12:23:30.000Z</time>
      </trkpt>
      <trkpt lat="46.17989" lon="4.38405">
        <ele>458.39999389648</ele>
        <time>2023-05-30T12:23:31.000Z</time>
      </trkpt>
      <trkpt lat="46.17953" lon="4.38432">
        <ele>459.60000610352</ele>
        <time>2023-05-30T12:23:40.000Z</time>
      </trkpt>
      <trkpt lat="46.17913" lon="4.38461">
        <ele>460.60000610352</ele>
        <time>2023-05-30T12:23:51.000Z</time>
      </trkpt>
      <trkpt lat="46.17891" lon="4.38476">
        <ele>461.79998779297</ele>
        <time>2023-05-30T12:23:58.000Z</time>
      </trkpt>
      <trkpt lat="46.17884" lon="4.38479">
        <ele>462.20001220703</ele>
        <time>2023-05-30T12:24:00.000Z</time>
      </trkpt>
      <trkpt lat="46.17875" lon="4.38486">
        <ele>463.20001220703</ele>
        <time>2023-05-30T12:24:03.000Z</time>
      </trkpt>
      <trkpt lat="46.1786" lon="4.38496">
        <ele>463.79998779297</ele>
        <time>2023-05-30T12:24:08.000Z</time>
      </trkpt>
      <trkpt lat="46.17847" lon="4.38504">
        <ele>464.39999389648</ele>
        <time>2023-05-30T12:24:12.000Z</time>
      </trkpt>
      <trkpt lat="46.17835" lon="4.38512">
        <ele>464.79998779297</ele>
        <time>2023-05-30T12:24:17.000Z</time>
      </trkpt>
      <trkpt lat="46.17824" lon="4.38521">
        <ele>465.39999389648</ele>
        <time>2023-05-30T12:24:20.000Z</time>
      </trkpt>
      <trkpt lat="46.1781" lon="4.38533">
        <ele>466.39999389648</ele>
        <time>2023-05-30T12:24:25.000Z</time>
      </trkpt>
      <trkpt lat="46.17807" lon="4.38536">
        <ele>466.39999389648</ele>
        <time>2023-05-30T12:24:26.000Z</time>
      </trkpt>
      <trkpt lat="46.17791" lon="4.38552">
        <ele>467.79998779297</ele>
        <time>2023-05-30T12:24:32.000Z</time>
      </trkpt>
      <trkpt lat="46.17788" lon="4.38555">
        <ele>468</ele>
        <time>2023-05-30T12:24:33.000Z</time>
      </trkpt>
      <trkpt lat="46.17774" lon="4.3857">
        <ele>468.79998779297</ele>
        <time>2023-05-30T12:24:39.000Z</time>
      </trkpt>
      <trkpt lat="46.17763" lon="4.38583">
        <ele>469.79998779297</ele>
        <time>2023-05-30T12:24:44.000Z</time>
      </trkpt>
      <trkpt lat="46.17752" lon="4.38594">
        <ele>470.79998779297</ele>
        <time>2023-05-30T12:24:48.000Z</time>
      </trkpt>
      <trkpt lat="46.1774" lon="4.38605">
        <ele>471.39999389648</ele>
        <time>2023-05-30T12:24:52.000Z</time>
      </trkpt>
      <trkpt lat="46.17727" lon="4.38618">
        <ele>471.79998779297</ele>
        <time>2023-05-30T12:24:56.000Z</time>
      </trkpt>
      <trkpt lat="46.17715" lon="4.38631">
        <ele>473</ele>
        <time>2023-05-30T12:25:00.000Z</time>
      </trkpt>
      <trkpt lat="46.1769" lon="4.38656">
        <ele>474</ele>
        <time>2023-05-30T12:25:08.000Z</time>
      </trkpt>
      <trkpt lat="46.17683" lon="4.38662">
        <ele>474.20001220703</ele>
        <time>2023-05-30T12:25:10.000Z</time>
      </trkpt>
      <trkpt lat="46.17654" lon="4.38683">
        <ele>474.79998779297</ele>
        <time>2023-05-30T12:25:18.000Z</time>
      </trkpt>
      <trkpt lat="46.17646" lon="4.38689">
        <ele>474.79998779297</ele>
        <time>2023-05-30T12:25:20.000Z</time>
      </trkpt>
      <trkpt lat="46.17632" lon="4.38695">
        <ele>475</ele>
        <time>2023-05-30T12:25:23.000Z</time>
      </trkpt>
      <trkpt lat="46.17623" lon="4.38701">
        <ele>475</ele>
        <time>2023-05-30T12:25:25.000Z</time>
      </trkpt>
      <trkpt lat="46.17589" lon="4.3872">
        <ele>474.79998779297</ele>
        <time>2023-05-30T12:25:32.000Z</time>
      </trkpt>
      <trkpt lat="46.17555" lon="4.38747">
        <ele>475</ele>
        <time>2023-05-30T12:25:39.000Z</time>
      </trkpt>
      <trkpt lat="46.17523" lon="4.38778">
        <ele>475</ele>
        <time>2023-05-30T12:25:46.000Z</time>
      </trkpt>
      <trkpt lat="46.17486" lon="4.38819">
        <ele>474.39999389648</ele>
        <time>2023-05-30T12:25:54.000Z</time>
      </trkpt>
      <trkpt lat="46.17459" lon="4.3886">
        <ele>474</ele>
        <time>2023-05-30T12:26:01.000Z</time>
      </trkpt>
      <trkpt lat="46.17439" lon="4.38908">
        <ele>474.60000610352</ele>
        <time>2023-05-30T12:26:09.000Z</time>
      </trkpt>
      <trkpt lat="46.17425" lon="4.38935">
        <ele>475</ele>
        <time>2023-05-30T12:26:13.000Z</time>
      </trkpt>
      <trkpt lat="46.17419" lon="4.38943">
        <ele>475.20001220703</ele>
        <time>2023-05-30T12:26:15.000Z</time>
      </trkpt>
      <trkpt lat="46.17408" lon="4.38947">
        <ele>475.20001220703</ele>
        <time>2023-05-30T12:26:20.000Z</time>
      </trkpt>
      <trkpt lat="46.17408" lon="4.38947">
        <ele>475.20001220703</ele>
        <time>2023-05-30T12:26:23.000Z</time>
      </trkpt>
      <trkpt lat="46.17407" lon="4.38952">
        <ele>475.20001220703</ele>
        <time>2023-05-30T12:37:53.000Z</time>
      </trkpt>
      <trkpt lat="46.17406" lon="4.38954">
        <ele>475.20001220703</ele>
        <time>2023-05-30T12:37:54.000Z</time>
      </trkpt>
      <trkpt lat="46.17395" lon="4.38972">
        <ele>475.60000610352</ele>
        <time>2023-05-30T12:38:01.000Z</time>
      </trkpt>
      <trkpt lat="46.1738" lon="4.38987">
        <ele>475.60000610352</ele>
        <time>2023-05-30T12:38:06.000Z</time>
      </trkpt>
      <trkpt lat="46.17366" lon="4.39005">
        <ele>475.79998779297</ele>
        <time>2023-05-30T12:38:11.000Z</time>
      </trkpt>
      <trkpt lat="46.17356" lon="4.39024">
        <ele>476</ele>
        <time>2023-05-30T12:38:15.000Z</time>
      </trkpt>
      <trkpt lat="46.17352" lon="4.39037">
        <ele>476.60000610352</ele>
        <time>2023-05-30T12:38:18.000Z</time>
      </trkpt>
      <trkpt lat="46.17346" lon="4.39062">
        <ele>477</ele>
        <time>2023-05-30T12:38:23.000Z</time>
      </trkpt>
      <trkpt lat="46.17345" lon="4.39067">
        <ele>477.20001220703</ele>
        <time>2023-05-30T12:38:24.000Z</time>
      </trkpt>
      <trkpt lat="46.1734" lon="4.39091">
        <ele>478.20001220703</ele>
        <time>2023-05-30T12:38:29.000Z</time>
      </trkpt>
      <trkpt lat="46.17339" lon="4.39101">
        <ele>478.60000610352</ele>
        <time>2023-05-30T12:38:31.000Z</time>
      </trkpt>
      <trkpt lat="46.17338" lon="4.39122">
        <ele>479.39999389648</ele>
        <time>2023-05-30T12:38:35.000Z</time>
      </trkpt>
      <trkpt lat="46.17336" lon="4.39136">
        <ele>479.79998779297</ele>
        <time>2023-05-30T12:38:38.000Z</time>
      </trkpt>
      <trkpt lat="46.17333" lon="4.3915">
        <ele>480.20001220703</ele>
        <time>2023-05-30T12:38:41.000Z</time>
      </trkpt>
      <trkpt lat="46.17328" lon="4.39163">
        <ele>480.60000610352</ele>
        <time>2023-05-30T12:38:44.000Z</time>
      </trkpt>
      <trkpt lat="46.1732" lon="4.39183">
        <ele>481.20001220703</ele>
        <time>2023-05-30T12:38:48.000Z</time>
      </trkpt>
      <trkpt lat="46.17312" lon="4.39202">
        <ele>481.39999389648</ele>
        <time>2023-05-30T12:38:52.000Z</time>
      </trkpt>
      <trkpt lat="46.17297" lon="4.39236">
        <ele>482.39999389648</ele>
        <time>2023-05-30T12:38:59.000Z</time>
      </trkpt>
      <trkpt lat="46.17292" lon="4.39246">
        <ele>482.60000610352</ele>
        <time>2023-05-30T12:39:01.000Z</time>
      </trkpt>
      <trkpt lat="46.17277" lon="4.39281">
        <ele>483.20001220703</ele>
        <time>2023-05-30T12:39:09.000Z</time>
      </trkpt>
      <trkpt lat="46.17274" lon="4.39285">
        <ele>483.60000610352</ele>
        <time>2023-05-30T12:39:10.000Z</time>
      </trkpt>
      <trkpt lat="46.17271" lon="4.3929">
        <ele>483.79998779297</ele>
        <time>2023-05-30T12:39:11.000Z</time>
      </trkpt>
      <trkpt lat="46.17263" lon="4.39302">
        <ele>484</ele>
        <time>2023-05-30T12:39:14.000Z</time>
      </trkpt>
      <trkpt lat="46.17242" lon="4.39335">
        <ele>484.39999389648</ele>
        <time>2023-05-30T12:39:22.000Z</time>
      </trkpt>
      <trkpt lat="46.17236" lon="4.39344">
        <ele>484.60000610352</ele>
        <time>2023-05-30T12:39:24.000Z</time>
      </trkpt>
      <trkpt lat="46.17214" lon="4.39365">
        <ele>484.79998779297</ele>
        <time>2023-05-30T12:39:30.000Z</time>
      </trkpt>
      <trkpt lat="46.17183" lon="4.39389">
        <ele>485</ele>
        <time>2023-05-30T12:39:38.000Z</time>
      </trkpt>
      <trkpt lat="46.17172" lon="4.394">
        <ele>485.60000610352</ele>
        <time>2023-05-30T12:39:42.000Z</time>
      </trkpt>
      <trkpt lat="46.17169" lon="4.39402">
        <ele>485.79998779297</ele>
        <time>2023-05-30T12:39:43.000Z</time>
      </trkpt>
      <trkpt lat="46.17156" lon="4.39415">
        <ele>486.79998779297</ele>
        <time>2023-05-30T12:39:48.000Z</time>
      </trkpt>
      <trkpt lat="46.17153" lon="4.39419">
        <ele>486.79998779297</ele>
        <time>2023-05-30T12:39:49.000Z</time>
      </trkpt>
      <trkpt lat="46.17151" lon="4.39422">
        <ele>487</ele>
        <time>2023-05-30T12:39:50.000Z</time>
      </trkpt>
      <trkpt lat="46.17141" lon="4.39437">
        <ele>488</ele>
        <time>2023-05-30T12:39:55.000Z</time>
      </trkpt>
      <trkpt lat="46.17134" lon="4.39446">
        <ele>488.39999389648</ele>
        <time>2023-05-30T12:39:58.000Z</time>
      </trkpt>
      <trkpt lat="46.17129" lon="4.39452">
        <ele>488.79998779297</ele>
        <time>2023-05-30T12:40:00.000Z</time>
      </trkpt>
      <trkpt lat="46.17118" lon="4.3947">
        <ele>490</ele>
        <time>2023-05-30T12:40:06.000Z</time>
      </trkpt>
      <trkpt lat="46.17113" lon="4.39475">
        <ele>490.39999389648</ele>
        <time>2023-05-30T12:40:08.000Z</time>
      </trkpt>
      <trkpt lat="46.17103" lon="4.39486">
        <ele>491</ele>
        <time>2023-05-30T12:40:12.000Z</time>
      </trkpt>
      <trkpt lat="46.17095" lon="4.39494">
        <ele>492</ele>
        <time>2023-05-30T12:40:15.000Z</time>
      </trkpt>
      <trkpt lat="46.17093" lon="4.39496">
        <ele>492</ele>
        <time>2023-05-30T12:40:16.000Z</time>
      </trkpt>
      <trkpt lat="46.17082" lon="4.39506">
        <ele>493.20001220703</ele>
        <time>2023-05-30T12:40:20.000Z</time>
      </trkpt>
      <trkpt lat="46.17066" lon="4.39518">
        <ele>494.20001220703</ele>
        <time>2023-05-30T12:40:26.000Z</time>
      </trkpt>
      <trkpt lat="46.17064" lon="4.3952">
        <ele>494.39999389648</ele>
        <time>2023-05-30T12:40:27.000Z</time>
      </trkpt>
      <trkpt lat="46.17058" lon="4.39524">
        <ele>494.60000610352</ele>
        <time>2023-05-30T12:40:29.000Z</time>
      </trkpt>
      <trkpt lat="46.17046" lon="4.39535">
        <ele>495.20001220703</ele>
        <time>2023-05-30T12:40:34.000Z</time>
      </trkpt>
      <trkpt lat="46.17044" lon="4.39538">
        <ele>495.39999389648</ele>
        <time>2023-05-30T12:40:35.000Z</time>
      </trkpt>
      <trkpt lat="46.17037" lon="4.39549">
        <ele>496.39999389648</ele>
        <time>2023-05-30T12:40:39.000Z</time>
      </trkpt>
      <trkpt lat="46.17035" lon="4.39556">
        <ele>497</ele>
        <time>2023-05-30T12:40:41.000Z</time>
      </trkpt>
      <trkpt lat="46.17033" lon="4.39569">
        <ele>497.60000610352</ele>
        <time>2023-05-30T12:40:44.000Z</time>
      </trkpt>
      <trkpt lat="46.17031" lon="4.39577">
        <ele>497.79998779297</ele>
        <time>2023-05-30T12:40:46.000Z</time>
      </trkpt>
      <trkpt lat="46.17029" lon="4.39579">
        <ele>498</ele>
        <time>2023-05-30T12:40:47.000Z</time>
      </trkpt>
      <trkpt lat="46.17028" lon="4.3958">
        <ele>498</ele>
        <time>2023-05-30T12:40:48.000Z</time>
      </trkpt>
      <trkpt lat="46.17029" lon="4.39583">
        <ele>498.20001220703</ele>
        <time>2023-05-30T12:40:50.000Z</time>
      </trkpt>
      <trkpt lat="46.17029" lon="4.39584">
        <ele>498.39999389648</ele>
        <time>2023-05-30T12:40:51.000Z</time>
      </trkpt>
      <trkpt lat="46.17028" lon="4.39587">
        <ele>498.60000610352</ele>
        <time>2023-05-30T12:40:52.000Z</time>
      </trkpt>
      <trkpt lat="46.17028" lon="4.39591">
        <ele>499</ele>
        <time>2023-05-30T12:40:53.000Z</time>
      </trkpt>
      <trkpt lat="46.17026" lon="4.39595">
        <ele>499.20001220703</ele>
        <time>2023-05-30T12:40:54.000Z</time>
      </trkpt>
      <trkpt lat="46.1702" lon="4.39607">
        <ele>499.60000610352</ele>
        <time>2023-05-30T12:40:57.000Z</time>
      </trkpt>
      <trkpt lat="46.17014" lon="4.39617">
        <ele>500</ele>
        <time>2023-05-30T12:41:00.000Z</time>
      </trkpt>
      <trkpt lat="46.17008" lon="4.39628">
        <ele>500.60000610352</ele>
        <time>2023-05-30T12:41:03.000Z</time>
      </trkpt>
      <trkpt lat="46.16998" lon="4.39645">
        <ele>502</ele>
        <time>2023-05-30T12:41:08.000Z</time>
      </trkpt>
      <trkpt lat="46.16988" lon="4.39663">
        <ele>503</ele>
        <time>2023-05-30T12:41:13.000Z</time>
      </trkpt>
      <trkpt lat="46.16982" lon="4.39675">
        <ele>503.60000610352</ele>
        <time>2023-05-30T12:41:16.000Z</time>
      </trkpt>
      <trkpt lat="46.1698" lon="4.39683">
        <ele>504</ele>
        <time>2023-05-30T12:41:18.000Z</time>
      </trkpt>
      <trkpt lat="46.16976" lon="4.39696">
        <ele>504.79998779297</ele>
        <time>2023-05-30T12:41:21.000Z</time>
      </trkpt>
      <trkpt lat="46.16975" lon="4.397">
        <ele>504.79998779297</ele>
        <time>2023-05-30T12:41:22.000Z</time>
      </trkpt>
      <trkpt lat="46.16974" lon="4.39719">
        <ele>506.20001220703</ele>
        <time>2023-05-30T12:41:27.000Z</time>
      </trkpt>
      <trkpt lat="46.16974" lon="4.39728">
        <ele>506.39999389648</ele>
        <time>2023-05-30T12:41:29.000Z</time>
      </trkpt>
      <trkpt lat="46.16974" lon="4.39749">
        <ele>507.39999389648</ele>
        <time>2023-05-30T12:41:34.000Z</time>
      </trkpt>
      <trkpt lat="46.16975" lon="4.39756">
        <ele>507.60000610352</ele>
        <time>2023-05-30T12:41:36.000Z</time>
      </trkpt>
      <trkpt lat="46.16976" lon="4.39772">
        <ele>508.39999389648</ele>
        <time>2023-05-30T12:41:41.000Z</time>
      </trkpt>
      <trkpt lat="46.16976" lon="4.39797">
        <ele>509.60000610352</ele>
        <time>2023-05-30T12:41:48.000Z</time>
      </trkpt>
      <trkpt lat="46.16976" lon="4.398">
        <ele>509.60000610352</ele>
        <time>2023-05-30T12:41:49.000Z</time>
      </trkpt>
      <trkpt lat="46.16975" lon="4.39822">
        <ele>510.79998779297</ele>
        <time>2023-05-30T12:41:55.000Z</time>
      </trkpt>
      <trkpt lat="46.16975" lon="4.39829">
        <ele>511.39999389648</ele>
        <time>2023-05-30T12:41:57.000Z</time>
      </trkpt>
      <trkpt lat="46.16974" lon="4.39835">
        <ele>512</ele>
        <time>2023-05-30T12:41:59.000Z</time>
      </trkpt>
      <trkpt lat="46.16974" lon="4.39849">
        <ele>513</ele>
        <time>2023-05-30T12:42:03.000Z</time>
      </trkpt>
      <trkpt lat="46.16974" lon="4.39852">
        <ele>513.20001220703</ele>
        <time>2023-05-30T12:42:04.000Z</time>
      </trkpt>
      <trkpt lat="46.16973" lon="4.39875">
        <ele>514.40002441406</ele>
        <time>2023-05-30T12:42:10.000Z</time>
      </trkpt>
      <trkpt lat="46.16974" lon="4.39896">
        <ele>515.40002441406</ele>
        <time>2023-05-30T12:42:16.000Z</time>
      </trkpt>
      <trkpt lat="46.16974" lon="4.399">
        <ele>515.59997558594</ele>
        <time>2023-05-30T12:42:17.000Z</time>
      </trkpt>
      <trkpt lat="46.16981" lon="4.39923">
        <ele>516.59997558594</ele>
        <time>2023-05-30T12:42:24.000Z</time>
      </trkpt>
      <trkpt lat="46.16982" lon="4.39927">
        <ele>516.79998779297</ele>
        <time>2023-05-30T12:42:25.000Z</time>
      </trkpt>
      <trkpt lat="46.16988" lon="4.3994">
        <ele>517.59997558594</ele>
        <time>2023-05-30T12:42:29.000Z</time>
      </trkpt>
      <trkpt lat="46.16993" lon="4.39953">
        <ele>518.40002441406</ele>
        <time>2023-05-30T12:42:33.000Z</time>
      </trkpt>
      <trkpt lat="46.16996" lon="4.39959">
        <ele>519</ele>
        <time>2023-05-30T12:42:35.000Z</time>
      </trkpt>
      <trkpt lat="46.17" lon="4.39976">
        <ele>520</ele>
        <time>2023-05-30T12:42:40.000Z</time>
      </trkpt>
      <trkpt lat="46.17" lon="4.3998">
        <ele>520</ele>
        <time>2023-05-30T12:42:41.000Z</time>
      </trkpt>
      <trkpt lat="46.16999" lon="4.39994">
        <ele>521</ele>
        <time>2023-05-30T12:42:45.000Z</time>
      </trkpt>
      <trkpt lat="46.16998" lon="4.4">
        <ele>521.20001220703</ele>
        <time>2023-05-30T12:42:47.000Z</time>
      </trkpt>
      <trkpt lat="46.16995" lon="4.40014">
        <ele>522.20001220703</ele>
        <time>2023-05-30T12:42:51.000Z</time>
      </trkpt>
      <trkpt lat="46.1699" lon="4.40031">
        <ele>523.20001220703</ele>
        <time>2023-05-30T12:42:56.000Z</time>
      </trkpt>
      <trkpt lat="46.16985" lon="4.40056">
        <ele>524.59997558594</ele>
        <time>2023-05-30T12:43:03.000Z</time>
      </trkpt>
      <trkpt lat="46.16984" lon="4.40079">
        <ele>525.59997558594</ele>
        <time>2023-05-30T12:43:10.000Z</time>
      </trkpt>
      <trkpt lat="46.16984" lon="4.40082">
        <ele>525.79998779297</ele>
        <time>2023-05-30T12:43:11.000Z</time>
      </trkpt>
      <trkpt lat="46.16985" lon="4.40101">
        <ele>527</ele>
        <time>2023-05-30T12:43:16.000Z</time>
      </trkpt>
      <trkpt lat="46.16988" lon="4.40114">
        <ele>527.59997558594</ele>
        <time>2023-05-30T12:43:20.000Z</time>
      </trkpt>
      <trkpt lat="46.1699" lon="4.40127">
        <ele>528</ele>
        <time>2023-05-30T12:43:24.000Z</time>
      </trkpt>
      <trkpt lat="46.16994" lon="4.40139">
        <ele>529</ele>
        <time>2023-05-30T12:43:28.000Z</time>
      </trkpt>
      <trkpt lat="46.16995" lon="4.40142">
        <ele>529</ele>
        <time>2023-05-30T12:43:29.000Z</time>
      </trkpt>
      <trkpt lat="46.17002" lon="4.40161">
        <ele>530.20001220703</ele>
        <time>2023-05-30T12:43:35.000Z</time>
      </trkpt>
      <trkpt lat="46.17007" lon="4.4017">
        <ele>530.79998779297</ele>
        <time>2023-05-30T12:43:38.000Z</time>
      </trkpt>
      <trkpt lat="46.17014" lon="4.40178">
        <ele>531.40002441406</ele>
        <time>2023-05-30T12:43:41.000Z</time>
      </trkpt>
      <trkpt lat="46.17022" lon="4.40186">
        <ele>532.20001220703</ele>
        <time>2023-05-30T12:43:45.000Z</time>
      </trkpt>
      <trkpt lat="46.17027" lon="4.4019">
        <ele>532.40002441406</ele>
        <time>2023-05-30T12:43:47.000Z</time>
      </trkpt>
      <trkpt lat="46.17034" lon="4.40196">
        <ele>533</ele>
        <time>2023-05-30T12:43:50.000Z</time>
      </trkpt>
      <trkpt lat="46.17034" lon="4.40196">
        <ele>533</ele>
        <time>2023-05-30T12:43:51.000Z</time>
      </trkpt>
      <trkpt lat="46.17048" lon="4.40206">
        <ele>533.40002441406</ele>
        <time>2023-05-30T12:43:56.000Z</time>
      </trkpt>
      <trkpt lat="46.17057" lon="4.40212">
        <ele>534.40002441406</ele>
        <time>2023-05-30T12:44:00.000Z</time>
      </trkpt>
      <trkpt lat="46.17061" lon="4.40215">
        <ele>534.59997558594</ele>
        <time>2023-05-30T12:44:02.000Z</time>
      </trkpt>
      <trkpt lat="46.1708" lon="4.40229">
        <ele>535.79998779297</ele>
        <time>2023-05-30T12:44:10.000Z</time>
      </trkpt>
      <trkpt lat="46.17084" lon="4.40232">
        <ele>536</ele>
        <time>2023-05-30T12:44:12.000Z</time>
      </trkpt>
      <trkpt lat="46.17091" lon="4.40237">
        <ele>536.40002441406</ele>
        <time>2023-05-30T12:44:15.000Z</time>
      </trkpt>
      <trkpt lat="46.17096" lon="4.4024">
        <ele>536.79998779297</ele>
        <time>2023-05-30T12:44:17.000Z</time>
      </trkpt>
      <trkpt lat="46.17111" lon="4.40252">
        <ele>537.79998779297</ele>
        <time>2023-05-30T12:44:24.000Z</time>
      </trkpt>
      <trkpt lat="46.17114" lon="4.40254">
        <ele>538</ele>
        <time>2023-05-30T12:44:25.000Z</time>
      </trkpt>
      <trkpt lat="46.17125" lon="4.40261">
        <ele>539.20001220703</ele>
        <time>2023-05-30T12:44:30.000Z</time>
      </trkpt>
      <trkpt lat="46.17138" lon="4.40271">
        <ele>540.20001220703</ele>
        <time>2023-05-30T12:44:36.000Z</time>
      </trkpt>
      <trkpt lat="46.17143" lon="4.40274">
        <ele>540.59997558594</ele>
        <time>2023-05-30T12:44:38.000Z</time>
      </trkpt>
      <trkpt lat="46.17157" lon="4.40283">
        <ele>541.20001220703</ele>
        <time>2023-05-30T12:44:44.000Z</time>
      </trkpt>
      <trkpt lat="46.17161" lon="4.40286">
        <ele>541.59997558594</ele>
        <time>2023-05-30T12:44:46.000Z</time>
      </trkpt>
      <trkpt lat="46.17172" lon="4.40294">
        <ele>542.59997558594</ele>
        <time>2023-05-30T12:44:52.000Z</time>
      </trkpt>
      <trkpt lat="46.17177" lon="4.40298">
        <ele>543</ele>
        <time>2023-05-30T12:44:54.000Z</time>
      </trkpt>
      <trkpt lat="46.17192" lon="4.40308">
        <ele>543.79998779297</ele>
        <time>2023-05-30T12:45:00.000Z</time>
      </trkpt>
      <trkpt lat="46.17196" lon="4.40311">
        <ele>544</ele>
        <time>2023-05-30T12:45:02.000Z</time>
      </trkpt>
      <trkpt lat="46.17201" lon="4.40315">
        <ele>544.20001220703</ele>
        <time>2023-05-30T12:45:04.000Z</time>
      </trkpt>
      <trkpt lat="46.17212" lon="4.40323">
        <ele>545</ele>
        <time>2023-05-30T12:45:09.000Z</time>
      </trkpt>
      <trkpt lat="46.17222" lon="4.40329">
        <ele>545.79998779297</ele>
        <time>2023-05-30T12:45:13.000Z</time>
      </trkpt>
      <trkpt lat="46.17224" lon="4.40331">
        <ele>546</ele>
        <time>2023-05-30T12:45:14.000Z</time>
      </trkpt>
      <trkpt lat="46.17238" lon="4.40342">
        <ele>547.20001220703</ele>
        <time>2023-05-30T12:45:20.000Z</time>
      </trkpt>
      <trkpt lat="46.1724" lon="4.40343">
        <ele>547.40002441406</ele>
        <time>2023-05-30T12:45:21.000Z</time>
      </trkpt>
      <trkpt lat="46.17252" lon="4.40352">
        <ele>548.20001220703</ele>
        <time>2023-05-30T12:45:26.000Z</time>
      </trkpt>
      <trkpt lat="46.17261" lon="4.40359">
        <ele>549.20001220703</ele>
        <time>2023-05-30T12:45:30.000Z</time>
      </trkpt>
      <trkpt lat="46.17263" lon="4.40361">
        <ele>549.20001220703</ele>
        <time>2023-05-30T12:45:31.000Z</time>
      </trkpt>
      <trkpt lat="46.17284" lon="4.40374">
        <ele>550.40002441406</ele>
        <time>2023-05-30T12:45:40.000Z</time>
      </trkpt>
      <trkpt lat="46.17286" lon="4.40376">
        <ele>550.59997558594</ele>
        <time>2023-05-30T12:45:41.000Z</time>
      </trkpt>
      <trkpt lat="46.17299" lon="4.40386">
        <ele>551.40002441406</ele>
        <time>2023-05-30T12:45:47.000Z</time>
      </trkpt>
      <trkpt lat="46.17301" lon="4.40387">
        <ele>551.59997558594</ele>
        <time>2023-05-30T12:45:48.000Z</time>
      </trkpt>
      <trkpt lat="46.17314" lon="4.40394">
        <ele>552.59997558594</ele>
        <time>2023-05-30T12:45:53.000Z</time>
      </trkpt>
      <trkpt lat="46.17324" lon="4.40399">
        <ele>553.40002441406</ele>
        <time>2023-05-30T12:45:57.000Z</time>
      </trkpt>
      <trkpt lat="46.1733" lon="4.404">
        <ele>553.79998779297</ele>
        <time>2023-05-30T12:45:59.000Z</time>
      </trkpt>
      <trkpt lat="46.1735" lon="4.40401">
        <ele>554.40002441406</ele>
        <time>2023-05-30T12:46:06.000Z</time>
      </trkpt>
      <trkpt lat="46.1736" lon="4.40401">
        <ele>554.79998779297</ele>
        <time>2023-05-30T12:46:09.000Z</time>
      </trkpt>
      <trkpt lat="46.17376" lon="4.404">
        <ele>555.40002441406</ele>
        <time>2023-05-30T12:46:15.000Z</time>
      </trkpt>
      <trkpt lat="46.17391" lon="4.404">
        <ele>555.79998779297</ele>
        <time>2023-05-30T12:46:21.000Z</time>
      </trkpt>
      <trkpt lat="46.17396" lon="4.40401">
        <ele>556</ele>
        <time>2023-05-30T12:46:23.000Z</time>
      </trkpt>
      <trkpt lat="46.17414" lon="4.40402">
        <ele>557</ele>
        <time>2023-05-30T12:46:29.000Z</time>
      </trkpt>
      <trkpt lat="46.17425" lon="4.40405">
        <ele>557.59997558594</ele>
        <time>2023-05-30T12:46:32.000Z</time>
      </trkpt>
      <trkpt lat="46.17438" lon="4.40411">
        <ele>558.20001220703</ele>
        <time>2023-05-30T12:46:36.000Z</time>
      </trkpt>
      <trkpt lat="46.17452" lon="4.40417">
        <ele>559</ele>
        <time>2023-05-30T12:46:40.000Z</time>
      </trkpt>
      <trkpt lat="46.17463" lon="4.40423">
        <ele>559.20001220703</ele>
        <time>2023-05-30T12:46:43.000Z</time>
      </trkpt>
      <trkpt lat="46.1748" lon="4.40436">
        <ele>560</ele>
        <time>2023-05-30T12:46:49.000Z</time>
      </trkpt>
      <trkpt lat="46.17483" lon="4.40438">
        <ele>560.20001220703</ele>
        <time>2023-05-30T12:46:50.000Z</time>
      </trkpt>
      <trkpt lat="46.1751" lon="4.40458">
        <ele>561.40002441406</ele>
        <time>2023-05-30T12:47:00.000Z</time>
      </trkpt>
      <trkpt lat="46.17532" lon="4.40468">
        <ele>562.59997558594</ele>
        <time>2023-05-30T12:47:08.000Z</time>
      </trkpt>
      <trkpt lat="46.17534" lon="4.40469">
        <ele>562.79998779297</ele>
        <time>2023-05-30T12:47:09.000Z</time>
      </trkpt>
      <trkpt lat="46.1756" lon="4.40469">
        <ele>563.59997558594</ele>
        <time>2023-05-30T12:47:18.000Z</time>
      </trkpt>
      <trkpt lat="46.17585" lon="4.40461">
        <ele>564.40002441406</ele>
        <time>2023-05-30T12:47:26.000Z</time>
      </trkpt>
      <trkpt lat="46.17595" lon="4.40458">
        <ele>564.59997558594</ele>
        <time>2023-05-30T12:47:29.000Z</time>
      </trkpt>
      <trkpt lat="46.17608" lon="4.40453">
        <ele>564.79998779297</ele>
        <time>2023-05-30T12:47:33.000Z</time>
      </trkpt>
      <trkpt lat="46.17633" lon="4.40444">
        <ele>565.59997558594</ele>
        <time>2023-05-30T12:47:41.000Z</time>
      </trkpt>
      <trkpt lat="46.1764" lon="4.40442">
        <ele>566</ele>
        <time>2023-05-30T12:47:43.000Z</time>
      </trkpt>
      <trkpt lat="46.17656" lon="4.40439">
        <ele>566.79998779297</ele>
        <time>2023-05-30T12:47:48.000Z</time>
      </trkpt>
      <trkpt lat="46.17663" lon="4.40438">
        <ele>567</ele>
        <time>2023-05-30T12:47:50.000Z</time>
      </trkpt>
      <trkpt lat="46.17685" lon="4.4044">
        <ele>567.79998779297</ele>
        <time>2023-05-30T12:47:57.000Z</time>
      </trkpt>
      <trkpt lat="46.17694" lon="4.40443">
        <ele>568</ele>
        <time>2023-05-30T12:48:00.000Z</time>
      </trkpt>
      <trkpt lat="46.17715" lon="4.40456">
        <ele>568.79998779297</ele>
        <time>2023-05-30T12:48:07.000Z</time>
      </trkpt>
      <trkpt lat="46.17718" lon="4.40458">
        <ele>569</ele>
        <time>2023-05-30T12:48:08.000Z</time>
      </trkpt>
      <trkpt lat="46.1773" lon="4.40473">
        <ele>569.79998779297</ele>
        <time>2023-05-30T12:48:13.000Z</time>
      </trkpt>
      <trkpt lat="46.17736" lon="4.40482">
        <ele>570.40002441406</ele>
        <time>2023-05-30T12:48:16.000Z</time>
      </trkpt>
      <trkpt lat="46.17744" lon="4.40496">
        <ele>571</ele>
        <time>2023-05-30T12:48:20.000Z</time>
      </trkpt>
      <trkpt lat="46.17755" lon="4.40519">
        <ele>572</ele>
        <time>2023-05-30T12:48:26.000Z</time>
      </trkpt>
      <trkpt lat="46.17765" lon="4.40541">
        <ele>573</ele>
        <time>2023-05-30T12:48:32.000Z</time>
      </trkpt>
      <trkpt lat="46.17769" lon="4.40551">
        <ele>573.79998779297</ele>
        <time>2023-05-30T12:48:35.000Z</time>
      </trkpt>
      <trkpt lat="46.17772" lon="4.40558">
        <ele>574.20001220703</ele>
        <time>2023-05-30T12:48:37.000Z</time>
      </trkpt>
      <trkpt lat="46.17778" lon="4.40573">
        <ele>575.20001220703</ele>
        <time>2023-05-30T12:48:41.000Z</time>
      </trkpt>
      <trkpt lat="46.17783" lon="4.40584">
        <ele>575.40002441406</ele>
        <time>2023-05-30T12:48:44.000Z</time>
      </trkpt>
      <trkpt lat="46.17789" lon="4.40597">
        <ele>576.20001220703</ele>
        <time>2023-05-30T12:48:48.000Z</time>
      </trkpt>
      <trkpt lat="46.17795" lon="4.40611">
        <ele>576.79998779297</ele>
        <time>2023-05-30T12:48:52.000Z</time>
      </trkpt>
      <trkpt lat="46.17798" lon="4.40617">
        <ele>577.40002441406</ele>
        <time>2023-05-30T12:48:54.000Z</time>
      </trkpt>
      <trkpt lat="46.17807" lon="4.40638">
        <ele>578.40002441406</ele>
        <time>2023-05-30T12:49:00.000Z</time>
      </trkpt>
      <trkpt lat="46.17815" lon="4.40655">
        <ele>579.20001220703</ele>
        <time>2023-05-30T12:49:05.000Z</time>
      </trkpt>
      <trkpt lat="46.17818" lon="4.40662">
        <ele>579.40002441406</ele>
        <time>2023-05-30T12:49:07.000Z</time>
      </trkpt>
      <trkpt lat="46.17832" lon="4.40686">
        <ele>580.40002441406</ele>
        <time>2023-05-30T12:49:14.000Z</time>
      </trkpt>
      <trkpt lat="46.17845" lon="4.40704">
        <ele>581.59997558594</ele>
        <time>2023-05-30T12:49:20.000Z</time>
      </trkpt>
      <trkpt lat="46.1785" lon="4.4071">
        <ele>582</ele>
        <time>2023-05-30T12:49:22.000Z</time>
      </trkpt>
      <trkpt lat="46.17866" lon="4.40727">
        <ele>582.79998779297</ele>
        <time>2023-05-30T12:49:28.000Z</time>
      </trkpt>
      <trkpt lat="46.17876" lon="4.40737">
        <ele>583</ele>
        <time>2023-05-30T12:49:31.000Z</time>
      </trkpt>
      <trkpt lat="46.17892" lon="4.40764">
        <ele>583.20001220703</ele>
        <time>2023-05-30T12:49:37.000Z</time>
      </trkpt>
      <trkpt lat="46.17903" lon="4.40799">
        <ele>583.40002441406</ele>
        <time>2023-05-30T12:49:43.000Z</time>
      </trkpt>
      <trkpt lat="46.17904" lon="4.40805">
        <ele>583.40002441406</ele>
        <time>2023-05-30T12:49:44.000Z</time>
      </trkpt>
      <trkpt lat="46.17905" lon="4.40809">
        <ele>583.59997558594</ele>
        <time>2023-05-30T12:49:45.000Z</time>
      </trkpt>
      <trkpt lat="46.17905" lon="4.40815">
        <ele>583.79998779297</ele>
        <time>2023-05-30T12:49:46.000Z</time>
      </trkpt>
      <trkpt lat="46.17908" lon="4.40831">
        <ele>584</ele>
        <time>2023-05-30T12:49:49.000Z</time>
      </trkpt>
      <trkpt lat="46.1791" lon="4.40842">
        <ele>584</ele>
        <time>2023-05-30T12:49:51.000Z</time>
      </trkpt>
      <trkpt lat="46.17911" lon="4.40848">
        <ele>584.20001220703</ele>
        <time>2023-05-30T12:49:52.000Z</time>
      </trkpt>
      <trkpt lat="46.17918" lon="4.40874">
        <ele>584.59997558594</ele>
        <time>2023-05-30T12:49:57.000Z</time>
      </trkpt>
      <trkpt lat="46.17934" lon="4.40907">
        <ele>585.59997558594</ele>
        <time>2023-05-30T12:50:04.000Z</time>
      </trkpt>
      <trkpt lat="46.17949" lon="4.40943">
        <ele>586.40002441406</ele>
        <time>2023-05-30T12:50:11.000Z</time>
      </trkpt>
      <trkpt lat="46.17951" lon="4.40954">
        <ele>586.79998779297</ele>
        <time>2023-05-30T12:50:13.000Z</time>
      </trkpt>
      <trkpt lat="46.17951" lon="4.40971">
        <ele>587.20001220703</ele>
        <time>2023-05-30T12:50:16.000Z</time>
      </trkpt>
      <trkpt lat="46.17951" lon="4.40976">
        <ele>587.20001220703</ele>
        <time>2023-05-30T12:50:17.000Z</time>
      </trkpt>
      <trkpt lat="46.17947" lon="4.40997">
        <ele>587.79998779297</ele>
        <time>2023-05-30T12:50:21.000Z</time>
      </trkpt>
      <trkpt lat="46.17946" lon="4.41001">
        <ele>588</ele>
        <time>2023-05-30T12:50:22.000Z</time>
      </trkpt>
      <trkpt lat="46.17937" lon="4.41026">
        <ele>588.79998779297</ele>
        <time>2023-05-30T12:50:28.000Z</time>
      </trkpt>
      <trkpt lat="46.17934" lon="4.41034">
        <ele>589</ele>
        <time>2023-05-30T12:50:30.000Z</time>
      </trkpt>
      <trkpt lat="46.17928" lon="4.41048">
        <ele>590</ele>
        <time>2023-05-30T12:50:34.000Z</time>
      </trkpt>
      <trkpt lat="46.17923" lon="4.41059">
        <ele>590.40002441406</ele>
        <time>2023-05-30T12:50:37.000Z</time>
      </trkpt>
      <trkpt lat="46.17919" lon="4.4107">
        <ele>591</ele>
        <time>2023-05-30T12:50:40.000Z</time>
      </trkpt>
      <trkpt lat="46.17912" lon="4.41099">
        <ele>592</ele>
        <time>2023-05-30T12:50:47.000Z</time>
      </trkpt>
      <trkpt lat="46.17912" lon="4.41104">
        <ele>592</ele>
        <time>2023-05-30T12:50:48.000Z</time>
      </trkpt>
      <trkpt lat="46.1791" lon="4.41142">
        <ele>593.20001220703</ele>
        <time>2023-05-30T12:50:57.000Z</time>
      </trkpt>
      <trkpt lat="46.17911" lon="4.41155">
        <ele>594.40002441406</ele>
        <time>2023-05-30T12:51:00.000Z</time>
      </trkpt>
      <trkpt lat="46.17914" lon="4.41172">
        <ele>595.40002441406</ele>
        <time>2023-05-30T12:51:04.000Z</time>
      </trkpt>
      <trkpt lat="46.17915" lon="4.41177">
        <ele>595.59997558594</ele>
        <time>2023-05-30T12:51:05.000Z</time>
      </trkpt>
      <trkpt lat="46.17919" lon="4.41193">
        <ele>596.59997558594</ele>
        <time>2023-05-30T12:51:09.000Z</time>
      </trkpt>
      <trkpt lat="46.17923" lon="4.41215">
        <ele>597.59997558594</ele>
        <time>2023-05-30T12:51:14.000Z</time>
      </trkpt>
      <trkpt lat="46.17924" lon="4.41219">
        <ele>598</ele>
        <time>2023-05-30T12:51:15.000Z</time>
      </trkpt>
      <trkpt lat="46.17929" lon="4.41249">
        <ele>598.79998779297</ele>
        <time>2023-05-30T12:51:22.000Z</time>
      </trkpt>
      <trkpt lat="46.17929" lon="4.41267">
        <ele>599.20001220703</ele>
        <time>2023-05-30T12:51:26.000Z</time>
      </trkpt>
      <trkpt lat="46.1793" lon="4.4128">
        <ele>600</ele>
        <time>2023-05-30T12:51:29.000Z</time>
      </trkpt>
      <trkpt lat="46.1793" lon="4.41299">
        <ele>600.40002441406</ele>
        <time>2023-05-30T12:51:33.000Z</time>
      </trkpt>
      <trkpt lat="46.17931" lon="4.41314">
        <ele>601</ele>
        <time>2023-05-30T12:51:37.000Z</time>
      </trkpt>
      <trkpt lat="46.17931" lon="4.41322">
        <ele>601.40002441406</ele>
        <time>2023-05-30T12:51:39.000Z</time>
      </trkpt>
      <trkpt lat="46.17932" lon="4.41342">
        <ele>602</ele>
        <time>2023-05-30T12:51:44.000Z</time>
      </trkpt>
      <trkpt lat="46.17933" lon="4.41353">
        <ele>602.20001220703</ele>
        <time>2023-05-30T12:51:47.000Z</time>
      </trkpt>
      <trkpt lat="46.17934" lon="4.41371">
        <ele>603</ele>
        <time>2023-05-30T12:51:52.000Z</time>
      </trkpt>
      <trkpt lat="46.17934" lon="4.41386">
        <ele>603.59997558594</ele>
        <time>2023-05-30T12:51:56.000Z</time>
      </trkpt>
      <trkpt lat="46.17934" lon="4.41398">
        <ele>604.20001220703</ele>
        <time>2023-05-30T12:51:59.000Z</time>
      </trkpt>
      <trkpt lat="46.17934" lon="4.41416">
        <ele>605.20001220703</ele>
        <time>2023-05-30T12:52:04.000Z</time>
      </trkpt>
      <trkpt lat="46.17934" lon="4.41424">
        <ele>605.59997558594</ele>
        <time>2023-05-30T12:52:07.000Z</time>
      </trkpt>
      <trkpt lat="46.17934" lon="4.41442">
        <ele>606.40002441406</ele>
        <time>2023-05-30T12:52:11.000Z</time>
      </trkpt>
      <trkpt lat="46.17933" lon="4.4146">
        <ele>607</ele>
        <time>2023-05-30T12:52:16.000Z</time>
      </trkpt>
      <trkpt lat="46.17933" lon="4.41467">
        <ele>607.40002441406</ele>
        <time>2023-05-30T12:52:18.000Z</time>
      </trkpt>
      <trkpt lat="46.17931" lon="4.41493">
        <ele>608.20001220703</ele>
        <time>2023-05-30T12:52:25.000Z</time>
      </trkpt>
      <trkpt lat="46.17929" lon="4.41508">
        <ele>608.59997558594</ele>
        <time>2023-05-30T12:52:29.000Z</time>
      </trkpt>
      <trkpt lat="46.17927" lon="4.41526">
        <ele>609.40002441406</ele>
        <time>2023-05-30T12:52:34.000Z</time>
      </trkpt>
      <trkpt lat="46.17926" lon="4.41533">
        <ele>609.79998779297</ele>
        <time>2023-05-30T12:52:37.000Z</time>
      </trkpt>
      <trkpt lat="46.1792" lon="4.41565">
        <ele>611</ele>
        <time>2023-05-30T12:52:45.000Z</time>
      </trkpt>
      <trkpt lat="46.17919" lon="4.41572">
        <ele>611.20001220703</ele>
        <time>2023-05-30T12:52:47.000Z</time>
      </trkpt>
      <trkpt lat="46.17916" lon="4.4159">
        <ele>612</ele>
        <time>2023-05-30T12:52:52.000Z</time>
      </trkpt>
      <trkpt lat="46.17913" lon="4.416">
        <ele>612.40002441406</ele>
        <time>2023-05-30T12:52:55.000Z</time>
      </trkpt>
      <trkpt lat="46.17912" lon="4.41608">
        <ele>613</ele>
        <time>2023-05-30T12:52:58.000Z</time>
      </trkpt>
      <trkpt lat="46.17908" lon="4.41634">
        <ele>613.79998779297</ele>
        <time>2023-05-30T12:53:05.000Z</time>
      </trkpt>
      <trkpt lat="46.17907" lon="4.41641">
        <ele>614.20001220703</ele>
        <time>2023-05-30T12:53:07.000Z</time>
      </trkpt>
      <trkpt lat="46.17905" lon="4.41665">
        <ele>615.40002441406</ele>
        <time>2023-05-30T12:53:13.000Z</time>
      </trkpt>
      <trkpt lat="46.17903" lon="4.41675">
        <ele>616</ele>
        <time>2023-05-30T12:53:16.000Z</time>
      </trkpt>
      <trkpt lat="46.17902" lon="4.41687">
        <ele>616.40002441406</ele>
        <time>2023-05-30T12:53:19.000Z</time>
      </trkpt>
      <trkpt lat="46.17899" lon="4.4171">
        <ele>617.59997558594</ele>
        <time>2023-05-30T12:53:25.000Z</time>
      </trkpt>
      <trkpt lat="46.17895" lon="4.41735">
        <ele>618.79998779297</ele>
        <time>2023-05-30T12:53:32.000Z</time>
      </trkpt>
      <trkpt lat="46.17894" lon="4.41743">
        <ele>619.20001220703</ele>
        <time>2023-05-30T12:53:34.000Z</time>
      </trkpt>
      <trkpt lat="46.17893" lon="4.41757">
        <ele>620</ele>
        <time>2023-05-30T12:53:38.000Z</time>
      </trkpt>
      <trkpt lat="46.17892" lon="4.41772">
        <ele>621</ele>
        <time>2023-05-30T12:53:42.000Z</time>
      </trkpt>
      <trkpt lat="46.17891" lon="4.41794">
        <ele>622.20001220703</ele>
        <time>2023-05-30T12:53:48.000Z</time>
      </trkpt>
      <trkpt lat="46.17891" lon="4.41806">
        <ele>622.40002441406</ele>
        <time>2023-05-30T12:53:51.000Z</time>
      </trkpt>
      <trkpt lat="46.17891" lon="4.41822">
        <ele>623.40002441406</ele>
        <time>2023-05-30T12:53:55.000Z</time>
      </trkpt>
      <trkpt lat="46.1789" lon="4.41834">
        <ele>624</ele>
        <time>2023-05-30T12:53:58.000Z</time>
      </trkpt>
      <trkpt lat="46.1789" lon="4.41842">
        <ele>624.40002441406</ele>
        <time>2023-05-30T12:54:00.000Z</time>
      </trkpt>
      <trkpt lat="46.17888" lon="4.41858">
        <ele>625</ele>
        <time>2023-05-30T12:54:04.000Z</time>
      </trkpt>
      <trkpt lat="46.17883" lon="4.41885">
        <ele>625.59997558594</ele>
        <time>2023-05-30T12:54:11.000Z</time>
      </trkpt>
      <trkpt lat="46.17883" lon="4.41889">
        <ele>625.59997558594</ele>
        <time>2023-05-30T12:54:12.000Z</time>
      </trkpt>
      <trkpt lat="46.17881" lon="4.41907">
        <ele>626.59997558594</ele>
        <time>2023-05-30T12:54:17.000Z</time>
      </trkpt>
      <trkpt lat="46.1788" lon="4.41911">
        <ele>627</ele>
        <time>2023-05-30T12:54:18.000Z</time>
      </trkpt>
      <trkpt lat="46.17878" lon="4.41921">
        <ele>627.59997558594</ele>
        <time>2023-05-30T12:54:21.000Z</time>
      </trkpt>
      <trkpt lat="46.17875" lon="4.41939">
        <ele>628.20001220703</ele>
        <time>2023-05-30T12:54:26.000Z</time>
      </trkpt>
      <trkpt lat="46.17872" lon="4.41954">
        <ele>629</ele>
        <time>2023-05-30T12:54:30.000Z</time>
      </trkpt>
      <trkpt lat="46.17864" lon="4.41982">
        <ele>629.79998779297</ele>
        <time>2023-05-30T12:54:37.000Z</time>
      </trkpt>
      <trkpt lat="46.17863" lon="4.41986">
        <ele>630</ele>
        <time>2023-05-30T12:54:38.000Z</time>
      </trkpt>
      <trkpt lat="46.17855" lon="4.42008">
        <ele>631</ele>
        <time>2023-05-30T12:54:44.000Z</time>
      </trkpt>
      <trkpt lat="46.17848" lon="4.42022">
        <ele>631.59997558594</ele>
        <time>2023-05-30T12:54:48.000Z</time>
      </trkpt>
      <trkpt lat="46.17841" lon="4.42034">
        <ele>632.20001220703</ele>
        <time>2023-05-30T12:54:52.000Z</time>
      </trkpt>
      <trkpt lat="46.17836" lon="4.42043">
        <ele>632.79998779297</ele>
        <time>2023-05-30T12:54:55.000Z</time>
      </trkpt>
      <trkpt lat="46.17826" lon="4.42058">
        <ele>633.40002441406</ele>
        <time>2023-05-30T12:55:00.000Z</time>
      </trkpt>
      <trkpt lat="46.1782" lon="4.42066">
        <ele>633.59997558594</ele>
        <time>2023-05-30T12:55:03.000Z</time>
      </trkpt>
      <trkpt lat="46.17809" lon="4.42079">
        <ele>634.40002441406</ele>
        <time>2023-05-30T12:55:08.000Z</time>
      </trkpt>
      <trkpt lat="46.17804" lon="4.42084">
        <ele>634.59997558594</ele>
        <time>2023-05-30T12:55:10.000Z</time>
      </trkpt>
      <trkpt lat="46.17791" lon="4.42099">
        <ele>635.59997558594</ele>
        <time>2023-05-30T12:55:16.000Z</time>
      </trkpt>
      <trkpt lat="46.17789" lon="4.42102">
        <ele>635.59997558594</ele>
        <time>2023-05-30T12:55:17.000Z</time>
      </trkpt>
      <trkpt lat="46.17783" lon="4.42109">
        <ele>636</ele>
        <time>2023-05-30T12:55:20.000Z</time>
      </trkpt>
      <trkpt lat="46.17776" lon="4.42117">
        <ele>636.59997558594</ele>
        <time>2023-05-30T12:55:23.000Z</time>
      </trkpt>
      <trkpt lat="46.1777" lon="4.42123">
        <ele>637</ele>
        <time>2023-05-30T12:55:26.000Z</time>
      </trkpt>
      <trkpt lat="46.17763" lon="4.4213">
        <ele>637.59997558594</ele>
        <time>2023-05-30T12:55:29.000Z</time>
      </trkpt>
      <trkpt lat="46.17758" lon="4.42137">
        <ele>638.20001220703</ele>
        <time>2023-05-30T12:55:32.000Z</time>
      </trkpt>
      <trkpt lat="46.17748" lon="4.42148">
        <ele>638.79998779297</ele>
        <time>2023-05-30T12:55:37.000Z</time>
      </trkpt>
      <trkpt lat="46.17741" lon="4.42155">
        <ele>639.40002441406</ele>
        <time>2023-05-30T12:55:41.000Z</time>
      </trkpt>
      <trkpt lat="46.17737" lon="4.4216">
        <ele>639.79998779297</ele>
        <time>2023-05-30T12:55:43.000Z</time>
      </trkpt>
      <trkpt lat="46.17729" lon="4.4217">
        <ele>640.79998779297</ele>
        <time>2023-05-30T12:55:48.000Z</time>
      </trkpt>
      <trkpt lat="46.17724" lon="4.42174">
        <ele>641.59997558594</ele>
        <time>2023-05-30T12:55:51.000Z</time>
      </trkpt>
      <trkpt lat="46.17721" lon="4.42178">
        <ele>642</ele>
        <time>2023-05-30T12:55:53.000Z</time>
      </trkpt>
      <trkpt lat="46.17713" lon="4.42185">
        <ele>643</ele>
        <time>2023-05-30T12:55:57.000Z</time>
      </trkpt>
      <trkpt lat="46.17709" lon="4.42189">
        <ele>643.40002441406</ele>
        <time>2023-05-30T12:55:59.000Z</time>
      </trkpt>
      <trkpt lat="46.177" lon="4.422">
        <ele>644.20001220703</ele>
        <time>2023-05-30T12:56:03.000Z</time>
      </trkpt>
      <trkpt lat="46.1769" lon="4.42212">
        <ele>645.20001220703</ele>
        <time>2023-05-30T12:56:08.000Z</time>
      </trkpt>
      <trkpt lat="46.17688" lon="4.42214">
        <ele>645.40002441406</ele>
        <time>2023-05-30T12:56:09.000Z</time>
      </trkpt>
      <trkpt lat="46.17681" lon="4.42223">
        <ele>646.20001220703</ele>
        <time>2023-05-30T12:56:13.000Z</time>
      </trkpt>
      <trkpt lat="46.17678" lon="4.42225">
        <ele>646.59997558594</ele>
        <time>2023-05-30T12:56:14.000Z</time>
      </trkpt>
      <trkpt lat="46.1767" lon="4.42235">
        <ele>647.40002441406</ele>
        <time>2023-05-30T12:56:18.000Z</time>
      </trkpt>
      <trkpt lat="46.17665" lon="4.42241">
        <ele>647.59997558594</ele>
        <time>2023-05-30T12:56:20.000Z</time>
      </trkpt>
      <trkpt lat="46.17661" lon="4.42246">
        <ele>647.59997558594</ele>
        <time>2023-05-30T12:56:21.000Z</time>
      </trkpt>
      <trkpt lat="46.17649" lon="4.42262">
        <ele>649</ele>
        <time>2023-05-30T12:56:27.000Z</time>
      </trkpt>
      <trkpt lat="46.17647" lon="4.42264">
        <ele>649.20001220703</ele>
        <time>2023-05-30T12:56:28.000Z</time>
      </trkpt>
      <trkpt lat="46.17635" lon="4.42277">
        <ele>650</ele>
        <time>2023-05-30T12:56:33.000Z</time>
      </trkpt>
      <trkpt lat="46.17629" lon="4.42282">
        <ele>650.59997558594</ele>
        <time>2023-05-30T12:56:36.000Z</time>
      </trkpt>
      <trkpt lat="46.1762" lon="4.42292">
        <ele>651</ele>
        <time>2023-05-30T12:56:41.000Z</time>
      </trkpt>
      <trkpt lat="46.17615" lon="4.42299">
        <ele>651.40002441406</ele>
        <time>2023-05-30T12:56:43.000Z</time>
      </trkpt>
      <trkpt lat="46.176" lon="4.42317">
        <ele>652</ele>
        <time>2023-05-30T12:56:50.000Z</time>
      </trkpt>
      <trkpt lat="46.17598" lon="4.4232">
        <ele>652.20001220703</ele>
        <time>2023-05-30T12:56:51.000Z</time>
      </trkpt>
      <trkpt lat="46.17588" lon="4.42339">
        <ele>653.20001220703</ele>
        <time>2023-05-30T12:56:57.000Z</time>
      </trkpt>
      <trkpt lat="46.17583" lon="4.42349">
        <ele>653.59997558594</ele>
        <time>2023-05-30T12:57:00.000Z</time>
      </trkpt>
      <trkpt lat="46.17576" lon="4.42362">
        <ele>654.40002441406</ele>
        <time>2023-05-30T12:57:04.000Z</time>
      </trkpt>
      <trkpt lat="46.17562" lon="4.42392">
        <ele>655.20001220703</ele>
        <time>2023-05-30T12:57:11.000Z</time>
      </trkpt>
      <trkpt lat="46.17557" lon="4.42405">
        <ele>655.40002441406</ele>
        <time>2023-05-30T12:57:14.000Z</time>
      </trkpt>
      <trkpt lat="46.1755" lon="4.42422">
        <ele>655.40002441406</ele>
        <time>2023-05-30T12:57:18.000Z</time>
      </trkpt>
      <trkpt lat="46.17542" lon="4.42437">
        <ele>655.59997558594</ele>
        <time>2023-05-30T12:57:23.000Z</time>
      </trkpt>
      <trkpt lat="46.17529" lon="4.42468">
        <ele>656.40002441406</ele>
        <time>2023-05-30T12:57:30.000Z</time>
      </trkpt>
      <trkpt lat="46.17525" lon="4.42475">
        <ele>656.79998779297</ele>
        <time>2023-05-30T12:57:32.000Z</time>
      </trkpt>
      <trkpt lat="46.17512" lon="4.42507">
        <ele>657.40002441406</ele>
        <time>2023-05-30T12:57:39.000Z</time>
      </trkpt>
      <trkpt lat="46.1751" lon="4.42511">
        <ele>657.40002441406</ele>
        <time>2023-05-30T12:57:40.000Z</time>
      </trkpt>
      <trkpt lat="46.17495" lon="4.42541">
        <ele>658.20001220703</ele>
        <time>2023-05-30T12:57:48.000Z</time>
      </trkpt>
      <trkpt lat="46.17491" lon="4.42549">
        <ele>658.59997558594</ele>
        <time>2023-05-30T12:57:50.000Z</time>
      </trkpt>
      <trkpt lat="46.17483" lon="4.42566">
        <ele>659.20001220703</ele>
        <time>2023-05-30T12:57:54.000Z</time>
      </trkpt>
      <trkpt lat="46.17477" lon="4.42576">
        <ele>659.79998779297</ele>
        <time>2023-05-30T12:57:57.000Z</time>
      </trkpt>
      <trkpt lat="46.17468" lon="4.42593">
        <ele>660.59997558594</ele>
        <time>2023-05-30T12:58:02.000Z</time>
      </trkpt>
      <trkpt lat="46.17463" lon="4.42601">
        <ele>660.79998779297</ele>
        <time>2023-05-30T12:58:04.000Z</time>
      </trkpt>
      <trkpt lat="46.1745" lon="4.42624">
        <ele>662</ele>
        <time>2023-05-30T12:58:11.000Z</time>
      </trkpt>
      <trkpt lat="46.17448" lon="4.42628">
        <ele>662.20001220703</ele>
        <time>2023-05-30T12:58:12.000Z</time>
      </trkpt>
      <trkpt lat="46.17436" lon="4.42642">
        <ele>663</ele>
        <time>2023-05-30T12:58:17.000Z</time>
      </trkpt>
      <trkpt lat="46.17427" lon="4.42651">
        <ele>663.59997558594</ele>
        <time>2023-05-30T12:58:21.000Z</time>
      </trkpt>
      <trkpt lat="46.17416" lon="4.42657">
        <ele>664.40002441406</ele>
        <time>2023-05-30T12:58:25.000Z</time>
      </trkpt>
      <trkpt lat="46.17412" lon="4.42658">
        <ele>664.59997558594</ele>
        <time>2023-05-30T12:58:26.000Z</time>
      </trkpt>
      <trkpt lat="46.174" lon="4.4266">
        <ele>665.59997558594</ele>
        <time>2023-05-30T12:58:30.000Z</time>
      </trkpt>
      <trkpt lat="46.17393" lon="4.42659">
        <ele>666</ele>
        <time>2023-05-30T12:58:32.000Z</time>
      </trkpt>
      <trkpt lat="46.1738" lon="4.42656">
        <ele>666.59997558594</ele>
        <time>2023-05-30T12:58:36.000Z</time>
      </trkpt>
      <trkpt lat="46.1736" lon="4.42651">
        <ele>667.79998779297</ele>
        <time>2023-05-30T12:58:43.000Z</time>
      </trkpt>
      <trkpt lat="46.17341" lon="4.42646">
        <ele>669</ele>
        <time>2023-05-30T12:58:50.000Z</time>
      </trkpt>
      <trkpt lat="46.17338" lon="4.42645">
        <ele>669.20001220703</ele>
        <time>2023-05-30T12:58:51.000Z</time>
      </trkpt>
      <trkpt lat="46.17324" lon="4.42641">
        <ele>670.20001220703</ele>
        <time>2023-05-30T12:58:56.000Z</time>
      </trkpt>
      <trkpt lat="46.17313" lon="4.42637">
        <ele>671</ele>
        <time>2023-05-30T12:59:00.000Z</time>
      </trkpt>
      <trkpt lat="46.17307" lon="4.42635">
        <ele>671.40002441406</ele>
        <time>2023-05-30T12:59:02.000Z</time>
      </trkpt>
      <trkpt lat="46.17294" lon="4.42631">
        <ele>672.40002441406</ele>
        <time>2023-05-30T12:59:07.000Z</time>
      </trkpt>
      <trkpt lat="46.17286" lon="4.42629">
        <ele>673</ele>
        <time>2023-05-30T12:59:10.000Z</time>
      </trkpt>
      <trkpt lat="46.17279" lon="4.42626">
        <ele>673.59997558594</ele>
        <time>2023-05-30T12:59:13.000Z</time>
      </trkpt>
      <trkpt lat="46.17268" lon="4.42623">
        <ele>674.20001220703</ele>
        <time>2023-05-30T12:59:17.000Z</time>
      </trkpt>
      <trkpt lat="46.17263" lon="4.42621">
        <ele>674.59997558594</ele>
        <time>2023-05-30T12:59:19.000Z</time>
      </trkpt>
      <trkpt lat="46.17252" lon="4.42618">
        <ele>675.40002441406</ele>
        <time>2023-05-30T12:59:24.000Z</time>
      </trkpt>
      <trkpt lat="46.17249" lon="4.42617">
        <ele>675.79998779297</ele>
        <time>2023-05-30T12:59:25.000Z</time>
      </trkpt>
      <trkpt lat="46.17234" lon="4.42613">
        <ele>677</ele>
        <time>2023-05-30T12:59:32.000Z</time>
      </trkpt>
      <trkpt lat="46.17222" lon="4.42613">
        <ele>678</ele>
        <time>2023-05-30T12:59:37.000Z</time>
      </trkpt>
      <trkpt lat="46.1722" lon="4.42613">
        <ele>678.20001220703</ele>
        <time>2023-05-30T12:59:38.000Z</time>
      </trkpt>
      <trkpt lat="46.17204" lon="4.42614">
        <ele>678.79998779297</ele>
        <time>2023-05-30T12:59:44.000Z</time>
      </trkpt>
      <trkpt lat="46.17202" lon="4.42614">
        <ele>679</ele>
        <time>2023-05-30T12:59:45.000Z</time>
      </trkpt>
      <trkpt lat="46.17188" lon="4.42619">
        <ele>680</ele>
        <time>2023-05-30T12:59:51.000Z</time>
      </trkpt>
      <trkpt lat="46.17185" lon="4.4262">
        <ele>680.20001220703</ele>
        <time>2023-05-30T12:59:52.000Z</time>
      </trkpt>
      <trkpt lat="46.17177" lon="4.42623">
        <ele>680.79998779297</ele>
        <time>2023-05-30T12:59:55.000Z</time>
      </trkpt>
      <trkpt lat="46.17172" lon="4.42625">
        <ele>681.20001220703</ele>
        <time>2023-05-30T12:59:57.000Z</time>
      </trkpt>
      <trkpt lat="46.17158" lon="4.42634">
        <ele>682.20001220703</ele>
        <time>2023-05-30T13:00:03.000Z</time>
      </trkpt>
      <trkpt lat="46.17153" lon="4.42638">
        <ele>682.20001220703</ele>
        <time>2023-05-30T13:00:05.000Z</time>
      </trkpt>
      <trkpt lat="46.17143" lon="4.42648">
        <ele>683</ele>
        <time>2023-05-30T13:00:10.000Z</time>
      </trkpt>
      <trkpt lat="46.17141" lon="4.4265">
        <ele>683.40002441406</ele>
        <time>2023-05-30T13:00:11.000Z</time>
      </trkpt>
      <trkpt lat="46.17127" lon="4.42665">
        <ele>684.59997558594</ele>
        <time>2023-05-30T13:00:18.000Z</time>
      </trkpt>
      <trkpt lat="46.17115" lon="4.42687">
        <ele>685.59997558594</ele>
        <time>2023-05-30T13:00:26.000Z</time>
      </trkpt>
      <trkpt lat="46.17106" lon="4.42704">
        <ele>686.79998779297</ele>
        <time>2023-05-30T13:00:32.000Z</time>
      </trkpt>
      <trkpt lat="46.17105" lon="4.42707">
        <ele>687</ele>
        <time>2023-05-30T13:00:33.000Z</time>
      </trkpt>
      <trkpt lat="46.17103" lon="4.4271">
        <ele>687.20001220703</ele>
        <time>2023-05-30T13:00:34.000Z</time>
      </trkpt>
      <trkpt lat="46.17099" lon="4.42719">
        <ele>687.79998779297</ele>
        <time>2023-05-30T13:00:37.000Z</time>
      </trkpt>
      <trkpt lat="46.17096" lon="4.42729">
        <ele>688.40002441406</ele>
        <time>2023-05-30T13:00:40.000Z</time>
      </trkpt>
      <trkpt lat="46.17093" lon="4.42736">
        <ele>689</ele>
        <time>2023-05-30T13:00:42.000Z</time>
      </trkpt>
      <trkpt lat="46.17089" lon="4.4275">
        <ele>690</ele>
        <time>2023-05-30T13:00:46.000Z</time>
      </trkpt>
      <trkpt lat="46.17085" lon="4.42762">
        <ele>690.79998779297</ele>
        <time>2023-05-30T13:00:50.000Z</time>
      </trkpt>
      <trkpt lat="46.1708" lon="4.42779">
        <ele>691.59997558594</ele>
        <time>2023-05-30T13:00:55.000Z</time>
      </trkpt>
      <trkpt lat="46.17078" lon="4.42786">
        <ele>692</ele>
        <time>2023-05-30T13:00:57.000Z</time>
      </trkpt>
      <trkpt lat="46.17072" lon="4.42806">
        <ele>692.79998779297</ele>
        <time>2023-05-30T13:01:03.000Z</time>
      </trkpt>
      <trkpt lat="46.17071" lon="4.42809">
        <ele>693.20001220703</ele>
        <time>2023-05-30T13:01:04.000Z</time>
      </trkpt>
      <trkpt lat="46.17064" lon="4.42833">
        <ele>694.40002441406</ele>
        <time>2023-05-30T13:01:11.000Z</time>
      </trkpt>
      <trkpt lat="46.17061" lon="4.42839">
        <ele>695</ele>
        <time>2023-05-30T13:01:13.000Z</time>
      </trkpt>
      <trkpt lat="46.17056" lon="4.42855">
        <ele>695.79998779297</ele>
        <time>2023-05-30T13:01:18.000Z</time>
      </trkpt>
      <trkpt lat="46.17053" lon="4.42862">
        <ele>696.20001220703</ele>
        <time>2023-05-30T13:01:20.000Z</time>
      </trkpt>
      <trkpt lat="46.17048" lon="4.42875">
        <ele>697</ele>
        <time>2023-05-30T13:01:24.000Z</time>
      </trkpt>
      <trkpt lat="46.17045" lon="4.42881">
        <ele>697.20001220703</ele>
        <time>2023-05-30T13:01:26.000Z</time>
      </trkpt>
      <trkpt lat="46.17038" lon="4.42895">
        <ele>698.20001220703</ele>
        <time>2023-05-30T13:01:31.000Z</time>
      </trkpt>
      <trkpt lat="46.17036" lon="4.42902">
        <ele>698.59997558594</ele>
        <time>2023-05-30T13:01:33.000Z</time>
      </trkpt>
      <trkpt lat="46.17032" lon="4.4291">
        <ele>699.20001220703</ele>
        <time>2023-05-30T13:01:36.000Z</time>
      </trkpt>
      <trkpt lat="46.17026" lon="4.42925">
        <ele>700.40002441406</ele>
        <time>2023-05-30T13:01:41.000Z</time>
      </trkpt>
      <trkpt lat="46.17018" lon="4.42943">
        <ele>701.40002441406</ele>
        <time>2023-05-30T13:01:47.000Z</time>
      </trkpt>
      <trkpt lat="46.17009" lon="4.42965">
        <ele>702.59997558594</ele>
        <time>2023-05-30T13:01:54.000Z</time>
      </trkpt>
      <trkpt lat="46.17007" lon="4.42968">
        <ele>702.79998779297</ele>
        <time>2023-05-30T13:01:55.000Z</time>
      </trkpt>
      <trkpt lat="46.16998" lon="4.42992">
        <ele>703.59997558594</ele>
        <time>2023-05-30T13:02:02.000Z</time>
      </trkpt>
      <trkpt lat="46.16996" lon="4.42999">
        <ele>703.79998779297</ele>
        <time>2023-05-30T13:02:04.000Z</time>
      </trkpt>
      <trkpt lat="46.16989" lon="4.43018">
        <ele>704.59997558594</ele>
        <time>2023-05-30T13:02:09.000Z</time>
      </trkpt>
      <trkpt lat="46.16985" lon="4.43032">
        <ele>705</ele>
        <time>2023-05-30T13:02:13.000Z</time>
      </trkpt>
      <trkpt lat="46.1698" lon="4.4305">
        <ele>705.59997558594</ele>
        <time>2023-05-30T13:02:18.000Z</time>
      </trkpt>
      <trkpt lat="46.16976" lon="4.43069">
        <ele>706.59997558594</ele>
        <time>2023-05-30T13:02:23.000Z</time>
      </trkpt>
      <trkpt lat="46.16973" lon="4.4308">
        <ele>707.40002441406</ele>
        <time>2023-05-30T13:02:26.000Z</time>
      </trkpt>
      <trkpt lat="46.16972" lon="4.43091">
        <ele>707.79998779297</ele>
        <time>2023-05-30T13:02:29.000Z</time>
      </trkpt>
      <trkpt lat="46.1697" lon="4.43114">
        <ele>708.59997558594</ele>
        <time>2023-05-30T13:02:35.000Z</time>
      </trkpt>
      <trkpt lat="46.16969" lon="4.43118">
        <ele>708.79998779297</ele>
        <time>2023-05-30T13:02:36.000Z</time>
      </trkpt>
      <trkpt lat="46.16966" lon="4.43144">
        <ele>709.79998779297</ele>
        <time>2023-05-30T13:02:43.000Z</time>
      </trkpt>
      <trkpt lat="46.16966" lon="4.43148">
        <ele>710</ele>
        <time>2023-05-30T13:02:44.000Z</time>
      </trkpt>
      <trkpt lat="46.16963" lon="4.43176">
        <ele>711</ele>
        <time>2023-05-30T13:02:52.000Z</time>
      </trkpt>
      <trkpt lat="46.16962" lon="4.43183">
        <ele>711.20001220703</ele>
        <time>2023-05-30T13:02:54.000Z</time>
      </trkpt>
      <trkpt lat="46.1696" lon="4.43193">
        <ele>712.20001220703</ele>
        <time>2023-05-30T13:02:57.000Z</time>
      </trkpt>
      <trkpt lat="46.16958" lon="4.43203">
        <ele>712.59997558594</ele>
        <time>2023-05-30T13:03:00.000Z</time>
      </trkpt>
      <trkpt lat="46.16958" lon="4.43211">
        <ele>713.20001220703</ele>
        <time>2023-05-30T13:03:02.000Z</time>
      </trkpt>
      <trkpt lat="46.16956" lon="4.43232">
        <ele>714.20001220703</ele>
        <time>2023-05-30T13:03:08.000Z</time>
      </trkpt>
      <trkpt lat="46.16954" lon="4.4325">
        <ele>715.20001220703</ele>
        <time>2023-05-30T13:03:13.000Z</time>
      </trkpt>
      <trkpt lat="46.16953" lon="4.43258">
        <ele>715.79998779297</ele>
        <time>2023-05-30T13:03:15.000Z</time>
      </trkpt>
      <trkpt lat="46.16951" lon="4.43268">
        <ele>716.40002441406</ele>
        <time>2023-05-30T13:03:18.000Z</time>
      </trkpt>
      <trkpt lat="46.16949" lon="4.4329">
        <ele>717.20001220703</ele>
        <time>2023-05-30T13:03:24.000Z</time>
      </trkpt>
      <trkpt lat="46.16949" lon="4.43293">
        <ele>717.40002441406</ele>
        <time>2023-05-30T13:03:25.000Z</time>
      </trkpt>
      <trkpt lat="46.16947" lon="4.43314">
        <ele>718.40002441406</ele>
        <time>2023-05-30T13:03:30.000Z</time>
      </trkpt>
      <trkpt lat="46.16946" lon="4.43322">
        <ele>718.79998779297</ele>
        <time>2023-05-30T13:03:32.000Z</time>
      </trkpt>
      <trkpt lat="46.16947" lon="4.43337">
        <ele>719.59997558594</ele>
        <time>2023-05-30T13:03:36.000Z</time>
      </trkpt>
      <trkpt lat="46.16947" lon="4.43349">
        <ele>720</ele>
        <time>2023-05-30T13:03:39.000Z</time>
      </trkpt>
      <trkpt lat="46.16945" lon="4.43363">
        <ele>720.79998779297</ele>
        <time>2023-05-30T13:03:43.000Z</time>
      </trkpt>
      <trkpt lat="46.16943" lon="4.43372">
        <ele>721</ele>
        <time>2023-05-30T13:03:45.000Z</time>
      </trkpt>
      <trkpt lat="46.16938" lon="4.43397">
        <ele>721.40002441406</ele>
        <time>2023-05-30T13:03:51.000Z</time>
      </trkpt>
      <trkpt lat="46.16925" lon="4.43426">
        <ele>721.40002441406</ele>
        <time>2023-05-30T13:03:56.000Z</time>
      </trkpt>
      <trkpt lat="46.16909" lon="4.43464">
        <ele>721.20001220703</ele>
        <time>2023-05-30T13:04:02.000Z</time>
      </trkpt>
      <trkpt lat="46.16907" lon="4.43471">
        <ele>721.20001220703</ele>
        <time>2023-05-30T13:04:03.000Z</time>
      </trkpt>
      <trkpt lat="46.16902" lon="4.43486">
        <ele>720.79998779297</ele>
        <time>2023-05-30T13:04:05.000Z</time>
      </trkpt>
      <trkpt lat="46.16901" lon="4.43492">
        <ele>720.59997558594</ele>
        <time>2023-05-30T13:04:06.000Z</time>
      </trkpt>
      <trkpt lat="46.16899" lon="4.43502">
        <ele>720.59997558594</ele>
        <time>2023-05-30T13:04:08.000Z</time>
      </trkpt>
      <trkpt lat="46.16895" lon="4.43513">
        <ele>720.40002441406</ele>
        <time>2023-05-30T13:04:10.000Z</time>
      </trkpt>
      <trkpt lat="46.16891" lon="4.43524">
        <ele>720.20001220703</ele>
        <time>2023-05-30T13:04:12.000Z</time>
      </trkpt>
      <trkpt lat="46.16885" lon="4.43543">
        <ele>719.59997558594</ele>
        <time>2023-05-30T13:04:15.000Z</time>
      </trkpt>
      <trkpt lat="46.16872" lon="4.43576">
        <ele>718.79998779297</ele>
        <time>2023-05-30T13:04:20.000Z</time>
      </trkpt>
      <trkpt lat="46.16864" lon="4.43599">
        <ele>718.59997558594</ele>
        <time>2023-05-30T13:04:23.000Z</time>
      </trkpt>
      <trkpt lat="46.16856" lon="4.43621">
        <ele>718</ele>
        <time>2023-05-30T13:04:26.000Z</time>
      </trkpt>
      <trkpt lat="46.1685" lon="4.43636">
        <ele>717.79998779297</ele>
        <time>2023-05-30T13:04:28.000Z</time>
      </trkpt>
      <trkpt lat="46.16847" lon="4.43644">
        <ele>717.59997558594</ele>
        <time>2023-05-30T13:04:29.000Z</time>
      </trkpt>
      <trkpt lat="46.16839" lon="4.43669">
        <ele>717.40002441406</ele>
        <time>2023-05-30T13:04:32.000Z</time>
      </trkpt>
      <trkpt lat="46.16828" lon="4.43695">
        <ele>717</ele>
        <time>2023-05-30T13:04:35.000Z</time>
      </trkpt>
      <trkpt lat="46.1682" lon="4.43719">
        <ele>716.40002441406</ele>
        <time>2023-05-30T13:04:38.000Z</time>
      </trkpt>
      <trkpt lat="46.16813" lon="4.43739">
        <ele>716.20001220703</ele>
        <time>2023-05-30T13:04:40.000Z</time>
      </trkpt>
      <trkpt lat="46.16798" lon="4.4378">
        <ele>715.59997558594</ele>
        <time>2023-05-30T13:04:45.000Z</time>
      </trkpt>
      <trkpt lat="46.16782" lon="4.43822">
        <ele>714.79998779297</ele>
        <time>2023-05-30T13:04:50.000Z</time>
      </trkpt>
      <trkpt lat="46.16776" lon="4.43839">
        <ele>714.59997558594</ele>
        <time>2023-05-30T13:04:52.000Z</time>
      </trkpt>
      <trkpt lat="46.16764" lon="4.43873">
        <ele>713.79998779297</ele>
        <time>2023-05-30T13:04:56.000Z</time>
      </trkpt>
      <trkpt lat="46.1676" lon="4.43882">
        <ele>713.59997558594</ele>
        <time>2023-05-30T13:04:57.000Z</time>
      </trkpt>
      <trkpt lat="46.16756" lon="4.43896">
        <ele>713.40002441406</ele>
        <time>2023-05-30T13:04:59.000Z</time>
      </trkpt>
      <trkpt lat="46.16747" lon="4.4393">
        <ele>713</ele>
        <time>2023-05-30T13:05:03.000Z</time>
      </trkpt>
      <trkpt lat="46.16746" lon="4.43936">
        <ele>713</ele>
        <time>2023-05-30T13:05:04.000Z</time>
      </trkpt>
      <trkpt lat="46.16744" lon="4.43945">
        <ele>713</ele>
        <time>2023-05-30T13:05:05.000Z</time>
      </trkpt>
      <trkpt lat="46.1674" lon="4.4397">
        <ele>712.79998779297</ele>
        <time>2023-05-30T13:05:08.000Z</time>
      </trkpt>
      <trkpt lat="46.16733" lon="4.44024">
        <ele>711.59997558594</ele>
        <time>2023-05-30T13:05:14.000Z</time>
      </trkpt>
      <trkpt lat="46.16732" lon="4.44033">
        <ele>711.20001220703</ele>
        <time>2023-05-30T13:05:15.000Z</time>
      </trkpt>
      <trkpt lat="46.1673" lon="4.44061">
        <ele>710.40002441406</ele>
        <time>2023-05-30T13:05:18.000Z</time>
      </trkpt>
      <trkpt lat="46.16726" lon="4.44102">
        <ele>709.40002441406</ele>
        <time>2023-05-30T13:05:23.000Z</time>
      </trkpt>
      <trkpt lat="46.16726" lon="4.44109">
        <ele>709</ele>
        <time>2023-05-30T13:05:24.000Z</time>
      </trkpt>
      <trkpt lat="46.16725" lon="4.44115">
        <ele>708.59997558594</ele>
        <time>2023-05-30T13:05:25.000Z</time>
      </trkpt>
      <trkpt lat="46.16719" lon="4.44125">
        <ele>708.20001220703</ele>
        <time>2023-05-30T13:05:27.000Z</time>
      </trkpt>
      <trkpt lat="46.1671" lon="4.44131">
        <ele>707.79998779297</ele>
        <time>2023-05-30T13:05:29.000Z</time>
      </trkpt>
      <trkpt lat="46.16704" lon="4.44143">
        <ele>707.20001220703</ele>
        <time>2023-05-30T13:05:31.000Z</time>
      </trkpt>
      <trkpt lat="46.16702" lon="4.44156">
        <ele>706.79998779297</ele>
        <time>2023-05-30T13:05:33.000Z</time>
      </trkpt>
      <trkpt lat="46.16703" lon="4.44161">
        <ele>706.59997558594</ele>
        <time>2023-05-30T13:05:34.000Z</time>
      </trkpt>
      <trkpt lat="46.16704" lon="4.44165">
        <ele>706.40002441406</ele>
        <time>2023-05-30T13:05:35.000Z</time>
      </trkpt>
      <trkpt lat="46.16704" lon="4.44172">
        <ele>706.20001220703</ele>
        <time>2023-05-30T13:05:37.000Z</time>
      </trkpt>
      <trkpt lat="46.16702" lon="4.44174">
        <ele>706</ele>
        <time>2023-05-30T13:05:38.000Z</time>
      </trkpt>
      <trkpt lat="46.16701" lon="4.44175">
        <ele>705.79998779297</ele>
        <time>2023-05-30T13:05:39.000Z</time>
      </trkpt>
      <trkpt lat="46.16698" lon="4.44173">
        <ele>705.59997558594</ele>
        <time>2023-05-30T13:05:41.000Z</time>
      </trkpt>
      <trkpt lat="46.16698" lon="4.44172">
        <ele>705.40002441406</ele>
        <time>2023-05-30T13:05:44.000Z</time>
      </trkpt>
      <trkpt lat="46.16697" lon="4.44171">
        <ele>705.40002441406</ele>
        <time>2023-05-30T13:05:46.000Z</time>
      </trkpt>
      <trkpt lat="46.16697" lon="4.44171">
        <ele>705.40002441406</ele>
        <time>2023-05-30T13:05:48.000Z</time>
      </trkpt>
      <trkpt lat="46.16698" lon="4.44175">
        <ele>705.59997558594</ele>
        <time>2023-05-30T13:07:25.000Z</time>
      </trkpt>
      <trkpt lat="46.167" lon="4.44183">
        <ele>705.59997558594</ele>
        <time>2023-05-30T13:07:27.000Z</time>
      </trkpt>
      <trkpt lat="46.16702" lon="4.44203">
        <ele>705.40002441406</ele>
        <time>2023-05-30T13:07:32.000Z</time>
      </trkpt>
      <trkpt lat="46.167" lon="4.44232">
        <ele>705</ele>
        <time>2023-05-30T13:07:36.000Z</time>
      </trkpt>
      <trkpt lat="46.167" lon="4.44232">
        <ele>705</ele>
        <time>2023-05-30T13:07:37.000Z</time>
      </trkpt>
      <trkpt lat="46.16698" lon="4.44243">
        <ele>704.79998779297</ele>
        <time>2023-05-30T13:07:38.000Z</time>
      </trkpt>
      <trkpt lat="46.16699" lon="4.44252">
        <ele>704.59997558594</ele>
        <time>2023-05-30T13:07:40.000Z</time>
      </trkpt>
      <trkpt lat="46.16697" lon="4.44269">
        <ele>704.40002441406</ele>
        <time>2023-05-30T13:07:44.000Z</time>
      </trkpt>
      <trkpt lat="46.16695" lon="4.44275">
        <ele>704.40002441406</ele>
        <time>2023-05-30T13:07:45.000Z</time>
      </trkpt>
      <trkpt lat="46.16689" lon="4.44295">
        <ele>704.20001220703</ele>
        <time>2023-05-30T13:07:48.000Z</time>
      </trkpt>
      <trkpt lat="46.16684" lon="4.44308">
        <ele>704.20001220703</ele>
        <time>2023-05-30T13:07:50.000Z</time>
      </trkpt>
      <trkpt lat="46.16671" lon="4.44336">
        <ele>703.59997558594</ele>
        <time>2023-05-30T13:07:54.000Z</time>
      </trkpt>
      <trkpt lat="46.16661" lon="4.4435">
        <ele>703.40002441406</ele>
        <time>2023-05-30T13:07:56.000Z</time>
      </trkpt>
      <trkpt lat="46.16656" lon="4.44356">
        <ele>703.40002441406</ele>
        <time>2023-05-30T13:07:57.000Z</time>
      </trkpt>
      <trkpt lat="46.16635" lon="4.4438">
        <ele>702.40002441406</ele>
        <time>2023-05-30T13:08:01.000Z</time>
      </trkpt>
      <trkpt lat="46.16631" lon="4.44385">
        <ele>702.20001220703</ele>
        <time>2023-05-30T13:08:02.000Z</time>
      </trkpt>
      <trkpt lat="46.16593" lon="4.44421">
        <ele>701</ele>
        <time>2023-05-30T13:08:08.000Z</time>
      </trkpt>
      <trkpt lat="46.16563" lon="4.44451">
        <ele>699.40002441406</ele>
        <time>2023-05-30T13:08:12.000Z</time>
      </trkpt>
      <trkpt lat="46.1655" lon="4.44464">
        <ele>698.59997558594</ele>
        <time>2023-05-30T13:08:14.000Z</time>
      </trkpt>
      <trkpt lat="46.16542" lon="4.44473">
        <ele>698.20001220703</ele>
        <time>2023-05-30T13:08:15.000Z</time>
      </trkpt>
      <trkpt lat="46.16528" lon="4.44489">
        <ele>697.20001220703</ele>
        <time>2023-05-30T13:08:17.000Z</time>
      </trkpt>
      <trkpt lat="46.16516" lon="4.44509">
        <ele>696.40002441406</ele>
        <time>2023-05-30T13:08:19.000Z</time>
      </trkpt>
      <trkpt lat="46.16506" lon="4.44531">
        <ele>696</ele>
        <time>2023-05-30T13:08:21.000Z</time>
      </trkpt>
      <trkpt lat="46.16494" lon="4.44569">
        <ele>694.59997558594</ele>
        <time>2023-05-30T13:08:24.000Z</time>
      </trkpt>
      <trkpt lat="46.16487" lon="4.44627">
        <ele>693.20001220703</ele>
        <time>2023-05-30T13:08:28.000Z</time>
      </trkpt>
      <trkpt lat="46.16488" lon="4.44658">
        <ele>692</ele>
        <time>2023-05-30T13:08:30.000Z</time>
      </trkpt>
      <trkpt lat="46.16489" lon="4.44689">
        <ele>691</ele>
        <time>2023-05-30T13:08:32.000Z</time>
      </trkpt>
      <trkpt lat="46.16489" lon="4.44701">
        <ele>690.40002441406</ele>
        <time>2023-05-30T13:08:33.000Z</time>
      </trkpt>
      <trkpt lat="46.16488" lon="4.44716">
        <ele>690</ele>
        <time>2023-05-30T13:08:34.000Z</time>
      </trkpt>
      <trkpt lat="46.16484" lon="4.44747">
        <ele>688.59997558594</ele>
        <time>2023-05-30T13:08:36.000Z</time>
      </trkpt>
      <trkpt lat="46.16481" lon="4.44758">
        <ele>688.59997558594</ele>
        <time>2023-05-30T13:08:37.000Z</time>
      </trkpt>
      <trkpt lat="46.16472" lon="4.44794">
        <ele>687.59997558594</ele>
        <time>2023-05-30T13:08:40.000Z</time>
      </trkpt>
      <trkpt lat="46.16465" lon="4.44816">
        <ele>687.40002441406</ele>
        <time>2023-05-30T13:08:42.000Z</time>
      </trkpt>
      <trkpt lat="46.16445" lon="4.44863">
        <ele>687</ele>
        <time>2023-05-30T13:08:47.000Z</time>
      </trkpt>
      <trkpt lat="46.1644" lon="4.44871">
        <ele>686.79998779297</ele>
        <time>2023-05-30T13:08:48.000Z</time>
      </trkpt>
      <trkpt lat="46.1643" lon="4.44887">
        <ele>686.59997558594</ele>
        <time>2023-05-30T13:08:50.000Z</time>
      </trkpt>
      <trkpt lat="46.16426" lon="4.44895">
        <ele>686.59997558594</ele>
        <time>2023-05-30T13:08:51.000Z</time>
      </trkpt>
      <trkpt lat="46.1642" lon="4.44903">
        <ele>686.40002441406</ele>
        <time>2023-05-30T13:08:52.000Z</time>
      </trkpt>
      <trkpt lat="46.16414" lon="4.4491">
        <ele>686.40002441406</ele>
        <time>2023-05-30T13:08:53.000Z</time>
      </trkpt>
      <trkpt lat="46.16375" lon="4.44942">
        <ele>685.79998779297</ele>
        <time>2023-05-30T13:08:59.000Z</time>
      </trkpt>
      <trkpt lat="46.16353" lon="4.44953">
        <ele>685.59997558594</ele>
        <time>2023-05-30T13:09:02.000Z</time>
      </trkpt>
      <trkpt lat="46.16329" lon="4.44967">
        <ele>684.79998779297</ele>
        <time>2023-05-30T13:09:05.000Z</time>
      </trkpt>
      <trkpt lat="46.16322" lon="4.44972">
        <ele>684.40002441406</ele>
        <time>2023-05-30T13:09:06.000Z</time>
      </trkpt>
      <trkpt lat="46.16291" lon="4.44992">
        <ele>683.40002441406</ele>
        <time>2023-05-30T13:09:10.000Z</time>
      </trkpt>
      <trkpt lat="46.16266" lon="4.45007">
        <ele>682.79998779297</ele>
        <time>2023-05-30T13:09:13.000Z</time>
      </trkpt>
      <trkpt lat="46.1626" lon="4.45012">
        <ele>682.59997558594</ele>
        <time>2023-05-30T13:09:14.000Z</time>
      </trkpt>
      <trkpt lat="46.16252" lon="4.45018">
        <ele>682.20001220703</ele>
        <time>2023-05-30T13:09:15.000Z</time>
      </trkpt>
      <trkpt lat="46.1623" lon="4.45036">
        <ele>681.40002441406</ele>
        <time>2023-05-30T13:09:18.000Z</time>
      </trkpt>
      <trkpt lat="46.16216" lon="4.45051">
        <ele>681</ele>
        <time>2023-05-30T13:09:20.000Z</time>
      </trkpt>
      <trkpt lat="46.16195" lon="4.45076">
        <ele>680.40002441406</ele>
        <time>2023-05-30T13:09:24.000Z</time>
      </trkpt>
      <trkpt lat="46.16192" lon="4.45082">
        <ele>680</ele>
        <time>2023-05-30T13:09:25.000Z</time>
      </trkpt>
      <trkpt lat="46.16184" lon="4.45092">
        <ele>679</ele>
        <time>2023-05-30T13:09:28.000Z</time>
      </trkpt>
      <trkpt lat="46.16184" lon="4.45093">
        <ele>678.79998779297</ele>
        <time>2023-05-30T13:09:29.000Z</time>
      </trkpt>
      <trkpt lat="46.16183" lon="4.45093">
        <ele>678.40002441406</ele>
        <time>2023-05-30T13:09:32.000Z</time>
      </trkpt>
      <trkpt lat="46.1618" lon="4.45099">
        <ele>676.79998779297</ele>
        <time>2023-05-30T13:10:15.000Z</time>
      </trkpt>
      <trkpt lat="46.16176" lon="4.45106">
        <ele>676.79998779297</ele>
        <time>2023-05-30T13:10:17.000Z</time>
      </trkpt>
      <trkpt lat="46.1616" lon="4.45136">
        <ele>676.40002441406</ele>
        <time>2023-05-30T13:10:22.000Z</time>
      </trkpt>
      <trkpt lat="46.16135" lon="4.45182">
        <ele>675.59997558594</ele>
        <time>2023-05-30T13:10:28.000Z</time>
      </trkpt>
      <trkpt lat="46.16127" lon="4.45198">
        <ele>675.20001220703</ele>
        <time>2023-05-30T13:10:30.000Z</time>
      </trkpt>
      <trkpt lat="46.16114" lon="4.45222">
        <ele>674.59997558594</ele>
        <time>2023-05-30T13:10:33.000Z</time>
      </trkpt>
      <trkpt lat="46.16094" lon="4.4526">
        <ele>673.79998779297</ele>
        <time>2023-05-30T13:10:38.000Z</time>
      </trkpt>
      <trkpt lat="46.16089" lon="4.4527">
        <ele>673.40002441406</ele>
        <time>2023-05-30T13:10:39.000Z</time>
      </trkpt>
      <trkpt lat="46.16086" lon="4.45277">
        <ele>673.20001220703</ele>
        <time>2023-05-30T13:10:40.000Z</time>
      </trkpt>
      <trkpt lat="46.16065" lon="4.45322">
        <ele>672.40002441406</ele>
        <time>2023-05-30T13:10:45.000Z</time>
      </trkpt>
      <trkpt lat="46.16051" lon="4.4536">
        <ele>671.20001220703</ele>
        <time>2023-05-30T13:10:49.000Z</time>
      </trkpt>
      <trkpt lat="46.16034" lon="4.45409">
        <ele>670.20001220703</ele>
        <time>2023-05-30T13:10:54.000Z</time>
      </trkpt>
      <trkpt lat="46.16022" lon="4.45448">
        <ele>669</ele>
        <time>2023-05-30T13:10:58.000Z</time>
      </trkpt>
      <trkpt lat="46.16015" lon="4.4549">
        <ele>668.20001220703</ele>
        <time>2023-05-30T13:11:02.000Z</time>
      </trkpt>
      <trkpt lat="46.16015" lon="4.45501">
        <ele>668</ele>
        <time>2023-05-30T13:11:03.000Z</time>
      </trkpt>
      <trkpt lat="46.16022" lon="4.45552">
        <ele>667.59997558594</ele>
        <time>2023-05-30T13:11:08.000Z</time>
      </trkpt>
      <trkpt lat="46.16042" lon="4.45608">
        <ele>667.20001220703</ele>
        <time>2023-05-30T13:11:14.000Z</time>
      </trkpt>
      <trkpt lat="46.16067" lon="4.45679">
        <ele>667.59997558594</ele>
        <time>2023-05-30T13:11:23.000Z</time>
      </trkpt>
      <trkpt lat="46.16083" lon="4.45724">
        <ele>667.79998779297</ele>
        <time>2023-05-30T13:11:29.000Z</time>
      </trkpt>
      <trkpt lat="46.161" lon="4.45767">
        <ele>668</ele>
        <time>2023-05-30T13:11:35.000Z</time>
      </trkpt>
      <trkpt lat="46.1611" lon="4.45794">
        <ele>668.40002441406</ele>
        <time>2023-05-30T13:11:39.000Z</time>
      </trkpt>
      <trkpt lat="46.16116" lon="4.45807">
        <ele>668.59997558594</ele>
        <time>2023-05-30T13:11:41.000Z</time>
      </trkpt>
      <trkpt lat="46.16132" lon="4.45844">
        <ele>668.79998779297</ele>
        <time>2023-05-30T13:11:47.000Z</time>
      </trkpt>
      <trkpt lat="46.1615" lon="4.45885">
        <ele>669.20001220703</ele>
        <time>2023-05-30T13:11:54.000Z</time>
      </trkpt>
      <trkpt lat="46.16161" lon="4.45909">
        <ele>669.40002441406</ele>
        <time>2023-05-30T13:11:58.000Z</time>
      </trkpt>
      <trkpt lat="46.16167" lon="4.45921">
        <ele>669.59997558594</ele>
        <time>2023-05-30T13:12:00.000Z</time>
      </trkpt>
      <trkpt lat="46.16173" lon="4.45933">
        <ele>669.79998779297</ele>
        <time>2023-05-30T13:12:02.000Z</time>
      </trkpt>
      <trkpt lat="46.16178" lon="4.45945">
        <ele>670</ele>
        <time>2023-05-30T13:12:04.000Z</time>
      </trkpt>
      <trkpt lat="46.16186" lon="4.45964">
        <ele>670.20001220703</ele>
        <time>2023-05-30T13:12:07.000Z</time>
      </trkpt>
      <trkpt lat="46.16195" lon="4.45982">
        <ele>670.59997558594</ele>
        <time>2023-05-30T13:12:10.000Z</time>
      </trkpt>
      <trkpt lat="46.16208" lon="4.46012">
        <ele>670.79998779297</ele>
        <time>2023-05-30T13:12:15.000Z</time>
      </trkpt>
      <trkpt lat="46.16211" lon="4.46019">
        <ele>670.79998779297</ele>
        <time>2023-05-30T13:12:16.000Z</time>
      </trkpt>
      <trkpt lat="46.16214" lon="4.46025">
        <ele>670.79998779297</ele>
        <time>2023-05-30T13:12:17.000Z</time>
      </trkpt>
      <trkpt lat="46.16222" lon="4.46043">
        <ele>671</ele>
        <time>2023-05-30T13:12:20.000Z</time>
      </trkpt>
      <trkpt lat="46.16233" lon="4.46067">
        <ele>671.20001220703</ele>
        <time>2023-05-30T13:12:24.000Z</time>
      </trkpt>
      <trkpt lat="46.16243" lon="4.46092">
        <ele>671.40002441406</ele>
        <time>2023-05-30T13:12:28.000Z</time>
      </trkpt>
      <trkpt lat="46.16248" lon="4.46103">
        <ele>671.59997558594</ele>
        <time>2023-05-30T13:12:30.000Z</time>
      </trkpt>
      <trkpt lat="46.16256" lon="4.46121">
        <ele>671.79998779297</ele>
        <time>2023-05-30T13:12:33.000Z</time>
      </trkpt>
      <trkpt lat="46.16258" lon="4.46127">
        <ele>671.79998779297</ele>
        <time>2023-05-30T13:12:34.000Z</time>
      </trkpt>
      <trkpt lat="46.16285" lon="4.46187">
        <ele>672.20001220703</ele>
        <time>2023-05-30T13:12:44.000Z</time>
      </trkpt>
      <trkpt lat="46.16309" lon="4.46241">
        <ele>672.40002441406</ele>
        <time>2023-05-30T13:12:53.000Z</time>
      </trkpt>
      <trkpt lat="46.16312" lon="4.46247">
        <ele>672.40002441406</ele>
        <time>2023-05-30T13:12:54.000Z</time>
      </trkpt>
      <trkpt lat="46.16315" lon="4.46254">
        <ele>672.20001220703</ele>
        <time>2023-05-30T13:12:55.000Z</time>
      </trkpt>
      <trkpt lat="46.16326" lon="4.46279">
        <ele>672.20001220703</ele>
        <time>2023-05-30T13:12:59.000Z</time>
      </trkpt>
      <trkpt lat="46.16357" lon="4.46346">
        <ele>671.59997558594</ele>
        <time>2023-05-30T13:13:09.000Z</time>
      </trkpt>
      <trkpt lat="46.16381" lon="4.464">
        <ele>671.20001220703</ele>
        <time>2023-05-30T13:13:17.000Z</time>
      </trkpt>
      <trkpt lat="46.16401" lon="4.46444">
        <ele>671.20001220703</ele>
        <time>2023-05-30T13:13:24.000Z</time>
      </trkpt>
      <trkpt lat="46.16404" lon="4.4645">
        <ele>671.20001220703</ele>
        <time>2023-05-30T13:13:25.000Z</time>
      </trkpt>
      <trkpt lat="46.16406" lon="4.46456">
        <ele>671.20001220703</ele>
        <time>2023-05-30T13:13:26.000Z</time>
      </trkpt>
      <trkpt lat="46.16417" lon="4.46478">
        <ele>671.59997558594</ele>
        <time>2023-05-30T13:13:30.000Z</time>
      </trkpt>
      <trkpt lat="46.16422" lon="4.46489">
        <ele>671.79998779297</ele>
        <time>2023-05-30T13:13:32.000Z</time>
      </trkpt>
      <trkpt lat="46.16428" lon="4.46503">
        <ele>672.20001220703</ele>
        <time>2023-05-30T13:13:35.000Z</time>
      </trkpt>
      <trkpt lat="46.16432" lon="4.46512">
        <ele>672.79998779297</ele>
        <time>2023-05-30T13:13:37.000Z</time>
      </trkpt>
      <trkpt lat="46.16439" lon="4.46525">
        <ele>673.40002441406</ele>
        <time>2023-05-30T13:13:40.000Z</time>
      </trkpt>
      <trkpt lat="46.16446" lon="4.46543">
        <ele>674</ele>
        <time>2023-05-30T13:13:44.000Z</time>
      </trkpt>
      <trkpt lat="46.16452" lon="4.46558">
        <ele>674.40002441406</ele>
        <time>2023-05-30T13:13:47.000Z</time>
      </trkpt>
      <trkpt lat="46.1646" lon="4.46576">
        <ele>675.20001220703</ele>
        <time>2023-05-30T13:13:51.000Z</time>
      </trkpt>
      <trkpt lat="46.16467" lon="4.46593">
        <ele>675.59997558594</ele>
        <time>2023-05-30T13:13:55.000Z</time>
      </trkpt>
      <trkpt lat="46.16473" lon="4.46607">
        <ele>676</ele>
        <time>2023-05-30T13:13:58.000Z</time>
      </trkpt>
      <trkpt lat="46.16475" lon="4.46612">
        <ele>676.20001220703</ele>
        <time>2023-05-30T13:13:59.000Z</time>
      </trkpt>
      <trkpt lat="46.16486" lon="4.46637">
        <ele>677.20001220703</ele>
        <time>2023-05-30T13:14:05.000Z</time>
      </trkpt>
      <trkpt lat="46.1649" lon="4.46646">
        <ele>677.40002441406</ele>
        <time>2023-05-30T13:14:07.000Z</time>
      </trkpt>
      <trkpt lat="46.16499" lon="4.46672">
        <ele>678.20001220703</ele>
        <time>2023-05-30T13:14:13.000Z</time>
      </trkpt>
      <trkpt lat="46.16504" lon="4.46691">
        <ele>678.59997558594</ele>
        <time>2023-05-30T13:14:17.000Z</time>
      </trkpt>
      <trkpt lat="46.16507" lon="4.46709">
        <ele>679.40002441406</ele>
        <time>2023-05-30T13:14:21.000Z</time>
      </trkpt>
      <trkpt lat="46.16509" lon="4.46728">
        <ele>680</ele>
        <time>2023-05-30T13:14:25.000Z</time>
      </trkpt>
      <trkpt lat="46.1651" lon="4.46732">
        <ele>680.40002441406</ele>
        <time>2023-05-30T13:14:26.000Z</time>
      </trkpt>
      <trkpt lat="46.16511" lon="4.46759">
        <ele>681.59997558594</ele>
        <time>2023-05-30T13:14:32.000Z</time>
      </trkpt>
      <trkpt lat="46.16511" lon="4.46774">
        <ele>682.40002441406</ele>
        <time>2023-05-30T13:14:35.000Z</time>
      </trkpt>
      <trkpt lat="46.16512" lon="4.46786">
        <ele>682.79998779297</ele>
        <time>2023-05-30T13:14:37.000Z</time>
      </trkpt>
      <trkpt lat="46.16511" lon="4.46791">
        <ele>682.79998779297</ele>
        <time>2023-05-30T13:14:38.000Z</time>
      </trkpt>
      <trkpt lat="46.16509" lon="4.46811">
        <ele>683.59997558594</ele>
        <time>2023-05-30T13:14:42.000Z</time>
      </trkpt>
      <trkpt lat="46.16508" lon="4.46822">
        <ele>683.79998779297</ele>
        <time>2023-05-30T13:14:44.000Z</time>
      </trkpt>
      <trkpt lat="46.16504" lon="4.46862">
        <ele>684.79998779297</ele>
        <time>2023-05-30T13:14:52.000Z</time>
      </trkpt>
      <trkpt lat="46.16503" lon="4.46868">
        <ele>684.79998779297</ele>
        <time>2023-05-30T13:14:53.000Z</time>
      </trkpt>
      <trkpt lat="46.16495" lon="4.46898">
        <ele>685.79998779297</ele>
        <time>2023-05-30T13:14:59.000Z</time>
      </trkpt>
      <trkpt lat="46.16494" lon="4.46902">
        <ele>686</ele>
        <time>2023-05-30T13:15:00.000Z</time>
      </trkpt>
      <trkpt lat="46.16488" lon="4.46925">
        <ele>686.79998779297</ele>
        <time>2023-05-30T13:15:05.000Z</time>
      </trkpt>
      <trkpt lat="46.16484" lon="4.46949">
        <ele>687.79998779297</ele>
        <time>2023-05-30T13:15:10.000Z</time>
      </trkpt>
      <trkpt lat="46.16482" lon="4.46958">
        <ele>688</ele>
        <time>2023-05-30T13:15:12.000Z</time>
      </trkpt>
      <trkpt lat="46.1648" lon="4.46982">
        <ele>689</ele>
        <time>2023-05-30T13:15:17.000Z</time>
      </trkpt>
      <trkpt lat="46.16479" lon="4.46992">
        <ele>689.40002441406</ele>
        <time>2023-05-30T13:15:19.000Z</time>
      </trkpt>
      <trkpt lat="46.16479" lon="4.47011">
        <ele>690.20001220703</ele>
        <time>2023-05-30T13:15:23.000Z</time>
      </trkpt>
      <trkpt lat="46.16482" lon="4.47031">
        <ele>690.79998779297</ele>
        <time>2023-05-30T13:15:27.000Z</time>
      </trkpt>
      <trkpt lat="46.16484" lon="4.47042">
        <ele>691.40002441406</ele>
        <time>2023-05-30T13:15:29.000Z</time>
      </trkpt>
      <trkpt lat="46.16489" lon="4.47067">
        <ele>692.59997558594</ele>
        <time>2023-05-30T13:15:34.000Z</time>
      </trkpt>
      <trkpt lat="46.1649" lon="4.47072">
        <ele>692.79998779297</ele>
        <time>2023-05-30T13:15:35.000Z</time>
      </trkpt>
      <trkpt lat="46.16496" lon="4.47097">
        <ele>693.79998779297</ele>
        <time>2023-05-30T13:15:40.000Z</time>
      </trkpt>
      <trkpt lat="46.165" lon="4.47111">
        <ele>694.20001220703</ele>
        <time>2023-05-30T13:15:43.000Z</time>
      </trkpt>
      <trkpt lat="46.16513" lon="4.47147">
        <ele>694.59997558594</ele>
        <time>2023-05-30T13:15:50.000Z</time>
      </trkpt>
      <trkpt lat="46.16525" lon="4.47173">
        <ele>694.59997558594</ele>
        <time>2023-05-30T13:15:54.000Z</time>
      </trkpt>
      <trkpt lat="46.1653" lon="4.4719">
        <ele>694.59997558594</ele>
        <time>2023-05-30T13:15:56.000Z</time>
      </trkpt>
      <trkpt lat="46.16534" lon="4.47205">
        <ele>694.40002441406</ele>
        <time>2023-05-30T13:15:58.000Z</time>
      </trkpt>
      <trkpt lat="46.16535" lon="4.47213">
        <ele>694.40002441406</ele>
        <time>2023-05-30T13:15:59.000Z</time>
      </trkpt>
      <trkpt lat="46.16535" lon="4.47224">
        <ele>694.20001220703</ele>
        <time>2023-05-30T13:16:00.000Z</time>
      </trkpt>
      <trkpt lat="46.16532" lon="4.47241">
        <ele>694</ele>
        <time>2023-05-30T13:16:02.000Z</time>
      </trkpt>
      <trkpt lat="46.16531" lon="4.47248">
        <ele>694</ele>
        <time>2023-05-30T13:16:03.000Z</time>
      </trkpt>
      <trkpt lat="46.16528" lon="4.47256">
        <ele>694</ele>
        <time>2023-05-30T13:16:04.000Z</time>
      </trkpt>
      <trkpt lat="46.16522" lon="4.47272">
        <ele>693.79998779297</ele>
        <time>2023-05-30T13:16:06.000Z</time>
      </trkpt>
      <trkpt lat="46.16515" lon="4.47285">
        <ele>693.59997558594</ele>
        <time>2023-05-30T13:16:08.000Z</time>
      </trkpt>
      <trkpt lat="46.16511" lon="4.47291">
        <ele>693.40002441406</ele>
        <time>2023-05-30T13:16:09.000Z</time>
      </trkpt>
      <trkpt lat="46.16493" lon="4.47309">
        <ele>693.20001220703</ele>
        <time>2023-05-30T13:16:13.000Z</time>
      </trkpt>
      <trkpt lat="46.16448" lon="4.47338">
        <ele>692.59997558594</ele>
        <time>2023-05-30T13:16:22.000Z</time>
      </trkpt>
      <trkpt lat="46.16414" lon="4.47359">
        <ele>692.40002441406</ele>
        <time>2023-05-30T13:16:29.000Z</time>
      </trkpt>
      <trkpt lat="46.16367" lon="4.47393">
        <ele>692.20001220703</ele>
        <time>2023-05-30T13:16:38.000Z</time>
      </trkpt>
      <trkpt lat="46.16359" lon="4.47402">
        <ele>692.20001220703</ele>
        <time>2023-05-30T13:16:40.000Z</time>
      </trkpt>
      <trkpt lat="46.16341" lon="4.47425">
        <ele>692.20001220703</ele>
        <time>2023-05-30T13:16:44.000Z</time>
      </trkpt>
      <trkpt lat="46.16316" lon="4.47475">
        <ele>692</ele>
        <time>2023-05-30T13:16:51.000Z</time>
      </trkpt>
      <trkpt lat="46.16303" lon="4.47524">
        <ele>691.79998779297</ele>
        <time>2023-05-30T13:16:57.000Z</time>
      </trkpt>
      <trkpt lat="46.163" lon="4.4755">
        <ele>691.59997558594</ele>
        <time>2023-05-30T13:17:00.000Z</time>
      </trkpt>
      <trkpt lat="46.16299" lon="4.47576">
        <ele>691.59997558594</ele>
        <time>2023-05-30T13:17:03.000Z</time>
      </trkpt>
      <trkpt lat="46.16307" lon="4.47644">
        <ele>691.40002441406</ele>
        <time>2023-05-30T13:17:11.000Z</time>
      </trkpt>
      <trkpt lat="46.16323" lon="4.47695">
        <ele>690.79998779297</ele>
        <time>2023-05-30T13:17:17.000Z</time>
      </trkpt>
      <trkpt lat="46.16327" lon="4.47702">
        <ele>690.79998779297</ele>
        <time>2023-05-30T13:17:18.000Z</time>
      </trkpt>
      <trkpt lat="46.1633" lon="4.47709">
        <ele>690.59997558594</ele>
        <time>2023-05-30T13:17:19.000Z</time>
      </trkpt>
      <trkpt lat="46.16346" lon="4.47742">
        <ele>690</ele>
        <time>2023-05-30T13:17:23.000Z</time>
      </trkpt>
      <trkpt lat="46.16357" lon="4.47764">
        <ele>689.40002441406</ele>
        <time>2023-05-30T13:17:26.000Z</time>
      </trkpt>
      <trkpt lat="46.16376" lon="4.47799">
        <ele>688.59997558594</ele>
        <time>2023-05-30T13:17:31.000Z</time>
      </trkpt>
      <trkpt lat="46.16386" lon="4.47813">
        <ele>688.20001220703</ele>
        <time>2023-05-30T13:17:33.000Z</time>
      </trkpt>
      <trkpt lat="46.16418" lon="4.47856">
        <ele>687.20001220703</ele>
        <time>2023-05-30T13:17:39.000Z</time>
      </trkpt>
      <trkpt lat="46.16422" lon="4.47862">
        <ele>687</ele>
        <time>2023-05-30T13:17:40.000Z</time>
      </trkpt>
      <trkpt lat="46.16447" lon="4.47902">
        <ele>686</ele>
        <time>2023-05-30T13:17:45.000Z</time>
      </trkpt>
      <trkpt lat="46.16452" lon="4.47912">
        <ele>685.79998779297</ele>
        <time>2023-05-30T13:17:46.000Z</time>
      </trkpt>
      <trkpt lat="46.16479" lon="4.47962">
        <ele>684.79998779297</ele>
        <time>2023-05-30T13:17:52.000Z</time>
      </trkpt>
      <trkpt lat="46.16487" lon="4.47977">
        <ele>684.40002441406</ele>
        <time>2023-05-30T13:17:54.000Z</time>
      </trkpt>
      <trkpt lat="46.16507" lon="4.4801">
        <ele>683.79998779297</ele>
        <time>2023-05-30T13:17:58.000Z</time>
      </trkpt>
      <trkpt lat="46.16517" lon="4.48022">
        <ele>683.59997558594</ele>
        <time>2023-05-30T13:18:00.000Z</time>
      </trkpt>
      <trkpt lat="46.16554" lon="4.48059">
        <ele>682.59997558594</ele>
        <time>2023-05-30T13:18:06.000Z</time>
      </trkpt>
      <trkpt lat="46.16581" lon="4.48074">
        <ele>681.79998779297</ele>
        <time>2023-05-30T13:18:10.000Z</time>
      </trkpt>
      <trkpt lat="46.16597" lon="4.48079">
        <ele>681.40002441406</ele>
        <time>2023-05-30T13:18:12.000Z</time>
      </trkpt>
      <trkpt lat="46.1662" lon="4.48084">
        <ele>680.59997558594</ele>
        <time>2023-05-30T13:18:15.000Z</time>
      </trkpt>
      <trkpt lat="46.16625" lon="4.48084">
        <ele>680.40002441406</ele>
        <time>2023-05-30T13:18:16.000Z</time>
      </trkpt>
      <trkpt lat="46.16634" lon="4.48085">
        <ele>680.20001220703</ele>
        <time>2023-05-30T13:18:17.000Z</time>
      </trkpt>
      <trkpt lat="46.16663" lon="4.48085">
        <ele>679.40002441406</ele>
        <time>2023-05-30T13:18:21.000Z</time>
      </trkpt>
      <trkpt lat="46.16693" lon="4.48084">
        <ele>678.20001220703</ele>
        <time>2023-05-30T13:18:25.000Z</time>
      </trkpt>
      <trkpt lat="46.16708" lon="4.48083">
        <ele>677.79998779297</ele>
        <time>2023-05-30T13:18:27.000Z</time>
      </trkpt>
      <trkpt lat="46.16731" lon="4.48081">
        <ele>677.20001220703</ele>
        <time>2023-05-30T13:18:30.000Z</time>
      </trkpt>
      <trkpt lat="46.16762" lon="4.48079">
        <ele>676.20001220703</ele>
        <time>2023-05-30T13:18:34.000Z</time>
      </trkpt>
      <trkpt lat="46.16777" lon="4.48078">
        <ele>675.79998779297</ele>
        <time>2023-05-30T13:18:36.000Z</time>
      </trkpt>
      <trkpt lat="46.16801" lon="4.48077">
        <ele>675</ele>
        <time>2023-05-30T13:18:39.000Z</time>
      </trkpt>
      <trkpt lat="46.16846" lon="4.48076">
        <ele>673.79998779297</ele>
        <time>2023-05-30T13:18:45.000Z</time>
      </trkpt>
      <trkpt lat="46.16892" lon="4.48083">
        <ele>672.59997558594</ele>
        <time>2023-05-30T13:18:51.000Z</time>
      </trkpt>
      <trkpt lat="46.16907" lon="4.48087">
        <ele>672.20001220703</ele>
        <time>2023-05-30T13:18:53.000Z</time>
      </trkpt>
      <trkpt lat="46.16936" lon="4.48102">
        <ele>671.40002441406</ele>
        <time>2023-05-30T13:18:57.000Z</time>
      </trkpt>
      <trkpt lat="46.16957" lon="4.48115">
        <ele>671</ele>
        <time>2023-05-30T13:19:00.000Z</time>
      </trkpt>
      <trkpt lat="46.16984" lon="4.48133">
        <ele>670.20001220703</ele>
        <time>2023-05-30T13:19:04.000Z</time>
      </trkpt>
      <trkpt lat="46.1701" lon="4.48155">
        <ele>669.20001220703</ele>
        <time>2023-05-30T13:19:08.000Z</time>
      </trkpt>
      <trkpt lat="46.17039" lon="4.48188">
        <ele>668</ele>
        <time>2023-05-30T13:19:13.000Z</time>
      </trkpt>
      <trkpt lat="46.17044" lon="4.48196">
        <ele>667.79998779297</ele>
        <time>2023-05-30T13:19:14.000Z</time>
      </trkpt>
      <trkpt lat="46.17063" lon="4.48229">
        <ele>667</ele>
        <time>2023-05-30T13:19:18.000Z</time>
      </trkpt>
      <trkpt lat="46.1707" lon="4.48246">
        <ele>666.79998779297</ele>
        <time>2023-05-30T13:19:20.000Z</time>
      </trkpt>
      <trkpt lat="46.17085" lon="4.48295">
        <ele>665.79998779297</ele>
        <time>2023-05-30T13:19:25.000Z</time>
      </trkpt>
      <trkpt lat="46.17087" lon="4.48305">
        <ele>665.79998779297</ele>
        <time>2023-05-30T13:19:26.000Z</time>
      </trkpt>
      <trkpt lat="46.17092" lon="4.48358">
        <ele>664.79998779297</ele>
        <time>2023-05-30T13:19:31.000Z</time>
      </trkpt>
      <trkpt lat="46.17092" lon="4.48369">
        <ele>664.59997558594</ele>
        <time>2023-05-30T13:19:32.000Z</time>
      </trkpt>
      <trkpt lat="46.17091" lon="4.48401">
        <ele>663.79998779297</ele>
        <time>2023-05-30T13:19:35.000Z</time>
      </trkpt>
      <trkpt lat="46.17086" lon="4.48433">
        <ele>663.40002441406</ele>
        <time>2023-05-30T13:19:38.000Z</time>
      </trkpt>
      <trkpt lat="46.17079" lon="4.48464">
        <ele>662.79998779297</ele>
        <time>2023-05-30T13:19:41.000Z</time>
      </trkpt>
      <trkpt lat="46.1707" lon="4.48493">
        <ele>661.79998779297</ele>
        <time>2023-05-30T13:19:44.000Z</time>
      </trkpt>
      <trkpt lat="46.17066" lon="4.48502">
        <ele>661.59997558594</ele>
        <time>2023-05-30T13:19:45.000Z</time>
      </trkpt>
      <trkpt lat="46.17037" lon="4.48564">
        <ele>661</ele>
        <time>2023-05-30T13:19:52.000Z</time>
      </trkpt>
      <trkpt lat="46.17026" lon="4.48588">
        <ele>660.59997558594</ele>
        <time>2023-05-30T13:19:55.000Z</time>
      </trkpt>
      <trkpt lat="46.17007" lon="4.48626">
        <ele>660.20001220703</ele>
        <time>2023-05-30T13:20:00.000Z</time>
      </trkpt>
      <trkpt lat="46.16974" lon="4.48696">
        <ele>659.59997558594</ele>
        <time>2023-05-30T13:20:09.000Z</time>
      </trkpt>
      <trkpt lat="46.1697" lon="4.48704">
        <ele>659.59997558594</ele>
        <time>2023-05-30T13:20:10.000Z</time>
      </trkpt>
      <trkpt lat="46.16938" lon="4.48768">
        <ele>659</ele>
        <time>2023-05-30T13:20:18.000Z</time>
      </trkpt>
      <trkpt lat="46.16923" lon="4.488">
        <ele>658.59997558594</ele>
        <time>2023-05-30T13:20:22.000Z</time>
      </trkpt>
      <trkpt lat="46.16907" lon="4.48831">
        <ele>658.20001220703</ele>
        <time>2023-05-30T13:20:26.000Z</time>
      </trkpt>
      <trkpt lat="46.16877" lon="4.48897">
        <ele>658</ele>
        <time>2023-05-30T13:20:34.000Z</time>
      </trkpt>
      <trkpt lat="46.16864" lon="4.48941">
        <ele>657.79998779297</ele>
        <time>2023-05-30T13:20:39.000Z</time>
      </trkpt>
      <trkpt lat="46.16863" lon="4.4895">
        <ele>657.59997558594</ele>
        <time>2023-05-30T13:20:40.000Z</time>
      </trkpt>
      <trkpt lat="46.16857" lon="4.49003">
        <ele>657.79998779297</ele>
        <time>2023-05-30T13:20:46.000Z</time>
      </trkpt>
      <trkpt lat="46.16861" lon="4.49054">
        <ele>658</ele>
        <time>2023-05-30T13:20:52.000Z</time>
      </trkpt>
      <trkpt lat="46.16864" lon="4.4907">
        <ele>658</ele>
        <time>2023-05-30T13:20:54.000Z</time>
      </trkpt>
      <trkpt lat="46.16872" lon="4.49103">
        <ele>658</ele>
        <time>2023-05-30T13:20:58.000Z</time>
      </trkpt>
      <trkpt lat="46.1689" lon="4.49177">
        <ele>657.59997558594</ele>
        <time>2023-05-30T13:21:06.000Z</time>
      </trkpt>
      <trkpt lat="46.16899" lon="4.49218">
        <ele>656.79998779297</ele>
        <time>2023-05-30T13:21:10.000Z</time>
      </trkpt>
      <trkpt lat="46.16904" lon="4.49238">
        <ele>656.20001220703</ele>
        <time>2023-05-30T13:21:12.000Z</time>
      </trkpt>
      <trkpt lat="46.16911" lon="4.49269">
        <ele>655.40002441406</ele>
        <time>2023-05-30T13:21:15.000Z</time>
      </trkpt>
      <trkpt lat="46.16924" lon="4.49321">
        <ele>654.20001220703</ele>
        <time>2023-05-30T13:21:20.000Z</time>
      </trkpt>
      <trkpt lat="46.16927" lon="4.49332">
        <ele>654</ele>
        <time>2023-05-30T13:21:21.000Z</time>
      </trkpt>
      <trkpt lat="46.16937" lon="4.49374">
        <ele>653.20001220703</ele>
        <time>2023-05-30T13:21:25.000Z</time>
      </trkpt>
      <trkpt lat="46.16945" lon="4.49406">
        <ele>652.40002441406</ele>
        <time>2023-05-30T13:21:28.000Z</time>
      </trkpt>
      <trkpt lat="46.16951" lon="4.49428">
        <ele>651.79998779297</ele>
        <time>2023-05-30T13:21:30.000Z</time>
      </trkpt>
      <trkpt lat="46.16961" lon="4.49471">
        <ele>650.59997558594</ele>
        <time>2023-05-30T13:21:34.000Z</time>
      </trkpt>
      <trkpt lat="46.16968" lon="4.49502">
        <ele>649.79998779297</ele>
        <time>2023-05-30T13:21:37.000Z</time>
      </trkpt>
      <trkpt lat="46.16971" lon="4.49512">
        <ele>649.59997558594</ele>
        <time>2023-05-30T13:21:38.000Z</time>
      </trkpt>
      <trkpt lat="46.16984" lon="4.49564">
        <ele>648.20001220703</ele>
        <time>2023-05-30T13:21:43.000Z</time>
      </trkpt>
      <trkpt lat="46.16991" lon="4.49597">
        <ele>647.20001220703</ele>
        <time>2023-05-30T13:21:46.000Z</time>
      </trkpt>
      <trkpt lat="46.16996" lon="4.49618">
        <ele>646.79998779297</ele>
        <time>2023-05-30T13:21:48.000Z</time>
      </trkpt>
      <trkpt lat="46.17004" lon="4.49652">
        <ele>646.20001220703</ele>
        <time>2023-05-30T13:21:51.000Z</time>
      </trkpt>
      <trkpt lat="46.17017" lon="4.49703">
        <ele>645</ele>
        <time>2023-05-30T13:21:56.000Z</time>
      </trkpt>
      <trkpt lat="46.17019" lon="4.49714">
        <ele>644.59997558594</ele>
        <time>2023-05-30T13:21:57.000Z</time>
      </trkpt>
      <trkpt lat="46.17027" lon="4.49746">
        <ele>644</ele>
        <time>2023-05-30T13:22:00.000Z</time>
      </trkpt>
      <trkpt lat="46.17038" lon="4.49789">
        <ele>642.79998779297</ele>
        <time>2023-05-30T13:22:04.000Z</time>
      </trkpt>
      <trkpt lat="46.17043" lon="4.49811">
        <ele>642.40002441406</ele>
        <time>2023-05-30T13:22:06.000Z</time>
      </trkpt>
      <trkpt lat="46.17052" lon="4.49845">
        <ele>641.59997558594</ele>
        <time>2023-05-30T13:22:09.000Z</time>
      </trkpt>
      <trkpt lat="46.17055" lon="4.49854">
        <ele>641.59997558594</ele>
        <time>2023-05-30T13:22:10.000Z</time>
      </trkpt>
      <trkpt lat="46.17066" lon="4.49897">
        <ele>640.79998779297</ele>
        <time>2023-05-30T13:22:14.000Z</time>
      </trkpt>
      <trkpt lat="46.1707" lon="4.49918">
        <ele>640.20001220703</ele>
        <time>2023-05-30T13:22:16.000Z</time>
      </trkpt>
      <trkpt lat="46.17082" lon="4.49962">
        <ele>638.79998779297</ele>
        <time>2023-05-30T13:22:20.000Z</time>
      </trkpt>
      <trkpt lat="46.17086" lon="4.49985">
        <ele>638</ele>
        <time>2023-05-30T13:22:22.000Z</time>
      </trkpt>
      <trkpt lat="46.17088" lon="4.49997">
        <ele>637.59997558594</ele>
        <time>2023-05-30T13:22:23.000Z</time>
      </trkpt>
      <trkpt lat="46.17099" lon="4.50044">
        <ele>636.40002441406</ele>
        <time>2023-05-30T13:22:27.000Z</time>
      </trkpt>
      <trkpt lat="46.1711" lon="4.50092">
        <ele>635.20001220703</ele>
        <time>2023-05-30T13:22:31.000Z</time>
      </trkpt>
      <trkpt lat="46.17119" lon="4.50129">
        <ele>634</ele>
        <time>2023-05-30T13:22:34.000Z</time>
      </trkpt>
      <trkpt lat="46.17131" lon="4.5018">
        <ele>632.79998779297</ele>
        <time>2023-05-30T13:22:38.000Z</time>
      </trkpt>
      <trkpt lat="46.17142" lon="4.50231">
        <ele>631.40002441406</ele>
        <time>2023-05-30T13:22:42.000Z</time>
      </trkpt>
      <trkpt lat="46.17146" lon="4.50257">
        <ele>630.59997558594</ele>
        <time>2023-05-30T13:22:44.000Z</time>
      </trkpt>
      <trkpt lat="46.17147" lon="4.5027">
        <ele>630.20001220703</ele>
        <time>2023-05-30T13:22:45.000Z</time>
      </trkpt>
      <trkpt lat="46.17147" lon="4.50324">
        <ele>628.59997558594</ele>
        <time>2023-05-30T13:22:49.000Z</time>
      </trkpt>
      <trkpt lat="46.17147" lon="4.50352">
        <ele>627.59997558594</ele>
        <time>2023-05-30T13:22:51.000Z</time>
      </trkpt>
      <trkpt lat="46.17148" lon="4.50367">
        <ele>626.79998779297</ele>
        <time>2023-05-30T13:22:52.000Z</time>
      </trkpt>
      <trkpt lat="46.17151" lon="4.5038">
        <ele>626.59997558594</ele>
        <time>2023-05-30T13:22:53.000Z</time>
      </trkpt>
      <trkpt lat="46.17154" lon="4.50394">
        <ele>625.79998779297</ele>
        <time>2023-05-30T13:22:54.000Z</time>
      </trkpt>
      <trkpt lat="46.17159" lon="4.50407">
        <ele>625.40002441406</ele>
        <time>2023-05-30T13:22:55.000Z</time>
      </trkpt>
      <trkpt lat="46.17165" lon="4.50419">
        <ele>624.79998779297</ele>
        <time>2023-05-30T13:22:56.000Z</time>
      </trkpt>
      <trkpt lat="46.17178" lon="4.50441">
        <ele>624</ele>
        <time>2023-05-30T13:22:58.000Z</time>
      </trkpt>
      <trkpt lat="46.17192" lon="4.50461">
        <ele>623</ele>
        <time>2023-05-30T13:23:00.000Z</time>
      </trkpt>
      <trkpt lat="46.172" lon="4.50471">
        <ele>622.40002441406</ele>
        <time>2023-05-30T13:23:01.000Z</time>
      </trkpt>
      <trkpt lat="46.17214" lon="4.50491">
        <ele>622</ele>
        <time>2023-05-30T13:23:03.000Z</time>
      </trkpt>
      <trkpt lat="46.17228" lon="4.50511">
        <ele>620.40002441406</ele>
        <time>2023-05-30T13:23:05.000Z</time>
      </trkpt>
      <trkpt lat="46.17249" lon="4.5054">
        <ele>619.20001220703</ele>
        <time>2023-05-30T13:23:08.000Z</time>
      </trkpt>
      <trkpt lat="46.17269" lon="4.50571">
        <ele>617.79998779297</ele>
        <time>2023-05-30T13:23:11.000Z</time>
      </trkpt>
      <trkpt lat="46.17284" lon="4.50592">
        <ele>617</ele>
        <time>2023-05-30T13:23:13.000Z</time>
      </trkpt>
      <trkpt lat="46.17297" lon="4.50613">
        <ele>616</ele>
        <time>2023-05-30T13:23:15.000Z</time>
      </trkpt>
      <trkpt lat="46.17318" lon="4.50644">
        <ele>614.79998779297</ele>
        <time>2023-05-30T13:23:18.000Z</time>
      </trkpt>
      <trkpt lat="46.17337" lon="4.50676">
        <ele>613.79998779297</ele>
        <time>2023-05-30T13:23:21.000Z</time>
      </trkpt>
      <trkpt lat="46.17354" lon="4.50711">
        <ele>612.59997558594</ele>
        <time>2023-05-30T13:23:24.000Z</time>
      </trkpt>
      <trkpt lat="46.17365" lon="4.50736">
        <ele>611.59997558594</ele>
        <time>2023-05-30T13:23:26.000Z</time>
      </trkpt>
      <trkpt lat="46.1737" lon="4.50749">
        <ele>611.20001220703</ele>
        <time>2023-05-30T13:23:27.000Z</time>
      </trkpt>
      <trkpt lat="46.17384" lon="4.50787">
        <ele>610.20001220703</ele>
        <time>2023-05-30T13:23:30.000Z</time>
      </trkpt>
      <trkpt lat="46.17394" lon="4.50813">
        <ele>609</ele>
        <time>2023-05-30T13:23:32.000Z</time>
      </trkpt>
      <trkpt lat="46.17399" lon="4.50826">
        <ele>608.59997558594</ele>
        <time>2023-05-30T13:23:33.000Z</time>
      </trkpt>
      <trkpt lat="46.17403" lon="4.50839">
        <ele>608</ele>
        <time>2023-05-30T13:23:34.000Z</time>
      </trkpt>
      <trkpt lat="46.17412" lon="4.50865">
        <ele>606.79998779297</ele>
        <time>2023-05-30T13:23:36.000Z</time>
      </trkpt>
      <trkpt lat="46.17426" lon="4.50906">
        <ele>605</ele>
        <time>2023-05-30T13:23:39.000Z</time>
      </trkpt>
      <trkpt lat="46.17436" lon="4.50931">
        <ele>604</ele>
        <time>2023-05-30T13:23:41.000Z</time>
      </trkpt>
      <trkpt lat="46.17448" lon="4.50955">
        <ele>602.59997558594</ele>
        <time>2023-05-30T13:23:43.000Z</time>
      </trkpt>
      <trkpt lat="46.17456" lon="4.50965">
        <ele>602.20001220703</ele>
        <time>2023-05-30T13:23:44.000Z</time>
      </trkpt>
      <trkpt lat="46.17465" lon="4.50977">
        <ele>601.59997558594</ele>
        <time>2023-05-30T13:23:45.000Z</time>
      </trkpt>
      <trkpt lat="46.1748" lon="4.50994">
        <ele>600.59997558594</ele>
        <time>2023-05-30T13:23:47.000Z</time>
      </trkpt>
      <trkpt lat="46.17488" lon="4.51002">
        <ele>599.79998779297</ele>
        <time>2023-05-30T13:23:48.000Z</time>
      </trkpt>
      <trkpt lat="46.17503" lon="4.5102">
        <ele>598.59997558594</ele>
        <time>2023-05-30T13:23:50.000Z</time>
      </trkpt>
      <trkpt lat="46.17519" lon="4.51038">
        <ele>597.59997558594</ele>
        <time>2023-05-30T13:23:52.000Z</time>
      </trkpt>
      <trkpt lat="46.17527" lon="4.51049">
        <ele>596.79998779297</ele>
        <time>2023-05-30T13:23:53.000Z</time>
      </trkpt>
      <trkpt lat="46.17535" lon="4.51062">
        <ele>596.20001220703</ele>
        <time>2023-05-30T13:23:54.000Z</time>
      </trkpt>
      <trkpt lat="46.17542" lon="4.51075">
        <ele>595.20001220703</ele>
        <time>2023-05-30T13:23:55.000Z</time>
      </trkpt>
      <trkpt lat="46.1756" lon="4.5111">
        <ele>593.59997558594</ele>
        <time>2023-05-30T13:23:58.000Z</time>
      </trkpt>
      <trkpt lat="46.17567" lon="4.51126">
        <ele>593.20001220703</ele>
        <time>2023-05-30T13:23:59.000Z</time>
      </trkpt>
      <trkpt lat="46.17573" lon="4.51139">
        <ele>592.20001220703</ele>
        <time>2023-05-30T13:24:00.000Z</time>
      </trkpt>
      <trkpt lat="46.17584" lon="4.51164">
        <ele>590.79998779297</ele>
        <time>2023-05-30T13:24:02.000Z</time>
      </trkpt>
      <trkpt lat="46.17597" lon="4.5119">
        <ele>589.59997558594</ele>
        <time>2023-05-30T13:24:04.000Z</time>
      </trkpt>
      <trkpt lat="46.1761" lon="4.5122">
        <ele>588.20001220703</ele>
        <time>2023-05-30T13:24:06.000Z</time>
      </trkpt>
      <trkpt lat="46.17616" lon="4.51233">
        <ele>587.59997558594</ele>
        <time>2023-05-30T13:24:07.000Z</time>
      </trkpt>
      <trkpt lat="46.17621" lon="4.51244">
        <ele>587.20001220703</ele>
        <time>2023-05-30T13:24:08.000Z</time>
      </trkpt>
      <trkpt lat="46.17635" lon="4.51274">
        <ele>586</ele>
        <time>2023-05-30T13:24:10.000Z</time>
      </trkpt>
      <trkpt lat="46.17644" lon="4.51301">
        <ele>584.20001220703</ele>
        <time>2023-05-30T13:24:12.000Z</time>
      </trkpt>
      <trkpt lat="46.17651" lon="4.51333">
        <ele>582.79998779297</ele>
        <time>2023-05-30T13:24:14.000Z</time>
      </trkpt>
      <trkpt lat="46.17653" lon="4.51349">
        <ele>582.40002441406</ele>
        <time>2023-05-30T13:24:15.000Z</time>
      </trkpt>
      <trkpt lat="46.17656" lon="4.51368">
        <ele>581.40002441406</ele>
        <time>2023-05-30T13:24:16.000Z</time>
      </trkpt>
      <trkpt lat="46.17658" lon="4.51398">
        <ele>580</ele>
        <time>2023-05-30T13:24:18.000Z</time>
      </trkpt>
      <trkpt lat="46.17661" lon="4.5143">
        <ele>578.59997558594</ele>
        <time>2023-05-30T13:24:20.000Z</time>
      </trkpt>
      <trkpt lat="46.17663" lon="4.51449">
        <ele>577.59997558594</ele>
        <time>2023-05-30T13:24:21.000Z</time>
      </trkpt>
      <trkpt lat="46.17668" lon="4.51477">
        <ele>576.79998779297</ele>
        <time>2023-05-30T13:24:23.000Z</time>
      </trkpt>
      <trkpt lat="46.17675" lon="4.51506">
        <ele>576</ele>
        <time>2023-05-30T13:24:25.000Z</time>
      </trkpt>
      <trkpt lat="46.1768" lon="4.51522">
        <ele>575</ele>
        <time>2023-05-30T13:24:26.000Z</time>
      </trkpt>
      <trkpt lat="46.17685" lon="4.51531">
        <ele>574.59997558594</ele>
        <time>2023-05-30T13:24:27.000Z</time>
      </trkpt>
      <trkpt lat="46.17697" lon="4.51554">
        <ele>573.79998779297</ele>
        <time>2023-05-30T13:24:29.000Z</time>
      </trkpt>
      <trkpt lat="46.17709" lon="4.51574">
        <ele>573.20001220703</ele>
        <time>2023-05-30T13:24:31.000Z</time>
      </trkpt>
      <trkpt lat="46.17728" lon="4.516">
        <ele>572.79998779297</ele>
        <time>2023-05-30T13:24:34.000Z</time>
      </trkpt>
      <trkpt lat="46.17751" lon="4.51634">
        <ele>572.40002441406</ele>
        <time>2023-05-30T13:24:38.000Z</time>
      </trkpt>
      <trkpt lat="46.17791" lon="4.51691">
        <ele>572.20001220703</ele>
        <time>2023-05-30T13:24:46.000Z</time>
      </trkpt>
      <trkpt lat="46.17815" lon="4.51724">
        <ele>572.40002441406</ele>
        <time>2023-05-30T13:24:51.000Z</time>
      </trkpt>
      <trkpt lat="46.1784" lon="4.51756">
        <ele>573.20001220703</ele>
        <time>2023-05-30T13:24:57.000Z</time>
      </trkpt>
      <trkpt lat="46.17847" lon="4.51766">
        <ele>573.79998779297</ele>
        <time>2023-05-30T13:24:59.000Z</time>
      </trkpt>
      <trkpt lat="46.17868" lon="4.51795">
        <ele>574.79998779297</ele>
        <time>2023-05-30T13:25:05.000Z</time>
      </trkpt>
      <trkpt lat="46.17885" lon="4.51819">
        <ele>576</ele>
        <time>2023-05-30T13:25:10.000Z</time>
      </trkpt>
      <trkpt lat="46.17896" lon="4.51834">
        <ele>576.59997558594</ele>
        <time>2023-05-30T13:25:13.000Z</time>
      </trkpt>
      <trkpt lat="46.17908" lon="4.51854">
        <ele>577.20001220703</ele>
        <time>2023-05-30T13:25:17.000Z</time>
      </trkpt>
      <trkpt lat="46.17915" lon="4.51863">
        <ele>577.59997558594</ele>
        <time>2023-05-30T13:25:19.000Z</time>
      </trkpt>
      <trkpt lat="46.17923" lon="4.5188">
        <ele>578.20001220703</ele>
        <time>2023-05-30T13:25:22.000Z</time>
      </trkpt>
      <trkpt lat="46.17926" lon="4.51886">
        <ele>578.20001220703</ele>
        <time>2023-05-30T13:25:23.000Z</time>
      </trkpt>
      <trkpt lat="46.17934" lon="4.51905">
        <ele>578.40002441406</ele>
        <time>2023-05-30T13:25:26.000Z</time>
      </trkpt>
      <trkpt lat="46.1794" lon="4.51928">
        <ele>578.20001220703</ele>
        <time>2023-05-30T13:25:29.000Z</time>
      </trkpt>
      <trkpt lat="46.17944" lon="4.51973">
        <ele>577.40002441406</ele>
        <time>2023-05-30T13:25:34.000Z</time>
      </trkpt>
      <trkpt lat="46.17944" lon="4.51985">
        <ele>577.20001220703</ele>
        <time>2023-05-30T13:25:35.000Z</time>
      </trkpt>
      <trkpt lat="46.17943" lon="4.51996">
        <ele>576.79998779297</ele>
        <time>2023-05-30T13:25:36.000Z</time>
      </trkpt>
      <trkpt lat="46.17939" lon="4.52018">
        <ele>576.20001220703</ele>
        <time>2023-05-30T13:25:38.000Z</time>
      </trkpt>
      <trkpt lat="46.17937" lon="4.52027">
        <ele>575.79998779297</ele>
        <time>2023-05-30T13:25:39.000Z</time>
      </trkpt>
      <trkpt lat="46.17932" lon="4.52054">
        <ele>574.79998779297</ele>
        <time>2023-05-30T13:25:41.000Z</time>
      </trkpt>
      <trkpt lat="46.17923" lon="4.52092">
        <ele>573.59997558594</ele>
        <time>2023-05-30T13:25:44.000Z</time>
      </trkpt>
      <trkpt lat="46.17917" lon="4.52117">
        <ele>572.59997558594</ele>
        <time>2023-05-30T13:25:46.000Z</time>
      </trkpt>
      <trkpt lat="46.17907" lon="4.52157">
        <ele>571.20001220703</ele>
        <time>2023-05-30T13:25:49.000Z</time>
      </trkpt>
      <trkpt lat="46.17901" lon="4.52184">
        <ele>569.59997558594</ele>
        <time>2023-05-30T13:25:51.000Z</time>
      </trkpt>
      <trkpt lat="46.17894" lon="4.5221">
        <ele>568.59997558594</ele>
        <time>2023-05-30T13:25:53.000Z</time>
      </trkpt>
      <trkpt lat="46.17891" lon="4.52224">
        <ele>568.20001220703</ele>
        <time>2023-05-30T13:25:54.000Z</time>
      </trkpt>
      <trkpt lat="46.17885" lon="4.52248">
        <ele>567</ele>
        <time>2023-05-30T13:25:56.000Z</time>
      </trkpt>
      <trkpt lat="46.17879" lon="4.52274">
        <ele>565.79998779297</ele>
        <time>2023-05-30T13:25:58.000Z</time>
      </trkpt>
      <trkpt lat="46.17872" lon="4.52301">
        <ele>564.20001220703</ele>
        <time>2023-05-30T13:26:00.000Z</time>
      </trkpt>
      <trkpt lat="46.17865" lon="4.52342">
        <ele>563</ele>
        <time>2023-05-30T13:26:03.000Z</time>
      </trkpt>
      <trkpt lat="46.17863" lon="4.52371">
        <ele>561.59997558594</ele>
        <time>2023-05-30T13:26:05.000Z</time>
      </trkpt>
      <trkpt lat="46.17866" lon="4.52401">
        <ele>560.40002441406</ele>
        <time>2023-05-30T13:26:07.000Z</time>
      </trkpt>
      <trkpt lat="46.17873" lon="4.5243">
        <ele>559.40002441406</ele>
        <time>2023-05-30T13:26:09.000Z</time>
      </trkpt>
      <trkpt lat="46.17876" lon="4.52443">
        <ele>558.79998779297</ele>
        <time>2023-05-30T13:26:10.000Z</time>
      </trkpt>
      <trkpt lat="46.1788" lon="4.52457">
        <ele>558</ele>
        <time>2023-05-30T13:26:11.000Z</time>
      </trkpt>
      <trkpt lat="46.17885" lon="4.5247">
        <ele>557.40002441406</ele>
        <time>2023-05-30T13:26:12.000Z</time>
      </trkpt>
      <trkpt lat="46.17893" lon="4.52499">
        <ele>556.40002441406</ele>
        <time>2023-05-30T13:26:14.000Z</time>
      </trkpt>
      <trkpt lat="46.17897" lon="4.52512">
        <ele>556</ele>
        <time>2023-05-30T13:26:15.000Z</time>
      </trkpt>
      <trkpt lat="46.17904" lon="4.52539">
        <ele>554.79998779297</ele>
        <time>2023-05-30T13:26:17.000Z</time>
      </trkpt>
      <trkpt lat="46.17912" lon="4.52566">
        <ele>553.20001220703</ele>
        <time>2023-05-30T13:26:19.000Z</time>
      </trkpt>
      <trkpt lat="46.17924" lon="4.52606">
        <ele>552</ele>
        <time>2023-05-30T13:26:22.000Z</time>
      </trkpt>
      <trkpt lat="46.17929" lon="4.52623">
        <ele>551</ele>
        <time>2023-05-30T13:26:23.000Z</time>
      </trkpt>
      <trkpt lat="46.17934" lon="4.52637">
        <ele>550.59997558594</ele>
        <time>2023-05-30T13:26:24.000Z</time>
      </trkpt>
      <trkpt lat="46.17938" lon="4.52651">
        <ele>549.59997558594</ele>
        <time>2023-05-30T13:26:25.000Z</time>
      </trkpt>
      <trkpt lat="46.17951" lon="4.52695">
        <ele>547.59997558594</ele>
        <time>2023-05-30T13:26:28.000Z</time>
      </trkpt>
      <trkpt lat="46.1796" lon="4.52724">
        <ele>546.20001220703</ele>
        <time>2023-05-30T13:26:30.000Z</time>
      </trkpt>
      <trkpt lat="46.17968" lon="4.52749">
        <ele>545.20001220703</ele>
        <time>2023-05-30T13:26:32.000Z</time>
      </trkpt>
      <trkpt lat="46.17977" lon="4.52779">
        <ele>544</ele>
        <time>2023-05-30T13:26:34.000Z</time>
      </trkpt>
      <trkpt lat="46.17984" lon="4.52803">
        <ele>543</ele>
        <time>2023-05-30T13:26:36.000Z</time>
      </trkpt>
      <trkpt lat="46.17993" lon="4.52832">
        <ele>541.40002441406</ele>
        <time>2023-05-30T13:26:38.000Z</time>
      </trkpt>
      <trkpt lat="46.18" lon="4.52858">
        <ele>540.20001220703</ele>
        <time>2023-05-30T13:26:40.000Z</time>
      </trkpt>
      <trkpt lat="46.18006" lon="4.52883">
        <ele>539.20001220703</ele>
        <time>2023-05-30T13:26:42.000Z</time>
      </trkpt>
      <trkpt lat="46.18014" lon="4.52929">
        <ele>537.40002441406</ele>
        <time>2023-05-30T13:26:45.000Z</time>
      </trkpt>
      <trkpt lat="46.18014" lon="4.52957">
        <ele>536.40002441406</ele>
        <time>2023-05-30T13:26:47.000Z</time>
      </trkpt>
      <trkpt lat="46.18014" lon="4.52975">
        <ele>536</ele>
        <time>2023-05-30T13:26:48.000Z</time>
      </trkpt>
      <trkpt lat="46.18012" lon="4.52992">
        <ele>535.40002441406</ele>
        <time>2023-05-30T13:26:49.000Z</time>
      </trkpt>
      <trkpt lat="46.18009" lon="4.53008">
        <ele>534.79998779297</ele>
        <time>2023-05-30T13:26:50.000Z</time>
      </trkpt>
      <trkpt lat="46.18005" lon="4.53024">
        <ele>534</ele>
        <time>2023-05-30T13:26:51.000Z</time>
      </trkpt>
      <trkpt lat="46.18001" lon="4.53037">
        <ele>533</ele>
        <time>2023-05-30T13:26:52.000Z</time>
      </trkpt>
      <trkpt lat="46.17994" lon="4.53055">
        <ele>532.59997558594</ele>
        <time>2023-05-30T13:26:53.000Z</time>
      </trkpt>
      <trkpt lat="46.17989" lon="4.53066">
        <ele>531.20001220703</ele>
        <time>2023-05-30T13:26:54.000Z</time>
      </trkpt>
      <trkpt lat="46.17981" lon="4.53079">
        <ele>530.79998779297</ele>
        <time>2023-05-30T13:26:55.000Z</time>
      </trkpt>
      <trkpt lat="46.17973" lon="4.53092">
        <ele>529.40002441406</ele>
        <time>2023-05-30T13:26:56.000Z</time>
      </trkpt>
      <trkpt lat="46.17956" lon="4.53117">
        <ele>527.59997558594</ele>
        <time>2023-05-30T13:26:58.000Z</time>
      </trkpt>
      <trkpt lat="46.17948" lon="4.53129">
        <ele>526.59997558594</ele>
        <time>2023-05-30T13:26:59.000Z</time>
      </trkpt>
      <trkpt lat="46.17933" lon="4.53157">
        <ele>525</ele>
        <time>2023-05-30T13:27:01.000Z</time>
      </trkpt>
      <trkpt lat="46.17926" lon="4.53172">
        <ele>524.40002441406</ele>
        <time>2023-05-30T13:27:02.000Z</time>
      </trkpt>
      <trkpt lat="46.17921" lon="4.53187">
        <ele>523.40002441406</ele>
        <time>2023-05-30T13:27:03.000Z</time>
      </trkpt>
      <trkpt lat="46.17916" lon="4.53203">
        <ele>522.40002441406</ele>
        <time>2023-05-30T13:27:04.000Z</time>
      </trkpt>
      <trkpt lat="46.17909" lon="4.53237">
        <ele>521</ele>
        <time>2023-05-30T13:27:06.000Z</time>
      </trkpt>
      <trkpt lat="46.17908" lon="4.53253">
        <ele>520.59997558594</ele>
        <time>2023-05-30T13:27:07.000Z</time>
      </trkpt>
      <trkpt lat="46.17907" lon="4.5327">
        <ele>519.20001220703</ele>
        <time>2023-05-30T13:27:08.000Z</time>
      </trkpt>
      <trkpt lat="46.17907" lon="4.53287">
        <ele>518.79998779297</ele>
        <time>2023-05-30T13:27:09.000Z</time>
      </trkpt>
      <trkpt lat="46.17909" lon="4.53304">
        <ele>517.40002441406</ele>
        <time>2023-05-30T13:27:10.000Z</time>
      </trkpt>
      <trkpt lat="46.17911" lon="4.53319">
        <ele>516.40002441406</ele>
        <time>2023-05-30T13:27:11.000Z</time>
      </trkpt>
      <trkpt lat="46.17918" lon="4.53348">
        <ele>514.59997558594</ele>
        <time>2023-05-30T13:27:13.000Z</time>
      </trkpt>
      <trkpt lat="46.17922" lon="4.53361">
        <ele>514</ele>
        <time>2023-05-30T13:27:14.000Z</time>
      </trkpt>
      <trkpt lat="46.17928" lon="4.53373">
        <ele>513.40002441406</ele>
        <time>2023-05-30T13:27:15.000Z</time>
      </trkpt>
      <trkpt lat="46.17934" lon="4.53385">
        <ele>513.20001220703</ele>
        <time>2023-05-30T13:27:16.000Z</time>
      </trkpt>
      <trkpt lat="46.1794" lon="4.53398">
        <ele>512.59997558594</ele>
        <time>2023-05-30T13:27:17.000Z</time>
      </trkpt>
      <trkpt lat="46.17946" lon="4.53411">
        <ele>511.60000610352</ele>
        <time>2023-05-30T13:27:18.000Z</time>
      </trkpt>
      <trkpt lat="46.17957" lon="4.53439">
        <ele>510</ele>
        <time>2023-05-30T13:27:20.000Z</time>
      </trkpt>
      <trkpt lat="46.17962" lon="4.53454">
        <ele>509.60000610352</ele>
        <time>2023-05-30T13:27:21.000Z</time>
      </trkpt>
      <trkpt lat="46.17968" lon="4.53469">
        <ele>508.79998779297</ele>
        <time>2023-05-30T13:27:22.000Z</time>
      </trkpt>
      <trkpt lat="46.17978" lon="4.53499">
        <ele>507.79998779297</ele>
        <time>2023-05-30T13:27:24.000Z</time>
      </trkpt>
      <trkpt lat="46.17986" lon="4.53531">
        <ele>506.39999389648</ele>
        <time>2023-05-30T13:27:26.000Z</time>
      </trkpt>
      <trkpt lat="46.17989" lon="4.53547">
        <ele>505.39999389648</ele>
        <time>2023-05-30T13:27:27.000Z</time>
      </trkpt>
      <trkpt lat="46.17992" lon="4.53581">
        <ele>503.79998779297</ele>
        <time>2023-05-30T13:27:29.000Z</time>
      </trkpt>
      <trkpt lat="46.17992" lon="4.53598">
        <ele>503.39999389648</ele>
        <time>2023-05-30T13:27:30.000Z</time>
      </trkpt>
      <trkpt lat="46.17993" lon="4.53615">
        <ele>502.39999389648</ele>
        <time>2023-05-30T13:27:31.000Z</time>
      </trkpt>
      <trkpt lat="46.17993" lon="4.53632">
        <ele>501.20001220703</ele>
        <time>2023-05-30T13:27:32.000Z</time>
      </trkpt>
      <trkpt lat="46.1799" lon="4.53665">
        <ele>499.39999389648</ele>
        <time>2023-05-30T13:27:34.000Z</time>
      </trkpt>
      <trkpt lat="46.17988" lon="4.53681">
        <ele>498.79998779297</ele>
        <time>2023-05-30T13:27:35.000Z</time>
      </trkpt>
      <trkpt lat="46.17985" lon="4.53698">
        <ele>497.79998779297</ele>
        <time>2023-05-30T13:27:36.000Z</time>
      </trkpt>
      <trkpt lat="46.17978" lon="4.5373">
        <ele>496.20001220703</ele>
        <time>2023-05-30T13:27:38.000Z</time>
      </trkpt>
      <trkpt lat="46.17973" lon="4.53746">
        <ele>495.20001220703</ele>
        <time>2023-05-30T13:27:39.000Z</time>
      </trkpt>
      <trkpt lat="46.17968" lon="4.53761">
        <ele>494.39999389648</ele>
        <time>2023-05-30T13:27:40.000Z</time>
      </trkpt>
      <trkpt lat="46.17962" lon="4.53775">
        <ele>493.20001220703</ele>
        <time>2023-05-30T13:27:41.000Z</time>
      </trkpt>
      <trkpt lat="46.1795" lon="4.53804">
        <ele>491.79998779297</ele>
        <time>2023-05-30T13:27:43.000Z</time>
      </trkpt>
      <trkpt lat="46.17935" lon="4.53829">
        <ele>490.60000610352</ele>
        <time>2023-05-30T13:27:45.000Z</time>
      </trkpt>
      <trkpt lat="46.17917" lon="4.53854">
        <ele>489.20001220703</ele>
        <time>2023-05-30T13:27:47.000Z</time>
      </trkpt>
      <trkpt lat="46.179" lon="4.53876">
        <ele>488</ele>
        <time>2023-05-30T13:27:49.000Z</time>
      </trkpt>
      <trkpt lat="46.17891" lon="4.53887">
        <ele>487</ele>
        <time>2023-05-30T13:27:50.000Z</time>
      </trkpt>
      <trkpt lat="46.17874" lon="4.53908">
        <ele>485.79998779297</ele>
        <time>2023-05-30T13:27:52.000Z</time>
      </trkpt>
      <trkpt lat="46.17865" lon="4.53919">
        <ele>484.79998779297</ele>
        <time>2023-05-30T13:27:53.000Z</time>
      </trkpt>
      <trkpt lat="46.1784" lon="4.5395">
        <ele>483.60000610352</ele>
        <time>2023-05-30T13:27:56.000Z</time>
      </trkpt>
      <trkpt lat="46.1782" lon="4.53975">
        <ele>481.79998779297</ele>
        <time>2023-05-30T13:27:58.000Z</time>
      </trkpt>
      <trkpt lat="46.17801" lon="4.53997">
        <ele>481</ele>
        <time>2023-05-30T13:28:00.000Z</time>
      </trkpt>
      <trkpt lat="46.17791" lon="4.54007">
        <ele>480.79998779297</ele>
        <time>2023-05-30T13:28:01.000Z</time>
      </trkpt>
      <trkpt lat="46.17771" lon="4.54028">
        <ele>479.60000610352</ele>
        <time>2023-05-30T13:28:03.000Z</time>
      </trkpt>
      <trkpt lat="46.17749" lon="4.54044">
        <ele>477.79998779297</ele>
        <time>2023-05-30T13:28:05.000Z</time>
      </trkpt>
      <trkpt lat="46.17726" lon="4.54055">
        <ele>476.60000610352</ele>
        <time>2023-05-30T13:28:07.000Z</time>
      </trkpt>
      <trkpt lat="46.17704" lon="4.54059">
        <ele>475.60000610352</ele>
        <time>2023-05-30T13:28:09.000Z</time>
      </trkpt>
      <trkpt lat="46.1768" lon="4.54061">
        <ele>474.39999389648</ele>
        <time>2023-05-30T13:28:11.000Z</time>
      </trkpt>
      <trkpt lat="46.17669" lon="4.54061">
        <ele>473.20001220703</ele>
        <time>2023-05-30T13:28:12.000Z</time>
      </trkpt>
      <trkpt lat="46.17646" lon="4.54062">
        <ele>472</ele>
        <time>2023-05-30T13:28:14.000Z</time>
      </trkpt>
      <trkpt lat="46.17624" lon="4.54067">
        <ele>470.60000610352</ele>
        <time>2023-05-30T13:28:16.000Z</time>
      </trkpt>
      <trkpt lat="46.17602" lon="4.54076">
        <ele>469.20001220703</ele>
        <time>2023-05-30T13:28:18.000Z</time>
      </trkpt>
      <trkpt lat="46.17591" lon="4.54082">
        <ele>468.20001220703</ele>
        <time>2023-05-30T13:28:19.000Z</time>
      </trkpt>
      <trkpt lat="46.1758" lon="4.54089">
        <ele>467.79998779297</ele>
        <time>2023-05-30T13:28:20.000Z</time>
      </trkpt>
      <trkpt lat="46.17561" lon="4.54106">
        <ele>466.20001220703</ele>
        <time>2023-05-30T13:28:22.000Z</time>
      </trkpt>
      <trkpt lat="46.17543" lon="4.54126">
        <ele>464.79998779297</ele>
        <time>2023-05-30T13:28:24.000Z</time>
      </trkpt>
      <trkpt lat="46.17536" lon="4.54135">
        <ele>463.60000610352</ele>
        <time>2023-05-30T13:28:25.000Z</time>
      </trkpt>
      <trkpt lat="46.1752" lon="4.54159">
        <ele>462.20001220703</ele>
        <time>2023-05-30T13:28:27.000Z</time>
      </trkpt>
      <trkpt lat="46.17504" lon="4.54184">
        <ele>460.79998779297</ele>
        <time>2023-05-30T13:28:29.000Z</time>
      </trkpt>
      <trkpt lat="46.17496" lon="4.54196">
        <ele>460.20001220703</ele>
        <time>2023-05-30T13:28:30.000Z</time>
      </trkpt>
      <trkpt lat="46.17488" lon="4.54208">
        <ele>459.60000610352</ele>
        <time>2023-05-30T13:28:31.000Z</time>
      </trkpt>
      <trkpt lat="46.17473" lon="4.54232">
        <ele>458.20001220703</ele>
        <time>2023-05-30T13:28:33.000Z</time>
      </trkpt>
      <trkpt lat="46.17458" lon="4.54256">
        <ele>456.60000610352</ele>
        <time>2023-05-30T13:28:35.000Z</time>
      </trkpt>
      <trkpt lat="46.17436" lon="4.54294">
        <ele>455.20001220703</ele>
        <time>2023-05-30T13:28:38.000Z</time>
      </trkpt>
      <trkpt lat="46.1743" lon="4.54308">
        <ele>454.79998779297</ele>
        <time>2023-05-30T13:28:39.000Z</time>
      </trkpt>
      <trkpt lat="46.17424" lon="4.54326">
        <ele>454</ele>
        <time>2023-05-30T13:28:40.000Z</time>
      </trkpt>
      <trkpt lat="46.17417" lon="4.54357">
        <ele>453</ele>
        <time>2023-05-30T13:28:42.000Z</time>
      </trkpt>
      <trkpt lat="46.17412" lon="4.54388">
        <ele>451.60000610352</ele>
        <time>2023-05-30T13:28:44.000Z</time>
      </trkpt>
      <trkpt lat="46.1741" lon="4.54404">
        <ele>450.39999389648</ele>
        <time>2023-05-30T13:28:45.000Z</time>
      </trkpt>
      <trkpt lat="46.17408" lon="4.54437">
        <ele>449.20001220703</ele>
        <time>2023-05-30T13:28:47.000Z</time>
      </trkpt>
      <trkpt lat="46.17403" lon="4.54468">
        <ele>447.60000610352</ele>
        <time>2023-05-30T13:28:49.000Z</time>
      </trkpt>
      <trkpt lat="46.17396" lon="4.54498">
        <ele>446.20001220703</ele>
        <time>2023-05-30T13:28:51.000Z</time>
      </trkpt>
      <trkpt lat="46.17391" lon="4.54513">
        <ele>445</ele>
        <time>2023-05-30T13:28:52.000Z</time>
      </trkpt>
      <trkpt lat="46.17378" lon="4.5454">
        <ele>443.79998779297</ele>
        <time>2023-05-30T13:28:54.000Z</time>
      </trkpt>
      <trkpt lat="46.1737" lon="4.54552">
        <ele>443.39999389648</ele>
        <time>2023-05-30T13:28:55.000Z</time>
      </trkpt>
      <trkpt lat="46.17362" lon="4.54565">
        <ele>442.39999389648</ele>
        <time>2023-05-30T13:28:56.000Z</time>
      </trkpt>
      <trkpt lat="46.17346" lon="4.5459">
        <ele>441</ele>
        <time>2023-05-30T13:28:58.000Z</time>
      </trkpt>
      <trkpt lat="46.17329" lon="4.54615">
        <ele>439.60000610352</ele>
        <time>2023-05-30T13:29:00.000Z</time>
      </trkpt>
      <trkpt lat="46.17312" lon="4.5464">
        <ele>438.20001220703</ele>
        <time>2023-05-30T13:29:02.000Z</time>
      </trkpt>
      <trkpt lat="46.17296" lon="4.54665">
        <ele>437</ele>
        <time>2023-05-30T13:29:04.000Z</time>
      </trkpt>
      <trkpt lat="46.17282" lon="4.54691">
        <ele>435</ele>
        <time>2023-05-30T13:29:06.000Z</time>
      </trkpt>
      <trkpt lat="46.1727" lon="4.5472">
        <ele>433.60000610352</ele>
        <time>2023-05-30T13:29:08.000Z</time>
      </trkpt>
      <trkpt lat="46.17261" lon="4.54753">
        <ele>432</ele>
        <time>2023-05-30T13:29:10.000Z</time>
      </trkpt>
      <trkpt lat="46.17258" lon="4.5477">
        <ele>431.39999389648</ele>
        <time>2023-05-30T13:29:11.000Z</time>
      </trkpt>
      <trkpt lat="46.17257" lon="4.54783">
        <ele>430.39999389648</ele>
        <time>2023-05-30T13:29:12.000Z</time>
      </trkpt>
      <trkpt lat="46.17255" lon="4.54804">
        <ele>429</ele>
        <time>2023-05-30T13:29:13.000Z</time>
      </trkpt>
      <trkpt lat="46.17253" lon="4.54834">
        <ele>427.60000610352</ele>
        <time>2023-05-30T13:29:15.000Z</time>
      </trkpt>
      <trkpt lat="46.17249" lon="4.54868">
        <ele>425.60000610352</ele>
        <time>2023-05-30T13:29:17.000Z</time>
      </trkpt>
      <trkpt lat="46.17246" lon="4.54885">
        <ele>425</ele>
        <time>2023-05-30T13:29:18.000Z</time>
      </trkpt>
      <trkpt lat="46.17241" lon="4.54902">
        <ele>423.79998779297</ele>
        <time>2023-05-30T13:29:19.000Z</time>
      </trkpt>
      <trkpt lat="46.17235" lon="4.54919">
        <ele>422.60000610352</ele>
        <time>2023-05-30T13:29:20.000Z</time>
      </trkpt>
      <trkpt lat="46.17223" lon="4.54952">
        <ele>420.79998779297</ele>
        <time>2023-05-30T13:29:22.000Z</time>
      </trkpt>
      <trkpt lat="46.1721" lon="4.54987">
        <ele>419.20001220703</ele>
        <time>2023-05-30T13:29:24.000Z</time>
      </trkpt>
      <trkpt lat="46.17204" lon="4.55002">
        <ele>418.20001220703</ele>
        <time>2023-05-30T13:29:25.000Z</time>
      </trkpt>
      <trkpt lat="46.17192" lon="4.55034">
        <ele>416.79998779297</ele>
        <time>2023-05-30T13:29:27.000Z</time>
      </trkpt>
      <trkpt lat="46.1718" lon="4.55064">
        <ele>415.20001220703</ele>
        <time>2023-05-30T13:29:29.000Z</time>
      </trkpt>
      <trkpt lat="46.17166" lon="4.5509">
        <ele>413.60000610352</ele>
        <time>2023-05-30T13:29:31.000Z</time>
      </trkpt>
      <trkpt lat="46.17158" lon="4.55103">
        <ele>412.39999389648</ele>
        <time>2023-05-30T13:29:32.000Z</time>
      </trkpt>
      <trkpt lat="46.17137" lon="4.55126">
        <ele>410.60000610352</ele>
        <time>2023-05-30T13:29:34.000Z</time>
      </trkpt>
      <trkpt lat="46.17126" lon="4.55135">
        <ele>410.39999389648</ele>
        <time>2023-05-30T13:29:35.000Z</time>
      </trkpt>
      <trkpt lat="46.17115" lon="4.55145">
        <ele>409.20001220703</ele>
        <time>2023-05-30T13:29:36.000Z</time>
      </trkpt>
      <trkpt lat="46.17092" lon="4.55162">
        <ele>407.60000610352</ele>
        <time>2023-05-30T13:29:38.000Z</time>
      </trkpt>
      <trkpt lat="46.17081" lon="4.55169">
        <ele>406.39999389648</ele>
        <time>2023-05-30T13:29:39.000Z</time>
      </trkpt>
      <trkpt lat="46.17059" lon="4.55183">
        <ele>404.79998779297</ele>
        <time>2023-05-30T13:29:41.000Z</time>
      </trkpt>
      <trkpt lat="46.17037" lon="4.55197">
        <ele>403.39999389648</ele>
        <time>2023-05-30T13:29:43.000Z</time>
      </trkpt>
      <trkpt lat="46.17014" lon="4.55212">
        <ele>401.60000610352</ele>
        <time>2023-05-30T13:29:45.000Z</time>
      </trkpt>
      <trkpt lat="46.17003" lon="4.55219">
        <ele>400.20001220703</ele>
        <time>2023-05-30T13:29:46.000Z</time>
      </trkpt>
      <trkpt lat="46.16989" lon="4.55229">
        <ele>399.60000610352</ele>
        <time>2023-05-30T13:29:47.000Z</time>
      </trkpt>
      <trkpt lat="46.16978" lon="4.55236">
        <ele>398.60000610352</ele>
        <time>2023-05-30T13:29:48.000Z</time>
      </trkpt>
      <trkpt lat="46.16956" lon="4.55251">
        <ele>397.20001220703</ele>
        <time>2023-05-30T13:29:50.000Z</time>
      </trkpt>
      <trkpt lat="46.16935" lon="4.55268">
        <ele>396</ele>
        <time>2023-05-30T13:29:52.000Z</time>
      </trkpt>
      <trkpt lat="46.16924" lon="4.55277">
        <ele>394.79998779297</ele>
        <time>2023-05-30T13:29:53.000Z</time>
      </trkpt>
      <trkpt lat="46.16907" lon="4.55295">
        <ele>393.39999389648</ele>
        <time>2023-05-30T13:29:55.000Z</time>
      </trkpt>
      <trkpt lat="46.16888" lon="4.55319">
        <ele>392.20001220703</ele>
        <time>2023-05-30T13:29:57.000Z</time>
      </trkpt>
      <trkpt lat="46.16879" lon="4.55331">
        <ele>391.79998779297</ele>
        <time>2023-05-30T13:29:58.000Z</time>
      </trkpt>
      <trkpt lat="46.16871" lon="4.55343">
        <ele>390.79998779297</ele>
        <time>2023-05-30T13:29:59.000Z</time>
      </trkpt>
      <trkpt lat="46.1685" lon="4.55383">
        <ele>389</ele>
        <time>2023-05-30T13:30:02.000Z</time>
      </trkpt>
      <trkpt lat="46.16843" lon="4.55398">
        <ele>388.79998779297</ele>
        <time>2023-05-30T13:30:03.000Z</time>
      </trkpt>
      <trkpt lat="46.16837" lon="4.55413">
        <ele>388</ele>
        <time>2023-05-30T13:30:04.000Z</time>
      </trkpt>
      <trkpt lat="46.16827" lon="4.55443">
        <ele>386.39999389648</ele>
        <time>2023-05-30T13:30:06.000Z</time>
      </trkpt>
      <trkpt lat="46.16817" lon="4.55473">
        <ele>385.39999389648</ele>
        <time>2023-05-30T13:30:08.000Z</time>
      </trkpt>
      <trkpt lat="46.16809" lon="4.555">
        <ele>384</ele>
        <time>2023-05-30T13:30:10.000Z</time>
      </trkpt>
      <trkpt lat="46.16796" lon="4.55545">
        <ele>382.39999389648</ele>
        <time>2023-05-30T13:30:13.000Z</time>
      </trkpt>
      <trkpt lat="46.16792" lon="4.55559">
        <ele>382.20001220703</ele>
        <time>2023-05-30T13:30:14.000Z</time>
      </trkpt>
      <trkpt lat="46.16785" lon="4.55582">
        <ele>381.39999389648</ele>
        <time>2023-05-30T13:30:16.000Z</time>
      </trkpt>
      <trkpt lat="46.1678" lon="4.55597">
        <ele>381.20001220703</ele>
        <time>2023-05-30T13:30:17.000Z</time>
      </trkpt>
      <trkpt lat="46.16769" lon="4.55635">
        <ele>381</ele>
        <time>2023-05-30T13:30:20.000Z</time>
      </trkpt>
      <trkpt lat="46.16758" lon="4.5567">
        <ele>380.39999389648</ele>
        <time>2023-05-30T13:30:23.000Z</time>
      </trkpt>
      <trkpt lat="46.16744" lon="4.55717">
        <ele>379.79998779297</ele>
        <time>2023-05-30T13:30:27.000Z</time>
      </trkpt>
      <trkpt lat="46.16728" lon="4.55771">
        <ele>379.20001220703</ele>
        <time>2023-05-30T13:30:32.000Z</time>
      </trkpt>
      <trkpt lat="46.16721" lon="4.55794">
        <ele>378.60000610352</ele>
        <time>2023-05-30T13:30:34.000Z</time>
      </trkpt>
      <trkpt lat="46.16718" lon="4.55803">
        <ele>378</ele>
        <time>2023-05-30T13:30:35.000Z</time>
      </trkpt>
      <trkpt lat="46.16706" lon="4.5584">
        <ele>377</ele>
        <time>2023-05-30T13:30:38.000Z</time>
      </trkpt>
      <trkpt lat="46.16698" lon="4.55861">
        <ele>376</ele>
        <time>2023-05-30T13:30:40.000Z</time>
      </trkpt>
      <trkpt lat="46.16693" lon="4.55875">
        <ele>375.79998779297</ele>
        <time>2023-05-30T13:30:41.000Z</time>
      </trkpt>
      <trkpt lat="46.16685" lon="4.559">
        <ele>374.79998779297</ele>
        <time>2023-05-30T13:30:43.000Z</time>
      </trkpt>
      <trkpt lat="46.16674" lon="4.55935">
        <ele>373.60000610352</ele>
        <time>2023-05-30T13:30:46.000Z</time>
      </trkpt>
      <trkpt lat="46.16664" lon="4.55967">
        <ele>372.60000610352</ele>
        <time>2023-05-30T13:30:49.000Z</time>
      </trkpt>
      <trkpt lat="46.1665" lon="4.56013">
        <ele>371</ele>
        <time>2023-05-30T13:30:53.000Z</time>
      </trkpt>
      <trkpt lat="46.16638" lon="4.56047">
        <ele>369.39999389648</ele>
        <time>2023-05-30T13:30:56.000Z</time>
      </trkpt>
      <trkpt lat="46.1663" lon="4.56073">
        <ele>369</ele>
        <time>2023-05-30T13:30:58.000Z</time>
      </trkpt>
      <trkpt lat="46.16624" lon="4.56094">
        <ele>368.60000610352</ele>
        <time>2023-05-30T13:31:00.000Z</time>
      </trkpt>
      <trkpt lat="46.16619" lon="4.56108">
        <ele>368.39999389648</ele>
        <time>2023-05-30T13:31:01.000Z</time>
      </trkpt>
      <trkpt lat="46.16605" lon="4.56151">
        <ele>367.20001220703</ele>
        <time>2023-05-30T13:31:05.000Z</time>
      </trkpt>
      <trkpt lat="46.1659" lon="4.56197">
        <ele>366.60000610352</ele>
        <time>2023-05-30T13:31:09.000Z</time>
      </trkpt>
      <trkpt lat="46.16584" lon="4.56218">
        <ele>366.20001220703</ele>
        <time>2023-05-30T13:31:11.000Z</time>
      </trkpt>
      <trkpt lat="46.16568" lon="4.56269">
        <ele>365.39999389648</ele>
        <time>2023-05-30T13:31:16.000Z</time>
      </trkpt>
      <trkpt lat="46.16565" lon="4.56279">
        <ele>365.20001220703</ele>
        <time>2023-05-30T13:31:17.000Z</time>
      </trkpt>
      <trkpt lat="46.16547" lon="4.5634">
        <ele>364.20001220703</ele>
        <time>2023-05-30T13:31:23.000Z</time>
      </trkpt>
      <trkpt lat="46.16544" lon="4.5635">
        <ele>364</ele>
        <time>2023-05-30T13:31:24.000Z</time>
      </trkpt>
      <trkpt lat="46.16523" lon="4.56413">
        <ele>363</ele>
        <time>2023-05-30T13:31:30.000Z</time>
      </trkpt>
      <trkpt lat="46.16519" lon="4.56427">
        <ele>362.20001220703</ele>
        <time>2023-05-30T13:31:31.000Z</time>
      </trkpt>
      <trkpt lat="46.16511" lon="4.56448">
        <ele>361.60000610352</ele>
        <time>2023-05-30T13:31:33.000Z</time>
      </trkpt>
      <trkpt lat="46.16507" lon="4.56459">
        <ele>361.39999389648</ele>
        <time>2023-05-30T13:31:34.000Z</time>
      </trkpt>
      <trkpt lat="46.16501" lon="4.56468">
        <ele>361</ele>
        <time>2023-05-30T13:31:35.000Z</time>
      </trkpt>
      <trkpt lat="46.16495" lon="4.56478">
        <ele>360.39999389648</ele>
        <time>2023-05-30T13:31:36.000Z</time>
      </trkpt>
      <trkpt lat="46.1647" lon="4.56517">
        <ele>359.39999389648</ele>
        <time>2023-05-30T13:31:40.000Z</time>
      </trkpt>
      <trkpt lat="46.16453" lon="4.56547">
        <ele>358.20001220703</ele>
        <time>2023-05-30T13:31:43.000Z</time>
      </trkpt>
      <trkpt lat="46.16437" lon="4.56584">
        <ele>356.79998779297</ele>
        <time>2023-05-30T13:31:46.000Z</time>
      </trkpt>
      <trkpt lat="46.16431" lon="4.56604">
        <ele>356.20001220703</ele>
        <time>2023-05-30T13:31:48.000Z</time>
      </trkpt>
      <trkpt lat="46.16427" lon="4.56618">
        <ele>355.79998779297</ele>
        <time>2023-05-30T13:31:49.000Z</time>
      </trkpt>
      <trkpt lat="46.16421" lon="4.56663">
        <ele>355.39999389648</ele>
        <time>2023-05-30T13:31:53.000Z</time>
      </trkpt>
      <trkpt lat="46.16415" lon="4.5672">
        <ele>355.39999389648</ele>
        <time>2023-05-30T13:31:59.000Z</time>
      </trkpt>
      <trkpt lat="46.1641" lon="4.56779">
        <ele>356.39999389648</ele>
        <time>2023-05-30T13:32:06.000Z</time>
      </trkpt>
      <trkpt lat="46.16407" lon="4.56809">
        <ele>357</ele>
        <time>2023-05-30T13:32:10.000Z</time>
      </trkpt>
      <trkpt lat="46.16404" lon="4.56832">
        <ele>357.60000610352</ele>
        <time>2023-05-30T13:32:13.000Z</time>
      </trkpt>
      <trkpt lat="46.16399" lon="4.5688">
        <ele>357.79998779297</ele>
        <time>2023-05-30T13:32:19.000Z</time>
      </trkpt>
      <trkpt lat="46.16397" lon="4.5689">
        <ele>357.79998779297</ele>
        <time>2023-05-30T13:32:20.000Z</time>
      </trkpt>
      <trkpt lat="46.16385" lon="4.56927">
        <ele>358</ele>
        <time>2023-05-30T13:32:25.000Z</time>
      </trkpt>
      <trkpt lat="46.16378" lon="4.56942">
        <ele>357.79998779297</ele>
        <time>2023-05-30T13:32:27.000Z</time>
      </trkpt>
      <trkpt lat="46.16352" lon="4.56976">
        <ele>356.20001220703</ele>
        <time>2023-05-30T13:32:32.000Z</time>
      </trkpt>
      <trkpt lat="46.16328" lon="4.57001">
        <ele>355</ele>
        <time>2023-05-30T13:32:36.000Z</time>
      </trkpt>
      <trkpt lat="46.16317" lon="4.5701">
        <ele>354.39999389648</ele>
        <time>2023-05-30T13:32:38.000Z</time>
      </trkpt>
      <trkpt lat="46.16311" lon="4.57016">
        <ele>354</ele>
        <time>2023-05-30T13:32:39.000Z</time>
      </trkpt>
      <trkpt lat="46.16287" lon="4.57043">
        <ele>353</ele>
        <time>2023-05-30T13:32:43.000Z</time>
      </trkpt>
      <trkpt lat="46.16282" lon="4.57052">
        <ele>352.79998779297</ele>
        <time>2023-05-30T13:32:44.000Z</time>
      </trkpt>
      <trkpt lat="46.16261" lon="4.57107">
        <ele>351.79998779297</ele>
        <time>2023-05-30T13:32:49.000Z</time>
      </trkpt>
      <trkpt lat="46.16252" lon="4.57129">
        <ele>351.39999389648</ele>
        <time>2023-05-30T13:32:51.000Z</time>
      </trkpt>
      <trkpt lat="46.16244" lon="4.57152">
        <ele>350.20001220703</ele>
        <time>2023-05-30T13:32:53.000Z</time>
      </trkpt>
      <trkpt lat="46.16231" lon="4.57189">
        <ele>349.39999389648</ele>
        <time>2023-05-30T13:32:56.000Z</time>
      </trkpt>
      <trkpt lat="46.16227" lon="4.57202">
        <ele>349</ele>
        <time>2023-05-30T13:32:57.000Z</time>
      </trkpt>
      <trkpt lat="46.16216" lon="4.57242">
        <ele>347.60000610352</ele>
        <time>2023-05-30T13:33:00.000Z</time>
      </trkpt>
      <trkpt lat="46.1621" lon="4.5727">
        <ele>346.79998779297</ele>
        <time>2023-05-30T13:33:02.000Z</time>
      </trkpt>
      <trkpt lat="46.16207" lon="4.57284">
        <ele>346.60000610352</ele>
        <time>2023-05-30T13:33:03.000Z</time>
      </trkpt>
      <trkpt lat="46.16194" lon="4.57324">
        <ele>345.39999389648</ele>
        <time>2023-05-30T13:33:06.000Z</time>
      </trkpt>
      <trkpt lat="46.16184" lon="4.5735">
        <ele>344.79998779297</ele>
        <time>2023-05-30T13:33:08.000Z</time>
      </trkpt>
      <trkpt lat="46.16179" lon="4.57363">
        <ele>344.39999389648</ele>
        <time>2023-05-30T13:33:09.000Z</time>
      </trkpt>
      <trkpt lat="46.16165" lon="4.57401">
        <ele>343.20001220703</ele>
        <time>2023-05-30T13:33:12.000Z</time>
      </trkpt>
      <trkpt lat="46.16151" lon="4.57437">
        <ele>342.20001220703</ele>
        <time>2023-05-30T13:33:15.000Z</time>
      </trkpt>
      <trkpt lat="46.16146" lon="4.57448">
        <ele>341.79998779297</ele>
        <time>2023-05-30T13:33:16.000Z</time>
      </trkpt>
      <trkpt lat="46.16136" lon="4.57471">
        <ele>341</ele>
        <time>2023-05-30T13:33:18.000Z</time>
      </trkpt>
      <trkpt lat="46.16122" lon="4.57504">
        <ele>340</ele>
        <time>2023-05-30T13:33:21.000Z</time>
      </trkpt>
      <trkpt lat="46.16112" lon="4.57526">
        <ele>339.39999389648</ele>
        <time>2023-05-30T13:33:23.000Z</time>
      </trkpt>
      <trkpt lat="46.16103" lon="4.57549">
        <ele>338.79998779297</ele>
        <time>2023-05-30T13:33:25.000Z</time>
      </trkpt>
      <trkpt lat="46.16085" lon="4.57592">
        <ele>337.79998779297</ele>
        <time>2023-05-30T13:33:29.000Z</time>
      </trkpt>
      <trkpt lat="46.16074" lon="4.57617">
        <ele>337</ele>
        <time>2023-05-30T13:33:31.000Z</time>
      </trkpt>
      <trkpt lat="46.16069" lon="4.57628">
        <ele>336.60000610352</ele>
        <time>2023-05-30T13:33:32.000Z</time>
      </trkpt>
      <trkpt lat="46.16056" lon="4.5766">
        <ele>335.60000610352</ele>
        <time>2023-05-30T13:33:35.000Z</time>
      </trkpt>
      <trkpt lat="46.16041" lon="4.57702">
        <ele>334.79998779297</ele>
        <time>2023-05-30T13:33:39.000Z</time>
      </trkpt>
      <trkpt lat="46.16034" lon="4.57721">
        <ele>334.39999389648</ele>
        <time>2023-05-30T13:33:41.000Z</time>
      </trkpt>
      <trkpt lat="46.1602" lon="4.57757">
        <ele>333.39999389648</ele>
        <time>2023-05-30T13:33:45.000Z</time>
      </trkpt>
      <trkpt lat="46.16016" lon="4.57766">
        <ele>333</ele>
        <time>2023-05-30T13:33:46.000Z</time>
      </trkpt>
      <trkpt lat="46.15996" lon="4.57814">
        <ele>331.79998779297</ele>
        <time>2023-05-30T13:33:51.000Z</time>
      </trkpt>
      <trkpt lat="46.15988" lon="4.57834">
        <ele>331.39999389648</ele>
        <time>2023-05-30T13:33:53.000Z</time>
      </trkpt>
      <trkpt lat="46.15976" lon="4.57865">
        <ele>330.60000610352</ele>
        <time>2023-05-30T13:33:56.000Z</time>
      </trkpt>
      <trkpt lat="46.15961" lon="4.57906">
        <ele>330</ele>
        <time>2023-05-30T13:34:00.000Z</time>
      </trkpt>
      <trkpt lat="46.15956" lon="4.57928">
        <ele>329.60000610352</ele>
        <time>2023-05-30T13:34:02.000Z</time>
      </trkpt>
      <trkpt lat="46.15945" lon="4.57983">
        <ele>328.79998779297</ele>
        <time>2023-05-30T13:34:07.000Z</time>
      </trkpt>
      <trkpt lat="46.1594" lon="4.58005">
        <ele>328.60000610352</ele>
        <time>2023-05-30T13:34:09.000Z</time>
      </trkpt>
      <trkpt lat="46.15935" lon="4.58037">
        <ele>328</ele>
        <time>2023-05-30T13:34:12.000Z</time>
      </trkpt>
      <trkpt lat="46.15932" lon="4.58056">
        <ele>327.39999389648</ele>
        <time>2023-05-30T13:34:14.000Z</time>
      </trkpt>
      <trkpt lat="46.1593" lon="4.58068">
        <ele>327.20001220703</ele>
        <time>2023-05-30T13:34:15.000Z</time>
      </trkpt>
      <trkpt lat="46.15923" lon="4.58097">
        <ele>326.39999389648</ele>
        <time>2023-05-30T13:34:18.000Z</time>
      </trkpt>
      <trkpt lat="46.15919" lon="4.58105">
        <ele>326</ele>
        <time>2023-05-30T13:34:19.000Z</time>
      </trkpt>
      <trkpt lat="46.15911" lon="4.58121">
        <ele>325.60000610352</ele>
        <time>2023-05-30T13:34:21.000Z</time>
      </trkpt>
      <trkpt lat="46.15906" lon="4.58129">
        <ele>325.39999389648</ele>
        <time>2023-05-30T13:34:22.000Z</time>
      </trkpt>
      <trkpt lat="46.15897" lon="4.58147">
        <ele>325</ele>
        <time>2023-05-30T13:34:24.000Z</time>
      </trkpt>
      <trkpt lat="46.15887" lon="4.58164">
        <ele>324.20001220703</ele>
        <time>2023-05-30T13:34:26.000Z</time>
      </trkpt>
      <trkpt lat="46.15875" lon="4.58177">
        <ele>323.79998779297</ele>
        <time>2023-05-30T13:34:28.000Z</time>
      </trkpt>
      <trkpt lat="46.15845" lon="4.58208">
        <ele>323.20001220703</ele>
        <time>2023-05-30T13:34:33.000Z</time>
      </trkpt>
      <trkpt lat="46.1584" lon="4.58215">
        <ele>323.20001220703</ele>
        <time>2023-05-30T13:34:34.000Z</time>
      </trkpt>
      <trkpt lat="46.15812" lon="4.58259">
        <ele>322.60000610352</ele>
        <time>2023-05-30T13:34:40.000Z</time>
      </trkpt>
      <trkpt lat="46.15793" lon="4.58289">
        <ele>322</ele>
        <time>2023-05-30T13:34:44.000Z</time>
      </trkpt>
      <trkpt lat="46.15789" lon="4.58295">
        <ele>322</ele>
        <time>2023-05-30T13:34:45.000Z</time>
      </trkpt>
      <trkpt lat="46.15782" lon="4.58302">
        <ele>321.79998779297</ele>
        <time>2023-05-30T13:34:46.000Z</time>
      </trkpt>
      <trkpt lat="46.1577" lon="4.58312">
        <ele>321.60000610352</ele>
        <time>2023-05-30T13:34:48.000Z</time>
      </trkpt>
      <trkpt lat="46.15735" lon="4.58345">
        <ele>321.20001220703</ele>
        <time>2023-05-30T13:34:54.000Z</time>
      </trkpt>
      <trkpt lat="46.15725" lon="4.58358">
        <ele>321</ele>
        <time>2023-05-30T13:34:56.000Z</time>
      </trkpt>
      <trkpt lat="46.15694" lon="4.58399">
        <ele>320.60000610352</ele>
        <time>2023-05-30T13:35:02.000Z</time>
      </trkpt>
      <trkpt lat="46.15679" lon="4.58419">
        <ele>320.20001220703</ele>
        <time>2023-05-30T13:35:05.000Z</time>
      </trkpt>
      <trkpt lat="46.15661" lon="4.58434">
        <ele>320</ele>
        <time>2023-05-30T13:35:08.000Z</time>
      </trkpt>
      <trkpt lat="46.1564" lon="4.58454">
        <ele>319.79998779297</ele>
        <time>2023-05-30T13:35:12.000Z</time>
      </trkpt>
      <trkpt lat="46.15637" lon="4.58457">
        <ele>319.79998779297</ele>
        <time>2023-05-30T13:35:13.000Z</time>
      </trkpt>
      <trkpt lat="46.15628" lon="4.58466">
        <ele>319.79998779297</ele>
        <time>2023-05-30T13:35:15.000Z</time>
      </trkpt>
      <trkpt lat="46.15617" lon="4.58471">
        <ele>319.79998779297</ele>
        <time>2023-05-30T13:35:17.000Z</time>
      </trkpt>
      <trkpt lat="46.15586" lon="4.58469">
        <ele>319.60000610352</ele>
        <time>2023-05-30T13:35:22.000Z</time>
      </trkpt>
      <trkpt lat="46.15566" lon="4.58471">
        <ele>319.20001220703</ele>
        <time>2023-05-30T13:35:25.000Z</time>
      </trkpt>
      <trkpt lat="46.15561" lon="4.58475">
        <ele>319</ele>
        <time>2023-05-30T13:35:26.000Z</time>
      </trkpt>
      <trkpt lat="46.15558" lon="4.5848">
        <ele>319</ele>
        <time>2023-05-30T13:35:27.000Z</time>
      </trkpt>
      <trkpt lat="46.15554" lon="4.58485">
        <ele>319</ele>
        <time>2023-05-30T13:35:28.000Z</time>
      </trkpt>
      <trkpt lat="46.15541" lon="4.58502">
        <ele>318.79998779297</ele>
        <time>2023-05-30T13:35:31.000Z</time>
      </trkpt>
      <trkpt lat="46.15533" lon="4.58515">
        <ele>318.79998779297</ele>
        <time>2023-05-30T13:35:33.000Z</time>
      </trkpt>
      <trkpt lat="46.15528" lon="4.5852">
        <ele>318.79998779297</ele>
        <time>2023-05-30T13:35:34.000Z</time>
      </trkpt>
      <trkpt lat="46.15519" lon="4.58532">
        <ele>318.60000610352</ele>
        <time>2023-05-30T13:35:36.000Z</time>
      </trkpt>
      <trkpt lat="46.15516" lon="4.58538">
        <ele>318.60000610352</ele>
        <time>2023-05-30T13:35:37.000Z</time>
      </trkpt>
      <trkpt lat="46.1551" lon="4.58553">
        <ele>318.39999389648</ele>
        <time>2023-05-30T13:35:39.000Z</time>
      </trkpt>
      <trkpt lat="46.15511" lon="4.58559">
        <ele>318.39999389648</ele>
        <time>2023-05-30T13:35:40.000Z</time>
      </trkpt>
      <trkpt lat="46.15511" lon="4.58571">
        <ele>318.20001220703</ele>
        <time>2023-05-30T13:35:42.000Z</time>
      </trkpt>
      <trkpt lat="46.15513" lon="4.58584">
        <ele>318</ele>
        <time>2023-05-30T13:35:44.000Z</time>
      </trkpt>
      <trkpt lat="46.15513" lon="4.58591">
        <ele>318</ele>
        <time>2023-05-30T13:35:45.000Z</time>
      </trkpt>
      <trkpt lat="46.15513" lon="4.58598">
        <ele>318</ele>
        <time>2023-05-30T13:35:46.000Z</time>
      </trkpt>
      <trkpt lat="46.15512" lon="4.58604">
        <ele>318</ele>
        <time>2023-05-30T13:35:47.000Z</time>
      </trkpt>
      <trkpt lat="46.15512" lon="4.58614">
        <ele>317.79998779297</ele>
        <time>2023-05-30T13:35:48.000Z</time>
      </trkpt>
      <trkpt lat="46.15512" lon="4.58638">
        <ele>317.79998779297</ele>
        <time>2023-05-30T13:35:51.000Z</time>
      </trkpt>
      <trkpt lat="46.15511" lon="4.58646">
        <ele>317.79998779297</ele>
        <time>2023-05-30T13:35:52.000Z</time>
      </trkpt>
      <trkpt lat="46.1551" lon="4.58671">
        <ele>317.60000610352</ele>
        <time>2023-05-30T13:35:55.000Z</time>
      </trkpt>
      <trkpt lat="46.15506" lon="4.58688">
        <ele>317.60000610352</ele>
        <time>2023-05-30T13:35:57.000Z</time>
      </trkpt>
      <trkpt lat="46.155" lon="4.58715">
        <ele>317.39999389648</ele>
        <time>2023-05-30T13:36:01.000Z</time>
      </trkpt>
      <trkpt lat="46.15497" lon="4.58718">
        <ele>317.39999389648</ele>
        <time>2023-05-30T13:36:02.000Z</time>
      </trkpt>
      <trkpt lat="46.15496" lon="4.58721">
        <ele>317.39999389648</ele>
        <time>2023-05-30T13:36:03.000Z</time>
      </trkpt>
      <trkpt lat="46.15495" lon="4.58719">
        <ele>317.39999389648</ele>
        <time>2023-05-30T13:36:04.000Z</time>
      </trkpt>
      <trkpt lat="46.15488" lon="4.58715">
        <ele>317.39999389648</ele>
        <time>2023-05-30T13:36:06.000Z</time>
      </trkpt>
      <trkpt lat="46.15482" lon="4.58714">
        <ele>317.39999389648</ele>
        <time>2023-05-30T13:36:07.000Z</time>
      </trkpt>
      <trkpt lat="46.15476" lon="4.58714">
        <ele>317.20001220703</ele>
        <time>2023-05-30T13:36:08.000Z</time>
      </trkpt>
      <trkpt lat="46.15465" lon="4.58718">
        <ele>317</ele>
        <time>2023-05-30T13:36:10.000Z</time>
      </trkpt>
      <trkpt lat="46.15455" lon="4.58726">
        <ele>316.60000610352</ele>
        <time>2023-05-30T13:36:12.000Z</time>
      </trkpt>
      <trkpt lat="46.15447" lon="4.58734">
        <ele>316.20001220703</ele>
        <time>2023-05-30T13:36:14.000Z</time>
      </trkpt>
      <trkpt lat="46.15442" lon="4.58738">
        <ele>315.60000610352</ele>
        <time>2023-05-30T13:36:15.000Z</time>
      </trkpt>
      <trkpt lat="46.15427" lon="4.5875">
        <ele>315</ele>
        <time>2023-05-30T13:36:18.000Z</time>
      </trkpt>
      <trkpt lat="46.15407" lon="4.58767">
        <ele>314.39999389648</ele>
        <time>2023-05-30T13:36:22.000Z</time>
      </trkpt>
      <trkpt lat="46.15371" lon="4.58798">
        <ele>314</ele>
        <time>2023-05-30T13:36:29.000Z</time>
      </trkpt>
      <trkpt lat="46.15334" lon="4.58827">
        <ele>313.39999389648</ele>
        <time>2023-05-30T13:36:36.000Z</time>
      </trkpt>
      <trkpt lat="46.15307" lon="4.58852">
        <ele>313</ele>
        <time>2023-05-30T13:36:41.000Z</time>
      </trkpt>
      <trkpt lat="46.15303" lon="4.58858">
        <ele>313</ele>
        <time>2023-05-30T13:36:42.000Z</time>
      </trkpt>
      <trkpt lat="46.15299" lon="4.58864">
        <ele>312.79998779297</ele>
        <time>2023-05-30T13:36:43.000Z</time>
      </trkpt>
      <trkpt lat="46.15287" lon="4.58882">
        <ele>312.60000610352</ele>
        <time>2023-05-30T13:36:46.000Z</time>
      </trkpt>
      <trkpt lat="46.1528" lon="4.58896">
        <ele>312.39999389648</ele>
        <time>2023-05-30T13:36:48.000Z</time>
      </trkpt>
      <trkpt lat="46.15275" lon="4.58908">
        <ele>312.39999389648</ele>
        <time>2023-05-30T13:36:50.000Z</time>
      </trkpt>
      <trkpt lat="46.15273" lon="4.58925">
        <ele>312.20001220703</ele>
        <time>2023-05-30T13:36:52.000Z</time>
      </trkpt>
      <trkpt lat="46.15276" lon="4.58981">
        <ele>312.20001220703</ele>
        <time>2023-05-30T13:36:59.000Z</time>
      </trkpt>
      <trkpt lat="46.15278" lon="4.5899">
        <ele>312.20001220703</ele>
        <time>2023-05-30T13:37:00.000Z</time>
      </trkpt>
      <trkpt lat="46.15285" lon="4.59003">
        <ele>312.20001220703</ele>
        <time>2023-05-30T13:37:02.000Z</time>
      </trkpt>
      <trkpt lat="46.15304" lon="4.5902">
        <ele>312.39999389648</ele>
        <time>2023-05-30T13:37:06.000Z</time>
      </trkpt>
      <trkpt lat="46.15324" lon="4.59039">
        <ele>312.39999389648</ele>
        <time>2023-05-30T13:37:11.000Z</time>
      </trkpt>
      <trkpt lat="46.15328" lon="4.59043">
        <ele>312.39999389648</ele>
        <time>2023-05-30T13:37:12.000Z</time>
      </trkpt>
      <trkpt lat="46.15336" lon="4.59053">
        <ele>313</ele>
        <time>2023-05-30T13:37:15.000Z</time>
      </trkpt>
      <trkpt lat="46.15336" lon="4.59057">
        <ele>313.39999389648</ele>
        <time>2023-05-30T13:37:16.000Z</time>
      </trkpt>
      <trkpt lat="46.15327" lon="4.5907">
        <ele>313.79998779297</ele>
        <time>2023-05-30T13:37:19.000Z</time>
      </trkpt>
      <trkpt lat="46.15308" lon="4.59099">
        <ele>314</ele>
        <time>2023-05-30T13:37:24.000Z</time>
      </trkpt>
      <trkpt lat="46.15304" lon="4.59106">
        <ele>313.79998779297</ele>
        <time>2023-05-30T13:37:25.000Z</time>
      </trkpt>
      <trkpt lat="46.15288" lon="4.59135">
        <ele>313.20001220703</ele>
        <time>2023-05-30T13:37:29.000Z</time>
      </trkpt>
      <trkpt lat="46.15258" lon="4.59187">
        <ele>312</ele>
        <time>2023-05-30T13:37:36.000Z</time>
      </trkpt>
      <trkpt lat="46.15253" lon="4.59194">
        <ele>312</ele>
        <time>2023-05-30T13:37:37.000Z</time>
      </trkpt>
      <trkpt lat="46.15222" lon="4.59246">
        <ele>311.20001220703</ele>
        <time>2023-05-30T13:37:44.000Z</time>
      </trkpt>
      <trkpt lat="46.15218" lon="4.59253">
        <ele>311.20001220703</ele>
        <time>2023-05-30T13:37:45.000Z</time>
      </trkpt>
      <trkpt lat="46.15201" lon="4.59283">
        <ele>311</ele>
        <time>2023-05-30T13:37:49.000Z</time>
      </trkpt>
      <trkpt lat="46.15176" lon="4.59327">
        <ele>310.39999389648</ele>
        <time>2023-05-30T13:37:55.000Z</time>
      </trkpt>
      <trkpt lat="46.15159" lon="4.59355">
        <ele>310.20001220703</ele>
        <time>2023-05-30T13:37:59.000Z</time>
      </trkpt>
      <trkpt lat="46.15143" lon="4.59383">
        <ele>309.79998779297</ele>
        <time>2023-05-30T13:38:03.000Z</time>
      </trkpt>
      <trkpt lat="46.15131" lon="4.59403">
        <ele>309.39999389648</ele>
        <time>2023-05-30T13:38:06.000Z</time>
      </trkpt>
      <trkpt lat="46.15116" lon="4.59432">
        <ele>309.20001220703</ele>
        <time>2023-05-30T13:38:10.000Z</time>
      </trkpt>
      <trkpt lat="46.15108" lon="4.59448">
        <ele>309</ele>
        <time>2023-05-30T13:38:12.000Z</time>
      </trkpt>
      <trkpt lat="46.15095" lon="4.59469">
        <ele>308.79998779297</ele>
        <time>2023-05-30T13:38:15.000Z</time>
      </trkpt>
      <trkpt lat="46.15083" lon="4.59491">
        <ele>308.20001220703</ele>
        <time>2023-05-30T13:38:18.000Z</time>
      </trkpt>
      <trkpt lat="46.15068" lon="4.5952">
        <ele>308.20001220703</ele>
        <time>2023-05-30T13:38:22.000Z</time>
      </trkpt>
      <trkpt lat="46.15064" lon="4.59528">
        <ele>308.20001220703</ele>
        <time>2023-05-30T13:38:23.000Z</time>
      </trkpt>
      <trkpt lat="46.15056" lon="4.59542">
        <ele>308.20001220703</ele>
        <time>2023-05-30T13:38:25.000Z</time>
      </trkpt>
      <trkpt lat="46.15048" lon="4.59556">
        <ele>308.20001220703</ele>
        <time>2023-05-30T13:38:27.000Z</time>
      </trkpt>
      <trkpt lat="46.15024" lon="4.59597">
        <ele>307.79998779297</ele>
        <time>2023-05-30T13:38:33.000Z</time>
      </trkpt>
      <trkpt lat="46.1502" lon="4.59603">
        <ele>307.79998779297</ele>
        <time>2023-05-30T13:38:34.000Z</time>
      </trkpt>
      <trkpt lat="46.15005" lon="4.59621">
        <ele>307.60000610352</ele>
        <time>2023-05-30T13:38:37.000Z</time>
      </trkpt>
      <trkpt lat="46.15001" lon="4.59625">
        <ele>307.39999389648</ele>
        <time>2023-05-30T13:38:38.000Z</time>
      </trkpt>
      <trkpt lat="46.1499" lon="4.59634">
        <ele>307.20001220703</ele>
        <time>2023-05-30T13:38:40.000Z</time>
      </trkpt>
      <trkpt lat="46.14974" lon="4.59647">
        <ele>307</ele>
        <time>2023-05-30T13:38:43.000Z</time>
      </trkpt>
      <trkpt lat="46.14968" lon="4.59651">
        <ele>307</ele>
        <time>2023-05-30T13:38:44.000Z</time>
      </trkpt>
      <trkpt lat="46.14956" lon="4.59658">
        <ele>306.60000610352</ele>
        <time>2023-05-30T13:38:46.000Z</time>
      </trkpt>
      <trkpt lat="46.14937" lon="4.59662">
        <ele>306.60000610352</ele>
        <time>2023-05-30T13:38:49.000Z</time>
      </trkpt>
      <trkpt lat="46.14931" lon="4.59664">
        <ele>306.39999389648</ele>
        <time>2023-05-30T13:38:50.000Z</time>
      </trkpt>
      <trkpt lat="46.1492" lon="4.59665">
        <ele>306</ele>
        <time>2023-05-30T13:38:52.000Z</time>
      </trkpt>
      <trkpt lat="46.1491" lon="4.59662">
        <ele>305.79998779297</ele>
        <time>2023-05-30T13:38:54.000Z</time>
      </trkpt>
      <trkpt lat="46.14904" lon="4.59664">
        <ele>305.39999389648</ele>
        <time>2023-05-30T13:38:56.000Z</time>
      </trkpt>
      <trkpt lat="46.14902" lon="4.59667">
        <ele>305.20001220703</ele>
        <time>2023-05-30T13:38:57.000Z</time>
      </trkpt>
      <trkpt lat="46.14897" lon="4.59683">
        <ele>304.79998779297</ele>
        <time>2023-05-30T13:39:00.000Z</time>
      </trkpt>
      <trkpt lat="46.14895" lon="4.5969">
        <ele>304.79998779297</ele>
        <time>2023-05-30T13:39:01.000Z</time>
      </trkpt>
      <trkpt lat="46.1489" lon="4.59702">
        <ele>304.60000610352</ele>
        <time>2023-05-30T13:39:03.000Z</time>
      </trkpt>
      <trkpt lat="46.14886" lon="4.59712">
        <ele>304.39999389648</ele>
        <time>2023-05-30T13:39:05.000Z</time>
      </trkpt>
      <trkpt lat="46.14884" lon="4.59718">
        <ele>304.20001220703</ele>
        <time>2023-05-30T13:39:06.000Z</time>
      </trkpt>
      <trkpt lat="46.14872" lon="4.5974">
        <ele>304</ele>
        <time>2023-05-30T13:39:10.000Z</time>
      </trkpt>
      <trkpt lat="46.14867" lon="4.59755">
        <ele>303.79998779297</ele>
        <time>2023-05-30T13:39:12.000Z</time>
      </trkpt>
      <trkpt lat="46.14852" lon="4.59803">
        <ele>303.60000610352</ele>
        <time>2023-05-30T13:39:18.000Z</time>
      </trkpt>
      <trkpt lat="46.1485" lon="4.59809">
        <ele>303.60000610352</ele>
        <time>2023-05-30T13:39:19.000Z</time>
      </trkpt>
      <trkpt lat="46.14831" lon="4.5987">
        <ele>303.20001220703</ele>
        <time>2023-05-30T13:39:27.000Z</time>
      </trkpt>
      <trkpt lat="46.14825" lon="4.59885">
        <ele>303.20001220703</ele>
        <time>2023-05-30T13:39:29.000Z</time>
      </trkpt>
      <trkpt lat="46.1481" lon="4.59914">
        <ele>303</ele>
        <time>2023-05-30T13:39:33.000Z</time>
      </trkpt>
      <trkpt lat="46.14806" lon="4.5992">
        <ele>302.79998779297</ele>
        <time>2023-05-30T13:39:34.000Z</time>
      </trkpt>
      <trkpt lat="46.14786" lon="4.59952">
        <ele>302.60000610352</ele>
        <time>2023-05-30T13:39:39.000Z</time>
      </trkpt>
      <trkpt lat="46.14781" lon="4.59957">
        <ele>302.39999389648</ele>
        <time>2023-05-30T13:39:40.000Z</time>
      </trkpt>
      <trkpt lat="46.14777" lon="4.59962">
        <ele>302.39999389648</ele>
        <time>2023-05-30T13:39:41.000Z</time>
      </trkpt>
      <trkpt lat="46.14773" lon="4.59967">
        <ele>302.39999389648</ele>
        <time>2023-05-30T13:39:42.000Z</time>
      </trkpt>
      <trkpt lat="46.14768" lon="4.59971">
        <ele>302.20001220703</ele>
        <time>2023-05-30T13:39:43.000Z</time>
      </trkpt>
      <trkpt lat="46.14764" lon="4.59975">
        <ele>302.20001220703</ele>
        <time>2023-05-30T13:39:44.000Z</time>
      </trkpt>
      <trkpt lat="46.14755" lon="4.59986">
        <ele>302</ele>
        <time>2023-05-30T13:39:46.000Z</time>
      </trkpt>
      <trkpt lat="46.14741" lon="4.60001">
        <ele>301.60000610352</ele>
        <time>2023-05-30T13:39:49.000Z</time>
      </trkpt>
      <trkpt lat="46.14732" lon="4.60009">
        <ele>301.60000610352</ele>
        <time>2023-05-30T13:39:51.000Z</time>
      </trkpt>
      <trkpt lat="46.14723" lon="4.60017">
        <ele>301.39999389648</ele>
        <time>2023-05-30T13:39:53.000Z</time>
      </trkpt>
      <trkpt lat="46.14687" lon="4.6004">
        <ele>300.20001220703</ele>
        <time>2023-05-30T13:40:00.000Z</time>
      </trkpt>
      <trkpt lat="46.14646" lon="4.60065">
        <ele>299.39999389648</ele>
        <time>2023-05-30T13:40:07.000Z</time>
      </trkpt>
      <trkpt lat="46.14639" lon="4.60067">
        <ele>299.39999389648</ele>
        <time>2023-05-30T13:40:08.000Z</time>
      </trkpt>
      <trkpt lat="46.14633" lon="4.6007">
        <ele>299.39999389648</ele>
        <time>2023-05-30T13:40:09.000Z</time>
      </trkpt>
      <trkpt lat="46.14617" lon="4.60077">
        <ele>299.20001220703</ele>
        <time>2023-05-30T13:40:12.000Z</time>
      </trkpt>
      <trkpt lat="46.14593" lon="4.60089">
        <ele>298.79998779297</ele>
        <time>2023-05-30T13:40:16.000Z</time>
      </trkpt>
      <trkpt lat="46.14587" lon="4.60092">
        <ele>298.79998779297</ele>
        <time>2023-05-30T13:40:17.000Z</time>
      </trkpt>
      <trkpt lat="46.14565" lon="4.60105">
        <ele>298.60000610352</ele>
        <time>2023-05-30T13:40:21.000Z</time>
      </trkpt>
      <trkpt lat="46.14554" lon="4.60112">
        <ele>298.20001220703</ele>
        <time>2023-05-30T13:40:23.000Z</time>
      </trkpt>
      <trkpt lat="46.1454" lon="4.6012">
        <ele>298.20001220703</ele>
        <time>2023-05-30T13:40:25.000Z</time>
      </trkpt>
      <trkpt lat="46.14528" lon="4.60128">
        <ele>297.79998779297</ele>
        <time>2023-05-30T13:40:27.000Z</time>
      </trkpt>
      <trkpt lat="46.1451" lon="4.60141">
        <ele>297.39999389648</ele>
        <time>2023-05-30T13:40:30.000Z</time>
      </trkpt>
      <trkpt lat="46.14503" lon="4.60147">
        <ele>297.20001220703</ele>
        <time>2023-05-30T13:40:31.000Z</time>
      </trkpt>
      <trkpt lat="46.14458" lon="4.60192">
        <ele>296.60000610352</ele>
        <time>2023-05-30T13:40:39.000Z</time>
      </trkpt>
      <trkpt lat="46.14453" lon="4.60196">
        <ele>296.60000610352</ele>
        <time>2023-05-30T13:40:40.000Z</time>
      </trkpt>
      <trkpt lat="46.1444" lon="4.60208">
        <ele>296.39999389648</ele>
        <time>2023-05-30T13:40:43.000Z</time>
      </trkpt>
      <trkpt lat="46.14436" lon="4.60212">
        <ele>296.20001220703</ele>
        <time>2023-05-30T13:40:44.000Z</time>
      </trkpt>
      <trkpt lat="46.14411" lon="4.60235">
        <ele>295.60000610352</ele>
        <time>2023-05-30T13:40:49.000Z</time>
      </trkpt>
      <trkpt lat="46.14397" lon="4.60251">
        <ele>295.39999389648</ele>
        <time>2023-05-30T13:40:52.000Z</time>
      </trkpt>
      <trkpt lat="46.14379" lon="4.60274">
        <ele>294.79998779297</ele>
        <time>2023-05-30T13:40:56.000Z</time>
      </trkpt>
      <trkpt lat="46.14352" lon="4.60312">
        <ele>294.20001220703</ele>
        <time>2023-05-30T13:41:02.000Z</time>
      </trkpt>
      <trkpt lat="46.14334" lon="4.60339">
        <ele>294.20001220703</ele>
        <time>2023-05-30T13:41:06.000Z</time>
      </trkpt>
      <trkpt lat="46.14304" lon="4.60392">
        <ele>293.79998779297</ele>
        <time>2023-05-30T13:41:13.000Z</time>
      </trkpt>
      <trkpt lat="46.14279" lon="4.6044">
        <ele>293.20001220703</ele>
        <time>2023-05-30T13:41:19.000Z</time>
      </trkpt>
      <trkpt lat="46.14268" lon="4.60465">
        <ele>293</ele>
        <time>2023-05-30T13:41:22.000Z</time>
      </trkpt>
      <trkpt lat="46.14239" lon="4.60532">
        <ele>292.60000610352</ele>
        <time>2023-05-30T13:41:30.000Z</time>
      </trkpt>
      <trkpt lat="46.1423" lon="4.60556">
        <ele>292.20001220703</ele>
        <time>2023-05-30T13:41:33.000Z</time>
      </trkpt>
      <trkpt lat="46.14222" lon="4.60578">
        <ele>291.79998779297</ele>
        <time>2023-05-30T13:41:36.000Z</time>
      </trkpt>
      <trkpt lat="46.14202" lon="4.60626">
        <ele>291</ele>
        <time>2023-05-30T13:41:42.000Z</time>
      </trkpt>
      <trkpt lat="46.14198" lon="4.60634">
        <ele>291</ele>
        <time>2023-05-30T13:41:43.000Z</time>
      </trkpt>
      <trkpt lat="46.14179" lon="4.60683">
        <ele>290</ele>
        <time>2023-05-30T13:41:49.000Z</time>
      </trkpt>
      <trkpt lat="46.14156" lon="4.60743">
        <ele>289.39999389648</ele>
        <time>2023-05-30T13:41:56.000Z</time>
      </trkpt>
      <trkpt lat="46.14146" lon="4.60769">
        <ele>289.20001220703</ele>
        <time>2023-05-30T13:41:59.000Z</time>
      </trkpt>
      <trkpt lat="46.14129" lon="4.6081">
        <ele>288.60000610352</ele>
        <time>2023-05-30T13:42:04.000Z</time>
      </trkpt>
      <trkpt lat="46.14123" lon="4.60826">
        <ele>288.60000610352</ele>
        <time>2023-05-30T13:42:06.000Z</time>
      </trkpt>
      <trkpt lat="46.14102" lon="4.60876">
        <ele>288.20001220703</ele>
        <time>2023-05-30T13:42:12.000Z</time>
      </trkpt>
      <trkpt lat="46.14096" lon="4.60892">
        <ele>287.79998779297</ele>
        <time>2023-05-30T13:42:14.000Z</time>
      </trkpt>
      <trkpt lat="46.14079" lon="4.60936">
        <ele>287.39999389648</ele>
        <time>2023-05-30T13:42:20.000Z</time>
      </trkpt>
      <trkpt lat="46.1407" lon="4.6095">
        <ele>287.20001220703</ele>
        <time>2023-05-30T13:42:24.000Z</time>
      </trkpt>
      <trkpt lat="46.14065" lon="4.60957">
        <ele>286.79998779297</ele>
        <time>2023-05-30T13:42:26.000Z</time>
      </trkpt>
      <trkpt lat="46.14062" lon="4.60969">
        <ele>286.79998779297</ele>
        <time>2023-05-30T13:42:28.000Z</time>
      </trkpt>
      <trkpt lat="46.1406" lon="4.60984">
        <ele>286.60000610352</ele>
        <time>2023-05-30T13:42:30.000Z</time>
      </trkpt>
      <trkpt lat="46.14056" lon="4.60999">
        <ele>286.20001220703</ele>
        <time>2023-05-30T13:42:32.000Z</time>
      </trkpt>
      <trkpt lat="46.14051" lon="4.61014">
        <ele>286</ele>
        <time>2023-05-30T13:42:34.000Z</time>
      </trkpt>
      <trkpt lat="46.14041" lon="4.61037">
        <ele>285.60000610352</ele>
        <time>2023-05-30T13:42:37.000Z</time>
      </trkpt>
      <trkpt lat="46.14014" lon="4.611">
        <ele>285.20001220703</ele>
        <time>2023-05-30T13:42:45.000Z</time>
      </trkpt>
      <trkpt lat="46.14011" lon="4.61108">
        <ele>285.20001220703</ele>
        <time>2023-05-30T13:42:46.000Z</time>
      </trkpt>
      <trkpt lat="46.13987" lon="4.61166">
        <ele>284.20001220703</ele>
        <time>2023-05-30T13:42:53.000Z</time>
      </trkpt>
      <trkpt lat="46.13984" lon="4.61174">
        <ele>284.20001220703</ele>
        <time>2023-05-30T13:42:54.000Z</time>
      </trkpt>
      <trkpt lat="46.13962" lon="4.61228">
        <ele>284</ele>
        <time>2023-05-30T13:43:01.000Z</time>
      </trkpt>
      <trkpt lat="46.13958" lon="4.61236">
        <ele>284</ele>
        <time>2023-05-30T13:43:02.000Z</time>
      </trkpt>
      <trkpt lat="46.13952" lon="4.61251">
        <ele>283.79998779297</ele>
        <time>2023-05-30T13:43:04.000Z</time>
      </trkpt>
      <trkpt lat="46.13948" lon="4.61259">
        <ele>283.79998779297</ele>
        <time>2023-05-30T13:43:05.000Z</time>
      </trkpt>
      <trkpt lat="46.13942" lon="4.61275">
        <ele>284</ele>
        <time>2023-05-30T13:43:07.000Z</time>
      </trkpt>
      <trkpt lat="46.13923" lon="4.61315">
        <ele>283.39999389648</ele>
        <time>2023-05-30T13:43:12.000Z</time>
      </trkpt>
      <trkpt lat="46.13915" lon="4.61332">
        <ele>283.39999389648</ele>
        <time>2023-05-30T13:43:14.000Z</time>
      </trkpt>
      <trkpt lat="46.13895" lon="4.61372">
        <ele>283</ele>
        <time>2023-05-30T13:43:19.000Z</time>
      </trkpt>
      <trkpt lat="46.13875" lon="4.61415">
        <ele>282.39999389648</ele>
        <time>2023-05-30T13:43:25.000Z</time>
      </trkpt>
      <trkpt lat="46.13869" lon="4.61429">
        <ele>282.39999389648</ele>
        <time>2023-05-30T13:43:27.000Z</time>
      </trkpt>
      <trkpt lat="46.13848" lon="4.61465">
        <ele>281.79998779297</ele>
        <time>2023-05-30T13:43:32.000Z</time>
      </trkpt>
      <trkpt lat="46.13823" lon="4.6151">
        <ele>281.20001220703</ele>
        <time>2023-05-30T13:43:38.000Z</time>
      </trkpt>
      <trkpt lat="46.13814" lon="4.61525">
        <ele>281</ele>
        <time>2023-05-30T13:43:40.000Z</time>
      </trkpt>
      <trkpt lat="46.13793" lon="4.61561">
        <ele>280.79998779297</ele>
        <time>2023-05-30T13:43:45.000Z</time>
      </trkpt>
      <trkpt lat="46.13789" lon="4.61568">
        <ele>280.79998779297</ele>
        <time>2023-05-30T13:43:46.000Z</time>
      </trkpt>
      <trkpt lat="46.13771" lon="4.61597">
        <ele>280.39999389648</ele>
        <time>2023-05-30T13:43:50.000Z</time>
      </trkpt>
      <trkpt lat="46.13762" lon="4.61611">
        <ele>280.39999389648</ele>
        <time>2023-05-30T13:43:52.000Z</time>
      </trkpt>
      <trkpt lat="46.13731" lon="4.61661">
        <ele>279.79998779297</ele>
        <time>2023-05-30T13:43:59.000Z</time>
      </trkpt>
      <trkpt lat="46.13718" lon="4.61681">
        <ele>279.39999389648</ele>
        <time>2023-05-30T13:44:02.000Z</time>
      </trkpt>
      <trkpt lat="46.13704" lon="4.617">
        <ele>279.20001220703</ele>
        <time>2023-05-30T13:44:05.000Z</time>
      </trkpt>
      <trkpt lat="46.13677" lon="4.6174">
        <ele>278.79998779297</ele>
        <time>2023-05-30T13:44:11.000Z</time>
      </trkpt>
      <trkpt lat="46.13663" lon="4.6176">
        <ele>278.39999389648</ele>
        <time>2023-05-30T13:44:14.000Z</time>
      </trkpt>
      <trkpt lat="46.1364" lon="4.61794">
        <ele>277.20001220703</ele>
        <time>2023-05-30T13:44:19.000Z</time>
      </trkpt>
      <trkpt lat="46.13631" lon="4.61808">
        <ele>276.79998779297</ele>
        <time>2023-05-30T13:44:21.000Z</time>
      </trkpt>
      <trkpt lat="46.13613" lon="4.61834">
        <ele>276.20001220703</ele>
        <time>2023-05-30T13:44:25.000Z</time>
      </trkpt>
      <trkpt lat="46.136" lon="4.61854">
        <ele>275.79998779297</ele>
        <time>2023-05-30T13:44:28.000Z</time>
      </trkpt>
      <trkpt lat="46.13577" lon="4.61888">
        <ele>275.39999389648</ele>
        <time>2023-05-30T13:44:33.000Z</time>
      </trkpt>
      <trkpt lat="46.13552" lon="4.61925">
        <ele>275.20001220703</ele>
        <time>2023-05-30T13:44:38.000Z</time>
      </trkpt>
      <trkpt lat="46.13517" lon="4.61977">
        <ele>274.39999389648</ele>
        <time>2023-05-30T13:44:45.000Z</time>
      </trkpt>
      <trkpt lat="46.13501" lon="4.61999">
        <ele>274.39999389648</ele>
        <time>2023-05-30T13:44:48.000Z</time>
      </trkpt>
      <trkpt lat="46.13462" lon="4.62057">
        <ele>273.60000610352</ele>
        <time>2023-05-30T13:44:56.000Z</time>
      </trkpt>
      <trkpt lat="46.13448" lon="4.62078">
        <ele>273.39999389648</ele>
        <time>2023-05-30T13:44:59.000Z</time>
      </trkpt>
      <trkpt lat="46.13435" lon="4.62098">
        <ele>273.39999389648</ele>
        <time>2023-05-30T13:45:02.000Z</time>
      </trkpt>
      <trkpt lat="46.13416" lon="4.62126">
        <ele>273.20001220703</ele>
        <time>2023-05-30T13:45:06.000Z</time>
      </trkpt>
      <trkpt lat="46.13411" lon="4.62132">
        <ele>273</ele>
        <time>2023-05-30T13:45:07.000Z</time>
      </trkpt>
      <trkpt lat="46.1339" lon="4.62165">
        <ele>273</ele>
        <time>2023-05-30T13:45:12.000Z</time>
      </trkpt>
      <trkpt lat="46.1336" lon="4.62211">
        <ele>272.79998779297</ele>
        <time>2023-05-30T13:45:19.000Z</time>
      </trkpt>
      <trkpt lat="46.13336" lon="4.62244">
        <ele>272.39999389648</ele>
        <time>2023-05-30T13:45:24.000Z</time>
      </trkpt>
      <trkpt lat="46.13323" lon="4.62265">
        <ele>272.39999389648</ele>
        <time>2023-05-30T13:45:27.000Z</time>
      </trkpt>
      <trkpt lat="46.13315" lon="4.62278">
        <ele>272.39999389648</ele>
        <time>2023-05-30T13:45:29.000Z</time>
      </trkpt>
      <trkpt lat="46.13303" lon="4.62298">
        <ele>272.39999389648</ele>
        <time>2023-05-30T13:45:32.000Z</time>
      </trkpt>
      <trkpt lat="46.13266" lon="4.62351">
        <ele>272.79998779297</ele>
        <time>2023-05-30T13:45:40.000Z</time>
      </trkpt>
      <trkpt lat="46.13261" lon="4.62358">
        <ele>272.79998779297</ele>
        <time>2023-05-30T13:45:41.000Z</time>
      </trkpt>
      <trkpt lat="46.13242" lon="4.62385">
        <ele>272.39999389648</ele>
        <time>2023-05-30T13:45:45.000Z</time>
      </trkpt>
      <trkpt lat="46.13233" lon="4.62399">
        <ele>272.39999389648</ele>
        <time>2023-05-30T13:45:47.000Z</time>
      </trkpt>
      <trkpt lat="46.13202" lon="4.62446">
        <ele>271.79998779297</ele>
        <time>2023-05-30T13:45:54.000Z</time>
      </trkpt>
      <trkpt lat="46.13198" lon="4.62453">
        <ele>271.60000610352</ele>
        <time>2023-05-30T13:45:55.000Z</time>
      </trkpt>
      <trkpt lat="46.13165" lon="4.62501">
        <ele>270.60000610352</ele>
        <time>2023-05-30T13:46:02.000Z</time>
      </trkpt>
      <trkpt lat="46.13161" lon="4.62507">
        <ele>270.60000610352</ele>
        <time>2023-05-30T13:46:03.000Z</time>
      </trkpt>
      <trkpt lat="46.13144" lon="4.62531">
        <ele>270</ele>
        <time>2023-05-30T13:46:08.000Z</time>
      </trkpt>
      <trkpt lat="46.13137" lon="4.62542">
        <ele>269.79998779297</ele>
        <time>2023-05-30T13:46:12.000Z</time>
      </trkpt>
      <trkpt lat="46.13122" lon="4.62564">
        <ele>269.39999389648</ele>
        <time>2023-05-30T13:46:17.000Z</time>
      </trkpt>
      <trkpt lat="46.13113" lon="4.6258">
        <ele>269.20001220703</ele>
        <time>2023-05-30T13:46:20.000Z</time>
      </trkpt>
      <trkpt lat="46.131" lon="4.62598">
        <ele>269.20001220703</ele>
        <time>2023-05-30T13:46:23.000Z</time>
      </trkpt>
      <trkpt lat="46.13092" lon="4.62611">
        <ele>269.20001220703</ele>
        <time>2023-05-30T13:46:25.000Z</time>
      </trkpt>
      <trkpt lat="46.1308" lon="4.6263">
        <ele>269</ele>
        <time>2023-05-30T13:46:28.000Z</time>
      </trkpt>
      <trkpt lat="46.13061" lon="4.6266">
        <ele>268.79998779297</ele>
        <time>2023-05-30T13:46:32.000Z</time>
      </trkpt>
      <trkpt lat="46.13057" lon="4.62666">
        <ele>268.79998779297</ele>
        <time>2023-05-30T13:46:33.000Z</time>
      </trkpt>
      <trkpt lat="46.13025" lon="4.62718">
        <ele>268.20001220703</ele>
        <time>2023-05-30T13:46:40.000Z</time>
      </trkpt>
      <trkpt lat="46.1302" lon="4.62725">
        <ele>268</ele>
        <time>2023-05-30T13:46:41.000Z</time>
      </trkpt>
      <trkpt lat="46.12985" lon="4.62781">
        <ele>267.60000610352</ele>
        <time>2023-05-30T13:46:49.000Z</time>
      </trkpt>
      <trkpt lat="46.12955" lon="4.62832">
        <ele>267.20001220703</ele>
        <time>2023-05-30T13:46:56.000Z</time>
      </trkpt>
      <trkpt lat="46.12938" lon="4.62859">
        <ele>266.79998779297</ele>
        <time>2023-05-30T13:47:00.000Z</time>
      </trkpt>
      <trkpt lat="46.12916" lon="4.62894">
        <ele>266.60000610352</ele>
        <time>2023-05-30T13:47:05.000Z</time>
      </trkpt>
      <trkpt lat="46.12876" lon="4.62958">
        <ele>265.79998779297</ele>
        <time>2023-05-30T13:47:14.000Z</time>
      </trkpt>
      <trkpt lat="46.12838" lon="4.63016">
        <ele>265.79998779297</ele>
        <time>2023-05-30T13:47:22.000Z</time>
      </trkpt>
      <trkpt lat="46.12806" lon="4.63066">
        <ele>265.39999389648</ele>
        <time>2023-05-30T13:47:29.000Z</time>
      </trkpt>
      <trkpt lat="46.12782" lon="4.63103">
        <ele>265</ele>
        <time>2023-05-30T13:47:34.000Z</time>
      </trkpt>
      <trkpt lat="46.12773" lon="4.63118">
        <ele>264.60000610352</ele>
        <time>2023-05-30T13:47:36.000Z</time>
      </trkpt>
      <trkpt lat="46.12746" lon="4.6316">
        <ele>264.20001220703</ele>
        <time>2023-05-30T13:47:42.000Z</time>
      </trkpt>
      <trkpt lat="46.12732" lon="4.63181">
        <ele>264</ele>
        <time>2023-05-30T13:47:45.000Z</time>
      </trkpt>
      <trkpt lat="46.12727" lon="4.63186">
        <ele>263.79998779297</ele>
        <time>2023-05-30T13:47:46.000Z</time>
      </trkpt>
      <trkpt lat="46.127" lon="4.63229">
        <ele>263</ele>
        <time>2023-05-30T13:47:52.000Z</time>
      </trkpt>
      <trkpt lat="46.12682" lon="4.63259">
        <ele>262.60000610352</ele>
        <time>2023-05-30T13:47:56.000Z</time>
      </trkpt>
      <trkpt lat="46.1265" lon="4.63311">
        <ele>262.39999389648</ele>
        <time>2023-05-30T13:48:03.000Z</time>
      </trkpt>
      <trkpt lat="46.12637" lon="4.63332">
        <ele>262.39999389648</ele>
        <time>2023-05-30T13:48:06.000Z</time>
      </trkpt>
      <trkpt lat="46.12619" lon="4.63361">
        <ele>262.20001220703</ele>
        <time>2023-05-30T13:48:10.000Z</time>
      </trkpt>
      <trkpt lat="46.12611" lon="4.63375">
        <ele>262.20001220703</ele>
        <time>2023-05-30T13:48:12.000Z</time>
      </trkpt>
      <trkpt lat="46.12584" lon="4.63419">
        <ele>262</ele>
        <time>2023-05-30T13:48:18.000Z</time>
      </trkpt>
      <trkpt lat="46.12557" lon="4.63464">
        <ele>261.79998779297</ele>
        <time>2023-05-30T13:48:25.000Z</time>
      </trkpt>
      <trkpt lat="46.12544" lon="4.63482">
        <ele>262</ele>
        <time>2023-05-30T13:48:28.000Z</time>
      </trkpt>
      <trkpt lat="46.12533" lon="4.63498">
        <ele>262</ele>
        <time>2023-05-30T13:48:31.000Z</time>
      </trkpt>
      <trkpt lat="46.12523" lon="4.63515">
        <ele>261.79998779297</ele>
        <time>2023-05-30T13:48:35.000Z</time>
      </trkpt>
      <trkpt lat="46.12516" lon="4.63525">
        <ele>261.60000610352</ele>
        <time>2023-05-30T13:48:40.000Z</time>
      </trkpt>
      <trkpt lat="46.12513" lon="4.63528">
        <ele>261.39999389648</ele>
        <time>2023-05-30T13:48:41.000Z</time>
      </trkpt>
      <trkpt lat="46.12503" lon="4.63541">
        <ele>261</ele>
        <time>2023-05-30T13:48:44.000Z</time>
      </trkpt>
      <trkpt lat="46.12482" lon="4.63574">
        <ele>260.79998779297</ele>
        <time>2023-05-30T13:48:49.000Z</time>
      </trkpt>
      <trkpt lat="46.12469" lon="4.63593">
        <ele>260.39999389648</ele>
        <time>2023-05-30T13:48:52.000Z</time>
      </trkpt>
      <trkpt lat="46.12452" lon="4.63618">
        <ele>260</ele>
        <time>2023-05-30T13:48:56.000Z</time>
      </trkpt>
      <trkpt lat="46.12428" lon="4.63658">
        <ele>259.60000610352</ele>
        <time>2023-05-30T13:49:02.000Z</time>
      </trkpt>
      <trkpt lat="46.1242" lon="4.63672">
        <ele>259.39999389648</ele>
        <time>2023-05-30T13:49:04.000Z</time>
      </trkpt>
      <trkpt lat="46.12401" lon="4.63706">
        <ele>258.79998779297</ele>
        <time>2023-05-30T13:49:09.000Z</time>
      </trkpt>
      <trkpt lat="46.12388" lon="4.63726">
        <ele>258.39999389648</ele>
        <time>2023-05-30T13:49:12.000Z</time>
      </trkpt>
      <trkpt lat="46.12357" lon="4.63775">
        <ele>257.79998779297</ele>
        <time>2023-05-30T13:49:19.000Z</time>
      </trkpt>
      <trkpt lat="46.12343" lon="4.63796">
        <ele>257.39999389648</ele>
        <time>2023-05-30T13:49:22.000Z</time>
      </trkpt>
      <trkpt lat="46.12307" lon="4.63853">
        <ele>256.39999389648</ele>
        <time>2023-05-30T13:49:30.000Z</time>
      </trkpt>
      <trkpt lat="46.12281" lon="4.63893">
        <ele>255.60000610352</ele>
        <time>2023-05-30T13:49:36.000Z</time>
      </trkpt>
      <trkpt lat="46.12273" lon="4.63906">
        <ele>255.19999694824</ele>
        <time>2023-05-30T13:49:38.000Z</time>
      </trkpt>
      <trkpt lat="46.12234" lon="4.63965">
        <ele>254.60000610352</ele>
        <time>2023-05-30T13:49:47.000Z</time>
      </trkpt>
      <trkpt lat="46.1223" lon="4.63972">
        <ele>254.60000610352</ele>
        <time>2023-05-30T13:49:48.000Z</time>
      </trkpt>
      <trkpt lat="46.12208" lon="4.64006">
        <ele>254.39999389648</ele>
        <time>2023-05-30T13:49:53.000Z</time>
      </trkpt>
      <trkpt lat="46.12191" lon="4.64032">
        <ele>254.39999389648</ele>
        <time>2023-05-30T13:49:57.000Z</time>
      </trkpt>
      <trkpt lat="46.12167" lon="4.6407">
        <ele>253.80000305176</ele>
        <time>2023-05-30T13:50:03.000Z</time>
      </trkpt>
      <trkpt lat="46.12152" lon="4.64094">
        <ele>253.60000610352</ele>
        <time>2023-05-30T13:50:07.000Z</time>
      </trkpt>
      <trkpt lat="46.12131" lon="4.64125">
        <ele>253.60000610352</ele>
        <time>2023-05-30T13:50:12.000Z</time>
      </trkpt>
      <trkpt lat="46.12091" lon="4.64189">
        <ele>253</ele>
        <time>2023-05-30T13:50:21.000Z</time>
      </trkpt>
      <trkpt lat="46.12087" lon="4.64196">
        <ele>253</ele>
        <time>2023-05-30T13:50:22.000Z</time>
      </trkpt>
      <trkpt lat="46.12054" lon="4.64248">
        <ele>252.60000610352</ele>
        <time>2023-05-30T13:50:29.000Z</time>
      </trkpt>
      <trkpt lat="46.1202" lon="4.64305">
        <ele>252.60000610352</ele>
        <time>2023-05-30T13:50:37.000Z</time>
      </trkpt>
      <trkpt lat="46.11989" lon="4.64366">
        <ele>252.39999389648</ele>
        <time>2023-05-30T13:50:45.000Z</time>
      </trkpt>
      <trkpt lat="46.11978" lon="4.64389">
        <ele>252.39999389648</ele>
        <time>2023-05-30T13:50:48.000Z</time>
      </trkpt>
      <trkpt lat="46.11968" lon="4.64412">
        <ele>252.60000610352</ele>
        <time>2023-05-30T13:50:51.000Z</time>
      </trkpt>
      <trkpt lat="46.11958" lon="4.64434">
        <ele>253</ele>
        <time>2023-05-30T13:50:54.000Z</time>
      </trkpt>
      <trkpt lat="46.11952" lon="4.64451">
        <ele>253.19999694824</ele>
        <time>2023-05-30T13:50:56.000Z</time>
      </trkpt>
      <trkpt lat="46.11926" lon="4.64531">
        <ele>253</ele>
        <time>2023-05-30T13:51:05.000Z</time>
      </trkpt>
      <trkpt lat="46.1191" lon="4.6459">
        <ele>252.39999389648</ele>
        <time>2023-05-30T13:51:12.000Z</time>
      </trkpt>
      <trkpt lat="46.11891" lon="4.64672">
        <ele>252.19999694824</ele>
        <time>2023-05-30T13:51:21.000Z</time>
      </trkpt>
      <trkpt lat="46.1189" lon="4.64679">
        <ele>252.19999694824</ele>
        <time>2023-05-30T13:51:22.000Z</time>
      </trkpt>
      <trkpt lat="46.11884" lon="4.64716">
        <ele>252</ele>
        <time>2023-05-30T13:51:26.000Z</time>
      </trkpt>
      <trkpt lat="46.11881" lon="4.64744">
        <ele>251.80000305176</ele>
        <time>2023-05-30T13:51:29.000Z</time>
      </trkpt>
      <trkpt lat="46.11878" lon="4.64763">
        <ele>251.60000610352</ele>
        <time>2023-05-30T13:51:31.000Z</time>
      </trkpt>
      <trkpt lat="46.11872" lon="4.6481">
        <ele>251</ele>
        <time>2023-05-30T13:51:36.000Z</time>
      </trkpt>
      <trkpt lat="46.11868" lon="4.6485">
        <ele>250.80000305176</ele>
        <time>2023-05-30T13:51:40.000Z</time>
      </trkpt>
      <trkpt lat="46.11866" lon="4.64929">
        <ele>250</ele>
        <time>2023-05-30T13:51:48.000Z</time>
      </trkpt>
      <trkpt lat="46.11869" lon="4.6501">
        <ele>249.60000610352</ele>
        <time>2023-05-30T13:51:56.000Z</time>
      </trkpt>
      <trkpt lat="46.1187" lon="4.65027">
        <ele>249.60000610352</ele>
        <time>2023-05-30T13:51:58.000Z</time>
      </trkpt>
      <trkpt lat="46.11872" lon="4.65074">
        <ele>249.19999694824</ele>
        <time>2023-05-30T13:52:03.000Z</time>
      </trkpt>
      <trkpt lat="46.11873" lon="4.65099">
        <ele>249.19999694824</ele>
        <time>2023-05-30T13:52:06.000Z</time>
      </trkpt>
      <trkpt lat="46.11875" lon="4.65131">
        <ele>249.19999694824</ele>
        <time>2023-05-30T13:52:09.000Z</time>
      </trkpt>
      <trkpt lat="46.11876" lon="4.6515">
        <ele>248.80000305176</ele>
        <time>2023-05-30T13:52:14.000Z</time>
      </trkpt>
      <trkpt lat="46.11878" lon="4.65174">
        <ele>248.60000610352</ele>
        <time>2023-05-30T13:52:19.000Z</time>
      </trkpt>
      <trkpt lat="46.1188" lon="4.65179">
        <ele>248.39999389648</ele>
        <time>2023-05-30T13:52:22.000Z</time>
      </trkpt>
      <trkpt lat="46.1188" lon="4.65179">
        <ele>248.39999389648</ele>
        <time>2023-05-30T13:52:23.000Z</time>
      </trkpt>
      <trkpt lat="46.1188" lon="4.65181">
        <ele>248</ele>
        <time>2023-05-30T14:09:58.000Z</time>
      </trkpt>
      <trkpt lat="46.1188" lon="4.65189">
        <ele>248</ele>
        <time>2023-05-30T14:10:00.000Z</time>
      </trkpt>
      <trkpt lat="46.1188" lon="4.65218">
        <ele>247.80000305176</ele>
        <time>2023-05-30T14:10:05.000Z</time>
      </trkpt>
      <trkpt lat="46.11881" lon="4.65267">
        <ele>247.80000305176</ele>
        <time>2023-05-30T14:10:11.000Z</time>
      </trkpt>
      <trkpt lat="46.11883" lon="4.6533">
        <ele>247.39999389648</ele>
        <time>2023-05-30T14:10:18.000Z</time>
      </trkpt>
      <trkpt lat="46.11886" lon="4.65396">
        <ele>247</ele>
        <time>2023-05-30T14:10:25.000Z</time>
      </trkpt>
      <trkpt lat="46.11887" lon="4.65415">
        <ele>247</ele>
        <time>2023-05-30T14:10:27.000Z</time>
      </trkpt>
      <trkpt lat="46.11889" lon="4.6547">
        <ele>246.39999389648</ele>
        <time>2023-05-30T14:10:33.000Z</time>
      </trkpt>
      <trkpt lat="46.11892" lon="4.65534">
        <ele>246.19999694824</ele>
        <time>2023-05-30T14:10:40.000Z</time>
      </trkpt>
      <trkpt lat="46.11894" lon="4.65547">
        <ele>246.19999694824</ele>
        <time>2023-05-30T14:10:42.000Z</time>
      </trkpt>
      <trkpt lat="46.11894" lon="4.65553">
        <ele>246</ele>
        <time>2023-05-30T14:10:43.000Z</time>
      </trkpt>
      <trkpt lat="46.11894" lon="4.65562">
        <ele>246</ele>
        <time>2023-05-30T14:10:44.000Z</time>
      </trkpt>
      <trkpt lat="46.11896" lon="4.65604">
        <ele>245.60000610352</ele>
        <time>2023-05-30T14:10:49.000Z</time>
      </trkpt>
      <trkpt lat="46.11899" lon="4.65681">
        <ele>245.19999694824</ele>
        <time>2023-05-30T14:10:57.000Z</time>
      </trkpt>
      <trkpt lat="46.11899" lon="4.65698">
        <ele>245</ele>
        <time>2023-05-30T14:10:59.000Z</time>
      </trkpt>
      <trkpt lat="46.11903" lon="4.65782">
        <ele>244.60000610352</ele>
        <time>2023-05-30T14:11:08.000Z</time>
      </trkpt>
      <trkpt lat="46.11903" lon="4.65789">
        <ele>244.60000610352</ele>
        <time>2023-05-30T14:11:09.000Z</time>
      </trkpt>
      <trkpt lat="46.11907" lon="4.65874">
        <ele>244.39999389648</ele>
        <time>2023-05-30T14:11:18.000Z</time>
      </trkpt>
      <trkpt lat="46.11908" lon="4.65884">
        <ele>244.39999389648</ele>
        <time>2023-05-30T14:11:19.000Z</time>
      </trkpt>
      <trkpt lat="46.1191" lon="4.65939">
        <ele>244.19999694824</ele>
        <time>2023-05-30T14:11:25.000Z</time>
      </trkpt>
      <trkpt lat="46.11912" lon="4.65979">
        <ele>244</ele>
        <time>2023-05-30T14:11:29.000Z</time>
      </trkpt>
      <trkpt lat="46.11917" lon="4.66054">
        <ele>243.39999389648</ele>
        <time>2023-05-30T14:11:37.000Z</time>
      </trkpt>
      <trkpt lat="46.1192" lon="4.66087">
        <ele>243.19999694824</ele>
        <time>2023-05-30T14:11:41.000Z</time>
      </trkpt>
      <trkpt lat="46.11922" lon="4.66109">
        <ele>243</ele>
        <time>2023-05-30T14:11:44.000Z</time>
      </trkpt>
      <trkpt lat="46.11927" lon="4.66151">
        <ele>243</ele>
        <time>2023-05-30T14:11:50.000Z</time>
      </trkpt>
      <trkpt lat="46.11935" lon="4.66211">
        <ele>242.80000305176</ele>
        <time>2023-05-30T14:11:57.000Z</time>
      </trkpt>
      <trkpt lat="46.11949" lon="4.66286">
        <ele>242.19999694824</ele>
        <time>2023-05-30T14:12:05.000Z</time>
      </trkpt>
      <trkpt lat="46.1195" lon="4.66295">
        <ele>242.19999694824</ele>
        <time>2023-05-30T14:12:06.000Z</time>
      </trkpt>
      <trkpt lat="46.11952" lon="4.66302">
        <ele>242.19999694824</ele>
        <time>2023-05-30T14:12:07.000Z</time>
      </trkpt>
      <trkpt lat="46.11964" lon="4.66355">
        <ele>242</ele>
        <time>2023-05-30T14:12:13.000Z</time>
      </trkpt>
      <trkpt lat="46.1197" lon="4.66385">
        <ele>242</ele>
        <time>2023-05-30T14:12:16.000Z</time>
      </trkpt>
      <trkpt lat="46.11987" lon="4.66455">
        <ele>242</ele>
        <time>2023-05-30T14:12:24.000Z</time>
      </trkpt>
      <trkpt lat="46.12002" lon="4.66522">
        <ele>241.80000305176</ele>
        <time>2023-05-30T14:12:31.000Z</time>
      </trkpt>
      <trkpt lat="46.12018" lon="4.66596">
        <ele>241.80000305176</ele>
        <time>2023-05-30T14:12:39.000Z</time>
      </trkpt>
      <trkpt lat="46.12021" lon="4.66615">
        <ele>241.60000610352</ele>
        <time>2023-05-30T14:12:41.000Z</time>
      </trkpt>
      <trkpt lat="46.12028" lon="4.66643">
        <ele>241.39999389648</ele>
        <time>2023-05-30T14:12:44.000Z</time>
      </trkpt>
      <trkpt lat="46.12046" lon="4.66716">
        <ele>241</ele>
        <time>2023-05-30T14:12:52.000Z</time>
      </trkpt>
      <trkpt lat="46.12059" lon="4.66778">
        <ele>240.80000305176</ele>
        <time>2023-05-30T14:12:59.000Z</time>
      </trkpt>
      <trkpt lat="46.12075" lon="4.66856">
        <ele>240.80000305176</ele>
        <time>2023-05-30T14:13:08.000Z</time>
      </trkpt>
      <trkpt lat="46.12081" lon="4.66886">
        <ele>240.60000610352</ele>
        <time>2023-05-30T14:13:12.000Z</time>
      </trkpt>
      <trkpt lat="46.12082" lon="4.6689">
        <ele>240.60000610352</ele>
        <time>2023-05-30T14:13:13.000Z</time>
      </trkpt>
      <trkpt lat="46.12086" lon="4.6691">
        <ele>240.39999389648</ele>
        <time>2023-05-30T14:13:17.000Z</time>
      </trkpt>
      <trkpt lat="46.12096" lon="4.66959">
        <ele>240.19999694824</ele>
        <time>2023-05-30T14:13:23.000Z</time>
      </trkpt>
      <trkpt lat="46.12109" lon="4.6702">
        <ele>239.60000610352</ele>
        <time>2023-05-30T14:13:30.000Z</time>
      </trkpt>
      <trkpt lat="46.12125" lon="4.6709">
        <ele>239</ele>
        <time>2023-05-30T14:13:38.000Z</time>
      </trkpt>
      <trkpt lat="46.12136" lon="4.67143">
        <ele>238.39999389648</ele>
        <time>2023-05-30T14:13:44.000Z</time>
      </trkpt>
      <trkpt lat="46.12144" lon="4.6718">
        <ele>237.80000305176</ele>
        <time>2023-05-30T14:13:48.000Z</time>
      </trkpt>
      <trkpt lat="46.12149" lon="4.67207">
        <ele>237.39999389648</ele>
        <time>2023-05-30T14:13:51.000Z</time>
      </trkpt>
      <trkpt lat="46.12154" lon="4.67233">
        <ele>237.60000610352</ele>
        <time>2023-05-30T14:13:54.000Z</time>
      </trkpt>
      <trkpt lat="46.12156" lon="4.67242">
        <ele>237.39999389648</ele>
        <time>2023-05-30T14:13:55.000Z</time>
      </trkpt>
      <trkpt lat="46.12167" lon="4.67312">
        <ele>237.19999694824</ele>
        <time>2023-05-30T14:14:03.000Z</time>
      </trkpt>
      <trkpt lat="46.12178" lon="4.67377">
        <ele>237</ele>
        <time>2023-05-30T14:14:11.000Z</time>
      </trkpt>
      <trkpt lat="46.12179" lon="4.67384">
        <ele>237</ele>
        <time>2023-05-30T14:14:12.000Z</time>
      </trkpt>
      <trkpt lat="46.12183" lon="4.67406">
        <ele>237</ele>
        <time>2023-05-30T14:14:15.000Z</time>
      </trkpt>
      <trkpt lat="46.1219" lon="4.67457">
        <ele>236.80000305176</ele>
        <time>2023-05-30T14:14:21.000Z</time>
      </trkpt>
      <trkpt lat="46.122" lon="4.6752">
        <ele>236.60000610352</ele>
        <time>2023-05-30T14:14:28.000Z</time>
      </trkpt>
      <trkpt lat="46.12211" lon="4.67594">
        <ele>236</ele>
        <time>2023-05-30T14:14:36.000Z</time>
      </trkpt>
      <trkpt lat="46.12218" lon="4.67631">
        <ele>235.60000610352</ele>
        <time>2023-05-30T14:14:40.000Z</time>
      </trkpt>
      <trkpt lat="46.12223" lon="4.67667">
        <ele>235.60000610352</ele>
        <time>2023-05-30T14:14:44.000Z</time>
      </trkpt>
      <trkpt lat="46.12237" lon="4.67748">
        <ele>235.39999389648</ele>
        <time>2023-05-30T14:14:53.000Z</time>
      </trkpt>
      <trkpt lat="46.12241" lon="4.67774">
        <ele>235.39999389648</ele>
        <time>2023-05-30T14:14:56.000Z</time>
      </trkpt>
      <trkpt lat="46.12253" lon="4.67853">
        <ele>235.60000610352</ele>
        <time>2023-05-30T14:15:05.000Z</time>
      </trkpt>
      <trkpt lat="46.12264" lon="4.67916">
        <ele>235.19999694824</ele>
        <time>2023-05-30T14:15:12.000Z</time>
      </trkpt>
      <trkpt lat="46.12269" lon="4.67949">
        <ele>234.80000305176</ele>
        <time>2023-05-30T14:15:16.000Z</time>
      </trkpt>
      <trkpt lat="46.12273" lon="4.67974">
        <ele>234.19999694824</ele>
        <time>2023-05-30T14:15:20.000Z</time>
      </trkpt>
      <trkpt lat="46.12274" lon="4.6798">
        <ele>234</ele>
        <time>2023-05-30T14:15:22.000Z</time>
      </trkpt>
      <trkpt lat="46.12274" lon="4.67982">
        <ele>234</ele>
        <time>2023-05-30T14:15:23.000Z</time>
      </trkpt>
      <trkpt lat="46.12277" lon="4.68002">
        <ele>233.80000305176</ele>
        <time>2023-05-30T14:15:27.000Z</time>
      </trkpt>
      <trkpt lat="46.12278" lon="4.68007">
        <ele>233.60000610352</ele>
        <time>2023-05-30T14:15:28.000Z</time>
      </trkpt>
      <trkpt lat="46.12284" lon="4.68049">
        <ele>233.60000610352</ele>
        <time>2023-05-30T14:15:34.000Z</time>
      </trkpt>
      <trkpt lat="46.12295" lon="4.6811">
        <ele>233.39999389648</ele>
        <time>2023-05-30T14:15:42.000Z</time>
      </trkpt>
      <trkpt lat="46.12306" lon="4.68182">
        <ele>233.80000305176</ele>
        <time>2023-05-30T14:15:51.000Z</time>
      </trkpt>
      <trkpt lat="46.12318" lon="4.68259">
        <ele>233.80000305176</ele>
        <time>2023-05-30T14:16:00.000Z</time>
      </trkpt>
      <trkpt lat="46.12327" lon="4.68316">
        <ele>234</ele>
        <time>2023-05-30T14:16:07.000Z</time>
      </trkpt>
      <trkpt lat="46.12333" lon="4.68368">
        <ele>234.19999694824</ele>
        <time>2023-05-30T14:16:13.000Z</time>
      </trkpt>
      <trkpt lat="46.12333" lon="4.68376">
        <ele>234.19999694824</ele>
        <time>2023-05-30T14:16:14.000Z</time>
      </trkpt>
      <trkpt lat="46.12336" lon="4.68401">
        <ele>234.19999694824</ele>
        <time>2023-05-30T14:16:17.000Z</time>
      </trkpt>
      <trkpt lat="46.12337" lon="4.68409">
        <ele>234.19999694824</ele>
        <time>2023-05-30T14:16:18.000Z</time>
      </trkpt>
      <trkpt lat="46.12348" lon="4.68473">
        <ele>234</ele>
        <time>2023-05-30T14:16:26.000Z</time>
      </trkpt>
      <trkpt lat="46.12357" lon="4.68527">
        <ele>233.80000305176</ele>
        <time>2023-05-30T14:16:32.000Z</time>
      </trkpt>
      <trkpt lat="46.12361" lon="4.68548">
        <ele>233.80000305176</ele>
        <time>2023-05-30T14:16:34.000Z</time>
      </trkpt>
      <trkpt lat="46.12365" lon="4.68572">
        <ele>233.60000610352</ele>
        <time>2023-05-30T14:16:37.000Z</time>
      </trkpt>
      <trkpt lat="46.12377" lon="4.68622">
        <ele>232.80000305176</ele>
        <time>2023-05-30T14:16:43.000Z</time>
      </trkpt>
      <trkpt lat="46.12385" lon="4.68691">
        <ele>232.39999389648</ele>
        <time>2023-05-30T14:16:51.000Z</time>
      </trkpt>
      <trkpt lat="46.12387" lon="4.68727">
        <ele>232</ele>
        <time>2023-05-30T14:16:55.000Z</time>
      </trkpt>
      <trkpt lat="46.12387" lon="4.68747">
        <ele>231.80000305176</ele>
        <time>2023-05-30T14:16:57.000Z</time>
      </trkpt>
      <trkpt lat="46.12388" lon="4.68757">
        <ele>231.80000305176</ele>
        <time>2023-05-30T14:16:58.000Z</time>
      </trkpt>
      <trkpt lat="46.12386" lon="4.68805">
        <ele>231.39999389648</ele>
        <time>2023-05-30T14:17:03.000Z</time>
      </trkpt>
      <trkpt lat="46.12385" lon="4.68815">
        <ele>231.19999694824</ele>
        <time>2023-05-30T14:17:04.000Z</time>
      </trkpt>
      <trkpt lat="46.12383" lon="4.68844">
        <ele>230.80000305176</ele>
        <time>2023-05-30T14:17:07.000Z</time>
      </trkpt>
      <trkpt lat="46.12379" lon="4.68904">
        <ele>230</ele>
        <time>2023-05-30T14:17:13.000Z</time>
      </trkpt>
      <trkpt lat="46.12378" lon="4.68965">
        <ele>229.60000610352</ele>
        <time>2023-05-30T14:17:19.000Z</time>
      </trkpt>
      <trkpt lat="46.12375" lon="4.69016">
        <ele>229.39999389648</ele>
        <time>2023-05-30T14:17:24.000Z</time>
      </trkpt>
      <trkpt lat="46.12374" lon="4.69026">
        <ele>229.19999694824</ele>
        <time>2023-05-30T14:17:25.000Z</time>
      </trkpt>
      <trkpt lat="46.12373" lon="4.69035">
        <ele>229</ele>
        <time>2023-05-30T14:17:26.000Z</time>
      </trkpt>
      <trkpt lat="46.12371" lon="4.69051">
        <ele>229</ele>
        <time>2023-05-30T14:17:28.000Z</time>
      </trkpt>
      <trkpt lat="46.12371" lon="4.6906">
        <ele>228.80000305176</ele>
        <time>2023-05-30T14:17:29.000Z</time>
      </trkpt>
      <trkpt lat="46.12371" lon="4.69079">
        <ele>228.60000610352</ele>
        <time>2023-05-30T14:17:31.000Z</time>
      </trkpt>
      <trkpt lat="46.12371" lon="4.69106">
        <ele>228.60000610352</ele>
        <time>2023-05-30T14:17:34.000Z</time>
      </trkpt>
      <trkpt lat="46.12372" lon="4.69142">
        <ele>228.39999389648</ele>
        <time>2023-05-30T14:17:38.000Z</time>
      </trkpt>
      <trkpt lat="46.12376" lon="4.69172">
        <ele>228.19999694824</ele>
        <time>2023-05-30T14:17:41.000Z</time>
      </trkpt>
      <trkpt lat="46.12382" lon="4.69239">
        <ele>227.60000610352</ele>
        <time>2023-05-30T14:17:48.000Z</time>
      </trkpt>
      <trkpt lat="46.12389" lon="4.69279">
        <ele>227.19999694824</ele>
        <time>2023-05-30T14:17:52.000Z</time>
      </trkpt>
      <trkpt lat="46.12392" lon="4.69298">
        <ele>227</ele>
        <time>2023-05-30T14:17:54.000Z</time>
      </trkpt>
      <trkpt lat="46.12397" lon="4.69327">
        <ele>226.80000305176</ele>
        <time>2023-05-30T14:17:57.000Z</time>
      </trkpt>
      <trkpt lat="46.12403" lon="4.69352">
        <ele>226.80000305176</ele>
        <time>2023-05-30T14:18:00.000Z</time>
      </trkpt>
      <trkpt lat="46.12413" lon="4.69391">
        <ele>226.60000610352</ele>
        <time>2023-05-30T14:18:05.000Z</time>
      </trkpt>
      <trkpt lat="46.12424" lon="4.69423">
        <ele>226.60000610352</ele>
        <time>2023-05-30T14:18:09.000Z</time>
      </trkpt>
      <trkpt lat="46.12433" lon="4.69448">
        <ele>226.19999694824</ele>
        <time>2023-05-30T14:18:12.000Z</time>
      </trkpt>
      <trkpt lat="46.12445" lon="4.69481">
        <ele>225.80000305176</ele>
        <time>2023-05-30T14:18:16.000Z</time>
      </trkpt>
      <trkpt lat="46.12452" lon="4.69497">
        <ele>225.39999389648</ele>
        <time>2023-05-30T14:18:18.000Z</time>
      </trkpt>
      <trkpt lat="46.12462" lon="4.69529">
        <ele>225</ele>
        <time>2023-05-30T14:18:22.000Z</time>
      </trkpt>
      <trkpt lat="46.12482" lon="4.69591">
        <ele>224.39999389648</ele>
        <time>2023-05-30T14:18:29.000Z</time>
      </trkpt>
      <trkpt lat="46.12485" lon="4.69599">
        <ele>224.39999389648</ele>
        <time>2023-05-30T14:18:30.000Z</time>
      </trkpt>
      <trkpt lat="46.12501" lon="4.69645">
        <ele>224.19999694824</ele>
        <time>2023-05-30T14:18:36.000Z</time>
      </trkpt>
      <trkpt lat="46.12517" lon="4.69706">
        <ele>224.19999694824</ele>
        <time>2023-05-30T14:18:43.000Z</time>
      </trkpt>
      <trkpt lat="46.1253" lon="4.69768">
        <ele>224</ele>
        <time>2023-05-30T14:18:50.000Z</time>
      </trkpt>
      <trkpt lat="46.1254" lon="4.69833">
        <ele>223.39999389648</ele>
        <time>2023-05-30T14:18:57.000Z</time>
      </trkpt>
      <trkpt lat="46.12541" lon="4.69842">
        <ele>223.19999694824</ele>
        <time>2023-05-30T14:18:58.000Z</time>
      </trkpt>
      <trkpt lat="46.12543" lon="4.69868">
        <ele>223</ele>
        <time>2023-05-30T14:19:01.000Z</time>
      </trkpt>
      <trkpt lat="46.12544" lon="4.69886">
        <ele>222.80000305176</ele>
        <time>2023-05-30T14:19:03.000Z</time>
      </trkpt>
      <trkpt lat="46.12544" lon="4.69896">
        <ele>222.80000305176</ele>
        <time>2023-05-30T14:19:04.000Z</time>
      </trkpt>
      <trkpt lat="46.12546" lon="4.69934">
        <ele>222.60000610352</ele>
        <time>2023-05-30T14:19:08.000Z</time>
      </trkpt>
      <trkpt lat="46.12545" lon="4.69944">
        <ele>222.19999694824</ele>
        <time>2023-05-30T14:19:09.000Z</time>
      </trkpt>
      <trkpt lat="46.12543" lon="4.70001">
        <ele>221.39999389648</ele>
        <time>2023-05-30T14:19:15.000Z</time>
      </trkpt>
      <trkpt lat="46.12542" lon="4.70011">
        <ele>221.19999694824</ele>
        <time>2023-05-30T14:19:16.000Z</time>
      </trkpt>
      <trkpt lat="46.12539" lon="4.7003">
        <ele>221</ele>
        <time>2023-05-30T14:19:18.000Z</time>
      </trkpt>
      <trkpt lat="46.12534" lon="4.70067">
        <ele>220.80000305176</ele>
        <time>2023-05-30T14:19:22.000Z</time>
      </trkpt>
      <trkpt lat="46.12522" lon="4.70122">
        <ele>220.60000610352</ele>
        <time>2023-05-30T14:19:28.000Z</time>
      </trkpt>
      <trkpt lat="46.12504" lon="4.7019">
        <ele>220.19999694824</ele>
        <time>2023-05-30T14:19:36.000Z</time>
      </trkpt>
      <trkpt lat="46.12499" lon="4.70206">
        <ele>220.19999694824</ele>
        <time>2023-05-30T14:19:38.000Z</time>
      </trkpt>
      <trkpt lat="46.12483" lon="4.70267">
        <ele>220</ele>
        <time>2023-05-30T14:19:45.000Z</time>
      </trkpt>
      <trkpt lat="46.12467" lon="4.70326">
        <ele>220</ele>
        <time>2023-05-30T14:19:52.000Z</time>
      </trkpt>
      <trkpt lat="46.12453" lon="4.70384">
        <ele>220.39999389648</ele>
        <time>2023-05-30T14:19:59.000Z</time>
      </trkpt>
      <trkpt lat="46.12451" lon="4.70392">
        <ele>220.39999389648</ele>
        <time>2023-05-30T14:20:00.000Z</time>
      </trkpt>
      <trkpt lat="46.12443" lon="4.70422">
        <ele>220.39999389648</ele>
        <time>2023-05-30T14:20:04.000Z</time>
      </trkpt>
      <trkpt lat="46.12428" lon="4.70481">
        <ele>220.80000305176</ele>
        <time>2023-05-30T14:20:11.000Z</time>
      </trkpt>
      <trkpt lat="46.12407" lon="4.70555">
        <ele>220.80000305176</ele>
        <time>2023-05-30T14:20:20.000Z</time>
      </trkpt>
      <trkpt lat="46.1239" lon="4.70622">
        <ele>220.19999694824</ele>
        <time>2023-05-30T14:20:28.000Z</time>
      </trkpt>
      <trkpt lat="46.12378" lon="4.70675">
        <ele>219.80000305176</ele>
        <time>2023-05-30T14:20:35.000Z</time>
      </trkpt>
      <trkpt lat="46.12374" lon="4.70692">
        <ele>219.80000305176</ele>
        <time>2023-05-30T14:20:38.000Z</time>
      </trkpt>
      <trkpt lat="46.12371" lon="4.70705">
        <ele>219.80000305176</ele>
        <time>2023-05-30T14:20:40.000Z</time>
      </trkpt>
      <trkpt lat="46.12356" lon="4.70759">
        <ele>219.60000610352</ele>
        <time>2023-05-30T14:20:47.000Z</time>
      </trkpt>
      <trkpt lat="46.12346" lon="4.70792">
        <ele>219.39999389648</ele>
        <time>2023-05-30T14:20:51.000Z</time>
      </trkpt>
      <trkpt lat="46.12341" lon="4.70809">
        <ele>219.19999694824</ele>
        <time>2023-05-30T14:20:53.000Z</time>
      </trkpt>
      <trkpt lat="46.12324" lon="4.70876">
        <ele>219.19999694824</ele>
        <time>2023-05-30T14:21:01.000Z</time>
      </trkpt>
      <trkpt lat="46.12304" lon="4.70952">
        <ele>218.80000305176</ele>
        <time>2023-05-30T14:21:10.000Z</time>
      </trkpt>
      <trkpt lat="46.12302" lon="4.70961">
        <ele>218.80000305176</ele>
        <time>2023-05-30T14:21:11.000Z</time>
      </trkpt>
      <trkpt lat="46.12288" lon="4.71011">
        <ele>218.39999389648</ele>
        <time>2023-05-30T14:21:17.000Z</time>
      </trkpt>
      <trkpt lat="46.12275" lon="4.7107">
        <ele>218</ele>
        <time>2023-05-30T14:21:24.000Z</time>
      </trkpt>
      <trkpt lat="46.12255" lon="4.71142">
        <ele>217.80000305176</ele>
        <time>2023-05-30T14:21:33.000Z</time>
      </trkpt>
      <trkpt lat="46.12254" lon="4.7115">
        <ele>217.60000610352</ele>
        <time>2023-05-30T14:21:34.000Z</time>
      </trkpt>
      <trkpt lat="46.12253" lon="4.71168">
        <ele>217.60000610352</ele>
        <time>2023-05-30T14:21:36.000Z</time>
      </trkpt>
      <trkpt lat="46.1225" lon="4.71185">
        <ele>217.60000610352</ele>
        <time>2023-05-30T14:21:38.000Z</time>
      </trkpt>
      <trkpt lat="46.12248" lon="4.71193">
        <ele>217.39999389648</ele>
        <time>2023-05-30T14:21:39.000Z</time>
      </trkpt>
      <trkpt lat="46.12246" lon="4.71201">
        <ele>217.39999389648</ele>
        <time>2023-05-30T14:21:40.000Z</time>
      </trkpt>
      <trkpt lat="46.12226" lon="4.71278">
        <ele>217.19999694824</ele>
        <time>2023-05-30T14:21:49.000Z</time>
      </trkpt>
      <trkpt lat="46.12224" lon="4.71287">
        <ele>217</ele>
        <time>2023-05-30T14:21:50.000Z</time>
      </trkpt>
      <trkpt lat="46.12208" lon="4.71346">
        <ele>216.80000305176</ele>
        <time>2023-05-30T14:21:57.000Z</time>
      </trkpt>
      <trkpt lat="46.12198" lon="4.71386">
        <ele>216.60000610352</ele>
        <time>2023-05-30T14:22:02.000Z</time>
      </trkpt>
      <trkpt lat="46.12186" lon="4.71431">
        <ele>216.19999694824</ele>
        <time>2023-05-30T14:22:08.000Z</time>
      </trkpt>
      <trkpt lat="46.12179" lon="4.71444">
        <ele>216</ele>
        <time>2023-05-30T14:22:12.000Z</time>
      </trkpt>
      <trkpt lat="46.1217" lon="4.71462">
        <ele>216</ele>
        <time>2023-05-30T14:22:16.000Z</time>
      </trkpt>
      <trkpt lat="46.12166" lon="4.71484">
        <ele>216</ele>
        <time>2023-05-30T14:22:19.000Z</time>
      </trkpt>
      <trkpt lat="46.12162" lon="4.715">
        <ele>215.80000305176</ele>
        <time>2023-05-30T14:22:21.000Z</time>
      </trkpt>
      <trkpt lat="46.12145" lon="4.7156">
        <ele>215.60000610352</ele>
        <time>2023-05-30T14:22:28.000Z</time>
      </trkpt>
      <trkpt lat="46.12141" lon="4.71577">
        <ele>215.60000610352</ele>
        <time>2023-05-30T14:22:30.000Z</time>
      </trkpt>
      <trkpt lat="46.12123" lon="4.71644">
        <ele>215.19999694824</ele>
        <time>2023-05-30T14:22:38.000Z</time>
      </trkpt>
      <trkpt lat="46.12103" lon="4.71722">
        <ele>215</ele>
        <time>2023-05-30T14:22:47.000Z</time>
      </trkpt>
      <trkpt lat="46.12097" lon="4.71746">
        <ele>214.80000305176</ele>
        <time>2023-05-30T14:22:50.000Z</time>
      </trkpt>
      <trkpt lat="46.12092" lon="4.71762">
        <ele>214.60000610352</ele>
        <time>2023-05-30T14:22:52.000Z</time>
      </trkpt>
      <trkpt lat="46.12086" lon="4.71786">
        <ele>214.39999389648</ele>
        <time>2023-05-30T14:22:55.000Z</time>
      </trkpt>
      <trkpt lat="46.12084" lon="4.71793">
        <ele>214.19999694824</ele>
        <time>2023-05-30T14:22:56.000Z</time>
      </trkpt>
      <trkpt lat="46.12084" lon="4.718">
        <ele>214.19999694824</ele>
        <time>2023-05-30T14:22:57.000Z</time>
      </trkpt>
      <trkpt lat="46.12087" lon="4.71806">
        <ele>214.19999694824</ele>
        <time>2023-05-30T14:22:58.000Z</time>
      </trkpt>
      <trkpt lat="46.1209" lon="4.7181">
        <ele>214.19999694824</ele>
        <time>2023-05-30T14:22:59.000Z</time>
      </trkpt>
      <trkpt lat="46.121" lon="4.71814">
        <ele>214</ele>
        <time>2023-05-30T14:23:01.000Z</time>
      </trkpt>
      <trkpt lat="46.12128" lon="4.71824">
        <ele>214</ele>
        <time>2023-05-30T14:23:06.000Z</time>
      </trkpt>
      <trkpt lat="46.12134" lon="4.71827">
        <ele>214</ele>
        <time>2023-05-30T14:23:07.000Z</time>
      </trkpt>
      <trkpt lat="46.12181" lon="4.71844">
        <ele>214</ele>
        <time>2023-05-30T14:23:15.000Z</time>
      </trkpt>
      <trkpt lat="46.12195" lon="4.7185">
        <ele>213.80000305176</ele>
        <time>2023-05-30T14:23:18.000Z</time>
      </trkpt>
      <trkpt lat="46.12199" lon="4.71852">
        <ele>213.80000305176</ele>
        <time>2023-05-30T14:23:19.000Z</time>
      </trkpt>
      <trkpt lat="46.12202" lon="4.71855">
        <ele>213.80000305176</ele>
        <time>2023-05-30T14:23:20.000Z</time>
      </trkpt>
      <trkpt lat="46.12207" lon="4.71862">
        <ele>213.60000610352</ele>
        <time>2023-05-30T14:23:23.000Z</time>
      </trkpt>
      <trkpt lat="46.12207" lon="4.71862">
        <ele>213.60000610352</ele>
        <time>2023-05-30T14:23:25.000Z</time>
      </trkpt>
      <trkpt lat="46.12205" lon="4.7187">
        <ele>213.39999389648</ele>
        <time>2023-05-30T14:23:36.000Z</time>
      </trkpt>
      <trkpt lat="46.12192" lon="4.71889">
        <ele>213.19999694824</ele>
        <time>2023-05-30T14:23:41.000Z</time>
      </trkpt>
      <trkpt lat="46.12189" lon="4.71894">
        <ele>213</ele>
        <time>2023-05-30T14:23:42.000Z</time>
      </trkpt>
      <trkpt lat="46.12181" lon="4.71906">
        <ele>213</ele>
        <time>2023-05-30T14:23:44.000Z</time>
      </trkpt>
      <trkpt lat="46.12177" lon="4.71913">
        <ele>213</ele>
        <time>2023-05-30T14:23:45.000Z</time>
      </trkpt>
      <trkpt lat="46.1216" lon="4.71943">
        <ele>212.80000305176</ele>
        <time>2023-05-30T14:23:49.000Z</time>
      </trkpt>
      <trkpt lat="46.12152" lon="4.71958">
        <ele>212.60000610352</ele>
        <time>2023-05-30T14:23:51.000Z</time>
      </trkpt>
      <trkpt lat="46.12139" lon="4.71991">
        <ele>212.60000610352</ele>
        <time>2023-05-30T14:23:55.000Z</time>
      </trkpt>
      <trkpt lat="46.12128" lon="4.72015">
        <ele>212.39999389648</ele>
        <time>2023-05-30T14:23:58.000Z</time>
      </trkpt>
      <trkpt lat="46.12124" lon="4.72021">
        <ele>212.39999389648</ele>
        <time>2023-05-30T14:23:59.000Z</time>
      </trkpt>
      <trkpt lat="46.1212" lon="4.72026">
        <ele>212.39999389648</ele>
        <time>2023-05-30T14:24:00.000Z</time>
      </trkpt>
      <trkpt lat="46.12115" lon="4.72029">
        <ele>212.39999389648</ele>
        <time>2023-05-30T14:24:02.000Z</time>
      </trkpt>
      <trkpt lat="46.12112" lon="4.72029">
        <ele>212.39999389648</ele>
        <time>2023-05-30T14:24:04.000Z</time>
      </trkpt>
      <trkpt lat="46.12112" lon="4.72029">
        <ele>212.39999389648</ele>
        <time>2023-05-30T14:24:05.000Z</time>
      </trkpt>
      <trkpt lat="46.12111" lon="4.72029">
        <ele>212.19999694824</ele>
        <time>2023-05-30T14:24:08.000Z</time>
      </trkpt>
      <trkpt lat="46.12104" lon="4.72026">
        <ele>212.19999694824</ele>
        <time>2023-05-30T14:24:12.000Z</time>
      </trkpt>
      <trkpt lat="46.12101" lon="4.72025">
        <ele>212.19999694824</ele>
        <time>2023-05-30T14:24:13.000Z</time>
      </trkpt>
      <trkpt lat="46.12089" lon="4.72028">
        <ele>212.19999694824</ele>
        <time>2023-05-30T14:24:16.000Z</time>
      </trkpt>
      <trkpt lat="46.12085" lon="4.72031">
        <ele>212</ele>
        <time>2023-05-30T14:24:17.000Z</time>
      </trkpt>
      <trkpt lat="46.12077" lon="4.7204">
        <ele>212</ele>
        <time>2023-05-30T14:24:19.000Z</time>
      </trkpt>
      <trkpt lat="46.12067" lon="4.72046">
        <ele>212</ele>
        <time>2023-05-30T14:24:21.000Z</time>
      </trkpt>
      <trkpt lat="46.12056" lon="4.7205">
        <ele>212</ele>
        <time>2023-05-30T14:24:23.000Z</time>
      </trkpt>
      <trkpt lat="46.1204" lon="4.72063">
        <ele>212</ele>
        <time>2023-05-30T14:24:26.000Z</time>
      </trkpt>
      <trkpt lat="46.12031" lon="4.72076">
        <ele>212</ele>
        <time>2023-05-30T14:24:28.000Z</time>
      </trkpt>
      <trkpt lat="46.12024" lon="4.72092">
        <ele>212</ele>
        <time>2023-05-30T14:24:30.000Z</time>
      </trkpt>
      <trkpt lat="46.1202" lon="4.7211">
        <ele>212</ele>
        <time>2023-05-30T14:24:32.000Z</time>
      </trkpt>
      <trkpt lat="46.12019" lon="4.72129">
        <ele>212</ele>
        <time>2023-05-30T14:24:34.000Z</time>
      </trkpt>
      <trkpt lat="46.12017" lon="4.72148">
        <ele>212</ele>
        <time>2023-05-30T14:24:36.000Z</time>
      </trkpt>
      <trkpt lat="46.12009" lon="4.72186">
        <ele>212.39999389648</ele>
        <time>2023-05-30T14:24:40.000Z</time>
      </trkpt>
      <trkpt lat="46.11989" lon="4.72227">
        <ele>212.39999389648</ele>
        <time>2023-05-30T14:24:45.000Z</time>
      </trkpt>
      <trkpt lat="46.11972" lon="4.72256">
        <ele>212.19999694824</ele>
        <time>2023-05-30T14:24:49.000Z</time>
      </trkpt>
      <trkpt lat="46.11946" lon="4.72298">
        <ele>212</ele>
        <time>2023-05-30T14:24:55.000Z</time>
      </trkpt>
      <trkpt lat="46.11907" lon="4.72362">
        <ele>212</ele>
        <time>2023-05-30T14:25:04.000Z</time>
      </trkpt>
      <trkpt lat="46.11902" lon="4.7237">
        <ele>212</ele>
        <time>2023-05-30T14:25:05.000Z</time>
      </trkpt>
      <trkpt lat="46.11868" lon="4.72416">
        <ele>211.80000305176</ele>
        <time>2023-05-30T14:25:12.000Z</time>
      </trkpt>
      <trkpt lat="46.11844" lon="4.72438">
        <ele>211.80000305176</ele>
        <time>2023-05-30T14:25:16.000Z</time>
      </trkpt>
      <trkpt lat="46.11826" lon="4.72453">
        <ele>211.60000610352</ele>
        <time>2023-05-30T14:25:19.000Z</time>
      </trkpt>
      <trkpt lat="46.11777" lon="4.72492">
        <ele>211.19999694824</ele>
        <time>2023-05-30T14:25:27.000Z</time>
      </trkpt>
      <trkpt lat="46.11764" lon="4.72502">
        <ele>211</ele>
        <time>2023-05-30T14:25:29.000Z</time>
      </trkpt>
      <trkpt lat="46.11757" lon="4.72507">
        <ele>211</ele>
        <time>2023-05-30T14:25:30.000Z</time>
      </trkpt>
      <trkpt lat="46.11707" lon="4.72547">
        <ele>210.80000305176</ele>
        <time>2023-05-30T14:25:38.000Z</time>
      </trkpt>
      <trkpt lat="46.11694" lon="4.72556">
        <ele>210.80000305176</ele>
        <time>2023-05-30T14:25:40.000Z</time>
      </trkpt>
      <trkpt lat="46.11645" lon="4.72594">
        <ele>210.80000305176</ele>
        <time>2023-05-30T14:25:48.000Z</time>
      </trkpt>
      <trkpt lat="46.11633" lon="4.72604">
        <ele>210.80000305176</ele>
        <time>2023-05-30T14:25:50.000Z</time>
      </trkpt>
      <trkpt lat="46.11586" lon="4.72641">
        <ele>210.80000305176</ele>
        <time>2023-05-30T14:25:58.000Z</time>
      </trkpt>
      <trkpt lat="46.11569" lon="4.72655">
        <ele>211.19999694824</ele>
        <time>2023-05-30T14:26:01.000Z</time>
      </trkpt>
      <trkpt lat="46.11557" lon="4.72664">
        <ele>211.19999694824</ele>
        <time>2023-05-30T14:26:03.000Z</time>
      </trkpt>
      <trkpt lat="46.11512" lon="4.727">
        <ele>211.39999389648</ele>
        <time>2023-05-30T14:26:11.000Z</time>
      </trkpt>
      <trkpt lat="46.11473" lon="4.72729">
        <ele>211.60000610352</ele>
        <time>2023-05-30T14:26:18.000Z</time>
      </trkpt>
      <trkpt lat="46.11422" lon="4.7277">
        <ele>212.39999389648</ele>
        <time>2023-05-30T14:26:28.000Z</time>
      </trkpt>
      <trkpt lat="46.11417" lon="4.72774">
        <ele>212.39999389648</ele>
        <time>2023-05-30T14:26:29.000Z</time>
      </trkpt>
      <trkpt lat="46.11402" lon="4.72783">
        <ele>213.39999389648</ele>
        <time>2023-05-30T14:26:33.000Z</time>
      </trkpt>
      <trkpt lat="46.11399" lon="4.72783">
        <ele>213.60000610352</ele>
        <time>2023-05-30T14:26:34.000Z</time>
      </trkpt>
      <trkpt lat="46.11387" lon="4.72788">
        <ele>213.80000305176</ele>
        <time>2023-05-30T14:26:37.000Z</time>
      </trkpt>
      <trkpt lat="46.11383" lon="4.72802">
        <ele>214</ele>
        <time>2023-05-30T14:26:39.000Z</time>
      </trkpt>
      <trkpt lat="46.11386" lon="4.72818">
        <ele>214</ele>
        <time>2023-05-30T14:26:41.000Z</time>
      </trkpt>
      <trkpt lat="46.11388" lon="4.72826">
        <ele>214</ele>
        <time>2023-05-30T14:26:42.000Z</time>
      </trkpt>
      <trkpt lat="46.11389" lon="4.72834">
        <ele>214</ele>
        <time>2023-05-30T14:26:43.000Z</time>
      </trkpt>
      <trkpt lat="46.1139" lon="4.7285">
        <ele>214.19999694824</ele>
        <time>2023-05-30T14:26:45.000Z</time>
      </trkpt>
      <trkpt lat="46.11389" lon="4.72858">
        <ele>214.19999694824</ele>
        <time>2023-05-30T14:26:46.000Z</time>
      </trkpt>
      <trkpt lat="46.11385" lon="4.72895">
        <ele>214.80000305176</ele>
        <time>2023-05-30T14:26:51.000Z</time>
      </trkpt>
      <trkpt lat="46.1138" lon="4.72924">
        <ele>215.80000305176</ele>
        <time>2023-05-30T14:26:55.000Z</time>
      </trkpt>
      <trkpt lat="46.11371" lon="4.73004">
        <ele>216.60000610352</ele>
        <time>2023-05-30T14:27:05.000Z</time>
      </trkpt>
      <trkpt lat="46.1137" lon="4.73013">
        <ele>216.39999389648</ele>
        <time>2023-05-30T14:27:06.000Z</time>
      </trkpt>
      <trkpt lat="46.11365" lon="4.73029">
        <ele>216.39999389648</ele>
        <time>2023-05-30T14:27:08.000Z</time>
      </trkpt>
      <trkpt lat="46.11359" lon="4.73042">
        <ele>216.19999694824</ele>
        <time>2023-05-30T14:27:10.000Z</time>
      </trkpt>
      <trkpt lat="46.11356" lon="4.73048">
        <ele>216</ele>
        <time>2023-05-30T14:27:11.000Z</time>
      </trkpt>
      <trkpt lat="46.11351" lon="4.7307">
        <ele>215.60000610352</ele>
        <time>2023-05-30T14:27:14.000Z</time>
      </trkpt>
      <trkpt lat="46.11348" lon="4.73078">
        <ele>215.19999694824</ele>
        <time>2023-05-30T14:27:15.000Z</time>
      </trkpt>
      <trkpt lat="46.11345" lon="4.73085">
        <ele>215</ele>
        <time>2023-05-30T14:27:16.000Z</time>
      </trkpt>
      <trkpt lat="46.11336" lon="4.731">
        <ele>214.39999389648</ele>
        <time>2023-05-30T14:27:18.000Z</time>
      </trkpt>
      <trkpt lat="46.11326" lon="4.73114">
        <ele>213.80000305176</ele>
        <time>2023-05-30T14:27:20.000Z</time>
      </trkpt>
      <trkpt lat="46.11309" lon="4.73134">
        <ele>213</ele>
        <time>2023-05-30T14:27:23.000Z</time>
      </trkpt>
      <trkpt lat="46.11303" lon="4.73141">
        <ele>212.80000305176</ele>
        <time>2023-05-30T14:27:24.000Z</time>
      </trkpt>
      <trkpt lat="46.11285" lon="4.7316">
        <ele>211.60000610352</ele>
        <time>2023-05-30T14:27:27.000Z</time>
      </trkpt>
      <trkpt lat="46.11268" lon="4.73177">
        <ele>211</ele>
        <time>2023-05-30T14:27:30.000Z</time>
      </trkpt>
      <trkpt lat="46.11255" lon="4.73191">
        <ele>210.39999389648</ele>
        <time>2023-05-30T14:27:33.000Z</time>
      </trkpt>
      <trkpt lat="46.1125" lon="4.73195">
        <ele>210</ele>
        <time>2023-05-30T14:27:34.000Z</time>
      </trkpt>
      <trkpt lat="46.11246" lon="4.73198">
        <ele>209.80000305176</ele>
        <time>2023-05-30T14:27:35.000Z</time>
      </trkpt>
      <trkpt lat="46.11238" lon="4.73202">
        <ele>209.19999694824</ele>
        <time>2023-05-30T14:27:38.000Z</time>
      </trkpt>
      <trkpt lat="46.11233" lon="4.73202">
        <ele>208.80000305176</ele>
        <time>2023-05-30T14:27:43.000Z</time>
      </trkpt>
      <trkpt lat="46.11222" lon="4.73202">
        <ele>208.39999389648</ele>
        <time>2023-05-30T14:27:48.000Z</time>
      </trkpt>
      <trkpt lat="46.11219" lon="4.73202">
        <ele>208.39999389648</ele>
        <time>2023-05-30T14:27:49.000Z</time>
      </trkpt>
      <trkpt lat="46.11216" lon="4.73205">
        <ele>208.39999389648</ele>
        <time>2023-05-30T14:27:50.000Z</time>
      </trkpt>
      <trkpt lat="46.11214" lon="4.7321">
        <ele>208.39999389648</ele>
        <time>2023-05-30T14:27:51.000Z</time>
      </trkpt>
      <trkpt lat="46.11211" lon="4.73223">
        <ele>208.39999389648</ele>
        <time>2023-05-30T14:27:53.000Z</time>
      </trkpt>
      <trkpt lat="46.1121" lon="4.7324">
        <ele>208.39999389648</ele>
        <time>2023-05-30T14:27:55.000Z</time>
      </trkpt>
      <trkpt lat="46.11198" lon="4.73301">
        <ele>208.80000305176</ele>
        <time>2023-05-30T14:28:02.000Z</time>
      </trkpt>
      <trkpt lat="46.11192" lon="4.7333">
        <ele>208.80000305176</ele>
        <time>2023-05-30T14:28:06.000Z</time>
      </trkpt>
      <trkpt lat="46.1119" lon="4.73336">
        <ele>208.80000305176</ele>
        <time>2023-05-30T14:28:07.000Z</time>
      </trkpt>
      <trkpt lat="46.11187" lon="4.73349">
        <ele>209</ele>
        <time>2023-05-30T14:28:11.000Z</time>
      </trkpt>
      <trkpt lat="46.11188" lon="4.7335">
        <ele>209</ele>
        <time>2023-05-30T14:28:12.000Z</time>
      </trkpt>
      <trkpt lat="46.11187" lon="4.7335">
        <ele>209.19999694824</ele>
        <time>2023-05-30T14:28:14.000Z</time>
      </trkpt>
      <trkpt lat="46.11187" lon="4.7335">
        <ele>209.19999694824</ele>
        <time>2023-05-30T14:28:15.000Z</time>
      </trkpt>
      <trkpt lat="46.11187" lon="4.73357">
        <ele>208.80000305176</ele>
        <time>2023-05-30T14:28:41.000Z</time>
      </trkpt>
      <trkpt lat="46.11185" lon="4.73367">
        <ele>209</ele>
        <time>2023-05-30T14:28:43.000Z</time>
      </trkpt>
      <trkpt lat="46.11184" lon="4.73372">
        <ele>209</ele>
        <time>2023-05-30T14:28:44.000Z</time>
      </trkpt>
      <trkpt lat="46.1118" lon="4.73397">
        <ele>208.80000305176</ele>
        <time>2023-05-30T14:28:47.000Z</time>
      </trkpt>
      <trkpt lat="46.1117" lon="4.73451">
        <ele>209</ele>
        <time>2023-05-30T14:28:53.000Z</time>
      </trkpt>
      <trkpt lat="46.11158" lon="4.7351">
        <ele>209.39999389648</ele>
        <time>2023-05-30T14:28:59.000Z</time>
      </trkpt>
      <trkpt lat="46.11148" lon="4.73563">
        <ele>209.60000610352</ele>
        <time>2023-05-30T14:29:04.000Z</time>
      </trkpt>
      <trkpt lat="46.11146" lon="4.73574">
        <ele>209.60000610352</ele>
        <time>2023-05-30T14:29:05.000Z</time>
      </trkpt>
      <trkpt lat="46.11133" lon="4.73654">
        <ele>209.60000610352</ele>
        <time>2023-05-30T14:29:12.000Z</time>
      </trkpt>
      <trkpt lat="46.11126" lon="4.73688">
        <ele>209.60000610352</ele>
        <time>2023-05-30T14:29:15.000Z</time>
      </trkpt>
      <trkpt lat="46.11119" lon="4.73735">
        <ele>209.60000610352</ele>
        <time>2023-05-30T14:29:19.000Z</time>
      </trkpt>
      <trkpt lat="46.11101" lon="4.73815">
        <ele>209.60000610352</ele>
        <time>2023-05-30T14:29:26.000Z</time>
      </trkpt>
      <trkpt lat="46.11097" lon="4.73838">
        <ele>209.60000610352</ele>
        <time>2023-05-30T14:29:28.000Z</time>
      </trkpt>
      <trkpt lat="46.11086" lon="4.73907">
        <ele>209.60000610352</ele>
        <time>2023-05-30T14:29:34.000Z</time>
      </trkpt>
      <trkpt lat="46.11084" lon="4.73919">
        <ele>209.60000610352</ele>
        <time>2023-05-30T14:29:35.000Z</time>
      </trkpt>
      <trkpt lat="46.11069" lon="4.73986">
        <ele>209.60000610352</ele>
        <time>2023-05-30T14:29:41.000Z</time>
      </trkpt>
      <trkpt lat="46.11059" lon="4.74038">
        <ele>209.19999694824</ele>
        <time>2023-05-30T14:29:46.000Z</time>
      </trkpt>
      <trkpt lat="46.11047" lon="4.74099">
        <ele>209</ele>
        <time>2023-05-30T14:29:52.000Z</time>
      </trkpt>
      <trkpt lat="46.11041" lon="4.74132">
        <ele>208.80000305176</ele>
        <time>2023-05-30T14:29:56.000Z</time>
      </trkpt>
      <trkpt lat="46.11041" lon="4.74138">
        <ele>208.80000305176</ele>
        <time>2023-05-30T14:29:57.000Z</time>
      </trkpt>
      <trkpt lat="46.11041" lon="4.74144">
        <ele>208.80000305176</ele>
        <time>2023-05-30T14:29:58.000Z</time>
      </trkpt>
      <trkpt lat="46.1104" lon="4.74149">
        <ele>208.60000610352</ele>
        <time>2023-05-30T14:30:00.000Z</time>
      </trkpt>
      <trkpt lat="46.1104" lon="4.74149">
        <ele>208.60000610352</ele>
        <time>2023-05-30T14:30:03.000Z</time>
      </trkpt>
      <trkpt lat="46.11039" lon="4.74155">
        <ele>208.39999389648</ele>
        <time>2023-05-30T14:30:36.000Z</time>
      </trkpt>
      <trkpt lat="46.11038" lon="4.74174">
        <ele>208.39999389648</ele>
        <time>2023-05-30T14:30:40.000Z</time>
      </trkpt>
      <trkpt lat="46.11032" lon="4.74201">
        <ele>208.39999389648</ele>
        <time>2023-05-30T14:30:44.000Z</time>
      </trkpt>
      <trkpt lat="46.11022" lon="4.74246">
        <ele>208.39999389648</ele>
        <time>2023-05-30T14:30:49.000Z</time>
      </trkpt>
      <trkpt lat="46.11009" lon="4.74318">
        <ele>207.80000305176</ele>
        <time>2023-05-30T14:30:56.000Z</time>
      </trkpt>
      <trkpt lat="46.11006" lon="4.74328">
        <ele>207.80000305176</ele>
        <time>2023-05-30T14:30:57.000Z</time>
      </trkpt>
      <trkpt lat="46.10999" lon="4.74357">
        <ele>207.39999389648</ele>
        <time>2023-05-30T14:31:00.000Z</time>
      </trkpt>
      <trkpt lat="46.10991" lon="4.7439">
        <ele>207</ele>
        <time>2023-05-30T14:31:03.000Z</time>
      </trkpt>
      <trkpt lat="46.10986" lon="4.7443">
        <ele>206.19999694824</ele>
        <time>2023-05-30T14:31:07.000Z</time>
      </trkpt>
      <trkpt lat="46.1098" lon="4.74451">
        <ele>206</ele>
        <time>2023-05-30T14:31:09.000Z</time>
      </trkpt>
      <trkpt lat="46.10974" lon="4.74483">
        <ele>205.19999694824</ele>
        <time>2023-05-30T14:31:12.000Z</time>
      </trkpt>
      <trkpt lat="46.10968" lon="4.74509">
        <ele>204.39999389648</ele>
        <time>2023-05-30T14:31:15.000Z</time>
      </trkpt>
      <trkpt lat="46.10966" lon="4.74516">
        <ele>204.19999694824</ele>
        <time>2023-05-30T14:31:16.000Z</time>
      </trkpt>
      <trkpt lat="46.10963" lon="4.74539">
        <ele>203</ele>
        <time>2023-05-30T14:31:20.000Z</time>
      </trkpt>
      <trkpt lat="46.1096" lon="4.74555">
        <ele>202.39999389648</ele>
        <time>2023-05-30T14:31:24.000Z</time>
      </trkpt>
      <trkpt lat="46.10959" lon="4.7456">
        <ele>201.80000305176</ele>
        <time>2023-05-30T14:31:26.000Z</time>
      </trkpt>
      <trkpt lat="46.10959" lon="4.74566">
        <ele>201.39999389648</ele>
        <time>2023-05-30T14:31:30.000Z</time>
      </trkpt>
      <trkpt lat="46.1096" lon="4.74567">
        <ele>201.19999694824</ele>
        <time>2023-05-30T14:31:31.000Z</time>
      </trkpt>
      <trkpt lat="46.1096" lon="4.74568">
        <ele>201.19999694824</ele>
        <time>2023-05-30T14:31:34.000Z</time>
      </trkpt>
      <trkpt lat="46.1096" lon="4.74575">
        <ele>201.19999694824</ele>
        <time>2023-05-30T14:31:37.000Z</time>
      </trkpt>
      <trkpt lat="46.10958" lon="4.7458">
        <ele>201.19999694824</ele>
        <time>2023-05-30T14:31:38.000Z</time>
      </trkpt>
      <trkpt lat="46.10953" lon="4.74598">
        <ele>201</ele>
        <time>2023-05-30T14:31:41.000Z</time>
      </trkpt>
      <trkpt lat="46.10952" lon="4.74606">
        <ele>201</ele>
        <time>2023-05-30T14:31:42.000Z</time>
      </trkpt>
      <trkpt lat="46.10951" lon="4.74614">
        <ele>201</ele>
        <time>2023-05-30T14:31:43.000Z</time>
      </trkpt>
      <trkpt lat="46.10947" lon="4.7464">
        <ele>200.80000305176</ele>
        <time>2023-05-30T14:31:46.000Z</time>
      </trkpt>
      <trkpt lat="46.10935" lon="4.747">
        <ele>199.60000610352</ele>
        <time>2023-05-30T14:31:52.000Z</time>
      </trkpt>
      <trkpt lat="46.10927" lon="4.74745">
        <ele>198.39999389648</ele>
        <time>2023-05-30T14:31:56.000Z</time>
      </trkpt>
      <trkpt lat="46.10921" lon="4.74778">
        <ele>197.80000305176</ele>
        <time>2023-05-30T14:31:59.000Z</time>
      </trkpt>
      <trkpt lat="46.10915" lon="4.74808">
        <ele>197.39999389648</ele>
        <time>2023-05-30T14:32:02.000Z</time>
      </trkpt>
      <trkpt lat="46.10912" lon="4.74825">
        <ele>197.19999694824</ele>
        <time>2023-05-30T14:32:04.000Z</time>
      </trkpt>
      <trkpt lat="46.1091" lon="4.74833">
        <ele>197</ele>
        <time>2023-05-30T14:32:05.000Z</time>
      </trkpt>
      <trkpt lat="46.10904" lon="4.74866">
        <ele>196.60000610352</ele>
        <time>2023-05-30T14:32:09.000Z</time>
      </trkpt>
      <trkpt lat="46.10899" lon="4.74888">
        <ele>196.39999389648</ele>
        <time>2023-05-30T14:32:12.000Z</time>
      </trkpt>
      <trkpt lat="46.10897" lon="4.74899">
        <ele>196.39999389648</ele>
        <time>2023-05-30T14:32:14.000Z</time>
      </trkpt>
      <trkpt lat="46.10893" lon="4.74907">
        <ele>196.19999694824</ele>
        <time>2023-05-30T14:32:18.000Z</time>
      </trkpt>
      <trkpt lat="46.1089" lon="4.74923">
        <ele>196</ele>
        <time>2023-05-30T14:32:22.000Z</time>
      </trkpt>
      <trkpt lat="46.10889" lon="4.74928">
        <ele>196</ele>
        <time>2023-05-30T14:32:23.000Z</time>
      </trkpt>
      <trkpt lat="46.10887" lon="4.74937">
        <ele>195.80000305176</ele>
        <time>2023-05-30T14:32:27.000Z</time>
      </trkpt>
      <trkpt lat="46.10887" lon="4.74938">
        <ele>195.80000305176</ele>
        <time>2023-05-30T14:32:30.000Z</time>
      </trkpt>
      <trkpt lat="46.10886" lon="4.74943">
        <ele>195.60000610352</ele>
        <time>2023-05-30T14:32:43.000Z</time>
      </trkpt>
      <trkpt lat="46.10885" lon="4.74948">
        <ele>195.60000610352</ele>
        <time>2023-05-30T14:32:44.000Z</time>
      </trkpt>
      <trkpt lat="46.1088" lon="4.74973">
        <ele>195.39999389648</ele>
        <time>2023-05-30T14:32:48.000Z</time>
      </trkpt>
      <trkpt lat="46.10877" lon="4.7499">
        <ele>195.39999389648</ele>
        <time>2023-05-30T14:32:50.000Z</time>
      </trkpt>
      <trkpt lat="46.10876" lon="4.74999">
        <ele>195.39999389648</ele>
        <time>2023-05-30T14:32:51.000Z</time>
      </trkpt>
      <trkpt lat="46.10867" lon="4.75037">
        <ele>195.39999389648</ele>
        <time>2023-05-30T14:32:55.000Z</time>
      </trkpt>
      <trkpt lat="46.10857" lon="4.75086">
        <ele>195.39999389648</ele>
        <time>2023-05-30T14:33:01.000Z</time>
      </trkpt>
      <trkpt lat="46.10851" lon="4.75114">
        <ele>195.39999389648</ele>
        <time>2023-05-30T14:33:03.000Z</time>
      </trkpt>
      <trkpt lat="46.10844" lon="4.75154">
        <ele>195.19999694824</ele>
        <time>2023-05-30T14:33:07.000Z</time>
      </trkpt>
      <trkpt lat="46.1083" lon="4.75223">
        <ele>194.80000305176</ele>
        <time>2023-05-30T14:33:14.000Z</time>
      </trkpt>
      <trkpt lat="46.10814" lon="4.75279">
        <ele>195.39999389648</ele>
        <time>2023-05-30T14:33:20.000Z</time>
      </trkpt>
      <trkpt lat="46.10795" lon="4.75327">
        <ele>196</ele>
        <time>2023-05-30T14:33:26.000Z</time>
      </trkpt>
      <trkpt lat="46.10791" lon="4.75333">
        <ele>196</ele>
        <time>2023-05-30T14:33:27.000Z</time>
      </trkpt>
      <trkpt lat="46.10785" lon="4.75338">
        <ele>196.19999694824</ele>
        <time>2023-05-30T14:33:28.000Z</time>
      </trkpt>
      <trkpt lat="46.10773" lon="4.75349">
        <ele>196.19999694824</ele>
        <time>2023-05-30T14:33:30.000Z</time>
      </trkpt>
      <trkpt lat="46.1077" lon="4.75355">
        <ele>196.19999694824</ele>
        <time>2023-05-30T14:33:31.000Z</time>
      </trkpt>
      <trkpt lat="46.10761" lon="4.75369">
        <ele>196.19999694824</ele>
        <time>2023-05-30T14:33:33.000Z</time>
      </trkpt>
      <trkpt lat="46.1075" lon="4.75379">
        <ele>196.39999389648</ele>
        <time>2023-05-30T14:33:35.000Z</time>
      </trkpt>
      <trkpt lat="46.10732" lon="4.75393">
        <ele>196.60000610352</ele>
        <time>2023-05-30T14:33:38.000Z</time>
      </trkpt>
      <trkpt lat="46.10712" lon="4.75414">
        <ele>197</ele>
        <time>2023-05-30T14:33:42.000Z</time>
      </trkpt>
      <trkpt lat="46.10694" lon="4.75438">
        <ele>197.60000610352</ele>
        <time>2023-05-30T14:33:46.000Z</time>
      </trkpt>
      <trkpt lat="46.10674" lon="4.75461">
        <ele>198.19999694824</ele>
        <time>2023-05-30T14:33:50.000Z</time>
      </trkpt>
      <trkpt lat="46.1066" lon="4.7548">
        <ele>198.80000305176</ele>
        <time>2023-05-30T14:33:53.000Z</time>
      </trkpt>
      <trkpt lat="46.10638" lon="4.75509">
        <ele>200.19999694824</ele>
        <time>2023-05-30T14:33:58.000Z</time>
      </trkpt>
      <trkpt lat="46.1062" lon="4.75531">
        <ele>200.80000305176</ele>
        <time>2023-05-30T14:34:02.000Z</time>
      </trkpt>
      <trkpt lat="46.10602" lon="4.75554">
        <ele>201.39999389648</ele>
        <time>2023-05-30T14:34:06.000Z</time>
      </trkpt>
      <trkpt lat="46.10576" lon="4.75587">
        <ele>201.80000305176</ele>
        <time>2023-05-30T14:34:12.000Z</time>
      </trkpt>
      <trkpt lat="46.10532" lon="4.75644">
        <ele>202.19999694824</ele>
        <time>2023-05-30T14:34:21.000Z</time>
      </trkpt>
      <trkpt lat="46.10526" lon="4.75651">
        <ele>202.19999694824</ele>
        <time>2023-05-30T14:34:22.000Z</time>
      </trkpt>
      <trkpt lat="46.10483" lon="4.75707">
        <ele>200.80000305176</ele>
        <time>2023-05-30T14:34:30.000Z</time>
      </trkpt>
      <trkpt lat="46.10477" lon="4.75715">
        <ele>200.60000610352</ele>
        <time>2023-05-30T14:34:31.000Z</time>
      </trkpt>
      <trkpt lat="46.10453" lon="4.75746">
        <ele>199.39999389648</ele>
        <time>2023-05-30T14:34:35.000Z</time>
      </trkpt>
      <trkpt lat="46.1043" lon="4.75776">
        <ele>198.39999389648</ele>
        <time>2023-05-30T14:34:39.000Z</time>
      </trkpt>
      <trkpt lat="46.10424" lon="4.75783">
        <ele>198.19999694824</ele>
        <time>2023-05-30T14:34:40.000Z</time>
      </trkpt>
      <trkpt lat="46.10413" lon="4.75796">
        <ele>197.80000305176</ele>
        <time>2023-05-30T14:34:42.000Z</time>
      </trkpt>
      <trkpt lat="46.10407" lon="4.758">
        <ele>197.39999389648</ele>
        <time>2023-05-30T14:34:43.000Z</time>
      </trkpt>
      <trkpt lat="46.104" lon="4.75804">
        <ele>197.19999694824</ele>
        <time>2023-05-30T14:34:44.000Z</time>
      </trkpt>
      <trkpt lat="46.10394" lon="4.75809">
        <ele>197</ele>
        <time>2023-05-30T14:34:45.000Z</time>
      </trkpt>
      <trkpt lat="46.10389" lon="4.75817">
        <ele>196.80000305176</ele>
        <time>2023-05-30T14:34:46.000Z</time>
      </trkpt>
      <trkpt lat="46.10383" lon="4.75846">
        <ele>196.19999694824</ele>
        <time>2023-05-30T14:34:49.000Z</time>
      </trkpt>
      <trkpt lat="46.10381" lon="4.75856">
        <ele>196</ele>
        <time>2023-05-30T14:34:50.000Z</time>
      </trkpt>
      <trkpt lat="46.10378" lon="4.75865">
        <ele>196</ele>
        <time>2023-05-30T14:34:51.000Z</time>
      </trkpt>
      <trkpt lat="46.1037" lon="4.75891">
        <ele>195.80000305176</ele>
        <time>2023-05-30T14:34:54.000Z</time>
      </trkpt>
      <trkpt lat="46.10349" lon="4.75954">
        <ele>195.60000610352</ele>
        <time>2023-05-30T14:35:01.000Z</time>
      </trkpt>
      <trkpt lat="46.10335" lon="4.7601">
        <ele>195.60000610352</ele>
        <time>2023-05-30T14:35:07.000Z</time>
      </trkpt>
      <trkpt lat="46.10327" lon="4.76028">
        <ele>195.80000305176</ele>
        <time>2023-05-30T14:35:09.000Z</time>
      </trkpt>
      <trkpt lat="46.10312" lon="4.76058">
        <ele>196</ele>
        <time>2023-05-30T14:35:13.000Z</time>
      </trkpt>
      <trkpt lat="46.10293" lon="4.76102">
        <ele>196.60000610352</ele>
        <time>2023-05-30T14:35:19.000Z</time>
      </trkpt>
      <trkpt lat="46.10284" lon="4.76121">
        <ele>197.19999694824</ele>
        <time>2023-05-30T14:35:22.000Z</time>
      </trkpt>
      <trkpt lat="46.10276" lon="4.76139">
        <ele>197.80000305176</ele>
        <time>2023-05-30T14:35:25.000Z</time>
      </trkpt>
      <trkpt lat="46.10267" lon="4.76159">
        <ele>198.80000305176</ele>
        <time>2023-05-30T14:35:28.000Z</time>
      </trkpt>
      <trkpt lat="46.10258" lon="4.76182">
        <ele>199.60000610352</ele>
        <time>2023-05-30T14:35:32.000Z</time>
      </trkpt>
      <trkpt lat="46.10255" lon="4.76188">
        <ele>200</ele>
        <time>2023-05-30T14:35:33.000Z</time>
      </trkpt>
      <trkpt lat="46.10244" lon="4.76208">
        <ele>200.19999694824</ele>
        <time>2023-05-30T14:35:36.000Z</time>
      </trkpt>
      <trkpt lat="46.10239" lon="4.76219">
        <ele>200.39999389648</ele>
        <time>2023-05-30T14:35:38.000Z</time>
      </trkpt>
      <trkpt lat="46.10224" lon="4.76249">
        <ele>200.39999389648</ele>
        <time>2023-05-30T14:35:42.000Z</time>
      </trkpt>
      <trkpt lat="46.1022" lon="4.76257">
        <ele>200.39999389648</ele>
        <time>2023-05-30T14:35:43.000Z</time>
      </trkpt>
      <trkpt lat="46.10202" lon="4.76289">
        <ele>200.39999389648</ele>
        <time>2023-05-30T14:35:47.000Z</time>
      </trkpt>
      <trkpt lat="46.10189" lon="4.76317">
        <ele>200.19999694824</ele>
        <time>2023-05-30T14:35:50.000Z</time>
      </trkpt>
      <trkpt lat="46.10184" lon="4.76334">
        <ele>199.80000305176</ele>
        <time>2023-05-30T14:35:52.000Z</time>
      </trkpt>
      <trkpt lat="46.10179" lon="4.76355">
        <ele>199</ele>
        <time>2023-05-30T14:35:54.000Z</time>
      </trkpt>
      <trkpt lat="46.10175" lon="4.76378">
        <ele>198.39999389648</ele>
        <time>2023-05-30T14:35:56.000Z</time>
      </trkpt>
      <trkpt lat="46.10172" lon="4.764">
        <ele>197.60000610352</ele>
        <time>2023-05-30T14:35:58.000Z</time>
      </trkpt>
      <trkpt lat="46.10162" lon="4.76455">
        <ele>196.39999389648</ele>
        <time>2023-05-30T14:36:03.000Z</time>
      </trkpt>
      <trkpt lat="46.10149" lon="4.76534">
        <ele>195.80000305176</ele>
        <time>2023-05-30T14:36:11.000Z</time>
      </trkpt>
      <trkpt lat="46.10148" lon="4.76543">
        <ele>195.80000305176</ele>
        <time>2023-05-30T14:36:12.000Z</time>
      </trkpt>
      <trkpt lat="46.10134" lon="4.7662">
        <ele>196</ele>
        <time>2023-05-30T14:36:20.000Z</time>
      </trkpt>
      <trkpt lat="46.10133" lon="4.7663">
        <ele>196</ele>
        <time>2023-05-30T14:36:21.000Z</time>
      </trkpt>
      <trkpt lat="46.10119" lon="4.76711">
        <ele>195.80000305176</ele>
        <time>2023-05-30T14:36:29.000Z</time>
      </trkpt>
      <trkpt lat="46.10118" lon="4.76721">
        <ele>195.80000305176</ele>
        <time>2023-05-30T14:36:30.000Z</time>
      </trkpt>
      <trkpt lat="46.10111" lon="4.76772">
        <ele>195.80000305176</ele>
        <time>2023-05-30T14:36:35.000Z</time>
      </trkpt>
      <trkpt lat="46.10097" lon="4.76851">
        <ele>196</ele>
        <time>2023-05-30T14:36:43.000Z</time>
      </trkpt>
      <trkpt lat="46.10093" lon="4.76872">
        <ele>196</ele>
        <time>2023-05-30T14:36:45.000Z</time>
      </trkpt>
      <trkpt lat="46.10083" lon="4.7694">
        <ele>196.19999694824</ele>
        <time>2023-05-30T14:36:52.000Z</time>
      </trkpt>
      <trkpt lat="46.10077" lon="4.76974">
        <ele>196.60000610352</ele>
        <time>2023-05-30T14:36:56.000Z</time>
      </trkpt>
      <trkpt lat="46.10073" lon="4.7698">
        <ele>196.60000610352</ele>
        <time>2023-05-30T14:36:57.000Z</time>
      </trkpt>
      <trkpt lat="46.10069" lon="4.76985">
        <ele>196.60000610352</ele>
        <time>2023-05-30T14:36:58.000Z</time>
      </trkpt>
      <trkpt lat="46.10058" lon="4.76992">
        <ele>196.80000305176</ele>
        <time>2023-05-30T14:37:00.000Z</time>
      </trkpt>
      <trkpt lat="46.1005" lon="4.77005">
        <ele>197</ele>
        <time>2023-05-30T14:37:02.000Z</time>
      </trkpt>
      <trkpt lat="46.1005" lon="4.77013">
        <ele>197.39999389648</ele>
        <time>2023-05-30T14:37:03.000Z</time>
      </trkpt>
      <trkpt lat="46.10052" lon="4.77023">
        <ele>197.39999389648</ele>
        <time>2023-05-30T14:37:04.000Z</time>
      </trkpt>
      <trkpt lat="46.10059" lon="4.77038">
        <ele>197.39999389648</ele>
        <time>2023-05-30T14:37:06.000Z</time>
      </trkpt>
      <trkpt lat="46.10062" lon="4.77055">
        <ele>197.60000610352</ele>
        <time>2023-05-30T14:37:08.000Z</time>
      </trkpt>
      <trkpt lat="46.10062" lon="4.77063">
        <ele>197.80000305176</ele>
        <time>2023-05-30T14:37:09.000Z</time>
      </trkpt>
      <trkpt lat="46.10058" lon="4.77086">
        <ele>198.80000305176</ele>
        <time>2023-05-30T14:37:12.000Z</time>
      </trkpt>
      <trkpt lat="46.10054" lon="4.77115">
        <ele>199.60000610352</ele>
        <time>2023-05-30T14:37:16.000Z</time>
      </trkpt>
      <trkpt lat="46.10053" lon="4.77122">
        <ele>200</ele>
        <time>2023-05-30T14:37:17.000Z</time>
      </trkpt>
      <trkpt lat="46.10049" lon="4.77143">
        <ele>200.39999389648</ele>
        <time>2023-05-30T14:37:20.000Z</time>
      </trkpt>
      <trkpt lat="46.10046" lon="4.77156">
        <ele>201.19999694824</ele>
        <time>2023-05-30T14:37:22.000Z</time>
      </trkpt>
      <trkpt lat="46.10045" lon="4.77163">
        <ele>201.39999389648</ele>
        <time>2023-05-30T14:37:23.000Z</time>
      </trkpt>
      <trkpt lat="46.10041" lon="4.77183">
        <ele>202.39999389648</ele>
        <time>2023-05-30T14:37:26.000Z</time>
      </trkpt>
      <trkpt lat="46.10035" lon="4.77216">
        <ele>203.60000610352</ele>
        <time>2023-05-30T14:37:31.000Z</time>
      </trkpt>
      <trkpt lat="46.10035" lon="4.77223">
        <ele>203.80000305176</ele>
        <time>2023-05-30T14:37:32.000Z</time>
      </trkpt>
      <trkpt lat="46.10031" lon="4.77257">
        <ele>204.80000305176</ele>
        <time>2023-05-30T14:37:37.000Z</time>
      </trkpt>
      <trkpt lat="46.10026" lon="4.77287">
        <ele>206</ele>
        <time>2023-05-30T14:37:41.000Z</time>
      </trkpt>
      <trkpt lat="46.10019" lon="4.77334">
        <ele>207.39999389648</ele>
        <time>2023-05-30T14:37:47.000Z</time>
      </trkpt>
      <trkpt lat="46.10018" lon="4.77342">
        <ele>207.60000610352</ele>
        <time>2023-05-30T14:37:48.000Z</time>
      </trkpt>
      <trkpt lat="46.10014" lon="4.77371">
        <ele>208.60000610352</ele>
        <time>2023-05-30T14:37:52.000Z</time>
      </trkpt>
      <trkpt lat="46.10012" lon="4.77389">
        <ele>209.60000610352</ele>
        <time>2023-05-30T14:37:55.000Z</time>
      </trkpt>
      <trkpt lat="46.1001" lon="4.77407">
        <ele>210.39999389648</ele>
        <time>2023-05-30T14:37:58.000Z</time>
      </trkpt>
      <trkpt lat="46.10007" lon="4.77419">
        <ele>210.60000610352</ele>
        <time>2023-05-30T14:38:00.000Z</time>
      </trkpt>
      <trkpt lat="46.10006" lon="4.77426">
        <ele>210.80000305176</ele>
        <time>2023-05-30T14:38:01.000Z</time>
      </trkpt>
      <trkpt lat="46.1" lon="4.77438">
        <ele>211</ele>
        <time>2023-05-30T14:38:03.000Z</time>
      </trkpt>
      <trkpt lat="46.09996" lon="4.77441">
        <ele>211.19999694824</ele>
        <time>2023-05-30T14:38:04.000Z</time>
      </trkpt>
      <trkpt lat="46.09991" lon="4.77442">
        <ele>211.60000610352</ele>
        <time>2023-05-30T14:38:05.000Z</time>
      </trkpt>
      <trkpt lat="46.09985" lon="4.7744">
        <ele>211.60000610352</ele>
        <time>2023-05-30T14:38:06.000Z</time>
      </trkpt>
      <trkpt lat="46.09981" lon="4.77437">
        <ele>211.80000305176</ele>
        <time>2023-05-30T14:38:07.000Z</time>
      </trkpt>
      <trkpt lat="46.09933" lon="4.7741">
        <ele>212.60000610352</ele>
        <time>2023-05-30T14:38:16.000Z</time>
      </trkpt>
      <trkpt lat="46.09928" lon="4.77407">
        <ele>212.60000610352</ele>
        <time>2023-05-30T14:38:17.000Z</time>
      </trkpt>
      <trkpt lat="46.09891" lon="4.77386">
        <ele>213</ele>
        <time>2023-05-30T14:38:24.000Z</time>
      </trkpt>
      <trkpt lat="46.09881" lon="4.7738">
        <ele>213.19999694824</ele>
        <time>2023-05-30T14:38:26.000Z</time>
      </trkpt>
      <trkpt lat="46.09843" lon="4.77359">
        <ele>213.80000305176</ele>
        <time>2023-05-30T14:38:33.000Z</time>
      </trkpt>
      <trkpt lat="46.09827" lon="4.77349">
        <ele>214</ele>
        <time>2023-05-30T14:38:36.000Z</time>
      </trkpt>
      <trkpt lat="46.09779" lon="4.77323">
        <ele>214.60000610352</ele>
        <time>2023-05-30T14:38:45.000Z</time>
      </trkpt>
      <trkpt lat="46.09768" lon="4.77317">
        <ele>214.80000305176</ele>
        <time>2023-05-30T14:38:47.000Z</time>
      </trkpt>
      <trkpt lat="46.09731" lon="4.77299">
        <ele>215.39999389648</ele>
        <time>2023-05-30T14:38:54.000Z</time>
      </trkpt>
      <trkpt lat="46.09725" lon="4.77296">
        <ele>215.39999389648</ele>
        <time>2023-05-30T14:38:55.000Z</time>
      </trkpt>
      <trkpt lat="46.09714" lon="4.7729">
        <ele>215.80000305176</ele>
        <time>2023-05-30T14:38:57.000Z</time>
      </trkpt>
      <trkpt lat="46.09679" lon="4.77269">
        <ele>216.60000610352</ele>
        <time>2023-05-30T14:39:04.000Z</time>
      </trkpt>
      <trkpt lat="46.09674" lon="4.77264">
        <ele>216.80000305176</ele>
        <time>2023-05-30T14:39:05.000Z</time>
      </trkpt>
      <trkpt lat="46.09668" lon="4.7726">
        <ele>217</ele>
        <time>2023-05-30T14:39:06.000Z</time>
      </trkpt>
      <trkpt lat="46.09657" lon="4.77259">
        <ele>217.19999694824</ele>
        <time>2023-05-30T14:39:08.000Z</time>
      </trkpt>
      <trkpt lat="46.09648" lon="4.77269">
        <ele>217.60000610352</ele>
        <time>2023-05-30T14:39:10.000Z</time>
      </trkpt>
      <trkpt lat="46.09646" lon="4.77277">
        <ele>217.60000610352</ele>
        <time>2023-05-30T14:39:11.000Z</time>
      </trkpt>
      <trkpt lat="46.09644" lon="4.77294">
        <ele>217.80000305176</ele>
        <time>2023-05-30T14:39:13.000Z</time>
      </trkpt>
      <trkpt lat="46.09642" lon="4.77303">
        <ele>218</ele>
        <time>2023-05-30T14:39:14.000Z</time>
      </trkpt>
      <trkpt lat="46.09636" lon="4.77318">
        <ele>218.39999389648</ele>
        <time>2023-05-30T14:39:16.000Z</time>
      </trkpt>
      <trkpt lat="46.09628" lon="4.77337">
        <ele>219.39999389648</ele>
        <time>2023-05-30T14:39:19.000Z</time>
      </trkpt>
      <trkpt lat="46.09625" lon="4.77342">
        <ele>219.39999389648</ele>
        <time>2023-05-30T14:39:20.000Z</time>
      </trkpt>
      <trkpt lat="46.09621" lon="4.77347">
        <ele>220</ele>
        <time>2023-05-30T14:39:21.000Z</time>
      </trkpt>
      <trkpt lat="46.09615" lon="4.77358">
        <ele>220.39999389648</ele>
        <time>2023-05-30T14:39:23.000Z</time>
      </trkpt>
      <trkpt lat="46.09605" lon="4.77379">
        <ele>221.80000305176</ele>
        <time>2023-05-30T14:39:27.000Z</time>
      </trkpt>
      <trkpt lat="46.09593" lon="4.77403">
        <ele>223.19999694824</ele>
        <time>2023-05-30T14:39:32.000Z</time>
      </trkpt>
      <trkpt lat="46.09588" lon="4.77413">
        <ele>223.39999389648</ele>
        <time>2023-05-30T14:39:34.000Z</time>
      </trkpt>
      <trkpt lat="46.09583" lon="4.77425">
        <ele>224.39999389648</ele>
        <time>2023-05-30T14:39:37.000Z</time>
      </trkpt>
      <trkpt lat="46.09576" lon="4.77441">
        <ele>225.39999389648</ele>
        <time>2023-05-30T14:39:40.000Z</time>
      </trkpt>
      <trkpt lat="46.09574" lon="4.77446">
        <ele>225.80000305176</ele>
        <time>2023-05-30T14:39:41.000Z</time>
      </trkpt>
      <trkpt lat="46.09568" lon="4.7746">
        <ele>226.80000305176</ele>
        <time>2023-05-30T14:39:44.000Z</time>
      </trkpt>
      <trkpt lat="46.09557" lon="4.77483">
        <ele>227.80000305176</ele>
        <time>2023-05-30T14:39:49.000Z</time>
      </trkpt>
      <trkpt lat="46.09551" lon="4.77495">
        <ele>228.39999389648</ele>
        <time>2023-05-30T14:39:52.000Z</time>
      </trkpt>
      <trkpt lat="46.09548" lon="4.77503">
        <ele>229</ele>
        <time>2023-05-30T14:39:54.000Z</time>
      </trkpt>
      <trkpt lat="46.0954" lon="4.7752">
        <ele>230</ele>
        <time>2023-05-30T14:39:58.000Z</time>
      </trkpt>
      <trkpt lat="46.09539" lon="4.77524">
        <ele>230.19999694824</ele>
        <time>2023-05-30T14:39:59.000Z</time>
      </trkpt>
      <trkpt lat="46.09528" lon="4.77549">
        <ele>231.19999694824</ele>
        <time>2023-05-30T14:40:05.000Z</time>
      </trkpt>
      <trkpt lat="46.09525" lon="4.77554">
        <ele>231.19999694824</ele>
        <time>2023-05-30T14:40:06.000Z</time>
      </trkpt>
      <trkpt lat="46.09512" lon="4.77583">
        <ele>232.39999389648</ele>
        <time>2023-05-30T14:40:12.000Z</time>
      </trkpt>
      <trkpt lat="46.09505" lon="4.77596">
        <ele>233</ele>
        <time>2023-05-30T14:40:15.000Z</time>
      </trkpt>
      <trkpt lat="46.09498" lon="4.77614">
        <ele>233.60000610352</ele>
        <time>2023-05-30T14:40:18.000Z</time>
      </trkpt>
      <trkpt lat="46.09493" lon="4.77623">
        <ele>234</ele>
        <time>2023-05-30T14:40:20.000Z</time>
      </trkpt>
      <trkpt lat="46.09481" lon="4.77646">
        <ele>234.80000305176</ele>
        <time>2023-05-30T14:40:25.000Z</time>
      </trkpt>
      <trkpt lat="46.09477" lon="4.77654">
        <ele>235</ele>
        <time>2023-05-30T14:40:27.000Z</time>
      </trkpt>
      <trkpt lat="46.09465" lon="4.77676">
        <ele>236</ele>
        <time>2023-05-30T14:40:32.000Z</time>
      </trkpt>
      <trkpt lat="46.09453" lon="4.77697">
        <ele>237</ele>
        <time>2023-05-30T14:40:37.000Z</time>
      </trkpt>
      <trkpt lat="46.09437" lon="4.77731">
        <ele>238.19999694824</ele>
        <time>2023-05-30T14:40:44.000Z</time>
      </trkpt>
      <trkpt lat="46.09435" lon="4.77737">
        <ele>238.19999694824</ele>
        <time>2023-05-30T14:40:45.000Z</time>
      </trkpt>
      <trkpt lat="46.09426" lon="4.77764">
        <ele>239.19999694824</ele>
        <time>2023-05-30T14:40:50.000Z</time>
      </trkpt>
      <trkpt lat="46.09417" lon="4.7779">
        <ele>239.80000305176</ele>
        <time>2023-05-30T14:40:55.000Z</time>
      </trkpt>
      <trkpt lat="46.09409" lon="4.7782">
        <ele>240.39999389648</ele>
        <time>2023-05-30T14:41:00.000Z</time>
      </trkpt>
      <trkpt lat="46.09402" lon="4.77851">
        <ele>241.19999694824</ele>
        <time>2023-05-30T14:41:05.000Z</time>
      </trkpt>
      <trkpt lat="46.09397" lon="4.77869">
        <ele>241.39999389648</ele>
        <time>2023-05-30T14:41:08.000Z</time>
      </trkpt>
      <trkpt lat="46.09385" lon="4.77916">
        <ele>242.19999694824</ele>
        <time>2023-05-30T14:41:16.000Z</time>
      </trkpt>
      <trkpt lat="46.0938" lon="4.77936">
        <ele>242.60000610352</ele>
        <time>2023-05-30T14:41:19.000Z</time>
      </trkpt>
      <trkpt lat="46.09369" lon="4.7798">
        <ele>243.19999694824</ele>
        <time>2023-05-30T14:41:26.000Z</time>
      </trkpt>
      <trkpt lat="46.09362" lon="4.78012">
        <ele>243.80000305176</ele>
        <time>2023-05-30T14:41:31.000Z</time>
      </trkpt>
      <trkpt lat="46.09355" lon="4.78042">
        <ele>244.80000305176</ele>
        <time>2023-05-30T14:41:36.000Z</time>
      </trkpt>
      <trkpt lat="46.09353" lon="4.78049">
        <ele>245</ele>
        <time>2023-05-30T14:41:37.000Z</time>
      </trkpt>
      <trkpt lat="46.09338" lon="4.78106">
        <ele>246</ele>
        <time>2023-05-30T14:41:46.000Z</time>
      </trkpt>
      <trkpt lat="46.09336" lon="4.78112">
        <ele>246</ele>
        <time>2023-05-30T14:41:47.000Z</time>
      </trkpt>
      <trkpt lat="46.09315" lon="4.78186">
        <ele>246.39999389648</ele>
        <time>2023-05-30T14:41:57.000Z</time>
      </trkpt>
      <trkpt lat="46.09298" lon="4.78246">
        <ele>246.60000610352</ele>
        <time>2023-05-30T14:42:05.000Z</time>
      </trkpt>
      <trkpt lat="46.09275" lon="4.78318">
        <ele>246.80000305176</ele>
        <time>2023-05-30T14:42:15.000Z</time>
      </trkpt>
      <trkpt lat="46.0927" lon="4.7833">
        <ele>247.19999694824</ele>
        <time>2023-05-30T14:42:17.000Z</time>
      </trkpt>
      <trkpt lat="46.09244" lon="4.78389">
        <ele>247.60000610352</ele>
        <time>2023-05-30T14:42:26.000Z</time>
      </trkpt>
      <trkpt lat="46.09219" lon="4.78442">
        <ele>248.19999694824</ele>
        <time>2023-05-30T14:42:34.000Z</time>
      </trkpt>
      <trkpt lat="46.09216" lon="4.78448">
        <ele>248.19999694824</ele>
        <time>2023-05-30T14:42:35.000Z</time>
      </trkpt>
      <trkpt lat="46.09184" lon="4.78512">
        <ele>249</ele>
        <time>2023-05-30T14:42:45.000Z</time>
      </trkpt>
      <trkpt lat="46.09177" lon="4.78527">
        <ele>249</ele>
        <time>2023-05-30T14:42:47.000Z</time>
      </trkpt>
      <trkpt lat="46.09151" lon="4.78578">
        <ele>249.19999694824</ele>
        <time>2023-05-30T14:42:55.000Z</time>
      </trkpt>
      <trkpt lat="46.09138" lon="4.78605">
        <ele>249.39999389648</ele>
        <time>2023-05-30T14:42:59.000Z</time>
      </trkpt>
      <trkpt lat="46.09105" lon="4.78674">
        <ele>250</ele>
        <time>2023-05-30T14:43:09.000Z</time>
      </trkpt>
      <trkpt lat="46.09102" lon="4.7868">
        <ele>250.19999694824</ele>
        <time>2023-05-30T14:43:10.000Z</time>
      </trkpt>
      <trkpt lat="46.09094" lon="4.78694">
        <ele>250.19999694824</ele>
        <time>2023-05-30T14:43:12.000Z</time>
      </trkpt>
      <trkpt lat="46.09067" lon="4.78748">
        <ele>250.60000610352</ele>
        <time>2023-05-30T14:43:20.000Z</time>
      </trkpt>
      <trkpt lat="46.09036" lon="4.78809">
        <ele>251.19999694824</ele>
        <time>2023-05-30T14:43:29.000Z</time>
      </trkpt>
      <trkpt lat="46.09013" lon="4.78856">
        <ele>251.39999389648</ele>
        <time>2023-05-30T14:43:36.000Z</time>
      </trkpt>
      <trkpt lat="46.09007" lon="4.78869">
        <ele>251.60000610352</ele>
        <time>2023-05-30T14:43:38.000Z</time>
      </trkpt>
      <trkpt lat="46.08991" lon="4.78912">
        <ele>251.80000305176</ele>
        <time>2023-05-30T14:43:44.000Z</time>
      </trkpt>
      <trkpt lat="46.0897" lon="4.78974">
        <ele>252.39999389648</ele>
        <time>2023-05-30T14:43:52.000Z</time>
      </trkpt>
      <trkpt lat="46.08947" lon="4.79032">
        <ele>252</ele>
        <time>2023-05-30T14:44:00.000Z</time>
      </trkpt>
      <trkpt lat="46.08918" lon="4.79088">
        <ele>252</ele>
        <time>2023-05-30T14:44:08.000Z</time>
      </trkpt>
      <trkpt lat="46.08892" lon="4.79133">
        <ele>252</ele>
        <time>2023-05-30T14:44:15.000Z</time>
      </trkpt>
      <trkpt lat="46.08857" lon="4.79192">
        <ele>252</ele>
        <time>2023-05-30T14:44:24.000Z</time>
      </trkpt>
      <trkpt lat="46.08849" lon="4.79203">
        <ele>252.19999694824</ele>
        <time>2023-05-30T14:44:26.000Z</time>
      </trkpt>
      <trkpt lat="46.08811" lon="4.79245">
        <ele>252.19999694824</ele>
        <time>2023-05-30T14:44:34.000Z</time>
      </trkpt>
      <trkpt lat="46.08765" lon="4.79289">
        <ele>251.80000305176</ele>
        <time>2023-05-30T14:44:43.000Z</time>
      </trkpt>
      <trkpt lat="46.08719" lon="4.7934">
        <ele>251.60000610352</ele>
        <time>2023-05-30T14:44:53.000Z</time>
      </trkpt>
      <trkpt lat="46.08713" lon="4.79347">
        <ele>251.60000610352</ele>
        <time>2023-05-30T14:44:54.000Z</time>
      </trkpt>
      <trkpt lat="46.08676" lon="4.79403">
        <ele>251.60000610352</ele>
        <time>2023-05-30T14:45:03.000Z</time>
      </trkpt>
      <trkpt lat="46.08643" lon="4.79457">
        <ele>251.39999389648</ele>
        <time>2023-05-30T14:45:11.000Z</time>
      </trkpt>
      <trkpt lat="46.08603" lon="4.79521">
        <ele>251</ele>
        <time>2023-05-30T14:45:20.000Z</time>
      </trkpt>
      <trkpt lat="46.08599" lon="4.79526">
        <ele>251</ele>
        <time>2023-05-30T14:45:21.000Z</time>
      </trkpt>
      <trkpt lat="46.08557" lon="4.79572">
        <ele>251.39999389648</ele>
        <time>2023-05-30T14:45:29.000Z</time>
      </trkpt>
      <trkpt lat="46.08511" lon="4.79618">
        <ele>251.60000610352</ele>
        <time>2023-05-30T14:45:38.000Z</time>
      </trkpt>
      <trkpt lat="46.08502" lon="4.79627">
        <ele>251.80000305176</ele>
        <time>2023-05-30T14:45:40.000Z</time>
      </trkpt>
      <trkpt lat="46.08457" lon="4.79672">
        <ele>252.19999694824</ele>
        <time>2023-05-30T14:45:49.000Z</time>
      </trkpt>
      <trkpt lat="46.08447" lon="4.79682">
        <ele>252.39999389648</ele>
        <time>2023-05-30T14:45:51.000Z</time>
      </trkpt>
      <trkpt lat="46.08412" lon="4.79716">
        <ele>252.80000305176</ele>
        <time>2023-05-30T14:45:58.000Z</time>
      </trkpt>
      <trkpt lat="46.08403" lon="4.79725">
        <ele>252.80000305176</ele>
        <time>2023-05-30T14:46:00.000Z</time>
      </trkpt>
      <trkpt lat="46.08373" lon="4.79761">
        <ele>253.19999694824</ele>
        <time>2023-05-30T14:46:06.000Z</time>
      </trkpt>
      <trkpt lat="46.08351" lon="4.79804">
        <ele>253.19999694824</ele>
        <time>2023-05-30T14:46:12.000Z</time>
      </trkpt>
      <trkpt lat="46.08328" lon="4.79867">
        <ele>253.39999389648</ele>
        <time>2023-05-30T14:46:20.000Z</time>
      </trkpt>
      <trkpt lat="46.08321" lon="4.7989">
        <ele>253.39999389648</ele>
        <time>2023-05-30T14:46:23.000Z</time>
      </trkpt>
      <trkpt lat="46.0829" lon="4.79963">
        <ele>253.39999389648</ele>
        <time>2023-05-30T14:46:32.000Z</time>
      </trkpt>
      <trkpt lat="46.08257" lon="4.80025">
        <ele>253.39999389648</ele>
        <time>2023-05-30T14:46:40.000Z</time>
      </trkpt>
      <trkpt lat="46.0825" lon="4.80038">
        <ele>253.39999389648</ele>
        <time>2023-05-30T14:46:42.000Z</time>
      </trkpt>
      <trkpt lat="46.0821" lon="4.80098">
        <ele>253.39999389648</ele>
        <time>2023-05-30T14:46:51.000Z</time>
      </trkpt>
      <trkpt lat="46.08205" lon="4.80107">
        <ele>253.39999389648</ele>
        <time>2023-05-30T14:46:52.000Z</time>
      </trkpt>
      <trkpt lat="46.08185" lon="4.80139">
        <ele>253.39999389648</ele>
        <time>2023-05-30T14:46:57.000Z</time>
      </trkpt>
      <trkpt lat="46.08175" lon="4.80153">
        <ele>253.39999389648</ele>
        <time>2023-05-30T14:46:59.000Z</time>
      </trkpt>
      <trkpt lat="46.08139" lon="4.80215">
        <ele>253.60000610352</ele>
        <time>2023-05-30T14:47:08.000Z</time>
      </trkpt>
      <trkpt lat="46.08132" lon="4.80227">
        <ele>253.60000610352</ele>
        <time>2023-05-30T14:47:10.000Z</time>
      </trkpt>
      <trkpt lat="46.08093" lon="4.80292">
        <ele>252.39999389648</ele>
        <time>2023-05-30T14:47:19.000Z</time>
      </trkpt>
      <trkpt lat="46.0809" lon="4.80298">
        <ele>252.19999694824</ele>
        <time>2023-05-30T14:47:20.000Z</time>
      </trkpt>
      <trkpt lat="46.08074" lon="4.80324">
        <ele>252</ele>
        <time>2023-05-30T14:47:23.000Z</time>
      </trkpt>
      <trkpt lat="46.0806" lon="4.80348">
        <ele>251.60000610352</ele>
        <time>2023-05-30T14:47:26.000Z</time>
      </trkpt>
      <trkpt lat="46.08049" lon="4.80367">
        <ele>250.80000305176</ele>
        <time>2023-05-30T14:47:28.000Z</time>
      </trkpt>
      <trkpt lat="46.08028" lon="4.80403">
        <ele>249.80000305176</ele>
        <time>2023-05-30T14:47:32.000Z</time>
      </trkpt>
      <trkpt lat="46.08018" lon="4.80419">
        <ele>249.19999694824</ele>
        <time>2023-05-30T14:47:34.000Z</time>
      </trkpt>
      <trkpt lat="46.08003" lon="4.80446">
        <ele>248.60000610352</ele>
        <time>2023-05-30T14:47:37.000Z</time>
      </trkpt>
      <trkpt lat="46.07988" lon="4.8047">
        <ele>248.19999694824</ele>
        <time>2023-05-30T14:47:40.000Z</time>
      </trkpt>
      <trkpt lat="46.07982" lon="4.80476">
        <ele>248</ele>
        <time>2023-05-30T14:47:41.000Z</time>
      </trkpt>
      <trkpt lat="46.07977" lon="4.80479">
        <ele>247.60000610352</ele>
        <time>2023-05-30T14:47:42.000Z</time>
      </trkpt>
      <trkpt lat="46.07969" lon="4.8048">
        <ele>247</ele>
        <time>2023-05-30T14:47:44.000Z</time>
      </trkpt>
      <trkpt lat="46.07964" lon="4.80481">
        <ele>246.80000305176</ele>
        <time>2023-05-30T14:47:45.000Z</time>
      </trkpt>
      <trkpt lat="46.07957" lon="4.80494">
        <ele>246.60000610352</ele>
        <time>2023-05-30T14:47:47.000Z</time>
      </trkpt>
      <trkpt lat="46.07947" lon="4.80557">
        <ele>246.39999389648</ele>
        <time>2023-05-30T14:47:54.000Z</time>
      </trkpt>
      <trkpt lat="46.07937" lon="4.80624">
        <ele>247.19999694824</ele>
        <time>2023-05-30T14:48:01.000Z</time>
      </trkpt>
      <trkpt lat="46.07926" lon="4.807">
        <ele>247.19999694824</ele>
        <time>2023-05-30T14:48:09.000Z</time>
      </trkpt>
      <trkpt lat="46.07912" lon="4.80781">
        <ele>246.19999694824</ele>
        <time>2023-05-30T14:48:17.000Z</time>
      </trkpt>
      <trkpt lat="46.0791" lon="4.80791">
        <ele>246.19999694824</ele>
        <time>2023-05-30T14:48:18.000Z</time>
      </trkpt>
      <trkpt lat="46.079" lon="4.80853">
        <ele>245.60000610352</ele>
        <time>2023-05-30T14:48:24.000Z</time>
      </trkpt>
      <trkpt lat="46.07896" lon="4.80878">
        <ele>245.39999389648</ele>
        <time>2023-05-30T14:48:27.000Z</time>
      </trkpt>
      <trkpt lat="46.07888" lon="4.80927">
        <ele>246</ele>
        <time>2023-05-30T14:48:33.000Z</time>
      </trkpt>
      <trkpt lat="46.07882" lon="4.80958">
        <ele>246.60000610352</ele>
        <time>2023-05-30T14:48:37.000Z</time>
      </trkpt>
      <trkpt lat="46.07879" lon="4.80968">
        <ele>246.60000610352</ele>
        <time>2023-05-30T14:48:38.000Z</time>
      </trkpt>
      <trkpt lat="46.07877" lon="4.80975">
        <ele>246.80000305176</ele>
        <time>2023-05-30T14:48:39.000Z</time>
      </trkpt>
      <trkpt lat="46.07855" lon="4.8105">
        <ele>247.60000610352</ele>
        <time>2023-05-30T14:48:49.000Z</time>
      </trkpt>
      <trkpt lat="46.07835" lon="4.81116">
        <ele>247.60000610352</ele>
        <time>2023-05-30T14:48:58.000Z</time>
      </trkpt>
      <trkpt lat="46.07831" lon="4.81129">
        <ele>247.60000610352</ele>
        <time>2023-05-30T14:49:00.000Z</time>
      </trkpt>
      <trkpt lat="46.0781" lon="4.81199">
        <ele>248.19999694824</ele>
        <time>2023-05-30T14:49:10.000Z</time>
      </trkpt>
      <trkpt lat="46.07796" lon="4.81245">
        <ele>248.80000305176</ele>
        <time>2023-05-30T14:49:16.000Z</time>
      </trkpt>
      <trkpt lat="46.07784" lon="4.8129">
        <ele>249.19999694824</ele>
        <time>2023-05-30T14:49:22.000Z</time>
      </trkpt>
      <trkpt lat="46.07763" lon="4.81366">
        <ele>249.39999389648</ele>
        <time>2023-05-30T14:49:32.000Z</time>
      </trkpt>
      <trkpt lat="46.07745" lon="4.81434">
        <ele>249.80000305176</ele>
        <time>2023-05-30T14:49:41.000Z</time>
      </trkpt>
      <trkpt lat="46.07725" lon="4.81486">
        <ele>250</ele>
        <time>2023-05-30T14:49:48.000Z</time>
      </trkpt>
      <trkpt lat="46.0772" lon="4.81499">
        <ele>250.19999694824</ele>
        <time>2023-05-30T14:49:50.000Z</time>
      </trkpt>
      <trkpt lat="46.07713" lon="4.81517">
        <ele>250.60000610352</ele>
        <time>2023-05-30T14:49:53.000Z</time>
      </trkpt>
      <trkpt lat="46.07699" lon="4.81546">
        <ele>251</ele>
        <time>2023-05-30T14:49:57.000Z</time>
      </trkpt>
      <trkpt lat="46.0769" lon="4.81567">
        <ele>251.19999694824</ele>
        <time>2023-05-30T14:50:00.000Z</time>
      </trkpt>
      <trkpt lat="46.07663" lon="4.81635">
        <ele>251.60000610352</ele>
        <time>2023-05-30T14:50:09.000Z</time>
      </trkpt>
      <trkpt lat="46.07661" lon="4.81642">
        <ele>251.39999389648</ele>
        <time>2023-05-30T14:50:10.000Z</time>
      </trkpt>
      <trkpt lat="46.07643" lon="4.81704">
        <ele>251.39999389648</ele>
        <time>2023-05-30T14:50:18.000Z</time>
      </trkpt>
      <trkpt lat="46.07625" lon="4.81767">
        <ele>251.80000305176</ele>
        <time>2023-05-30T14:50:27.000Z</time>
      </trkpt>
      <trkpt lat="46.07621" lon="4.81781">
        <ele>252</ele>
        <time>2023-05-30T14:50:29.000Z</time>
      </trkpt>
      <trkpt lat="46.07613" lon="4.8181">
        <ele>252.80000305176</ele>
        <time>2023-05-30T14:50:34.000Z</time>
      </trkpt>
      <trkpt lat="46.07611" lon="4.81815">
        <ele>253</ele>
        <time>2023-05-30T14:50:35.000Z</time>
      </trkpt>
      <trkpt lat="46.07602" lon="4.81848">
        <ele>253.60000610352</ele>
        <time>2023-05-30T14:50:41.000Z</time>
      </trkpt>
      <trkpt lat="46.07597" lon="4.81866">
        <ele>254.19999694824</ele>
        <time>2023-05-30T14:50:44.000Z</time>
      </trkpt>
      <trkpt lat="46.07588" lon="4.81899">
        <ele>255.19999694824</ele>
        <time>2023-05-30T14:50:50.000Z</time>
      </trkpt>
      <trkpt lat="46.07587" lon="4.81904">
        <ele>255.60000610352</ele>
        <time>2023-05-30T14:50:51.000Z</time>
      </trkpt>
      <trkpt lat="46.07584" lon="4.81914">
        <ele>256.20001220703</ele>
        <time>2023-05-30T14:50:53.000Z</time>
      </trkpt>
      <trkpt lat="46.07577" lon="4.81939">
        <ele>256.79998779297</ele>
        <time>2023-05-30T14:50:58.000Z</time>
      </trkpt>
      <trkpt lat="46.0757" lon="4.81965">
        <ele>257.79998779297</ele>
        <time>2023-05-30T14:51:03.000Z</time>
      </trkpt>
      <trkpt lat="46.07563" lon="4.81991">
        <ele>258.79998779297</ele>
        <time>2023-05-30T14:51:08.000Z</time>
      </trkpt>
      <trkpt lat="46.07562" lon="4.81996">
        <ele>259</ele>
        <time>2023-05-30T14:51:09.000Z</time>
      </trkpt>
      <trkpt lat="46.07548" lon="4.82044">
        <ele>260</ele>
        <time>2023-05-30T14:51:19.000Z</time>
      </trkpt>
      <trkpt lat="46.0754" lon="4.82075">
        <ele>261.20001220703</ele>
        <time>2023-05-30T14:51:25.000Z</time>
      </trkpt>
      <trkpt lat="46.07532" lon="4.82104">
        <ele>262</ele>
        <time>2023-05-30T14:51:31.000Z</time>
      </trkpt>
      <trkpt lat="46.07531" lon="4.82109">
        <ele>262.20001220703</ele>
        <time>2023-05-30T14:51:32.000Z</time>
      </trkpt>
      <trkpt lat="46.07524" lon="4.82131">
        <ele>263.20001220703</ele>
        <time>2023-05-30T14:51:37.000Z</time>
      </trkpt>
      <trkpt lat="46.07519" lon="4.8215">
        <ele>263.79998779297</ele>
        <time>2023-05-30T14:51:41.000Z</time>
      </trkpt>
      <trkpt lat="46.07515" lon="4.82164">
        <ele>264.39999389648</ele>
        <time>2023-05-30T14:51:44.000Z</time>
      </trkpt>
      <trkpt lat="46.07507" lon="4.82192">
        <ele>265.20001220703</ele>
        <time>2023-05-30T14:51:50.000Z</time>
      </trkpt>
      <trkpt lat="46.07506" lon="4.82197">
        <ele>265.39999389648</ele>
        <time>2023-05-30T14:51:51.000Z</time>
      </trkpt>
      <trkpt lat="46.07498" lon="4.82225">
        <ele>266.39999389648</ele>
        <time>2023-05-30T14:51:57.000Z</time>
      </trkpt>
      <trkpt lat="46.07494" lon="4.82239">
        <ele>266.79998779297</ele>
        <time>2023-05-30T14:52:00.000Z</time>
      </trkpt>
      <trkpt lat="46.07487" lon="4.82263">
        <ele>267.60000610352</ele>
        <time>2023-05-30T14:52:05.000Z</time>
      </trkpt>
      <trkpt lat="46.0748" lon="4.82287">
        <ele>268.79998779297</ele>
        <time>2023-05-30T14:52:10.000Z</time>
      </trkpt>
      <trkpt lat="46.07479" lon="4.8229">
        <ele>268.79998779297</ele>
        <time>2023-05-30T14:52:11.000Z</time>
      </trkpt>
      <trkpt lat="46.07472" lon="4.82314">
        <ele>270</ele>
        <time>2023-05-30T14:52:16.000Z</time>
      </trkpt>
      <trkpt lat="46.07468" lon="4.82328">
        <ele>270.39999389648</ele>
        <time>2023-05-30T14:52:19.000Z</time>
      </trkpt>
      <trkpt lat="46.07463" lon="4.82347">
        <ele>271.20001220703</ele>
        <time>2023-05-30T14:52:23.000Z</time>
      </trkpt>
      <trkpt lat="46.07454" lon="4.8238">
        <ele>271.79998779297</ele>
        <time>2023-05-30T14:52:30.000Z</time>
      </trkpt>
      <trkpt lat="46.07453" lon="4.82385">
        <ele>272</ele>
        <time>2023-05-30T14:52:31.000Z</time>
      </trkpt>
      <trkpt lat="46.07448" lon="4.82404">
        <ele>273</ele>
        <time>2023-05-30T14:52:35.000Z</time>
      </trkpt>
      <trkpt lat="46.07444" lon="4.82419">
        <ele>273.60000610352</ele>
        <time>2023-05-30T14:52:38.000Z</time>
      </trkpt>
      <trkpt lat="46.07441" lon="4.82429">
        <ele>274.20001220703</ele>
        <time>2023-05-30T14:52:40.000Z</time>
      </trkpt>
      <trkpt lat="46.07435" lon="4.8246">
        <ele>275.60000610352</ele>
        <time>2023-05-30T14:52:46.000Z</time>
      </trkpt>
      <trkpt lat="46.07432" lon="4.82488">
        <ele>277</ele>
        <time>2023-05-30T14:52:51.000Z</time>
      </trkpt>
      <trkpt lat="46.07429" lon="4.82511">
        <ele>277.79998779297</ele>
        <time>2023-05-30T14:52:55.000Z</time>
      </trkpt>
      <trkpt lat="46.07427" lon="4.82527">
        <ele>278.20001220703</ele>
        <time>2023-05-30T14:52:58.000Z</time>
      </trkpt>
      <trkpt lat="46.0742" lon="4.82578">
        <ele>278.79998779297</ele>
        <time>2023-05-30T14:53:06.000Z</time>
      </trkpt>
      <trkpt lat="46.07413" lon="4.82637">
        <ele>279.20001220703</ele>
        <time>2023-05-30T14:53:14.000Z</time>
      </trkpt>
      <trkpt lat="46.07413" lon="4.82645">
        <ele>279.20001220703</ele>
        <time>2023-05-30T14:53:15.000Z</time>
      </trkpt>
      <trkpt lat="46.07403" lon="4.82723">
        <ele>279.39999389648</ele>
        <time>2023-05-30T14:53:26.000Z</time>
      </trkpt>
      <trkpt lat="46.07402" lon="4.82731">
        <ele>279.39999389648</ele>
        <time>2023-05-30T14:53:27.000Z</time>
      </trkpt>
      <trkpt lat="46.07395" lon="4.82799">
        <ele>280</ele>
        <time>2023-05-30T14:53:36.000Z</time>
      </trkpt>
      <trkpt lat="46.07387" lon="4.82851">
        <ele>280</ele>
        <time>2023-05-30T14:53:43.000Z</time>
      </trkpt>
      <trkpt lat="46.07385" lon="4.82889">
        <ele>280.39999389648</ele>
        <time>2023-05-30T14:53:48.000Z</time>
      </trkpt>
      <trkpt lat="46.07383" lon="4.82905">
        <ele>280.39999389648</ele>
        <time>2023-05-30T14:53:50.000Z</time>
      </trkpt>
      <trkpt lat="46.07383" lon="4.82913">
        <ele>280.60000610352</ele>
        <time>2023-05-30T14:53:51.000Z</time>
      </trkpt>
      <trkpt lat="46.07379" lon="4.82975">
        <ele>281</ele>
        <time>2023-05-30T14:53:59.000Z</time>
      </trkpt>
      <trkpt lat="46.07377" lon="4.83052">
        <ele>281.60000610352</ele>
        <time>2023-05-30T14:54:09.000Z</time>
      </trkpt>
      <trkpt lat="46.07377" lon="4.83061">
        <ele>281.60000610352</ele>
        <time>2023-05-30T14:54:10.000Z</time>
      </trkpt>
      <trkpt lat="46.07368" lon="4.83116">
        <ele>281.79998779297</ele>
        <time>2023-05-30T14:54:17.000Z</time>
      </trkpt>
      <trkpt lat="46.07348" lon="4.83183">
        <ele>281.79998779297</ele>
        <time>2023-05-30T14:54:26.000Z</time>
      </trkpt>
      <trkpt lat="46.07326" lon="4.83252">
        <ele>281.60000610352</ele>
        <time>2023-05-30T14:54:36.000Z</time>
      </trkpt>
      <trkpt lat="46.07306" lon="4.8331">
        <ele>281.20001220703</ele>
        <time>2023-05-30T14:54:44.000Z</time>
      </trkpt>
      <trkpt lat="46.07288" lon="4.83371">
        <ele>280.79998779297</ele>
        <time>2023-05-30T14:54:52.000Z</time>
      </trkpt>
      <trkpt lat="46.07287" lon="4.83415">
        <ele>280.79998779297</ele>
        <time>2023-05-30T14:54:57.000Z</time>
      </trkpt>
      <trkpt lat="46.07289" lon="4.83444">
        <ele>280.39999389648</ele>
        <time>2023-05-30T14:55:00.000Z</time>
      </trkpt>
      <trkpt lat="46.07291" lon="4.83487">
        <ele>279.39999389648</ele>
        <time>2023-05-30T14:55:05.000Z</time>
      </trkpt>
      <trkpt lat="46.07291" lon="4.83502">
        <ele>279.39999389648</ele>
        <time>2023-05-30T14:55:07.000Z</time>
      </trkpt>
      <trkpt lat="46.07288" lon="4.83536">
        <ele>279.39999389648</ele>
        <time>2023-05-30T14:55:11.000Z</time>
      </trkpt>
      <trkpt lat="46.0728" lon="4.83586">
        <ele>279.39999389648</ele>
        <time>2023-05-30T14:55:17.000Z</time>
      </trkpt>
      <trkpt lat="46.07276" lon="4.83605">
        <ele>279.20001220703</ele>
        <time>2023-05-30T14:55:19.000Z</time>
      </trkpt>
      <trkpt lat="46.07272" lon="4.83629">
        <ele>279</ele>
        <time>2023-05-30T14:55:22.000Z</time>
      </trkpt>
      <trkpt lat="46.07265" lon="4.83667">
        <ele>278.39999389648</ele>
        <time>2023-05-30T14:55:26.000Z</time>
      </trkpt>
      <trkpt lat="46.07262" lon="4.83685">
        <ele>278.20001220703</ele>
        <time>2023-05-30T14:55:28.000Z</time>
      </trkpt>
      <trkpt lat="46.0725" lon="4.83746">
        <ele>277.79998779297</ele>
        <time>2023-05-30T14:55:35.000Z</time>
      </trkpt>
      <trkpt lat="46.07233" lon="4.83816">
        <ele>277.39999389648</ele>
        <time>2023-05-30T14:55:43.000Z</time>
      </trkpt>
      <trkpt lat="46.07213" lon="4.83887">
        <ele>277.79998779297</ele>
        <time>2023-05-30T14:55:52.000Z</time>
      </trkpt>
      <trkpt lat="46.07195" lon="4.83962">
        <ele>278.39999389648</ele>
        <time>2023-05-30T14:56:01.000Z</time>
      </trkpt>
      <trkpt lat="46.07194" lon="4.8397">
        <ele>278.39999389648</ele>
        <time>2023-05-30T14:56:02.000Z</time>
      </trkpt>
      <trkpt lat="46.07179" lon="4.84047">
        <ele>278.79998779297</ele>
        <time>2023-05-30T14:56:11.000Z</time>
      </trkpt>
      <trkpt lat="46.07174" lon="4.84072">
        <ele>278.60000610352</ele>
        <time>2023-05-30T14:56:14.000Z</time>
      </trkpt>
      <trkpt lat="46.0716" lon="4.84144">
        <ele>279</ele>
        <time>2023-05-30T14:56:23.000Z</time>
      </trkpt>
      <trkpt lat="46.07149" lon="4.84198">
        <ele>279.60000610352</ele>
        <time>2023-05-30T14:56:30.000Z</time>
      </trkpt>
      <trkpt lat="46.07145" lon="4.84221">
        <ele>279.79998779297</ele>
        <time>2023-05-30T14:56:33.000Z</time>
      </trkpt>
      <trkpt lat="46.07129" lon="4.84299">
        <ele>279.79998779297</ele>
        <time>2023-05-30T14:56:43.000Z</time>
      </trkpt>
      <trkpt lat="46.07127" lon="4.84313">
        <ele>279.79998779297</ele>
        <time>2023-05-30T14:56:45.000Z</time>
      </trkpt>
      <trkpt lat="46.07113" lon="4.84381">
        <ele>280.39999389648</ele>
        <time>2023-05-30T14:56:54.000Z</time>
      </trkpt>
      <trkpt lat="46.07112" lon="4.84388">
        <ele>280.60000610352</ele>
        <time>2023-05-30T14:56:55.000Z</time>
      </trkpt>
      <trkpt lat="46.07102" lon="4.84442">
        <ele>281</ele>
        <time>2023-05-30T14:57:02.000Z</time>
      </trkpt>
      <trkpt lat="46.07092" lon="4.84521">
        <ele>280.39999389648</ele>
        <time>2023-05-30T14:57:12.000Z</time>
      </trkpt>
      <trkpt lat="46.07089" lon="4.8456">
        <ele>279.60000610352</ele>
        <time>2023-05-30T14:57:16.000Z</time>
      </trkpt>
      <trkpt lat="46.07088" lon="4.8457">
        <ele>279.39999389648</ele>
        <time>2023-05-30T14:57:17.000Z</time>
      </trkpt>
      <trkpt lat="46.07087" lon="4.84578">
        <ele>279.20001220703</ele>
        <time>2023-05-30T14:57:18.000Z</time>
      </trkpt>
      <trkpt lat="46.07082" lon="4.84623">
        <ele>278.20001220703</ele>
        <time>2023-05-30T14:57:22.000Z</time>
      </trkpt>
      <trkpt lat="46.07078" lon="4.84668">
        <ele>277</ele>
        <time>2023-05-30T14:57:26.000Z</time>
      </trkpt>
      <trkpt lat="46.07072" lon="4.84733">
        <ele>275.79998779297</ele>
        <time>2023-05-30T14:57:32.000Z</time>
      </trkpt>
      <trkpt lat="46.07067" lon="4.84784">
        <ele>274.79998779297</ele>
        <time>2023-05-30T14:57:37.000Z</time>
      </trkpt>
      <trkpt lat="46.07061" lon="4.84856">
        <ele>275.20001220703</ele>
        <time>2023-05-30T14:57:45.000Z</time>
      </trkpt>
      <trkpt lat="46.07054" lon="4.84937">
        <ele>275.79998779297</ele>
        <time>2023-05-30T14:57:54.000Z</time>
      </trkpt>
      <trkpt lat="46.07047" lon="4.85014">
        <ele>274.39999389648</ele>
        <time>2023-05-30T14:58:02.000Z</time>
      </trkpt>
      <trkpt lat="46.07046" lon="4.85023">
        <ele>274</ele>
        <time>2023-05-30T14:58:03.000Z</time>
      </trkpt>
      <trkpt lat="46.07042" lon="4.8507">
        <ele>272.79998779297</ele>
        <time>2023-05-30T14:58:07.000Z</time>
      </trkpt>
      <trkpt lat="46.07039" lon="4.85098">
        <ele>272.20001220703</ele>
        <time>2023-05-30T14:58:09.000Z</time>
      </trkpt>
      <trkpt lat="46.07038" lon="4.85111">
        <ele>271.60000610352</ele>
        <time>2023-05-30T14:58:10.000Z</time>
      </trkpt>
      <trkpt lat="46.07035" lon="4.85137">
        <ele>270.39999389648</ele>
        <time>2023-05-30T14:58:12.000Z</time>
      </trkpt>
      <trkpt lat="46.07033" lon="4.85164">
        <ele>269.39999389648</ele>
        <time>2023-05-30T14:58:14.000Z</time>
      </trkpt>
      <trkpt lat="46.0703" lon="4.85191">
        <ele>268.39999389648</ele>
        <time>2023-05-30T14:58:16.000Z</time>
      </trkpt>
      <trkpt lat="46.07029" lon="4.85204">
        <ele>268</ele>
        <time>2023-05-30T14:58:17.000Z</time>
      </trkpt>
      <trkpt lat="46.07024" lon="4.85252">
        <ele>266.79998779297</ele>
        <time>2023-05-30T14:58:21.000Z</time>
      </trkpt>
      <trkpt lat="46.07022" lon="4.85277">
        <ele>266.20001220703</ele>
        <time>2023-05-30T14:58:23.000Z</time>
      </trkpt>
      <trkpt lat="46.07019" lon="4.85311">
        <ele>265.79998779297</ele>
        <time>2023-05-30T14:58:26.000Z</time>
      </trkpt>
      <trkpt lat="46.07014" lon="4.85353">
        <ele>265.60000610352</ele>
        <time>2023-05-30T14:58:30.000Z</time>
      </trkpt>
      <trkpt lat="46.07007" lon="4.85419">
        <ele>266.20001220703</ele>
        <time>2023-05-30T14:58:37.000Z</time>
      </trkpt>
      <trkpt lat="46.07001" lon="4.85472">
        <ele>266.79998779297</ele>
        <time>2023-05-30T14:58:44.000Z</time>
      </trkpt>
      <trkpt lat="46.07" lon="4.8548">
        <ele>267</ele>
        <time>2023-05-30T14:58:45.000Z</time>
      </trkpt>
      <trkpt lat="46.06994" lon="4.85525">
        <ele>268.20001220703</ele>
        <time>2023-05-30T14:58:51.000Z</time>
      </trkpt>
      <trkpt lat="46.06991" lon="4.85546">
        <ele>268.79998779297</ele>
        <time>2023-05-30T14:58:54.000Z</time>
      </trkpt>
      <trkpt lat="46.06989" lon="4.85559">
        <ele>269.20001220703</ele>
        <time>2023-05-30T14:58:56.000Z</time>
      </trkpt>
      <trkpt lat="46.06986" lon="4.85586">
        <ele>270</ele>
        <time>2023-05-30T14:59:00.000Z</time>
      </trkpt>
      <trkpt lat="46.06985" lon="4.85593">
        <ele>270.20001220703</ele>
        <time>2023-05-30T14:59:01.000Z</time>
      </trkpt>
      <trkpt lat="46.06984" lon="4.85607">
        <ele>270.39999389648</ele>
        <time>2023-05-30T14:59:03.000Z</time>
      </trkpt>
      <trkpt lat="46.06981" lon="4.85626">
        <ele>271.20001220703</ele>
        <time>2023-05-30T14:59:06.000Z</time>
      </trkpt>
      <trkpt lat="46.06981" lon="4.85634">
        <ele>271.39999389648</ele>
        <time>2023-05-30T14:59:07.000Z</time>
      </trkpt>
      <trkpt lat="46.0698" lon="4.85639">
        <ele>271.60000610352</ele>
        <time>2023-05-30T14:59:08.000Z</time>
      </trkpt>
      <trkpt lat="46.06976" lon="4.85671">
        <ele>272.60000610352</ele>
        <time>2023-05-30T14:59:13.000Z</time>
      </trkpt>
      <trkpt lat="46.06973" lon="4.8569">
        <ele>273</ele>
        <time>2023-05-30T14:59:16.000Z</time>
      </trkpt>
      <trkpt lat="46.06969" lon="4.85729">
        <ele>273.60000610352</ele>
        <time>2023-05-30T14:59:22.000Z</time>
      </trkpt>
      <trkpt lat="46.06965" lon="4.85756">
        <ele>274</ele>
        <time>2023-05-30T14:59:26.000Z</time>
      </trkpt>
      <trkpt lat="46.06958" lon="4.85814">
        <ele>274.60000610352</ele>
        <time>2023-05-30T14:59:35.000Z</time>
      </trkpt>
      <trkpt lat="46.06956" lon="4.85827">
        <ele>274.79998779297</ele>
        <time>2023-05-30T14:59:37.000Z</time>
      </trkpt>
      <trkpt lat="46.06949" lon="4.85875">
        <ele>275.79998779297</ele>
        <time>2023-05-30T14:59:45.000Z</time>
      </trkpt>
      <trkpt lat="46.06948" lon="4.85881">
        <ele>275.79998779297</ele>
        <time>2023-05-30T14:59:46.000Z</time>
      </trkpt>
      <trkpt lat="46.06939" lon="4.85941">
        <ele>276.79998779297</ele>
        <time>2023-05-30T14:59:56.000Z</time>
      </trkpt>
      <trkpt lat="46.06937" lon="4.85947">
        <ele>277</ele>
        <time>2023-05-30T14:59:57.000Z</time>
      </trkpt>
      <trkpt lat="46.06925" lon="4.85991">
        <ele>278</ele>
        <time>2023-05-30T15:00:05.000Z</time>
      </trkpt>
      <trkpt lat="46.06902" lon="4.86061">
        <ele>278.79998779297</ele>
        <time>2023-05-30T15:00:17.000Z</time>
      </trkpt>
      <trkpt lat="46.06889" lon="4.8611">
        <ele>279.20001220703</ele>
        <time>2023-05-30T15:00:25.000Z</time>
      </trkpt>
      <trkpt lat="46.06887" lon="4.86123">
        <ele>279.20001220703</ele>
        <time>2023-05-30T15:00:27.000Z</time>
      </trkpt>
      <trkpt lat="46.06883" lon="4.8616">
        <ele>280.20001220703</ele>
        <time>2023-05-30T15:00:33.000Z</time>
      </trkpt>
      <trkpt lat="46.06883" lon="4.86165">
        <ele>280.39999389648</ele>
        <time>2023-05-30T15:00:34.000Z</time>
      </trkpt>
      <trkpt lat="46.06879" lon="4.86206">
        <ele>281.60000610352</ele>
        <time>2023-05-30T15:00:41.000Z</time>
      </trkpt>
      <trkpt lat="46.06878" lon="4.86212">
        <ele>281.60000610352</ele>
        <time>2023-05-30T15:00:42.000Z</time>
      </trkpt>
      <trkpt lat="46.06876" lon="4.86248">
        <ele>282.79998779297</ele>
        <time>2023-05-30T15:00:48.000Z</time>
      </trkpt>
      <trkpt lat="46.06875" lon="4.8627">
        <ele>283.79998779297</ele>
        <time>2023-05-30T15:00:52.000Z</time>
      </trkpt>
      <trkpt lat="46.06875" lon="4.86276">
        <ele>284</ele>
        <time>2023-05-30T15:00:53.000Z</time>
      </trkpt>
      <trkpt lat="46.06875" lon="4.86299">
        <ele>285</ele>
        <time>2023-05-30T15:00:57.000Z</time>
      </trkpt>
      <trkpt lat="46.06876" lon="4.8634">
        <ele>286.20001220703</ele>
        <time>2023-05-30T15:01:04.000Z</time>
      </trkpt>
      <trkpt lat="46.06878" lon="4.86387">
        <ele>287.39999389648</ele>
        <time>2023-05-30T15:01:12.000Z</time>
      </trkpt>
      <trkpt lat="46.06879" lon="4.86417">
        <ele>288.20001220703</ele>
        <time>2023-05-30T15:01:17.000Z</time>
      </trkpt>
      <trkpt lat="46.06879" lon="4.86423">
        <ele>288.39999389648</ele>
        <time>2023-05-30T15:01:18.000Z</time>
      </trkpt>
      <trkpt lat="46.0688" lon="4.86467">
        <ele>289.60000610352</ele>
        <time>2023-05-30T15:01:25.000Z</time>
      </trkpt>
      <trkpt lat="46.0688" lon="4.8648">
        <ele>289.79998779297</ele>
        <time>2023-05-30T15:01:27.000Z</time>
      </trkpt>
      <trkpt lat="46.06881" lon="4.86541">
        <ele>290.60000610352</ele>
        <time>2023-05-30T15:01:36.000Z</time>
      </trkpt>
      <trkpt lat="46.06882" lon="4.86576">
        <ele>290.60000610352</ele>
        <time>2023-05-30T15:01:41.000Z</time>
      </trkpt>
      <trkpt lat="46.06883" lon="4.86612">
        <ele>290.79998779297</ele>
        <time>2023-05-30T15:01:46.000Z</time>
      </trkpt>
      <trkpt lat="46.06884" lon="4.86686">
        <ele>291</ele>
        <time>2023-05-30T15:01:55.000Z</time>
      </trkpt>
      <trkpt lat="46.06885" lon="4.86764">
        <ele>291</ele>
        <time>2023-05-30T15:02:05.000Z</time>
      </trkpt>
      <trkpt lat="46.06885" lon="4.86796">
        <ele>291</ele>
        <time>2023-05-30T15:02:09.000Z</time>
      </trkpt>
      <trkpt lat="46.06886" lon="4.86875">
        <ele>291.39999389648</ele>
        <time>2023-05-30T15:02:19.000Z</time>
      </trkpt>
      <trkpt lat="46.06887" lon="4.86891">
        <ele>291.39999389648</ele>
        <time>2023-05-30T15:02:21.000Z</time>
      </trkpt>
      <trkpt lat="46.06893" lon="4.86928">
        <ele>291.79998779297</ele>
        <time>2023-05-30T15:02:26.000Z</time>
      </trkpt>
      <trkpt lat="46.06897" lon="4.86951">
        <ele>292</ele>
        <time>2023-05-30T15:02:29.000Z</time>
      </trkpt>
      <trkpt lat="46.06913" lon="4.87027">
        <ele>292.60000610352</ele>
        <time>2023-05-30T15:02:39.000Z</time>
      </trkpt>
      <trkpt lat="46.06925" lon="4.8709">
        <ele>292.39999389648</ele>
        <time>2023-05-30T15:02:47.000Z</time>
      </trkpt>
      <trkpt lat="46.06933" lon="4.87149">
        <ele>291.79998779297</ele>
        <time>2023-05-30T15:02:54.000Z</time>
      </trkpt>
      <trkpt lat="46.06936" lon="4.87195">
        <ele>290.79998779297</ele>
        <time>2023-05-30T15:02:59.000Z</time>
      </trkpt>
      <trkpt lat="46.06937" lon="4.87221">
        <ele>290.20001220703</ele>
        <time>2023-05-30T15:03:02.000Z</time>
      </trkpt>
      <trkpt lat="46.06938" lon="4.87258">
        <ele>289.79998779297</ele>
        <time>2023-05-30T15:03:06.000Z</time>
      </trkpt>
      <trkpt lat="46.06938" lon="4.87296">
        <ele>289.39999389648</ele>
        <time>2023-05-30T15:03:10.000Z</time>
      </trkpt>
      <trkpt lat="46.06938" lon="4.87334">
        <ele>288.79998779297</ele>
        <time>2023-05-30T15:03:14.000Z</time>
      </trkpt>
      <trkpt lat="46.06939" lon="4.87361">
        <ele>288</ele>
        <time>2023-05-30T15:03:17.000Z</time>
      </trkpt>
      <trkpt lat="46.06938" lon="4.87417">
        <ele>287.79998779297</ele>
        <time>2023-05-30T15:03:23.000Z</time>
      </trkpt>
      <trkpt lat="46.06937" lon="4.87472">
        <ele>287.60000610352</ele>
        <time>2023-05-30T15:03:29.000Z</time>
      </trkpt>
      <trkpt lat="46.06939" lon="4.87535">
        <ele>287.60000610352</ele>
        <time>2023-05-30T15:03:36.000Z</time>
      </trkpt>
      <trkpt lat="46.06939" lon="4.87535">
        <ele>287.60000610352</ele>
        <time>2023-05-30T15:03:37.000Z</time>
      </trkpt>
      <trkpt lat="46.06942" lon="4.87552">
        <ele>287.60000610352</ele>
        <time>2023-05-30T15:03:38.000Z</time>
      </trkpt>
      <trkpt lat="46.0695" lon="4.87575">
        <ele>287.60000610352</ele>
        <time>2023-05-30T15:03:41.000Z</time>
      </trkpt>
      <trkpt lat="46.0698" lon="4.87644">
        <ele>287.39999389648</ele>
        <time>2023-05-30T15:03:50.000Z</time>
      </trkpt>
      <trkpt lat="46.06984" lon="4.87651">
        <ele>287.39999389648</ele>
        <time>2023-05-30T15:03:51.000Z</time>
      </trkpt>
      <trkpt lat="46.07012" lon="4.87716">
        <ele>288</ele>
        <time>2023-05-30T15:04:00.000Z</time>
      </trkpt>
      <trkpt lat="46.07028" lon="4.87773">
        <ele>288</ele>
        <time>2023-05-30T15:04:07.000Z</time>
      </trkpt>
      <trkpt lat="46.0704" lon="4.87848">
        <ele>287</ele>
        <time>2023-05-30T15:04:15.000Z</time>
      </trkpt>
      <trkpt lat="46.07044" lon="4.87877">
        <ele>286.79998779297</ele>
        <time>2023-05-30T15:04:18.000Z</time>
      </trkpt>
      <trkpt lat="46.07054" lon="4.87946">
        <ele>286.60000610352</ele>
        <time>2023-05-30T15:04:26.000Z</time>
      </trkpt>
      <trkpt lat="46.07065" lon="4.8801">
        <ele>286.60000610352</ele>
        <time>2023-05-30T15:04:34.000Z</time>
      </trkpt>
      <trkpt lat="46.07076" lon="4.88081">
        <ele>286</ele>
        <time>2023-05-30T15:04:42.000Z</time>
      </trkpt>
      <trkpt lat="46.07078" lon="4.88091">
        <ele>285.79998779297</ele>
        <time>2023-05-30T15:04:43.000Z</time>
      </trkpt>
      <trkpt lat="46.07087" lon="4.88149">
        <ele>284.79998779297</ele>
        <time>2023-05-30T15:04:49.000Z</time>
      </trkpt>
      <trkpt lat="46.07088" lon="4.88159">
        <ele>284.60000610352</ele>
        <time>2023-05-30T15:04:50.000Z</time>
      </trkpt>
      <trkpt lat="46.07093" lon="4.88189">
        <ele>283.60000610352</ele>
        <time>2023-05-30T15:04:53.000Z</time>
      </trkpt>
      <trkpt lat="46.07101" lon="4.88244">
        <ele>282.60000610352</ele>
        <time>2023-05-30T15:04:59.000Z</time>
      </trkpt>
      <trkpt lat="46.07102" lon="4.88253">
        <ele>282.39999389648</ele>
        <time>2023-05-30T15:05:00.000Z</time>
      </trkpt>
      <trkpt lat="46.07113" lon="4.88317">
        <ele>281.79998779297</ele>
        <time>2023-05-30T15:05:07.000Z</time>
      </trkpt>
      <trkpt lat="46.07123" lon="4.88385">
        <ele>281.60000610352</ele>
        <time>2023-05-30T15:05:15.000Z</time>
      </trkpt>
      <trkpt lat="46.07132" lon="4.88442">
        <ele>281.60000610352</ele>
        <time>2023-05-30T15:05:22.000Z</time>
      </trkpt>
      <trkpt lat="46.07143" lon="4.88506">
        <ele>282</ele>
        <time>2023-05-30T15:05:30.000Z</time>
      </trkpt>
      <trkpt lat="46.07155" lon="4.88586">
        <ele>282.20001220703</ele>
        <time>2023-05-30T15:05:40.000Z</time>
      </trkpt>
      <trkpt lat="46.07157" lon="4.88594">
        <ele>282.39999389648</ele>
        <time>2023-05-30T15:05:41.000Z</time>
      </trkpt>
      <trkpt lat="46.07169" lon="4.88671">
        <ele>281.79998779297</ele>
        <time>2023-05-30T15:05:50.000Z</time>
      </trkpt>
      <trkpt lat="46.07172" lon="4.88689">
        <ele>281.60000610352</ele>
        <time>2023-05-30T15:05:52.000Z</time>
      </trkpt>
      <trkpt lat="46.07185" lon="4.88766">
        <ele>280.60000610352</ele>
        <time>2023-05-30T15:06:01.000Z</time>
      </trkpt>
      <trkpt lat="46.07186" lon="4.88775">
        <ele>280.60000610352</ele>
        <time>2023-05-30T15:06:02.000Z</time>
      </trkpt>
      <trkpt lat="46.07198" lon="4.88853">
        <ele>280.39999389648</ele>
        <time>2023-05-30T15:06:11.000Z</time>
      </trkpt>
      <trkpt lat="46.07199" lon="4.88861">
        <ele>280.39999389648</ele>
        <time>2023-05-30T15:06:12.000Z</time>
      </trkpt>
      <trkpt lat="46.07209" lon="4.88924">
        <ele>280.39999389648</ele>
        <time>2023-05-30T15:06:20.000Z</time>
      </trkpt>
      <trkpt lat="46.07222" lon="4.89002">
        <ele>280.79998779297</ele>
        <time>2023-05-30T15:06:30.000Z</time>
      </trkpt>
      <trkpt lat="46.07231" lon="4.89057">
        <ele>281</ele>
        <time>2023-05-30T15:06:38.000Z</time>
      </trkpt>
      <trkpt lat="46.07235" lon="4.89083">
        <ele>280.79998779297</ele>
        <time>2023-05-30T15:06:43.000Z</time>
      </trkpt>
      <trkpt lat="46.07241" lon="4.89118">
        <ele>280.20001220703</ele>
        <time>2023-05-30T15:06:48.000Z</time>
      </trkpt>
      <trkpt lat="46.0725" lon="4.89176">
        <ele>279.79998779297</ele>
        <time>2023-05-30T15:06:55.000Z</time>
      </trkpt>
      <trkpt lat="46.07258" lon="4.89226">
        <ele>279.60000610352</ele>
        <time>2023-05-30T15:07:01.000Z</time>
      </trkpt>
      <trkpt lat="46.0726" lon="4.89242">
        <ele>279.39999389648</ele>
        <time>2023-05-30T15:07:03.000Z</time>
      </trkpt>
      <trkpt lat="46.07268" lon="4.89298">
        <ele>278.79998779297</ele>
        <time>2023-05-30T15:07:10.000Z</time>
      </trkpt>
      <trkpt lat="46.07269" lon="4.89324">
        <ele>278.60000610352</ele>
        <time>2023-05-30T15:07:13.000Z</time>
      </trkpt>
      <trkpt lat="46.07269" lon="4.89332">
        <ele>278.39999389648</ele>
        <time>2023-05-30T15:07:14.000Z</time>
      </trkpt>
      <trkpt lat="46.07268" lon="4.89341">
        <ele>278.20001220703</ele>
        <time>2023-05-30T15:07:15.000Z</time>
      </trkpt>
      <trkpt lat="46.07259" lon="4.894">
        <ele>277.39999389648</ele>
        <time>2023-05-30T15:07:22.000Z</time>
      </trkpt>
      <trkpt lat="46.07259" lon="4.89416">
        <ele>277.39999389648</ele>
        <time>2023-05-30T15:07:24.000Z</time>
      </trkpt>
      <trkpt lat="46.07259" lon="4.89422">
        <ele>277.39999389648</ele>
        <time>2023-05-30T15:07:25.000Z</time>
      </trkpt>
      <trkpt lat="46.07259" lon="4.89428">
        <ele>277.39999389648</ele>
        <time>2023-05-30T15:07:26.000Z</time>
      </trkpt>
      <trkpt lat="46.07259" lon="4.89434">
        <ele>277.39999389648</ele>
        <time>2023-05-30T15:07:27.000Z</time>
      </trkpt>
      <trkpt lat="46.07263" lon="4.89446">
        <ele>277.39999389648</ele>
        <time>2023-05-30T15:07:29.000Z</time>
      </trkpt>
      <trkpt lat="46.07263" lon="4.89452">
        <ele>277.20001220703</ele>
        <time>2023-05-30T15:07:30.000Z</time>
      </trkpt>
      <trkpt lat="46.07263" lon="4.89459">
        <ele>277.20001220703</ele>
        <time>2023-05-30T15:07:31.000Z</time>
      </trkpt>
      <trkpt lat="46.07258" lon="4.8947">
        <ele>277.20001220703</ele>
        <time>2023-05-30T15:07:33.000Z</time>
      </trkpt>
      <trkpt lat="46.0724" lon="4.89525">
        <ele>276.60000610352</ele>
        <time>2023-05-30T15:07:41.000Z</time>
      </trkpt>
      <trkpt lat="46.0723" lon="4.89576">
        <ele>276.39999389648</ele>
        <time>2023-05-30T15:07:47.000Z</time>
      </trkpt>
      <trkpt lat="46.07229" lon="4.89585">
        <ele>276.39999389648</ele>
        <time>2023-05-30T15:07:48.000Z</time>
      </trkpt>
      <trkpt lat="46.07223" lon="4.89615">
        <ele>276.20001220703</ele>
        <time>2023-05-30T15:07:51.000Z</time>
      </trkpt>
      <trkpt lat="46.07221" lon="4.89623">
        <ele>276.20001220703</ele>
        <time>2023-05-30T15:07:52.000Z</time>
      </trkpt>
      <trkpt lat="46.0721" lon="4.89688">
        <ele>276.20001220703</ele>
        <time>2023-05-30T15:08:00.000Z</time>
      </trkpt>
      <trkpt lat="46.07208" lon="4.89754">
        <ele>276</ele>
        <time>2023-05-30T15:08:08.000Z</time>
      </trkpt>
      <trkpt lat="46.07205" lon="4.89791">
        <ele>276</ele>
        <time>2023-05-30T15:08:13.000Z</time>
      </trkpt>
      <trkpt lat="46.07204" lon="4.89796">
        <ele>275.79998779297</ele>
        <time>2023-05-30T15:08:14.000Z</time>
      </trkpt>
      <trkpt lat="46.07198" lon="4.89808">
        <ele>275.60000610352</ele>
        <time>2023-05-30T15:08:18.000Z</time>
      </trkpt>
      <trkpt lat="46.07181" lon="4.89807">
        <ele>275.60000610352</ele>
        <time>2023-05-30T15:08:22.000Z</time>
      </trkpt>
      <trkpt lat="46.07164" lon="4.89804">
        <ele>275.39999389648</ele>
        <time>2023-05-30T15:08:25.000Z</time>
      </trkpt>
      <trkpt lat="46.07146" lon="4.89801">
        <ele>275.20001220703</ele>
        <time>2023-05-30T15:08:28.000Z</time>
      </trkpt>
      <trkpt lat="46.07109" lon="4.89794">
        <ele>275.20001220703</ele>
        <time>2023-05-30T15:08:34.000Z</time>
      </trkpt>
      <trkpt lat="46.07078" lon="4.89785">
        <ele>275.20001220703</ele>
        <time>2023-05-30T15:08:39.000Z</time>
      </trkpt>
      <trkpt lat="46.07043" lon="4.89777">
        <ele>275.20001220703</ele>
        <time>2023-05-30T15:08:45.000Z</time>
      </trkpt>
      <trkpt lat="46.07037" lon="4.89778">
        <ele>275.39999389648</ele>
        <time>2023-05-30T15:08:46.000Z</time>
      </trkpt>
      <trkpt lat="46.07033" lon="4.89781">
        <ele>275.39999389648</ele>
        <time>2023-05-30T15:08:47.000Z</time>
      </trkpt>
      <trkpt lat="46.07024" lon="4.89791">
        <ele>275.39999389648</ele>
        <time>2023-05-30T15:08:49.000Z</time>
      </trkpt>
      <trkpt lat="46.0699" lon="4.89836">
        <ele>275.39999389648</ele>
        <time>2023-05-30T15:08:57.000Z</time>
      </trkpt>
      <trkpt lat="46.0695" lon="4.8989">
        <ele>275.60000610352</ele>
        <time>2023-05-30T15:09:07.000Z</time>
      </trkpt>
      <trkpt lat="46.06909" lon="4.89943">
        <ele>275.39999389648</ele>
        <time>2023-05-30T15:09:17.000Z</time>
      </trkpt>
      <trkpt lat="46.06905" lon="4.89949">
        <ele>275.39999389648</ele>
        <time>2023-05-30T15:09:18.000Z</time>
      </trkpt>
      <trkpt lat="46.0687" lon="4.89997">
        <ele>274.79998779297</ele>
        <time>2023-05-30T15:09:26.000Z</time>
      </trkpt>
      <trkpt lat="46.06865" lon="4.9">
        <ele>274.60000610352</ele>
        <time>2023-05-30T15:09:27.000Z</time>
      </trkpt>
      <trkpt lat="46.0686" lon="4.90001">
        <ele>274.60000610352</ele>
        <time>2023-05-30T15:09:28.000Z</time>
      </trkpt>
      <trkpt lat="46.06856" lon="4.89999">
        <ele>274.39999389648</ele>
        <time>2023-05-30T15:09:29.000Z</time>
      </trkpt>
      <trkpt lat="46.06853" lon="4.89998">
        <ele>274.20001220703</ele>
        <time>2023-05-30T15:09:30.000Z</time>
      </trkpt>
      <trkpt lat="46.06841" lon="4.9">
        <ele>274</ele>
        <time>2023-05-30T15:09:34.000Z</time>
      </trkpt>
      <trkpt lat="46.06838" lon="4.90006">
        <ele>274.20001220703</ele>
        <time>2023-05-30T15:09:36.000Z</time>
      </trkpt>
      <trkpt lat="46.06837" lon="4.90015">
        <ele>274.20001220703</ele>
        <time>2023-05-30T15:09:38.000Z</time>
      </trkpt>
      <trkpt lat="46.06838" lon="4.90033">
        <ele>274.20001220703</ele>
        <time>2023-05-30T15:09:41.000Z</time>
      </trkpt>
      <trkpt lat="46.06836" lon="4.90038">
        <ele>274.20001220703</ele>
        <time>2023-05-30T15:09:42.000Z</time>
      </trkpt>
      <trkpt lat="46.06821" lon="4.90056">
        <ele>274.20001220703</ele>
        <time>2023-05-30T15:09:46.000Z</time>
      </trkpt>
      <trkpt lat="46.06803" lon="4.90078">
        <ele>274.20001220703</ele>
        <time>2023-05-30T15:09:50.000Z</time>
      </trkpt>
      <trkpt lat="46.06789" lon="4.90096">
        <ele>274.20001220703</ele>
        <time>2023-05-30T15:09:53.000Z</time>
      </trkpt>
      <trkpt lat="46.06756" lon="4.90139">
        <ele>274.20001220703</ele>
        <time>2023-05-30T15:10:01.000Z</time>
      </trkpt>
      <trkpt lat="46.06727" lon="4.90177">
        <ele>274.20001220703</ele>
        <time>2023-05-30T15:10:08.000Z</time>
      </trkpt>
      <trkpt lat="46.06686" lon="4.90231">
        <ele>274.20001220703</ele>
        <time>2023-05-30T15:10:18.000Z</time>
      </trkpt>
      <trkpt lat="46.06682" lon="4.90236">
        <ele>274.20001220703</ele>
        <time>2023-05-30T15:10:19.000Z</time>
      </trkpt>
      <trkpt lat="46.06641" lon="4.90289">
        <ele>274.60000610352</ele>
        <time>2023-05-30T15:10:29.000Z</time>
      </trkpt>
      <trkpt lat="46.06607" lon="4.90333">
        <ele>275.39999389648</ele>
        <time>2023-05-30T15:10:38.000Z</time>
      </trkpt>
      <trkpt lat="46.06601" lon="4.90342">
        <ele>275.60000610352</ele>
        <time>2023-05-30T15:10:40.000Z</time>
      </trkpt>
      <trkpt lat="46.06578" lon="4.90372">
        <ele>276.60000610352</ele>
        <time>2023-05-30T15:10:46.000Z</time>
      </trkpt>
      <trkpt lat="46.06571" lon="4.90382">
        <ele>276.79998779297</ele>
        <time>2023-05-30T15:10:48.000Z</time>
      </trkpt>
      <trkpt lat="46.06535" lon="4.90428">
        <ele>277.60000610352</ele>
        <time>2023-05-30T15:10:57.000Z</time>
      </trkpt>
      <trkpt lat="46.06515" lon="4.90454">
        <ele>277.79998779297</ele>
        <time>2023-05-30T15:11:02.000Z</time>
      </trkpt>
      <trkpt lat="46.06499" lon="4.90476">
        <ele>278</ele>
        <time>2023-05-30T15:11:06.000Z</time>
      </trkpt>
      <trkpt lat="46.0646" lon="4.90527">
        <ele>278.39999389648</ele>
        <time>2023-05-30T15:11:15.000Z</time>
      </trkpt>
      <trkpt lat="46.06421" lon="4.90576">
        <ele>278.79998779297</ele>
        <time>2023-05-30T15:11:24.000Z</time>
      </trkpt>
      <trkpt lat="46.06408" lon="4.90593">
        <ele>279</ele>
        <time>2023-05-30T15:11:27.000Z</time>
      </trkpt>
      <trkpt lat="46.06366" lon="4.9065">
        <ele>279.79998779297</ele>
        <time>2023-05-30T15:11:37.000Z</time>
      </trkpt>
      <trkpt lat="46.06358" lon="4.9066">
        <ele>279.79998779297</ele>
        <time>2023-05-30T15:11:39.000Z</time>
      </trkpt>
      <trkpt lat="46.06324" lon="4.90704">
        <ele>280.20001220703</ele>
        <time>2023-05-30T15:11:47.000Z</time>
      </trkpt>
      <trkpt lat="46.06299" lon="4.90738">
        <ele>280.39999389648</ele>
        <time>2023-05-30T15:11:53.000Z</time>
      </trkpt>
      <trkpt lat="46.06281" lon="4.90761">
        <ele>280.39999389648</ele>
        <time>2023-05-30T15:11:57.000Z</time>
      </trkpt>
      <trkpt lat="46.06238" lon="4.90816">
        <ele>281</ele>
        <time>2023-05-30T15:12:07.000Z</time>
      </trkpt>
      <trkpt lat="46.06206" lon="4.90859">
        <ele>281.60000610352</ele>
        <time>2023-05-30T15:12:15.000Z</time>
      </trkpt>
      <trkpt lat="46.06194" lon="4.90874">
        <ele>282.20001220703</ele>
        <time>2023-05-30T15:12:18.000Z</time>
      </trkpt>
      <trkpt lat="46.06162" lon="4.90916">
        <ele>282.60000610352</ele>
        <time>2023-05-30T15:12:26.000Z</time>
      </trkpt>
      <trkpt lat="46.06146" lon="4.90936">
        <ele>283</ele>
        <time>2023-05-30T15:12:30.000Z</time>
      </trkpt>
      <trkpt lat="46.06122" lon="4.90967">
        <ele>283.39999389648</ele>
        <time>2023-05-30T15:12:36.000Z</time>
      </trkpt>
      <trkpt lat="46.06085" lon="4.91016">
        <ele>283.39999389648</ele>
        <time>2023-05-30T15:12:45.000Z</time>
      </trkpt>
      <trkpt lat="46.06041" lon="4.91073">
        <ele>283.39999389648</ele>
        <time>2023-05-30T15:12:55.000Z</time>
      </trkpt>
      <trkpt lat="46.05997" lon="4.9113">
        <ele>283.39999389648</ele>
        <time>2023-05-30T15:13:05.000Z</time>
      </trkpt>
      <trkpt lat="46.05988" lon="4.9114">
        <ele>283.60000610352</ele>
        <time>2023-05-30T15:13:07.000Z</time>
      </trkpt>
      <trkpt lat="46.0595" lon="4.9119">
        <ele>284.20001220703</ele>
        <time>2023-05-30T15:13:16.000Z</time>
      </trkpt>
      <trkpt lat="46.05937" lon="4.91206">
        <ele>284.39999389648</ele>
        <time>2023-05-30T15:13:19.000Z</time>
      </trkpt>
      <trkpt lat="46.05895" lon="4.91261">
        <ele>284.79998779297</ele>
        <time>2023-05-30T15:13:29.000Z</time>
      </trkpt>
      <trkpt lat="46.05884" lon="4.91276">
        <ele>284.79998779297</ele>
        <time>2023-05-30T15:13:32.000Z</time>
      </trkpt>
      <trkpt lat="46.0584" lon="4.9133">
        <ele>285.20001220703</ele>
        <time>2023-05-30T15:13:42.000Z</time>
      </trkpt>
      <trkpt lat="46.05832" lon="4.91342">
        <ele>285.20001220703</ele>
        <time>2023-05-30T15:13:44.000Z</time>
      </trkpt>
      <trkpt lat="46.05828" lon="4.91346">
        <ele>285.20001220703</ele>
        <time>2023-05-30T15:13:45.000Z</time>
      </trkpt>
      <trkpt lat="46.05789" lon="4.91396">
        <ele>285.60000610352</ele>
        <time>2023-05-30T15:13:54.000Z</time>
      </trkpt>
      <trkpt lat="46.05756" lon="4.9144">
        <ele>286.39999389648</ele>
        <time>2023-05-30T15:14:02.000Z</time>
      </trkpt>
      <trkpt lat="46.05752" lon="4.91445">
        <ele>286.60000610352</ele>
        <time>2023-05-30T15:14:03.000Z</time>
      </trkpt>
      <trkpt lat="46.05709" lon="4.91499">
        <ele>287.20001220703</ele>
        <time>2023-05-30T15:14:13.000Z</time>
      </trkpt>
      <trkpt lat="46.05667" lon="4.91553">
        <ele>287.60000610352</ele>
        <time>2023-05-30T15:14:23.000Z</time>
      </trkpt>
      <trkpt lat="46.05625" lon="4.91607">
        <ele>287.79998779297</ele>
        <time>2023-05-30T15:14:33.000Z</time>
      </trkpt>
      <trkpt lat="46.05582" lon="4.91662">
        <ele>287.79998779297</ele>
        <time>2023-05-30T15:14:43.000Z</time>
      </trkpt>
      <trkpt lat="46.05574" lon="4.91672">
        <ele>288</ele>
        <time>2023-05-30T15:14:45.000Z</time>
      </trkpt>
      <trkpt lat="46.05531" lon="4.91727">
        <ele>288.20001220703</ele>
        <time>2023-05-30T15:14:55.000Z</time>
      </trkpt>
      <trkpt lat="46.05518" lon="4.91743">
        <ele>288.20001220703</ele>
        <time>2023-05-30T15:14:58.000Z</time>
      </trkpt>
      <trkpt lat="46.05493" lon="4.91775">
        <ele>288.60000610352</ele>
        <time>2023-05-30T15:15:04.000Z</time>
      </trkpt>
      <trkpt lat="46.05477" lon="4.91795">
        <ele>289.20001220703</ele>
        <time>2023-05-30T15:15:08.000Z</time>
      </trkpt>
      <trkpt lat="46.05437" lon="4.91847">
        <ele>289.79998779297</ele>
        <time>2023-05-30T15:15:18.000Z</time>
      </trkpt>
      <trkpt lat="46.05429" lon="4.91857">
        <ele>290</ele>
        <time>2023-05-30T15:15:20.000Z</time>
      </trkpt>
      <trkpt lat="46.05396" lon="4.91897">
        <ele>290.39999389648</ele>
        <time>2023-05-30T15:15:28.000Z</time>
      </trkpt>
      <trkpt lat="46.05357" lon="4.91949">
        <ele>291</ele>
        <time>2023-05-30T15:15:38.000Z</time>
      </trkpt>
      <trkpt lat="46.05321" lon="4.91995">
        <ele>291.20001220703</ele>
        <time>2023-05-30T15:15:47.000Z</time>
      </trkpt>
      <trkpt lat="46.05279" lon="4.92047">
        <ele>291.79998779297</ele>
        <time>2023-05-30T15:15:57.000Z</time>
      </trkpt>
      <trkpt lat="46.05274" lon="4.92054">
        <ele>291.79998779297</ele>
        <time>2023-05-30T15:15:58.000Z</time>
      </trkpt>
      <trkpt lat="46.05242" lon="4.92095">
        <ele>292.39999389648</ele>
        <time>2023-05-30T15:16:06.000Z</time>
      </trkpt>
      <trkpt lat="46.05205" lon="4.92142">
        <ele>292.79998779297</ele>
        <time>2023-05-30T15:16:15.000Z</time>
      </trkpt>
      <trkpt lat="46.05193" lon="4.92158">
        <ele>293</ele>
        <time>2023-05-30T15:16:18.000Z</time>
      </trkpt>
      <trkpt lat="46.05154" lon="4.92206">
        <ele>293.39999389648</ele>
        <time>2023-05-30T15:16:28.000Z</time>
      </trkpt>
      <trkpt lat="46.05147" lon="4.92213">
        <ele>293.60000610352</ele>
        <time>2023-05-30T15:16:32.000Z</time>
      </trkpt>
      <trkpt lat="46.05145" lon="4.92215">
        <ele>293.60000610352</ele>
        <time>2023-05-30T15:16:34.000Z</time>
      </trkpt>
      <trkpt lat="46.05145" lon="4.92215">
        <ele>293.60000610352</ele>
        <time>2023-05-30T15:16:37.000Z</time>
      </trkpt>
      <trkpt lat="46.05141" lon="4.92222">
        <ele>294.79998779297</ele>
        <time>2023-05-30T15:24:36.000Z</time>
      </trkpt>
      <trkpt lat="46.05136" lon="4.92227">
        <ele>294.79998779297</ele>
        <time>2023-05-30T15:24:38.000Z</time>
      </trkpt>
      <trkpt lat="46.05121" lon="4.92249">
        <ele>295</ele>
        <time>2023-05-30T15:24:44.000Z</time>
      </trkpt>
      <trkpt lat="46.05097" lon="4.92283">
        <ele>295.20001220703</ele>
        <time>2023-05-30T15:24:51.000Z</time>
      </trkpt>
      <trkpt lat="46.05062" lon="4.92327">
        <ele>295.39999389648</ele>
        <time>2023-05-30T15:25:00.000Z</time>
      </trkpt>
      <trkpt lat="46.05023" lon="4.92375">
        <ele>295.79998779297</ele>
        <time>2023-05-30T15:25:09.000Z</time>
      </trkpt>
      <trkpt lat="46.04995" lon="4.9241">
        <ele>295.79998779297</ele>
        <time>2023-05-30T15:25:15.000Z</time>
      </trkpt>
      <trkpt lat="46.04978" lon="4.92433">
        <ele>296</ele>
        <time>2023-05-30T15:25:19.000Z</time>
      </trkpt>
      <trkpt lat="46.04947" lon="4.92478">
        <ele>296.60000610352</ele>
        <time>2023-05-30T15:25:27.000Z</time>
      </trkpt>
      <trkpt lat="46.04932" lon="4.92502">
        <ele>296.79998779297</ele>
        <time>2023-05-30T15:25:31.000Z</time>
      </trkpt>
      <trkpt lat="46.04907" lon="4.92544">
        <ele>297.60000610352</ele>
        <time>2023-05-30T15:25:38.000Z</time>
      </trkpt>
      <trkpt lat="46.04892" lon="4.92568">
        <ele>297.79998779297</ele>
        <time>2023-05-30T15:25:42.000Z</time>
      </trkpt>
      <trkpt lat="46.04875" lon="4.92598">
        <ele>298.60000610352</ele>
        <time>2023-05-30T15:25:47.000Z</time>
      </trkpt>
      <trkpt lat="46.04852" lon="4.92643">
        <ele>299</ele>
        <time>2023-05-30T15:25:54.000Z</time>
      </trkpt>
      <trkpt lat="46.04844" lon="4.92663">
        <ele>299.20001220703</ele>
        <time>2023-05-30T15:25:57.000Z</time>
      </trkpt>
      <trkpt lat="46.04841" lon="4.9267">
        <ele>299.20001220703</ele>
        <time>2023-05-30T15:25:58.000Z</time>
      </trkpt>
      <trkpt lat="46.04816" lon="4.9273">
        <ele>299.60000610352</ele>
        <time>2023-05-30T15:26:07.000Z</time>
      </trkpt>
      <trkpt lat="46.04788" lon="4.92798">
        <ele>299.60000610352</ele>
        <time>2023-05-30T15:26:17.000Z</time>
      </trkpt>
      <trkpt lat="46.04783" lon="4.9281">
        <ele>299.79998779297</ele>
        <time>2023-05-30T15:26:19.000Z</time>
      </trkpt>
      <trkpt lat="46.04781" lon="4.92817">
        <ele>299.79998779297</ele>
        <time>2023-05-30T15:26:20.000Z</time>
      </trkpt>
      <trkpt lat="46.04753" lon="4.92886">
        <ele>300</ele>
        <time>2023-05-30T15:26:30.000Z</time>
      </trkpt>
      <trkpt lat="46.0475" lon="4.92892">
        <ele>300</ele>
        <time>2023-05-30T15:26:31.000Z</time>
      </trkpt>
      <trkpt lat="46.04747" lon="4.92899">
        <ele>300</ele>
        <time>2023-05-30T15:26:32.000Z</time>
      </trkpt>
      <trkpt lat="46.04723" lon="4.92955">
        <ele>300.20001220703</ele>
        <time>2023-05-30T15:26:40.000Z</time>
      </trkpt>
      <trkpt lat="46.04715" lon="4.92975">
        <ele>300.20001220703</ele>
        <time>2023-05-30T15:26:43.000Z</time>
      </trkpt>
      <trkpt lat="46.04688" lon="4.93036">
        <ele>300.39999389648</ele>
        <time>2023-05-30T15:26:52.000Z</time>
      </trkpt>
      <trkpt lat="46.04669" lon="4.93085">
        <ele>300.60000610352</ele>
        <time>2023-05-30T15:26:59.000Z</time>
      </trkpt>
      <trkpt lat="46.04666" lon="4.93091">
        <ele>300.60000610352</ele>
        <time>2023-05-30T15:27:00.000Z</time>
      </trkpt>
      <trkpt lat="46.04646" lon="4.93139">
        <ele>300.79998779297</ele>
        <time>2023-05-30T15:27:07.000Z</time>
      </trkpt>
      <trkpt lat="46.04627" lon="4.93188">
        <ele>301</ele>
        <time>2023-05-30T15:27:14.000Z</time>
      </trkpt>
      <trkpt lat="46.04614" lon="4.93215">
        <ele>301.20001220703</ele>
        <time>2023-05-30T15:27:18.000Z</time>
      </trkpt>
      <trkpt lat="46.04588" lon="4.93275">
        <ele>301.79998779297</ele>
        <time>2023-05-30T15:27:27.000Z</time>
      </trkpt>
      <trkpt lat="46.04585" lon="4.93281">
        <ele>302</ele>
        <time>2023-05-30T15:27:28.000Z</time>
      </trkpt>
      <trkpt lat="46.04555" lon="4.93346">
        <ele>302.79998779297</ele>
        <time>2023-05-30T15:27:38.000Z</time>
      </trkpt>
      <trkpt lat="46.04549" lon="4.9336">
        <ele>302.79998779297</ele>
        <time>2023-05-30T15:27:40.000Z</time>
      </trkpt>
      <trkpt lat="46.04521" lon="4.93421">
        <ele>303</ele>
        <time>2023-05-30T15:27:49.000Z</time>
      </trkpt>
      <trkpt lat="46.04489" lon="4.93489">
        <ele>303</ele>
        <time>2023-05-30T15:27:59.000Z</time>
      </trkpt>
      <trkpt lat="46.04483" lon="4.93503">
        <ele>303.20001220703</ele>
        <time>2023-05-30T15:28:01.000Z</time>
      </trkpt>
      <trkpt lat="46.04464" lon="4.93545">
        <ele>302.79998779297</ele>
        <time>2023-05-30T15:28:07.000Z</time>
      </trkpt>
      <trkpt lat="46.04451" lon="4.93574">
        <ele>303</ele>
        <time>2023-05-30T15:28:11.000Z</time>
      </trkpt>
      <trkpt lat="46.04417" lon="4.93645">
        <ele>302.79998779297</ele>
        <time>2023-05-30T15:28:21.000Z</time>
      </trkpt>
      <trkpt lat="46.04414" lon="4.93652">
        <ele>302.79998779297</ele>
        <time>2023-05-30T15:28:22.000Z</time>
      </trkpt>
      <trkpt lat="46.04386" lon="4.93715">
        <ele>303</ele>
        <time>2023-05-30T15:28:31.000Z</time>
      </trkpt>
      <trkpt lat="46.0437" lon="4.93748">
        <ele>303</ele>
        <time>2023-05-30T15:28:36.000Z</time>
      </trkpt>
      <trkpt lat="46.0436" lon="4.93769">
        <ele>302.79998779297</ele>
        <time>2023-05-30T15:28:39.000Z</time>
      </trkpt>
      <trkpt lat="46.04328" lon="4.9384">
        <ele>302.60000610352</ele>
        <time>2023-05-30T15:28:49.000Z</time>
      </trkpt>
      <trkpt lat="46.04304" lon="4.93894">
        <ele>302.39999389648</ele>
        <time>2023-05-30T15:28:57.000Z</time>
      </trkpt>
      <trkpt lat="46.04272" lon="4.93961">
        <ele>302.39999389648</ele>
        <time>2023-05-30T15:29:07.000Z</time>
      </trkpt>
      <trkpt lat="46.04269" lon="4.93968">
        <ele>302.39999389648</ele>
        <time>2023-05-30T15:29:08.000Z</time>
      </trkpt>
      <trkpt lat="46.04266" lon="4.93974">
        <ele>302.39999389648</ele>
        <time>2023-05-30T15:29:09.000Z</time>
      </trkpt>
      <trkpt lat="46.04241" lon="4.94028">
        <ele>302.79998779297</ele>
        <time>2023-05-30T15:29:17.000Z</time>
      </trkpt>
      <trkpt lat="46.04225" lon="4.94062">
        <ele>303.39999389648</ele>
        <time>2023-05-30T15:29:22.000Z</time>
      </trkpt>
      <trkpt lat="46.04212" lon="4.9409">
        <ele>303.60000610352</ele>
        <time>2023-05-30T15:29:26.000Z</time>
      </trkpt>
      <trkpt lat="46.04184" lon="4.94151">
        <ele>304.39999389648</ele>
        <time>2023-05-30T15:29:35.000Z</time>
      </trkpt>
      <trkpt lat="46.04175" lon="4.94172">
        <ele>304.60000610352</ele>
        <time>2023-05-30T15:29:38.000Z</time>
      </trkpt>
      <trkpt lat="46.04154" lon="4.94219">
        <ele>304.79998779297</ele>
        <time>2023-05-30T15:29:45.000Z</time>
      </trkpt>
      <trkpt lat="46.04135" lon="4.94259">
        <ele>304.79998779297</ele>
        <time>2023-05-30T15:29:51.000Z</time>
      </trkpt>
      <trkpt lat="46.04122" lon="4.94288">
        <ele>305</ele>
        <time>2023-05-30T15:29:55.000Z</time>
      </trkpt>
      <trkpt lat="46.04089" lon="4.94359">
        <ele>305</ele>
        <time>2023-05-30T15:30:05.000Z</time>
      </trkpt>
      <trkpt lat="46.04086" lon="4.94364">
        <ele>305</ele>
        <time>2023-05-30T15:30:06.000Z</time>
      </trkpt>
      <trkpt lat="46.04054" lon="4.94435">
        <ele>305</ele>
        <time>2023-05-30T15:30:16.000Z</time>
      </trkpt>
      <trkpt lat="46.04021" lon="4.94507">
        <ele>305.20001220703</ele>
        <time>2023-05-30T15:30:26.000Z</time>
      </trkpt>
      <trkpt lat="46.03991" lon="4.94572">
        <ele>305</ele>
        <time>2023-05-30T15:30:35.000Z</time>
      </trkpt>
      <trkpt lat="46.03981" lon="4.94595">
        <ele>305</ele>
        <time>2023-05-30T15:30:38.000Z</time>
      </trkpt>
      <trkpt lat="46.03955" lon="4.94651">
        <ele>305.39999389648</ele>
        <time>2023-05-30T15:30:46.000Z</time>
      </trkpt>
      <trkpt lat="46.03923" lon="4.94721">
        <ele>305</ele>
        <time>2023-05-30T15:30:56.000Z</time>
      </trkpt>
      <trkpt lat="46.0389" lon="4.94791">
        <ele>305.39999389648</ele>
        <time>2023-05-30T15:31:06.000Z</time>
      </trkpt>
      <trkpt lat="46.03887" lon="4.94798">
        <ele>305.39999389648</ele>
        <time>2023-05-30T15:31:07.000Z</time>
      </trkpt>
      <trkpt lat="46.03874" lon="4.94826">
        <ele>305.60000610352</ele>
        <time>2023-05-30T15:31:11.000Z</time>
      </trkpt>
      <trkpt lat="46.03847" lon="4.94884">
        <ele>305.60000610352</ele>
        <time>2023-05-30T15:31:19.000Z</time>
      </trkpt>
      <trkpt lat="46.03814" lon="4.94955">
        <ele>305.39999389648</ele>
        <time>2023-05-30T15:31:29.000Z</time>
      </trkpt>
      <trkpt lat="46.03781" lon="4.95027">
        <ele>305.20001220703</ele>
        <time>2023-05-30T15:31:39.000Z</time>
      </trkpt>
      <trkpt lat="46.03748" lon="4.95099">
        <ele>305.39999389648</ele>
        <time>2023-05-30T15:31:49.000Z</time>
      </trkpt>
      <trkpt lat="46.03735" lon="4.95128">
        <ele>305.60000610352</ele>
        <time>2023-05-30T15:31:53.000Z</time>
      </trkpt>
      <trkpt lat="46.03715" lon="4.95176">
        <ele>305.79998779297</ele>
        <time>2023-05-30T15:31:59.000Z</time>
      </trkpt>
      <trkpt lat="46.03695" lon="4.95248">
        <ele>305.79998779297</ele>
        <time>2023-05-30T15:32:08.000Z</time>
      </trkpt>
      <trkpt lat="46.03681" lon="4.95303">
        <ele>305.39999389648</ele>
        <time>2023-05-30T15:32:15.000Z</time>
      </trkpt>
      <trkpt lat="46.03663" lon="4.95372">
        <ele>305.39999389648</ele>
        <time>2023-05-30T15:32:24.000Z</time>
      </trkpt>
      <trkpt lat="46.03646" lon="4.95435">
        <ele>305.60000610352</ele>
        <time>2023-05-30T15:32:32.000Z</time>
      </trkpt>
      <trkpt lat="46.0363" lon="4.9549">
        <ele>305.60000610352</ele>
        <time>2023-05-30T15:32:39.000Z</time>
      </trkpt>
      <trkpt lat="46.03615" lon="4.95554">
        <ele>305.60000610352</ele>
        <time>2023-05-30T15:32:47.000Z</time>
      </trkpt>
      <trkpt lat="46.03604" lon="4.95605">
        <ele>305.60000610352</ele>
        <time>2023-05-30T15:32:53.000Z</time>
      </trkpt>
      <trkpt lat="46.03601" lon="4.95614">
        <ele>305.60000610352</ele>
        <time>2023-05-30T15:32:54.000Z</time>
      </trkpt>
      <trkpt lat="46.0359" lon="4.95654">
        <ele>305.60000610352</ele>
        <time>2023-05-30T15:32:59.000Z</time>
      </trkpt>
      <trkpt lat="46.03578" lon="4.95696">
        <ele>305.60000610352</ele>
        <time>2023-05-30T15:33:04.000Z</time>
      </trkpt>
      <trkpt lat="46.03575" lon="4.95711">
        <ele>305.60000610352</ele>
        <time>2023-05-30T15:33:06.000Z</time>
      </trkpt>
      <trkpt lat="46.03557" lon="4.95779">
        <ele>305.60000610352</ele>
        <time>2023-05-30T15:33:14.000Z</time>
      </trkpt>
      <trkpt lat="46.03554" lon="4.95787">
        <ele>305.60000610352</ele>
        <time>2023-05-30T15:33:15.000Z</time>
      </trkpt>
      <trkpt lat="46.03541" lon="4.95834">
        <ele>305.60000610352</ele>
        <time>2023-05-30T15:33:21.000Z</time>
      </trkpt>
      <trkpt lat="46.03527" lon="4.95883">
        <ele>305.60000610352</ele>
        <time>2023-05-30T15:33:27.000Z</time>
      </trkpt>
      <trkpt lat="46.03524" lon="4.95891">
        <ele>305.79998779297</ele>
        <time>2023-05-30T15:33:28.000Z</time>
      </trkpt>
      <trkpt lat="46.03514" lon="4.95922">
        <ele>305.79998779297</ele>
        <time>2023-05-30T15:33:32.000Z</time>
      </trkpt>
      <trkpt lat="46.035" lon="4.95979">
        <ele>306.20001220703</ele>
        <time>2023-05-30T15:33:39.000Z</time>
      </trkpt>
      <trkpt lat="46.0349" lon="4.9602">
        <ele>306.39999389648</ele>
        <time>2023-05-30T15:33:44.000Z</time>
      </trkpt>
      <trkpt lat="46.03475" lon="4.96074">
        <ele>306.60000610352</ele>
        <time>2023-05-30T15:33:51.000Z</time>
      </trkpt>
      <trkpt lat="46.0347" lon="4.9609">
        <ele>306.60000610352</ele>
        <time>2023-05-30T15:33:53.000Z</time>
      </trkpt>
      <trkpt lat="46.03462" lon="4.96113">
        <ele>306.60000610352</ele>
        <time>2023-05-30T15:33:56.000Z</time>
      </trkpt>
      <trkpt lat="46.03448" lon="4.96153">
        <ele>306.79998779297</ele>
        <time>2023-05-30T15:34:01.000Z</time>
      </trkpt>
      <trkpt lat="46.03432" lon="4.96202">
        <ele>306.79998779297</ele>
        <time>2023-05-30T15:34:07.000Z</time>
      </trkpt>
      <trkpt lat="46.03414" lon="4.96259">
        <ele>306.79998779297</ele>
        <time>2023-05-30T15:34:14.000Z</time>
      </trkpt>
      <trkpt lat="46.03396" lon="4.96332">
        <ele>306.60000610352</ele>
        <time>2023-05-30T15:34:23.000Z</time>
      </trkpt>
      <trkpt lat="46.03392" lon="4.96358">
        <ele>306.60000610352</ele>
        <time>2023-05-30T15:34:26.000Z</time>
      </trkpt>
      <trkpt lat="46.03387" lon="4.96384">
        <ele>306.60000610352</ele>
        <time>2023-05-30T15:34:29.000Z</time>
      </trkpt>
      <trkpt lat="46.03374" lon="4.96441">
        <ele>307</ele>
        <time>2023-05-30T15:34:36.000Z</time>
      </trkpt>
      <trkpt lat="46.03362" lon="4.96491">
        <ele>307</ele>
        <time>2023-05-30T15:34:42.000Z</time>
      </trkpt>
      <trkpt lat="46.03344" lon="4.96572">
        <ele>307</ele>
        <time>2023-05-30T15:34:52.000Z</time>
      </trkpt>
      <trkpt lat="46.03343" lon="4.96581">
        <ele>307</ele>
        <time>2023-05-30T15:34:53.000Z</time>
      </trkpt>
      <trkpt lat="46.03327" lon="4.96651">
        <ele>307.60000610352</ele>
        <time>2023-05-30T15:35:02.000Z</time>
      </trkpt>
      <trkpt lat="46.03323" lon="4.96666">
        <ele>307.79998779297</ele>
        <time>2023-05-30T15:35:04.000Z</time>
      </trkpt>
      <trkpt lat="46.0331" lon="4.96724">
        <ele>308.79998779297</ele>
        <time>2023-05-30T15:35:12.000Z</time>
      </trkpt>
      <trkpt lat="46.03299" lon="4.96773">
        <ele>309.60000610352</ele>
        <time>2023-05-30T15:35:19.000Z</time>
      </trkpt>
      <trkpt lat="46.03294" lon="4.96796">
        <ele>309.79998779297</ele>
        <time>2023-05-30T15:35:22.000Z</time>
      </trkpt>
      <trkpt lat="46.03283" lon="4.96845">
        <ele>310.79998779297</ele>
        <time>2023-05-30T15:35:29.000Z</time>
      </trkpt>
      <trkpt lat="46.03282" lon="4.96852">
        <ele>311</ele>
        <time>2023-05-30T15:35:30.000Z</time>
      </trkpt>
      <trkpt lat="46.03267" lon="4.96915">
        <ele>311.39999389648</ele>
        <time>2023-05-30T15:35:38.000Z</time>
      </trkpt>
      <trkpt lat="46.03253" lon="4.9698">
        <ele>310</ele>
        <time>2023-05-30T15:35:46.000Z</time>
      </trkpt>
      <trkpt lat="46.03251" lon="4.96988">
        <ele>309.79998779297</ele>
        <time>2023-05-30T15:35:47.000Z</time>
      </trkpt>
      <trkpt lat="46.03236" lon="4.97055">
        <ele>309</ele>
        <time>2023-05-30T15:35:55.000Z</time>
      </trkpt>
      <trkpt lat="46.03218" lon="4.97132">
        <ele>308.79998779297</ele>
        <time>2023-05-30T15:36:04.000Z</time>
      </trkpt>
      <trkpt lat="46.03216" lon="4.97141">
        <ele>308.79998779297</ele>
        <time>2023-05-30T15:36:05.000Z</time>
      </trkpt>
      <trkpt lat="46.03215" lon="4.97149">
        <ele>308.79998779297</ele>
        <time>2023-05-30T15:36:06.000Z</time>
      </trkpt>
      <trkpt lat="46.03198" lon="4.97225">
        <ele>308.39999389648</ele>
        <time>2023-05-30T15:36:15.000Z</time>
      </trkpt>
      <trkpt lat="46.0318" lon="4.97303">
        <ele>307.79998779297</ele>
        <time>2023-05-30T15:36:24.000Z</time>
      </trkpt>
      <trkpt lat="46.03178" lon="4.97312">
        <ele>308</ele>
        <time>2023-05-30T15:36:25.000Z</time>
      </trkpt>
      <trkpt lat="46.0316" lon="4.9739">
        <ele>307.39999389648</ele>
        <time>2023-05-30T15:36:34.000Z</time>
      </trkpt>
      <trkpt lat="46.03154" lon="4.97407">
        <ele>307.39999389648</ele>
        <time>2023-05-30T15:36:36.000Z</time>
      </trkpt>
      <trkpt lat="46.03131" lon="4.97459">
        <ele>307.20001220703</ele>
        <time>2023-05-30T15:36:43.000Z</time>
      </trkpt>
      <trkpt lat="46.03109" lon="4.97503">
        <ele>307</ele>
        <time>2023-05-30T15:36:49.000Z</time>
      </trkpt>
      <trkpt lat="46.03105" lon="4.9751">
        <ele>307</ele>
        <time>2023-05-30T15:36:50.000Z</time>
      </trkpt>
      <trkpt lat="46.03076" lon="4.9757">
        <ele>307</ele>
        <time>2023-05-30T15:36:58.000Z</time>
      </trkpt>
      <trkpt lat="46.03044" lon="4.97639">
        <ele>307.20001220703</ele>
        <time>2023-05-30T15:37:07.000Z</time>
      </trkpt>
      <trkpt lat="46.03014" lon="4.9771">
        <ele>307.20001220703</ele>
        <time>2023-05-30T15:37:16.000Z</time>
      </trkpt>
      <trkpt lat="46.03008" lon="4.97726">
        <ele>307.20001220703</ele>
        <time>2023-05-30T15:37:18.000Z</time>
      </trkpt>
      <trkpt lat="46.02983" lon="4.97796">
        <ele>307.39999389648</ele>
        <time>2023-05-30T15:37:27.000Z</time>
      </trkpt>
      <trkpt lat="46.0298" lon="4.97804">
        <ele>307.39999389648</ele>
        <time>2023-05-30T15:37:28.000Z</time>
      </trkpt>
      <trkpt lat="46.02953" lon="4.97876">
        <ele>307.79998779297</ele>
        <time>2023-05-30T15:37:37.000Z</time>
      </trkpt>
      <trkpt lat="46.02945" lon="4.979">
        <ele>307.60000610352</ele>
        <time>2023-05-30T15:37:40.000Z</time>
      </trkpt>
      <trkpt lat="46.02919" lon="4.97969">
        <ele>307.79998779297</ele>
        <time>2023-05-30T15:37:49.000Z</time>
      </trkpt>
      <trkpt lat="46.02913" lon="4.97984">
        <ele>307.79998779297</ele>
        <time>2023-05-30T15:37:51.000Z</time>
      </trkpt>
      <trkpt lat="46.02885" lon="4.98061">
        <ele>308</ele>
        <time>2023-05-30T15:38:01.000Z</time>
      </trkpt>
      <trkpt lat="46.02883" lon="4.98068">
        <ele>308</ele>
        <time>2023-05-30T15:38:02.000Z</time>
      </trkpt>
      <trkpt lat="46.02862" lon="4.98127">
        <ele>308.20001220703</ele>
        <time>2023-05-30T15:38:10.000Z</time>
      </trkpt>
      <trkpt lat="46.02856" lon="4.98142">
        <ele>308.20001220703</ele>
        <time>2023-05-30T15:38:12.000Z</time>
      </trkpt>
      <trkpt lat="46.02829" lon="4.98216">
        <ele>308.60000610352</ele>
        <time>2023-05-30T15:38:22.000Z</time>
      </trkpt>
      <trkpt lat="46.02806" lon="4.98277">
        <ele>308.60000610352</ele>
        <time>2023-05-30T15:38:30.000Z</time>
      </trkpt>
      <trkpt lat="46.0278" lon="4.98348">
        <ele>308.79998779297</ele>
        <time>2023-05-30T15:38:39.000Z</time>
      </trkpt>
      <trkpt lat="46.02777" lon="4.98356">
        <ele>308.79998779297</ele>
        <time>2023-05-30T15:38:40.000Z</time>
      </trkpt>
      <trkpt lat="46.02761" lon="4.98402">
        <ele>308.79998779297</ele>
        <time>2023-05-30T15:38:46.000Z</time>
      </trkpt>
      <trkpt lat="46.02749" lon="4.98434">
        <ele>309</ele>
        <time>2023-05-30T15:38:50.000Z</time>
      </trkpt>
      <trkpt lat="46.02727" lon="4.98493">
        <ele>309.20001220703</ele>
        <time>2023-05-30T15:38:58.000Z</time>
      </trkpt>
      <trkpt lat="46.02722" lon="4.98508">
        <ele>309.39999389648</ele>
        <time>2023-05-30T15:39:00.000Z</time>
      </trkpt>
      <trkpt lat="46.02706" lon="4.9855">
        <ele>309.79998779297</ele>
        <time>2023-05-30T15:39:06.000Z</time>
      </trkpt>
      <trkpt lat="46.02686" lon="4.98604">
        <ele>310</ele>
        <time>2023-05-30T15:39:13.000Z</time>
      </trkpt>
      <trkpt lat="46.02665" lon="4.98664">
        <ele>309.79998779297</ele>
        <time>2023-05-30T15:39:20.000Z</time>
      </trkpt>
      <trkpt lat="46.02644" lon="4.9872">
        <ele>308.79998779297</ele>
        <time>2023-05-30T15:39:26.000Z</time>
      </trkpt>
      <trkpt lat="46.02634" lon="4.98748">
        <ele>308.39999389648</ele>
        <time>2023-05-30T15:39:29.000Z</time>
      </trkpt>
      <trkpt lat="46.02624" lon="4.98777">
        <ele>307.39999389648</ele>
        <time>2023-05-30T15:39:33.000Z</time>
      </trkpt>
      <trkpt lat="46.02616" lon="4.98797">
        <ele>307.20001220703</ele>
        <time>2023-05-30T15:39:34.000Z</time>
      </trkpt>
      <trkpt lat="46.02595" lon="4.98855">
        <ele>306.20001220703</ele>
        <time>2023-05-30T15:39:40.000Z</time>
      </trkpt>
      <trkpt lat="46.02582" lon="4.98891">
        <ele>305.20001220703</ele>
        <time>2023-05-30T15:39:44.000Z</time>
      </trkpt>
      <trkpt lat="46.02579" lon="4.989">
        <ele>305</ele>
        <time>2023-05-30T15:39:45.000Z</time>
      </trkpt>
      <trkpt lat="46.02555" lon="4.98967">
        <ele>304.60000610352</ele>
        <time>2023-05-30T15:39:53.000Z</time>
      </trkpt>
      <trkpt lat="46.02534" lon="4.99024">
        <ele>304.39999389648</ele>
        <time>2023-05-30T15:40:00.000Z</time>
      </trkpt>
      <trkpt lat="46.02531" lon="4.9903">
        <ele>304.39999389648</ele>
        <time>2023-05-30T15:40:01.000Z</time>
      </trkpt>
      <trkpt lat="46.02524" lon="4.9904">
        <ele>304.39999389648</ele>
        <time>2023-05-30T15:40:03.000Z</time>
      </trkpt>
      <trkpt lat="46.02516" lon="4.99046">
        <ele>304.20001220703</ele>
        <time>2023-05-30T15:40:05.000Z</time>
      </trkpt>
      <trkpt lat="46.02506" lon="4.99045">
        <ele>304.20001220703</ele>
        <time>2023-05-30T15:40:07.000Z</time>
      </trkpt>
      <trkpt lat="46.02494" lon="4.99044">
        <ele>303.79998779297</ele>
        <time>2023-05-30T15:40:09.000Z</time>
      </trkpt>
      <trkpt lat="46.02475" lon="4.9904">
        <ele>303.20001220703</ele>
        <time>2023-05-30T15:40:12.000Z</time>
      </trkpt>
      <trkpt lat="46.02454" lon="4.99037">
        <ele>302.79998779297</ele>
        <time>2023-05-30T15:40:15.000Z</time>
      </trkpt>
      <trkpt lat="46.02411" lon="4.99031">
        <ele>302.20001220703</ele>
        <time>2023-05-30T15:40:22.000Z</time>
      </trkpt>
      <trkpt lat="46.02403" lon="4.99031">
        <ele>302.20001220703</ele>
        <time>2023-05-30T15:40:23.000Z</time>
      </trkpt>
      <trkpt lat="46.02391" lon="4.99035">
        <ele>302.20001220703</ele>
        <time>2023-05-30T15:40:25.000Z</time>
      </trkpt>
      <trkpt lat="46.0238" lon="4.99042">
        <ele>302.39999389648</ele>
        <time>2023-05-30T15:40:27.000Z</time>
      </trkpt>
      <trkpt lat="46.02363" lon="4.99066">
        <ele>302.60000610352</ele>
        <time>2023-05-30T15:40:31.000Z</time>
      </trkpt>
      <trkpt lat="46.02344" lon="4.991">
        <ele>303.20001220703</ele>
        <time>2023-05-30T15:40:36.000Z</time>
      </trkpt>
      <trkpt lat="46.02336" lon="4.99114">
        <ele>303.60000610352</ele>
        <time>2023-05-30T15:40:38.000Z</time>
      </trkpt>
      <trkpt lat="46.02331" lon="4.9912">
        <ele>303.60000610352</ele>
        <time>2023-05-30T15:40:39.000Z</time>
      </trkpt>
      <trkpt lat="46.02328" lon="4.99123">
        <ele>303.79998779297</ele>
        <time>2023-05-30T15:40:40.000Z</time>
      </trkpt>
      <trkpt lat="46.02316" lon="4.9913">
        <ele>303.79998779297</ele>
        <time>2023-05-30T15:40:42.000Z</time>
      </trkpt>
      <trkpt lat="46.02311" lon="4.99132">
        <ele>303.79998779297</ele>
        <time>2023-05-30T15:40:43.000Z</time>
      </trkpt>
      <trkpt lat="46.02305" lon="4.99132">
        <ele>303.79998779297</ele>
        <time>2023-05-30T15:40:44.000Z</time>
      </trkpt>
      <trkpt lat="46.02289" lon="4.99131">
        <ele>304</ele>
        <time>2023-05-30T15:40:47.000Z</time>
      </trkpt>
      <trkpt lat="46.02284" lon="4.99129">
        <ele>304</ele>
        <time>2023-05-30T15:40:48.000Z</time>
      </trkpt>
      <trkpt lat="46.0225" lon="4.99111">
        <ele>304.20001220703</ele>
        <time>2023-05-30T15:40:55.000Z</time>
      </trkpt>
      <trkpt lat="46.02243" lon="4.9911">
        <ele>304.39999389648</ele>
        <time>2023-05-30T15:40:56.000Z</time>
      </trkpt>
      <trkpt lat="46.02239" lon="4.99111">
        <ele>304.60000610352</ele>
        <time>2023-05-30T15:40:57.000Z</time>
      </trkpt>
      <trkpt lat="46.02234" lon="4.99113">
        <ele>304.79998779297</ele>
        <time>2023-05-30T15:40:59.000Z</time>
      </trkpt>
      <trkpt lat="46.02218" lon="4.99125">
        <ele>305</ele>
        <time>2023-05-30T15:41:01.000Z</time>
      </trkpt>
      <trkpt lat="46.022" lon="4.99143">
        <ele>305.20001220703</ele>
        <time>2023-05-30T15:41:05.000Z</time>
      </trkpt>
      <trkpt lat="46.02194" lon="4.99148">
        <ele>305.39999389648</ele>
        <time>2023-05-30T15:41:06.000Z</time>
      </trkpt>
      <trkpt lat="46.0218" lon="4.99162">
        <ele>305.39999389648</ele>
        <time>2023-05-30T15:41:10.000Z</time>
      </trkpt>
      <trkpt lat="46.0217" lon="4.9917">
        <ele>305.39999389648</ele>
        <time>2023-05-30T15:41:14.000Z</time>
      </trkpt>
      <trkpt lat="46.02169" lon="4.99171">
        <ele>305</ele>
        <time>2023-05-30T15:41:17.000Z</time>
      </trkpt>
      <trkpt lat="46.02168" lon="4.99177">
        <ele>305.39999389648</ele>
        <time>2023-05-30T15:42:27.000Z</time>
      </trkpt>
      <trkpt lat="46.02161" lon="4.99195">
        <ele>305.60000610352</ele>
        <time>2023-05-30T15:42:32.000Z</time>
      </trkpt>
      <trkpt lat="46.02156" lon="4.99211">
        <ele>305.60000610352</ele>
        <time>2023-05-30T15:42:35.000Z</time>
      </trkpt>
      <trkpt lat="46.02151" lon="4.99226">
        <ele>305.60000610352</ele>
        <time>2023-05-30T15:42:37.000Z</time>
      </trkpt>
      <trkpt lat="46.02133" lon="4.99274">
        <ele>305.60000610352</ele>
        <time>2023-05-30T15:42:44.000Z</time>
      </trkpt>
      <trkpt lat="46.02106" lon="4.99352">
        <ele>305.79998779297</ele>
        <time>2023-05-30T15:42:54.000Z</time>
      </trkpt>
      <trkpt lat="46.02103" lon="4.9936">
        <ele>305.79998779297</ele>
        <time>2023-05-30T15:42:55.000Z</time>
      </trkpt>
      <trkpt lat="46.02075" lon="4.99433">
        <ele>305.79998779297</ele>
        <time>2023-05-30T15:43:04.000Z</time>
      </trkpt>
      <trkpt lat="46.02072" lon="4.99441">
        <ele>305.79998779297</ele>
        <time>2023-05-30T15:43:05.000Z</time>
      </trkpt>
      <trkpt lat="46.02045" lon="4.99516">
        <ele>306</ele>
        <time>2023-05-30T15:43:14.000Z</time>
      </trkpt>
      <trkpt lat="46.02042" lon="4.99525">
        <ele>306</ele>
        <time>2023-05-30T15:43:15.000Z</time>
      </trkpt>
      <trkpt lat="46.02014" lon="4.99601">
        <ele>306</ele>
        <time>2023-05-30T15:43:24.000Z</time>
      </trkpt>
      <trkpt lat="46.02008" lon="4.99616">
        <ele>306.20001220703</ele>
        <time>2023-05-30T15:43:26.000Z</time>
      </trkpt>
      <trkpt lat="46.0198" lon="4.99693">
        <ele>306.39999389648</ele>
        <time>2023-05-30T15:43:35.000Z</time>
      </trkpt>
      <trkpt lat="46.01973" lon="4.99713">
        <ele>306.39999389648</ele>
        <time>2023-05-30T15:43:37.000Z</time>
      </trkpt>
      <trkpt lat="46.01945" lon="4.9979">
        <ele>306.20001220703</ele>
        <time>2023-05-30T15:43:46.000Z</time>
      </trkpt>
      <trkpt lat="46.01939" lon="4.99807">
        <ele>306</ele>
        <time>2023-05-30T15:43:48.000Z</time>
      </trkpt>
      <trkpt lat="46.01911" lon="4.99882">
        <ele>306.20001220703</ele>
        <time>2023-05-30T15:43:57.000Z</time>
      </trkpt>
      <trkpt lat="46.01899" lon="4.99914">
        <ele>306.60000610352</ele>
        <time>2023-05-30T15:44:01.000Z</time>
      </trkpt>
      <trkpt lat="46.01884" lon="4.99954">
        <ele>306.79998779297</ele>
        <time>2023-05-30T15:44:06.000Z</time>
      </trkpt>
      <trkpt lat="46.01864" lon="5.00007">
        <ele>307.39999389648</ele>
        <time>2023-05-30T15:44:13.000Z</time>
      </trkpt>
      <trkpt lat="46.01854" lon="5.00039">
        <ele>307.79998779297</ele>
        <time>2023-05-30T15:44:17.000Z</time>
      </trkpt>
      <trkpt lat="46.0183" lon="5.00101">
        <ele>308.79998779297</ele>
        <time>2023-05-30T15:44:25.000Z</time>
      </trkpt>
      <trkpt lat="46.01828" lon="5.00107">
        <ele>309</ele>
        <time>2023-05-30T15:44:26.000Z</time>
      </trkpt>
      <trkpt lat="46.01805" lon="5.0017">
        <ele>309.20001220703</ele>
        <time>2023-05-30T15:44:34.000Z</time>
      </trkpt>
      <trkpt lat="46.01786" lon="5.00222">
        <ele>309.60000610352</ele>
        <time>2023-05-30T15:44:41.000Z</time>
      </trkpt>
      <trkpt lat="46.01761" lon="5.00285">
        <ele>309.79998779297</ele>
        <time>2023-05-30T15:44:49.000Z</time>
      </trkpt>
      <trkpt lat="46.01754" lon="5.00301">
        <ele>309.79998779297</ele>
        <time>2023-05-30T15:44:51.000Z</time>
      </trkpt>
      <trkpt lat="46.01741" lon="5.00334">
        <ele>309.79998779297</ele>
        <time>2023-05-30T15:44:55.000Z</time>
      </trkpt>
      <trkpt lat="46.01722" lon="5.00379">
        <ele>309.60000610352</ele>
        <time>2023-05-30T15:45:01.000Z</time>
      </trkpt>
      <trkpt lat="46.01694" lon="5.00447">
        <ele>309.39999389648</ele>
        <time>2023-05-30T15:45:09.000Z</time>
      </trkpt>
      <trkpt lat="46.01676" lon="5.0049">
        <ele>309</ele>
        <time>2023-05-30T15:45:14.000Z</time>
      </trkpt>
      <trkpt lat="46.01672" lon="5.00499">
        <ele>309</ele>
        <time>2023-05-30T15:45:15.000Z</time>
      </trkpt>
      <trkpt lat="46.0165" lon="5.00549">
        <ele>309</ele>
        <time>2023-05-30T15:45:21.000Z</time>
      </trkpt>
      <trkpt lat="46.01631" lon="5.006">
        <ele>309</ele>
        <time>2023-05-30T15:45:27.000Z</time>
      </trkpt>
      <trkpt lat="46.01623" lon="5.00624">
        <ele>309.20001220703</ele>
        <time>2023-05-30T15:45:30.000Z</time>
      </trkpt>
      <trkpt lat="46.01613" lon="5.00644">
        <ele>309.20001220703</ele>
        <time>2023-05-30T15:45:33.000Z</time>
      </trkpt>
      <trkpt lat="46.01589" lon="5.00696">
        <ele>309.60000610352</ele>
        <time>2023-05-30T15:45:40.000Z</time>
      </trkpt>
      <trkpt lat="46.01562" lon="5.0077">
        <ele>310</ele>
        <time>2023-05-30T15:45:50.000Z</time>
      </trkpt>
      <trkpt lat="46.01559" lon="5.00778">
        <ele>310</ele>
        <time>2023-05-30T15:45:51.000Z</time>
      </trkpt>
      <trkpt lat="46.01553" lon="5.00793">
        <ele>310</ele>
        <time>2023-05-30T15:45:53.000Z</time>
      </trkpt>
      <trkpt lat="46.01527" lon="5.00854">
        <ele>310</ele>
        <time>2023-05-30T15:46:01.000Z</time>
      </trkpt>
      <trkpt lat="46.01499" lon="5.00912">
        <ele>310</ele>
        <time>2023-05-30T15:46:09.000Z</time>
      </trkpt>
      <trkpt lat="46.01463" lon="5.00976">
        <ele>309.60000610352</ele>
        <time>2023-05-30T15:46:18.000Z</time>
      </trkpt>
      <trkpt lat="46.01436" lon="5.01025">
        <ele>309.20001220703</ele>
        <time>2023-05-30T15:46:25.000Z</time>
      </trkpt>
      <trkpt lat="46.01419" lon="5.01054">
        <ele>309</ele>
        <time>2023-05-30T15:46:29.000Z</time>
      </trkpt>
      <trkpt lat="46.01394" lon="5.01098">
        <ele>308.20001220703</ele>
        <time>2023-05-30T15:46:35.000Z</time>
      </trkpt>
      <trkpt lat="46.01378" lon="5.01127">
        <ele>307.79998779297</ele>
        <time>2023-05-30T15:46:39.000Z</time>
      </trkpt>
      <trkpt lat="46.01355" lon="5.01171">
        <ele>307.39999389648</ele>
        <time>2023-05-30T15:46:45.000Z</time>
      </trkpt>
      <trkpt lat="46.01318" lon="5.01235">
        <ele>307</ele>
        <time>2023-05-30T15:46:53.000Z</time>
      </trkpt>
      <trkpt lat="46.01292" lon="5.01282">
        <ele>306.79998779297</ele>
        <time>2023-05-30T15:46:59.000Z</time>
      </trkpt>
      <trkpt lat="46.01268" lon="5.0133">
        <ele>306.39999389648</ele>
        <time>2023-05-30T15:47:05.000Z</time>
      </trkpt>
      <trkpt lat="46.01238" lon="5.014">
        <ele>306.39999389648</ele>
        <time>2023-05-30T15:47:13.000Z</time>
      </trkpt>
      <trkpt lat="46.01214" lon="5.0147">
        <ele>306</ele>
        <time>2023-05-30T15:47:21.000Z</time>
      </trkpt>
      <trkpt lat="46.01208" lon="5.01487">
        <ele>305.79998779297</ele>
        <time>2023-05-30T15:47:23.000Z</time>
      </trkpt>
      <trkpt lat="46.01189" lon="5.01537">
        <ele>305.60000610352</ele>
        <time>2023-05-30T15:47:29.000Z</time>
      </trkpt>
      <trkpt lat="46.01181" lon="5.01554">
        <ele>305.39999389648</ele>
        <time>2023-05-30T15:47:31.000Z</time>
      </trkpt>
      <trkpt lat="46.01168" lon="5.01574">
        <ele>305.39999389648</ele>
        <time>2023-05-30T15:47:34.000Z</time>
      </trkpt>
      <trkpt lat="46.01164" lon="5.01583">
        <ele>305.39999389648</ele>
        <time>2023-05-30T15:47:35.000Z</time>
      </trkpt>
      <trkpt lat="46.01156" lon="5.01599">
        <ele>305.39999389648</ele>
        <time>2023-05-30T15:47:37.000Z</time>
      </trkpt>
      <trkpt lat="46.01151" lon="5.01615">
        <ele>305.20001220703</ele>
        <time>2023-05-30T15:47:39.000Z</time>
      </trkpt>
      <trkpt lat="46.01147" lon="5.01626">
        <ele>305.20001220703</ele>
        <time>2023-05-30T15:47:40.000Z</time>
      </trkpt>
      <trkpt lat="46.01141" lon="5.01644">
        <ele>305.20001220703</ele>
        <time>2023-05-30T15:47:42.000Z</time>
      </trkpt>
      <trkpt lat="46.01133" lon="5.01673">
        <ele>305</ele>
        <time>2023-05-30T15:47:45.000Z</time>
      </trkpt>
      <trkpt lat="46.01129" lon="5.01682">
        <ele>305</ele>
        <time>2023-05-30T15:47:46.000Z</time>
      </trkpt>
      <trkpt lat="46.01126" lon="5.01692">
        <ele>304.79998779297</ele>
        <time>2023-05-30T15:47:47.000Z</time>
      </trkpt>
      <trkpt lat="46.01119" lon="5.0171">
        <ele>304.60000610352</ele>
        <time>2023-05-30T15:47:49.000Z</time>
      </trkpt>
      <trkpt lat="46.01091" lon="5.01778">
        <ele>304.20001220703</ele>
        <time>2023-05-30T15:47:57.000Z</time>
      </trkpt>
      <trkpt lat="46.01061" lon="5.01848">
        <ele>304</ele>
        <time>2023-05-30T15:48:05.000Z</time>
      </trkpt>
      <trkpt lat="46.01051" lon="5.01872">
        <ele>304</ele>
        <time>2023-05-30T15:48:08.000Z</time>
      </trkpt>
      <trkpt lat="46.01036" lon="5.01905">
        <ele>304</ele>
        <time>2023-05-30T15:48:12.000Z</time>
      </trkpt>
      <trkpt lat="46.01018" lon="5.01947">
        <ele>303.60000610352</ele>
        <time>2023-05-30T15:48:17.000Z</time>
      </trkpt>
      <trkpt lat="46.00987" lon="5.02016">
        <ele>303.39999389648</ele>
        <time>2023-05-30T15:48:25.000Z</time>
      </trkpt>
      <trkpt lat="46.00977" lon="5.02039">
        <ele>303.20001220703</ele>
        <time>2023-05-30T15:48:28.000Z</time>
      </trkpt>
      <trkpt lat="46.00946" lon="5.02105">
        <ele>303.39999389648</ele>
        <time>2023-05-30T15:48:36.000Z</time>
      </trkpt>
      <trkpt lat="46.00942" lon="5.02111">
        <ele>303.39999389648</ele>
        <time>2023-05-30T15:48:37.000Z</time>
      </trkpt>
      <trkpt lat="46.0091" lon="5.02176">
        <ele>303.20001220703</ele>
        <time>2023-05-30T15:48:45.000Z</time>
      </trkpt>
      <trkpt lat="46.00899" lon="5.02199">
        <ele>303.20001220703</ele>
        <time>2023-05-30T15:48:48.000Z</time>
      </trkpt>
      <trkpt lat="46.00895" lon="5.02207">
        <ele>303.20001220703</ele>
        <time>2023-05-30T15:48:49.000Z</time>
      </trkpt>
      <trkpt lat="46.00861" lon="5.02269">
        <ele>302.60000610352</ele>
        <time>2023-05-30T15:48:57.000Z</time>
      </trkpt>
      <trkpt lat="46.00855" lon="5.02277">
        <ele>302.60000610352</ele>
        <time>2023-05-30T15:48:58.000Z</time>
      </trkpt>
      <trkpt lat="46.00849" lon="5.02283">
        <ele>302.39999389648</ele>
        <time>2023-05-30T15:48:59.000Z</time>
      </trkpt>
      <trkpt lat="46.0083" lon="5.02301">
        <ele>302.39999389648</ele>
        <time>2023-05-30T15:49:02.000Z</time>
      </trkpt>
      <trkpt lat="46.00817" lon="5.02311">
        <ele>302</ele>
        <time>2023-05-30T15:49:04.000Z</time>
      </trkpt>
      <trkpt lat="46.00775" lon="5.02342">
        <ele>300.79998779297</ele>
        <time>2023-05-30T15:49:10.000Z</time>
      </trkpt>
      <trkpt lat="46.00739" lon="5.02369">
        <ele>299.60000610352</ele>
        <time>2023-05-30T15:49:15.000Z</time>
      </trkpt>
      <trkpt lat="46.00717" lon="5.02385">
        <ele>298.39999389648</ele>
        <time>2023-05-30T15:49:18.000Z</time>
      </trkpt>
      <trkpt lat="46.00668" lon="5.02423">
        <ele>297.60000610352</ele>
        <time>2023-05-30T15:49:25.000Z</time>
      </trkpt>
      <trkpt lat="46.00655" lon="5.02433">
        <ele>297.39999389648</ele>
        <time>2023-05-30T15:49:27.000Z</time>
      </trkpt>
      <trkpt lat="46.00604" lon="5.02476">
        <ele>297.39999389648</ele>
        <time>2023-05-30T15:49:35.000Z</time>
      </trkpt>
      <trkpt lat="46.00594" lon="5.02487">
        <ele>297.39999389648</ele>
        <time>2023-05-30T15:49:37.000Z</time>
      </trkpt>
      <trkpt lat="46.00544" lon="5.02533">
        <ele>298.20001220703</ele>
        <time>2023-05-30T15:49:46.000Z</time>
      </trkpt>
      <trkpt lat="46.00514" lon="5.02563">
        <ele>298.79998779297</ele>
        <time>2023-05-30T15:49:52.000Z</time>
      </trkpt>
      <trkpt lat="46.0051" lon="5.02569">
        <ele>298.79998779297</ele>
        <time>2023-05-30T15:49:53.000Z</time>
      </trkpt>
      <trkpt lat="46.00473" lon="5.02605">
        <ele>299.39999389648</ele>
        <time>2023-05-30T15:50:00.000Z</time>
      </trkpt>
      <trkpt lat="46.00467" lon="5.0261">
        <ele>299.60000610352</ele>
        <time>2023-05-30T15:50:01.000Z</time>
      </trkpt>
      <trkpt lat="46.00429" lon="5.02645">
        <ele>300.20001220703</ele>
        <time>2023-05-30T15:50:08.000Z</time>
      </trkpt>
      <trkpt lat="46.00414" lon="5.02658">
        <ele>300.60000610352</ele>
        <time>2023-05-30T15:50:11.000Z</time>
      </trkpt>
      <trkpt lat="46.00393" lon="5.02678">
        <ele>300.60000610352</ele>
        <time>2023-05-30T15:50:15.000Z</time>
      </trkpt>
      <trkpt lat="46.0038" lon="5.02692">
        <ele>300.79998779297</ele>
        <time>2023-05-30T15:50:18.000Z</time>
      </trkpt>
      <trkpt lat="46.00371" lon="5.02701">
        <ele>301</ele>
        <time>2023-05-30T15:50:20.000Z</time>
      </trkpt>
      <trkpt lat="46.00353" lon="5.02716">
        <ele>301.60000610352</ele>
        <time>2023-05-30T15:50:24.000Z</time>
      </trkpt>
      <trkpt lat="46.00345" lon="5.02724">
        <ele>302</ele>
        <time>2023-05-30T15:50:26.000Z</time>
      </trkpt>
      <trkpt lat="46.00341" lon="5.02727">
        <ele>302.20001220703</ele>
        <time>2023-05-30T15:50:27.000Z</time>
      </trkpt>
      <trkpt lat="46.00332" lon="5.02729">
        <ele>302.60000610352</ele>
        <time>2023-05-30T15:50:29.000Z</time>
      </trkpt>
      <trkpt lat="46.00328" lon="5.02725">
        <ele>302.79998779297</ele>
        <time>2023-05-30T15:50:30.000Z</time>
      </trkpt>
      <trkpt lat="46.00297" lon="5.02688">
        <ele>302.60000610352</ele>
        <time>2023-05-30T15:50:37.000Z</time>
      </trkpt>
      <trkpt lat="46.00253" lon="5.02639">
        <ele>302.60000610352</ele>
        <time>2023-05-30T15:50:46.000Z</time>
      </trkpt>
      <trkpt lat="46.00206" lon="5.02589">
        <ele>302.60000610352</ele>
        <time>2023-05-30T15:50:55.000Z</time>
      </trkpt>
      <trkpt lat="46.00192" lon="5.02575">
        <ele>302.60000610352</ele>
        <time>2023-05-30T15:50:58.000Z</time>
      </trkpt>
      <trkpt lat="46.00163" lon="5.02545">
        <ele>303</ele>
        <time>2023-05-30T15:51:05.000Z</time>
      </trkpt>
      <trkpt lat="46.00152" lon="5.02538">
        <ele>303.20001220703</ele>
        <time>2023-05-30T15:51:06.000Z</time>
      </trkpt>
      <trkpt lat="46.00141" lon="5.02535">
        <ele>303.20001220703</ele>
        <time>2023-05-30T15:51:08.000Z</time>
      </trkpt>
      <trkpt lat="46.00109" lon="5.02537">
        <ele>303.20001220703</ele>
        <time>2023-05-30T15:51:13.000Z</time>
      </trkpt>
      <trkpt lat="46.00096" lon="5.02537">
        <ele>303.20001220703</ele>
        <time>2023-05-30T15:51:16.000Z</time>
      </trkpt>
      <trkpt lat="46.00093" lon="5.02536">
        <ele>303.20001220703</ele>
        <time>2023-05-30T15:51:17.000Z</time>
      </trkpt>
      <trkpt lat="46.0009" lon="5.02535">
        <ele>303</ele>
        <time>2023-05-30T15:51:18.000Z</time>
      </trkpt>
      <trkpt lat="46.00089" lon="5.02535">
        <ele>303</ele>
        <time>2023-05-30T15:51:19.000Z</time>
      </trkpt>
      <trkpt lat="46.00087" lon="5.02536">
        <ele>302.60000610352</ele>
        <time>2023-05-30T15:51:20.000Z</time>
      </trkpt>
      <trkpt lat="46.00082" lon="5.02539">
        <ele>302</ele>
        <time>2023-05-30T15:51:22.000Z</time>
      </trkpt>
      <trkpt lat="46.00078" lon="5.02548">
        <ele>301.60000610352</ele>
        <time>2023-05-30T15:51:24.000Z</time>
      </trkpt>
      <trkpt lat="46.00076" lon="5.02555">
        <ele>301.60000610352</ele>
        <time>2023-05-30T15:51:25.000Z</time>
      </trkpt>
      <trkpt lat="46.00071" lon="5.02578">
        <ele>301.39999389648</ele>
        <time>2023-05-30T15:51:28.000Z</time>
      </trkpt>
      <trkpt lat="46.00063" lon="5.0261">
        <ele>301</ele>
        <time>2023-05-30T15:51:32.000Z</time>
      </trkpt>
      <trkpt lat="46.00058" lon="5.02626">
        <ele>301</ele>
        <time>2023-05-30T15:51:34.000Z</time>
      </trkpt>
      <trkpt lat="46.00045" lon="5.02674">
        <ele>301</ele>
        <time>2023-05-30T15:51:40.000Z</time>
      </trkpt>
      <trkpt lat="46.00031" lon="5.02729">
        <ele>301.60000610352</ele>
        <time>2023-05-30T15:51:47.000Z</time>
      </trkpt>
      <trkpt lat="46.00023" lon="5.02765">
        <ele>301.60000610352</ele>
        <time>2023-05-30T15:51:52.000Z</time>
      </trkpt>
      <trkpt lat="46.00022" lon="5.02771">
        <ele>301.60000610352</ele>
        <time>2023-05-30T15:51:53.000Z</time>
      </trkpt>
      <trkpt lat="46.00017" lon="5.0279">
        <ele>301.60000610352</ele>
        <time>2023-05-30T15:51:58.000Z</time>
      </trkpt>
      <trkpt lat="46.00017" lon="5.02793">
        <ele>301.60000610352</ele>
        <time>2023-05-30T15:52:01.000Z</time>
      </trkpt>
      <trkpt lat="46.00016" lon="5.02798">
        <ele>301.60000610352</ele>
        <time>2023-05-30T15:52:11.000Z</time>
      </trkpt>
      <trkpt lat="46.00015" lon="5.02805">
        <ele>301.60000610352</ele>
        <time>2023-05-30T15:52:13.000Z</time>
      </trkpt>
      <trkpt lat="46.00009" lon="5.02825">
        <ele>301.60000610352</ele>
        <time>2023-05-30T15:52:17.000Z</time>
      </trkpt>
      <trkpt lat="46.00001" lon="5.0286">
        <ele>301.79998779297</ele>
        <time>2023-05-30T15:52:22.000Z</time>
      </trkpt>
      <trkpt lat="45.99989" lon="5.02906">
        <ele>302.20001220703</ele>
        <time>2023-05-30T15:52:28.000Z</time>
      </trkpt>
      <trkpt lat="45.99985" lon="5.0292">
        <ele>302.60000610352</ele>
        <time>2023-05-30T15:52:30.000Z</time>
      </trkpt>
      <trkpt lat="45.99979" lon="5.02937">
        <ele>302.79998779297</ele>
        <time>2023-05-30T15:52:32.000Z</time>
      </trkpt>
      <trkpt lat="45.99976" lon="5.02952">
        <ele>303</ele>
        <time>2023-05-30T15:52:34.000Z</time>
      </trkpt>
      <trkpt lat="45.99973" lon="5.02964">
        <ele>303.39999389648</ele>
        <time>2023-05-30T15:52:37.000Z</time>
      </trkpt>
      <trkpt lat="45.9997" lon="5.02979">
        <ele>303.60000610352</ele>
        <time>2023-05-30T15:52:40.000Z</time>
      </trkpt>
      <trkpt lat="45.99968" lon="5.02986">
        <ele>303.60000610352</ele>
        <time>2023-05-30T15:52:41.000Z</time>
      </trkpt>
      <trkpt lat="45.99962" lon="5.03009">
        <ele>303.60000610352</ele>
        <time>2023-05-30T15:52:44.000Z</time>
      </trkpt>
      <trkpt lat="45.99958" lon="5.03024">
        <ele>303.79998779297</ele>
        <time>2023-05-30T15:52:46.000Z</time>
      </trkpt>
      <trkpt lat="45.99954" lon="5.03039">
        <ele>304</ele>
        <time>2023-05-30T15:52:48.000Z</time>
      </trkpt>
      <trkpt lat="45.99948" lon="5.03061">
        <ele>304.39999389648</ele>
        <time>2023-05-30T15:52:51.000Z</time>
      </trkpt>
      <trkpt lat="45.99944" lon="5.03076">
        <ele>304.79998779297</ele>
        <time>2023-05-30T15:52:53.000Z</time>
      </trkpt>
      <trkpt lat="45.99941" lon="5.0309">
        <ele>305</ele>
        <time>2023-05-30T15:52:55.000Z</time>
      </trkpt>
      <trkpt lat="45.99934" lon="5.03116">
        <ele>305.60000610352</ele>
        <time>2023-05-30T15:52:59.000Z</time>
      </trkpt>
      <trkpt lat="45.99931" lon="5.03125">
        <ele>306</ele>
        <time>2023-05-30T15:53:00.000Z</time>
      </trkpt>
      <trkpt lat="45.99915" lon="5.03177">
        <ele>306.20001220703</ele>
        <time>2023-05-30T15:53:07.000Z</time>
      </trkpt>
      <trkpt lat="45.99897" lon="5.03218">
        <ele>306.20001220703</ele>
        <time>2023-05-30T15:53:13.000Z</time>
      </trkpt>
      <trkpt lat="45.99872" lon="5.03271">
        <ele>306.39999389648</ele>
        <time>2023-05-30T15:53:21.000Z</time>
      </trkpt>
      <trkpt lat="45.99856" lon="5.03304">
        <ele>307</ele>
        <time>2023-05-30T15:53:26.000Z</time>
      </trkpt>
      <trkpt lat="45.99841" lon="5.03332">
        <ele>307.20001220703</ele>
        <time>2023-05-30T15:53:30.000Z</time>
      </trkpt>
      <trkpt lat="45.99812" lon="5.03391">
        <ele>306.60000610352</ele>
        <time>2023-05-30T15:53:38.000Z</time>
      </trkpt>
      <trkpt lat="45.99808" lon="5.03398">
        <ele>306.60000610352</ele>
        <time>2023-05-30T15:53:39.000Z</time>
      </trkpt>
      <trkpt lat="45.99798" lon="5.03418">
        <ele>306.60000610352</ele>
        <time>2023-05-30T15:53:42.000Z</time>
      </trkpt>
      <trkpt lat="45.99775" lon="5.03482">
        <ele>306.60000610352</ele>
        <time>2023-05-30T15:53:50.000Z</time>
      </trkpt>
      <trkpt lat="45.99759" lon="5.03555">
        <ele>307</ele>
        <time>2023-05-30T15:53:58.000Z</time>
      </trkpt>
      <trkpt lat="45.99741" lon="5.03637">
        <ele>307.39999389648</ele>
        <time>2023-05-30T15:54:07.000Z</time>
      </trkpt>
      <trkpt lat="45.99737" lon="5.03655">
        <ele>307.60000610352</ele>
        <time>2023-05-30T15:54:09.000Z</time>
      </trkpt>
      <trkpt lat="45.99728" lon="5.03698">
        <ele>307.39999389648</ele>
        <time>2023-05-30T15:54:14.000Z</time>
      </trkpt>
      <trkpt lat="45.99717" lon="5.03752">
        <ele>307.20001220703</ele>
        <time>2023-05-30T15:54:20.000Z</time>
      </trkpt>
      <trkpt lat="45.997" lon="5.03828">
        <ele>307</ele>
        <time>2023-05-30T15:54:28.000Z</time>
      </trkpt>
      <trkpt lat="45.99683" lon="5.03907">
        <ele>306.79998779297</ele>
        <time>2023-05-30T15:54:36.000Z</time>
      </trkpt>
      <trkpt lat="45.99676" lon="5.03937">
        <ele>306.60000610352</ele>
        <time>2023-05-30T15:54:39.000Z</time>
      </trkpt>
      <trkpt lat="45.99658" lon="5.04016">
        <ele>306.39999389648</ele>
        <time>2023-05-30T15:54:47.000Z</time>
      </trkpt>
      <trkpt lat="45.99652" lon="5.04043">
        <ele>306.39999389648</ele>
        <time>2023-05-30T15:54:50.000Z</time>
      </trkpt>
      <trkpt lat="45.99635" lon="5.04119">
        <ele>306.39999389648</ele>
        <time>2023-05-30T15:54:58.000Z</time>
      </trkpt>
      <trkpt lat="45.99631" lon="5.04139">
        <ele>306.39999389648</ele>
        <time>2023-05-30T15:55:00.000Z</time>
      </trkpt>
      <trkpt lat="45.99614" lon="5.04218">
        <ele>306.39999389648</ele>
        <time>2023-05-30T15:55:08.000Z</time>
      </trkpt>
      <trkpt lat="45.99612" lon="5.04228">
        <ele>306.39999389648</ele>
        <time>2023-05-30T15:55:09.000Z</time>
      </trkpt>
      <trkpt lat="45.99594" lon="5.04304">
        <ele>306.79998779297</ele>
        <time>2023-05-30T15:55:17.000Z</time>
      </trkpt>
      <trkpt lat="45.99575" lon="5.04368">
        <ele>307.20001220703</ele>
        <time>2023-05-30T15:55:24.000Z</time>
      </trkpt>
      <trkpt lat="45.99546" lon="5.04415">
        <ele>306.79998779297</ele>
        <time>2023-05-30T15:55:30.000Z</time>
      </trkpt>
      <trkpt lat="45.99506" lon="5.04471">
        <ele>306.60000610352</ele>
        <time>2023-05-30T15:55:38.000Z</time>
      </trkpt>
      <trkpt lat="45.99479" lon="5.04508">
        <ele>306.60000610352</ele>
        <time>2023-05-30T15:55:43.000Z</time>
      </trkpt>
      <trkpt lat="45.99438" lon="5.04566">
        <ele>306.79998779297</ele>
        <time>2023-05-30T15:55:51.000Z</time>
      </trkpt>
      <trkpt lat="45.99428" lon="5.0458">
        <ele>307</ele>
        <time>2023-05-30T15:55:53.000Z</time>
      </trkpt>
      <trkpt lat="45.99388" lon="5.04637">
        <ele>307.20001220703</ele>
        <time>2023-05-30T15:56:01.000Z</time>
      </trkpt>
      <trkpt lat="45.99359" lon="5.04676">
        <ele>307.39999389648</ele>
        <time>2023-05-30T15:56:07.000Z</time>
      </trkpt>
      <trkpt lat="45.99319" lon="5.04734">
        <ele>307.39999389648</ele>
        <time>2023-05-30T15:56:15.000Z</time>
      </trkpt>
      <trkpt lat="45.99277" lon="5.04792">
        <ele>307</ele>
        <time>2023-05-30T15:56:23.000Z</time>
      </trkpt>
      <trkpt lat="45.99234" lon="5.0485">
        <ele>306.79998779297</ele>
        <time>2023-05-30T15:56:31.000Z</time>
      </trkpt>
      <trkpt lat="45.99229" lon="5.04857">
        <ele>306.79998779297</ele>
        <time>2023-05-30T15:56:32.000Z</time>
      </trkpt>
      <trkpt lat="45.99188" lon="5.04917">
        <ele>307</ele>
        <time>2023-05-30T15:56:40.000Z</time>
      </trkpt>
      <trkpt lat="45.99146" lon="5.04976">
        <ele>307</ele>
        <time>2023-05-30T15:56:48.000Z</time>
      </trkpt>
      <trkpt lat="45.99141" lon="5.04984">
        <ele>307</ele>
        <time>2023-05-30T15:56:49.000Z</time>
      </trkpt>
      <trkpt lat="45.99103" lon="5.05046">
        <ele>306.79998779297</ele>
        <time>2023-05-30T15:56:57.000Z</time>
      </trkpt>
      <trkpt lat="45.9908" lon="5.05099">
        <ele>306.60000610352</ele>
        <time>2023-05-30T15:57:03.000Z</time>
      </trkpt>
      <trkpt lat="45.99057" lon="5.05152">
        <ele>306.39999389648</ele>
        <time>2023-05-30T15:57:09.000Z</time>
      </trkpt>
      <trkpt lat="45.99034" lon="5.05206">
        <ele>306.39999389648</ele>
        <time>2023-05-30T15:57:15.000Z</time>
      </trkpt>
      <trkpt lat="45.99004" lon="5.05277">
        <ele>306.79998779297</ele>
        <time>2023-05-30T15:57:23.000Z</time>
      </trkpt>
      <trkpt lat="45.98989" lon="5.05313">
        <ele>306.79998779297</ele>
        <time>2023-05-30T15:57:27.000Z</time>
      </trkpt>
      <trkpt lat="45.9896" lon="5.05382">
        <ele>307</ele>
        <time>2023-05-30T15:57:35.000Z</time>
      </trkpt>
      <trkpt lat="45.98953" lon="5.05399">
        <ele>306.79998779297</ele>
        <time>2023-05-30T15:57:37.000Z</time>
      </trkpt>
      <trkpt lat="45.98922" lon="5.0547">
        <ele>306.79998779297</ele>
        <time>2023-05-30T15:57:45.000Z</time>
      </trkpt>
      <trkpt lat="45.98918" lon="5.05479">
        <ele>306.60000610352</ele>
        <time>2023-05-30T15:57:46.000Z</time>
      </trkpt>
      <trkpt lat="45.98888" lon="5.05548">
        <ele>306.79998779297</ele>
        <time>2023-05-30T15:57:54.000Z</time>
      </trkpt>
      <trkpt lat="45.98859" lon="5.05616">
        <ele>307</ele>
        <time>2023-05-30T15:58:02.000Z</time>
      </trkpt>
      <trkpt lat="45.98851" lon="5.05634">
        <ele>306.79998779297</ele>
        <time>2023-05-30T15:58:04.000Z</time>
      </trkpt>
      <trkpt lat="45.98826" lon="5.05693">
        <ele>306.60000610352</ele>
        <time>2023-05-30T15:58:11.000Z</time>
      </trkpt>
      <trkpt lat="45.98795" lon="5.05765">
        <ele>306.60000610352</ele>
        <time>2023-05-30T15:58:19.000Z</time>
      </trkpt>
      <trkpt lat="45.98791" lon="5.05773">
        <ele>306.60000610352</ele>
        <time>2023-05-30T15:58:20.000Z</time>
      </trkpt>
      <trkpt lat="45.98764" lon="5.05834">
        <ele>306.20001220703</ele>
        <time>2023-05-30T15:58:27.000Z</time>
      </trkpt>
      <trkpt lat="45.98727" lon="5.05884">
        <ele>306</ele>
        <time>2023-05-30T15:58:34.000Z</time>
      </trkpt>
      <trkpt lat="45.98688" lon="5.05931">
        <ele>306</ele>
        <time>2023-05-30T15:58:41.000Z</time>
      </trkpt>
      <trkpt lat="45.98683" lon="5.05939">
        <ele>306</ele>
        <time>2023-05-30T15:58:42.000Z</time>
      </trkpt>
      <trkpt lat="45.98662" lon="5.05982">
        <ele>306</ele>
        <time>2023-05-30T15:58:47.000Z</time>
      </trkpt>
      <trkpt lat="45.98634" lon="5.06042">
        <ele>306.20001220703</ele>
        <time>2023-05-30T15:58:54.000Z</time>
      </trkpt>
      <trkpt lat="45.98604" lon="5.06109">
        <ele>306.39999389648</ele>
        <time>2023-05-30T15:59:02.000Z</time>
      </trkpt>
      <trkpt lat="45.98597" lon="5.06126">
        <ele>306.39999389648</ele>
        <time>2023-05-30T15:59:04.000Z</time>
      </trkpt>
      <trkpt lat="45.98572" lon="5.06197">
        <ele>306.60000610352</ele>
        <time>2023-05-30T15:59:12.000Z</time>
      </trkpt>
      <trkpt lat="45.98548" lon="5.06267">
        <ele>306.79998779297</ele>
        <time>2023-05-30T15:59:20.000Z</time>
      </trkpt>
      <trkpt lat="45.98542" lon="5.06284">
        <ele>306.79998779297</ele>
        <time>2023-05-30T15:59:22.000Z</time>
      </trkpt>
      <trkpt lat="45.98517" lon="5.0636">
        <ele>307.20001220703</ele>
        <time>2023-05-30T15:59:31.000Z</time>
      </trkpt>
      <trkpt lat="45.98506" lon="5.06392">
        <ele>307.39999389648</ele>
        <time>2023-05-30T15:59:35.000Z</time>
      </trkpt>
      <trkpt lat="45.985" lon="5.0641">
        <ele>307.60000610352</ele>
        <time>2023-05-30T15:59:37.000Z</time>
      </trkpt>
      <trkpt lat="45.98478" lon="5.06474">
        <ele>308.39999389648</ele>
        <time>2023-05-30T15:59:45.000Z</time>
      </trkpt>
      <trkpt lat="45.98459" lon="5.06528">
        <ele>308.79998779297</ele>
        <time>2023-05-30T15:59:52.000Z</time>
      </trkpt>
      <trkpt lat="45.98448" lon="5.06559">
        <ele>309.20001220703</ele>
        <time>2023-05-30T15:59:56.000Z</time>
      </trkpt>
      <trkpt lat="45.98423" lon="5.06632">
        <ele>309.20001220703</ele>
        <time>2023-05-30T16:00:05.000Z</time>
      </trkpt>
      <trkpt lat="45.98417" lon="5.06649">
        <ele>309.20001220703</ele>
        <time>2023-05-30T16:00:07.000Z</time>
      </trkpt>
      <trkpt lat="45.98391" lon="5.06726">
        <ele>308.79998779297</ele>
        <time>2023-05-30T16:00:16.000Z</time>
      </trkpt>
      <trkpt lat="45.98365" lon="5.06799">
        <ele>308.79998779297</ele>
        <time>2023-05-30T16:00:25.000Z</time>
      </trkpt>
      <trkpt lat="45.98356" lon="5.06824">
        <ele>309</ele>
        <time>2023-05-30T16:00:28.000Z</time>
      </trkpt>
      <trkpt lat="45.98339" lon="5.06873">
        <ele>309</ele>
        <time>2023-05-30T16:00:34.000Z</time>
      </trkpt>
      <trkpt lat="45.98325" lon="5.06914">
        <ele>309</ele>
        <time>2023-05-30T16:00:39.000Z</time>
      </trkpt>
      <trkpt lat="45.983" lon="5.0699">
        <ele>309.20001220703</ele>
        <time>2023-05-30T16:00:48.000Z</time>
      </trkpt>
      <trkpt lat="45.98295" lon="5.07006">
        <ele>309.20001220703</ele>
        <time>2023-05-30T16:00:50.000Z</time>
      </trkpt>
      <trkpt lat="45.98271" lon="5.07076">
        <ele>309</ele>
        <time>2023-05-30T16:00:58.000Z</time>
      </trkpt>
      <trkpt lat="45.98262" lon="5.07102">
        <ele>308.79998779297</ele>
        <time>2023-05-30T16:01:01.000Z</time>
      </trkpt>
      <trkpt lat="45.98237" lon="5.07173">
        <ele>308.39999389648</ele>
        <time>2023-05-30T16:01:09.000Z</time>
      </trkpt>
      <trkpt lat="45.98234" lon="5.07182">
        <ele>308.20001220703</ele>
        <time>2023-05-30T16:01:10.000Z</time>
      </trkpt>
      <trkpt lat="45.98206" lon="5.07259">
        <ele>308</ele>
        <time>2023-05-30T16:01:19.000Z</time>
      </trkpt>
      <trkpt lat="45.98203" lon="5.07268">
        <ele>308</ele>
        <time>2023-05-30T16:01:20.000Z</time>
      </trkpt>
      <trkpt lat="45.98182" lon="5.07329">
        <ele>307.79998779297</ele>
        <time>2023-05-30T16:01:27.000Z</time>
      </trkpt>
      <trkpt lat="45.98174" lon="5.07354">
        <ele>308</ele>
        <time>2023-05-30T16:01:30.000Z</time>
      </trkpt>
      <trkpt lat="45.98149" lon="5.07422">
        <ele>308.20001220703</ele>
        <time>2023-05-30T16:01:38.000Z</time>
      </trkpt>
      <trkpt lat="45.98125" lon="5.07492">
        <ele>308.60000610352</ele>
        <time>2023-05-30T16:01:46.000Z</time>
      </trkpt>
      <trkpt lat="45.98116" lon="5.07517">
        <ele>308.79998779297</ele>
        <time>2023-05-30T16:01:49.000Z</time>
      </trkpt>
      <trkpt lat="45.98111" lon="5.07534">
        <ele>309</ele>
        <time>2023-05-30T16:01:51.000Z</time>
      </trkpt>
      <trkpt lat="45.98086" lon="5.07607">
        <ele>309.39999389648</ele>
        <time>2023-05-30T16:02:00.000Z</time>
      </trkpt>
      <trkpt lat="45.98059" lon="5.07682">
        <ele>309.79998779297</ele>
        <time>2023-05-30T16:02:09.000Z</time>
      </trkpt>
      <trkpt lat="45.98053" lon="5.077">
        <ele>310</ele>
        <time>2023-05-30T16:02:11.000Z</time>
      </trkpt>
      <trkpt lat="45.98027" lon="5.07776">
        <ele>310.79998779297</ele>
        <time>2023-05-30T16:02:20.000Z</time>
      </trkpt>
      <trkpt lat="45.98022" lon="5.07791">
        <ele>311</ele>
        <time>2023-05-30T16:02:22.000Z</time>
      </trkpt>
      <trkpt lat="45.98009" lon="5.07835">
        <ele>311</ele>
        <time>2023-05-30T16:02:27.000Z</time>
      </trkpt>
      <trkpt lat="45.98004" lon="5.07852">
        <ele>311.20001220703</ele>
        <time>2023-05-30T16:02:29.000Z</time>
      </trkpt>
      <trkpt lat="45.9798" lon="5.07929">
        <ele>311.39999389648</ele>
        <time>2023-05-30T16:02:38.000Z</time>
      </trkpt>
      <trkpt lat="45.97978" lon="5.07937">
        <ele>311.39999389648</ele>
        <time>2023-05-30T16:02:39.000Z</time>
      </trkpt>
      <trkpt lat="45.97954" lon="5.08015">
        <ele>312.20001220703</ele>
        <time>2023-05-30T16:02:48.000Z</time>
      </trkpt>
      <trkpt lat="45.97948" lon="5.08032">
        <ele>312.20001220703</ele>
        <time>2023-05-30T16:02:50.000Z</time>
      </trkpt>
      <trkpt lat="45.97943" lon="5.0805">
        <ele>312.39999389648</ele>
        <time>2023-05-30T16:02:52.000Z</time>
      </trkpt>
      <trkpt lat="45.97919" lon="5.08128">
        <ele>311.79998779297</ele>
        <time>2023-05-30T16:03:01.000Z</time>
      </trkpt>
      <trkpt lat="45.97914" lon="5.08145">
        <ele>311.60000610352</ele>
        <time>2023-05-30T16:03:03.000Z</time>
      </trkpt>
      <trkpt lat="45.97898" lon="5.08193">
        <ele>311.20001220703</ele>
        <time>2023-05-30T16:03:09.000Z</time>
      </trkpt>
      <trkpt lat="45.97892" lon="5.08211">
        <ele>311.20001220703</ele>
        <time>2023-05-30T16:03:11.000Z</time>
      </trkpt>
      <trkpt lat="45.9787" lon="5.08281">
        <ele>311</ele>
        <time>2023-05-30T16:03:19.000Z</time>
      </trkpt>
      <trkpt lat="45.97848" lon="5.08354">
        <ele>310.79998779297</ele>
        <time>2023-05-30T16:03:27.000Z</time>
      </trkpt>
      <trkpt lat="45.97837" lon="5.08393">
        <ele>310.20001220703</ele>
        <time>2023-05-30T16:03:31.000Z</time>
      </trkpt>
      <trkpt lat="45.97816" lon="5.08463">
        <ele>309</ele>
        <time>2023-05-30T16:03:38.000Z</time>
      </trkpt>
      <trkpt lat="45.97813" lon="5.08473">
        <ele>309</ele>
        <time>2023-05-30T16:03:39.000Z</time>
      </trkpt>
      <trkpt lat="45.97792" lon="5.0855">
        <ele>308.39999389648</ele>
        <time>2023-05-30T16:03:47.000Z</time>
      </trkpt>
      <trkpt lat="45.97788" lon="5.0857">
        <ele>308</ele>
        <time>2023-05-30T16:03:49.000Z</time>
      </trkpt>
      <trkpt lat="45.97786" lon="5.0858">
        <ele>308</ele>
        <time>2023-05-30T16:03:50.000Z</time>
      </trkpt>
      <trkpt lat="45.9777" lon="5.08652">
        <ele>307.60000610352</ele>
        <time>2023-05-30T16:03:57.000Z</time>
      </trkpt>
      <trkpt lat="45.97754" lon="5.08731">
        <ele>307.60000610352</ele>
        <time>2023-05-30T16:04:05.000Z</time>
      </trkpt>
      <trkpt lat="45.97752" lon="5.0874">
        <ele>307.60000610352</ele>
        <time>2023-05-30T16:04:06.000Z</time>
      </trkpt>
      <trkpt lat="45.97734" lon="5.08819">
        <ele>308.60000610352</ele>
        <time>2023-05-30T16:04:15.000Z</time>
      </trkpt>
      <trkpt lat="45.9773" lon="5.08835">
        <ele>308.79998779297</ele>
        <time>2023-05-30T16:04:17.000Z</time>
      </trkpt>
      <trkpt lat="45.97724" lon="5.0886">
        <ele>309</ele>
        <time>2023-05-30T16:04:20.000Z</time>
      </trkpt>
      <trkpt lat="45.9772" lon="5.08876">
        <ele>309.20001220703</ele>
        <time>2023-05-30T16:04:22.000Z</time>
      </trkpt>
      <trkpt lat="45.97707" lon="5.08924">
        <ele>310</ele>
        <time>2023-05-30T16:04:28.000Z</time>
      </trkpt>
      <trkpt lat="45.9769" lon="5.09">
        <ele>309.39999389648</ele>
        <time>2023-05-30T16:04:36.000Z</time>
      </trkpt>
      <trkpt lat="45.97674" lon="5.09071">
        <ele>308</ele>
        <time>2023-05-30T16:04:43.000Z</time>
      </trkpt>
      <trkpt lat="45.97669" lon="5.09098">
        <ele>307.60000610352</ele>
        <time>2023-05-30T16:04:46.000Z</time>
      </trkpt>
      <trkpt lat="45.9766" lon="5.09153">
        <ele>307.39999389648</ele>
        <time>2023-05-30T16:04:52.000Z</time>
      </trkpt>
      <trkpt lat="45.97655" lon="5.09161">
        <ele>307.39999389648</ele>
        <time>2023-05-30T16:04:54.000Z</time>
      </trkpt>
      <trkpt lat="45.97653" lon="5.09162">
        <ele>307.39999389648</ele>
        <time>2023-05-30T16:04:55.000Z</time>
      </trkpt>
      <trkpt lat="45.97633" lon="5.09163">
        <ele>306.79998779297</ele>
        <time>2023-05-30T16:05:00.000Z</time>
      </trkpt>
      <trkpt lat="45.97601" lon="5.09162">
        <ele>306.60000610352</ele>
        <time>2023-05-30T16:05:06.000Z</time>
      </trkpt>
      <trkpt lat="45.9755" lon="5.0916">
        <ele>307</ele>
        <time>2023-05-30T16:05:14.000Z</time>
      </trkpt>
      <trkpt lat="45.97492" lon="5.09164">
        <ele>307.20001220703</ele>
        <time>2023-05-30T16:05:23.000Z</time>
      </trkpt>
      <trkpt lat="45.97446" lon="5.09181">
        <ele>307</ele>
        <time>2023-05-30T16:05:30.000Z</time>
      </trkpt>
      <trkpt lat="45.97396" lon="5.0921">
        <ele>306.79998779297</ele>
        <time>2023-05-30T16:05:38.000Z</time>
      </trkpt>
      <trkpt lat="45.97343" lon="5.09245">
        <ele>306.60000610352</ele>
        <time>2023-05-30T16:05:46.000Z</time>
      </trkpt>
      <trkpt lat="45.97326" lon="5.09257">
        <ele>306.79998779297</ele>
        <time>2023-05-30T16:05:49.000Z</time>
      </trkpt>
      <trkpt lat="45.97277" lon="5.09292">
        <ele>307</ele>
        <time>2023-05-30T16:05:57.000Z</time>
      </trkpt>
      <trkpt lat="45.97265" lon="5.093">
        <ele>307.20001220703</ele>
        <time>2023-05-30T16:05:59.000Z</time>
      </trkpt>
      <trkpt lat="45.97218" lon="5.09331">
        <ele>308.20001220703</ele>
        <time>2023-05-30T16:06:07.000Z</time>
      </trkpt>
      <trkpt lat="45.9719" lon="5.09351">
        <ele>308.60000610352</ele>
        <time>2023-05-30T16:06:12.000Z</time>
      </trkpt>
      <trkpt lat="45.97156" lon="5.09375">
        <ele>309.20001220703</ele>
        <time>2023-05-30T16:06:18.000Z</time>
      </trkpt>
      <trkpt lat="45.97124" lon="5.09397">
        <ele>309.79998779297</ele>
        <time>2023-05-30T16:06:24.000Z</time>
      </trkpt>
      <trkpt lat="45.97097" lon="5.09417">
        <ele>310.20001220703</ele>
        <time>2023-05-30T16:06:29.000Z</time>
      </trkpt>
      <trkpt lat="45.97082" lon="5.09428">
        <ele>310.60000610352</ele>
        <time>2023-05-30T16:06:32.000Z</time>
      </trkpt>
      <trkpt lat="45.97061" lon="5.09443">
        <ele>311.20001220703</ele>
        <time>2023-05-30T16:06:36.000Z</time>
      </trkpt>
      <trkpt lat="45.97038" lon="5.09459">
        <ele>311.60000610352</ele>
        <time>2023-05-30T16:06:40.000Z</time>
      </trkpt>
      <trkpt lat="45.96997" lon="5.09486">
        <ele>311.20001220703</ele>
        <time>2023-05-30T16:06:47.000Z</time>
      </trkpt>
      <trkpt lat="45.96978" lon="5.095">
        <ele>311</ele>
        <time>2023-05-30T16:06:50.000Z</time>
      </trkpt>
      <trkpt lat="45.96937" lon="5.09529">
        <ele>311</ele>
        <time>2023-05-30T16:06:57.000Z</time>
      </trkpt>
      <trkpt lat="45.96932" lon="5.09532">
        <ele>311</ele>
        <time>2023-05-30T16:06:58.000Z</time>
      </trkpt>
      <trkpt lat="45.96914" lon="5.09543">
        <ele>311</ele>
        <time>2023-05-30T16:07:01.000Z</time>
      </trkpt>
      <trkpt lat="45.96902" lon="5.09553">
        <ele>311</ele>
        <time>2023-05-30T16:07:03.000Z</time>
      </trkpt>
      <trkpt lat="45.96878" lon="5.09571">
        <ele>311</ele>
        <time>2023-05-30T16:07:07.000Z</time>
      </trkpt>
      <trkpt lat="45.96827" lon="5.09602">
        <ele>311.20001220703</ele>
        <time>2023-05-30T16:07:15.000Z</time>
      </trkpt>
      <trkpt lat="45.9682" lon="5.09605">
        <ele>311.20001220703</ele>
        <time>2023-05-30T16:07:16.000Z</time>
      </trkpt>
      <trkpt lat="45.96764" lon="5.09624">
        <ele>311</ele>
        <time>2023-05-30T16:07:25.000Z</time>
      </trkpt>
      <trkpt lat="45.96714" lon="5.0964">
        <ele>311.60000610352</ele>
        <time>2023-05-30T16:07:33.000Z</time>
      </trkpt>
      <trkpt lat="45.96684" lon="5.0965">
        <ele>312.39999389648</ele>
        <time>2023-05-30T16:07:38.000Z</time>
      </trkpt>
      <trkpt lat="45.96653" lon="5.0966">
        <ele>313</ele>
        <time>2023-05-30T16:07:43.000Z</time>
      </trkpt>
      <trkpt lat="45.96641" lon="5.09664">
        <ele>313.39999389648</ele>
        <time>2023-05-30T16:07:45.000Z</time>
      </trkpt>
      <trkpt lat="45.96604" lon="5.09678">
        <ele>313.60000610352</ele>
        <time>2023-05-30T16:07:51.000Z</time>
      </trkpt>
      <trkpt lat="45.96559" lon="5.09693">
        <ele>313.39999389648</ele>
        <time>2023-05-30T16:07:58.000Z</time>
      </trkpt>
      <trkpt lat="45.96507" lon="5.09712">
        <ele>312.39999389648</ele>
        <time>2023-05-30T16:08:06.000Z</time>
      </trkpt>
      <trkpt lat="45.96495" lon="5.09717">
        <ele>312.39999389648</ele>
        <time>2023-05-30T16:08:08.000Z</time>
      </trkpt>
      <trkpt lat="45.96485" lon="5.09719">
        <ele>312.39999389648</ele>
        <time>2023-05-30T16:08:10.000Z</time>
      </trkpt>
      <trkpt lat="45.96478" lon="5.09721">
        <ele>312.39999389648</ele>
        <time>2023-05-30T16:08:11.000Z</time>
      </trkpt>
      <trkpt lat="45.96458" lon="5.09728">
        <ele>312.39999389648</ele>
        <time>2023-05-30T16:08:14.000Z</time>
      </trkpt>
      <trkpt lat="45.96444" lon="5.09731">
        <ele>312.20001220703</ele>
        <time>2023-05-30T16:08:16.000Z</time>
      </trkpt>
      <trkpt lat="45.96428" lon="5.09735">
        <ele>312</ele>
        <time>2023-05-30T16:08:18.000Z</time>
      </trkpt>
      <trkpt lat="45.96413" lon="5.09738">
        <ele>311.79998779297</ele>
        <time>2023-05-30T16:08:20.000Z</time>
      </trkpt>
      <trkpt lat="45.96389" lon="5.0974">
        <ele>311.20001220703</ele>
        <time>2023-05-30T16:08:23.000Z</time>
      </trkpt>
      <trkpt lat="45.96374" lon="5.09738">
        <ele>311</ele>
        <time>2023-05-30T16:08:25.000Z</time>
      </trkpt>
      <trkpt lat="45.96328" lon="5.09719">
        <ele>310.39999389648</ele>
        <time>2023-05-30T16:08:32.000Z</time>
      </trkpt>
      <trkpt lat="45.96316" lon="5.09714">
        <ele>310.20001220703</ele>
        <time>2023-05-30T16:08:34.000Z</time>
      </trkpt>
      <trkpt lat="45.96269" lon="5.09694">
        <ele>309.60000610352</ele>
        <time>2023-05-30T16:08:41.000Z</time>
      </trkpt>
      <trkpt lat="45.96225" lon="5.09674">
        <ele>309.60000610352</ele>
        <time>2023-05-30T16:08:48.000Z</time>
      </trkpt>
      <trkpt lat="45.96168" lon="5.09649">
        <ele>309.79998779297</ele>
        <time>2023-05-30T16:08:57.000Z</time>
      </trkpt>
      <trkpt lat="45.96111" lon="5.09621">
        <ele>309.20001220703</ele>
        <time>2023-05-30T16:09:06.000Z</time>
      </trkpt>
      <trkpt lat="45.96075" lon="5.09596">
        <ele>309.20001220703</ele>
        <time>2023-05-30T16:09:12.000Z</time>
      </trkpt>
      <trkpt lat="45.96069" lon="5.09593">
        <ele>309.20001220703</ele>
        <time>2023-05-30T16:09:13.000Z</time>
      </trkpt>
      <trkpt lat="45.96038" lon="5.09582">
        <ele>309.60000610352</ele>
        <time>2023-05-30T16:09:18.000Z</time>
      </trkpt>
      <trkpt lat="45.95987" lon="5.09563">
        <ele>309.79998779297</ele>
        <time>2023-05-30T16:09:27.000Z</time>
      </trkpt>
      <trkpt lat="45.95971" lon="5.09557">
        <ele>310.20001220703</ele>
        <time>2023-05-30T16:09:30.000Z</time>
      </trkpt>
      <trkpt lat="45.95955" lon="5.09549">
        <ele>310.60000610352</ele>
        <time>2023-05-30T16:09:33.000Z</time>
      </trkpt>
      <trkpt lat="45.95945" lon="5.09543">
        <ele>311.20001220703</ele>
        <time>2023-05-30T16:09:35.000Z</time>
      </trkpt>
      <trkpt lat="45.95913" lon="5.09521">
        <ele>312</ele>
        <time>2023-05-30T16:09:41.000Z</time>
      </trkpt>
      <trkpt lat="45.95865" lon="5.09484">
        <ele>312</ele>
        <time>2023-05-30T16:09:50.000Z</time>
      </trkpt>
      <trkpt lat="45.9584" lon="5.09463">
        <ele>312.20001220703</ele>
        <time>2023-05-30T16:09:55.000Z</time>
      </trkpt>
      <trkpt lat="45.95831" lon="5.09455">
        <ele>312.39999389648</ele>
        <time>2023-05-30T16:09:57.000Z</time>
      </trkpt>
      <trkpt lat="45.95804" lon="5.09431">
        <ele>313</ele>
        <time>2023-05-30T16:10:03.000Z</time>
      </trkpt>
      <trkpt lat="45.95799" lon="5.09426">
        <ele>313.39999389648</ele>
        <time>2023-05-30T16:10:04.000Z</time>
      </trkpt>
      <trkpt lat="45.95774" lon="5.09409">
        <ele>314.20001220703</ele>
        <time>2023-05-30T16:10:09.000Z</time>
      </trkpt>
      <trkpt lat="45.95747" lon="5.09395">
        <ele>314.39999389648</ele>
        <time>2023-05-30T16:10:14.000Z</time>
      </trkpt>
      <trkpt lat="45.95736" lon="5.0939">
        <ele>314.39999389648</ele>
        <time>2023-05-30T16:10:16.000Z</time>
      </trkpt>
      <trkpt lat="45.95701" lon="5.09371">
        <ele>315.20001220703</ele>
        <time>2023-05-30T16:10:23.000Z</time>
      </trkpt>
      <trkpt lat="45.95692" lon="5.09365">
        <ele>315.39999389648</ele>
        <time>2023-05-30T16:10:25.000Z</time>
      </trkpt>
      <trkpt lat="45.95674" lon="5.09355">
        <ele>316.60000610352</ele>
        <time>2023-05-30T16:10:29.000Z</time>
      </trkpt>
      <trkpt lat="45.95664" lon="5.09351">
        <ele>316.79998779297</ele>
        <time>2023-05-30T16:10:31.000Z</time>
      </trkpt>
      <trkpt lat="45.95649" lon="5.09343">
        <ele>317.60000610352</ele>
        <time>2023-05-30T16:10:34.000Z</time>
      </trkpt>
      <trkpt lat="45.95635" lon="5.09334">
        <ele>318</ele>
        <time>2023-05-30T16:10:37.000Z</time>
      </trkpt>
      <trkpt lat="45.95631" lon="5.09331">
        <ele>318.20001220703</ele>
        <time>2023-05-30T16:10:38.000Z</time>
      </trkpt>
      <trkpt lat="45.95617" lon="5.09324">
        <ele>318.79998779297</ele>
        <time>2023-05-30T16:10:41.000Z</time>
      </trkpt>
      <trkpt lat="45.95612" lon="5.09323">
        <ele>319.20001220703</ele>
        <time>2023-05-30T16:10:42.000Z</time>
      </trkpt>
      <trkpt lat="45.95602" lon="5.09323">
        <ele>319.79998779297</ele>
        <time>2023-05-30T16:10:44.000Z</time>
      </trkpt>
      <trkpt lat="45.95576" lon="5.09325">
        <ele>320.79998779297</ele>
        <time>2023-05-30T16:10:49.000Z</time>
      </trkpt>
      <trkpt lat="45.95566" lon="5.09325">
        <ele>321.20001220703</ele>
        <time>2023-05-30T16:10:51.000Z</time>
      </trkpt>
      <trkpt lat="45.95526" lon="5.09326">
        <ele>321.39999389648</ele>
        <time>2023-05-30T16:10:58.000Z</time>
      </trkpt>
      <trkpt lat="45.95477" lon="5.09327">
        <ele>321.20001220703</ele>
        <time>2023-05-30T16:11:06.000Z</time>
      </trkpt>
      <trkpt lat="45.95446" lon="5.09326">
        <ele>321</ele>
        <time>2023-05-30T16:11:11.000Z</time>
      </trkpt>
      <trkpt lat="45.9544" lon="5.09327">
        <ele>321</ele>
        <time>2023-05-30T16:11:12.000Z</time>
      </trkpt>
      <trkpt lat="45.95391" lon="5.09326">
        <ele>320.79998779297</ele>
        <time>2023-05-30T16:11:20.000Z</time>
      </trkpt>
      <trkpt lat="45.95349" lon="5.09321">
        <ele>320.60000610352</ele>
        <time>2023-05-30T16:11:27.000Z</time>
      </trkpt>
      <trkpt lat="45.95298" lon="5.09304">
        <ele>320</ele>
        <time>2023-05-30T16:11:35.000Z</time>
      </trkpt>
      <trkpt lat="45.95286" lon="5.09299">
        <ele>319.79998779297</ele>
        <time>2023-05-30T16:11:37.000Z</time>
      </trkpt>
      <trkpt lat="45.95259" lon="5.0929">
        <ele>319.39999389648</ele>
        <time>2023-05-30T16:11:41.000Z</time>
      </trkpt>
      <trkpt lat="45.9524" lon="5.09286">
        <ele>319.20001220703</ele>
        <time>2023-05-30T16:11:44.000Z</time>
      </trkpt>
      <trkpt lat="45.95227" lon="5.09286">
        <ele>319.20001220703</ele>
        <time>2023-05-30T16:11:46.000Z</time>
      </trkpt>
      <trkpt lat="45.95202" lon="5.09297">
        <ele>319.20001220703</ele>
        <time>2023-05-30T16:11:50.000Z</time>
      </trkpt>
      <trkpt lat="45.95151" lon="5.09337">
        <ele>319</ele>
        <time>2023-05-30T16:11:58.000Z</time>
      </trkpt>
      <trkpt lat="45.95146" lon="5.09341">
        <ele>319</ele>
        <time>2023-05-30T16:11:59.000Z</time>
      </trkpt>
      <trkpt lat="45.95122" lon="5.09359">
        <ele>318.60000610352</ele>
        <time>2023-05-30T16:12:03.000Z</time>
      </trkpt>
      <trkpt lat="45.95083" lon="5.0939">
        <ele>318.39999389648</ele>
        <time>2023-05-30T16:12:10.000Z</time>
      </trkpt>
      <trkpt lat="45.95045" lon="5.09428">
        <ele>318.79998779297</ele>
        <time>2023-05-30T16:12:17.000Z</time>
      </trkpt>
      <trkpt lat="45.95009" lon="5.0947">
        <ele>319.39999389648</ele>
        <time>2023-05-30T16:12:25.000Z</time>
      </trkpt>
      <trkpt lat="45.95004" lon="5.09476">
        <ele>319.39999389648</ele>
        <time>2023-05-30T16:12:26.000Z</time>
      </trkpt>
      <trkpt lat="45.94975" lon="5.09511">
        <ele>319.60000610352</ele>
        <time>2023-05-30T16:12:32.000Z</time>
      </trkpt>
      <trkpt lat="45.94947" lon="5.09543">
        <ele>318.60000610352</ele>
        <time>2023-05-30T16:12:37.000Z</time>
      </trkpt>
      <trkpt lat="45.94911" lon="5.09585">
        <ele>317.79998779297</ele>
        <time>2023-05-30T16:12:44.000Z</time>
      </trkpt>
      <trkpt lat="45.94895" lon="5.09604">
        <ele>317.20001220703</ele>
        <time>2023-05-30T16:12:47.000Z</time>
      </trkpt>
      <trkpt lat="45.94866" lon="5.09638">
        <ele>316.79998779297</ele>
        <time>2023-05-30T16:12:53.000Z</time>
      </trkpt>
      <trkpt lat="45.94845" lon="5.09662">
        <ele>316.60000610352</ele>
        <time>2023-05-30T16:12:57.000Z</time>
      </trkpt>
      <trkpt lat="45.948" lon="5.09716">
        <ele>316.20001220703</ele>
        <time>2023-05-30T16:13:06.000Z</time>
      </trkpt>
      <trkpt lat="45.94758" lon="5.09766">
        <ele>316.20001220703</ele>
        <time>2023-05-30T16:13:14.000Z</time>
      </trkpt>
      <trkpt lat="45.94748" lon="5.09777">
        <ele>316.20001220703</ele>
        <time>2023-05-30T16:13:16.000Z</time>
      </trkpt>
      <trkpt lat="45.94716" lon="5.09814">
        <ele>315.79998779297</ele>
        <time>2023-05-30T16:13:22.000Z</time>
      </trkpt>
      <trkpt lat="45.94711" lon="5.0982">
        <ele>315.79998779297</ele>
        <time>2023-05-30T16:13:23.000Z</time>
      </trkpt>
      <trkpt lat="45.94678" lon="5.09855">
        <ele>315.39999389648</ele>
        <time>2023-05-30T16:13:29.000Z</time>
      </trkpt>
      <trkpt lat="45.94666" lon="5.09864">
        <ele>315.39999389648</ele>
        <time>2023-05-30T16:13:31.000Z</time>
      </trkpt>
      <trkpt lat="45.94637" lon="5.09887">
        <ele>315.20001220703</ele>
        <time>2023-05-30T16:13:36.000Z</time>
      </trkpt>
      <trkpt lat="45.94606" lon="5.09906">
        <ele>314.79998779297</ele>
        <time>2023-05-30T16:13:41.000Z</time>
      </trkpt>
      <trkpt lat="45.94579" lon="5.09918">
        <ele>314.39999389648</ele>
        <time>2023-05-30T16:13:45.000Z</time>
      </trkpt>
      <trkpt lat="45.94562" lon="5.09924">
        <ele>314.39999389648</ele>
        <time>2023-05-30T16:13:48.000Z</time>
      </trkpt>
      <trkpt lat="45.94554" lon="5.09925">
        <ele>314.39999389648</ele>
        <time>2023-05-30T16:13:49.000Z</time>
      </trkpt>
      <trkpt lat="45.94539" lon="5.09929">
        <ele>314.39999389648</ele>
        <time>2023-05-30T16:13:51.000Z</time>
      </trkpt>
      <trkpt lat="45.94525" lon="5.09934">
        <ele>314.39999389648</ele>
        <time>2023-05-30T16:13:53.000Z</time>
      </trkpt>
      <trkpt lat="45.94513" lon="5.09938">
        <ele>314.39999389648</ele>
        <time>2023-05-30T16:13:55.000Z</time>
      </trkpt>
      <trkpt lat="45.94493" lon="5.09947">
        <ele>314.39999389648</ele>
        <time>2023-05-30T16:13:58.000Z</time>
      </trkpt>
      <trkpt lat="45.94489" lon="5.09951">
        <ele>314.39999389648</ele>
        <time>2023-05-30T16:13:59.000Z</time>
      </trkpt>
      <trkpt lat="45.94465" lon="5.09966">
        <ele>314.60000610352</ele>
        <time>2023-05-30T16:14:03.000Z</time>
      </trkpt>
      <trkpt lat="45.9442" lon="5.09995">
        <ele>315.39999389648</ele>
        <time>2023-05-30T16:14:11.000Z</time>
      </trkpt>
      <trkpt lat="45.94377" lon="5.10026">
        <ele>314.79998779297</ele>
        <time>2023-05-30T16:14:19.000Z</time>
      </trkpt>
      <trkpt lat="45.94337" lon="5.10058">
        <ele>314.60000610352</ele>
        <time>2023-05-30T16:14:27.000Z</time>
      </trkpt>
      <trkpt lat="45.94331" lon="5.10062">
        <ele>314.60000610352</ele>
        <time>2023-05-30T16:14:28.000Z</time>
      </trkpt>
      <trkpt lat="45.94308" lon="5.10072">
        <ele>314.79998779297</ele>
        <time>2023-05-30T16:14:32.000Z</time>
      </trkpt>
      <trkpt lat="45.94262" lon="5.10075">
        <ele>314.79998779297</ele>
        <time>2023-05-30T16:14:40.000Z</time>
      </trkpt>
      <trkpt lat="45.94244" lon="5.10075">
        <ele>315</ele>
        <time>2023-05-30T16:14:43.000Z</time>
      </trkpt>
      <trkpt lat="45.94227" lon="5.10075">
        <ele>315.20001220703</ele>
        <time>2023-05-30T16:14:46.000Z</time>
      </trkpt>
      <trkpt lat="45.9421" lon="5.10076">
        <ele>315.39999389648</ele>
        <time>2023-05-30T16:14:49.000Z</time>
      </trkpt>
      <trkpt lat="45.942" lon="5.10079">
        <ele>315.60000610352</ele>
        <time>2023-05-30T16:14:51.000Z</time>
      </trkpt>
      <trkpt lat="45.94188" lon="5.10083">
        <ele>315.79998779297</ele>
        <time>2023-05-30T16:14:53.000Z</time>
      </trkpt>
      <trkpt lat="45.94159" lon="5.10095">
        <ele>316</ele>
        <time>2023-05-30T16:14:58.000Z</time>
      </trkpt>
      <trkpt lat="45.94108" lon="5.10115">
        <ele>315.60000610352</ele>
        <time>2023-05-30T16:15:06.000Z</time>
      </trkpt>
      <trkpt lat="45.94089" lon="5.10122">
        <ele>314.60000610352</ele>
        <time>2023-05-30T16:15:09.000Z</time>
      </trkpt>
      <trkpt lat="45.94056" lon="5.10134">
        <ele>313.60000610352</ele>
        <time>2023-05-30T16:15:14.000Z</time>
      </trkpt>
      <trkpt lat="45.94049" lon="5.10136">
        <ele>313.60000610352</ele>
        <time>2023-05-30T16:15:15.000Z</time>
      </trkpt>
      <trkpt lat="45.93998" lon="5.10157">
        <ele>313</ele>
        <time>2023-05-30T16:15:23.000Z</time>
      </trkpt>
      <trkpt lat="45.93975" lon="5.10169">
        <ele>312.60000610352</ele>
        <time>2023-05-30T16:15:27.000Z</time>
      </trkpt>
      <trkpt lat="45.93953" lon="5.10187">
        <ele>312.39999389648</ele>
        <time>2023-05-30T16:15:31.000Z</time>
      </trkpt>
      <trkpt lat="45.93948" lon="5.10192">
        <ele>312.39999389648</ele>
        <time>2023-05-30T16:15:32.000Z</time>
      </trkpt>
      <trkpt lat="45.9394" lon="5.10204">
        <ele>312.39999389648</ele>
        <time>2023-05-30T16:15:34.000Z</time>
      </trkpt>
      <trkpt lat="45.93935" lon="5.10209">
        <ele>312.39999389648</ele>
        <time>2023-05-30T16:15:35.000Z</time>
      </trkpt>
      <trkpt lat="45.93925" lon="5.1022">
        <ele>312.39999389648</ele>
        <time>2023-05-30T16:15:37.000Z</time>
      </trkpt>
      <trkpt lat="45.93916" lon="5.10235">
        <ele>312.60000610352</ele>
        <time>2023-05-30T16:15:39.000Z</time>
      </trkpt>
      <trkpt lat="45.93912" lon="5.1024">
        <ele>312.60000610352</ele>
        <time>2023-05-30T16:15:40.000Z</time>
      </trkpt>
      <trkpt lat="45.93907" lon="5.10246">
        <ele>312.60000610352</ele>
        <time>2023-05-30T16:15:41.000Z</time>
      </trkpt>
      <trkpt lat="45.93886" lon="5.10267">
        <ele>312.79998779297</ele>
        <time>2023-05-30T16:15:45.000Z</time>
      </trkpt>
      <trkpt lat="45.9385" lon="5.10305">
        <ele>313.20001220703</ele>
        <time>2023-05-30T16:15:52.000Z</time>
      </trkpt>
      <trkpt lat="45.93808" lon="5.10354">
        <ele>313.39999389648</ele>
        <time>2023-05-30T16:16:01.000Z</time>
      </trkpt>
      <trkpt lat="45.93798" lon="5.10364">
        <ele>313.60000610352</ele>
        <time>2023-05-30T16:16:03.000Z</time>
      </trkpt>
      <trkpt lat="45.93794" lon="5.1037">
        <ele>313.60000610352</ele>
        <time>2023-05-30T16:16:04.000Z</time>
      </trkpt>
      <trkpt lat="45.9376" lon="5.10407">
        <ele>313.79998779297</ele>
        <time>2023-05-30T16:16:11.000Z</time>
      </trkpt>
      <trkpt lat="45.9372" lon="5.10452">
        <ele>314.60000610352</ele>
        <time>2023-05-30T16:16:20.000Z</time>
      </trkpt>
      <trkpt lat="45.93693" lon="5.10483">
        <ele>315.60000610352</ele>
        <time>2023-05-30T16:16:27.000Z</time>
      </trkpt>
      <trkpt lat="45.93689" lon="5.10488">
        <ele>316</ele>
        <time>2023-05-30T16:16:28.000Z</time>
      </trkpt>
      <trkpt lat="45.93676" lon="5.10501">
        <ele>316.79998779297</ele>
        <time>2023-05-30T16:16:31.000Z</time>
      </trkpt>
      <trkpt lat="45.93654" lon="5.10525">
        <ele>318</ele>
        <time>2023-05-30T16:16:37.000Z</time>
      </trkpt>
      <trkpt lat="45.93625" lon="5.10557">
        <ele>319.20001220703</ele>
        <time>2023-05-30T16:16:45.000Z</time>
      </trkpt>
      <trkpt lat="45.93617" lon="5.10566">
        <ele>319.60000610352</ele>
        <time>2023-05-30T16:16:47.000Z</time>
      </trkpt>
      <trkpt lat="45.93594" lon="5.10592">
        <ele>320.39999389648</ele>
        <time>2023-05-30T16:16:54.000Z</time>
      </trkpt>
      <trkpt lat="45.93591" lon="5.10596">
        <ele>320.60000610352</ele>
        <time>2023-05-30T16:16:55.000Z</time>
      </trkpt>
      <trkpt lat="45.93573" lon="5.1062">
        <ele>321.60000610352</ele>
        <time>2023-05-30T16:17:00.000Z</time>
      </trkpt>
      <trkpt lat="45.93571" lon="5.10625">
        <ele>321.79998779297</ele>
        <time>2023-05-30T16:17:01.000Z</time>
      </trkpt>
      <trkpt lat="45.93557" lon="5.10658">
        <ele>322.39999389648</ele>
        <time>2023-05-30T16:17:07.000Z</time>
      </trkpt>
      <trkpt lat="45.93553" lon="5.1067">
        <ele>322.39999389648</ele>
        <time>2023-05-30T16:17:09.000Z</time>
      </trkpt>
      <trkpt lat="45.93548" lon="5.10681">
        <ele>322.39999389648</ele>
        <time>2023-05-30T16:17:11.000Z</time>
      </trkpt>
      <trkpt lat="45.93538" lon="5.107">
        <ele>322.20001220703</ele>
        <time>2023-05-30T16:17:14.000Z</time>
      </trkpt>
      <trkpt lat="45.93523" lon="5.10754">
        <ele>321.60000610352</ele>
        <time>2023-05-30T16:17:21.000Z</time>
      </trkpt>
      <trkpt lat="45.93509" lon="5.10811">
        <ele>320.79998779297</ele>
        <time>2023-05-30T16:17:28.000Z</time>
      </trkpt>
      <trkpt lat="45.93503" lon="5.10837">
        <ele>320.60000610352</ele>
        <time>2023-05-30T16:17:31.000Z</time>
      </trkpt>
      <trkpt lat="45.93495" lon="5.10876">
        <ele>320</ele>
        <time>2023-05-30T16:17:35.000Z</time>
      </trkpt>
      <trkpt lat="45.9349" lon="5.10895">
        <ele>319.39999389648</ele>
        <time>2023-05-30T16:17:37.000Z</time>
      </trkpt>
      <trkpt lat="45.93483" lon="5.10932">
        <ele>318.79998779297</ele>
        <time>2023-05-30T16:17:41.000Z</time>
      </trkpt>
      <trkpt lat="45.93481" lon="5.10942">
        <ele>318.39999389648</ele>
        <time>2023-05-30T16:17:42.000Z</time>
      </trkpt>
      <trkpt lat="45.93468" lon="5.11003">
        <ele>317.79998779297</ele>
        <time>2023-05-30T16:17:48.000Z</time>
      </trkpt>
      <trkpt lat="45.93454" lon="5.11071">
        <ele>317.39999389648</ele>
        <time>2023-05-30T16:17:55.000Z</time>
      </trkpt>
      <trkpt lat="45.9345" lon="5.1109">
        <ele>317.20001220703</ele>
        <time>2023-05-30T16:17:57.000Z</time>
      </trkpt>
      <trkpt lat="45.93429" lon="5.11159">
        <ele>316.79998779297</ele>
        <time>2023-05-30T16:18:05.000Z</time>
      </trkpt>
      <trkpt lat="45.93405" lon="5.11217">
        <ele>316.60000610352</ele>
        <time>2023-05-30T16:18:12.000Z</time>
      </trkpt>
      <trkpt lat="45.93379" lon="5.11272">
        <ele>316.60000610352</ele>
        <time>2023-05-30T16:18:19.000Z</time>
      </trkpt>
      <trkpt lat="45.93347" lon="5.11336">
        <ele>317.20001220703</ele>
        <time>2023-05-30T16:18:28.000Z</time>
      </trkpt>
      <trkpt lat="45.93319" lon="5.11392">
        <ele>318</ele>
        <time>2023-05-30T16:18:36.000Z</time>
      </trkpt>
      <trkpt lat="45.93295" lon="5.11441">
        <ele>318.39999389648</ele>
        <time>2023-05-30T16:18:43.000Z</time>
      </trkpt>
      <trkpt lat="45.93292" lon="5.11447">
        <ele>318.60000610352</ele>
        <time>2023-05-30T16:18:44.000Z</time>
      </trkpt>
      <trkpt lat="45.93274" lon="5.1149">
        <ele>319.20001220703</ele>
        <time>2023-05-30T16:18:50.000Z</time>
      </trkpt>
      <trkpt lat="45.93265" lon="5.11511">
        <ele>319.60000610352</ele>
        <time>2023-05-30T16:18:53.000Z</time>
      </trkpt>
      <trkpt lat="45.93248" lon="5.11554">
        <ele>319.79998779297</ele>
        <time>2023-05-30T16:18:59.000Z</time>
      </trkpt>
      <trkpt lat="45.93227" lon="5.1161">
        <ele>319.20001220703</ele>
        <time>2023-05-30T16:19:06.000Z</time>
      </trkpt>
      <trkpt lat="45.93209" lon="5.11654">
        <ele>318.39999389648</ele>
        <time>2023-05-30T16:19:11.000Z</time>
      </trkpt>
      <trkpt lat="45.93204" lon="5.11666">
        <ele>318.39999389648</ele>
        <time>2023-05-30T16:19:12.000Z</time>
      </trkpt>
      <trkpt lat="45.93189" lon="5.11704">
        <ele>317.39999389648</ele>
        <time>2023-05-30T16:19:16.000Z</time>
      </trkpt>
      <trkpt lat="45.93178" lon="5.11733">
        <ele>316.60000610352</ele>
        <time>2023-05-30T16:19:19.000Z</time>
      </trkpt>
      <trkpt lat="45.9317" lon="5.11752">
        <ele>316.20001220703</ele>
        <time>2023-05-30T16:19:21.000Z</time>
      </trkpt>
      <trkpt lat="45.93154" lon="5.118">
        <ele>315</ele>
        <time>2023-05-30T16:19:26.000Z</time>
      </trkpt>
      <trkpt lat="45.93151" lon="5.11809">
        <ele>314.79998779297</ele>
        <time>2023-05-30T16:19:27.000Z</time>
      </trkpt>
      <trkpt lat="45.93147" lon="5.11826">
        <ele>314.39999389648</ele>
        <time>2023-05-30T16:19:29.000Z</time>
      </trkpt>
      <trkpt lat="45.93143" lon="5.11837">
        <ele>314</ele>
        <time>2023-05-30T16:19:30.000Z</time>
      </trkpt>
      <trkpt lat="45.93137" lon="5.11855">
        <ele>313.79998779297</ele>
        <time>2023-05-30T16:19:32.000Z</time>
      </trkpt>
      <trkpt lat="45.93134" lon="5.11864">
        <ele>313.79998779297</ele>
        <time>2023-05-30T16:19:33.000Z</time>
      </trkpt>
      <trkpt lat="45.93127" lon="5.11881">
        <ele>313.39999389648</ele>
        <time>2023-05-30T16:19:35.000Z</time>
      </trkpt>
      <trkpt lat="45.93118" lon="5.11898">
        <ele>313.20001220703</ele>
        <time>2023-05-30T16:19:37.000Z</time>
      </trkpt>
      <trkpt lat="45.93114" lon="5.11904">
        <ele>313.20001220703</ele>
        <time>2023-05-30T16:19:38.000Z</time>
      </trkpt>
      <trkpt lat="45.93096" lon="5.11923">
        <ele>312.79998779297</ele>
        <time>2023-05-30T16:19:41.000Z</time>
      </trkpt>
      <trkpt lat="45.93084" lon="5.11931">
        <ele>312.60000610352</ele>
        <time>2023-05-30T16:19:43.000Z</time>
      </trkpt>
      <trkpt lat="45.93065" lon="5.11944">
        <ele>312.39999389648</ele>
        <time>2023-05-30T16:19:46.000Z</time>
      </trkpt>
      <trkpt lat="45.93055" lon="5.11955">
        <ele>312.39999389648</ele>
        <time>2023-05-30T16:19:48.000Z</time>
      </trkpt>
      <trkpt lat="45.93047" lon="5.11972">
        <ele>312.39999389648</ele>
        <time>2023-05-30T16:19:50.000Z</time>
      </trkpt>
      <trkpt lat="45.93043" lon="5.12007">
        <ele>312.20001220703</ele>
        <time>2023-05-30T16:19:54.000Z</time>
      </trkpt>
      <trkpt lat="45.93038" lon="5.12057">
        <ele>312</ele>
        <time>2023-05-30T16:20:00.000Z</time>
      </trkpt>
      <trkpt lat="45.93035" lon="5.12074">
        <ele>312.20001220703</ele>
        <time>2023-05-30T16:20:02.000Z</time>
      </trkpt>
      <trkpt lat="45.93028" lon="5.12091">
        <ele>312.60000610352</ele>
        <time>2023-05-30T16:20:04.000Z</time>
      </trkpt>
      <trkpt lat="45.9302" lon="5.12105">
        <ele>312.79998779297</ele>
        <time>2023-05-30T16:20:06.000Z</time>
      </trkpt>
      <trkpt lat="45.93004" lon="5.12123">
        <ele>313</ele>
        <time>2023-05-30T16:20:09.000Z</time>
      </trkpt>
      <trkpt lat="45.92986" lon="5.12142">
        <ele>313.39999389648</ele>
        <time>2023-05-30T16:20:13.000Z</time>
      </trkpt>
      <trkpt lat="45.92977" lon="5.12148">
        <ele>313.60000610352</ele>
        <time>2023-05-30T16:20:15.000Z</time>
      </trkpt>
      <trkpt lat="45.92954" lon="5.1217">
        <ele>314</ele>
        <time>2023-05-30T16:20:20.000Z</time>
      </trkpt>
      <trkpt lat="45.9295" lon="5.12175">
        <ele>314</ele>
        <time>2023-05-30T16:20:21.000Z</time>
      </trkpt>
      <trkpt lat="45.92926" lon="5.12205">
        <ele>314.39999389648</ele>
        <time>2023-05-30T16:20:26.000Z</time>
      </trkpt>
      <trkpt lat="45.92909" lon="5.1223">
        <ele>314.39999389648</ele>
        <time>2023-05-30T16:20:30.000Z</time>
      </trkpt>
      <trkpt lat="45.92898" lon="5.12253">
        <ele>314.60000610352</ele>
        <time>2023-05-30T16:20:33.000Z</time>
      </trkpt>
      <trkpt lat="45.9289" lon="5.12264">
        <ele>314.79998779297</ele>
        <time>2023-05-30T16:20:35.000Z</time>
      </trkpt>
      <trkpt lat="45.92884" lon="5.12271">
        <ele>314.79998779297</ele>
        <time>2023-05-30T16:20:36.000Z</time>
      </trkpt>
      <trkpt lat="45.92879" lon="5.12275">
        <ele>314.60000610352</ele>
        <time>2023-05-30T16:20:37.000Z</time>
      </trkpt>
      <trkpt lat="45.92868" lon="5.12277">
        <ele>314.60000610352</ele>
        <time>2023-05-30T16:20:39.000Z</time>
      </trkpt>
      <trkpt lat="45.92861" lon="5.12279">
        <ele>314.79998779297</ele>
        <time>2023-05-30T16:20:40.000Z</time>
      </trkpt>
      <trkpt lat="45.92839" lon="5.12287">
        <ele>315.20001220703</ele>
        <time>2023-05-30T16:20:44.000Z</time>
      </trkpt>
      <trkpt lat="45.92827" lon="5.12291">
        <ele>315.39999389648</ele>
        <time>2023-05-30T16:20:46.000Z</time>
      </trkpt>
      <trkpt lat="45.9281" lon="5.12299">
        <ele>316.39999389648</ele>
        <time>2023-05-30T16:20:50.000Z</time>
      </trkpt>
      <trkpt lat="45.92792" lon="5.12306">
        <ele>317.20001220703</ele>
        <time>2023-05-30T16:20:54.000Z</time>
      </trkpt>
      <trkpt lat="45.92786" lon="5.12308">
        <ele>317.39999389648</ele>
        <time>2023-05-30T16:20:55.000Z</time>
      </trkpt>
      <trkpt lat="45.92757" lon="5.12318">
        <ele>317.79998779297</ele>
        <time>2023-05-30T16:21:01.000Z</time>
      </trkpt>
      <trkpt lat="45.92752" lon="5.1232">
        <ele>318</ele>
        <time>2023-05-30T16:21:02.000Z</time>
      </trkpt>
      <trkpt lat="45.92697" lon="5.12342">
        <ele>318.39999389648</ele>
        <time>2023-05-30T16:21:13.000Z</time>
      </trkpt>
      <trkpt lat="45.92662" lon="5.12359">
        <ele>319</ele>
        <time>2023-05-30T16:21:20.000Z</time>
      </trkpt>
      <trkpt lat="45.92642" lon="5.12368">
        <ele>319.60000610352</ele>
        <time>2023-05-30T16:21:24.000Z</time>
      </trkpt>
      <trkpt lat="45.92602" lon="5.12389">
        <ele>320.20001220703</ele>
        <time>2023-05-30T16:21:32.000Z</time>
      </trkpt>
      <trkpt lat="45.9259" lon="5.12399">
        <ele>320.79998779297</ele>
        <time>2023-05-30T16:21:35.000Z</time>
      </trkpt>
      <trkpt lat="45.92569" lon="5.12422">
        <ele>321.79998779297</ele>
        <time>2023-05-30T16:21:40.000Z</time>
      </trkpt>
      <trkpt lat="45.92541" lon="5.12447">
        <ele>322.20001220703</ele>
        <time>2023-05-30T16:21:46.000Z</time>
      </trkpt>
      <trkpt lat="45.92509" lon="5.12474">
        <ele>321.79998779297</ele>
        <time>2023-05-30T16:21:53.000Z</time>
      </trkpt>
      <trkpt lat="45.92472" lon="5.12507">
        <ele>321</ele>
        <time>2023-05-30T16:22:00.000Z</time>
      </trkpt>
      <trkpt lat="45.92467" lon="5.12511">
        <ele>320.79998779297</ele>
        <time>2023-05-30T16:22:01.000Z</time>
      </trkpt>
      <trkpt lat="45.92434" lon="5.1254">
        <ele>320.60000610352</ele>
        <time>2023-05-30T16:22:08.000Z</time>
      </trkpt>
      <trkpt lat="45.92413" lon="5.12558">
        <ele>320.20001220703</ele>
        <time>2023-05-30T16:22:12.000Z</time>
      </trkpt>
      <trkpt lat="45.92409" lon="5.12561">
        <ele>320.20001220703</ele>
        <time>2023-05-30T16:22:13.000Z</time>
      </trkpt>
      <trkpt lat="45.92373" lon="5.12592">
        <ele>319.79998779297</ele>
        <time>2023-05-30T16:22:20.000Z</time>
      </trkpt>
      <trkpt lat="45.92368" lon="5.12597">
        <ele>319.79998779297</ele>
        <time>2023-05-30T16:22:21.000Z</time>
      </trkpt>
      <trkpt lat="45.92363" lon="5.12601">
        <ele>319.79998779297</ele>
        <time>2023-05-30T16:22:22.000Z</time>
      </trkpt>
      <trkpt lat="45.92351" lon="5.12604">
        <ele>319.79998779297</ele>
        <time>2023-05-30T16:22:24.000Z</time>
      </trkpt>
      <trkpt lat="45.92345" lon="5.12603">
        <ele>319.79998779297</ele>
        <time>2023-05-30T16:22:25.000Z</time>
      </trkpt>
      <trkpt lat="45.92342" lon="5.12602">
        <ele>320</ele>
        <time>2023-05-30T16:22:26.000Z</time>
      </trkpt>
      <trkpt lat="45.92335" lon="5.12599">
        <ele>320</ele>
        <time>2023-05-30T16:22:28.000Z</time>
      </trkpt>
      <trkpt lat="45.92333" lon="5.12599">
        <ele>320.39999389648</ele>
        <time>2023-05-30T16:22:31.000Z</time>
      </trkpt>
      <trkpt lat="45.9233" lon="5.12598">
        <ele>320.60000610352</ele>
        <time>2023-05-30T16:22:33.000Z</time>
      </trkpt>
      <trkpt lat="45.92326" lon="5.12601">
        <ele>320.60000610352</ele>
        <time>2023-05-30T16:22:35.000Z</time>
      </trkpt>
      <trkpt lat="45.9231" lon="5.12613">
        <ele>320.79998779297</ele>
        <time>2023-05-30T16:22:40.000Z</time>
      </trkpt>
      <trkpt lat="45.92293" lon="5.12624">
        <ele>321</ele>
        <time>2023-05-30T16:22:44.000Z</time>
      </trkpt>
      <trkpt lat="45.92286" lon="5.1263">
        <ele>321</ele>
        <time>2023-05-30T16:22:46.000Z</time>
      </trkpt>
      <trkpt lat="45.9228" lon="5.12634">
        <ele>320.79998779297</ele>
        <time>2023-05-30T16:22:47.000Z</time>
      </trkpt>
      <trkpt lat="45.92262" lon="5.12645">
        <ele>320.60000610352</ele>
        <time>2023-05-30T16:22:51.000Z</time>
      </trkpt>
      <trkpt lat="45.9224" lon="5.12659">
        <ele>320.79998779297</ele>
        <time>2023-05-30T16:22:55.000Z</time>
      </trkpt>
      <trkpt lat="45.92231" lon="5.12671">
        <ele>320.60000610352</ele>
        <time>2023-05-30T16:22:57.000Z</time>
      </trkpt>
      <trkpt lat="45.92228" lon="5.12683">
        <ele>320.39999389648</ele>
        <time>2023-05-30T16:22:59.000Z</time>
      </trkpt>
      <trkpt lat="45.92224" lon="5.12696">
        <ele>320.20001220703</ele>
        <time>2023-05-30T16:23:01.000Z</time>
      </trkpt>
      <trkpt lat="45.92216" lon="5.12704">
        <ele>320.20001220703</ele>
        <time>2023-05-30T16:23:03.000Z</time>
      </trkpt>
      <trkpt lat="45.92212" lon="5.12706">
        <ele>320.20001220703</ele>
        <time>2023-05-30T16:23:04.000Z</time>
      </trkpt>
      <trkpt lat="45.92172" lon="5.12717">
        <ele>320</ele>
        <time>2023-05-30T16:23:11.000Z</time>
      </trkpt>
      <trkpt lat="45.92166" lon="5.12719">
        <ele>319.79998779297</ele>
        <time>2023-05-30T16:23:12.000Z</time>
      </trkpt>
      <trkpt lat="45.92116" lon="5.12738">
        <ele>319.79998779297</ele>
        <time>2023-05-30T16:23:21.000Z</time>
      </trkpt>
      <trkpt lat="45.92103" lon="5.12746">
        <ele>319.60000610352</ele>
        <time>2023-05-30T16:23:25.000Z</time>
      </trkpt>
      <trkpt lat="45.92097" lon="5.12743">
        <ele>319</ele>
        <time>2023-05-30T16:23:27.000Z</time>
      </trkpt>
      <trkpt lat="45.92089" lon="5.12733">
        <ele>318.60000610352</ele>
        <time>2023-05-30T16:23:29.000Z</time>
      </trkpt>
      <trkpt lat="45.92068" lon="5.12708">
        <ele>318.20001220703</ele>
        <time>2023-05-30T16:23:33.000Z</time>
      </trkpt>
      <trkpt lat="45.92049" lon="5.12686">
        <ele>317.20001220703</ele>
        <time>2023-05-30T16:23:36.000Z</time>
      </trkpt>
      <trkpt lat="45.92031" lon="5.12665">
        <ele>316.39999389648</ele>
        <time>2023-05-30T16:23:39.000Z</time>
      </trkpt>
      <trkpt lat="45.92026" lon="5.12659">
        <ele>316.20001220703</ele>
        <time>2023-05-30T16:23:40.000Z</time>
      </trkpt>
      <trkpt lat="45.91998" lon="5.12628">
        <ele>314.60000610352</ele>
        <time>2023-05-30T16:23:44.000Z</time>
      </trkpt>
      <trkpt lat="45.91982" lon="5.12611">
        <ele>313.20001220703</ele>
        <time>2023-05-30T16:23:46.000Z</time>
      </trkpt>
      <trkpt lat="45.91969" lon="5.12598">
        <ele>312.60000610352</ele>
        <time>2023-05-30T16:23:48.000Z</time>
      </trkpt>
      <trkpt lat="45.91949" lon="5.1259">
        <ele>311.79998779297</ele>
        <time>2023-05-30T16:23:50.000Z</time>
      </trkpt>
      <trkpt lat="45.91911" lon="5.12582">
        <ele>310.60000610352</ele>
        <time>2023-05-30T16:23:54.000Z</time>
      </trkpt>
      <trkpt lat="45.91902" lon="5.12579">
        <ele>310</ele>
        <time>2023-05-30T16:23:55.000Z</time>
      </trkpt>
      <trkpt lat="45.91886" lon="5.12573">
        <ele>309.60000610352</ele>
        <time>2023-05-30T16:23:57.000Z</time>
      </trkpt>
      <trkpt lat="45.91845" lon="5.12559">
        <ele>308.79998779297</ele>
        <time>2023-05-30T16:24:02.000Z</time>
      </trkpt>
      <trkpt lat="45.91828" lon="5.12554">
        <ele>308.39999389648</ele>
        <time>2023-05-30T16:24:04.000Z</time>
      </trkpt>
      <trkpt lat="45.91782" lon="5.12538">
        <ele>307.79998779297</ele>
        <time>2023-05-30T16:24:10.000Z</time>
      </trkpt>
      <trkpt lat="45.91769" lon="5.12533">
        <ele>307.39999389648</ele>
        <time>2023-05-30T16:24:12.000Z</time>
      </trkpt>
      <trkpt lat="45.91712" lon="5.12513">
        <ele>306.79998779297</ele>
        <time>2023-05-30T16:24:20.000Z</time>
      </trkpt>
      <trkpt lat="45.91671" lon="5.12504">
        <ele>306.39999389648</ele>
        <time>2023-05-30T16:24:26.000Z</time>
      </trkpt>
      <trkpt lat="45.91663" lon="5.12504">
        <ele>306.39999389648</ele>
        <time>2023-05-30T16:24:27.000Z</time>
      </trkpt>
      <trkpt lat="45.9162" lon="5.12512">
        <ele>306</ele>
        <time>2023-05-30T16:24:33.000Z</time>
      </trkpt>
      <trkpt lat="45.91574" lon="5.12528">
        <ele>305.79998779297</ele>
        <time>2023-05-30T16:24:40.000Z</time>
      </trkpt>
      <trkpt lat="45.91525" lon="5.1256">
        <ele>305.60000610352</ele>
        <time>2023-05-30T16:24:48.000Z</time>
      </trkpt>
      <trkpt lat="45.91519" lon="5.12565">
        <ele>305.39999389648</ele>
        <time>2023-05-30T16:24:49.000Z</time>
      </trkpt>
      <trkpt lat="45.91512" lon="5.1257">
        <ele>305.39999389648</ele>
        <time>2023-05-30T16:24:50.000Z</time>
      </trkpt>
      <trkpt lat="45.91494" lon="5.12579">
        <ele>305.39999389648</ele>
        <time>2023-05-30T16:24:53.000Z</time>
      </trkpt>
      <trkpt lat="45.91487" lon="5.1258">
        <ele>305.39999389648</ele>
        <time>2023-05-30T16:24:54.000Z</time>
      </trkpt>
      <trkpt lat="45.91478" lon="5.12581">
        <ele>305.39999389648</ele>
        <time>2023-05-30T16:24:55.000Z</time>
      </trkpt>
      <trkpt lat="45.91465" lon="5.12577">
        <ele>305.20001220703</ele>
        <time>2023-05-30T16:24:57.000Z</time>
      </trkpt>
      <trkpt lat="45.9146" lon="5.12575">
        <ele>305.20001220703</ele>
        <time>2023-05-30T16:24:58.000Z</time>
      </trkpt>
      <trkpt lat="45.91427" lon="5.12562">
        <ele>305.20001220703</ele>
        <time>2023-05-30T16:25:03.000Z</time>
      </trkpt>
      <trkpt lat="45.9142" lon="5.12561">
        <ele>305.20001220703</ele>
        <time>2023-05-30T16:25:04.000Z</time>
      </trkpt>
      <trkpt lat="45.91412" lon="5.12561">
        <ele>305.20001220703</ele>
        <time>2023-05-30T16:25:05.000Z</time>
      </trkpt>
      <trkpt lat="45.91384" lon="5.12566">
        <ele>305.20001220703</ele>
        <time>2023-05-30T16:25:09.000Z</time>
      </trkpt>
      <trkpt lat="45.91325" lon="5.12576">
        <ele>305</ele>
        <time>2023-05-30T16:25:18.000Z</time>
      </trkpt>
      <trkpt lat="45.91317" lon="5.12576">
        <ele>305</ele>
        <time>2023-05-30T16:25:19.000Z</time>
      </trkpt>
      <trkpt lat="45.91274" lon="5.12576">
        <ele>304.79998779297</ele>
        <time>2023-05-30T16:25:26.000Z</time>
      </trkpt>
      <trkpt lat="45.91232" lon="5.12576">
        <ele>304.60000610352</ele>
        <time>2023-05-30T16:25:33.000Z</time>
      </trkpt>
      <trkpt lat="45.91192" lon="5.12575">
        <ele>305.39999389648</ele>
        <time>2023-05-30T16:25:40.000Z</time>
      </trkpt>
      <trkpt lat="45.91143" lon="5.12575">
        <ele>305.39999389648</ele>
        <time>2023-05-30T16:25:48.000Z</time>
      </trkpt>
      <trkpt lat="45.91085" lon="5.12574">
        <ele>305.39999389648</ele>
        <time>2023-05-30T16:25:58.000Z</time>
      </trkpt>
      <trkpt lat="45.91073" lon="5.12574">
        <ele>305.39999389648</ele>
        <time>2023-05-30T16:26:00.000Z</time>
      </trkpt>
      <trkpt lat="45.91029" lon="5.12571">
        <ele>305.60000610352</ele>
        <time>2023-05-30T16:26:07.000Z</time>
      </trkpt>
      <trkpt lat="45.9097" lon="5.12563">
        <ele>305.79998779297</ele>
        <time>2023-05-30T16:26:15.000Z</time>
      </trkpt>
      <trkpt lat="45.90913" lon="5.12557">
        <ele>305.79998779297</ele>
        <time>2023-05-30T16:26:25.000Z</time>
      </trkpt>
      <trkpt lat="45.90907" lon="5.12557">
        <ele>306</ele>
        <time>2023-05-30T16:26:26.000Z</time>
      </trkpt>
      <trkpt lat="45.90849" lon="5.1256">
        <ele>306.39999389648</ele>
        <time>2023-05-30T16:26:36.000Z</time>
      </trkpt>
      <trkpt lat="45.90804" lon="5.12564">
        <ele>305.79998779297</ele>
        <time>2023-05-30T16:26:43.000Z</time>
      </trkpt>
      <trkpt lat="45.90758" lon="5.12567">
        <ele>305</ele>
        <time>2023-05-30T16:26:50.000Z</time>
      </trkpt>
      <trkpt lat="45.9073" lon="5.12569">
        <ele>304.79998779297</ele>
        <time>2023-05-30T16:26:54.000Z</time>
      </trkpt>
      <trkpt lat="45.90695" lon="5.12569">
        <ele>304.39999389648</ele>
        <time>2023-05-30T16:26:59.000Z</time>
      </trkpt>
      <trkpt lat="45.90642" lon="5.12563">
        <ele>304.39999389648</ele>
        <time>2023-05-30T16:27:07.000Z</time>
      </trkpt>
      <trkpt lat="45.90583" lon="5.12559">
        <ele>304.60000610352</ele>
        <time>2023-05-30T16:27:16.000Z</time>
      </trkpt>
      <trkpt lat="45.90577" lon="5.12558">
        <ele>304.60000610352</ele>
        <time>2023-05-30T16:27:17.000Z</time>
      </trkpt>
      <trkpt lat="45.90521" lon="5.12557">
        <ele>305</ele>
        <time>2023-05-30T16:27:26.000Z</time>
      </trkpt>
      <trkpt lat="45.90508" lon="5.12556">
        <ele>305</ele>
        <time>2023-05-30T16:27:28.000Z</time>
      </trkpt>
      <trkpt lat="45.90461" lon="5.12546">
        <ele>305.20001220703</ele>
        <time>2023-05-30T16:27:35.000Z</time>
      </trkpt>
      <trkpt lat="45.90443" lon="5.12541">
        <ele>305</ele>
        <time>2023-05-30T16:27:38.000Z</time>
      </trkpt>
      <trkpt lat="45.9042" lon="5.12536">
        <ele>304.79998779297</ele>
        <time>2023-05-30T16:27:42.000Z</time>
      </trkpt>
      <trkpt lat="45.90363" lon="5.12522">
        <ele>304.60000610352</ele>
        <time>2023-05-30T16:27:52.000Z</time>
      </trkpt>
      <trkpt lat="45.90351" lon="5.1252">
        <ele>304.60000610352</ele>
        <time>2023-05-30T16:27:54.000Z</time>
      </trkpt>
      <trkpt lat="45.9031" lon="5.1251">
        <ele>304.60000610352</ele>
        <time>2023-05-30T16:28:01.000Z</time>
      </trkpt>
      <trkpt lat="45.90289" lon="5.12505">
        <ele>304.79998779297</ele>
        <time>2023-05-30T16:28:05.000Z</time>
      </trkpt>
      <trkpt lat="45.9028" lon="5.12501">
        <ele>305</ele>
        <time>2023-05-30T16:28:07.000Z</time>
      </trkpt>
      <trkpt lat="45.90275" lon="5.125">
        <ele>305.20001220703</ele>
        <time>2023-05-30T16:28:08.000Z</time>
      </trkpt>
      <trkpt lat="45.90264" lon="5.125">
        <ele>305.39999389648</ele>
        <time>2023-05-30T16:28:10.000Z</time>
      </trkpt>
      <trkpt lat="45.9026" lon="5.12501">
        <ele>305.60000610352</ele>
        <time>2023-05-30T16:28:11.000Z</time>
      </trkpt>
      <trkpt lat="45.90256" lon="5.12505">
        <ele>305.79998779297</ele>
        <time>2023-05-30T16:28:12.000Z</time>
      </trkpt>
      <trkpt lat="45.90253" lon="5.12511">
        <ele>306</ele>
        <time>2023-05-30T16:28:13.000Z</time>
      </trkpt>
      <trkpt lat="45.90252" lon="5.12517">
        <ele>306.20001220703</ele>
        <time>2023-05-30T16:28:14.000Z</time>
      </trkpt>
      <trkpt lat="45.90252" lon="5.12517">
        <ele>306.79998779297</ele>
        <time>2023-05-30T16:28:15.000Z</time>
      </trkpt>
      <trkpt lat="45.90253" lon="5.12531">
        <ele>307</ele>
        <time>2023-05-30T16:28:16.000Z</time>
      </trkpt>
      <trkpt lat="45.90256" lon="5.1256">
        <ele>307.20001220703</ele>
        <time>2023-05-30T16:28:20.000Z</time>
      </trkpt>
      <trkpt lat="45.90256" lon="5.12568">
        <ele>307.20001220703</ele>
        <time>2023-05-30T16:28:21.000Z</time>
      </trkpt>
      <trkpt lat="45.90255" lon="5.12576">
        <ele>307</ele>
        <time>2023-05-30T16:28:22.000Z</time>
      </trkpt>
      <trkpt lat="45.90249" lon="5.1259">
        <ele>306.60000610352</ele>
        <time>2023-05-30T16:28:24.000Z</time>
      </trkpt>
      <trkpt lat="45.90242" lon="5.12604">
        <ele>306.60000610352</ele>
        <time>2023-05-30T16:28:26.000Z</time>
      </trkpt>
      <trkpt lat="45.90232" lon="5.12621">
        <ele>306.39999389648</ele>
        <time>2023-05-30T16:28:29.000Z</time>
      </trkpt>
      <trkpt lat="45.90229" lon="5.12627">
        <ele>306.20001220703</ele>
        <time>2023-05-30T16:28:30.000Z</time>
      </trkpt>
      <trkpt lat="45.90222" lon="5.12636">
        <ele>306.20001220703</ele>
        <time>2023-05-30T16:28:32.000Z</time>
      </trkpt>
      <trkpt lat="45.90212" lon="5.12653">
        <ele>306</ele>
        <time>2023-05-30T16:28:35.000Z</time>
      </trkpt>
      <trkpt lat="45.90198" lon="5.12679">
        <ele>306.39999389648</ele>
        <time>2023-05-30T16:28:39.000Z</time>
      </trkpt>
      <trkpt lat="45.90195" lon="5.12687">
        <ele>306.39999389648</ele>
        <time>2023-05-30T16:28:41.000Z</time>
      </trkpt>
      <trkpt lat="45.9019" lon="5.12703">
        <ele>306.60000610352</ele>
        <time>2023-05-30T16:28:42.000Z</time>
      </trkpt>
      <trkpt lat="45.90186" lon="5.12717">
        <ele>306.60000610352</ele>
        <time>2023-05-30T16:28:44.000Z</time>
      </trkpt>
      <trkpt lat="45.90187" lon="5.12733">
        <ele>306.79998779297</ele>
        <time>2023-05-30T16:28:46.000Z</time>
      </trkpt>
      <trkpt lat="45.9019" lon="5.12757">
        <ele>307</ele>
        <time>2023-05-30T16:28:49.000Z</time>
      </trkpt>
      <trkpt lat="45.90195" lon="5.12822">
        <ele>307.20001220703</ele>
        <time>2023-05-30T16:28:57.000Z</time>
      </trkpt>
      <trkpt lat="45.90201" lon="5.12892">
        <ele>306.79998779297</ele>
        <time>2023-05-30T16:29:05.000Z</time>
      </trkpt>
      <trkpt lat="45.90208" lon="5.12974">
        <ele>306</ele>
        <time>2023-05-30T16:29:14.000Z</time>
      </trkpt>
      <trkpt lat="45.90209" lon="5.12983">
        <ele>306</ele>
        <time>2023-05-30T16:29:15.000Z</time>
      </trkpt>
      <trkpt lat="45.90213" lon="5.13031">
        <ele>305.20001220703</ele>
        <time>2023-05-30T16:29:20.000Z</time>
      </trkpt>
      <trkpt lat="45.90213" lon="5.13038">
        <ele>305</ele>
        <time>2023-05-30T16:29:21.000Z</time>
      </trkpt>
      <trkpt lat="45.9021" lon="5.13064">
        <ele>305</ele>
        <time>2023-05-30T16:29:24.000Z</time>
      </trkpt>
      <trkpt lat="45.90203" lon="5.1308">
        <ele>304.79998779297</ele>
        <time>2023-05-30T16:29:26.000Z</time>
      </trkpt>
      <trkpt lat="45.90199" lon="5.13087">
        <ele>304.60000610352</ele>
        <time>2023-05-30T16:29:28.000Z</time>
      </trkpt>
      <trkpt lat="45.9019" lon="5.13099">
        <ele>304.39999389648</ele>
        <time>2023-05-30T16:29:29.000Z</time>
      </trkpt>
      <trkpt lat="45.90172" lon="5.13122">
        <ele>304.39999389648</ele>
        <time>2023-05-30T16:29:33.000Z</time>
      </trkpt>
      <trkpt lat="45.90138" lon="5.13173">
        <ele>304.60000610352</ele>
        <time>2023-05-30T16:29:41.000Z</time>
      </trkpt>
      <trkpt lat="45.90106" lon="5.13228">
        <ele>304.60000610352</ele>
        <time>2023-05-30T16:29:49.000Z</time>
      </trkpt>
      <trkpt lat="45.90082" lon="5.13267">
        <ele>304.60000610352</ele>
        <time>2023-05-30T16:29:56.000Z</time>
      </trkpt>
      <trkpt lat="45.90043" lon="5.13325">
        <ele>304.60000610352</ele>
        <time>2023-05-30T16:30:06.000Z</time>
      </trkpt>
      <trkpt lat="45.90038" lon="5.13331">
        <ele>304.60000610352</ele>
        <time>2023-05-30T16:30:07.000Z</time>
      </trkpt>
      <trkpt lat="45.89999" lon="5.13393">
        <ele>305.60000610352</ele>
        <time>2023-05-30T16:30:17.000Z</time>
      </trkpt>
      <trkpt lat="45.89974" lon="5.13428">
        <ele>306.39999389648</ele>
        <time>2023-05-30T16:30:23.000Z</time>
      </trkpt>
      <trkpt lat="45.89966" lon="5.13437">
        <ele>306.60000610352</ele>
        <time>2023-05-30T16:30:25.000Z</time>
      </trkpt>
      <trkpt lat="45.89935" lon="5.13473">
        <ele>307.39999389648</ele>
        <time>2023-05-30T16:30:32.000Z</time>
      </trkpt>
      <trkpt lat="45.89931" lon="5.13478">
        <ele>307.39999389648</ele>
        <time>2023-05-30T16:30:33.000Z</time>
      </trkpt>
      <trkpt lat="45.89904" lon="5.13513">
        <ele>308.39999389648</ele>
        <time>2023-05-30T16:30:40.000Z</time>
      </trkpt>
      <trkpt lat="45.89901" lon="5.13518">
        <ele>308.60000610352</ele>
        <time>2023-05-30T16:30:41.000Z</time>
      </trkpt>
      <trkpt lat="45.89894" lon="5.13527">
        <ele>309</ele>
        <time>2023-05-30T16:30:43.000Z</time>
      </trkpt>
      <trkpt lat="45.89882" lon="5.13538">
        <ele>309.39999389648</ele>
        <time>2023-05-30T16:30:46.000Z</time>
      </trkpt>
      <trkpt lat="45.89882" lon="5.13538">
        <ele>309.60000610352</ele>
        <time>2023-05-30T16:30:47.000Z</time>
      </trkpt>
      <trkpt lat="45.8987" lon="5.13546">
        <ele>310.20001220703</ele>
        <time>2023-05-30T16:30:49.000Z</time>
      </trkpt>
      <trkpt lat="45.89855" lon="5.13551">
        <ele>310.39999389648</ele>
        <time>2023-05-30T16:30:53.000Z</time>
      </trkpt>
      <trkpt lat="45.89819" lon="5.13559">
        <ele>309.60000610352</ele>
        <time>2023-05-30T16:30:59.000Z</time>
      </trkpt>
      <trkpt lat="45.89782" lon="5.13568">
        <ele>308.20001220703</ele>
        <time>2023-05-30T16:31:03.000Z</time>
      </trkpt>
      <trkpt lat="45.89773" lon="5.13571">
        <ele>308</ele>
        <time>2023-05-30T16:31:04.000Z</time>
      </trkpt>
      <trkpt lat="45.89739" lon="5.13586">
        <ele>307</ele>
        <time>2023-05-30T16:31:08.000Z</time>
      </trkpt>
      <trkpt lat="45.89739" lon="5.13586">
        <ele>306.60000610352</ele>
        <time>2023-05-30T16:31:09.000Z</time>
      </trkpt>
      <trkpt lat="45.89712" lon="5.13601">
        <ele>305.60000610352</ele>
        <time>2023-05-30T16:31:11.000Z</time>
      </trkpt>
      <trkpt lat="45.89694" lon="5.13612">
        <ele>304.39999389648</ele>
        <time>2023-05-30T16:31:14.000Z</time>
      </trkpt>
      <trkpt lat="45.89685" lon="5.13618">
        <ele>304.20001220703</ele>
        <time>2023-05-30T16:31:15.000Z</time>
      </trkpt>
      <trkpt lat="45.8966" lon="5.13635">
        <ele>303.39999389648</ele>
        <time>2023-05-30T16:31:17.000Z</time>
      </trkpt>
      <trkpt lat="45.89624" lon="5.13651">
        <ele>302.20001220703</ele>
        <time>2023-05-30T16:31:21.000Z</time>
      </trkpt>
      <trkpt lat="45.89606" lon="5.13657">
        <ele>301.20001220703</ele>
        <time>2023-05-30T16:31:24.000Z</time>
      </trkpt>
      <trkpt lat="45.89554" lon="5.13677">
        <ele>300.20001220703</ele>
        <time>2023-05-30T16:31:29.000Z</time>
      </trkpt>
      <trkpt lat="45.89554" lon="5.13677">
        <ele>300</ele>
        <time>2023-05-30T16:31:30.000Z</time>
      </trkpt>
      <trkpt lat="45.89496" lon="5.13703">
        <ele>299.39999389648</ele>
        <time>2023-05-30T16:31:36.000Z</time>
      </trkpt>
      <trkpt lat="45.89496" lon="5.13703">
        <ele>299.20001220703</ele>
        <time>2023-05-30T16:31:37.000Z</time>
      </trkpt>
      <trkpt lat="45.89488" lon="5.13707">
        <ele>299.20001220703</ele>
        <time>2023-05-30T16:31:38.000Z</time>
      </trkpt>
      <trkpt lat="45.89458" lon="5.13723">
        <ele>298.79998779297</ele>
        <time>2023-05-30T16:31:41.000Z</time>
      </trkpt>
      <trkpt lat="45.89443" lon="5.13733">
        <ele>298.39999389648</ele>
        <time>2023-05-30T16:31:44.000Z</time>
      </trkpt>
      <trkpt lat="45.89423" lon="5.13749">
        <ele>298.20001220703</ele>
        <time>2023-05-30T16:31:47.000Z</time>
      </trkpt>
      <trkpt lat="45.89391" lon="5.13777">
        <ele>298</ele>
        <time>2023-05-30T16:31:51.000Z</time>
      </trkpt>
      <trkpt lat="45.89351" lon="5.13823">
        <ele>297.39999389648</ele>
        <time>2023-05-30T16:31:59.000Z</time>
      </trkpt>
      <trkpt lat="45.8934" lon="5.13839">
        <ele>297.39999389648</ele>
        <time>2023-05-30T16:32:00.000Z</time>
      </trkpt>
      <trkpt lat="45.8932" lon="5.13876">
        <ele>297.20001220703</ele>
        <time>2023-05-30T16:32:04.000Z</time>
      </trkpt>
      <trkpt lat="45.89314" lon="5.13886">
        <ele>296.79998779297</ele>
        <time>2023-05-30T16:32:05.000Z</time>
      </trkpt>
      <trkpt lat="45.89303" lon="5.13905">
        <ele>295.79998779297</ele>
        <time>2023-05-30T16:32:08.000Z</time>
      </trkpt>
      <trkpt lat="45.8928" lon="5.13945">
        <ele>294</ele>
        <time>2023-05-30T16:32:12.000Z</time>
      </trkpt>
      <trkpt lat="45.89257" lon="5.13984">
        <ele>293</ele>
        <time>2023-05-30T16:32:15.000Z</time>
      </trkpt>
      <trkpt lat="45.89235" lon="5.14023">
        <ele>292</ele>
        <time>2023-05-30T16:32:19.000Z</time>
      </trkpt>
      <trkpt lat="45.89231" lon="5.14033">
        <ele>292</ele>
        <time>2023-05-30T16:32:20.000Z</time>
      </trkpt>
      <trkpt lat="45.89221" lon="5.14053">
        <ele>291</ele>
        <time>2023-05-30T16:32:23.000Z</time>
      </trkpt>
      <trkpt lat="45.89212" lon="5.14072">
        <ele>290.79998779297</ele>
        <time>2023-05-30T16:32:24.000Z</time>
      </trkpt>
      <trkpt lat="45.8919" lon="5.14119">
        <ele>290.39999389648</ele>
        <time>2023-05-30T16:32:29.000Z</time>
      </trkpt>
      <trkpt lat="45.89157" lon="5.1419">
        <ele>290</ele>
        <time>2023-05-30T16:32:37.000Z</time>
      </trkpt>
      <trkpt lat="45.8912" lon="5.14259">
        <ele>290.20001220703</ele>
        <time>2023-05-30T16:32:46.000Z</time>
      </trkpt>
      <trkpt lat="45.89116" lon="5.14266">
        <ele>290.39999389648</ele>
        <time>2023-05-30T16:32:47.000Z</time>
      </trkpt>
      <trkpt lat="45.89104" lon="5.14282">
        <ele>290.60000610352</ele>
        <time>2023-05-30T16:32:50.000Z</time>
      </trkpt>
      <trkpt lat="45.89095" lon="5.14289">
        <ele>290.79998779297</ele>
        <time>2023-05-30T16:32:52.000Z</time>
      </trkpt>
      <trkpt lat="45.8908" lon="5.14297">
        <ele>290.79998779297</ele>
        <time>2023-05-30T16:32:55.000Z</time>
      </trkpt>
      <trkpt lat="45.89063" lon="5.14302">
        <ele>290.79998779297</ele>
        <time>2023-05-30T16:32:58.000Z</time>
      </trkpt>
      <trkpt lat="45.89021" lon="5.14313">
        <ele>289.79998779297</ele>
        <time>2023-05-30T16:33:04.000Z</time>
      </trkpt>
      <trkpt lat="45.88989" lon="5.14318">
        <ele>288.79998779297</ele>
        <time>2023-05-30T16:33:09.000Z</time>
      </trkpt>
      <trkpt lat="45.88966" lon="5.14319">
        <ele>288</ele>
        <time>2023-05-30T16:33:11.000Z</time>
      </trkpt>
      <trkpt lat="45.88951" lon="5.1432">
        <ele>287.79998779297</ele>
        <time>2023-05-30T16:33:13.000Z</time>
      </trkpt>
      <trkpt lat="45.8891" lon="5.14324">
        <ele>287.20001220703</ele>
        <time>2023-05-30T16:33:19.000Z</time>
      </trkpt>
      <trkpt lat="45.88874" lon="5.14331">
        <ele>287.20001220703</ele>
        <time>2023-05-30T16:33:25.000Z</time>
      </trkpt>
      <trkpt lat="45.88828" lon="5.14342">
        <ele>287.60000610352</ele>
        <time>2023-05-30T16:33:33.000Z</time>
      </trkpt>
      <trkpt lat="45.88791" lon="5.14363">
        <ele>287.39999389648</ele>
        <time>2023-05-30T16:33:40.000Z</time>
      </trkpt>
      <trkpt lat="45.88762" lon="5.14393">
        <ele>287.60000610352</ele>
        <time>2023-05-30T16:33:47.000Z</time>
      </trkpt>
      <trkpt lat="45.88727" lon="5.14437">
        <ele>287.79998779297</ele>
        <time>2023-05-30T16:33:55.000Z</time>
      </trkpt>
      <trkpt lat="45.88723" lon="5.14444">
        <ele>287.79998779297</ele>
        <time>2023-05-30T16:33:56.000Z</time>
      </trkpt>
      <trkpt lat="45.88714" lon="5.1446">
        <ele>287.79998779297</ele>
        <time>2023-05-30T16:33:58.000Z</time>
      </trkpt>
      <trkpt lat="45.88708" lon="5.14477">
        <ele>287.60000610352</ele>
        <time>2023-05-30T16:34:00.000Z</time>
      </trkpt>
      <trkpt lat="45.88697" lon="5.14515">
        <ele>286.60000610352</ele>
        <time>2023-05-30T16:34:04.000Z</time>
      </trkpt>
      <trkpt lat="45.8869" lon="5.14534">
        <ele>286</ele>
        <time>2023-05-30T16:34:06.000Z</time>
      </trkpt>
      <trkpt lat="45.88686" lon="5.14543">
        <ele>285.39999389648</ele>
        <time>2023-05-30T16:34:07.000Z</time>
      </trkpt>
      <trkpt lat="45.88674" lon="5.14567">
        <ele>284.39999389648</ele>
        <time>2023-05-30T16:34:10.000Z</time>
      </trkpt>
      <trkpt lat="45.88664" lon="5.14582">
        <ele>283.39999389648</ele>
        <time>2023-05-30T16:34:12.000Z</time>
      </trkpt>
      <trkpt lat="45.88656" lon="5.14595">
        <ele>281.79998779297</ele>
        <time>2023-05-30T16:34:14.000Z</time>
      </trkpt>
      <trkpt lat="45.88645" lon="5.14612">
        <ele>280.60000610352</ele>
        <time>2023-05-30T16:34:16.000Z</time>
      </trkpt>
      <trkpt lat="45.88634" lon="5.14628">
        <ele>279.79998779297</ele>
        <time>2023-05-30T16:34:18.000Z</time>
      </trkpt>
      <trkpt lat="45.88634" lon="5.14628">
        <ele>279.60000610352</ele>
        <time>2023-05-30T16:34:19.000Z</time>
      </trkpt>
      <trkpt lat="45.88618" lon="5.14653">
        <ele>278.20001220703</ele>
        <time>2023-05-30T16:34:21.000Z</time>
      </trkpt>
      <trkpt lat="45.88607" lon="5.1467">
        <ele>276.79998779297</ele>
        <time>2023-05-30T16:34:24.000Z</time>
      </trkpt>
      <trkpt lat="45.88592" lon="5.14692">
        <ele>275.79998779297</ele>
        <time>2023-05-30T16:34:26.000Z</time>
      </trkpt>
      <trkpt lat="45.88592" lon="5.14692">
        <ele>275.20001220703</ele>
        <time>2023-05-30T16:34:27.000Z</time>
      </trkpt>
      <trkpt lat="45.88581" lon="5.14703">
        <ele>274.79998779297</ele>
        <time>2023-05-30T16:34:28.000Z</time>
      </trkpt>
      <trkpt lat="45.88571" lon="5.14714">
        <ele>274.20001220703</ele>
        <time>2023-05-30T16:34:30.000Z</time>
      </trkpt>
      <trkpt lat="45.88555" lon="5.14735">
        <ele>273</ele>
        <time>2023-05-30T16:34:33.000Z</time>
      </trkpt>
      <trkpt lat="45.88541" lon="5.1475">
        <ele>272</ele>
        <time>2023-05-30T16:34:35.000Z</time>
      </trkpt>
      <trkpt lat="45.88529" lon="5.14764">
        <ele>271</ele>
        <time>2023-05-30T16:34:38.000Z</time>
      </trkpt>
      <trkpt lat="45.88502" lon="5.14794">
        <ele>269.60000610352</ele>
        <time>2023-05-30T16:34:41.000Z</time>
      </trkpt>
      <trkpt lat="45.8849" lon="5.14808">
        <ele>268.60000610352</ele>
        <time>2023-05-30T16:34:43.000Z</time>
      </trkpt>
      <trkpt lat="45.8848" lon="5.1482">
        <ele>268</ele>
        <time>2023-05-30T16:34:45.000Z</time>
      </trkpt>
      <trkpt lat="45.88475" lon="5.14825">
        <ele>267.60000610352</ele>
        <time>2023-05-30T16:34:46.000Z</time>
      </trkpt>
      <trkpt lat="45.88475" lon="5.14825">
        <ele>267.39999389648</ele>
        <time>2023-05-30T16:34:47.000Z</time>
      </trkpt>
      <trkpt lat="45.88463" lon="5.14837">
        <ele>266.39999389648</ele>
        <time>2023-05-30T16:34:49.000Z</time>
      </trkpt>
      <trkpt lat="45.8846" lon="5.1484">
        <ele>266.39999389648</ele>
        <time>2023-05-30T16:34:50.000Z</time>
      </trkpt>
      <trkpt lat="45.88457" lon="5.14842">
        <ele>266</ele>
        <time>2023-05-30T16:34:51.000Z</time>
      </trkpt>
      <trkpt lat="45.88445" lon="5.14843">
        <ele>265.39999389648</ele>
        <time>2023-05-30T16:34:54.000Z</time>
      </trkpt>
      <trkpt lat="45.88445" lon="5.14843">
        <ele>265.20001220703</ele>
        <time>2023-05-30T16:34:55.000Z</time>
      </trkpt>
      <trkpt lat="45.88435" lon="5.14847">
        <ele>265.20001220703</ele>
        <time>2023-05-30T16:34:56.000Z</time>
      </trkpt>
      <trkpt lat="45.88425" lon="5.14854">
        <ele>264.79998779297</ele>
        <time>2023-05-30T16:34:58.000Z</time>
      </trkpt>
      <trkpt lat="45.88386" lon="5.1488">
        <ele>264.20001220703</ele>
        <time>2023-05-30T16:35:05.000Z</time>
      </trkpt>
      <trkpt lat="45.88381" lon="5.14884">
        <ele>264.20001220703</ele>
        <time>2023-05-30T16:35:06.000Z</time>
      </trkpt>
      <trkpt lat="45.88341" lon="5.14908">
        <ele>263.60000610352</ele>
        <time>2023-05-30T16:35:13.000Z</time>
      </trkpt>
      <trkpt lat="45.88298" lon="5.14922">
        <ele>263.39999389648</ele>
        <time>2023-05-30T16:35:20.000Z</time>
      </trkpt>
      <trkpt lat="45.88298" lon="5.14922">
        <ele>263.20001220703</ele>
        <time>2023-05-30T16:35:21.000Z</time>
      </trkpt>
      <trkpt lat="45.88257" lon="5.14941">
        <ele>262.39999389648</ele>
        <time>2023-05-30T16:35:27.000Z</time>
      </trkpt>
      <trkpt lat="45.88247" lon="5.14949">
        <ele>262.20001220703</ele>
        <time>2023-05-30T16:35:29.000Z</time>
      </trkpt>
      <trkpt lat="45.88232" lon="5.14959">
        <ele>262</ele>
        <time>2023-05-30T16:35:32.000Z</time>
      </trkpt>
      <trkpt lat="45.88221" lon="5.14965">
        <ele>261.60000610352</ele>
        <time>2023-05-30T16:35:34.000Z</time>
      </trkpt>
      <trkpt lat="45.88215" lon="5.14966">
        <ele>261.20001220703</ele>
        <time>2023-05-30T16:35:35.000Z</time>
      </trkpt>
      <trkpt lat="45.88205" lon="5.14967">
        <ele>260.60000610352</ele>
        <time>2023-05-30T16:35:37.000Z</time>
      </trkpt>
      <trkpt lat="45.88193" lon="5.14966">
        <ele>259.79998779297</ele>
        <time>2023-05-30T16:35:39.000Z</time>
      </trkpt>
      <trkpt lat="45.88162" lon="5.14961">
        <ele>258.79998779297</ele>
        <time>2023-05-30T16:35:44.000Z</time>
      </trkpt>
      <trkpt lat="45.88157" lon="5.14961">
        <ele>258.60000610352</ele>
        <time>2023-05-30T16:35:45.000Z</time>
      </trkpt>
      <trkpt lat="45.88147" lon="5.14962">
        <ele>258.20001220703</ele>
        <time>2023-05-30T16:35:48.000Z</time>
      </trkpt>
      <trkpt lat="45.88142" lon="5.14964">
        <ele>257.79998779297</ele>
        <time>2023-05-30T16:35:50.000Z</time>
      </trkpt>
      <trkpt lat="45.88126" lon="5.14971">
        <ele>257.20001220703</ele>
        <time>2023-05-30T16:35:54.000Z</time>
      </trkpt>
      <trkpt lat="45.88111" lon="5.14978">
        <ele>256.79998779297</ele>
        <time>2023-05-30T16:35:57.000Z</time>
      </trkpt>
      <trkpt lat="45.88099" lon="5.1498">
        <ele>256.60000610352</ele>
        <time>2023-05-30T16:35:59.000Z</time>
      </trkpt>
      <trkpt lat="45.88077" lon="5.14985">
        <ele>255.60000610352</ele>
        <time>2023-05-30T16:36:03.000Z</time>
      </trkpt>
      <trkpt lat="45.88064" lon="5.14988">
        <ele>255.39999389648</ele>
        <time>2023-05-30T16:36:06.000Z</time>
      </trkpt>
      <trkpt lat="45.88059" lon="5.14989">
        <ele>255.19999694824</ele>
        <time>2023-05-30T16:36:08.000Z</time>
      </trkpt>
      <trkpt lat="45.88057" lon="5.1499">
        <ele>255.19999694824</ele>
        <time>2023-05-30T16:36:09.000Z</time>
      </trkpt>
      <trkpt lat="45.88056" lon="5.14993">
        <ele>255</ele>
        <time>2023-05-30T16:36:10.000Z</time>
      </trkpt>
      <trkpt lat="45.88053" lon="5.15002">
        <ele>254.80000305176</ele>
        <time>2023-05-30T16:36:13.000Z</time>
      </trkpt>
      <trkpt lat="45.8805" lon="5.15028">
        <ele>254.80000305176</ele>
        <time>2023-05-30T16:36:18.000Z</time>
      </trkpt>
      <trkpt lat="45.88044" lon="5.15061">
        <ele>254.60000610352</ele>
        <time>2023-05-30T16:36:24.000Z</time>
      </trkpt>
      <trkpt lat="45.88042" lon="5.15071">
        <ele>254.60000610352</ele>
        <time>2023-05-30T16:36:26.000Z</time>
      </trkpt>
      <trkpt lat="45.88037" lon="5.15102">
        <ele>254.39999389648</ele>
        <time>2023-05-30T16:36:33.000Z</time>
      </trkpt>
      <trkpt lat="45.88038" lon="5.15112">
        <ele>254.19999694824</ele>
        <time>2023-05-30T16:36:38.000Z</time>
      </trkpt>
      <trkpt lat="45.88038" lon="5.15112">
        <ele>254.19999694824</ele>
        <time>2023-05-30T16:36:40.000Z</time>
      </trkpt>
    </trkseg>
  </trk>
</gpx>